<?xml version='1.0' encoding='UTF-8'?><gpx version="1.1" creator="JPX - https://github.com/jenetics/jpx" xmlns="http://www.topografix.com/GPX/1/1"><trk><trkseg><trkpt lat="29.72068661181026" lon="-8.974453975072286"><ele>1000.0</ele><time>2026-04-15T08:26:02Z</time></trkpt><trkpt lat="29.72070683612335" lon="-8.974525839338968"><ele>1000.0</ele><time>2026-04-15T08:26:04Z</time></trkpt><trkpt lat="29.72076877658096" lon="-8.97454458305201"><ele>1000.0</ele><time>2026-04-15T08:26:07Z</time></trkpt><trkpt lat="29.7208197716941" lon="-8.974590872064539"><ele>1000.0</ele><time>2026-04-15T08:26:57Z</time></trkpt><trkpt lat="29.720886517940347" lon="-8.974620803098865"><ele>1000.0</ele><time>2026-04-15T08:27:21Z</time></trkpt><trkpt lat="29.720853780726976" lon="-8.974547953094001"><ele>1000.0</ele><time>2026-04-15T08:27:25Z</time></trkpt><trkpt lat="29.720788589722922" lon="-8.974550009901261"><ele>1000.0</ele><time>2026-04-15T08:27:27Z</time></trkpt><trkpt lat="29.72072491592772" lon="-8.974549837761097"><ele>999.9999999999999</ele><time>2026-04-15T08:27:29Z</time></trkpt><trkpt lat="29.7206688451781" lon="-8.974508182601147"><ele>1000.0</ele><time>2026-04-15T08:27:34Z</time></trkpt><trkpt lat="29.720672336239712" lon="-8.97440918818399"><ele>1000.0</ele><time>2026-04-15T08:27:37Z</time></trkpt><trkpt lat="29.720692448853768" lon="-8.974330121497069"><ele>1000.0</ele><time>2026-04-15T08:27:38Z</time></trkpt><trkpt lat="29.720733260000486" lon="-8.974192764642583"><ele>999.9999999999999</ele><time>2026-04-15T08:27:40Z</time></trkpt><trkpt lat="29.72072870174219" lon="-8.97410444388413"><ele>1000.0</ele><time>2026-04-15T08:27:41Z</time></trkpt><trkpt lat="29.72075755801031" lon="-8.974024287580198"><ele>999.8333333333333</ele><time>2026-04-15T08:27:42Z</time></trkpt><trkpt lat="29.720783688105897" lon="-8.973951703976063"><ele>999.6666666666666</ele><time>2026-04-15T08:27:43Z</time></trkpt><trkpt lat="29.72084101876341" lon="-8.973833269266024"><ele>999.5</ele><time>2026-04-15T08:27:45Z</time></trkpt><trkpt lat="29.720866414151835" lon="-8.973747464677247"><ele>999.3333333333333</ele><time>2026-04-15T08:27:47Z</time></trkpt><trkpt lat="29.720898133841988" lon="-8.973671358827682"><ele>999.1666666666666</ele><time>2026-04-15T08:28:06Z</time></trkpt><trkpt lat="29.72090861152874" lon="-8.973575302760203"><ele>999.0</ele><time>2026-04-15T08:28:31Z</time></trkpt><trkpt lat="29.72086079479831" lon="-8.973485937611462"><ele>999.0</ele><time>2026-04-15T08:28:34Z</time></trkpt><trkpt lat="29.72083173809945" lon="-8.973415227612309"><ele>999.0000000000001</ele><time>2026-04-15T08:28:36Z</time></trkpt><trkpt lat="29.72079428076519" lon="-8.973321114764952"><ele>999.0000000000001</ele><time>2026-04-15T08:28:38Z</time></trkpt><trkpt lat="29.720757375851587" lon="-8.973221962509822"><ele>999.0</ele><time>2026-04-15T08:28:40Z</time></trkpt><trkpt lat="29.72071639575298" lon="-8.973111370209256"><ele>999.0</ele><time>2026-04-15T08:28:42Z</time></trkpt><trkpt lat="29.72067751898974" lon="-8.973005942941114"><ele>998.25</ele><time>2026-04-15T08:28:44Z</time></trkpt><trkpt lat="29.72065254360664" lon="-8.972885255707526"><ele>997.5</ele><time>2026-04-15T08:28:46Z</time></trkpt><trkpt lat="29.720599520969316" lon="-8.972765890972427"><ele>996.75</ele><time>2026-04-15T08:28:48Z</time></trkpt><trkpt lat="29.720552183698594" lon="-8.972635405992568"><ele>996.0</ele><time>2026-04-15T08:28:50Z</time></trkpt><trkpt lat="29.72051035488475" lon="-8.972520409669762"><ele>996.0</ele><time>2026-04-15T08:28:52Z</time></trkpt><trkpt lat="29.72043260301554" lon="-8.97243063649952"><ele>995.9999999999999</ele><time>2026-04-15T08:28:54Z</time></trkpt><trkpt lat="29.72038338666102" lon="-8.972314433400516"><ele>995.9999999999999</ele><time>2026-04-15T08:28:56Z</time></trkpt><trkpt lat="29.720348120119358" lon="-8.972231166743642"><ele>996.0</ele><time>2026-04-15T08:28:58Z</time></trkpt><trkpt lat="29.720306729918182" lon="-8.972140458413174"><ele>996.0</ele><time>2026-04-15T08:29:00Z</time></trkpt><trkpt lat="29.72027216038917" lon="-8.972054794335742"><ele>996.0</ele><time>2026-04-15T08:29:02Z</time></trkpt><trkpt lat="29.720257982952052" lon="-8.971983568547683"><ele>995.9999999999999</ele><time>2026-04-15T08:29:04Z</time></trkpt><trkpt lat="29.7203945449546" lon="-8.971912144288241"><ele>995.9999999999999</ele><time>2026-04-15T08:29:08Z</time></trkpt><trkpt lat="29.72050039282975" lon="-8.971965453020257"><ele>996.0</ele><time>2026-04-15T08:29:10Z</time></trkpt><trkpt lat="29.72060896047954" lon="-8.971966394822488"><ele>996.0</ele><time>2026-04-15T08:29:12Z</time></trkpt><trkpt lat="29.720671950542755" lon="-8.971966138284289"><ele>996.0</ele><time>2026-04-15T08:29:13Z</time></trkpt><trkpt lat="29.720741125799588" lon="-8.971965856556007"><ele>995.9999999999999</ele><time>2026-04-15T08:29:14Z</time></trkpt><trkpt lat="29.720808889382937" lon="-8.971977815743063"><ele>996.0</ele><time>2026-04-15T08:29:15Z</time></trkpt><trkpt lat="29.72087300169944" lon="-8.971977461006873"><ele>996.0</ele><time>2026-04-15T08:29:16Z</time></trkpt><trkpt lat="29.72093771745892" lon="-8.971980833763055"><ele>995.9999999999999</ele><time>2026-04-15T08:29:17Z</time></trkpt><trkpt lat="29.721006024394928" lon="-8.971985064223519"><ele>996.0</ele><time>2026-04-15T08:29:18Z</time></trkpt><trkpt lat="29.721075624374592" lon="-8.971987961475223"><ele>996.0</ele><time>2026-04-15T08:29:19Z</time></trkpt><trkpt lat="29.721138368477163" lon="-8.971973792842622"><ele>996.5999999999999</ele><time>2026-04-15T08:29:20Z</time></trkpt><trkpt lat="29.72126558734547" lon="-8.971976960002767"><ele>997.1999999999999</ele><time>2026-04-15T08:29:22Z</time></trkpt><trkpt lat="29.72133722258117" lon="-8.971988276968633"><ele>997.8000000000001</ele><time>2026-04-15T08:29:23Z</time></trkpt><trkpt lat="29.721415475063225" lon="-8.971993331009283"><ele>998.4000000000001</ele><time>2026-04-15T08:29:24Z</time></trkpt><trkpt lat="29.721505442153052" lon="-8.972005980317867"><ele>999.0</ele><time>2026-04-15T08:29:25Z</time></trkpt><trkpt lat="29.72159695278275" lon="-8.972000332812538"><ele>999.0</ele><time>2026-04-15T08:29:26Z</time></trkpt><trkpt lat="29.721687941088618" lon="-8.971997513312305"><ele>999.0</ele><time>2026-04-15T08:29:27Z</time></trkpt><trkpt lat="29.721777566898034" lon="-8.97199645469858"><ele>999.0</ele><time>2026-04-15T08:29:28Z</time></trkpt><trkpt lat="29.721858591610363" lon="-8.971976875135596"><ele>999.0</ele><time>2026-04-15T08:29:29Z</time></trkpt><trkpt lat="29.721934976692406" lon="-8.97197148617943"><ele>999.0</ele><time>2026-04-15T08:29:30Z</time></trkpt><trkpt lat="29.722013408951227" lon="-8.971989881816057"><ele>999.0</ele><time>2026-04-15T08:29:31Z</time></trkpt><trkpt lat="29.722088749408048" lon="-8.971984364973453"><ele>998.5</ele><time>2026-04-15T08:29:32Z</time></trkpt><trkpt lat="29.72215494374247" lon="-8.971982117110063"><ele>998.0</ele><time>2026-04-15T08:29:33Z</time></trkpt><trkpt lat="29.722218679934972" lon="-8.971977647613128"><ele>997.5</ele><time>2026-04-15T08:29:34Z</time></trkpt><trkpt lat="29.722329059957545" lon="-8.97196628699337"><ele>997.0</ele><time>2026-04-15T08:29:36Z</time></trkpt><trkpt lat="29.722425351508363" lon="-8.971958801326934"><ele>996.5</ele><time>2026-04-15T08:29:38Z</time></trkpt><trkpt lat="29.722494174836246" lon="-8.971957677585905"><ele>996.0</ele><time>2026-04-15T08:29:40Z</time></trkpt><trkpt lat="29.72257317154894" lon="-8.971956016636732"><ele>996.0</ele><time>2026-04-15T08:29:43Z</time></trkpt><trkpt lat="29.72263655321462" lon="-8.971948250298457"><ele>996.0</ele><time>2026-04-15T08:29:46Z</time></trkpt><trkpt lat="29.72271157601195" lon="-8.971941791491432"><ele>996.0</ele><time>2026-04-15T08:29:49Z</time></trkpt><trkpt lat="29.722798636373774" lon="-8.97193959993458"><ele>996.0</ele><time>2026-04-15T08:29:52Z</time></trkpt><trkpt lat="29.722892562403235" lon="-8.971937500179031"><ele>996.0</ele><time>2026-04-15T08:29:55Z</time></trkpt><trkpt lat="29.722957832981944" lon="-8.971928975324639"><ele>996.0</ele><time>2026-04-15T08:29:57Z</time></trkpt><trkpt lat="29.723034251481035" lon="-8.971934135999497"><ele>995.3333333333334</ele><time>2026-04-15T08:29:59Z</time></trkpt><trkpt lat="29.723162924505733" lon="-8.97192254263326"><ele>994.6666666666667</ele><time>2026-04-15T08:30:01Z</time></trkpt><trkpt lat="29.723231306121782" lon="-8.97192106809617"><ele>994.0</ele><time>2026-04-15T08:30:02Z</time></trkpt><trkpt lat="29.723304794794668" lon="-8.971916798228927"><ele>993.3333333333334</ele><time>2026-04-15T08:30:03Z</time></trkpt><trkpt lat="29.723383268491034" lon="-8.971913454505794"><ele>992.6666666666667</ele><time>2026-04-15T08:30:04Z</time></trkpt><trkpt lat="29.723469735515742" lon="-8.971911363324184"><ele>992.0</ele><time>2026-04-15T08:30:05Z</time></trkpt><trkpt lat="29.723565914153458" lon="-8.971909927282015"><ele>991.2</ele><time>2026-04-15T08:30:06Z</time></trkpt><trkpt lat="29.723663332078484" lon="-8.97190746163791"><ele>990.4000000000001</ele><time>2026-04-15T08:30:07Z</time></trkpt><trkpt lat="29.723761025730955" lon="-8.971903704001283"><ele>989.5999999999999</ele><time>2026-04-15T08:30:08Z</time></trkpt><trkpt lat="29.723863433509774" lon="-8.971900924395223"><ele>988.8</ele><time>2026-04-15T08:30:09Z</time></trkpt><trkpt lat="29.72396331302879" lon="-8.971899078146674"><ele>988.0</ele><time>2026-04-15T08:30:10Z</time></trkpt><trkpt lat="29.72405964677903" lon="-8.97189569851752"><ele>987.9999999999999</ele><time>2026-04-15T08:30:11Z</time></trkpt><trkpt lat="29.72415425767086" lon="-8.971893077063307"><ele>988.0</ele><time>2026-04-15T08:30:12Z</time></trkpt><trkpt lat="29.72424437858567" lon="-8.97189301398992"><ele>988.0</ele><time>2026-04-15T08:30:13Z</time></trkpt><trkpt lat="29.724331555258395" lon="-8.971891621365943"><ele>988.0</ele><time>2026-04-15T08:30:14Z</time></trkpt><trkpt lat="29.724419107717285" lon="-8.97188532078752"><ele>987.9999999999999</ele><time>2026-04-15T08:30:15Z</time></trkpt><trkpt lat="29.72450417616526" lon="-8.971882343023209"><ele>988.0</ele><time>2026-04-15T08:30:16Z</time></trkpt><trkpt lat="29.72458943144515" lon="-8.971884064835308"><ele>988.2</ele><time>2026-04-15T08:30:17Z</time></trkpt><trkpt lat="29.724674796028296" lon="-8.971883817895097"><ele>988.4</ele><time>2026-04-15T08:30:18Z</time></trkpt><trkpt lat="29.72476754691307" lon="-8.971890694657548"><ele>988.6000000000001</ele><time>2026-04-15T08:30:19Z</time></trkpt><trkpt lat="29.72486482899376" lon="-8.971903145474364"><ele>988.8000000000001</ele><time>2026-04-15T08:30:20Z</time></trkpt><trkpt lat="29.724964555241204" lon="-8.971921642826684"><ele>989.0</ele><time>2026-04-15T08:30:21Z</time></trkpt><trkpt lat="29.72506562095121" lon="-8.971942391346586"><ele>989.0</ele><time>2026-04-15T08:30:22Z</time></trkpt><trkpt lat="29.725159320758916" lon="-8.971965062635459"><ele>989.0000000000001</ele><time>2026-04-15T08:30:23Z</time></trkpt><trkpt lat="29.72524254485535" lon="-8.972000957653668"><ele>989.0000000000001</ele><time>2026-04-15T08:30:24Z</time></trkpt><trkpt lat="29.72532609770884" lon="-8.972034086020178"><ele>989.0</ele><time>2026-04-15T08:30:25Z</time></trkpt><trkpt lat="29.725414284306815" lon="-8.972070263507032"><ele>989.0</ele><time>2026-04-15T08:30:26Z</time></trkpt><trkpt lat="29.7255141759832" lon="-8.972110315709104"><ele>988.8000000000001</ele><time>2026-04-15T08:30:27Z</time></trkpt><trkpt lat="29.725610918268913" lon="-8.972148816298827"><ele>988.6000000000001</ele><time>2026-04-15T08:30:28Z</time></trkpt><trkpt lat="29.72570414068515" lon="-8.972189257641976"><ele>988.4</ele><time>2026-04-15T08:30:29Z</time></trkpt><trkpt lat="29.725799344881228" lon="-8.97222758240272"><ele>988.2</ele><time>2026-04-15T08:30:30Z</time></trkpt><trkpt lat="29.725898571451204" lon="-8.97226294539246"><ele>988.0</ele><time>2026-04-15T08:30:31Z</time></trkpt><trkpt lat="29.725994880228313" lon="-8.972299176543935"><ele>987.5999999999999</ele><time>2026-04-15T08:30:32Z</time></trkpt><trkpt lat="29.726091963524407" lon="-8.972342108020959"><ele>987.1999999999999</ele><time>2026-04-15T08:30:33Z</time></trkpt><trkpt lat="29.726185414983316" lon="-8.972383792273215"><ele>986.8</ele><time>2026-04-15T08:30:34Z</time></trkpt><trkpt lat="29.726281058038868" lon="-8.972426302227873"><ele>986.4</ele><time>2026-04-15T08:30:35Z</time></trkpt><trkpt lat="29.726372985796946" lon="-8.972465862949043"><ele>986.0</ele><time>2026-04-15T08:30:36Z</time></trkpt><trkpt lat="29.72646270941487" lon="-8.972496191833923"><ele>986.0000000000001</ele><time>2026-04-15T08:30:37Z</time></trkpt><trkpt lat="29.72654483227443" lon="-8.972514432840503"><ele>986.0</ele><time>2026-04-15T08:30:38Z</time></trkpt><trkpt lat="29.72661491974665" lon="-8.97252592126522"><ele>986.0</ele><time>2026-04-15T08:30:39Z</time></trkpt><trkpt lat="29.7266856018976" lon="-8.972524017814482"><ele>986.0</ele><time>2026-04-15T08:30:40Z</time></trkpt><trkpt lat="29.726806952068937" lon="-8.972546418683848"><ele>986.0000000000001</ele><time>2026-04-15T08:30:42Z</time></trkpt><trkpt lat="29.726871667779335" lon="-8.972549422423533"><ele>986.0</ele><time>2026-04-15T08:30:43Z</time></trkpt><trkpt lat="29.726941004400473" lon="-8.972550919809464"><ele>985.6666666666667</ele><time>2026-04-15T08:30:44Z</time></trkpt><trkpt lat="29.72701418463674" lon="-8.972554256898444"><ele>985.3333333333334</ele><time>2026-04-15T08:30:45Z</time></trkpt><trkpt lat="29.727093290993817" lon="-8.97254822623758"><ele>985.0</ele><time>2026-04-15T08:30:46Z</time></trkpt><trkpt lat="29.72717868487461" lon="-8.972534705894166"><ele>984.6666666666667</ele><time>2026-04-15T08:30:47Z</time></trkpt><trkpt lat="29.727266341272365" lon="-8.972516979429802"><ele>984.3333333333334</ele><time>2026-04-15T08:30:48Z</time></trkpt><trkpt lat="29.727357285885223" lon="-8.972491725929563"><ele>984.0</ele><time>2026-04-15T08:30:49Z</time></trkpt><trkpt lat="29.727453566996" lon="-8.972463451700978"><ele>984.0</ele><time>2026-04-15T08:30:50Z</time></trkpt><trkpt lat="29.72755718200397" lon="-8.972427295896544"><ele>984.0</ele><time>2026-04-15T08:30:51Z</time></trkpt><trkpt lat="29.727666185167006" lon="-8.97238271086973"><ele>984.0</ele><time>2026-04-15T08:30:52Z</time></trkpt><trkpt lat="29.727771124510866" lon="-8.97232991575073"><ele>984.0</ele><time>2026-04-15T08:30:53Z</time></trkpt><trkpt lat="29.727877599967485" lon="-8.972265886656377"><ele>982.75</ele><time>2026-04-15T08:30:54Z</time></trkpt><trkpt lat="29.72798742255786" lon="-8.972195219530523"><ele>981.5</ele><time>2026-04-15T08:30:55Z</time></trkpt><trkpt lat="29.728097031737732" lon="-8.972123986991857"><ele>980.25</ele><time>2026-04-15T08:30:56Z</time></trkpt><trkpt lat="29.728204176797664" lon="-8.972047249069764"><ele>979.0</ele><time>2026-04-15T08:30:57Z</time></trkpt><trkpt lat="29.728321869452138" lon="-8.971973024329964"><ele>979.0</ele><time>2026-04-15T08:30:58Z</time></trkpt><trkpt lat="29.728435374555513" lon="-8.971896724699866"><ele>979.0</ele><time>2026-04-15T08:30:59Z</time></trkpt><trkpt lat="29.7285517879676" lon="-8.971818262830848"><ele>979.0</ele><time>2026-04-15T08:31:00Z</time></trkpt><trkpt lat="29.728672913078693" lon="-8.97174000042601"><ele>979.0</ele><time>2026-04-15T08:31:01Z</time></trkpt><trkpt lat="29.728796545567267" lon="-8.97165750035907"><ele>978.25</ele><time>2026-04-15T08:31:02Z</time></trkpt><trkpt lat="29.728918075619077" lon="-8.971574304131781"><ele>977.5</ele><time>2026-04-15T08:31:03Z</time></trkpt><trkpt lat="29.729036890001876" lon="-8.971493693476177"><ele>976.75</ele><time>2026-04-15T08:31:04Z</time></trkpt><trkpt lat="29.729159575871005" lon="-8.971411639266696"><ele>976.0</ele><time>2026-04-15T08:31:05Z</time></trkpt><trkpt lat="29.729283224818097" lon="-8.971330279237659"><ele>976.0</ele><time>2026-04-15T08:31:06Z</time></trkpt><trkpt lat="29.72940882302905" lon="-8.971249451226953"><ele>976.0</ele><time>2026-04-15T08:31:07Z</time></trkpt><trkpt lat="29.72953264015252" lon="-8.971166767980083"><ele>976.0</ele><time>2026-04-15T08:31:08Z</time></trkpt><trkpt lat="29.729650053459583" lon="-8.971084433872086"><ele>976.0</ele><time>2026-04-15T08:31:09Z</time></trkpt><trkpt lat="29.729757480408658" lon="-8.971010106912768"><ele>976.0</ele><time>2026-04-15T08:31:10Z</time></trkpt><trkpt lat="29.72986421875701" lon="-8.9709389840391"><ele>976.0</ele><time>2026-04-15T08:31:11Z</time></trkpt><trkpt lat="29.729972936901934" lon="-8.970867062582222"><ele>976.0</ele><time>2026-04-15T08:31:12Z</time></trkpt><trkpt lat="29.7300713820296" lon="-8.970798158321173"><ele>976.0</ele><time>2026-04-15T08:31:13Z</time></trkpt><trkpt lat="29.730175112506537" lon="-8.97072810779454"><ele>975.25</ele><time>2026-04-15T08:31:14Z</time></trkpt><trkpt lat="29.73027857664485" lon="-8.97065101607257"><ele>974.5</ele><time>2026-04-15T08:31:15Z</time></trkpt><trkpt lat="29.730383310858326" lon="-8.970568033641811"><ele>973.75</ele><time>2026-04-15T08:31:16Z</time></trkpt><trkpt lat="29.73047678241737" lon="-8.970484139456211"><ele>973.0</ele><time>2026-04-15T08:31:17Z</time></trkpt><trkpt lat="29.730564103040443" lon="-8.970402854402655"><ele>973.0</ele><time>2026-04-15T08:31:18Z</time></trkpt><trkpt lat="29.730645832757777" lon="-8.970324228864365"><ele>973.0</ele><time>2026-04-15T08:31:19Z</time></trkpt><trkpt lat="29.730725726911604" lon="-8.97024519060119"><ele>973.0</ele><time>2026-04-15T08:31:20Z</time></trkpt><trkpt lat="29.730812567090965" lon="-8.970157553191118"><ele>973.0</ele><time>2026-04-15T08:31:21Z</time></trkpt><trkpt lat="29.7309068873843" lon="-8.970067596221044"><ele>973.5</ele><time>2026-04-15T08:31:22Z</time></trkpt><trkpt lat="29.73100446665334" lon="-8.969968660408979"><ele>974.0</ele><time>2026-04-15T08:31:23Z</time></trkpt><trkpt lat="29.731104596568787" lon="-8.969859926263497"><ele>974.5</ele><time>2026-04-15T08:31:24Z</time></trkpt><trkpt lat="29.73120564711944" lon="-8.969745677444653"><ele>975.0</ele><time>2026-04-15T08:31:25Z</time></trkpt><trkpt lat="29.73130788427922" lon="-8.969625472831053"><ele>973.6666666666667</ele><time>2026-04-15T08:31:26Z</time></trkpt><trkpt lat="29.731402967246687" lon="-8.96948380902709"><ele>972.3333333333334</ele><time>2026-04-15T08:31:27Z</time></trkpt><trkpt lat="29.731508046834882" lon="-8.96934942821253"><ele>971.0</ele><time>2026-04-15T08:31:28Z</time></trkpt><trkpt lat="29.731613350454797" lon="-8.969216484313007"><ele>971.25</ele><time>2026-04-15T08:31:29Z</time></trkpt><trkpt lat="29.731718664634194" lon="-8.969094421827833"><ele>971.5</ele><time>2026-04-15T08:31:30Z</time></trkpt><trkpt lat="29.73183749003542" lon="-8.96898316404556"><ele>971.75</ele><time>2026-04-15T08:31:31Z</time></trkpt><trkpt lat="29.731932286562742" lon="-8.968856076924823"><ele>972.0</ele><time>2026-04-15T08:31:32Z</time></trkpt><trkpt lat="29.732019515408403" lon="-8.968735772029708"><ele>972.5</ele><time>2026-04-15T08:31:33Z</time></trkpt><trkpt lat="29.732103134244117" lon="-8.968623755352947"><ele>973.0</ele><time>2026-04-15T08:31:34Z</time></trkpt><trkpt lat="29.732188699290127" lon="-8.968516513099631"><ele>973.5</ele><time>2026-04-15T08:31:35Z</time></trkpt><trkpt lat="29.732275063193068" lon="-8.968407144639238"><ele>974.0</ele><time>2026-04-15T08:31:36Z</time></trkpt><trkpt lat="29.732364043777743" lon="-8.968296081331026"><ele>974.0</ele><time>2026-04-15T08:31:37Z</time></trkpt><trkpt lat="29.73245195717234" lon="-8.968184675476257"><ele>974.0</ele><time>2026-04-15T08:31:38Z</time></trkpt><trkpt lat="29.732539551163097" lon="-8.968073361370386"><ele>974.0</ele><time>2026-04-15T08:31:39Z</time></trkpt><trkpt lat="29.732626500944683" lon="-8.967965390920904"><ele>974.0</ele><time>2026-04-15T08:31:40Z</time></trkpt><trkpt lat="29.73271574340371" lon="-8.967857254487821"><ele>974.25</ele><time>2026-04-15T08:31:41Z</time></trkpt><trkpt lat="29.732804985133654" lon="-8.967744297472601"><ele>974.5</ele><time>2026-04-15T08:31:42Z</time></trkpt><trkpt lat="29.732892867687244" lon="-8.967631668088396"><ele>974.75</ele><time>2026-04-15T08:31:43Z</time></trkpt><trkpt lat="29.732981493076185" lon="-8.967521148518166"><ele>975.0</ele><time>2026-04-15T08:31:44Z</time></trkpt><trkpt lat="29.7330718173722" lon="-8.967409441280553"><ele>975.0</ele><time>2026-04-15T08:31:45Z</time></trkpt><trkpt lat="29.73316514422375" lon="-8.967296433228174"><ele>975.0</ele><time>2026-04-15T08:31:46Z</time></trkpt><trkpt lat="29.733257650935016" lon="-8.967185311143668"><ele>975.0</ele><time>2026-04-15T08:31:47Z</time></trkpt><trkpt lat="29.73334881170632" lon="-8.96707721816271"><ele>975.0</ele><time>2026-04-15T08:31:48Z</time></trkpt><trkpt lat="29.733439993022778" lon="-8.966972538666178"><ele>975.0</ele><time>2026-04-15T08:31:49Z</time></trkpt><trkpt lat="29.733532107581905" lon="-8.966870895388302"><ele>975.0</ele><time>2026-04-15T08:31:50Z</time></trkpt><trkpt lat="29.73364314926796" lon="-8.966780782913654"><ele>975.0</ele><time>2026-04-15T08:31:51Z</time></trkpt><trkpt lat="29.733761031110756" lon="-8.966695090987136"><ele>975.0</ele><time>2026-04-15T08:31:52Z</time></trkpt><trkpt lat="29.73388552424263" lon="-8.966616218793156"><ele>975.0</ele><time>2026-04-15T08:31:53Z</time></trkpt><trkpt lat="29.734021245040534" lon="-8.966539624353816"><ele>975.0</ele><time>2026-04-15T08:31:54Z</time></trkpt><trkpt lat="29.734145664635605" lon="-8.966475312088203"><ele>975.0</ele><time>2026-04-15T08:31:55Z</time></trkpt><trkpt lat="29.73427375632526" lon="-8.966415610019459"><ele>975.0</ele><time>2026-04-15T08:31:56Z</time></trkpt><trkpt lat="29.7344022092952" lon="-8.966355027799429"><ele>974.5</ele><time>2026-04-15T08:31:57Z</time></trkpt><trkpt lat="29.734535057507507" lon="-8.96629333381547"><ele>974.0</ele><time>2026-04-15T08:31:58Z</time></trkpt><trkpt lat="29.734668140804686" lon="-8.966228510848959"><ele>973.5</ele><time>2026-04-15T08:31:59Z</time></trkpt><trkpt lat="29.734799775670076" lon="-8.96616821950932"><ele>973.0</ele><time>2026-04-15T08:32:00Z</time></trkpt><trkpt lat="29.734921353335594" lon="-8.966110259844813"><ele>973.0</ele><time>2026-04-15T08:32:01Z</time></trkpt><trkpt lat="29.735039898339615" lon="-8.966051949719944"><ele>973.0</ele><time>2026-04-15T08:32:02Z</time></trkpt><trkpt lat="29.735156650877414" lon="-8.965989752183285"><ele>973.0</ele><time>2026-04-15T08:32:03Z</time></trkpt><trkpt lat="29.735271008461265" lon="-8.965932857862944"><ele>973.0</ele><time>2026-04-15T08:32:04Z</time></trkpt><trkpt lat="29.73538472033402" lon="-8.965879874368518"><ele>973.0</ele><time>2026-04-15T08:32:05Z</time></trkpt><trkpt lat="29.73549750828954" lon="-8.96583209705638"><ele>973.0</ele><time>2026-04-15T08:32:06Z</time></trkpt><trkpt lat="29.735613634289468" lon="-8.965777456231843"><ele>973.0</ele><time>2026-04-15T08:32:07Z</time></trkpt><trkpt lat="29.735737462663035" lon="-8.965716639414836"><ele>973.0</ele><time>2026-04-15T08:32:08Z</time></trkpt><trkpt lat="29.735862300762843" lon="-8.96565539790698"><ele>973.0</ele><time>2026-04-15T08:32:09Z</time></trkpt><trkpt lat="29.73598512787603" lon="-8.965601967582733"><ele>973.0</ele><time>2026-04-15T08:32:10Z</time></trkpt><trkpt lat="29.73610985566351" lon="-8.96554598616297"><ele>973.0</ele><time>2026-04-15T08:32:11Z</time></trkpt><trkpt lat="29.73622532706181" lon="-8.965490303615887"><ele>973.0</ele><time>2026-04-15T08:32:12Z</time></trkpt><trkpt lat="29.73634088834" lon="-8.965432468944346"><ele>973.5</ele><time>2026-04-15T08:32:13Z</time></trkpt><trkpt lat="29.73645596396281" lon="-8.965376910036738"><ele>974.0</ele><time>2026-04-15T08:32:14Z</time></trkpt><trkpt lat="29.73657345944351" lon="-8.965319813209266"><ele>974.5</ele><time>2026-04-15T08:32:15Z</time></trkpt><trkpt lat="29.73669017368077" lon="-8.965265505373265"><ele>975.0</ele><time>2026-04-15T08:32:16Z</time></trkpt><trkpt lat="29.73681095956372" lon="-8.96521069232096"><ele>975.75</ele><time>2026-04-15T08:32:17Z</time></trkpt><trkpt lat="29.73693671035295" lon="-8.965151859007657"><ele>976.5</ele><time>2026-04-15T08:32:18Z</time></trkpt><trkpt lat="29.73706696082442" lon="-8.965088534827835"><ele>977.25</ele><time>2026-04-15T08:32:19Z</time></trkpt><trkpt lat="29.73720019284515" lon="-8.965022836537484"><ele>978.0</ele><time>2026-04-15T08:32:20Z</time></trkpt><trkpt lat="29.737334251308944" lon="-8.964955944044823"><ele>978.0</ele><time>2026-04-15T08:32:21Z</time></trkpt><trkpt lat="29.737469126708923" lon="-8.964888617972052"><ele>978.0</ele><time>2026-04-15T08:32:22Z</time></trkpt><trkpt lat="29.737607341060166" lon="-8.964817300557867"><ele>978.0</ele><time>2026-04-15T08:32:23Z</time></trkpt><trkpt lat="29.73774801869935" lon="-8.964746661589482"><ele>980.3333333333333</ele><time>2026-04-15T08:32:24Z</time></trkpt><trkpt lat="29.73789536161565" lon="-8.964677866976219"><ele>982.6666666666666</ele><time>2026-04-15T08:32:25Z</time></trkpt><trkpt lat="29.738044734736757" lon="-8.964607058763276"><ele>985.0</ele><time>2026-04-15T08:32:26Z</time></trkpt><trkpt lat="29.73819520084551" lon="-8.964535236641044"><ele>985.0</ele><time>2026-04-15T08:32:27Z</time></trkpt><trkpt lat="29.73834102533093" lon="-8.964462297383477"><ele>985.0</ele><time>2026-04-15T08:32:28Z</time></trkpt><trkpt lat="29.73848679391491" lon="-8.964392183010455"><ele>985.0</ele><time>2026-04-15T08:32:29Z</time></trkpt><trkpt lat="29.738632761952292" lon="-8.964323704422291"><ele>984.0</ele><time>2026-04-15T08:32:30Z</time></trkpt><trkpt lat="29.738778349638647" lon="-8.964253380724823"><ele>983.0</ele><time>2026-04-15T08:32:31Z</time></trkpt><trkpt lat="29.73892096916107" lon="-8.96418191275453"><ele>982.0</ele><time>2026-04-15T08:32:32Z</time></trkpt><trkpt lat="29.739064361671506" lon="-8.964109626542273"><ele>982.0</ele><time>2026-04-15T08:32:33Z</time></trkpt><trkpt lat="29.739206833893224" lon="-8.964040138080748"><ele>982.0</ele><time>2026-04-15T08:32:34Z</time></trkpt><trkpt lat="29.739350453182926" lon="-8.963972256133587"><ele>982.0</ele><time>2026-04-15T08:32:35Z</time></trkpt><trkpt lat="29.739488741441384" lon="-8.963902630846055"><ele>983.75</ele><time>2026-04-15T08:32:36Z</time></trkpt><trkpt lat="29.739625888198297" lon="-8.963836547672537"><ele>985.5</ele><time>2026-04-15T08:32:37Z</time></trkpt><trkpt lat="29.73975780371358" lon="-8.963774657375646"><ele>987.25</ele><time>2026-04-15T08:32:38Z</time></trkpt><trkpt lat="29.739881763200255" lon="-8.963712967923044"><ele>989.0</ele><time>2026-04-15T08:32:39Z</time></trkpt><trkpt lat="29.74000840687542" lon="-8.963646186363787"><ele>989.0</ele><time>2026-04-15T08:32:40Z</time></trkpt><trkpt lat="29.740132820815422" lon="-8.963567919629892"><ele>989.0</ele><time>2026-04-15T08:32:41Z</time></trkpt><trkpt lat="29.740256667411135" lon="-8.963476663638431"><ele>989.0</ele><time>2026-04-15T08:32:42Z</time></trkpt><trkpt lat="29.740374040642845" lon="-8.96337430097756"><ele>989.0</ele><time>2026-04-15T08:32:43Z</time></trkpt><trkpt lat="29.740485757357018" lon="-8.963257716743811"><ele>991.0</ele><time>2026-04-15T08:32:44Z</time></trkpt><trkpt lat="29.740599544883427" lon="-8.963138430771878"><ele>993.0</ele><time>2026-04-15T08:32:45Z</time></trkpt><trkpt lat="29.74071173315424" lon="-8.963023155161627"><ele>995.0</ele><time>2026-04-15T08:32:46Z</time></trkpt><trkpt lat="29.74082308730815" lon="-8.962906608391304"><ele>995.0</ele><time>2026-04-15T08:32:47Z</time></trkpt><trkpt lat="29.740932987473585" lon="-8.962788948176254"><ele>995.0</ele><time>2026-04-15T08:32:48Z</time></trkpt><trkpt lat="29.74104332255404" lon="-8.962673350481548"><ele>995.0</ele><time>2026-04-15T08:32:49Z</time></trkpt><trkpt lat="29.74115557906442" lon="-8.962562368508818"><ele>995.0</ele><time>2026-04-15T08:32:50Z</time></trkpt><trkpt lat="29.741283093379003" lon="-8.96245555658811"><ele>996.0</ele><time>2026-04-15T08:32:51Z</time></trkpt><trkpt lat="29.741409395041693" lon="-8.962350749155469"><ele>997.0</ele><time>2026-04-15T08:32:52Z</time></trkpt><trkpt lat="29.741539636176466" lon="-8.962250712652175"><ele>998.0</ele><time>2026-04-15T08:32:53Z</time></trkpt><trkpt lat="29.74166999337757" lon="-8.962152754437982"><ele>998.0</ele><time>2026-04-15T08:32:54Z</time></trkpt><trkpt lat="29.74180574835329" lon="-8.962061955820884"><ele>998.0</ele><time>2026-04-15T08:32:55Z</time></trkpt><trkpt lat="29.741944285150623" lon="-8.961979399867925"><ele>998.0</ele><time>2026-04-15T08:32:56Z</time></trkpt><trkpt lat="29.742085232108874" lon="-8.961898550679654"><ele>995.6666666666667</ele><time>2026-04-15T08:32:57Z</time></trkpt><trkpt lat="29.742228730940923" lon="-8.961822272724127"><ele>993.3333333333333</ele><time>2026-04-15T08:32:58Z</time></trkpt><trkpt lat="29.74237035970953" lon="-8.961752888698381"><ele>991.0</ele><time>2026-04-15T08:32:59Z</time></trkpt><trkpt lat="29.742508411239832" lon="-8.961685171870743"><ele>991.0</ele><time>2026-04-15T08:33:00Z</time></trkpt><trkpt lat="29.742646328460403" lon="-8.961619387905182"><ele>991.0</ele><time>2026-04-15T08:33:01Z</time></trkpt><trkpt lat="29.742787985984105" lon="-8.961549202717228"><ele>991.0</ele><time>2026-04-15T08:33:02Z</time></trkpt><trkpt lat="29.742929753598208" lon="-8.961485375846184"><ele>992.3333333333333</ele><time>2026-04-15T08:33:03Z</time></trkpt><trkpt lat="29.74306908928231" lon="-8.961424869434682"><ele>993.6666666666667</ele><time>2026-04-15T08:33:04Z</time></trkpt><trkpt lat="29.743211659487898" lon="-8.961352734290749"><ele>995.0</ele><time>2026-04-15T08:33:05Z</time></trkpt><trkpt lat="29.74335425350713" lon="-8.961285054662591"><ele>995.0</ele><time>2026-04-15T08:33:06Z</time></trkpt><trkpt lat="29.74348604822712" lon="-8.961222422236016"><ele>995.0</ele><time>2026-04-15T08:33:07Z</time></trkpt><trkpt lat="29.74361146386588" lon="-8.961159150007644"><ele>995.0</ele><time>2026-04-15T08:33:08Z</time></trkpt><trkpt lat="29.743741048175572" lon="-8.961094486903264"><ele>995.0</ele><time>2026-04-15T08:33:09Z</time></trkpt><trkpt lat="29.743876395621783" lon="-8.961028968482534"><ele>995.6666666666667</ele><time>2026-04-15T08:33:10Z</time></trkpt><trkpt lat="29.744013975549596" lon="-8.960962385065798"><ele>996.3333333333333</ele><time>2026-04-15T08:33:11Z</time></trkpt><trkpt lat="29.744156168339625" lon="-8.96089249404702"><ele>997.0</ele><time>2026-04-15T08:33:12Z</time></trkpt><trkpt lat="29.7442992569014" lon="-8.960826322360251"><ele>998.25</ele><time>2026-04-15T08:33:13Z</time></trkpt><trkpt lat="29.74443804253778" lon="-8.960759696404123"><ele>999.5</ele><time>2026-04-15T08:33:14Z</time></trkpt><trkpt lat="29.74457495144585" lon="-8.960696332795038"><ele>1000.75</ele><time>2026-04-15T08:33:15Z</time></trkpt><trkpt lat="29.744707394138256" lon="-8.96063350398058"><ele>1002.0</ele><time>2026-04-15T08:33:16Z</time></trkpt><trkpt lat="29.74483512388093" lon="-8.960572547659657"><ele>1002.0</ele><time>2026-04-15T08:33:17Z</time></trkpt><trkpt lat="29.74494971120484" lon="-8.960516339647267"><ele>1002.0</ele><time>2026-04-15T08:33:18Z</time></trkpt><trkpt lat="29.745061086875356" lon="-8.960466609134393"><ele>1002.0</ele><time>2026-04-15T08:33:19Z</time></trkpt><trkpt lat="29.745167356409823" lon="-8.960420482666832"><ele>1002.0</ele><time>2026-04-15T08:33:20Z</time></trkpt><trkpt lat="29.745269360258792" lon="-8.960378982348498"><ele>1003.8</ele><time>2026-04-15T08:33:21Z</time></trkpt><trkpt lat="29.745366687883532" lon="-8.960334974701109"><ele>1005.6</ele><time>2026-04-15T08:33:22Z</time></trkpt><trkpt lat="29.745459669349593" lon="-8.960296101712604"><ele>1007.3999999999999</ele><time>2026-04-15T08:33:23Z</time></trkpt><trkpt lat="29.745559772270873" lon="-8.96026273653457"><ele>1009.1999999999999</ele><time>2026-04-15T08:33:24Z</time></trkpt><trkpt lat="29.74566562101417" lon="-8.960220038815255"><ele>1011.0</ele><time>2026-04-15T08:33:25Z</time></trkpt><trkpt lat="29.745776928806936" lon="-8.960174467232576"><ele>1011.0</ele><time>2026-04-15T08:33:26Z</time></trkpt><trkpt lat="29.74589033160513" lon="-8.960135925831485"><ele>1010.9999999999999</ele><time>2026-04-15T08:33:27Z</time></trkpt><trkpt lat="29.74599440925445" lon="-8.960107748652858"><ele>1010.9999999999999</ele><time>2026-04-15T08:33:28Z</time></trkpt><trkpt lat="29.746090563902246" lon="-8.960081632886789"><ele>1011.0</ele><time>2026-04-15T08:33:29Z</time></trkpt><trkpt lat="29.74617543029806" lon="-8.960054970970926"><ele>1011.0</ele><time>2026-04-15T08:33:30Z</time></trkpt><trkpt lat="29.746261351957706" lon="-8.960039634160674"><ele>1010.1999999999999</ele><time>2026-04-15T08:33:31Z</time></trkpt><trkpt lat="29.74635265717838" lon="-8.960021463571417"><ele>1009.3999999999999</ele><time>2026-04-15T08:33:32Z</time></trkpt><trkpt lat="29.746451954598324" lon="-8.959999156089633"><ele>1008.6</ele><time>2026-04-15T08:33:33Z</time></trkpt><trkpt lat="29.74655821760668" lon="-8.959979996505785"><ele>1007.8</ele><time>2026-04-15T08:33:34Z</time></trkpt><trkpt lat="29.74666928702801" lon="-8.959963299659606"><ele>1007.0</ele><time>2026-04-15T08:33:35Z</time></trkpt><trkpt lat="29.74678923448053" lon="-8.959949024155954"><ele>1007.0</ele><time>2026-04-15T08:33:36Z</time></trkpt><trkpt lat="29.746911238565136" lon="-8.95993754158852"><ele>1007.0</ele><time>2026-04-15T08:33:37Z</time></trkpt><trkpt lat="29.747041924659005" lon="-8.959930006253334"><ele>1007.0</ele><time>2026-04-15T08:33:38Z</time></trkpt><trkpt lat="29.747171531841875" lon="-8.959924076522153"><ele>1007.0</ele><time>2026-04-15T08:33:39Z</time></trkpt><trkpt lat="29.747307528584123" lon="-8.95992014451289"><ele>1007.0</ele><time>2026-04-15T08:33:40Z</time></trkpt><trkpt lat="29.7474392201003" lon="-8.959915824492924"><ele>1007.0</ele><time>2026-04-15T08:33:41Z</time></trkpt><trkpt lat="29.747565717092332" lon="-8.959911845130351"><ele>1007.0</ele><time>2026-04-15T08:33:42Z</time></trkpt><trkpt lat="29.747691643052267" lon="-8.9599088841893"><ele>1007.0</ele><time>2026-04-15T08:33:43Z</time></trkpt><trkpt lat="29.747813341928214" lon="-8.959913865159608"><ele>1006.4000000000001</ele><time>2026-04-15T08:33:44Z</time></trkpt><trkpt lat="29.747929464915615" lon="-8.959919433158246"><ele>1005.8000000000001</ele><time>2026-04-15T08:33:45Z</time></trkpt><trkpt lat="29.748037276034076" lon="-8.959919039693354"><ele>1005.2</ele><time>2026-04-15T08:33:46Z</time></trkpt><trkpt lat="29.748143711627023" lon="-8.959919560549665"><ele>1004.6</ele><time>2026-04-15T08:33:47Z</time></trkpt><trkpt lat="29.74824814398308" lon="-8.959925840215176"><ele>1004.0</ele><time>2026-04-15T08:33:48Z</time></trkpt><trkpt lat="29.748349558169235" lon="-8.95990814965177"><ele>1004.0</ele><time>2026-04-15T08:33:49Z</time></trkpt><trkpt lat="29.7484486562717" lon="-8.95990666833025"><ele>1004.0000000000001</ele><time>2026-04-15T08:33:50Z</time></trkpt><trkpt lat="29.748548086030002" lon="-8.95992128926037"><ele>1004.0000000000001</ele><time>2026-04-15T08:33:51Z</time></trkpt><trkpt lat="29.748642608587787" lon="-8.959935207152995"><ele>1004.0</ele><time>2026-04-15T08:33:52Z</time></trkpt><trkpt lat="29.748738062967345" lon="-8.959972795409342"><ele>1004.0</ele><time>2026-04-15T08:33:53Z</time></trkpt><trkpt lat="29.748829508025487" lon="-8.960019151493148"><ele>1004.4000000000001</ele><time>2026-04-15T08:33:54Z</time></trkpt><trkpt lat="29.748916148442092" lon="-8.960079730206175"><ele>1004.8000000000001</ele><time>2026-04-15T08:33:55Z</time></trkpt><trkpt lat="29.74899747964917" lon="-8.96014261409671"><ele>1005.1999999999999</ele><time>2026-04-15T08:33:56Z</time></trkpt><trkpt lat="29.7490817093744" lon="-8.960207739144309"><ele>1005.5999999999999</ele><time>2026-04-15T08:33:57Z</time></trkpt><trkpt lat="29.74915144487463" lon="-8.960288544423644"><ele>1006.0</ele><time>2026-04-15T08:33:58Z</time></trkpt><trkpt lat="29.7493192676083" lon="-8.960396464636666"><ele>1003.4</ele><time>2026-04-15T08:34:00Z</time></trkpt><trkpt lat="29.74940390466048" lon="-8.960452211705949"><ele>1000.8</ele><time>2026-04-15T08:34:01Z</time></trkpt><trkpt lat="29.749491468031767" lon="-8.960512231459413"><ele>998.1999999999999</ele><time>2026-04-15T08:34:02Z</time></trkpt><trkpt lat="29.749589903269055" lon="-8.960571101048002"><ele>995.5999999999999</ele><time>2026-04-15T08:34:03Z</time></trkpt><trkpt lat="29.749692783861885" lon="-8.960625148205912"><ele>993.0</ele><time>2026-04-15T08:34:04Z</time></trkpt><trkpt lat="29.74979500245211" lon="-8.960678492112212"><ele>993.0</ele><time>2026-04-15T08:34:05Z</time></trkpt><trkpt lat="29.749888748115254" lon="-8.960735877221884"><ele>993.0</ele><time>2026-04-15T08:34:06Z</time></trkpt><trkpt lat="29.74998245883715" lon="-8.96079649754608"><ele>993.0</ele><time>2026-04-15T08:34:07Z</time></trkpt><trkpt lat="29.75008512715804" lon="-8.96084230089385"><ele>993.0</ele><time>2026-04-15T08:34:08Z</time></trkpt><trkpt lat="29.750195945017307" lon="-8.960889914911398"><ele>993.0</ele><time>2026-04-15T08:34:09Z</time></trkpt><trkpt lat="29.75029019673755" lon="-8.960971191610945"><ele>989.3333333333333</ele><time>2026-04-15T08:34:10Z</time></trkpt><trkpt lat="29.75038418092355" lon="-8.96105807801911"><ele>985.6666666666666</ele><time>2026-04-15T08:34:11Z</time></trkpt><trkpt lat="29.75056892764897" lon="-8.961261230737742"><ele>982.0</ele><time>2026-04-15T08:34:13Z</time></trkpt><trkpt lat="29.750659341444432" lon="-8.961371621070946"><ele>982.0</ele><time>2026-04-15T08:34:14Z</time></trkpt><trkpt lat="29.750744980488584" lon="-8.961481473960768"><ele>982.0</ele><time>2026-04-15T08:34:15Z</time></trkpt><trkpt lat="29.750826593914223" lon="-8.961591136465241"><ele>982.0</ele><time>2026-04-15T08:34:16Z</time></trkpt><trkpt lat="29.750908216953405" lon="-8.961700842637851"><ele>982.0</ele><time>2026-04-15T08:34:17Z</time></trkpt><trkpt lat="29.75098451096654" lon="-8.961818663799558"><ele>979.5</ele><time>2026-04-15T08:34:18Z</time></trkpt><trkpt lat="29.751057248702296" lon="-8.961940867915054"><ele>977.0</ele><time>2026-04-15T08:34:19Z</time></trkpt><trkpt lat="29.75112513362127" lon="-8.962072497585861"><ele>974.5</ele><time>2026-04-15T08:34:20Z</time></trkpt><trkpt lat="29.751188811899034" lon="-8.962212031296323"><ele>972.0</ele><time>2026-04-15T08:34:21Z</time></trkpt><trkpt lat="29.751252092479813" lon="-8.962350371382824"><ele>972.0</ele><time>2026-04-15T08:34:22Z</time></trkpt><trkpt lat="29.751316121760297" lon="-8.962487217724638"><ele>972.0</ele><time>2026-04-15T08:34:23Z</time></trkpt><trkpt lat="29.75137441465911" lon="-8.962623704520055"><ele>972.0</ele><time>2026-04-15T08:34:24Z</time></trkpt><trkpt lat="29.75142981380251" lon="-8.962762566532797"><ele>972.0</ele><time>2026-04-15T08:34:25Z</time></trkpt><trkpt lat="29.75148866468509" lon="-8.962901240667271"><ele>971.5</ele><time>2026-04-15T08:34:26Z</time></trkpt><trkpt lat="29.751548623718264" lon="-8.963041415072448"><ele>971.0</ele><time>2026-04-15T08:34:27Z</time></trkpt><trkpt lat="29.751610977481924" lon="-8.963181968722644"><ele>970.5</ele><time>2026-04-15T08:34:28Z</time></trkpt><trkpt lat="29.751670796542662" lon="-8.963328260166294"><ele>970.0</ele><time>2026-04-15T08:34:29Z</time></trkpt><trkpt lat="29.751731695254428" lon="-8.96347015404634"><ele>970.0</ele><time>2026-04-15T08:34:30Z</time></trkpt><trkpt lat="29.751791827487356" lon="-8.963605803313625"><ele>970.0</ele><time>2026-04-15T08:34:31Z</time></trkpt><trkpt lat="29.751854800608648" lon="-8.963742424909597"><ele>970.0</ele><time>2026-04-15T08:34:32Z</time></trkpt><trkpt lat="29.75191293662331" lon="-8.963875182078896"><ele>970.0</ele><time>2026-04-15T08:34:33Z</time></trkpt><trkpt lat="29.751966415153294" lon="-8.963998569840681"><ele>968.2</ele><time>2026-04-15T08:34:34Z</time></trkpt><trkpt lat="29.752016356787692" lon="-8.964119197094472"><ele>966.4</ele><time>2026-04-15T08:34:35Z</time></trkpt><trkpt lat="29.752067171331234" lon="-8.964240515112232"><ele>964.5999999999999</ele><time>2026-04-15T08:34:36Z</time></trkpt><trkpt lat="29.752114954808743" lon="-8.964353516621415"><ele>962.8</ele><time>2026-04-15T08:34:37Z</time></trkpt><trkpt lat="29.752163776170615" lon="-8.964462285971441"><ele>961.0</ele><time>2026-04-15T08:34:38Z</time></trkpt><trkpt lat="29.752212771953822" lon="-8.96456276704242"><ele>961.0</ele><time>2026-04-15T08:34:39Z</time></trkpt><trkpt lat="29.75226198633277" lon="-8.964664886950922"><ele>960.9999999999999</ele><time>2026-04-15T08:34:40Z</time></trkpt><trkpt lat="29.7523107839929" lon="-8.964765742935713"><ele>960.9999999999999</ele><time>2026-04-15T08:34:41Z</time></trkpt><trkpt lat="29.752363289684247" lon="-8.96486066974345"><ele>961.0</ele><time>2026-04-15T08:34:42Z</time></trkpt><trkpt lat="29.752420626642667" lon="-8.964949293180684"><ele>961.0</ele><time>2026-04-15T08:34:43Z</time></trkpt><trkpt lat="29.752490699336406" lon="-8.96503172186297"><ele>960.5999999999999</ele><time>2026-04-15T08:34:44Z</time></trkpt><trkpt lat="29.752543622940937" lon="-8.96512557819752"><ele>960.1999999999999</ele><time>2026-04-15T08:34:45Z</time></trkpt><trkpt lat="29.752628977833176" lon="-8.965203131627263"><ele>959.8000000000001</ele><time>2026-04-15T08:34:46Z</time></trkpt><trkpt lat="29.752712840187755" lon="-8.965261835336566"><ele>959.4000000000001</ele><time>2026-04-15T08:34:47Z</time></trkpt><trkpt lat="29.7527614414902" lon="-8.965349067946674"><ele>959.0</ele><time>2026-04-15T08:34:48Z</time></trkpt><trkpt lat="29.752910077496594" lon="-8.965341249943288"><ele>958.2</ele><time>2026-04-15T08:34:49Z</time></trkpt><trkpt lat="29.753008581044988" lon="-8.96538113732734"><ele>957.4000000000001</ele><time>2026-04-15T08:34:50Z</time></trkpt><trkpt lat="29.7531089717143" lon="-8.965411709062645"><ele>956.6</ele><time>2026-04-15T08:34:51Z</time></trkpt><trkpt lat="29.75321170238299" lon="-8.9654381307503"><ele>955.8</ele><time>2026-04-15T08:34:52Z</time></trkpt><trkpt lat="29.75331788609673" lon="-8.965453314198184"><ele>955.0</ele><time>2026-04-15T08:34:53Z</time></trkpt><trkpt lat="29.753428639329" lon="-8.965460312942122"><ele>955.6</ele><time>2026-04-15T08:34:54Z</time></trkpt><trkpt lat="29.753539391653625" lon="-8.965454839487307"><ele>956.2</ele><time>2026-04-15T08:34:55Z</time></trkpt><trkpt lat="29.753653229475542" lon="-8.965436859798507"><ele>956.8</ele><time>2026-04-15T08:34:56Z</time></trkpt><trkpt lat="29.75376126944558" lon="-8.965407771492787"><ele>957.4</ele><time>2026-04-15T08:34:57Z</time></trkpt><trkpt lat="29.753865510537725" lon="-8.965370960573546"><ele>958.0</ele><time>2026-04-15T08:34:58Z</time></trkpt><trkpt lat="29.75396913745931" lon="-8.965326665162964"><ele>958.0</ele><time>2026-04-15T08:34:59Z</time></trkpt><trkpt lat="29.75406995392901" lon="-8.965271064635019"><ele>958.0</ele><time>2026-04-15T08:35:00Z</time></trkpt><trkpt lat="29.754171721120667" lon="-8.965202778364802"><ele>958.0</ele><time>2026-04-15T08:35:01Z</time></trkpt><trkpt lat="29.754260863182193" lon="-8.965125969961203"><ele>958.0</ele><time>2026-04-15T08:35:02Z</time></trkpt><trkpt lat="29.754340833248744" lon="-8.965041767625767"><ele>958.0</ele><time>2026-04-15T08:35:03Z</time></trkpt><trkpt lat="29.75441992402089" lon="-8.964949949138783"><ele>958.0</ele><time>2026-04-15T08:35:04Z</time></trkpt><trkpt lat="29.75449512471516" lon="-8.964850705813419"><ele>958.0</ele><time>2026-04-15T08:35:05Z</time></trkpt><trkpt lat="29.754560795758696" lon="-8.964748446579096"><ele>958.0</ele><time>2026-04-15T08:35:06Z</time></trkpt><trkpt lat="29.754615772974464" lon="-8.964646631681632"><ele>958.0</ele><time>2026-04-15T08:35:07Z</time></trkpt><trkpt lat="29.754663465448616" lon="-8.964545372750452"><ele>958.0</ele><time>2026-04-15T08:35:08Z</time></trkpt><trkpt lat="29.754705089623698" lon="-8.964436792523555"><ele>958.0</ele><time>2026-04-15T08:35:09Z</time></trkpt><trkpt lat="29.75474239334524" lon="-8.964320672967807"><ele>958.0</ele><time>2026-04-15T08:35:10Z</time></trkpt><trkpt lat="29.754780991743107" lon="-8.964200085123643"><ele>958.0</ele><time>2026-04-15T08:35:11Z</time></trkpt><trkpt lat="29.75481796091372" lon="-8.964076840883111"><ele>958.0</ele><time>2026-04-15T08:35:12Z</time></trkpt><trkpt lat="29.754854541076995" lon="-8.963953484948494"><ele>958.0</ele><time>2026-04-15T08:35:13Z</time></trkpt><trkpt lat="29.754886219462364" lon="-8.96384151778843"><ele>956.4999999999999</ele><time>2026-04-15T08:35:14Z</time></trkpt><trkpt lat="29.754917173753032" lon="-8.963738038791268"><ele>955.0</ele><time>2026-04-15T08:35:15Z</time></trkpt><trkpt lat="29.754946617892053" lon="-8.963646554652883"><ele>953.5</ele><time>2026-04-15T08:35:16Z</time></trkpt><trkpt lat="29.75497157280375" lon="-8.963565203847267"><ele>952.0</ele><time>2026-04-15T08:35:17Z</time></trkpt><trkpt lat="29.75499071890925" lon="-8.96349414193932"><ele>950.4999999999999</ele><time>2026-04-15T08:35:18Z</time></trkpt><trkpt lat="29.755025228401774" lon="-8.963385944689502"><ele>949.0</ele><time>2026-04-15T08:35:20Z</time></trkpt><trkpt lat="29.755042795952715" lon="-8.963303996461608"><ele>948.4999999999999</ele><time>2026-04-15T08:35:22Z</time></trkpt><trkpt lat="29.755062618524203" lon="-8.963227605896252"><ele>948.0</ele><time>2026-04-15T08:35:24Z</time></trkpt><trkpt lat="29.75508814751191" lon="-8.963143409017876"><ele>947.5</ele><time>2026-04-15T08:36:40Z</time></trkpt><trkpt lat="29.755122239043185" lon="-8.963030576470361"><ele>947.0</ele><time>2026-04-15T08:36:42Z</time></trkpt><trkpt lat="29.75514936483264" lon="-8.962945164298246"><ele>946.4999999999999</ele><time>2026-04-15T08:36:43Z</time></trkpt><trkpt lat="29.755182522213868" lon="-8.962854961398703"><ele>946.0</ele><time>2026-04-15T08:36:44Z</time></trkpt><trkpt lat="29.755215536290535" lon="-8.96275170259841"><ele>945.8</ele><time>2026-04-15T08:36:45Z</time></trkpt><trkpt lat="29.755248722719433" lon="-8.962633277833776"><ele>945.5999999999999</ele><time>2026-04-15T08:36:46Z</time></trkpt><trkpt lat="29.75528457231606" lon="-8.962513343628528"><ele>945.4</ele><time>2026-04-15T08:36:47Z</time></trkpt><trkpt lat="29.755320574794357" lon="-8.96239161643181"><ele>945.2</ele><time>2026-04-15T08:36:48Z</time></trkpt><trkpt lat="29.75535864338117" lon="-8.962273906727413"><ele>945.0</ele><time>2026-04-15T08:36:49Z</time></trkpt><trkpt lat="29.75539740141944" lon="-8.962155105232034"><ele>945.0</ele><time>2026-04-15T08:36:50Z</time></trkpt><trkpt lat="29.755434537926494" lon="-8.962037919769612"><ele>945.0</ele><time>2026-04-15T08:36:51Z</time></trkpt><trkpt lat="29.755470332803032" lon="-8.96192759026991"><ele>945.0</ele><time>2026-04-15T08:36:52Z</time></trkpt><trkpt lat="29.75550577583147" lon="-8.961819155383996"><ele>945.0</ele><time>2026-04-15T08:36:53Z</time></trkpt><trkpt lat="29.75554289611672" lon="-8.961709563992505"><ele>945.0</ele><time>2026-04-15T08:36:54Z</time></trkpt><trkpt lat="29.755585819402548" lon="-8.961598074370439"><ele>945.4</ele><time>2026-04-15T08:36:55Z</time></trkpt><trkpt lat="29.755618213499396" lon="-8.961483842720298"><ele>945.8</ele><time>2026-04-15T08:36:56Z</time></trkpt><trkpt lat="29.75565672416512" lon="-8.96136628620108"><ele>946.2</ele><time>2026-04-15T08:36:57Z</time></trkpt><trkpt lat="29.75569406003331" lon="-8.961241401354567"><ele>946.6</ele><time>2026-04-15T08:36:58Z</time></trkpt><trkpt lat="29.755731991418894" lon="-8.961118008303801"><ele>947.0</ele><time>2026-04-15T08:36:59Z</time></trkpt><trkpt lat="29.755769784616945" lon="-8.961004111888398"><ele>947.0000000000001</ele><time>2026-04-15T08:37:00Z</time></trkpt><trkpt lat="29.755801174958382" lon="-8.960896521793048"><ele>947.0</ele><time>2026-04-15T08:37:01Z</time></trkpt><trkpt lat="29.7558328705071" lon="-8.960792125851546"><ele>947.0</ele><time>2026-04-15T08:37:02Z</time></trkpt><trkpt lat="29.755866985807334" lon="-8.960689864384465"><ele>947.0</ele><time>2026-04-15T08:37:03Z</time></trkpt><trkpt lat="29.755898473981723" lon="-8.9605974563845"><ele>947.0000000000001</ele><time>2026-04-15T08:37:04Z</time></trkpt><trkpt lat="29.755922658246696" lon="-8.960523085708756"><ele>947.0</ele><time>2026-04-15T08:37:05Z</time></trkpt><trkpt lat="29.75594893894204" lon="-8.960422360809414"><ele>947.5000000000001</ele><time>2026-04-15T08:37:07Z</time></trkpt><trkpt lat="29.75598097397604" lon="-8.960335486251399"><ele>948.0</ele><time>2026-04-15T08:37:09Z</time></trkpt><trkpt lat="29.75601037166988" lon="-8.960230993109857"><ele>948.5</ele><time>2026-04-15T08:37:11Z</time></trkpt><trkpt lat="29.75603795730325" lon="-8.960150494829858"><ele>949.0</ele><time>2026-04-15T08:37:13Z</time></trkpt><trkpt lat="29.756063908610187" lon="-8.960072915439868"><ele>949.5000000000001</ele><time>2026-04-15T08:37:15Z</time></trkpt><trkpt lat="29.75608953285906" lon="-8.959988129511943"><ele>950.0</ele><time>2026-04-15T08:37:17Z</time></trkpt><trkpt lat="29.756126909075967" lon="-8.959875342594987"><ele>950.2</ele><time>2026-04-15T08:37:19Z</time></trkpt><trkpt lat="29.756166642642324" lon="-8.959749402503984"><ele>950.4</ele><time>2026-04-15T08:37:21Z</time></trkpt><trkpt lat="29.756211355483803" lon="-8.959605745215056"><ele>950.5999999999999</ele><time>2026-04-15T08:37:23Z</time></trkpt><trkpt lat="29.756244315314582" lon="-8.959522997075654"><ele>950.8</ele><time>2026-04-15T08:37:24Z</time></trkpt><trkpt lat="29.756267465235577" lon="-8.959425315465788"><ele>951.0</ele><time>2026-04-15T08:37:25Z</time></trkpt><trkpt lat="29.756300237656383" lon="-8.9593284261147"><ele>951.0</ele><time>2026-04-15T08:37:26Z</time></trkpt><trkpt lat="29.756331017694052" lon="-8.959233228196975"><ele>951.0</ele><time>2026-04-15T08:37:27Z</time></trkpt><trkpt lat="29.756360023981397" lon="-8.959139674894725"><ele>951.0</ele><time>2026-04-15T08:37:28Z</time></trkpt><trkpt lat="29.75638941243311" lon="-8.959043310594343"><ele>951.0</ele><time>2026-04-15T08:37:29Z</time></trkpt><trkpt lat="29.75641816352166" lon="-8.958950605109672"><ele>951.0</ele><time>2026-04-15T08:37:30Z</time></trkpt><trkpt lat="29.75644773625346" lon="-8.958857252632315"><ele>951.0</ele><time>2026-04-15T08:37:31Z</time></trkpt><trkpt lat="29.75647460946262" lon="-8.95876716253107"><ele>951.1999999999999</ele><time>2026-04-15T08:37:32Z</time></trkpt><trkpt lat="29.756504177567166" lon="-8.958673991330262"><ele>951.3999999999999</ele><time>2026-04-15T08:37:33Z</time></trkpt><trkpt lat="29.75653517804315" lon="-8.95857414893271"><ele>951.6</ele><time>2026-04-15T08:37:34Z</time></trkpt><trkpt lat="29.75656639640946" lon="-8.958470018642908"><ele>951.8</ele><time>2026-04-15T08:37:35Z</time></trkpt><trkpt lat="29.756599589289372" lon="-8.958365023292755"><ele>952.0</ele><time>2026-04-15T08:37:36Z</time></trkpt><trkpt lat="29.756632918611526" lon="-8.958262966303591"><ele>952.8</ele><time>2026-04-15T08:37:37Z</time></trkpt><trkpt lat="29.75666764583259" lon="-8.958157498874252"><ele>953.6</ele><time>2026-04-15T08:37:38Z</time></trkpt><trkpt lat="29.756701915474" lon="-8.95804670611142"><ele>954.3999999999999</ele><time>2026-04-15T08:37:39Z</time></trkpt><trkpt lat="29.756734823997956" lon="-8.957935261733493"><ele>955.1999999999999</ele><time>2026-04-15T08:37:40Z</time></trkpt><trkpt lat="29.756765951606827" lon="-8.957822935408359"><ele>956.0</ele><time>2026-04-15T08:37:41Z</time></trkpt><trkpt lat="29.75680188723101" lon="-8.957710811837842"><ele>956.0</ele><time>2026-04-15T08:37:42Z</time></trkpt><trkpt lat="29.75683157761768" lon="-8.957595577692304"><ele>955.9999999999999</ele><time>2026-04-15T08:37:43Z</time></trkpt><trkpt lat="29.756868907702426" lon="-8.957478601621757"><ele>955.9999999999999</ele><time>2026-04-15T08:37:44Z</time></trkpt><trkpt lat="29.75689962967993" lon="-8.957368427071938"><ele>956.0</ele><time>2026-04-15T08:37:45Z</time></trkpt><trkpt lat="29.756934288333714" lon="-8.957250050696425"><ele>956.0</ele><time>2026-04-15T08:37:46Z</time></trkpt><trkpt lat="29.756966246772507" lon="-8.957139062962051"><ele>956.25</ele><time>2026-04-15T08:37:47Z</time></trkpt><trkpt lat="29.75698967770596" lon="-8.957009631158929"><ele>956.5</ele><time>2026-04-15T08:37:48Z</time></trkpt><trkpt lat="29.75701327224416" lon="-8.956877275506598"><ele>956.75</ele><time>2026-04-15T08:37:49Z</time></trkpt><trkpt lat="29.757037303800654" lon="-8.95674930603524"><ele>957.0</ele><time>2026-04-15T08:37:50Z</time></trkpt><trkpt lat="29.757058403443413" lon="-8.956615782430822"><ele>958.25</ele><time>2026-04-15T08:37:51Z</time></trkpt><trkpt lat="29.75707966860075" lon="-8.956481964135346"><ele>959.5</ele><time>2026-04-15T08:37:52Z</time></trkpt><trkpt lat="29.757094972266984" lon="-8.95634424474231"><ele>960.75</ele><time>2026-04-15T08:37:53Z</time></trkpt><trkpt lat="29.757105975598243" lon="-8.956204460616949"><ele>962.0</ele><time>2026-04-15T08:37:54Z</time></trkpt><trkpt lat="29.757112041609936" lon="-8.956063051953931"><ele>962.0</ele><time>2026-04-15T08:37:55Z</time></trkpt><trkpt lat="29.7571150487382" lon="-8.955918941547305"><ele>962.0</ele><time>2026-04-15T08:37:56Z</time></trkpt><trkpt lat="29.757114936486918" lon="-8.955773083506115"><ele>962.0</ele><time>2026-04-15T08:37:57Z</time></trkpt><trkpt lat="29.757112923930386" lon="-8.955629382217156"><ele>962.0</ele><time>2026-04-15T08:37:58Z</time></trkpt><trkpt lat="29.75710183107282" lon="-8.955488200406885"><ele>962.25</ele><time>2026-04-15T08:37:59Z</time></trkpt><trkpt lat="29.757091164074854" lon="-8.955350877000326"><ele>962.5</ele><time>2026-04-15T08:38:00Z</time></trkpt><trkpt lat="29.75708191141815" lon="-8.955214755849441"><ele>962.75</ele><time>2026-04-15T08:38:01Z</time></trkpt><trkpt lat="29.757078203771584" lon="-8.95507801392966"><ele>963.0</ele><time>2026-04-15T08:38:02Z</time></trkpt><trkpt lat="29.757074223785484" lon="-8.954939542187986"><ele>963.75</ele><time>2026-04-15T08:38:03Z</time></trkpt><trkpt lat="29.757067667187403" lon="-8.95480251128623"><ele>964.5</ele><time>2026-04-15T08:38:04Z</time></trkpt><trkpt lat="29.757056536732737" lon="-8.954662514233286"><ele>965.25</ele><time>2026-04-15T08:38:05Z</time></trkpt><trkpt lat="29.757048248090754" lon="-8.954519145418606"><ele>966.0</ele><time>2026-04-15T08:38:06Z</time></trkpt><trkpt lat="29.7570389831012" lon="-8.9543725649925"><ele>966.0</ele><time>2026-04-15T08:38:07Z</time></trkpt><trkpt lat="29.757028139138075" lon="-8.954224037729544"><ele>966.0</ele><time>2026-04-15T08:38:08Z</time></trkpt><trkpt lat="29.757010346181993" lon="-8.954072405000346"><ele>966.0</ele><time>2026-04-15T08:38:09Z</time></trkpt><trkpt lat="29.75698913462997" lon="-8.953924175385614"><ele>966.0</ele><time>2026-04-15T08:38:10Z</time></trkpt><trkpt lat="29.756967012446818" lon="-8.953773891641392"><ele>966.75</ele><time>2026-04-15T08:38:11Z</time></trkpt><trkpt lat="29.756941233243086" lon="-8.953625215363557"><ele>967.5</ele><time>2026-04-15T08:38:12Z</time></trkpt><trkpt lat="29.756910535795583" lon="-8.953481277849333"><ele>968.25</ele><time>2026-04-15T08:38:13Z</time></trkpt><trkpt lat="29.75685891107772" lon="-8.953343840555169"><ele>969.0</ele><time>2026-04-15T08:38:14Z</time></trkpt><trkpt lat="29.756833363469976" lon="-8.953199941285607"><ele>972.25</ele><time>2026-04-15T08:38:15Z</time></trkpt><trkpt lat="29.756780940409087" lon="-8.953067532379988"><ele>975.5</ele><time>2026-04-15T08:38:16Z</time></trkpt><trkpt lat="29.75675200848749" lon="-8.952928664788331"><ele>978.75</ele><time>2026-04-15T08:38:17Z</time></trkpt><trkpt lat="29.756706856055093" lon="-8.952793611793844"><ele>982.0</ele><time>2026-04-15T08:38:18Z</time></trkpt><trkpt lat="29.756657966951522" lon="-8.95265701635578"><ele>982.75</ele><time>2026-04-15T08:38:19Z</time></trkpt><trkpt lat="29.75660202540104" lon="-8.95252609895767"><ele>983.5</ele><time>2026-04-15T08:38:20Z</time></trkpt><trkpt lat="29.75654726116819" lon="-8.952390167629027"><ele>984.25</ele><time>2026-04-15T08:38:21Z</time></trkpt><trkpt lat="29.756484969561118" lon="-8.95225576797481"><ele>985.0</ele><time>2026-04-15T08:38:22Z</time></trkpt><trkpt lat="29.756418848841722" lon="-8.95212402627669"><ele>985.0</ele><time>2026-04-15T08:38:23Z</time></trkpt><trkpt lat="29.756350699477505" lon="-8.951997471049651"><ele>985.0</ele><time>2026-04-15T08:38:24Z</time></trkpt><trkpt lat="29.756281201141874" lon="-8.951873935297204"><ele>985.0</ele><time>2026-04-15T08:38:25Z</time></trkpt><trkpt lat="29.756213879889664" lon="-8.951754026199994"><ele>985.0</ele><time>2026-04-15T08:38:26Z</time></trkpt><trkpt lat="29.75614319622839" lon="-8.951638594973975"><ele>985.75</ele><time>2026-04-15T08:38:27Z</time></trkpt><trkpt lat="29.756063588200327" lon="-8.951523109340416"><ele>986.5</ele><time>2026-04-15T08:38:28Z</time></trkpt><trkpt lat="29.755978846165416" lon="-8.95141439423089"><ele>987.25</ele><time>2026-04-15T08:38:29Z</time></trkpt><trkpt lat="29.755893002584088" lon="-8.95130731956684"><ele>988.0</ele><time>2026-04-15T08:38:30Z</time></trkpt><trkpt lat="29.755807419514657" lon="-8.951200415174206"><ele>989.75</ele><time>2026-04-15T08:38:31Z</time></trkpt><trkpt lat="29.755720386055966" lon="-8.951094566179457"><ele>991.5</ele><time>2026-04-15T08:38:32Z</time></trkpt><trkpt lat="29.755627831415712" lon="-8.950995070557573"><ele>993.25</ele><time>2026-04-15T08:38:33Z</time></trkpt><trkpt lat="29.75553161846955" lon="-8.95089393770524"><ele>995.0</ele><time>2026-04-15T08:38:34Z</time></trkpt><trkpt lat="29.755433188252855" lon="-8.95079297214564"><ele>995.25</ele><time>2026-04-15T08:38:35Z</time></trkpt><trkpt lat="29.75533873834359" lon="-8.950688769898914"><ele>995.5</ele><time>2026-04-15T08:38:36Z</time></trkpt><trkpt lat="29.755243986922384" lon="-8.950587304566476"><ele>995.75</ele><time>2026-04-15T08:38:37Z</time></trkpt><trkpt lat="29.75515043195411" lon="-8.950481348331785"><ele>996.0</ele><time>2026-04-15T08:38:38Z</time></trkpt><trkpt lat="29.7550571546677" lon="-8.950375557167215"><ele>996.5</ele><time>2026-04-15T08:38:39Z</time></trkpt><trkpt lat="29.754957319882834" lon="-8.950272849639163"><ele>997.0</ele><time>2026-04-15T08:38:40Z</time></trkpt><trkpt lat="29.754852368044048" lon="-8.950173358534236"><ele>997.5</ele><time>2026-04-15T08:38:41Z</time></trkpt><trkpt lat="29.754753570062352" lon="-8.95006709129323"><ele>998.0</ele><time>2026-04-15T08:38:42Z</time></trkpt><trkpt lat="29.75465376241755" lon="-8.949961461512915"><ele>998.5</ele><time>2026-04-15T08:38:43Z</time></trkpt><trkpt lat="29.75455852003729" lon="-8.949857967354307"><ele>999.0</ele><time>2026-04-15T08:38:44Z</time></trkpt><trkpt lat="29.75446210866286" lon="-8.949755908137115"><ele>999.5</ele><time>2026-04-15T08:38:45Z</time></trkpt><trkpt lat="29.75436787878073" lon="-8.94965175123352"><ele>1000.0</ele><time>2026-04-15T08:38:46Z</time></trkpt><trkpt lat="29.754273601798566" lon="-8.949551774878048"><ele>1000.25</ele><time>2026-04-15T08:38:47Z</time></trkpt><trkpt lat="29.754181259933972" lon="-8.949451255202616"><ele>1000.5</ele><time>2026-04-15T08:38:48Z</time></trkpt><trkpt lat="29.754087432479736" lon="-8.949353254679465"><ele>1000.75</ele><time>2026-04-15T08:38:49Z</time></trkpt><trkpt lat="29.753991400719567" lon="-8.94926387418584"><ele>1001.0</ele><time>2026-04-15T08:38:50Z</time></trkpt><trkpt lat="29.75390502689463" lon="-8.949165616088104"><ele>1001.5</ele><time>2026-04-15T08:38:51Z</time></trkpt><trkpt lat="29.753818670540355" lon="-8.949072708207094"><ele>1002.0</ele><time>2026-04-15T08:38:52Z</time></trkpt><trkpt lat="29.75373668707586" lon="-8.948984754322183"><ele>1002.5</ele><time>2026-04-15T08:38:53Z</time></trkpt><trkpt lat="29.753658601216987" lon="-8.94889500859295"><ele>1003.0</ele><time>2026-04-15T08:38:54Z</time></trkpt><trkpt lat="29.753579784675587" lon="-8.948797188523086"><ele>1003.0</ele><time>2026-04-15T08:38:55Z</time></trkpt><trkpt lat="29.753504314997098" lon="-8.948693346098173"><ele>1003.0</ele><time>2026-04-15T08:38:56Z</time></trkpt><trkpt lat="29.753423858248496" lon="-8.948587137539358"><ele>1003.0</ele><time>2026-04-15T08:38:57Z</time></trkpt><trkpt lat="29.753351853734475" lon="-8.948473678667995"><ele>1003.0</ele><time>2026-04-15T08:38:58Z</time></trkpt><trkpt lat="29.753280692330637" lon="-8.948363744576154"><ele>1003.0</ele><time>2026-04-15T08:38:59Z</time></trkpt><trkpt lat="29.75321646100875" lon="-8.948258825366718"><ele>1003.0</ele><time>2026-04-15T08:39:00Z</time></trkpt><trkpt lat="29.75315852556625" lon="-8.948154795068122"><ele>1003.0</ele><time>2026-04-15T08:39:01Z</time></trkpt><trkpt lat="29.75310379639305" lon="-8.948054576626769"><ele>1003.0</ele><time>2026-04-15T08:39:02Z</time></trkpt><trkpt lat="29.753050071876597" lon="-8.947954840102645"><ele>1003.0</ele><time>2026-04-15T08:39:03Z</time></trkpt><trkpt lat="29.753001684365856" lon="-8.947858189286531"><ele>1003.0</ele><time>2026-04-15T08:39:04Z</time></trkpt><trkpt lat="29.75295618178327" lon="-8.94775949830996"><ele>1003.0</ele><time>2026-04-15T08:39:05Z</time></trkpt><trkpt lat="29.75291096234537" lon="-8.947661662389041"><ele>1003.0</ele><time>2026-04-15T08:39:06Z</time></trkpt><trkpt lat="29.752865619820554" lon="-8.947566056757822"><ele>1003.0</ele><time>2026-04-15T08:39:07Z</time></trkpt><trkpt lat="29.752816493095484" lon="-8.947471086149573"><ele>1003.0</ele><time>2026-04-15T08:39:08Z</time></trkpt><trkpt lat="29.752778448281454" lon="-8.947372386331393"><ele>1002.9999999999999</ele><time>2026-04-15T08:39:09Z</time></trkpt><trkpt lat="29.752742706737486" lon="-8.947276142660902"><ele>1003.0</ele><time>2026-04-15T08:39:10Z</time></trkpt><trkpt lat="29.75270940145912" lon="-8.947182465047858"><ele>1003.0</ele><time>2026-04-15T08:39:11Z</time></trkpt><trkpt lat="29.752679592841414" lon="-8.947091987203269"><ele>1003.0</ele><time>2026-04-15T08:39:12Z</time></trkpt><trkpt lat="29.752652545721027" lon="-8.947000497071985"><ele>1002.9999999999999</ele><time>2026-04-15T08:39:13Z</time></trkpt><trkpt lat="29.75262846671367" lon="-8.946907493408943"><ele>1003.0</ele><time>2026-04-15T08:39:14Z</time></trkpt><trkpt lat="29.752606023144974" lon="-8.94681560427114"><ele>1001.6666666666666</ele><time>2026-04-15T08:39:15Z</time></trkpt><trkpt lat="29.75257689785881" lon="-8.946728110972682"><ele>1000.3333333333333</ele><time>2026-04-15T08:39:16Z</time></trkpt><trkpt lat="29.752555701846266" lon="-8.946645594650779"><ele>999.0</ele><time>2026-04-15T08:39:17Z</time></trkpt><trkpt lat="29.75253566893505" lon="-8.946565772211672"><ele>997.6666666666667</ele><time>2026-04-15T08:39:18Z</time></trkpt><trkpt lat="29.752521021936584" lon="-8.946476755035755"><ele>996.3333333333334</ele><time>2026-04-15T08:39:19Z</time></trkpt><trkpt lat="29.752499616703403" lon="-8.946382011224623"><ele>995.0</ele><time>2026-04-15T08:39:20Z</time></trkpt><trkpt lat="29.752485021902295" lon="-8.946269502702043"><ele>994.2</ele><time>2026-04-15T08:39:21Z</time></trkpt><trkpt lat="29.752468322202372" lon="-8.946149990254629"><ele>993.4</ele><time>2026-04-15T08:39:22Z</time></trkpt><trkpt lat="29.75245128436991" lon="-8.94602178722853"><ele>992.5999999999999</ele><time>2026-04-15T08:39:23Z</time></trkpt><trkpt lat="29.752433827083046" lon="-8.945891925154061"><ele>991.8</ele><time>2026-04-15T08:39:24Z</time></trkpt><trkpt lat="29.752414582317705" lon="-8.945758199079316"><ele>991.0</ele><time>2026-04-15T08:39:25Z</time></trkpt><trkpt lat="29.75239096565694" lon="-8.9456228556452"><ele>990.75</ele><time>2026-04-15T08:39:26Z</time></trkpt><trkpt lat="29.7523477305668" lon="-8.945371489437692"><ele>990.5</ele><time>2026-04-15T08:39:28Z</time></trkpt><trkpt lat="29.752331467611707" lon="-8.94525689358045"><ele>990.25</ele><time>2026-04-15T08:39:29Z</time></trkpt><trkpt lat="29.752314854971477" lon="-8.945134478456824"><ele>990.0</ele><time>2026-04-15T08:39:30Z</time></trkpt><trkpt lat="29.752300226118685" lon="-8.945008033561821"><ele>989.75</ele><time>2026-04-15T08:39:31Z</time></trkpt><trkpt lat="29.752279497846757" lon="-8.944880513601646"><ele>989.5</ele><time>2026-04-15T08:39:32Z</time></trkpt><trkpt lat="29.75225410096679" lon="-8.944750147065147"><ele>989.25</ele><time>2026-04-15T08:39:33Z</time></trkpt><trkpt lat="29.752231540453113" lon="-8.94461843675776"><ele>989.0</ele><time>2026-04-15T08:39:34Z</time></trkpt><trkpt lat="29.75220993519831" lon="-8.944480393478846"><ele>989.0</ele><time>2026-04-15T08:39:35Z</time></trkpt><trkpt lat="29.752189542476454" lon="-8.94434039455691"><ele>989.0</ele><time>2026-04-15T08:39:36Z</time></trkpt><trkpt lat="29.752163881179108" lon="-8.944199233902179"><ele>989.0</ele><time>2026-04-15T08:39:37Z</time></trkpt><trkpt lat="29.752146793039977" lon="-8.944055450056654"><ele>989.0</ele><time>2026-04-15T08:39:38Z</time></trkpt><trkpt lat="29.752118630878527" lon="-8.943914397462892"><ele>989.0</ele><time>2026-04-15T08:39:39Z</time></trkpt><trkpt lat="29.752091277064512" lon="-8.943771266815245"><ele>989.0</ele><time>2026-04-15T08:39:40Z</time></trkpt><trkpt lat="29.752069267290707" lon="-8.94362531292297"><ele>989.0</ele><time>2026-04-15T08:39:41Z</time></trkpt><trkpt lat="29.752043156305096" lon="-8.943486659242645"><ele>989.0</ele><time>2026-04-15T08:39:42Z</time></trkpt><trkpt lat="29.752020279308873" lon="-8.943342986915827"><ele>989.25</ele><time>2026-04-15T08:39:43Z</time></trkpt><trkpt lat="29.752002995550747" lon="-8.94319856250704"><ele>989.5</ele><time>2026-04-15T08:39:44Z</time></trkpt><trkpt lat="29.75198035360477" lon="-8.943052661771146"><ele>989.75</ele><time>2026-04-15T08:39:45Z</time></trkpt><trkpt lat="29.751955600640972" lon="-8.942906399224805"><ele>990.0</ele><time>2026-04-15T08:39:46Z</time></trkpt><trkpt lat="29.751931158872665" lon="-8.942761202805114"><ele>990.0</ele><time>2026-04-15T08:39:47Z</time></trkpt><trkpt lat="29.751905098895413" lon="-8.942611721759837"><ele>990.0</ele><time>2026-04-15T08:39:48Z</time></trkpt><trkpt lat="29.751878572708744" lon="-8.942464887088997"><ele>990.0</ele><time>2026-04-15T08:39:49Z</time></trkpt><trkpt lat="29.751853664879665" lon="-8.94231790656163"><ele>990.0</ele><time>2026-04-15T08:39:50Z</time></trkpt><trkpt lat="29.75183060398108" lon="-8.9421702572796"><ele>992.0</ele><time>2026-04-15T08:39:51Z</time></trkpt><trkpt lat="29.75180822600571" lon="-8.942021053448135"><ele>994.0</ele><time>2026-04-15T08:39:52Z</time></trkpt><trkpt lat="29.75178218771841" lon="-8.941873441281913"><ele>996.0</ele><time>2026-04-15T08:39:53Z</time></trkpt><trkpt lat="29.75175903353226" lon="-8.941722232997263"><ele>998.0</ele><time>2026-04-15T08:39:54Z</time></trkpt><trkpt lat="29.75173651294123" lon="-8.941573544197558"><ele>998.25</ele><time>2026-04-15T08:39:55Z</time></trkpt><trkpt lat="29.751713460603877" lon="-8.941424636246207"><ele>998.5</ele><time>2026-04-15T08:39:56Z</time></trkpt><trkpt lat="29.751689733948442" lon="-8.9412765649461"><ele>998.75</ele><time>2026-04-15T08:39:57Z</time></trkpt><trkpt lat="29.751662908670408" lon="-8.941127712219393"><ele>999.0</ele><time>2026-04-15T08:39:58Z</time></trkpt><trkpt lat="29.75163789401471" lon="-8.940975588937077"><ele>998.75</ele><time>2026-04-15T08:39:59Z</time></trkpt><trkpt lat="29.75161786991028" lon="-8.94081989126625"><ele>998.5</ele><time>2026-04-15T08:40:00Z</time></trkpt><trkpt lat="29.75159315948923" lon="-8.940663844945425"><ele>998.25</ele><time>2026-04-15T08:40:01Z</time></trkpt><trkpt lat="29.751563150063898" lon="-8.940508778145936"><ele>998.0</ele><time>2026-04-15T08:40:02Z</time></trkpt><trkpt lat="29.75153632271608" lon="-8.940355923107505"><ele>998.0</ele><time>2026-04-15T08:40:03Z</time></trkpt><trkpt lat="29.751512939422803" lon="-8.940205945283509"><ele>998.0</ele><time>2026-04-15T08:40:04Z</time></trkpt><trkpt lat="29.7514884212351" lon="-8.94005815726652"><ele>998.0</ele><time>2026-04-15T08:40:05Z</time></trkpt><trkpt lat="29.75146309864356" lon="-8.939909395815228"><ele>998.0</ele><time>2026-04-15T08:40:06Z</time></trkpt><trkpt lat="29.751436698479754" lon="-8.93976038431446"><ele>998.5</ele><time>2026-04-15T08:40:07Z</time></trkpt><trkpt lat="29.75141139171955" lon="-8.939610963339693"><ele>999.0</ele><time>2026-04-15T08:40:08Z</time></trkpt><trkpt lat="29.751386985926047" lon="-8.939458649807731"><ele>999.5</ele><time>2026-04-15T08:40:09Z</time></trkpt><trkpt lat="29.751364496114185" lon="-8.939302169527183"><ele>1000.0</ele><time>2026-04-15T08:40:10Z</time></trkpt><trkpt lat="29.751339455746894" lon="-8.939145878430354"><ele>1000.5</ele><time>2026-04-15T08:40:11Z</time></trkpt><trkpt lat="29.751309128295176" lon="-8.938989931431532"><ele>1001.0</ele><time>2026-04-15T08:40:12Z</time></trkpt><trkpt lat="29.75127540076862" lon="-8.938837137685669"><ele>1001.5</ele><time>2026-04-15T08:40:13Z</time></trkpt><trkpt lat="29.751240256462086" lon="-8.938685613509993"><ele>1002.0</ele><time>2026-04-15T08:40:14Z</time></trkpt><trkpt lat="29.75120514837495" lon="-8.938534602770362"><ele>1002.0</ele><time>2026-04-15T08:40:15Z</time></trkpt><trkpt lat="29.751168307292847" lon="-8.93838376591286"><ele>1002.0</ele><time>2026-04-15T08:40:16Z</time></trkpt><trkpt lat="29.751127633469853" lon="-8.93823178574108"><ele>1002.0</ele><time>2026-04-15T08:40:17Z</time></trkpt><trkpt lat="29.751084656003663" lon="-8.938078279454094"><ele>1002.0</ele><time>2026-04-15T08:40:18Z</time></trkpt><trkpt lat="29.7510372589234" lon="-8.937925259816597"><ele>1005.5</ele><time>2026-04-15T08:40:19Z</time></trkpt><trkpt lat="29.75099049477913" lon="-8.93777305607048"><ele>1009.0</ele><time>2026-04-15T08:40:20Z</time></trkpt><trkpt lat="29.750940773274262" lon="-8.937623905417174"><ele>1012.5</ele><time>2026-04-15T08:40:21Z</time></trkpt><trkpt lat="29.75089234654998" lon="-8.937480246587063"><ele>1016.0</ele><time>2026-04-15T08:40:22Z</time></trkpt><trkpt lat="29.750844617735783" lon="-8.937350264014531"><ele>1016.0</ele><time>2026-04-15T08:40:23Z</time></trkpt><trkpt lat="29.750795471072234" lon="-8.937216747268332"><ele>1016.0</ele><time>2026-04-15T08:40:24Z</time></trkpt><trkpt lat="29.750744017884447" lon="-8.937088298107989"><ele>1016.0</ele><time>2026-04-15T08:40:25Z</time></trkpt><trkpt lat="29.75069317700861" lon="-8.936962628231797"><ele>1016.0</ele><time>2026-04-15T08:40:26Z</time></trkpt><trkpt lat="29.75063413296048" lon="-8.936838661030752"><ele>1014.5</ele><time>2026-04-15T08:40:27Z</time></trkpt><trkpt lat="29.750570309430238" lon="-8.936716618197028"><ele>1013.0</ele><time>2026-04-15T08:40:28Z</time></trkpt><trkpt lat="29.750527380517266" lon="-8.936582704366558"><ele>1011.5</ele><time>2026-04-15T08:40:29Z</time></trkpt><trkpt lat="29.750476813277928" lon="-8.936450738773559"><ele>1010.0</ele><time>2026-04-15T08:40:30Z</time></trkpt><trkpt lat="29.750420286498407" lon="-8.9363190464731"><ele>1010.0</ele><time>2026-04-15T08:40:31Z</time></trkpt><trkpt lat="29.750359474171578" lon="-8.93618931301092"><ele>1010.0</ele><time>2026-04-15T08:40:32Z</time></trkpt><trkpt lat="29.75030617060168" lon="-8.936054912767679"><ele>1010.0</ele><time>2026-04-15T08:40:33Z</time></trkpt><trkpt lat="29.750252833287323" lon="-8.93592177564321"><ele>1010.0</ele><time>2026-04-15T08:40:34Z</time></trkpt><trkpt lat="29.75020108930481" lon="-8.935781323627593"><ele>1009.75</ele><time>2026-04-15T08:40:35Z</time></trkpt><trkpt lat="29.750142001115606" lon="-8.935642493992427"><ele>1009.5</ele><time>2026-04-15T08:40:36Z</time></trkpt><trkpt lat="29.750082847990004" lon="-8.935507733624442"><ele>1009.25</ele><time>2026-04-15T08:40:37Z</time></trkpt><trkpt lat="29.75003101513985" lon="-8.935371137161274"><ele>1009.0</ele><time>2026-04-15T08:40:38Z</time></trkpt><trkpt lat="29.74997554972175" lon="-8.93523895208624"><ele>1009.0</ele><time>2026-04-15T08:40:39Z</time></trkpt><trkpt lat="29.74991713744163" lon="-8.935108662751945"><ele>1009.0</ele><time>2026-04-15T08:40:40Z</time></trkpt><trkpt lat="29.749864756585307" lon="-8.934977302843828"><ele>1009.0</ele><time>2026-04-15T08:40:41Z</time></trkpt><trkpt lat="29.74981303313178" lon="-8.934848313967015"><ele>1009.0</ele><time>2026-04-15T08:40:42Z</time></trkpt><trkpt lat="29.749766232777123" lon="-8.93472439437785"><ele>1008.75</ele><time>2026-04-15T08:40:43Z</time></trkpt><trkpt lat="29.749715004776984" lon="-8.934604000894414"><ele>1008.5</ele><time>2026-04-15T08:40:44Z</time></trkpt><trkpt lat="29.74966206390531" lon="-8.934482229622402"><ele>1008.25</ele><time>2026-04-15T08:40:45Z</time></trkpt><trkpt lat="29.749608218848696" lon="-8.934353098825612"><ele>1008.0</ele><time>2026-04-15T08:40:46Z</time></trkpt><trkpt lat="29.749555960531797" lon="-8.934216172921136"><ele>1008.75</ele><time>2026-04-15T08:40:47Z</time></trkpt><trkpt lat="29.74950064420122" lon="-8.934076873423521"><ele>1009.5</ele><time>2026-04-15T08:40:48Z</time></trkpt><trkpt lat="29.74943848778588" lon="-8.933937641128493"><ele>1010.25</ele><time>2026-04-15T08:40:49Z</time></trkpt><trkpt lat="29.749379993900764" lon="-8.933799358302092"><ele>1011.0</ele><time>2026-04-15T08:40:50Z</time></trkpt><trkpt lat="29.749321761177292" lon="-8.933659094899474"><ele>1011.25</ele><time>2026-04-15T08:40:51Z</time></trkpt><trkpt lat="29.7492630191217" lon="-8.933518221550129"><ele>1011.5</ele><time>2026-04-15T08:40:52Z</time></trkpt><trkpt lat="29.749204843615956" lon="-8.933379137044152"><ele>1011.75</ele><time>2026-04-15T08:40:53Z</time></trkpt><trkpt lat="29.749146674912115" lon="-8.9332396694155"><ele>1012.0</ele><time>2026-04-15T08:40:54Z</time></trkpt><trkpt lat="29.749088677150564" lon="-8.933099132273902"><ele>1013.0</ele><time>2026-04-15T08:40:55Z</time></trkpt><trkpt lat="29.74903327871345" lon="-8.932955508788499"><ele>1014.0</ele><time>2026-04-15T08:40:56Z</time></trkpt><trkpt lat="29.748975286830444" lon="-8.932812928821583"><ele>1015.0</ele><time>2026-04-15T08:40:57Z</time></trkpt><trkpt lat="29.748918751406325" lon="-8.932671008091276"><ele>1016.0</ele><time>2026-04-15T08:40:58Z</time></trkpt><trkpt lat="29.748864084064657" lon="-8.932535386975038"><ele>1016.25</ele><time>2026-04-15T08:40:59Z</time></trkpt><trkpt lat="29.74880339951072" lon="-8.932403731590139"><ele>1016.5</ele><time>2026-04-15T08:41:00Z</time></trkpt><trkpt lat="29.74874655845352" lon="-8.93226788276796"><ele>1016.75</ele><time>2026-04-15T08:41:01Z</time></trkpt><trkpt lat="29.74869668849322" lon="-8.93212907491972"><ele>1017.0</ele><time>2026-04-15T08:41:02Z</time></trkpt><trkpt lat="29.748635658516886" lon="-8.931993363623027"><ele>1017.0</ele><time>2026-04-15T08:41:03Z</time></trkpt><trkpt lat="29.748578663391587" lon="-8.931861594387167"><ele>1017.0</ele><time>2026-04-15T08:41:04Z</time></trkpt><trkpt lat="29.74852175732289" lon="-8.931732423868821"><ele>1017.0</ele><time>2026-04-15T08:41:05Z</time></trkpt><trkpt lat="29.74846656126617" lon="-8.931599736780711"><ele>1017.0</ele><time>2026-04-15T08:41:06Z</time></trkpt><trkpt lat="29.74841524166301" lon="-8.931464017733973"><ele>1018.75</ele><time>2026-04-15T08:41:07Z</time></trkpt><trkpt lat="29.748359937856094" lon="-8.93132610826491"><ele>1020.5</ele><time>2026-04-15T08:41:08Z</time></trkpt><trkpt lat="29.748305673396466" lon="-8.93118885532648"><ele>1022.25</ele><time>2026-04-15T08:41:09Z</time></trkpt><trkpt lat="29.748247366388878" lon="-8.93104804196882"><ele>1024.0</ele><time>2026-04-15T08:41:10Z</time></trkpt><trkpt lat="29.7481867776436" lon="-8.930905018595586"><ele>1023.75</ele><time>2026-04-15T08:41:11Z</time></trkpt><trkpt lat="29.748128448794606" lon="-8.93076798037975"><ele>1023.5</ele><time>2026-04-15T08:41:12Z</time></trkpt><trkpt lat="29.74807017503226" lon="-8.93062935480818"><ele>1023.25</ele><time>2026-04-15T08:41:13Z</time></trkpt><trkpt lat="29.748014965076347" lon="-8.930491417624719"><ele>1023.0</ele><time>2026-04-15T08:41:14Z</time></trkpt><trkpt lat="29.747952160727028" lon="-8.930352803365166"><ele>1023.0</ele><time>2026-04-15T08:41:15Z</time></trkpt><trkpt lat="29.747892364069404" lon="-8.930209111455826"><ele>1023.0</ele><time>2026-04-15T08:41:16Z</time></trkpt><trkpt lat="29.74783737577638" lon="-8.93006674081627"><ele>1023.0</ele><time>2026-04-15T08:41:17Z</time></trkpt><trkpt lat="29.747777512688717" lon="-8.92992748000641"><ele>1023.0</ele><time>2026-04-15T08:41:18Z</time></trkpt><trkpt lat="29.747727170375082" lon="-8.929805336965284"><ele>1025.4</ele><time>2026-04-15T08:41:19Z</time></trkpt><trkpt lat="29.74769211522465" lon="-8.929714114631516"><ele>1027.8</ele><time>2026-04-15T08:41:20Z</time></trkpt><trkpt lat="29.74765744717764" lon="-8.929628911266983"><ele>1030.2</ele><time>2026-04-15T08:41:21Z</time></trkpt><trkpt lat="29.747613453297344" lon="-8.929527930910222"><ele>1032.6</ele><time>2026-04-15T08:41:22Z</time></trkpt><trkpt lat="29.747570547295204" lon="-8.929414941465666"><ele>1035.0</ele><time>2026-04-15T08:41:23Z</time></trkpt><trkpt lat="29.747527591876448" lon="-8.929300822921157"><ele>1034.8</ele><time>2026-04-15T08:41:24Z</time></trkpt><trkpt lat="29.747483878439702" lon="-8.929195725176255"><ele>1034.6</ele><time>2026-04-15T08:41:25Z</time></trkpt><trkpt lat="29.747437683950697" lon="-8.929090945906983"><ele>1034.4</ele><time>2026-04-15T08:41:26Z</time></trkpt><trkpt lat="29.747389631149666" lon="-8.928977122169144"><ele>1034.2</ele><time>2026-04-15T08:41:27Z</time></trkpt><trkpt lat="29.747342686277374" lon="-8.92885669361648"><ele>1034.0</ele><time>2026-04-15T08:41:28Z</time></trkpt><trkpt lat="29.74729119151971" lon="-8.92873112402154"><ele>1034.0</ele><time>2026-04-15T08:41:29Z</time></trkpt><trkpt lat="29.74723644348139" lon="-8.928606471914696"><ele>1034.0</ele><time>2026-04-15T08:41:30Z</time></trkpt><trkpt lat="29.7471902434164" lon="-8.928481531459157"><ele>1034.0</ele><time>2026-04-15T08:41:31Z</time></trkpt><trkpt lat="29.747143455768438" lon="-8.928358162838084"><ele>1034.0</ele><time>2026-04-15T08:41:32Z</time></trkpt><trkpt lat="29.747089214262854" lon="-8.9282301510409"><ele>1033.25</ele><time>2026-04-15T08:41:33Z</time></trkpt><trkpt lat="29.747043046781247" lon="-8.928094392209212"><ele>1032.5</ele><time>2026-04-15T08:41:34Z</time></trkpt><trkpt lat="29.747003358913357" lon="-8.927954387748853"><ele>1031.75</ele><time>2026-04-15T08:41:35Z</time></trkpt><trkpt lat="29.746972341473402" lon="-8.927805920176775"><ele>1031.0</ele><time>2026-04-15T08:41:36Z</time></trkpt><trkpt lat="29.746944320411014" lon="-8.927650403623105"><ele>1030.25</ele><time>2026-04-15T08:41:37Z</time></trkpt><trkpt lat="29.746909866025714" lon="-8.927495535373733"><ele>1029.5</ele><time>2026-04-15T08:41:38Z</time></trkpt><trkpt lat="29.746881569145785" lon="-8.927342416167734"><ele>1028.75</ele><time>2026-04-15T08:41:39Z</time></trkpt><trkpt lat="29.74685566413083" lon="-8.927184013804219"><ele>1028.0</ele><time>2026-04-15T08:41:40Z</time></trkpt><trkpt lat="29.74683106338329" lon="-8.927025132852968"><ele>1031.0</ele><time>2026-04-15T08:41:41Z</time></trkpt><trkpt lat="29.746808311834787" lon="-8.926864376279386"><ele>1034.0</ele><time>2026-04-15T08:41:42Z</time></trkpt><trkpt lat="29.746785346025536" lon="-8.926705875913052"><ele>1037.0</ele><time>2026-04-15T08:41:43Z</time></trkpt><trkpt lat="29.746766432930396" lon="-8.926545571505589"><ele>1040.0</ele><time>2026-04-15T08:41:44Z</time></trkpt><trkpt lat="29.746749317269497" lon="-8.926382641584059"><ele>1040.0</ele><time>2026-04-15T08:41:45Z</time></trkpt><trkpt lat="29.746733355293067" lon="-8.926225762499495"><ele>1040.0</ele><time>2026-04-15T08:41:46Z</time></trkpt><trkpt lat="29.74671621995213" lon="-8.926074200388639"><ele>1040.0</ele><time>2026-04-15T08:41:47Z</time></trkpt><trkpt lat="29.746698772029895" lon="-8.925925389325476"><ele>1040.0</ele><time>2026-04-15T08:41:48Z</time></trkpt><trkpt lat="29.74667875948548" lon="-8.925780794189293"><ele>1039.5</ele><time>2026-04-15T08:41:49Z</time></trkpt><trkpt lat="29.74666335317742" lon="-8.925634015987326"><ele>1039.0</ele><time>2026-04-15T08:41:50Z</time></trkpt><trkpt lat="29.74664727953467" lon="-8.925488192472836"><ele>1038.5</ele><time>2026-04-15T08:41:51Z</time></trkpt><trkpt lat="29.746630792894205" lon="-8.925343973885598"><ele>1038.0</ele><time>2026-04-15T08:41:52Z</time></trkpt><trkpt lat="29.7466115183311" lon="-8.925203103830048"><ele>1038.0</ele><time>2026-04-15T08:41:53Z</time></trkpt><trkpt lat="29.746593605982067" lon="-8.925062734931384"><ele>1038.0</ele><time>2026-04-15T08:41:54Z</time></trkpt><trkpt lat="29.7465729708383" lon="-8.924922683447868"><ele>1038.0</ele><time>2026-04-15T08:41:55Z</time></trkpt><trkpt lat="29.746555647586902" lon="-8.924782476816066"><ele>1038.0</ele><time>2026-04-15T08:41:56Z</time></trkpt><trkpt lat="29.746537938594145" lon="-8.924654985465164"><ele>1038.1666666666667</ele><time>2026-04-15T08:41:57Z</time></trkpt><trkpt lat="29.746502763302466" lon="-8.92454640138387"><ele>1038.3333333333333</ele><time>2026-04-15T08:41:58Z</time></trkpt><trkpt lat="29.74649436283365" lon="-8.924442896777434"><ele>1038.5</ele><time>2026-04-15T08:41:59Z</time></trkpt><trkpt lat="29.746472114471917" lon="-8.92435948075815"><ele>1038.6666666666665</ele><time>2026-04-15T08:42:00Z</time></trkpt><trkpt lat="29.74644491784894" lon="-8.92428144623625"><ele>1038.8333333333333</ele><time>2026-04-15T08:42:01Z</time></trkpt><trkpt lat="29.746427296950365" lon="-8.924204434300318"><ele>1039.0</ele><time>2026-04-15T08:42:02Z</time></trkpt><trkpt lat="29.74638457564668" lon="-8.924099292629512"><ele>1039.1666666666665</ele><time>2026-04-15T08:42:04Z</time></trkpt><trkpt lat="29.74636064231958" lon="-8.92401406311421"><ele>1039.3333333333333</ele><time>2026-04-15T08:42:07Z</time></trkpt><trkpt lat="29.746318251846912" lon="-8.923959919312157"><ele>1039.5</ele><time>2026-04-15T08:42:18Z</time></trkpt><trkpt lat="29.746276101244344" lon="-8.92386128599589"><ele>1039.6666666666667</ele><time>2026-04-15T08:42:22Z</time></trkpt><trkpt lat="29.74622022765477" lon="-8.92375602200509"><ele>1039.8333333333335</ele><time>2026-04-15T08:42:24Z</time></trkpt><trkpt lat="29.746185387500372" lon="-8.923676910838434"><ele>1040.0</ele><time>2026-04-15T08:42:25Z</time></trkpt><trkpt lat="29.746142288488365" lon="-8.923588042469687"><ele>1040.0</ele><time>2026-04-15T08:42:26Z</time></trkpt><trkpt lat="29.74608925205172" lon="-8.923497671864741"><ele>1040.0</ele><time>2026-04-15T08:42:27Z</time></trkpt><trkpt lat="29.746027217711692" lon="-8.923402563576525"><ele>1040.0</ele><time>2026-04-15T08:42:28Z</time></trkpt><trkpt lat="29.745962851611697" lon="-8.923298709852023"><ele>1040.0</ele><time>2026-04-15T08:42:29Z</time></trkpt><trkpt lat="29.74589176447972" lon="-8.923195529769016"><ele>1040.0</ele><time>2026-04-15T08:42:30Z</time></trkpt><trkpt lat="29.745812692377335" lon="-8.92309926633785"><ele>1043.25</ele><time>2026-04-15T08:42:31Z</time></trkpt><trkpt lat="29.7457244811553" lon="-8.923003621113665"><ele>1046.5</ele><time>2026-04-15T08:42:32Z</time></trkpt><trkpt lat="29.74562875054841" lon="-8.922911886104021"><ele>1049.75</ele><time>2026-04-15T08:42:33Z</time></trkpt><trkpt lat="29.745526424392658" lon="-8.922828280600173"><ele>1053.0</ele><time>2026-04-15T08:42:34Z</time></trkpt><trkpt lat="29.745422350253186" lon="-8.922740194137871"><ele>1053.0</ele><time>2026-04-15T08:42:35Z</time></trkpt><trkpt lat="29.745316856883335" lon="-8.92264562090856"><ele>1053.0</ele><time>2026-04-15T08:42:36Z</time></trkpt><trkpt lat="29.74520139576641" lon="-8.922558174045491"><ele>1053.0</ele><time>2026-04-15T08:42:37Z</time></trkpt><trkpt lat="29.745101524521523" lon="-8.922472488375908"><ele>1053.0</ele><time>2026-04-15T08:42:38Z</time></trkpt><trkpt lat="29.74499971053282" lon="-8.92238097809948"><ele>1052.25</ele><time>2026-04-15T08:42:39Z</time></trkpt><trkpt lat="29.744899044558906" lon="-8.92228568120735"><ele>1051.5</ele><time>2026-04-15T08:42:40Z</time></trkpt><trkpt lat="29.74479667462056" lon="-8.922186675715365"><ele>1050.75</ele><time>2026-04-15T08:42:41Z</time></trkpt><trkpt lat="29.744690851335825" lon="-8.922085235170922"><ele>1050.0</ele><time>2026-04-15T08:42:42Z</time></trkpt><trkpt lat="29.744582230092" lon="-8.921991422954042"><ele>1050.0</ele><time>2026-04-15T08:42:43Z</time></trkpt><trkpt lat="29.744469121386906" lon="-8.921908561197004"><ele>1050.0</ele><time>2026-04-15T08:42:44Z</time></trkpt><trkpt lat="29.7443624593438" lon="-8.921806692208442"><ele>1050.0</ele><time>2026-04-15T08:42:45Z</time></trkpt><trkpt lat="29.744250973384982" lon="-8.921704155164774"><ele>1050.0</ele><time>2026-04-15T08:42:46Z</time></trkpt><trkpt lat="29.744136570833327" lon="-8.92159924192509"><ele>1050.5</ele><time>2026-04-15T08:42:47Z</time></trkpt><trkpt lat="29.7440117734623" lon="-8.921504744684658"><ele>1051.0</ele><time>2026-04-15T08:42:48Z</time></trkpt><trkpt lat="29.743891685022085" lon="-8.921401082467558"><ele>1051.5</ele><time>2026-04-15T08:42:49Z</time></trkpt><trkpt lat="29.7437750293258" lon="-8.921294807117453"><ele>1052.0</ele><time>2026-04-15T08:42:50Z</time></trkpt><trkpt lat="29.74365602594889" lon="-8.92118575524918"><ele>1052.3333333333335</ele><time>2026-04-15T08:42:51Z</time></trkpt><trkpt lat="29.743538635397783" lon="-8.92107666723649"><ele>1052.6666666666667</ele><time>2026-04-15T08:42:52Z</time></trkpt><trkpt lat="29.74342042045621" lon="-8.920968244801813"><ele>1053.0</ele><time>2026-04-15T08:42:53Z</time></trkpt><trkpt lat="29.743298941099223" lon="-8.920858481025613"><ele>1053.0</ele><time>2026-04-15T08:42:54Z</time></trkpt><trkpt lat="29.74317072167063" lon="-8.920759436383285"><ele>1053.0</ele><time>2026-04-15T08:42:55Z</time></trkpt><trkpt lat="29.743053091323958" lon="-8.920647672350084"><ele>1053.0</ele><time>2026-04-15T08:42:56Z</time></trkpt><trkpt lat="29.742931553888262" lon="-8.920541063721428"><ele>1053.0</ele><time>2026-04-15T08:42:57Z</time></trkpt><trkpt lat="29.74281007539809" lon="-8.920432440026216"><ele>1053.0</ele><time>2026-04-15T08:42:58Z</time></trkpt><trkpt lat="29.74268858402824" lon="-8.920324045398106"><ele>1053.0</ele><time>2026-04-15T08:42:59Z</time></trkpt><trkpt lat="29.74257174543671" lon="-8.920206181584327"><ele>1054.25</ele><time>2026-04-15T08:43:00Z</time></trkpt><trkpt lat="29.7424563197945" lon="-8.920092437526408"><ele>1055.5</ele><time>2026-04-15T08:43:01Z</time></trkpt><trkpt lat="29.742347626918026" lon="-8.919974707601774"><ele>1056.75</ele><time>2026-04-15T08:43:02Z</time></trkpt><trkpt lat="29.74223729108122" lon="-8.919860634422012"><ele>1058.0</ele><time>2026-04-15T08:43:03Z</time></trkpt><trkpt lat="29.742137999237425" lon="-8.91972891328949"><ele>1058.0</ele><time>2026-04-15T08:43:04Z</time></trkpt><trkpt lat="29.742047269220226" lon="-8.919592581106041"><ele>1058.0</ele><time>2026-04-15T08:43:05Z</time></trkpt><trkpt lat="29.74195403158721" lon="-8.919451841419088"><ele>1058.0</ele><time>2026-04-15T08:43:06Z</time></trkpt><trkpt lat="29.74188125426411" lon="-8.91928527098721"><ele>1058.6666666666667</ele><time>2026-04-15T08:43:07Z</time></trkpt><trkpt lat="29.741834380009482" lon="-8.919110695006815"><ele>1059.3333333333333</ele><time>2026-04-15T08:43:08Z</time></trkpt><trkpt lat="29.741759689824598" lon="-8.918952388245778"><ele>1060.0</ele><time>2026-04-15T08:43:09Z</time></trkpt><trkpt lat="29.741719918130965" lon="-8.918781121151067"><ele>1060.0</ele><time>2026-04-15T08:43:10Z</time></trkpt><trkpt lat="29.74167204496748" lon="-8.918622872079911"><ele>1060.0</ele><time>2026-04-15T08:43:11Z</time></trkpt><trkpt lat="29.741635251178305" lon="-8.918458436403139"><ele>1060.0</ele><time>2026-04-15T08:43:12Z</time></trkpt><trkpt lat="29.741610352931726" lon="-8.918290219327504"><ele>1060.0</ele><time>2026-04-15T08:43:13Z</time></trkpt><trkpt lat="29.741592345547005" lon="-8.918121138946457"><ele>1061.0</ele><time>2026-04-15T08:43:14Z</time></trkpt><trkpt lat="29.741578087559095" lon="-8.917946657162013"><ele>1062.0</ele><time>2026-04-15T08:43:15Z</time></trkpt><trkpt lat="29.74157658983167" lon="-8.917767564715728"><ele>1063.0</ele><time>2026-04-15T08:43:16Z</time></trkpt><trkpt lat="29.741590492712533" lon="-8.917585145023986"><ele>1063.3333333333333</ele><time>2026-04-15T08:43:17Z</time></trkpt><trkpt lat="29.741604170376316" lon="-8.917399273582541"><ele>1063.6666666666667</ele><time>2026-04-15T08:43:18Z</time></trkpt><trkpt lat="29.74163097167903" lon="-8.917222492985198"><ele>1064.0</ele><time>2026-04-15T08:43:19Z</time></trkpt><trkpt lat="29.741666063063768" lon="-8.917052843544626"><ele>1064.0</ele><time>2026-04-15T08:43:20Z</time></trkpt><trkpt lat="29.74170532170168" lon="-8.916888515331314"><ele>1064.0</ele><time>2026-04-15T08:43:21Z</time></trkpt><trkpt lat="29.741739009756277" lon="-8.916727839750772"><ele>1064.0</ele><time>2026-04-15T08:43:22Z</time></trkpt><trkpt lat="29.74176933690028" lon="-8.916576103885378"><ele>1064.0</ele><time>2026-04-15T08:43:23Z</time></trkpt><trkpt lat="29.741799028519807" lon="-8.916431913753458"><ele>1064.5</ele><time>2026-04-15T08:43:24Z</time></trkpt><trkpt lat="29.741827764900368" lon="-8.916296270365425"><ele>1065.0</ele><time>2026-04-15T08:43:25Z</time></trkpt><trkpt lat="29.74185688425397" lon="-8.91616482933999"><ele>1065.5</ele><time>2026-04-15T08:43:26Z</time></trkpt><trkpt lat="29.74188389691631" lon="-8.916041130812513"><ele>1066.0</ele><time>2026-04-15T08:43:27Z</time></trkpt><trkpt lat="29.7419132475004" lon="-8.915923994075053"><ele>1066.3333333333333</ele><time>2026-04-15T08:43:28Z</time></trkpt><trkpt lat="29.74193169073434" lon="-8.915812730767097"><ele>1066.6666666666665</ele><time>2026-04-15T08:43:29Z</time></trkpt><trkpt lat="29.74195660753694" lon="-8.915711894815157"><ele>1067.0</ele><time>2026-04-15T08:43:30Z</time></trkpt><trkpt lat="29.741975385437655" lon="-8.915620407354794"><ele>1067.3333333333333</ele><time>2026-04-15T08:43:31Z</time></trkpt><trkpt lat="29.741991873413728" lon="-8.91553218868012"><ele>1067.6666666666667</ele><time>2026-04-15T08:43:32Z</time></trkpt><trkpt lat="29.742005777648153" lon="-8.91544635887888"><ele>1068.0</ele><time>2026-04-15T08:43:33Z</time></trkpt><trkpt lat="29.74202051447722" lon="-8.915375107952455"><ele>1068.0</ele><time>2026-04-15T08:43:34Z</time></trkpt><trkpt lat="29.742037629978455" lon="-8.91528690904117"><ele>1068.0</ele><time>2026-04-15T08:43:36Z</time></trkpt><trkpt lat="29.74205547979265" lon="-8.915204821471272"><ele>1068.0</ele><time>2026-04-15T08:44:57Z</time></trkpt><trkpt lat="29.74208853403916" lon="-8.915125364696879"><ele>1068.0</ele><time>2026-04-15T08:44:59Z</time></trkpt><trkpt lat="29.742107349217804" lon="-8.915006359299205"><ele>1068.0</ele><time>2026-04-15T08:45:01Z</time></trkpt><trkpt lat="29.742122970215725" lon="-8.914934791839654"><ele>1068.0</ele><time>2026-04-15T08:45:02Z</time></trkpt><trkpt lat="29.742143893501822" lon="-8.91484923822843"><ele>1069.0</ele><time>2026-04-15T08:45:03Z</time></trkpt><trkpt lat="29.74216387661649" lon="-8.914762763049527"><ele>1070.0</ele><time>2026-04-15T08:45:04Z</time></trkpt><trkpt lat="29.742180120071254" lon="-8.91468224986892"><ele>1071.0</ele><time>2026-04-15T08:45:05Z</time></trkpt><trkpt lat="29.74219314882008" lon="-8.914600710958052"><ele>1072.0</ele><time>2026-04-15T08:45:06Z</time></trkpt><trkpt lat="29.742210070052657" lon="-8.91451331693272"><ele>1073.0</ele><time>2026-04-15T08:45:07Z</time></trkpt><trkpt lat="29.742231956511294" lon="-8.91442271641272"><ele>1074.0</ele><time>2026-04-15T08:45:08Z</time></trkpt><trkpt lat="29.742256608177236" lon="-8.914326713976381"><ele>1074.8</ele><time>2026-04-15T08:45:09Z</time></trkpt><trkpt lat="29.74228211441777" lon="-8.914222212471135"><ele>1075.6000000000001</ele><time>2026-04-15T08:45:10Z</time></trkpt><trkpt lat="29.742305627577952" lon="-8.914109393472826"><ele>1076.4</ele><time>2026-04-15T08:45:11Z</time></trkpt><trkpt lat="29.74232804812071" lon="-8.914004845653176"><ele>1077.2</ele><time>2026-04-15T08:45:12Z</time></trkpt><trkpt lat="29.742352811873218" lon="-8.913896965763225"><ele>1078.0</ele><time>2026-04-15T08:45:13Z</time></trkpt><trkpt lat="29.74237678922527" lon="-8.913784475188914"><ele>1078.0</ele><time>2026-04-15T08:45:14Z</time></trkpt><trkpt lat="29.74240428433489" lon="-8.913667614097456"><ele>1078.0</ele><time>2026-04-15T08:45:15Z</time></trkpt><trkpt lat="29.742426126042567" lon="-8.913549174159067"><ele>1078.0</ele><time>2026-04-15T08:45:16Z</time></trkpt><trkpt lat="29.7424548953371" lon="-8.913421434874872"><ele>1078.0</ele><time>2026-04-15T08:45:17Z</time></trkpt><trkpt lat="29.742479612229392" lon="-8.91329760787415"><ele>1078.0</ele><time>2026-04-15T08:45:18Z</time></trkpt><trkpt lat="29.742505933668973" lon="-8.913175442215403"><ele>1078.4</ele><time>2026-04-15T08:45:19Z</time></trkpt><trkpt lat="29.742529729207206" lon="-8.913055721154377"><ele>1078.8</ele><time>2026-04-15T08:45:20Z</time></trkpt><trkpt lat="29.74254845438429" lon="-8.912935004451139"><ele>1079.2</ele><time>2026-04-15T08:45:21Z</time></trkpt><trkpt lat="29.742579693151246" lon="-8.912806343960089"><ele>1079.6</ele><time>2026-04-15T08:45:22Z</time></trkpt><trkpt lat="29.742616258042933" lon="-8.912677498437834"><ele>1080.0</ele><time>2026-04-15T08:45:23Z</time></trkpt><trkpt lat="29.742649062896575" lon="-8.912553345809414"><ele>1081.25</ele><time>2026-04-15T08:45:24Z</time></trkpt><trkpt lat="29.742674870853747" lon="-8.912430060476527"><ele>1082.5</ele><time>2026-04-15T08:45:25Z</time></trkpt><trkpt lat="29.742703670210812" lon="-8.912301492180916"><ele>1083.75</ele><time>2026-04-15T08:45:26Z</time></trkpt><trkpt lat="29.74272590814432" lon="-8.912168960848074"><ele>1085.0</ele><time>2026-04-15T08:45:27Z</time></trkpt><trkpt lat="29.742748115374713" lon="-8.912032203502271"><ele>1082.25</ele><time>2026-04-15T08:45:28Z</time></trkpt><trkpt lat="29.742777362263016" lon="-8.911894873372571"><ele>1079.5</ele><time>2026-04-15T08:45:29Z</time></trkpt><trkpt lat="29.74280589215365" lon="-8.911762555995429"><ele>1076.75</ele><time>2026-04-15T08:45:30Z</time></trkpt><trkpt lat="29.742834969791353" lon="-8.911634206586227"><ele>1074.0</ele><time>2026-04-15T08:45:31Z</time></trkpt><trkpt lat="29.742863897710482" lon="-8.911505886260613"><ele>1074.0</ele><time>2026-04-15T08:45:32Z</time></trkpt><trkpt lat="29.742881066593988" lon="-8.911376227124354"><ele>1074.0</ele><time>2026-04-15T08:45:33Z</time></trkpt><trkpt lat="29.742910650156926" lon="-8.91124270492411"><ele>1074.0</ele><time>2026-04-15T08:45:34Z</time></trkpt><trkpt lat="29.742934791196838" lon="-8.911105533476782"><ele>1074.0</ele><time>2026-04-15T08:45:35Z</time></trkpt><trkpt lat="29.742950401966294" lon="-8.910961449597611"><ele>1075.0</ele><time>2026-04-15T08:45:36Z</time></trkpt><trkpt lat="29.742954622068343" lon="-8.910816389131522"><ele>1076.0</ele><time>2026-04-15T08:45:37Z</time></trkpt><trkpt lat="29.742957002011792" lon="-8.910669994582642"><ele>1077.0</ele><time>2026-04-15T08:45:38Z</time></trkpt><trkpt lat="29.742962970360505" lon="-8.910525755553897"><ele>1078.0</ele><time>2026-04-15T08:45:39Z</time></trkpt><trkpt lat="29.74297000548653" lon="-8.910380507576937"><ele>1078.0</ele><time>2026-04-15T08:45:40Z</time></trkpt><trkpt lat="29.742976534289873" lon="-8.91023954459765"><ele>1078.0</ele><time>2026-04-15T08:45:41Z</time></trkpt><trkpt lat="29.742988140447803" lon="-8.91010003088033"><ele>1078.0</ele><time>2026-04-15T08:45:42Z</time></trkpt><trkpt lat="29.74299934592115" lon="-8.909963501825306"><ele>1078.0</ele><time>2026-04-15T08:45:43Z</time></trkpt><trkpt lat="29.74302439276613" lon="-8.909823620843248"><ele>1079.5</ele><time>2026-04-15T08:45:44Z</time></trkpt><trkpt lat="29.743058125881852" lon="-8.909682038149116"><ele>1081.0</ele><time>2026-04-15T08:45:45Z</time></trkpt><trkpt lat="29.74309388521344" lon="-8.909543868495616"><ele>1082.5</ele><time>2026-04-15T08:45:46Z</time></trkpt><trkpt lat="29.743137264384014" lon="-8.909413151609257"><ele>1084.0</ele><time>2026-04-15T08:45:47Z</time></trkpt><trkpt lat="29.74318857294003" lon="-8.909280164911367"><ele>1086.25</ele><time>2026-04-15T08:45:48Z</time></trkpt><trkpt lat="29.743242381592967" lon="-8.909148121990189"><ele>1088.5</ele><time>2026-04-15T08:45:49Z</time></trkpt><trkpt lat="29.74329323800375" lon="-8.909013546796654"><ele>1090.75</ele><time>2026-04-15T08:45:50Z</time></trkpt><trkpt lat="29.743337634606643" lon="-8.908876500755053"><ele>1093.0</ele><time>2026-04-15T08:45:51Z</time></trkpt><trkpt lat="29.743374297549295" lon="-8.908732066512378"><ele>1093.0</ele><time>2026-04-15T08:45:52Z</time></trkpt><trkpt lat="29.74339837355547" lon="-8.908584956708795"><ele>1093.0</ele><time>2026-04-15T08:45:53Z</time></trkpt><trkpt lat="29.743417547460705" lon="-8.908438533471035"><ele>1093.0</ele><time>2026-04-15T08:45:54Z</time></trkpt><trkpt lat="29.743426949727635" lon="-8.908291810036854"><ele>1093.0</ele><time>2026-04-15T08:45:55Z</time></trkpt><trkpt lat="29.743425735580196" lon="-8.908141480390464"><ele>1095.0</ele><time>2026-04-15T08:45:56Z</time></trkpt><trkpt lat="29.743420621003857" lon="-8.907990652916052"><ele>1097.0</ele><time>2026-04-15T08:45:57Z</time></trkpt><trkpt lat="29.74340909685349" lon="-8.90783985798391"><ele>1099.0</ele><time>2026-04-15T08:45:58Z</time></trkpt><trkpt lat="29.743401880735178" lon="-8.907693970215378"><ele>1101.0</ele><time>2026-04-15T08:45:59Z</time></trkpt><trkpt lat="29.743395932487612" lon="-8.907542030811676"><ele>1102.75</ele><time>2026-04-15T08:46:00Z</time></trkpt><trkpt lat="29.74339580756897" lon="-8.907394876691427"><ele>1104.5</ele><time>2026-04-15T08:46:01Z</time></trkpt><trkpt lat="29.743390313745" lon="-8.907250751963847"><ele>1106.25</ele><time>2026-04-15T08:46:02Z</time></trkpt><trkpt lat="29.743372427756057" lon="-8.907107377100226"><ele>1108.0</ele><time>2026-04-15T08:46:03Z</time></trkpt><trkpt lat="29.743343140466074" lon="-8.906962993702463"><ele>1108.0</ele><time>2026-04-15T08:46:04Z</time></trkpt><trkpt lat="29.743306984987964" lon="-8.906821099972746"><ele>1108.0</ele><time>2026-04-15T08:46:05Z</time></trkpt><trkpt lat="29.743264052158004" lon="-8.906679105164343"><ele>1108.0</ele><time>2026-04-15T08:46:06Z</time></trkpt><trkpt lat="29.743196439438062" lon="-8.90655006255018"><ele>1108.0</ele><time>2026-04-15T08:46:07Z</time></trkpt><trkpt lat="29.743136258822858" lon="-8.90641744743085"><ele>1109.0</ele><time>2026-04-15T08:46:08Z</time></trkpt><trkpt lat="29.743083124089058" lon="-8.906278636037515"><ele>1110.0</ele><time>2026-04-15T08:46:09Z</time></trkpt><trkpt lat="29.743011081606532" lon="-8.906151875146767"><ele>1111.0</ele><time>2026-04-15T08:46:10Z</time></trkpt><trkpt lat="29.74293848272942" lon="-8.906024808356642"><ele>1112.0</ele><time>2026-04-15T08:46:11Z</time></trkpt><trkpt lat="29.74286281347561" lon="-8.905899128062659"><ele>1112.0</ele><time>2026-04-15T08:46:12Z</time></trkpt><trkpt lat="29.74279137141931" lon="-8.90576907537932"><ele>1112.0</ele><time>2026-04-15T08:46:13Z</time></trkpt><trkpt lat="29.742722384002583" lon="-8.905637730086703"><ele>1112.0</ele><time>2026-04-15T08:46:14Z</time></trkpt><trkpt lat="29.74265204073332" lon="-8.905507967898814"><ele>1112.0</ele><time>2026-04-15T08:46:15Z</time></trkpt><trkpt lat="29.74258237415213" lon="-8.905383688842626"><ele>1113.0</ele><time>2026-04-15T08:46:16Z</time></trkpt><trkpt lat="29.74251534184052" lon="-8.905257715745961"><ele>1114.0</ele><time>2026-04-15T08:46:17Z</time></trkpt><trkpt lat="29.742444632927146" lon="-8.905129848876083"><ele>1115.0</ele><time>2026-04-15T08:46:18Z</time></trkpt><trkpt lat="29.742373317555263" lon="-8.90500093051197"><ele>1116.0</ele><time>2026-04-15T08:46:19Z</time></trkpt><trkpt lat="29.742303653508607" lon="-8.904874115763455"><ele>1117.25</ele><time>2026-04-15T08:46:20Z</time></trkpt><trkpt lat="29.742239646578454" lon="-8.904743705154985"><ele>1118.5</ele><time>2026-04-15T08:46:21Z</time></trkpt><trkpt lat="29.742180767849838" lon="-8.904609844578903"><ele>1119.75</ele><time>2026-04-15T08:46:22Z</time></trkpt><trkpt lat="29.74212516348935" lon="-8.904470810617099"><ele>1121.0</ele><time>2026-04-15T08:46:23Z</time></trkpt><trkpt lat="29.742076813142972" lon="-8.9043313532778"><ele>1121.5</ele><time>2026-04-15T08:46:24Z</time></trkpt><trkpt lat="29.742032782498917" lon="-8.904186868717934"><ele>1122.0</ele><time>2026-04-15T08:46:25Z</time></trkpt><trkpt lat="29.74197335069281" lon="-8.904047658629118"><ele>1122.5</ele><time>2026-04-15T08:46:26Z</time></trkpt><trkpt lat="29.741924975249713" lon="-8.903905063121531"><ele>1123.0</ele><time>2026-04-15T08:46:27Z</time></trkpt><trkpt lat="29.74188677981248" lon="-8.903746651706165"><ele>1125.75</ele><time>2026-04-15T08:46:28Z</time></trkpt><trkpt lat="29.741860558089776" lon="-8.90359296326361"><ele>1128.5</ele><time>2026-04-15T08:46:29Z</time></trkpt><trkpt lat="29.741841236271593" lon="-8.903441355732122"><ele>1131.25</ele><time>2026-04-15T08:46:30Z</time></trkpt><trkpt lat="29.741822888649065" lon="-8.903304287360076"><ele>1134.0</ele><time>2026-04-15T08:46:31Z</time></trkpt><trkpt lat="29.741804524991316" lon="-8.903167130821346"><ele>1134.75</ele><time>2026-04-15T08:46:32Z</time></trkpt><trkpt lat="29.741784287982263" lon="-8.903025273919692"><ele>1135.5</ele><time>2026-04-15T08:46:33Z</time></trkpt><trkpt lat="29.741762545070934" lon="-8.902874754131854"><ele>1136.25</ele><time>2026-04-15T08:46:34Z</time></trkpt><trkpt lat="29.741740134880963" lon="-8.90272117391875"><ele>1137.0</ele><time>2026-04-15T08:46:35Z</time></trkpt><trkpt lat="29.74171670785711" lon="-8.902566419097047"><ele>1137.0</ele><time>2026-04-15T08:46:36Z</time></trkpt><trkpt lat="29.741694410714803" lon="-8.902411618523415"><ele>1137.0</ele><time>2026-04-15T08:46:37Z</time></trkpt><trkpt lat="29.741697257323903" lon="-8.902254245704967"><ele>1137.0</ele><time>2026-04-15T08:46:38Z</time></trkpt><trkpt lat="29.74167089387168" lon="-8.90210676564769"><ele>1137.0</ele><time>2026-04-15T08:46:39Z</time></trkpt><trkpt lat="29.741654924414792" lon="-8.901960780274162"><ele>1137.0</ele><time>2026-04-15T08:46:40Z</time></trkpt><trkpt lat="29.741639541886876" lon="-8.901812943005043"><ele>1137.0</ele><time>2026-04-15T08:46:41Z</time></trkpt><trkpt lat="29.741628661156767" lon="-8.901661726819516"><ele>1137.0</ele><time>2026-04-15T08:46:42Z</time></trkpt><trkpt lat="29.74162716940288" lon="-8.901504055917409"><ele>1137.0</ele><time>2026-04-15T08:46:43Z</time></trkpt><trkpt lat="29.741641779264473" lon="-8.901344999666316"><ele>1137.25</ele><time>2026-04-15T08:46:44Z</time></trkpt><trkpt lat="29.741669311112634" lon="-8.901188303367249"><ele>1137.5</ele><time>2026-04-15T08:46:45Z</time></trkpt><trkpt lat="29.74170966473118" lon="-8.901034649095564"><ele>1137.75</ele><time>2026-04-15T08:46:46Z</time></trkpt><trkpt lat="29.74175928316406" lon="-8.90088118659685"><ele>1138.0</ele><time>2026-04-15T08:46:47Z</time></trkpt><trkpt lat="29.741818374875002" lon="-8.900733167591639"><ele>1138.0</ele><time>2026-04-15T08:46:48Z</time></trkpt><trkpt lat="29.741875027562354" lon="-8.900582981914434"><ele>1138.0</ele><time>2026-04-15T08:46:49Z</time></trkpt><trkpt lat="29.741932847059445" lon="-8.90043633997436"><ele>1138.0</ele><time>2026-04-15T08:46:50Z</time></trkpt><trkpt lat="29.74199033738074" lon="-8.900290248169403"><ele>1138.0</ele><time>2026-04-15T08:46:51Z</time></trkpt><trkpt lat="29.74204842675282" lon="-8.900147267216962"><ele>1136.75</ele><time>2026-04-15T08:46:52Z</time></trkpt><trkpt lat="29.742104708908393" lon="-8.900005544890105"><ele>1135.5</ele><time>2026-04-15T08:46:53Z</time></trkpt><trkpt lat="29.74215821246946" lon="-8.899865757015068"><ele>1134.25</ele><time>2026-04-15T08:46:54Z</time></trkpt><trkpt lat="29.742203737122907" lon="-8.899731003986645"><ele>1133.0</ele><time>2026-04-15T08:46:55Z</time></trkpt><trkpt lat="29.742216612150585" lon="-8.899602598052299"><ele>1133.0</ele><time>2026-04-15T08:46:56Z</time></trkpt><trkpt lat="29.742248698401887" lon="-8.899486718370298"><ele>1133.0</ele><time>2026-04-15T08:46:57Z</time></trkpt><trkpt lat="29.742243887275187" lon="-8.89937334500531"><ele>1133.0</ele><time>2026-04-15T08:46:58Z</time></trkpt><trkpt lat="29.742225437464338" lon="-8.899259933915301"><ele>1133.0</ele><time>2026-04-15T08:46:59Z</time></trkpt><trkpt lat="29.74219588182267" lon="-8.89914595107003"><ele>1133.0</ele><time>2026-04-15T08:47:00Z</time></trkpt><trkpt lat="29.742142290596366" lon="-8.899038678204596"><ele>1132.5</ele><time>2026-04-15T08:47:01Z</time></trkpt><trkpt lat="29.742106355816848" lon="-8.898918017213703"><ele>1132.0</ele><time>2026-04-15T08:47:02Z</time></trkpt><trkpt lat="29.74202429419533" lon="-8.898820833731262"><ele>1131.5</ele><time>2026-04-15T08:47:03Z</time></trkpt><trkpt lat="29.741952899875724" lon="-8.898707818252777"><ele>1131.0</ele><time>2026-04-15T08:47:04Z</time></trkpt><trkpt lat="29.741880404471164" lon="-8.89858753900065"><ele>1136.25</ele><time>2026-04-15T08:47:05Z</time></trkpt><trkpt lat="29.74180095293356" lon="-8.89848379752868"><ele>1141.5</ele><time>2026-04-15T08:47:06Z</time></trkpt><trkpt lat="29.741718263136278" lon="-8.898385377132264"><ele>1146.75</ele><time>2026-04-15T08:47:07Z</time></trkpt><trkpt lat="29.74163466453602" lon="-8.898281718952875"><ele>1152.0</ele><time>2026-04-15T08:47:08Z</time></trkpt><trkpt lat="29.741549876332336" lon="-8.898170421974905"><ele>1152.0</ele><time>2026-04-15T08:47:09Z</time></trkpt><trkpt lat="29.741467949068554" lon="-8.898053066506789"><ele>1152.0</ele><time>2026-04-15T08:47:10Z</time></trkpt><trkpt lat="29.74139007065989" lon="-8.897931480732195"><ele>1152.0</ele><time>2026-04-15T08:47:11Z</time></trkpt><trkpt lat="29.741319640953517" lon="-8.897801658189138"><ele>1152.0</ele><time>2026-04-15T08:47:12Z</time></trkpt><trkpt lat="29.74126043338483" lon="-8.897667068692916"><ele>1149.25</ele><time>2026-04-15T08:47:13Z</time></trkpt><trkpt lat="29.741203500119042" lon="-8.897529023621296"><ele>1146.5</ele><time>2026-04-15T08:47:14Z</time></trkpt><trkpt lat="29.74114875036161" lon="-8.897389475751483"><ele>1143.75</ele><time>2026-04-15T08:47:15Z</time></trkpt><trkpt lat="29.741098793005577" lon="-8.897249928576468"><ele>1141.0</ele><time>2026-04-15T08:47:16Z</time></trkpt><trkpt lat="29.741043349327963" lon="-8.897113527978938"><ele>1146.75</ele><time>2026-04-15T08:47:17Z</time></trkpt><trkpt lat="29.74099657902757" lon="-8.89697161113201"><ele>1152.5</ele><time>2026-04-15T08:47:18Z</time></trkpt><trkpt lat="29.74095105364684" lon="-8.896830261011887"><ele>1158.25</ele><time>2026-04-15T08:47:19Z</time></trkpt><trkpt lat="29.740905110291678" lon="-8.89668881570263"><ele>1164.0</ele><time>2026-04-15T08:47:20Z</time></trkpt><trkpt lat="29.74086048128835" lon="-8.896549364026791"><ele>1164.0</ele><time>2026-04-15T08:47:21Z</time></trkpt><trkpt lat="29.740817320195003" lon="-8.896412788073505"><ele>1164.0</ele><time>2026-04-15T08:47:22Z</time></trkpt><trkpt lat="29.740772015670643" lon="-8.896273188397414"><ele>1164.0</ele><time>2026-04-15T08:47:23Z</time></trkpt><trkpt lat="29.74073151024203" lon="-8.89613191387186"><ele>1164.0</ele><time>2026-04-15T08:47:24Z</time></trkpt><trkpt lat="29.740699011106916" lon="-8.895983945421651"><ele>1163.5</ele><time>2026-04-15T08:47:25Z</time></trkpt><trkpt lat="29.740673609203593" lon="-8.895836138023997"><ele>1163.0</ele><time>2026-04-15T08:47:26Z</time></trkpt><trkpt lat="29.7406538343211" lon="-8.895686638200885"><ele>1162.5</ele><time>2026-04-15T08:47:27Z</time></trkpt><trkpt lat="29.74064396500499" lon="-8.89553697499553"><ele>1162.0</ele><time>2026-04-15T08:47:28Z</time></trkpt><trkpt lat="29.740646902463816" lon="-8.895389049570024"><ele>1162.0</ele><time>2026-04-15T08:47:29Z</time></trkpt><trkpt lat="29.74066192694173" lon="-8.895232478459263"><ele>1162.0</ele><time>2026-04-15T08:47:30Z</time></trkpt><trkpt lat="29.740680056493265" lon="-8.895066941443364"><ele>1162.0</ele><time>2026-04-15T08:47:31Z</time></trkpt><trkpt lat="29.740699564882636" lon="-8.894908461925539"><ele>1162.0</ele><time>2026-04-15T08:47:32Z</time></trkpt><trkpt lat="29.740720739610833" lon="-8.894749490051643"><ele>1162.5</ele><time>2026-04-15T08:47:33Z</time></trkpt><trkpt lat="29.74074657639209" lon="-8.8945865441563"><ele>1163.0</ele><time>2026-04-15T08:47:34Z</time></trkpt><trkpt lat="29.740778986697823" lon="-8.894418967455575"><ele>1163.5</ele><time>2026-04-15T08:47:35Z</time></trkpt><trkpt lat="29.740812904005793" lon="-8.894253516016116"><ele>1164.0</ele><time>2026-04-15T08:47:36Z</time></trkpt><trkpt lat="29.740848211977788" lon="-8.894086539972696"><ele>1165.5</ele><time>2026-04-15T08:47:37Z</time></trkpt><trkpt lat="29.740878071183143" lon="-8.893920245204644"><ele>1167.0</ele><time>2026-04-15T08:47:38Z</time></trkpt><trkpt lat="29.740904590132107" lon="-8.893750902473629"><ele>1168.5</ele><time>2026-04-15T08:47:39Z</time></trkpt><trkpt lat="29.740933201660457" lon="-8.893579641982981"><ele>1170.0</ele><time>2026-04-15T08:47:40Z</time></trkpt><trkpt lat="29.740963954238314" lon="-8.89341014691971"><ele>1172.0</ele><time>2026-04-15T08:47:41Z</time></trkpt><trkpt lat="29.74099657943809" lon="-8.89324501669259"><ele>1174.0</ele><time>2026-04-15T08:47:42Z</time></trkpt><trkpt lat="29.741027101669346" lon="-8.893082602155804"><ele>1176.0</ele><time>2026-04-15T08:47:43Z</time></trkpt><trkpt lat="29.74105680004816" lon="-8.892925443623039"><ele>1178.0</ele><time>2026-04-15T08:47:44Z</time></trkpt><trkpt lat="29.741087462370587" lon="-8.892770848952281"><ele>1176.25</ele><time>2026-04-15T08:47:45Z</time></trkpt><trkpt lat="29.741116283530914" lon="-8.89262011079381"><ele>1174.5</ele><time>2026-04-15T08:47:46Z</time></trkpt><trkpt lat="29.7411461435479" lon="-8.892466508311582"><ele>1172.75</ele><time>2026-04-15T08:47:47Z</time></trkpt><trkpt lat="29.741173161721786" lon="-8.892310938140463"><ele>1171.0</ele><time>2026-04-15T08:47:48Z</time></trkpt><trkpt lat="29.741193915631374" lon="-8.892154815512514"><ele>1171.0</ele><time>2026-04-15T08:47:49Z</time></trkpt><trkpt lat="29.7411897785221" lon="-8.891998883464066"><ele>1171.0</ele><time>2026-04-15T08:47:50Z</time></trkpt><trkpt lat="29.74119303919578" lon="-8.891838705012288"><ele>1171.0</ele><time>2026-04-15T08:47:51Z</time></trkpt><trkpt lat="29.74120478635717" lon="-8.891673843577877"><ele>1171.0</ele><time>2026-04-15T08:47:52Z</time></trkpt><trkpt lat="29.741183823391477" lon="-8.891504950467112"><ele>1170.3333333333333</ele><time>2026-04-15T08:47:53Z</time></trkpt><trkpt lat="29.741157670311537" lon="-8.89133555769119"><ele>1169.6666666666667</ele><time>2026-04-15T08:47:54Z</time></trkpt><trkpt lat="29.74112264818701" lon="-8.891165417855428"><ele>1169.0</ele><time>2026-04-15T08:47:55Z</time></trkpt><trkpt lat="29.74109190760796" lon="-8.890995905752497"><ele>1170.3333333333335</ele><time>2026-04-15T08:47:56Z</time></trkpt><trkpt lat="29.741068625230426" lon="-8.890825719608806"><ele>1171.6666666666667</ele><time>2026-04-15T08:47:57Z</time></trkpt><trkpt lat="29.741048656069946" lon="-8.890654285444887"><ele>1173.0</ele><time>2026-04-15T08:47:58Z</time></trkpt><trkpt lat="29.74103247999772" lon="-8.89048224433385"><ele>1173.25</ele><time>2026-04-15T08:47:59Z</time></trkpt><trkpt lat="29.741026260671727" lon="-8.890311466919158"><ele>1173.5</ele><time>2026-04-15T08:48:00Z</time></trkpt><trkpt lat="29.741035255855177" lon="-8.890142883374454"><ele>1173.75</ele><time>2026-04-15T08:48:01Z</time></trkpt><trkpt lat="29.741049073122415" lon="-8.889972097992096"><ele>1174.0</ele><time>2026-04-15T08:48:02Z</time></trkpt><trkpt lat="29.74106537350412" lon="-8.889803415277122"><ele>1174.0</ele><time>2026-04-15T08:48:03Z</time></trkpt><trkpt lat="29.7410807735695" lon="-8.88964070351115"><ele>1174.0</ele><time>2026-04-15T08:48:04Z</time></trkpt><trkpt lat="29.741095204345033" lon="-8.889481798464992"><ele>1174.0</ele><time>2026-04-15T08:48:05Z</time></trkpt><trkpt lat="29.74110820200414" lon="-8.889328566155008"><ele>1174.0</ele><time>2026-04-15T08:48:06Z</time></trkpt><trkpt lat="29.741101813601563" lon="-8.889173273215825"><ele>1175.0</ele><time>2026-04-15T08:48:07Z</time></trkpt><trkpt lat="29.741101813604526" lon="-8.889014750247272"><ele>1176.0</ele><time>2026-04-15T08:48:08Z</time></trkpt><trkpt lat="29.74111320279526" lon="-8.888855548344756"><ele>1177.0</ele><time>2026-04-15T08:48:09Z</time></trkpt><trkpt lat="29.741096808812266" lon="-8.888693812712035"><ele>1178.0</ele><time>2026-04-15T08:48:10Z</time></trkpt><trkpt lat="29.741065260113263" lon="-8.888532344790523"><ele>1181.25</ele><time>2026-04-15T08:48:11Z</time></trkpt><trkpt lat="29.74102490245833" lon="-8.88837229319873"><ele>1184.5</ele><time>2026-04-15T08:48:12Z</time></trkpt><trkpt lat="29.740984074205908" lon="-8.888211741128735"><ele>1187.75</ele><time>2026-04-15T08:48:13Z</time></trkpt><trkpt lat="29.74093928242426" lon="-8.888048030093836"><ele>1191.0</ele><time>2026-04-15T08:48:14Z</time></trkpt><trkpt lat="29.740890661361274" lon="-8.88788775975936"><ele>1191.0</ele><time>2026-04-15T08:48:15Z</time></trkpt><trkpt lat="29.740840519303543" lon="-8.887732919863682"><ele>1191.0</ele><time>2026-04-15T08:48:16Z</time></trkpt><trkpt lat="29.740792159874992" lon="-8.887573269960509"><ele>1191.0</ele><time>2026-04-15T08:48:17Z</time></trkpt><trkpt lat="29.740746792986503" lon="-8.88741208262467"><ele>1191.0</ele><time>2026-04-15T08:48:18Z</time></trkpt><trkpt lat="29.740711739440773" lon="-8.887249489720753"><ele>1190.75</ele><time>2026-04-15T08:48:19Z</time></trkpt><trkpt lat="29.740682249456373" lon="-8.887083291816023"><ele>1190.5</ele><time>2026-04-15T08:48:20Z</time></trkpt><trkpt lat="29.740658914372787" lon="-8.886914601213276"><ele>1190.25</ele><time>2026-04-15T08:48:21Z</time></trkpt><trkpt lat="29.74064748823025" lon="-8.886745604411452"><ele>1190.0</ele><time>2026-04-15T08:48:22Z</time></trkpt><trkpt lat="29.740643804292706" lon="-8.886581042992757"><ele>1190.0</ele><time>2026-04-15T08:48:23Z</time></trkpt><trkpt lat="29.740650102421203" lon="-8.886414424510715"><ele>1190.0</ele><time>2026-04-15T08:48:24Z</time></trkpt><trkpt lat="29.740664870246494" lon="-8.886247144295174"><ele>1190.0</ele><time>2026-04-15T08:48:25Z</time></trkpt><trkpt lat="29.74068103055203" lon="-8.886082150590806"><ele>1190.0</ele><time>2026-04-15T08:48:26Z</time></trkpt><trkpt lat="29.740699754569988" lon="-8.885916704704496"><ele>1190.5</ele><time>2026-04-15T08:48:27Z</time></trkpt><trkpt lat="29.740719822980573" lon="-8.885749233096538"><ele>1191.0</ele><time>2026-04-15T08:48:28Z</time></trkpt><trkpt lat="29.74074072042408" lon="-8.885581407799812"><ele>1191.5</ele><time>2026-04-15T08:48:29Z</time></trkpt><trkpt lat="29.740762059995234" lon="-8.885417036142554"><ele>1192.0</ele><time>2026-04-15T08:48:30Z</time></trkpt><trkpt lat="29.74078306947245" lon="-8.885259655409936"><ele>1192.0</ele><time>2026-04-15T08:48:31Z</time></trkpt><trkpt lat="29.74080348400156" lon="-8.885109976632533"><ele>1192.0</ele><time>2026-04-15T08:48:32Z</time></trkpt><trkpt lat="29.74081333712107" lon="-8.884964198461452"><ele>1192.0</ele><time>2026-04-15T08:48:33Z</time></trkpt><trkpt lat="29.740813236005703" lon="-8.88481290880766"><ele>1192.0</ele><time>2026-04-15T08:48:34Z</time></trkpt><trkpt lat="29.740805681401078" lon="-8.884667648634261"><ele>1193.0</ele><time>2026-04-15T08:48:35Z</time></trkpt><trkpt lat="29.740776040100776" lon="-8.884526548850062"><ele>1194.0</ele><time>2026-04-15T08:48:36Z</time></trkpt><trkpt lat="29.74076610290592" lon="-8.884374524616787"><ele>1195.0</ele><time>2026-04-15T08:48:37Z</time></trkpt><trkpt lat="29.740730625882883" lon="-8.884220056639654"><ele>1196.0</ele><time>2026-04-15T08:48:38Z</time></trkpt><trkpt lat="29.740692803523753" lon="-8.884065635614096"><ele>1196.5</ele><time>2026-04-15T08:48:39Z</time></trkpt><trkpt lat="29.74064178598498" lon="-8.883907636772136"><ele>1197.0</ele><time>2026-04-15T08:48:40Z</time></trkpt><trkpt lat="29.74058265836324" lon="-8.88375097723262"><ele>1197.5</ele><time>2026-04-15T08:48:41Z</time></trkpt><trkpt lat="29.740515378709226" lon="-8.883599208699387"><ele>1198.0</ele><time>2026-04-15T08:48:42Z</time></trkpt><trkpt lat="29.740425666373753" lon="-8.883465053082706"><ele>1199.0</ele><time>2026-04-15T08:48:43Z</time></trkpt><trkpt lat="29.740352608282034" lon="-8.88332527209784"><ele>1200.0</ele><time>2026-04-15T08:48:44Z</time></trkpt><trkpt lat="29.740291161091495" lon="-8.883177324428793"><ele>1201.0</ele><time>2026-04-15T08:48:45Z</time></trkpt><trkpt lat="29.740210379398263" lon="-8.88304169063187"><ele>1202.0</ele><time>2026-04-15T08:48:46Z</time></trkpt><trkpt lat="29.740130003962925" lon="-8.882900107404902"><ele>1203.5</ele><time>2026-04-15T08:48:47Z</time></trkpt><trkpt lat="29.740051797874152" lon="-8.882754628497562"><ele>1205.0</ele><time>2026-04-15T08:48:48Z</time></trkpt><trkpt lat="29.73997348263767" lon="-8.882608208574231"><ele>1206.5</ele><time>2026-04-15T08:48:49Z</time></trkpt><trkpt lat="29.739894914835375" lon="-8.882461883493672"><ele>1208.0</ele><time>2026-04-15T08:48:50Z</time></trkpt><trkpt lat="29.739817329484286" lon="-8.882315467239131"><ele>1209.0</ele><time>2026-04-15T08:48:51Z</time></trkpt><trkpt lat="29.739740565954673" lon="-8.882166158691605"><ele>1210.0</ele><time>2026-04-15T08:48:52Z</time></trkpt><trkpt lat="29.739670716207648" lon="-8.882009257115152"><ele>1211.0</ele><time>2026-04-15T08:48:53Z</time></trkpt><trkpt lat="29.739605427435237" lon="-8.88184978080642"><ele>1211.3333333333335</ele><time>2026-04-15T08:48:54Z</time></trkpt><trkpt lat="29.739540956697397" lon="-8.881685804492482"><ele>1211.6666666666667</ele><time>2026-04-15T08:48:55Z</time></trkpt><trkpt lat="29.739481203801894" lon="-8.881522559751062"><ele>1212.0</ele><time>2026-04-15T08:48:56Z</time></trkpt><trkpt lat="29.73942898425688" lon="-8.881353827665333"><ele>1212.0</ele><time>2026-04-15T08:48:57Z</time></trkpt><trkpt lat="29.73938616485776" lon="-8.881183031708817"><ele>1212.0</ele><time>2026-04-15T08:48:58Z</time></trkpt><trkpt lat="29.739347525463792" lon="-8.881015469970995"><ele>1212.0</ele><time>2026-04-15T08:48:59Z</time></trkpt><trkpt lat="29.739307076152436" lon="-8.880849897514628"><ele>1215.0</ele><time>2026-04-15T08:49:00Z</time></trkpt><trkpt lat="29.739264124267386" lon="-8.880682202970469"><ele>1218.0</ele><time>2026-04-15T08:49:01Z</time></trkpt><trkpt lat="29.739223943220036" lon="-8.880518481738044"><ele>1221.0</ele><time>2026-04-15T08:49:02Z</time></trkpt><trkpt lat="29.73918469152643" lon="-8.880367475012072"><ele>1224.0</ele><time>2026-04-15T08:49:03Z</time></trkpt><trkpt lat="29.739152955885494" lon="-8.880217758640477"><ele>1224.25</ele><time>2026-04-15T08:49:04Z</time></trkpt><trkpt lat="29.73912680781939" lon="-8.880066103750398"><ele>1224.5</ele><time>2026-04-15T08:49:05Z</time></trkpt><trkpt lat="29.73911396111916" lon="-8.879913423150247"><ele>1224.75</ele><time>2026-04-15T08:49:06Z</time></trkpt><trkpt lat="29.739113765995864" lon="-8.879760481904185"><ele>1225.0</ele><time>2026-04-15T08:49:07Z</time></trkpt><trkpt lat="29.739117925998226" lon="-8.879600799833105"><ele>1225.0</ele><time>2026-04-15T08:49:08Z</time></trkpt><trkpt lat="29.739127685579696" lon="-8.879439756927363"><ele>1225.0</ele><time>2026-04-15T08:49:09Z</time></trkpt><trkpt lat="29.739144204449044" lon="-8.879275860261659"><ele>1225.0</ele><time>2026-04-15T08:49:10Z</time></trkpt><trkpt lat="29.739175332661087" lon="-8.879116848406056"><ele>1225.0</ele><time>2026-04-15T08:49:11Z</time></trkpt><trkpt lat="29.739222696816146" lon="-8.87896333350141"><ele>1225.75</ele><time>2026-04-15T08:49:12Z</time></trkpt><trkpt lat="29.739279303491028" lon="-8.878816157331894"><ele>1226.5</ele><time>2026-04-15T08:49:13Z</time></trkpt><trkpt lat="29.73933995347192" lon="-8.878671264782758"><ele>1227.25</ele><time>2026-04-15T08:49:14Z</time></trkpt><trkpt lat="29.739378586160566" lon="-8.878522561490554"><ele>1228.0</ele><time>2026-04-15T08:49:15Z</time></trkpt><trkpt lat="29.739428032076088" lon="-8.878378134996035"><ele>1231.5</ele><time>2026-04-15T08:49:16Z</time></trkpt><trkpt lat="29.73947823165672" lon="-8.878232336885361"><ele>1235.0</ele><time>2026-04-15T08:49:17Z</time></trkpt><trkpt lat="29.739528044793257" lon="-8.878088208452422"><ele>1238.5</ele><time>2026-04-15T08:49:18Z</time></trkpt><trkpt lat="29.73956663935366" lon="-8.87794685503709"><ele>1242.0</ele><time>2026-04-15T08:49:19Z</time></trkpt><trkpt lat="29.739609677267193" lon="-8.877807972248169"><ele>1242.0</ele><time>2026-04-15T08:49:20Z</time></trkpt><trkpt lat="29.739627583070767" lon="-8.877651795128582"><ele>1242.0</ele><time>2026-04-15T08:49:21Z</time></trkpt><trkpt lat="29.739646095528418" lon="-8.87749199218818"><ele>1242.0</ele><time>2026-04-15T08:49:22Z</time></trkpt><trkpt lat="29.739662498120257" lon="-8.87732909951469"><ele>1242.0</ele><time>2026-04-15T08:49:23Z</time></trkpt><trkpt lat="29.739675099950006" lon="-8.877161621636045"><ele>1244.6666666666667</ele><time>2026-04-15T08:49:24Z</time></trkpt><trkpt lat="29.739652570513822" lon="-8.876991011093958"><ele>1247.3333333333335</ele><time>2026-04-15T08:49:25Z</time></trkpt><trkpt lat="29.739643500613784" lon="-8.876812672734474"><ele>1250.0</ele><time>2026-04-15T08:49:26Z</time></trkpt><trkpt lat="29.739633181451726" lon="-8.87663541626927"><ele>1253.0</ele><time>2026-04-15T08:49:27Z</time></trkpt><trkpt lat="29.739631237348362" lon="-8.876467254085412"><ele>1256.0</ele><time>2026-04-15T08:49:28Z</time></trkpt><trkpt lat="29.739620079581893" lon="-8.876303381263547"><ele>1259.0</ele><time>2026-04-15T08:49:29Z</time></trkpt><trkpt lat="29.739609516438616" lon="-8.876138058814224"><ele>1262.0</ele><time>2026-04-15T08:49:30Z</time></trkpt><trkpt lat="29.73960254328868" lon="-8.875971519330704"><ele>1265.25</ele><time>2026-04-15T08:49:31Z</time></trkpt><trkpt lat="29.73958905916815" lon="-8.87580785136404"><ele>1268.5</ele><time>2026-04-15T08:49:32Z</time></trkpt><trkpt lat="29.739573775925738" lon="-8.875646332295386"><ele>1271.75</ele><time>2026-04-15T08:49:33Z</time></trkpt><trkpt lat="29.7395652338285" lon="-8.875486123638115"><ele>1275.0</ele><time>2026-04-15T08:49:34Z</time></trkpt><trkpt lat="29.739560840689414" lon="-8.87532571998048"><ele>1275.0</ele><time>2026-04-15T08:49:35Z</time></trkpt><trkpt lat="29.739565814273973" lon="-8.875165282467474"><ele>1275.0</ele><time>2026-04-15T08:49:36Z</time></trkpt><trkpt lat="29.739571420763877" lon="-8.875006393569594"><ele>1275.0</ele><time>2026-04-15T08:49:37Z</time></trkpt><trkpt lat="29.73958153376314" lon="-8.874849150525709"><ele>1275.0</ele><time>2026-04-15T08:49:38Z</time></trkpt><trkpt lat="29.739598592708447" lon="-8.874696968133966"><ele>1276.25</ele><time>2026-04-15T08:49:39Z</time></trkpt><trkpt lat="29.739624990800227" lon="-8.874557768651142"><ele>1277.5</ele><time>2026-04-15T08:49:40Z</time></trkpt><trkpt lat="29.739652235543506" lon="-8.874414604526516"><ele>1278.75</ele><time>2026-04-15T08:49:41Z</time></trkpt><trkpt lat="29.739696730061496" lon="-8.874272579589439"><ele>1280.0</ele><time>2026-04-15T08:49:42Z</time></trkpt><trkpt lat="29.73974581676245" lon="-8.874131111738564"><ele>1280.0</ele><time>2026-04-15T08:49:43Z</time></trkpt><trkpt lat="29.739796820658555" lon="-8.873987478206873"><ele>1280.0</ele><time>2026-04-15T08:49:44Z</time></trkpt><trkpt lat="29.73984598697838" lon="-8.87383825943702"><ele>1280.0</ele><time>2026-04-15T08:49:45Z</time></trkpt><trkpt lat="29.73989099566988" lon="-8.873684343688145"><ele>1280.0</ele><time>2026-04-15T08:49:46Z</time></trkpt><trkpt lat="29.739933434367103" lon="-8.873519414797759"><ele>1279.75</ele><time>2026-04-15T08:49:47Z</time></trkpt><trkpt lat="29.73996482272227" lon="-8.873352368591924"><ele>1279.5</ele><time>2026-04-15T08:49:48Z</time></trkpt><trkpt lat="29.739986835775074" lon="-8.873192985080822"><ele>1279.25</ele><time>2026-04-15T08:49:49Z</time></trkpt><trkpt lat="29.739998426299024" lon="-8.873029814674616"><ele>1279.0</ele><time>2026-04-15T08:49:50Z</time></trkpt><trkpt lat="29.74000384914141" lon="-8.872864212063526"><ele>1279.0</ele><time>2026-04-15T08:49:51Z</time></trkpt><trkpt lat="29.74000323034575" lon="-8.872699736000678"><ele>1279.0</ele><time>2026-04-15T08:49:52Z</time></trkpt><trkpt lat="29.74000740566939" lon="-8.872537199797259"><ele>1279.0</ele><time>2026-04-15T08:49:53Z</time></trkpt><trkpt lat="29.740016058919057" lon="-8.872373459192758"><ele>1279.0</ele><time>2026-04-15T08:49:54Z</time></trkpt><trkpt lat="29.74003318462088" lon="-8.872207564457174"><ele>1279.6666666666665</ele><time>2026-04-15T08:49:55Z</time></trkpt><trkpt lat="29.74006178754687" lon="-8.8720397921819"><ele>1280.3333333333333</ele><time>2026-04-15T08:49:56Z</time></trkpt><trkpt lat="29.740101712602367" lon="-8.871875107703268"><ele>1281.0</ele><time>2026-04-15T08:49:57Z</time></trkpt><trkpt lat="29.740158991531803" lon="-8.871711728682632"><ele>1287.3333333333333</ele><time>2026-04-15T08:49:58Z</time></trkpt><trkpt lat="29.740220863053047" lon="-8.871547719341672"><ele>1293.6666666666665</ele><time>2026-04-15T08:49:59Z</time></trkpt><trkpt lat="29.740282098514058" lon="-8.87138726306357"><ele>1300.0</ele><time>2026-04-15T08:50:00Z</time></trkpt><trkpt lat="29.740337093892524" lon="-8.87122479277814"><ele>1300.0</ele><time>2026-04-15T08:50:01Z</time></trkpt><trkpt lat="29.74039302137728" lon="-8.871064171639516"><ele>1300.0</ele><time>2026-04-15T08:50:02Z</time></trkpt><trkpt lat="29.740447253415784" lon="-8.870904303106942"><ele>1300.0</ele><time>2026-04-15T08:50:03Z</time></trkpt><trkpt lat="29.740501339278314" lon="-8.870745020106902"><ele>1300.0</ele><time>2026-04-15T08:50:04Z</time></trkpt><trkpt lat="29.7405565889045" lon="-8.870587122381508"><ele>1299.75</ele><time>2026-04-15T08:50:05Z</time></trkpt><trkpt lat="29.740613461719796" lon="-8.870429676786422"><ele>1299.5</ele><time>2026-04-15T08:50:06Z</time></trkpt><trkpt lat="29.740669270882023" lon="-8.87027306077278"><ele>1299.25</ele><time>2026-04-15T08:50:07Z</time></trkpt><trkpt lat="29.740726009877363" lon="-8.870117655166773"><ele>1299.0</ele><time>2026-04-15T08:50:08Z</time></trkpt><trkpt lat="29.74077818501522" lon="-8.869958229671182"><ele>1299.5</ele><time>2026-04-15T08:50:09Z</time></trkpt><trkpt lat="29.740829377457725" lon="-8.869798126229632"><ele>1300.0</ele><time>2026-04-15T08:50:10Z</time></trkpt><trkpt lat="29.740870985206055" lon="-8.869637905381275"><ele>1300.5</ele><time>2026-04-15T08:50:11Z</time></trkpt><trkpt lat="29.740906463713337" lon="-8.869479017715971"><ele>1301.0</ele><time>2026-04-15T08:50:12Z</time></trkpt><trkpt lat="29.740929219537442" lon="-8.86931941985102"><ele>1302.0</ele><time>2026-04-15T08:50:13Z</time></trkpt><trkpt lat="29.74094083229556" lon="-8.869163960472795"><ele>1303.0</ele><time>2026-04-15T08:50:14Z</time></trkpt><trkpt lat="29.740947093046216" lon="-8.869016852061753"><ele>1304.0</ele><time>2026-04-15T08:50:15Z</time></trkpt><trkpt lat="29.740947205943986" lon="-8.86886798351879"><ele>1305.0</ele><time>2026-04-15T08:50:16Z</time></trkpt><trkpt lat="29.740916807357795" lon="-8.868719331611826"><ele>1305.0</ele><time>2026-04-15T08:50:17Z</time></trkpt><trkpt lat="29.740913162144572" lon="-8.868562627939902"><ele>1305.0</ele><time>2026-04-15T08:50:18Z</time></trkpt><trkpt lat="29.74088348648682" lon="-8.868407672643011"><ele>1305.0</ele><time>2026-04-15T08:50:19Z</time></trkpt><trkpt lat="29.74085408783559" lon="-8.868251673322034"><ele>1305.0</ele><time>2026-04-15T08:50:20Z</time></trkpt><trkpt lat="29.740822217152974" lon="-8.868091762965186"><ele>1307.0</ele><time>2026-04-15T08:50:21Z</time></trkpt><trkpt lat="29.74079035687475" lon="-8.867928259722003"><ele>1309.0</ele><time>2026-04-15T08:50:22Z</time></trkpt><trkpt lat="29.740760836398554" lon="-8.867766313971334"><ele>1311.0</ele><time>2026-04-15T08:50:23Z</time></trkpt><trkpt lat="29.74073037514186" lon="-8.86761183001482"><ele>1313.0</ele><time>2026-04-15T08:50:24Z</time></trkpt><trkpt lat="29.74070024011114" lon="-8.867456544269247"><ele>1315.75</ele><time>2026-04-15T08:50:25Z</time></trkpt><trkpt lat="29.740672480177746" lon="-8.867301436137572"><ele>1318.5</ele><time>2026-04-15T08:50:26Z</time></trkpt><trkpt lat="29.74064135103021" lon="-8.86714685307145"><ele>1321.25</ele><time>2026-04-15T08:50:27Z</time></trkpt><trkpt lat="29.740609862993285" lon="-8.866992188363966"><ele>1324.0</ele><time>2026-04-15T08:50:28Z</time></trkpt><trkpt lat="29.740583057335716" lon="-8.86683756473186"><ele>1327.5</ele><time>2026-04-15T08:50:29Z</time></trkpt><trkpt lat="29.740553870702428" lon="-8.866684807040343"><ele>1331.0</ele><time>2026-04-15T08:50:30Z</time></trkpt><trkpt lat="29.740524824164336" lon="-8.866534515162495"><ele>1334.5</ele><time>2026-04-15T08:50:31Z</time></trkpt><trkpt lat="29.740492798989468" lon="-8.866386152769445"><ele>1338.0</ele><time>2026-04-15T08:50:32Z</time></trkpt><trkpt lat="29.74046592991323" lon="-8.866248014235973"><ele>1338.0</ele><time>2026-04-15T08:50:33Z</time></trkpt><trkpt lat="29.74044020397425" lon="-8.866112465602923"><ele>1338.0</ele><time>2026-04-15T08:50:34Z</time></trkpt><trkpt lat="29.740412943734402" lon="-8.865972207281708"><ele>1338.0</ele><time>2026-04-15T08:50:35Z</time></trkpt><trkpt lat="29.74038374759795" lon="-8.86582899718608"><ele>1338.0</ele><time>2026-04-15T08:50:36Z</time></trkpt><trkpt lat="29.740355815998655" lon="-8.86568553240104"><ele>1341.0</ele><time>2026-04-15T08:50:37Z</time></trkpt><trkpt lat="29.74033179527186" lon="-8.865543812560277"><ele>1344.0</ele><time>2026-04-15T08:50:38Z</time></trkpt><trkpt lat="29.740313257871485" lon="-8.86540026188248"><ele>1347.0</ele><time>2026-04-15T08:50:39Z</time></trkpt><trkpt lat="29.74030304303036" lon="-8.865258643426165"><ele>1350.0</ele><time>2026-04-15T08:50:40Z</time></trkpt><trkpt lat="29.740309300376286" lon="-8.8651143366739"><ele>1353.25</ele><time>2026-04-15T08:50:41Z</time></trkpt><trkpt lat="29.74033109552887" lon="-8.864968980107744"><ele>1356.5</ele><time>2026-04-15T08:50:42Z</time></trkpt><trkpt lat="29.740368517196657" lon="-8.864824562288035"><ele>1359.75</ele><time>2026-04-15T08:50:43Z</time></trkpt><trkpt lat="29.74041357673697" lon="-8.864681584630649"><ele>1363.0</ele><time>2026-04-15T08:50:44Z</time></trkpt><trkpt lat="29.74046685420554" lon="-8.864534740706596"><ele>1363.0</ele><time>2026-04-15T08:50:45Z</time></trkpt><trkpt lat="29.740529650112776" lon="-8.864391308027438"><ele>1363.0</ele><time>2026-04-15T08:50:46Z</time></trkpt><trkpt lat="29.74060351643537" lon="-8.864252090915583"><ele>1363.0</ele><time>2026-04-15T08:50:47Z</time></trkpt><trkpt lat="29.74067943579701" lon="-8.864126073504668"><ele>1363.0</ele><time>2026-04-15T08:50:48Z</time></trkpt><trkpt lat="29.740756149775514" lon="-8.864001607311966"><ele>1361.5</ele><time>2026-04-15T08:50:49Z</time></trkpt><trkpt lat="29.740832815761866" lon="-8.863877205332328"><ele>1360.0</ele><time>2026-04-15T08:50:50Z</time></trkpt><trkpt lat="29.740906168573076" lon="-8.863751877431262"><ele>1358.5</ele><time>2026-04-15T08:50:51Z</time></trkpt><trkpt lat="29.740973814590255" lon="-8.863623442074086"><ele>1357.0</ele><time>2026-04-15T08:50:52Z</time></trkpt><trkpt lat="29.741049939954166" lon="-8.863493724032928"><ele>1363.75</ele><time>2026-04-15T08:50:53Z</time></trkpt><trkpt lat="29.74111377658475" lon="-8.863366480453037"><ele>1370.5</ele><time>2026-04-15T08:50:54Z</time></trkpt><trkpt lat="29.74117458189781" lon="-8.863239428938243"><ele>1377.25</ele><time>2026-04-15T08:50:55Z</time></trkpt><trkpt lat="29.741227928820614" lon="-8.863121577081571"><ele>1384.0</ele><time>2026-04-15T08:50:56Z</time></trkpt><trkpt lat="29.741275245165777" lon="-8.862997272859547"><ele>1384.0</ele><time>2026-04-15T08:50:57Z</time></trkpt><trkpt lat="29.74131368956896" lon="-8.862862967121387"><ele>1384.0</ele><time>2026-04-15T08:50:58Z</time></trkpt><trkpt lat="29.74134796217671" lon="-8.86272183246316"><ele>1384.0</ele><time>2026-04-15T08:50:59Z</time></trkpt><trkpt lat="29.741371263315337" lon="-8.862573117389173"><ele>1384.0</ele><time>2026-04-15T08:51:00Z</time></trkpt><trkpt lat="29.741380812544122" lon="-8.862417795651783"><ele>1383.25</ele><time>2026-04-15T08:51:01Z</time></trkpt><trkpt lat="29.741381130143633" lon="-8.862257836145469"><ele>1382.5</ele><time>2026-04-15T08:51:02Z</time></trkpt><trkpt lat="29.741372198101505" lon="-8.862094320013215"><ele>1381.75</ele><time>2026-04-15T08:51:03Z</time></trkpt><trkpt lat="29.741357289766754" lon="-8.861933345922452"><ele>1381.0</ele><time>2026-04-15T08:51:04Z</time></trkpt><trkpt lat="29.7413395370607" lon="-8.861782047500055"><ele>1384.75</ele><time>2026-04-15T08:51:05Z</time></trkpt><trkpt lat="29.741321704673297" lon="-8.861632437226183"><ele>1388.5</ele><time>2026-04-15T08:51:06Z</time></trkpt><trkpt lat="29.741299513809516" lon="-8.861482902358341"><ele>1392.25</ele><time>2026-04-15T08:51:07Z</time></trkpt><trkpt lat="29.741269599552876" lon="-8.861333841622905"><ele>1396.0</ele><time>2026-04-15T08:51:08Z</time></trkpt><trkpt lat="29.74122825295306" lon="-8.861191333571881"><ele>1396.0</ele><time>2026-04-15T08:51:09Z</time></trkpt><trkpt lat="29.741177427495224" lon="-8.861053875467077"><ele>1396.0</ele><time>2026-04-15T08:51:10Z</time></trkpt><trkpt lat="29.741120103639727" lon="-8.860926597053894"><ele>1396.0</ele><time>2026-04-15T08:51:11Z</time></trkpt><trkpt lat="29.741066773143096" lon="-8.860804897291384"><ele>1396.0</ele><time>2026-04-15T08:51:12Z</time></trkpt><trkpt lat="29.741025080429505" lon="-8.86067342390196"><ele>1393.75</ele><time>2026-04-15T08:51:13Z</time></trkpt><trkpt lat="29.740994646370954" lon="-8.860530269880718"><ele>1391.5</ele><time>2026-04-15T08:51:14Z</time></trkpt><trkpt lat="29.74097388673602" lon="-8.86038011021877"><ele>1389.25</ele><time>2026-04-15T08:51:15Z</time></trkpt><trkpt lat="29.740958724203235" lon="-8.860230128561613"><ele>1387.0</ele><time>2026-04-15T08:51:16Z</time></trkpt><trkpt lat="29.74095304767558" lon="-8.860082659835694"><ele>1387.0</ele><time>2026-04-15T08:51:17Z</time></trkpt><trkpt lat="29.740953069596316" lon="-8.85995382282565"><ele>1387.0</ele><time>2026-04-15T08:51:18Z</time></trkpt><trkpt lat="29.740939618264704" lon="-8.85982670137751"><ele>1387.0</ele><time>2026-04-15T08:51:19Z</time></trkpt><trkpt lat="29.740906576381573" lon="-8.859700211387363"><ele>1387.0</ele><time>2026-04-15T08:51:20Z</time></trkpt><trkpt lat="29.74085530946405" lon="-8.859581614949354"><ele>1387.0</ele><time>2026-04-15T08:51:21Z</time></trkpt><trkpt lat="29.740768518247027" lon="-8.859487277436767"><ele>1387.0</ele><time>2026-04-15T08:51:22Z</time></trkpt><trkpt lat="29.740673851009163" lon="-8.859401661841314"><ele>1387.0</ele><time>2026-04-15T08:51:23Z</time></trkpt><trkpt lat="29.740565945531138" lon="-8.85933419750038"><ele>1387.0</ele><time>2026-04-15T08:51:24Z</time></trkpt><trkpt lat="29.74045030345854" lon="-8.859267922602069"><ele>1389.25</ele><time>2026-04-15T08:51:25Z</time></trkpt><trkpt lat="29.740333414508186" lon="-8.859200591206715"><ele>1391.5</ele><time>2026-04-15T08:51:26Z</time></trkpt><trkpt lat="29.74021483116881" lon="-8.859124033804294"><ele>1393.75</ele><time>2026-04-15T08:51:27Z</time></trkpt><trkpt lat="29.74008989612544" lon="-8.859061562656875"><ele>1396.0</ele><time>2026-04-15T08:51:28Z</time></trkpt><trkpt lat="29.739962818506946" lon="-8.858995474397355"><ele>1396.0</ele><time>2026-04-15T08:51:29Z</time></trkpt><trkpt lat="29.739843563678726" lon="-8.858902914236312"><ele>1396.0</ele><time>2026-04-15T08:51:30Z</time></trkpt><trkpt lat="29.739740329477925" lon="-8.858808212658433"><ele>1396.0</ele><time>2026-04-15T08:51:31Z</time></trkpt><trkpt lat="29.73965896332919" lon="-8.858721951035951"><ele>1396.0</ele><time>2026-04-15T08:51:32Z</time></trkpt><trkpt lat="29.739586636047317" lon="-8.858650471869254"><ele>1396.0</ele><time>2026-04-15T08:51:33Z</time></trkpt><trkpt lat="29.739508587104794" lon="-8.858598565321232"><ele>1396.0</ele><time>2026-04-15T08:51:34Z</time></trkpt><trkpt lat="29.739424879466842" lon="-8.8585785305627"><ele>1396.0</ele><time>2026-04-15T08:51:35Z</time></trkpt><trkpt lat="29.739337976685853" lon="-8.858588909246373"><ele>1396.0</ele><time>2026-04-15T08:51:36Z</time></trkpt><trkpt lat="29.73926693358519" lon="-8.858649697895297"><ele>1396.0</ele><time>2026-04-15T08:51:37Z</time></trkpt><trkpt lat="29.739196009311975" lon="-8.858715211801814"><ele>1396.0</ele><time>2026-04-15T08:51:38Z</time></trkpt><trkpt lat="29.739164271599687" lon="-8.858813456012104"><ele>1397.1999999999998</ele><time>2026-04-15T08:51:39Z</time></trkpt><trkpt lat="29.73912377039454" lon="-8.858915279576621"><ele>1398.3999999999999</ele><time>2026-04-15T08:51:40Z</time></trkpt><trkpt lat="29.739083301894635" lon="-8.859025250985027"><ele>1399.6</ele><time>2026-04-15T08:51:41Z</time></trkpt><trkpt lat="29.73903619751537" lon="-8.859132289786324"><ele>1400.8</ele><time>2026-04-15T08:51:42Z</time></trkpt><trkpt lat="29.738990005206894" lon="-8.859230878158563"><ele>1402.0</ele><time>2026-04-15T08:51:43Z</time></trkpt><trkpt lat="29.73894675402981" lon="-8.859326031208052"><ele>1402.0</ele><time>2026-04-15T08:51:44Z</time></trkpt><trkpt lat="29.738847750913454" lon="-8.859407625335939"><ele>1402.0</ele><time>2026-04-15T08:51:45Z</time></trkpt><trkpt lat="29.73871341126169" lon="-8.859440442350687"><ele>1402.0</ele><time>2026-04-15T08:51:46Z</time></trkpt><trkpt lat="29.73860008493551" lon="-8.859508154947907"><ele>1402.0</ele><time>2026-04-15T08:51:47Z</time></trkpt><trkpt lat="29.738491335180743" lon="-8.859566266323014"><ele>1405.0</ele><time>2026-04-15T08:51:48Z</time></trkpt><trkpt lat="29.73838869801308" lon="-8.859627372119936"><ele>1408.0</ele><time>2026-04-15T08:51:49Z</time></trkpt><trkpt lat="29.73829973658006" lon="-8.859686376960227"><ele>1411.0</ele><time>2026-04-15T08:51:50Z</time></trkpt><trkpt lat="29.738238881212613" lon="-8.859749639604557"><ele>1414.0</ele><time>2026-04-15T08:51:51Z</time></trkpt><trkpt lat="29.738182306451364" lon="-8.859831043626162"><ele>1417.0</ele><time>2026-04-15T08:51:52Z</time></trkpt><trkpt lat="29.73813955170675" lon="-8.85992528161155"><ele>1417.0</ele><time>2026-04-15T08:51:53Z</time></trkpt><trkpt lat="29.738131081027923" lon="-8.860037032941927"><ele>1417.0</ele><time>2026-04-15T08:51:54Z</time></trkpt><trkpt lat="29.73817379311766" lon="-8.86014671777547"><ele>1417.0</ele><time>2026-04-15T08:51:55Z</time></trkpt><trkpt lat="29.738194930757608" lon="-8.860258955641209"><ele>1417.0</ele><time>2026-04-15T08:51:56Z</time></trkpt><trkpt lat="29.738267167054538" lon="-8.860346543575"><ele>1417.0</ele><time>2026-04-15T08:51:57Z</time></trkpt><trkpt lat="29.73837139922135" lon="-8.860394655890488"><ele>1418.0</ele><time>2026-04-15T08:51:58Z</time></trkpt><trkpt lat="29.738483881182113" lon="-8.860420669949107"><ele>1419.0</ele><time>2026-04-15T08:51:59Z</time></trkpt><trkpt lat="29.738592296048683" lon="-8.860459131222933"><ele>1420.0</ele><time>2026-04-15T08:52:00Z</time></trkpt><trkpt lat="29.738679310707465" lon="-8.860489764021294"><ele>1421.0</ele><time>2026-04-15T08:52:01Z</time></trkpt><trkpt lat="29.738753242915095" lon="-8.860512670745695"><ele>1422.0</ele><time>2026-04-15T08:52:02Z</time></trkpt><trkpt lat="29.738822163181787" lon="-8.860549501014258"><ele>1422.0</ele><time>2026-04-15T08:52:03Z</time></trkpt><trkpt lat="29.73890397933503" lon="-8.860576768502561"><ele>1422.0</ele><time>2026-04-15T08:52:04Z</time></trkpt><trkpt lat="29.738981291502803" lon="-8.860624997898771"><ele>1422.0</ele><time>2026-04-15T08:52:05Z</time></trkpt><trkpt lat="29.73906528521012" lon="-8.86066280436974"><ele>1422.0</ele><time>2026-04-15T08:52:06Z</time></trkpt><trkpt lat="29.73911973359659" lon="-8.86073343043316"><ele>1422.0</ele><time>2026-04-15T08:52:07Z</time></trkpt><trkpt lat="29.739133841161426" lon="-8.860834888954562"><ele>1422.0</ele><time>2026-04-15T08:52:08Z</time></trkpt><trkpt lat="29.739130717178405" lon="-8.860923439154986"><ele>1418.0</ele><time>2026-04-15T08:52:09Z</time></trkpt><trkpt lat="29.739115354797647" lon="-8.861002184715488"><ele>1414.0</ele><time>2026-04-15T08:52:10Z</time></trkpt><trkpt lat="29.739048987116355" lon="-8.861066890629326"><ele>1410.0</ele><time>2026-04-15T08:52:11Z</time></trkpt><trkpt lat="29.738988273377778" lon="-8.86112447790548"><ele>1406.0</ele><time>2026-04-15T08:52:12Z</time></trkpt><trkpt lat="29.738882138143776" lon="-8.8611173265866"><ele>1402.0</ele><time>2026-04-15T08:52:13Z</time></trkpt><trkpt lat="29.738788865361997" lon="-8.861110572280605"><ele>1398.0</ele><time>2026-04-15T08:52:14Z</time></trkpt><trkpt lat="29.738700618294754" lon="-8.86109638921043"><ele>1398.0</ele><time>2026-04-15T08:52:15Z</time></trkpt><trkpt lat="29.738613002897097" lon="-8.86107888777666"><ele>1398.0</ele><time>2026-04-15T08:52:16Z</time></trkpt><trkpt lat="29.738518183247493" lon="-8.861066418518416"><ele>1398.0</ele><time>2026-04-15T08:52:17Z</time></trkpt><trkpt lat="29.73842003139268" lon="-8.86106765528882"><ele>1398.0</ele><time>2026-04-15T08:52:18Z</time></trkpt><trkpt lat="29.73831083214801" lon="-8.861083432494382"><ele>1398.0</ele><time>2026-04-15T08:52:19Z</time></trkpt><trkpt lat="29.73819883685776" lon="-8.861105780306916"><ele>1400.8000000000002</ele><time>2026-04-15T08:52:20Z</time></trkpt><trkpt lat="29.73808409568975" lon="-8.861125363335272"><ele>1403.6</ele><time>2026-04-15T08:52:21Z</time></trkpt><trkpt lat="29.737970733092055" lon="-8.861147565288617"><ele>1406.4</ele><time>2026-04-15T08:52:22Z</time></trkpt><trkpt lat="29.737865900114762" lon="-8.861166791103864"><ele>1409.1999999999998</ele><time>2026-04-15T08:52:23Z</time></trkpt><trkpt lat="29.737761581851057" lon="-8.86119123210983"><ele>1412.0</ele><time>2026-04-15T08:52:24Z</time></trkpt><trkpt lat="29.73764934087013" lon="-8.861190775244022"><ele>1419.0</ele><time>2026-04-15T08:52:25Z</time></trkpt><trkpt lat="29.73753317428787" lon="-8.861180552511899"><ele>1426.0</ele><time>2026-04-15T08:52:26Z</time></trkpt><trkpt lat="29.737411154142045" lon="-8.86116101239214"><ele>1433.0</ele><time>2026-04-15T08:52:27Z</time></trkpt><trkpt lat="29.737289664327502" lon="-8.861133961969461"><ele>1440.0</ele><time>2026-04-15T08:52:28Z</time></trkpt><trkpt lat="29.737169332906927" lon="-8.861103547400427"><ele>1440.0</ele><time>2026-04-15T08:52:29Z</time></trkpt><trkpt lat="29.73705498882891" lon="-8.861076633484224"><ele>1440.0</ele><time>2026-04-15T08:52:30Z</time></trkpt><trkpt lat="29.73694762004207" lon="-8.861052799502605"><ele>1440.0</ele><time>2026-04-15T08:52:31Z</time></trkpt><trkpt lat="29.736842695969404" lon="-8.861025680760442"><ele>1440.0</ele><time>2026-04-15T08:52:32Z</time></trkpt><trkpt lat="29.73674423844847" lon="-8.861003304910906"><ele>1440.0</ele><time>2026-04-15T08:52:33Z</time></trkpt><trkpt lat="29.736657491996862" lon="-8.860979060418536"><ele>1441.2</ele><time>2026-04-15T08:52:34Z</time></trkpt><trkpt lat="29.736575277335255" lon="-8.860940933280489"><ele>1442.4</ele><time>2026-04-15T08:52:35Z</time></trkpt><trkpt lat="29.73649714351608" lon="-8.860883125216077"><ele>1443.6</ele><time>2026-04-15T08:52:36Z</time></trkpt><trkpt lat="29.736426385342487" lon="-8.86081163150107"><ele>1444.8</ele><time>2026-04-15T08:52:37Z</time></trkpt><trkpt lat="29.736379871494012" lon="-8.860718336891898"><ele>1446.0</ele><time>2026-04-15T08:52:38Z</time></trkpt><trkpt lat="29.73634687431519" lon="-8.860617507881667"><ele>1446.0</ele><time>2026-04-15T08:52:39Z</time></trkpt><trkpt lat="29.73633386649068" lon="-8.860506615184498"><ele>1446.0</ele><time>2026-04-15T08:52:40Z</time></trkpt><trkpt lat="29.736340412237954" lon="-8.860393012246751"><ele>1446.0</ele><time>2026-04-15T08:52:41Z</time></trkpt><trkpt lat="29.736358805934035" lon="-8.860278783400945"><ele>1446.0</ele><time>2026-04-15T08:52:42Z</time></trkpt><trkpt lat="29.736387552827242" lon="-8.86015964359851"><ele>1446.0</ele><time>2026-04-15T08:52:43Z</time></trkpt><trkpt lat="29.73641968566524" lon="-8.86003855779449"><ele>1446.6</ele><time>2026-04-15T08:52:44Z</time></trkpt><trkpt lat="29.736455939171105" lon="-8.859925376754113"><ele>1447.1999999999998</ele><time>2026-04-15T08:52:45Z</time></trkpt><trkpt lat="29.736493290058327" lon="-8.859810644201179"><ele>1447.8000000000002</ele><time>2026-04-15T08:52:46Z</time></trkpt><trkpt lat="29.736517766834027" lon="-8.859685964929106"><ele>1448.4</ele><time>2026-04-15T08:52:47Z</time></trkpt><trkpt lat="29.736527654543522" lon="-8.859555244515242"><ele>1449.0</ele><time>2026-04-15T08:52:48Z</time></trkpt><trkpt lat="29.736565788932715" lon="-8.859429355935431"><ele>1449.0</ele><time>2026-04-15T08:52:49Z</time></trkpt><trkpt lat="29.736574372815305" lon="-8.8592930560013"><ele>1449.0</ele><time>2026-04-15T08:52:50Z</time></trkpt><trkpt lat="29.736569112260316" lon="-8.859152041544187"><ele>1449.0</ele><time>2026-04-15T08:52:51Z</time></trkpt><trkpt lat="29.736556360645025" lon="-8.859008602594505"><ele>1449.0</ele><time>2026-04-15T08:52:52Z</time></trkpt><trkpt lat="29.736538921806318" lon="-8.858861152665849"><ele>1451.25</ele><time>2026-04-15T08:52:53Z</time></trkpt><trkpt lat="29.73651163294127" lon="-8.858713276819106"><ele>1453.5</ele><time>2026-04-15T08:52:54Z</time></trkpt><trkpt lat="29.73649548856308" lon="-8.85857096238273"><ele>1455.75</ele><time>2026-04-15T08:52:55Z</time></trkpt><trkpt lat="29.736479245690084" lon="-8.858434574317169"><ele>1458.0</ele><time>2026-04-15T08:52:56Z</time></trkpt><trkpt lat="29.73646649084928" lon="-8.858297104062656"><ele>1460.75</ele><time>2026-04-15T08:52:57Z</time></trkpt><trkpt lat="29.73645758670957" lon="-8.858157395505478"><ele>1463.5</ele><time>2026-04-15T08:52:58Z</time></trkpt><trkpt lat="29.736448012601322" lon="-8.85801774684319"><ele>1466.25</ele><time>2026-04-15T08:52:59Z</time></trkpt><trkpt lat="29.736436818980145" lon="-8.857877471721876"><ele>1469.0</ele><time>2026-04-15T08:53:00Z</time></trkpt><trkpt lat="29.736430941332703" lon="-8.85773654574793"><ele>1468.75</ele><time>2026-04-15T08:53:01Z</time></trkpt><trkpt lat="29.736427238866224" lon="-8.857598038638328"><ele>1468.5</ele><time>2026-04-15T08:53:02Z</time></trkpt><trkpt lat="29.736426442176352" lon="-8.857468929463307"><ele>1468.25</ele><time>2026-04-15T08:53:03Z</time></trkpt><trkpt lat="29.736428241058388" lon="-8.857338256453142"><ele>1468.0</ele><time>2026-04-15T08:53:04Z</time></trkpt><trkpt lat="29.73643384527148" lon="-8.85720269025441"><ele>1468.0</ele><time>2026-04-15T08:53:05Z</time></trkpt><trkpt lat="29.736443708544158" lon="-8.857062169625626"><ele>1468.0</ele><time>2026-04-15T08:53:06Z</time></trkpt><trkpt lat="29.73645173762545" lon="-8.856918511275076"><ele>1468.0</ele><time>2026-04-15T08:53:07Z</time></trkpt><trkpt lat="29.73645705936508" lon="-8.856777035376842"><ele>1468.0</ele><time>2026-04-15T08:53:08Z</time></trkpt><trkpt lat="29.736458236477223" lon="-8.856644682113156"><ele>1469.25</ele><time>2026-04-15T08:53:09Z</time></trkpt><trkpt lat="29.736458490164583" lon="-8.856514803957069"><ele>1470.5</ele><time>2026-04-15T08:53:10Z</time></trkpt><trkpt lat="29.736455061623975" lon="-8.85638311332168"><ele>1471.75</ele><time>2026-04-15T08:53:11Z</time></trkpt><trkpt lat="29.736450635008744" lon="-8.85625079454924"><ele>1473.0</ele><time>2026-04-15T08:53:12Z</time></trkpt><trkpt lat="29.736443559839646" lon="-8.856119379525227"><ele>1473.0</ele><time>2026-04-15T08:53:13Z</time></trkpt><trkpt lat="29.736435115314688" lon="-8.855985489402043"><ele>1473.0</ele><time>2026-04-15T08:53:14Z</time></trkpt><trkpt lat="29.736422710764447" lon="-8.855853417723011"><ele>1473.0</ele><time>2026-04-15T08:53:15Z</time></trkpt><trkpt lat="29.736402923257497" lon="-8.855732343682332"><ele>1473.0</ele><time>2026-04-15T08:53:16Z</time></trkpt><trkpt lat="29.73638167956782" lon="-8.855607011801236"><ele>1475.25</ele><time>2026-04-15T08:53:17Z</time></trkpt><trkpt lat="29.736358362684612" lon="-8.855475770585182"><ele>1477.5</ele><time>2026-04-15T08:53:18Z</time></trkpt><trkpt lat="29.736333428229308" lon="-8.855341585023638"><ele>1479.75</ele><time>2026-04-15T08:53:19Z</time></trkpt><trkpt lat="29.736306937787635" lon="-8.855204836267518"><ele>1482.0</ele><time>2026-04-15T08:53:20Z</time></trkpt><trkpt lat="29.736277149383604" lon="-8.855064882470884"><ele>1483.3999999999999</ele><time>2026-04-15T08:53:21Z</time></trkpt><trkpt lat="29.73624564041838" lon="-8.854938337268523"><ele>1484.8</ele><time>2026-04-15T08:53:22Z</time></trkpt><trkpt lat="29.736218734410148" lon="-8.854832950321375"><ele>1486.2</ele><time>2026-04-15T08:53:23Z</time></trkpt><trkpt lat="29.736190419933337" lon="-8.854733219413541"><ele>1487.6</ele><time>2026-04-15T08:53:24Z</time></trkpt><trkpt lat="29.736162270490308" lon="-8.854618265924382"><ele>1489.0</ele><time>2026-04-15T08:53:25Z</time></trkpt><trkpt lat="29.736134942998945" lon="-8.85448996888562"><ele>1489.0</ele><time>2026-04-15T08:53:26Z</time></trkpt><trkpt lat="29.73610185164792" lon="-8.854352783546013"><ele>1489.0</ele><time>2026-04-15T08:53:27Z</time></trkpt><trkpt lat="29.73606858010922" lon="-8.854220489363714"><ele>1489.0</ele><time>2026-04-15T08:53:28Z</time></trkpt><trkpt lat="29.736033836086254" lon="-8.854085569566115"><ele>1489.0</ele><time>2026-04-15T08:53:29Z</time></trkpt><trkpt lat="29.735998964853586" lon="-8.853946196511284"><ele>1494.5</ele><time>2026-04-15T08:53:30Z</time></trkpt><trkpt lat="29.735969529519796" lon="-8.853800784455384"><ele>1500.0</ele><time>2026-04-15T08:53:31Z</time></trkpt><trkpt lat="29.735940797495566" lon="-8.85365396013858"><ele>1505.5</ele><time>2026-04-15T08:53:32Z</time></trkpt><trkpt lat="29.73590979622075" lon="-8.853509737811109"><ele>1511.0</ele><time>2026-04-15T08:53:33Z</time></trkpt><trkpt lat="29.735875901922793" lon="-8.853368536884416"><ele>1511.0</ele><time>2026-04-15T08:53:34Z</time></trkpt><trkpt lat="29.735841030850846" lon="-8.853222653096353"><ele>1511.0</ele><time>2026-04-15T08:53:35Z</time></trkpt><trkpt lat="29.735808426995927" lon="-8.853081036397644"><ele>1511.0</ele><time>2026-04-15T08:53:36Z</time></trkpt><trkpt lat="29.7357728176046" lon="-8.852937227035303"><ele>1511.0</ele><time>2026-04-15T08:53:37Z</time></trkpt><trkpt lat="29.73574088475905" lon="-8.852789829304983"><ele>1511.0</ele><time>2026-04-15T08:53:38Z</time></trkpt><trkpt lat="29.735710317823468" lon="-8.85263967786966"><ele>1511.0</ele><time>2026-04-15T08:53:39Z</time></trkpt><trkpt lat="29.73567528470274" lon="-8.852486972717102"><ele>1511.0</ele><time>2026-04-15T08:53:40Z</time></trkpt><trkpt lat="29.735638000978497" lon="-8.852333471108505"><ele>1511.0</ele><time>2026-04-15T08:53:41Z</time></trkpt><trkpt lat="29.735601267822048" lon="-8.85217869804244"><ele>1511.5</ele><time>2026-04-15T08:53:42Z</time></trkpt><trkpt lat="29.73556309846068" lon="-8.852023867755266"><ele>1512.0</ele><time>2026-04-15T08:53:43Z</time></trkpt><trkpt lat="29.73552702346319" lon="-8.851868493433638"><ele>1512.5</ele><time>2026-04-15T08:53:44Z</time></trkpt><trkpt lat="29.73549085131502" lon="-8.851709141630195"><ele>1513.0</ele><time>2026-04-15T08:53:45Z</time></trkpt><trkpt lat="29.73545439004601" lon="-8.851549728233836"><ele>1516.5</ele><time>2026-04-15T08:53:46Z</time></trkpt><trkpt lat="29.73541822216667" lon="-8.851389267338552"><ele>1520.0</ele><time>2026-04-15T08:53:47Z</time></trkpt><trkpt lat="29.735384901669104" lon="-8.851232126629188"><ele>1523.5</ele><time>2026-04-15T08:53:48Z</time></trkpt><trkpt lat="29.73534851006187" lon="-8.851074046598333"><ele>1527.0</ele><time>2026-04-15T08:53:49Z</time></trkpt><trkpt lat="29.735311694609514" lon="-8.850914454523602"><ele>1528.25</ele><time>2026-04-15T08:53:50Z</time></trkpt><trkpt lat="29.735272065149726" lon="-8.8507554405113"><ele>1529.5</ele><time>2026-04-15T08:53:51Z</time></trkpt><trkpt lat="29.735237859524233" lon="-8.850597486155921"><ele>1530.75</ele><time>2026-04-15T08:53:52Z</time></trkpt><trkpt lat="29.735199577423963" lon="-8.850444062910828"><ele>1532.0</ele><time>2026-04-15T08:53:53Z</time></trkpt><trkpt lat="29.735166686954948" lon="-8.850298179369299"><ele>1530.5</ele><time>2026-04-15T08:53:54Z</time></trkpt><trkpt lat="29.735132636969237" lon="-8.850155927441625"><ele>1529.0</ele><time>2026-04-15T08:53:55Z</time></trkpt><trkpt lat="29.735097820971042" lon="-8.850023206802826"><ele>1527.5</ele><time>2026-04-15T08:53:56Z</time></trkpt><trkpt lat="29.735064554901648" lon="-8.849892339491387"><ele>1526.0</ele><time>2026-04-15T08:53:57Z</time></trkpt><trkpt lat="29.735035683659053" lon="-8.849757269278266"><ele>1526.0</ele><time>2026-04-15T08:53:58Z</time></trkpt><trkpt lat="29.735012435955085" lon="-8.849624461324595"><ele>1526.0</ele><time>2026-04-15T08:53:59Z</time></trkpt><trkpt lat="29.734998189820676" lon="-8.849489704536351"><ele>1526.0</ele><time>2026-04-15T08:54:00Z</time></trkpt><trkpt lat="29.73499328708016" lon="-8.849352071499013"><ele>1526.0</ele><time>2026-04-15T08:54:01Z</time></trkpt><trkpt lat="29.73499757364262" lon="-8.849211573608095"><ele>1526.0</ele><time>2026-04-15T08:54:02Z</time></trkpt><trkpt lat="29.735001711212284" lon="-8.849068390793985"><ele>1526.0</ele><time>2026-04-15T08:54:03Z</time></trkpt><trkpt lat="29.73501074957859" lon="-8.848929786602179"><ele>1526.0</ele><time>2026-04-15T08:54:04Z</time></trkpt><trkpt lat="29.73500396499907" lon="-8.848789450906965"><ele>1526.0</ele><time>2026-04-15T08:54:05Z</time></trkpt><trkpt lat="29.73501068932068" lon="-8.848649515482224"><ele>1526.0</ele><time>2026-04-15T08:54:06Z</time></trkpt><trkpt lat="29.735017200618284" lon="-8.848513225291665"><ele>1526.0</ele><time>2026-04-15T08:54:07Z</time></trkpt><trkpt lat="29.735006998293343" lon="-8.848376550879006"><ele>1526.0</ele><time>2026-04-15T08:54:08Z</time></trkpt><trkpt lat="29.734994322394897" lon="-8.84823854696137"><ele>1526.0</ele><time>2026-04-15T08:54:09Z</time></trkpt><trkpt lat="29.73495766672973" lon="-8.848106401990966"><ele>1527.25</ele><time>2026-04-15T08:54:10Z</time></trkpt><trkpt lat="29.734920354639385" lon="-8.847964710591773"><ele>1528.5</ele><time>2026-04-15T08:54:11Z</time></trkpt><trkpt lat="29.734881999519146" lon="-8.847821875306412"><ele>1529.75</ele><time>2026-04-15T08:54:12Z</time></trkpt><trkpt lat="29.73483093311343" lon="-8.847693795695214"><ele>1531.0</ele><time>2026-04-15T08:54:13Z</time></trkpt><trkpt lat="29.734771018362505" lon="-8.847565565663194"><ele>1533.75</ele><time>2026-04-15T08:54:14Z</time></trkpt><trkpt lat="29.734700324722635" lon="-8.847436105547665"><ele>1536.5</ele><time>2026-04-15T08:54:15Z</time></trkpt><trkpt lat="29.734630797930606" lon="-8.847313660422795"><ele>1539.25</ele><time>2026-04-15T08:54:16Z</time></trkpt><trkpt lat="29.734559417364256" lon="-8.847203424569075"><ele>1542.0</ele><time>2026-04-15T08:54:17Z</time></trkpt><trkpt lat="29.7345046426678" lon="-8.847088395900427"><ele>1542.0</ele><time>2026-04-15T08:54:18Z</time></trkpt><trkpt lat="29.734437487736454" lon="-8.846990314541289"><ele>1542.0</ele><time>2026-04-15T08:54:19Z</time></trkpt><trkpt lat="29.734379911972418" lon="-8.846874175536845"><ele>1542.0</ele><time>2026-04-15T08:54:20Z</time></trkpt><trkpt lat="29.73432587518407" lon="-8.846746270026792"><ele>1542.0</ele><time>2026-04-15T08:54:21Z</time></trkpt><trkpt lat="29.73428019584927" lon="-8.846613192210828"><ele>1539.0</ele><time>2026-04-15T08:54:22Z</time></trkpt><trkpt lat="29.734242857386096" lon="-8.846469887835843"><ele>1536.0</ele><time>2026-04-15T08:54:23Z</time></trkpt><trkpt lat="29.734210522119984" lon="-8.846321897066874"><ele>1533.0</ele><time>2026-04-15T08:54:24Z</time></trkpt><trkpt lat="29.73416120019355" lon="-8.84618314903892"><ele>1530.0</ele><time>2026-04-15T08:54:25Z</time></trkpt><trkpt lat="29.73413233289971" lon="-8.84604190254596"><ele>1534.25</ele><time>2026-04-15T08:54:26Z</time></trkpt><trkpt lat="29.734105346497333" lon="-8.84590985919768"><ele>1538.5</ele><time>2026-04-15T08:54:27Z</time></trkpt><trkpt lat="29.734077506065393" lon="-8.845775244317615"><ele>1542.75</ele><time>2026-04-15T08:54:28Z</time></trkpt><trkpt lat="29.73404531796314" lon="-8.845646278716966"><ele>1547.0</ele><time>2026-04-15T08:54:29Z</time></trkpt><trkpt lat="29.734015384062516" lon="-8.845523085423968"><ele>1547.0</ele><time>2026-04-15T08:54:30Z</time></trkpt><trkpt lat="29.733985996885906" lon="-8.84540573780969"><ele>1547.0</ele><time>2026-04-15T08:54:31Z</time></trkpt><trkpt lat="29.733956120808656" lon="-8.845295343549813"><ele>1547.0</ele><time>2026-04-15T08:54:32Z</time></trkpt><trkpt lat="29.733910201954597" lon="-8.845208990426329"><ele>1547.0</ele><time>2026-04-15T08:54:33Z</time></trkpt><trkpt lat="29.733852655584517" lon="-8.845135024795303"><ele>1547.0</ele><time>2026-04-15T08:54:34Z</time></trkpt><trkpt lat="29.73377372432684" lon="-8.845089279266093"><ele>1546.1999999999998</ele><time>2026-04-15T08:54:35Z</time></trkpt><trkpt lat="29.733687173935035" lon="-8.845056261403622"><ele>1545.4</ele><time>2026-04-15T08:54:36Z</time></trkpt><trkpt lat="29.73359009645773" lon="-8.84502952982634"><ele>1544.6</ele><time>2026-04-15T08:54:37Z</time></trkpt><trkpt lat="29.733484321367666" lon="-8.845028180559918"><ele>1543.8000000000002</ele><time>2026-04-15T08:54:38Z</time></trkpt><trkpt lat="29.733375917072653" lon="-8.845031619310795"><ele>1543.0</ele><time>2026-04-15T08:54:39Z</time></trkpt><trkpt lat="29.733269734870092" lon="-8.845032706212812"><ele>1543.0</ele><time>2026-04-15T08:54:40Z</time></trkpt><trkpt lat="29.73316793056184" lon="-8.8450154036272"><ele>1543.0</ele><time>2026-04-15T08:54:41Z</time></trkpt><trkpt lat="29.73306673321621" lon="-8.845021333248239"><ele>1543.0</ele><time>2026-04-15T08:54:42Z</time></trkpt><trkpt lat="29.73296148037961" lon="-8.845005972281497"><ele>1543.0</ele><time>2026-04-15T08:54:43Z</time></trkpt><trkpt lat="29.73284557175019" lon="-8.844981233266154"><ele>1543.0</ele><time>2026-04-15T08:54:44Z</time></trkpt><trkpt lat="29.73273070254793" lon="-8.844958174983837"><ele>1541.75</ele><time>2026-04-15T08:54:45Z</time></trkpt><trkpt lat="29.732625664903676" lon="-8.844888809639183"><ele>1540.5</ele><time>2026-04-15T08:54:46Z</time></trkpt><trkpt lat="29.732506312452895" lon="-8.84485346811664"><ele>1539.25</ele><time>2026-04-15T08:54:47Z</time></trkpt><trkpt lat="29.73239978259038" lon="-8.844784669031048"><ele>1538.0</ele><time>2026-04-15T08:54:48Z</time></trkpt><trkpt lat="29.73230559597742" lon="-8.844725128496462"><ele>1538.0</ele><time>2026-04-15T08:54:49Z</time></trkpt><trkpt lat="29.732220196985008" lon="-8.844682731774059"><ele>1538.0</ele><time>2026-04-15T08:54:50Z</time></trkpt><trkpt lat="29.732134849047654" lon="-8.844639110491489"><ele>1538.0</ele><time>2026-04-15T08:54:51Z</time></trkpt><trkpt lat="29.73204194058077" lon="-8.84458616544873"><ele>1538.0</ele><time>2026-04-15T08:54:52Z</time></trkpt><trkpt lat="29.731942214822897" lon="-8.844537688994604"><ele>1538.0</ele><time>2026-04-15T08:54:53Z</time></trkpt><trkpt lat="29.731843129365433" lon="-8.844479393972264"><ele>1535.75</ele><time>2026-04-15T08:54:54Z</time></trkpt><trkpt lat="29.7317370519758" lon="-8.844422288248085"><ele>1533.5</ele><time>2026-04-15T08:54:55Z</time></trkpt><trkpt lat="29.731628579303127" lon="-8.844369521778969"><ele>1531.25</ele><time>2026-04-15T08:54:56Z</time></trkpt><trkpt lat="29.731518094688642" lon="-8.844308340854282"><ele>1529.0</ele><time>2026-04-15T08:54:57Z</time></trkpt><trkpt lat="29.731404174817165" lon="-8.844237030153735"><ele>1533.25</ele><time>2026-04-15T08:54:58Z</time></trkpt><trkpt lat="29.73129038619335" lon="-8.844166397467587"><ele>1537.5</ele><time>2026-04-15T08:54:59Z</time></trkpt><trkpt lat="29.73116956993817" lon="-8.844098867741794"><ele>1541.75</ele><time>2026-04-15T08:55:00Z</time></trkpt><trkpt lat="29.73105207260139" lon="-8.844034734766408"><ele>1546.0</ele><time>2026-04-15T08:55:01Z</time></trkpt><trkpt lat="29.730934107711278" lon="-8.843969475665014"><ele>1546.0</ele><time>2026-04-15T08:55:02Z</time></trkpt><trkpt lat="29.73081689053132" lon="-8.843901425255886"><ele>1546.0</ele><time>2026-04-15T08:55:03Z</time></trkpt><trkpt lat="29.73069904936517" lon="-8.843829814037187"><ele>1546.0</ele><time>2026-04-15T08:55:04Z</time></trkpt><trkpt lat="29.730576530648662" lon="-8.843761703556149"><ele>1546.0</ele><time>2026-04-15T08:55:05Z</time></trkpt><trkpt lat="29.730450743185315" lon="-8.843690701922108"><ele>1546.0</ele><time>2026-04-15T08:55:06Z</time></trkpt><trkpt lat="29.730313471225024" lon="-8.843647031708134"><ele>1546.0</ele><time>2026-04-15T08:55:07Z</time></trkpt><trkpt lat="29.73017846087999" lon="-8.843595821440895"><ele>1546.0</ele><time>2026-04-15T08:55:08Z</time></trkpt><trkpt lat="29.730041605337888" lon="-8.843549607455186"><ele>1546.0</ele><time>2026-04-15T08:55:09Z</time></trkpt><trkpt lat="29.729898602475043" lon="-8.843511630746049"><ele>1543.75</ele><time>2026-04-15T08:55:10Z</time></trkpt><trkpt lat="29.729751456169915" lon="-8.8434828469232"><ele>1541.5</ele><time>2026-04-15T08:55:11Z</time></trkpt><trkpt lat="29.72960040076851" lon="-8.843465872558658"><ele>1539.25</ele><time>2026-04-15T08:55:12Z</time></trkpt><trkpt lat="29.729452671496457" lon="-8.843461320517845"><ele>1537.0</ele><time>2026-04-15T08:55:13Z</time></trkpt><trkpt lat="29.729304594430438" lon="-8.843465707410793"><ele>1537.0</ele><time>2026-04-15T08:55:14Z</time></trkpt><trkpt lat="29.7291717070025" lon="-8.84347530869043"><ele>1537.0</ele><time>2026-04-15T08:55:15Z</time></trkpt><trkpt lat="29.729045752035127" lon="-8.843488007394557"><ele>1537.0</ele><time>2026-04-15T08:55:16Z</time></trkpt><trkpt lat="29.728930263835196" lon="-8.84350537932521"><ele>1537.0</ele><time>2026-04-15T08:55:17Z</time></trkpt><trkpt lat="29.728811689294844" lon="-8.843523524573174"><ele>1537.0</ele><time>2026-04-15T08:55:18Z</time></trkpt><trkpt lat="29.728702137723907" lon="-8.843548766786723"><ele>1537.0</ele><time>2026-04-15T08:55:19Z</time></trkpt><trkpt lat="29.72859657836279" lon="-8.843579812025279"><ele>1537.0</ele><time>2026-04-15T08:55:20Z</time></trkpt><trkpt lat="29.728502598395284" lon="-8.843607451765397"><ele>1537.0</ele><time>2026-04-15T08:55:21Z</time></trkpt><trkpt lat="29.728406186127707" lon="-8.843635806829807"><ele>1537.0</ele><time>2026-04-15T08:55:22Z</time></trkpt><trkpt lat="29.72829590381416" lon="-8.843653044841673"><ele>1539.5</ele><time>2026-04-15T08:55:23Z</time></trkpt><trkpt lat="29.728174636802887" lon="-8.843689587928822"><ele>1542.0</ele><time>2026-04-15T08:55:24Z</time></trkpt><trkpt lat="29.728047985780066" lon="-8.843724462459738"><ele>1544.5</ele><time>2026-04-15T08:55:25Z</time></trkpt><trkpt lat="29.72791604163435" lon="-8.843761548731417"><ele>1547.0</ele><time>2026-04-15T08:55:26Z</time></trkpt><trkpt lat="29.72777937949527" lon="-8.843799785484208"><ele>1548.25</ele><time>2026-04-15T08:55:27Z</time></trkpt><trkpt lat="29.727639757056004" lon="-8.843840755234016"><ele>1549.5</ele><time>2026-04-15T08:55:28Z</time></trkpt><trkpt lat="29.727501326078855" lon="-8.843883628832932"><ele>1550.75</ele><time>2026-04-15T08:55:29Z</time></trkpt><trkpt lat="29.727360430684616" lon="-8.843931390193069"><ele>1552.0</ele><time>2026-04-15T08:55:30Z</time></trkpt><trkpt lat="29.72721251776905" lon="-8.843984474489675"><ele>1552.0</ele><time>2026-04-15T08:55:31Z</time></trkpt><trkpt lat="29.727072507600543" lon="-8.844027482613646"><ele>1552.0</ele><time>2026-04-15T08:55:32Z</time></trkpt><trkpt lat="29.726923055913794" lon="-8.844074760792347"><ele>1552.0</ele><time>2026-04-15T08:55:33Z</time></trkpt><trkpt lat="29.726771931260476" lon="-8.84411427912143"><ele>1555.25</ele><time>2026-04-15T08:55:34Z</time></trkpt><trkpt lat="29.72662377504098" lon="-8.8441742355589"><ele>1558.5</ele><time>2026-04-15T08:55:35Z</time></trkpt><trkpt lat="29.726479741269" lon="-8.844215726131276"><ele>1561.75</ele><time>2026-04-15T08:55:36Z</time></trkpt><trkpt lat="29.726340225685885" lon="-8.844237995617698"><ele>1565.0</ele><time>2026-04-15T08:55:37Z</time></trkpt><trkpt lat="29.726207131106133" lon="-8.84428284112173"><ele>1561.0</ele><time>2026-04-15T08:55:38Z</time></trkpt><trkpt lat="29.726081802444018" lon="-8.844323106935626"><ele>1557.0</ele><time>2026-04-15T08:55:39Z</time></trkpt><trkpt lat="29.725965319934637" lon="-8.844359627857745"><ele>1553.0</ele><time>2026-04-15T08:55:40Z</time></trkpt><trkpt lat="29.725857391783013" lon="-8.844415881068556"><ele>1549.0</ele><time>2026-04-15T08:55:41Z</time></trkpt><trkpt lat="29.725738026336742" lon="-8.844452610538838"><ele>1549.0</ele><time>2026-04-15T08:55:42Z</time></trkpt><trkpt lat="29.725627311526353" lon="-8.844546011296893"><ele>1549.0</ele><time>2026-04-15T08:55:43Z</time></trkpt><trkpt lat="29.725506145825715" lon="-8.844615901513725"><ele>1549.0</ele><time>2026-04-15T08:55:44Z</time></trkpt><trkpt lat="29.725391284510167" lon="-8.844711822715578"><ele>1549.0</ele><time>2026-04-15T08:55:45Z</time></trkpt><trkpt lat="29.725284040998385" lon="-8.844813984856144"><ele>1554.0</ele><time>2026-04-15T08:55:46Z</time></trkpt><trkpt lat="29.725203073072365" lon="-8.844937335255166"><ele>1559.0</ele><time>2026-04-15T08:55:47Z</time></trkpt><trkpt lat="29.72512586667037" lon="-8.845059235092675"><ele>1564.0</ele><time>2026-04-15T08:55:48Z</time></trkpt><trkpt lat="29.7250583936967" lon="-8.845180657741597"><ele>1569.0</ele><time>2026-04-15T08:55:49Z</time></trkpt><trkpt lat="29.72499374751532" lon="-8.84531121614115"><ele>1569.0</ele><time>2026-04-15T08:55:50Z</time></trkpt><trkpt lat="29.724934822052386" lon="-8.845431715106303"><ele>1569.0</ele><time>2026-04-15T08:55:51Z</time></trkpt><trkpt lat="29.724861679419806" lon="-8.84554546910723"><ele>1569.0</ele><time>2026-04-15T08:55:52Z</time></trkpt><trkpt lat="29.72480971871324" lon="-8.845678593186744"><ele>1569.0</ele><time>2026-04-15T08:55:53Z</time></trkpt><trkpt lat="29.724753349942613" lon="-8.845814686622116"><ele>1569.0</ele><time>2026-04-15T08:55:54Z</time></trkpt><trkpt lat="29.724700973944888" lon="-8.845947926663426"><ele>1569.0</ele><time>2026-04-15T08:55:55Z</time></trkpt><trkpt lat="29.72465634925791" lon="-8.846079470517546"><ele>1569.0</ele><time>2026-04-15T08:55:56Z</time></trkpt><trkpt lat="29.724618560662048" lon="-8.846201355539119"><ele>1569.0</ele><time>2026-04-15T08:55:57Z</time></trkpt><trkpt lat="29.724577471631143" lon="-8.846306021358961"><ele>1571.5</ele><time>2026-04-15T08:55:58Z</time></trkpt><trkpt lat="29.724527568217304" lon="-8.846398141998549"><ele>1574.0</ele><time>2026-04-15T08:55:59Z</time></trkpt><trkpt lat="29.724473755346107" lon="-8.84647148633641"><ele>1576.5</ele><time>2026-04-15T08:56:00Z</time></trkpt><trkpt lat="29.724411264151716" lon="-8.846527954257704"><ele>1579.0</ele><time>2026-04-15T08:56:01Z</time></trkpt><trkpt lat="29.724337731323487" lon="-8.84655719229039"><ele>1581.5</ele><time>2026-04-15T08:56:02Z</time></trkpt><trkpt lat="29.7242674511003" lon="-8.846572820537041"><ele>1584.0</ele><time>2026-04-15T08:56:03Z</time></trkpt><trkpt lat="29.72417851940752" lon="-8.846497001958813"><ele>1584.0</ele><time>2026-04-15T08:56:04Z</time></trkpt><trkpt lat="29.724103911012037" lon="-8.846458616806897"><ele>1584.0</ele><time>2026-04-15T08:56:05Z</time></trkpt><trkpt lat="29.724089633800606" lon="-8.84631994392634"><ele>1584.0</ele><time>2026-04-15T08:56:06Z</time></trkpt><trkpt lat="29.72409601487523" lon="-8.846210723629268"><ele>1584.0</ele><time>2026-04-15T08:56:07Z</time></trkpt><trkpt lat="29.724130238882164" lon="-8.846101817316761"><ele>1584.0</ele><time>2026-04-15T08:56:08Z</time></trkpt><trkpt lat="29.72421208773049" lon="-8.846000694355553"><ele>1580.25</ele><time>2026-04-15T08:56:09Z</time></trkpt><trkpt lat="29.72429871909613" lon="-8.84589898953417"><ele>1576.5</ele><time>2026-04-15T08:56:10Z</time></trkpt><trkpt lat="29.724364490955974" lon="-8.845760648072167"><ele>1572.75</ele><time>2026-04-15T08:56:11Z</time></trkpt><trkpt lat="29.724455428117846" lon="-8.84562666594585"><ele>1569.0</ele><time>2026-04-15T08:56:12Z</time></trkpt><trkpt lat="29.724567013973093" lon="-8.845483449539406"><ele>1569.0</ele><time>2026-04-15T08:56:13Z</time></trkpt><trkpt lat="29.724674135626056" lon="-8.845317388412948"><ele>1569.0</ele><time>2026-04-15T08:56:14Z</time></trkpt><trkpt lat="29.72478832940378" lon="-8.845146930039549"><ele>1569.0</ele><time>2026-04-15T08:56:15Z</time></trkpt><trkpt lat="29.724898115295197" lon="-8.844975561169225"><ele>1562.3333333333335</ele><time>2026-04-15T08:56:16Z</time></trkpt><trkpt lat="29.725011610312226" lon="-8.84479842307027"><ele>1555.6666666666667</ele><time>2026-04-15T08:56:17Z</time></trkpt><trkpt lat="29.72513385971869" lon="-8.844617190574862"><ele>1549.0</ele><time>2026-04-15T08:56:18Z</time></trkpt><trkpt lat="29.7252554308334" lon="-8.844433736352778"><ele>1561.3333333333335</ele><time>2026-04-15T08:56:19Z</time></trkpt><trkpt lat="29.72537911766112" lon="-8.84425142601773"><ele>1573.6666666666665</ele><time>2026-04-15T08:56:20Z</time></trkpt><trkpt lat="29.72549677172999" lon="-8.844088565325093"><ele>1586.0</ele><time>2026-04-15T08:56:21Z</time></trkpt><trkpt lat="29.72560786220532" lon="-8.843949506413459"><ele>1586.0</ele><time>2026-04-15T08:56:22Z</time></trkpt><trkpt lat="29.72571137975515" lon="-8.843829432470573"><ele>1586.0</ele><time>2026-04-15T08:56:23Z</time></trkpt><trkpt lat="29.725821347228862" lon="-8.843724051658947"><ele>1586.0</ele><time>2026-04-15T08:56:24Z</time></trkpt><trkpt lat="29.72591673874928" lon="-8.843632405511396"><ele>1586.0</ele><time>2026-04-15T08:56:25Z</time></trkpt><trkpt lat="29.72601524281548" lon="-8.843543874353719"><ele>1591.5</ele><time>2026-04-15T08:56:26Z</time></trkpt><trkpt lat="29.726114586012606" lon="-8.843454292131646"><ele>1597.0</ele><time>2026-04-15T08:56:27Z</time></trkpt><trkpt lat="29.726211341306794" lon="-8.843374134319562"><ele>1602.5</ele><time>2026-04-15T08:56:28Z</time></trkpt><trkpt lat="29.726305555238408" lon="-8.843306956567664"><ele>1608.0</ele><time>2026-04-15T08:56:29Z</time></trkpt><trkpt lat="29.726399981443937" lon="-8.843242421667375"><ele>1608.0</ele><time>2026-04-15T08:56:30Z</time></trkpt><trkpt lat="29.72649749701038" lon="-8.843175821565227"><ele>1608.0</ele><time>2026-04-15T08:56:31Z</time></trkpt><trkpt lat="29.72659970207191" lon="-8.843104994159804"><ele>1608.0</ele><time>2026-04-15T08:56:32Z</time></trkpt><trkpt lat="29.726707770949517" lon="-8.843034439551237"><ele>1608.0</ele><time>2026-04-15T08:56:33Z</time></trkpt><trkpt lat="29.726818907623365" lon="-8.842961944597159"><ele>1603.25</ele><time>2026-04-15T08:56:34Z</time></trkpt><trkpt lat="29.72693326919083" lon="-8.84288977239083"><ele>1598.5</ele><time>2026-04-15T08:56:35Z</time></trkpt><trkpt lat="29.727054470002106" lon="-8.842819905160601"><ele>1593.75</ele><time>2026-04-15T08:56:36Z</time></trkpt><trkpt lat="29.72718023291063" lon="-8.84274587717686"><ele>1589.0</ele><time>2026-04-15T08:56:37Z</time></trkpt><trkpt lat="29.727308002045987" lon="-8.842666685302598"><ele>1597.5</ele><time>2026-04-15T08:56:38Z</time></trkpt><trkpt lat="29.727432713187074" lon="-8.842585397946594"><ele>1606.0</ele><time>2026-04-15T08:56:39Z</time></trkpt><trkpt lat="29.727559619300038" lon="-8.842512353229328"><ele>1614.5</ele><time>2026-04-15T08:56:40Z</time></trkpt><trkpt lat="29.727687554480795" lon="-8.842438947209033"><ele>1623.0</ele><time>2026-04-15T08:56:41Z</time></trkpt><trkpt lat="29.72781958658632" lon="-8.842369683316763"><ele>1623.0</ele><time>2026-04-15T08:56:42Z</time></trkpt><trkpt lat="29.727952960585963" lon="-8.842310564615504"><ele>1623.0</ele><time>2026-04-15T08:56:43Z</time></trkpt><trkpt lat="29.72808708666279" lon="-8.842258766885292"><ele>1623.0</ele><time>2026-04-15T08:56:44Z</time></trkpt><trkpt lat="29.728223986562533" lon="-8.842213658091696"><ele>1623.0</ele><time>2026-04-15T08:56:45Z</time></trkpt><trkpt lat="29.728362893401528" lon="-8.842177249399825"><ele>1623.0</ele><time>2026-04-15T08:56:46Z</time></trkpt><trkpt lat="29.728502119875678" lon="-8.842149307650194"><ele>1623.0</ele><time>2026-04-15T08:56:47Z</time></trkpt><trkpt lat="29.728634135374147" lon="-8.84213044272027"><ele>1623.0</ele><time>2026-04-15T08:56:48Z</time></trkpt><trkpt lat="29.728757215877227" lon="-8.842107158069515"><ele>1623.0</ele><time>2026-04-15T08:56:49Z</time></trkpt><trkpt lat="29.72888963333669" lon="-8.842097495887682"><ele>1621.25</ele><time>2026-04-15T08:56:50Z</time></trkpt><trkpt lat="29.729016861713752" lon="-8.842054892514073"><ele>1619.5</ele><time>2026-04-15T08:56:51Z</time></trkpt><trkpt lat="29.729153161933272" lon="-8.842017402040613"><ele>1617.75</ele><time>2026-04-15T08:56:52Z</time></trkpt><trkpt lat="29.729291108395845" lon="-8.841980011908772"><ele>1616.0</ele><time>2026-04-15T08:56:53Z</time></trkpt><trkpt lat="29.729430693113553" lon="-8.84193509369553"><ele>1615.25</ele><time>2026-04-15T08:56:54Z</time></trkpt><trkpt lat="29.729577302204024" lon="-8.841899450881636"><ele>1614.5</ele><time>2026-04-15T08:56:55Z</time></trkpt><trkpt lat="29.72970958552605" lon="-8.841833076773918"><ele>1613.75</ele><time>2026-04-15T08:56:56Z</time></trkpt><trkpt lat="29.729833853536544" lon="-8.841759106924886"><ele>1613.0</ele><time>2026-04-15T08:56:57Z</time></trkpt><trkpt lat="29.7299539747919" lon="-8.841676652920727"><ele>1622.25</ele><time>2026-04-15T08:56:58Z</time></trkpt><trkpt lat="29.730067738482152" lon="-8.841583717337967"><ele>1631.5</ele><time>2026-04-15T08:56:59Z</time></trkpt><trkpt lat="29.730172777797588" lon="-8.841478104348976"><ele>1640.75</ele><time>2026-04-15T08:57:00Z</time></trkpt><trkpt lat="29.730275345366536" lon="-8.84136727649599"><ele>1650.0</ele><time>2026-04-15T08:57:01Z</time></trkpt><trkpt lat="29.730372634984608" lon="-8.841246210504714"><ele>1653.0</ele><time>2026-04-15T08:57:02Z</time></trkpt><trkpt lat="29.730470991982006" lon="-8.841139993294467"><ele>1656.0</ele><time>2026-04-15T08:57:03Z</time></trkpt><trkpt lat="29.73055891602055" lon="-8.841043856721509"><ele>1659.0</ele><time>2026-04-15T08:57:04Z</time></trkpt><trkpt lat="29.73064116776655" lon="-8.840951555645074"><ele>1662.0</ele><time>2026-04-15T08:57:05Z</time></trkpt><trkpt lat="29.730714119215232" lon="-8.840861569809684"><ele>1662.8</ele><time>2026-04-15T08:57:06Z</time></trkpt><trkpt lat="29.730779195058123" lon="-8.840773380633298"><ele>1663.6</ele><time>2026-04-15T08:57:07Z</time></trkpt><trkpt lat="29.730846672928205" lon="-8.840689665465892"><ele>1664.3999999999999</ele><time>2026-04-15T08:57:08Z</time></trkpt><trkpt lat="29.73091549108477" lon="-8.840606730980163"><ele>1665.1999999999998</ele><time>2026-04-15T08:57:09Z</time></trkpt><trkpt lat="29.730991823743622" lon="-8.84052688943098"><ele>1666.0</ele><time>2026-04-15T08:57:10Z</time></trkpt><trkpt lat="29.73106885463849" lon="-8.840447929220339"><ele>1667.75</ele><time>2026-04-15T08:57:11Z</time></trkpt><trkpt lat="29.731144383549854" lon="-8.840360059041021"><ele>1669.5</ele><time>2026-04-15T08:57:12Z</time></trkpt><trkpt lat="29.731220452158695" lon="-8.840265936704888"><ele>1671.25</ele><time>2026-04-15T08:57:13Z</time></trkpt><trkpt lat="29.73129896884775" lon="-8.840161652595219"><ele>1673.0</ele><time>2026-04-15T08:57:14Z</time></trkpt><trkpt lat="29.73138837936585" lon="-8.840050979289215"><ele>1668.5</ele><time>2026-04-15T08:57:15Z</time></trkpt><trkpt lat="29.731484753128516" lon="-8.839940245948215"><ele>1664.0</ele><time>2026-04-15T08:57:16Z</time></trkpt><trkpt lat="29.731583800977383" lon="-8.839831910443138"><ele>1659.5</ele><time>2026-04-15T08:57:17Z</time></trkpt><trkpt lat="29.731669705560176" lon="-8.839703709560984"><ele>1655.0</ele><time>2026-04-15T08:57:18Z</time></trkpt><trkpt lat="29.73176872759576" lon="-8.839583776812706"><ele>1655.0</ele><time>2026-04-15T08:57:19Z</time></trkpt><trkpt lat="29.731867798623092" lon="-8.839463784970077"><ele>1655.0</ele><time>2026-04-15T08:57:20Z</time></trkpt><trkpt lat="29.73196247138811" lon="-8.83934912021663"><ele>1655.0</ele><time>2026-04-15T08:57:21Z</time></trkpt><trkpt lat="29.732060190654373" lon="-8.839233859220135"><ele>1655.0</ele><time>2026-04-15T08:57:22Z</time></trkpt><trkpt lat="29.73216393844662" lon="-8.839123238892398"><ele>1654.25</ele><time>2026-04-15T08:57:23Z</time></trkpt><trkpt lat="29.73227153219334" lon="-8.83900982320761"><ele>1653.5</ele><time>2026-04-15T08:57:24Z</time></trkpt><trkpt lat="29.732386740340896" lon="-8.838913313572222"><ele>1652.75</ele><time>2026-04-15T08:57:25Z</time></trkpt><trkpt lat="29.732479716266837" lon="-8.838792497625569"><ele>1652.0</ele><time>2026-04-15T08:57:26Z</time></trkpt><trkpt lat="29.73260324804507" lon="-8.83870566015363"><ele>1652.0</ele><time>2026-04-15T08:57:27Z</time></trkpt><trkpt lat="29.73272068277703" lon="-8.838608457154901"><ele>1652.0</ele><time>2026-04-15T08:57:28Z</time></trkpt><trkpt lat="29.732848326431412" lon="-8.838520056718824"><ele>1652.0</ele><time>2026-04-15T08:57:29Z</time></trkpt><trkpt lat="29.73298264050633" lon="-8.838434052115371"><ele>1652.0</ele><time>2026-04-15T08:57:30Z</time></trkpt><trkpt lat="29.733117182213793" lon="-8.838365074697201"><ele>1651.0</ele><time>2026-04-15T08:57:31Z</time></trkpt><trkpt lat="29.733254465287033" lon="-8.838296825666433"><ele>1650.0</ele><time>2026-04-15T08:57:32Z</time></trkpt><trkpt lat="29.733388573017105" lon="-8.838233078901412"><ele>1649.0</ele><time>2026-04-15T08:57:33Z</time></trkpt><trkpt lat="29.733521259011713" lon="-8.838172611858395"><ele>1648.0</ele><time>2026-04-15T08:57:34Z</time></trkpt><trkpt lat="29.733649336857727" lon="-8.83811211608364"><ele>1648.0</ele><time>2026-04-15T08:57:35Z</time></trkpt><trkpt lat="29.73377947045119" lon="-8.838044329944132"><ele>1648.0</ele><time>2026-04-15T08:57:36Z</time></trkpt><trkpt lat="29.73391022157229" lon="-8.837975016143004"><ele>1648.0</ele><time>2026-04-15T08:57:37Z</time></trkpt><trkpt lat="29.734030365975194" lon="-8.837879578065104"><ele>1648.0</ele><time>2026-04-15T08:57:38Z</time></trkpt><trkpt lat="29.73415814270198" lon="-8.837793283760144"><ele>1648.0</ele><time>2026-04-15T08:57:39Z</time></trkpt><trkpt lat="29.734280586718594" lon="-8.837694657690133"><ele>1648.0</ele><time>2026-04-15T08:57:40Z</time></trkpt><trkpt lat="29.73440007499584" lon="-8.837588228235493"><ele>1648.0</ele><time>2026-04-15T08:57:41Z</time></trkpt><trkpt lat="29.734520446406137" lon="-8.837475301719147"><ele>1647.0</ele><time>2026-04-15T08:57:42Z</time></trkpt><trkpt lat="29.73465127226173" lon="-8.837373708472875"><ele>1646.0</ele><time>2026-04-15T08:57:43Z</time></trkpt><trkpt lat="29.734765901969933" lon="-8.837254770681868"><ele>1645.0</ele><time>2026-04-15T08:57:44Z</time></trkpt><trkpt lat="29.73487989274197" lon="-8.837141903698745"><ele>1645.0</ele><time>2026-04-15T08:57:45Z</time></trkpt><trkpt lat="29.73499478996416" lon="-8.837035322499423"><ele>1645.0</ele><time>2026-04-15T08:57:46Z</time></trkpt><trkpt lat="29.735112308312722" lon="-8.836929824069758"><ele>1645.0</ele><time>2026-04-15T08:57:47Z</time></trkpt><trkpt lat="29.73522774554048" lon="-8.836824926239704"><ele>1645.0</ele><time>2026-04-15T08:57:48Z</time></trkpt><trkpt lat="29.735341355994258" lon="-8.836721078133024"><ele>1643.0</ele><time>2026-04-15T08:57:49Z</time></trkpt><trkpt lat="29.73546427607196" lon="-8.83662043924951"><ele>1641.0</ele><time>2026-04-15T08:57:50Z</time></trkpt><trkpt lat="29.735588216320036" lon="-8.836526446771561"><ele>1639.0</ele><time>2026-04-15T08:57:51Z</time></trkpt><trkpt lat="29.73571763714845" lon="-8.836437098279545"><ele>1639.0</ele><time>2026-04-15T08:57:52Z</time></trkpt><trkpt lat="29.735849256581485" lon="-8.836347995933728"><ele>1639.0</ele><time>2026-04-15T08:57:53Z</time></trkpt><trkpt lat="29.73598258309773" lon="-8.836257684705638"><ele>1639.0</ele><time>2026-04-15T08:57:54Z</time></trkpt><trkpt lat="29.73611707049646" lon="-8.83616377544643"><ele>1641.0</ele><time>2026-04-15T08:57:55Z</time></trkpt><trkpt lat="29.7362583210047" lon="-8.836070786102654"><ele>1643.0</ele><time>2026-04-15T08:57:56Z</time></trkpt><trkpt lat="29.73639954748144" lon="-8.835977906914495"><ele>1645.0</ele><time>2026-04-15T08:57:57Z</time></trkpt><trkpt lat="29.736538695235158" lon="-8.835885113364641"><ele>1642.3333333333335</ele><time>2026-04-15T08:57:58Z</time></trkpt><trkpt lat="29.736664844815408" lon="-8.835771323208954"><ele>1639.6666666666665</ele><time>2026-04-15T08:57:59Z</time></trkpt><trkpt lat="29.736798787469255" lon="-8.835671345702702"><ele>1637.0</ele><time>2026-04-15T08:58:00Z</time></trkpt><trkpt lat="29.736938545979946" lon="-8.835584727987849"><ele>1637.0</ele><time>2026-04-15T08:58:01Z</time></trkpt><trkpt lat="29.737063978812888" lon="-8.835471274570851"><ele>1637.0</ele><time>2026-04-15T08:58:02Z</time></trkpt><trkpt lat="29.737182147903145" lon="-8.835361182717305"><ele>1637.0</ele><time>2026-04-15T08:58:03Z</time></trkpt><trkpt lat="29.737294187769198" lon="-8.83524726048421"><ele>1634.5</ele><time>2026-04-15T08:58:04Z</time></trkpt><trkpt lat="29.73740015124325" lon="-8.835129458176187"><ele>1632.0</ele><time>2026-04-15T08:58:05Z</time></trkpt><trkpt lat="29.737499238701535" lon="-8.835008588633782"><ele>1629.5</ele><time>2026-04-15T08:58:06Z</time></trkpt><trkpt lat="29.737591065765955" lon="-8.834898518611118"><ele>1627.0</ele><time>2026-04-15T08:58:07Z</time></trkpt><trkpt lat="29.73769913556784" lon="-8.834788157867086"><ele>1629.25</ele><time>2026-04-15T08:58:08Z</time></trkpt><trkpt lat="29.737807861696986" lon="-8.834676688731102"><ele>1631.5</ele><time>2026-04-15T08:58:09Z</time></trkpt><trkpt lat="29.737913878864312" lon="-8.834560672524496"><ele>1633.75</ele><time>2026-04-15T08:58:10Z</time></trkpt><trkpt lat="29.738022897762903" lon="-8.834445718747917"><ele>1636.0</ele><time>2026-04-15T08:58:11Z</time></trkpt><trkpt lat="29.73813199147392" lon="-8.834327424909985"><ele>1633.5</ele><time>2026-04-15T08:58:12Z</time></trkpt><trkpt lat="29.73823382985006" lon="-8.834210527954644"><ele>1631.0</ele><time>2026-04-15T08:58:13Z</time></trkpt><trkpt lat="29.73833090300894" lon="-8.834102562212077"><ele>1628.5</ele><time>2026-04-15T08:58:14Z</time></trkpt><trkpt lat="29.738425360107225" lon="-8.8340005322355"><ele>1626.0</ele><time>2026-04-15T08:58:15Z</time></trkpt><trkpt lat="29.73852581427355" lon="-8.833903585969399"><ele>1627.25</ele><time>2026-04-15T08:58:16Z</time></trkpt><trkpt lat="29.738633264696563" lon="-8.833813824283213"><ele>1628.5</ele><time>2026-04-15T08:58:17Z</time></trkpt><trkpt lat="29.73874160872662" lon="-8.833730965117335"><ele>1629.75</ele><time>2026-04-15T08:58:18Z</time></trkpt><trkpt lat="29.738850953282785" lon="-8.833657631458978"><ele>1631.0</ele><time>2026-04-15T08:58:19Z</time></trkpt><trkpt lat="29.738964985985877" lon="-8.833594067686422"><ele>1631.0</ele><time>2026-04-15T08:58:20Z</time></trkpt><trkpt lat="29.739079758921665" lon="-8.833534472949191"><ele>1631.0</ele><time>2026-04-15T08:58:21Z</time></trkpt><trkpt lat="29.739195663485823" lon="-8.833485071917655"><ele>1631.0</ele><time>2026-04-15T08:58:22Z</time></trkpt><trkpt lat="29.73931799197242" lon="-8.833442768846623"><ele>1631.0</ele><time>2026-04-15T08:58:23Z</time></trkpt><trkpt lat="29.739448556562547" lon="-8.833399704629707"><ele>1626.75</ele><time>2026-04-15T08:58:24Z</time></trkpt><trkpt lat="29.739584362112954" lon="-8.833361146099358"><ele>1622.5</ele><time>2026-04-15T08:58:25Z</time></trkpt><trkpt lat="29.739718777656307" lon="-8.833322310437895"><ele>1618.25</ele><time>2026-04-15T08:58:26Z</time></trkpt><trkpt lat="29.739860140256592" lon="-8.833284735907933"><ele>1614.0</ele><time>2026-04-15T08:58:27Z</time></trkpt><trkpt lat="29.739999036073506" lon="-8.833242523626682"><ele>1614.0</ele><time>2026-04-15T08:58:28Z</time></trkpt><trkpt lat="29.74014091621223" lon="-8.833215028482703"><ele>1614.0</ele><time>2026-04-15T08:58:29Z</time></trkpt><trkpt lat="29.740283165826913" lon="-8.833180969961218"><ele>1614.0</ele><time>2026-04-15T08:58:30Z</time></trkpt><trkpt lat="29.740423298500357" lon="-8.833140134132416"><ele>1614.0</ele><time>2026-04-15T08:58:31Z</time></trkpt><trkpt lat="29.74055776446261" lon="-8.833091421703436"><ele>1613.75</ele><time>2026-04-15T08:58:32Z</time></trkpt><trkpt lat="29.740696998416837" lon="-8.833036988505507"><ele>1613.5</ele><time>2026-04-15T08:58:33Z</time></trkpt><trkpt lat="29.74083048253323" lon="-8.832977987572749"><ele>1613.25</ele><time>2026-04-15T08:58:34Z</time></trkpt><trkpt lat="29.740960480423368" lon="-8.832911458275936"><ele>1613.0</ele><time>2026-04-15T08:58:35Z</time></trkpt><trkpt lat="29.7410838044228" lon="-8.832834845666463"><ele>1614.75</ele><time>2026-04-15T08:58:36Z</time></trkpt><trkpt lat="29.741205924271203" lon="-8.832746870854745"><ele>1616.5</ele><time>2026-04-15T08:58:37Z</time></trkpt><trkpt lat="29.741329502102943" lon="-8.832649990122155"><ele>1618.25</ele><time>2026-04-15T08:58:38Z</time></trkpt><trkpt lat="29.741451147256694" lon="-8.832557150708972"><ele>1620.0</ele><time>2026-04-15T08:58:39Z</time></trkpt><trkpt lat="29.7415668358228" lon="-8.832465851164697"><ele>1616.25</ele><time>2026-04-15T08:58:40Z</time></trkpt><trkpt lat="29.7416796044571" lon="-8.832377071403728"><ele>1612.5</ele><time>2026-04-15T08:58:41Z</time></trkpt><trkpt lat="29.74178508727844" lon="-8.832294834065129"><ele>1608.75</ele><time>2026-04-15T08:58:42Z</time></trkpt><trkpt lat="29.74188545149495" lon="-8.83222001265438"><ele>1605.0</ele><time>2026-04-15T08:58:43Z</time></trkpt><trkpt lat="29.74196984681822" lon="-8.832148695391394"><ele>1605.0</ele><time>2026-04-15T08:58:44Z</time></trkpt><trkpt lat="29.742037982216754" lon="-8.832070248709183"><ele>1605.0</ele><time>2026-04-15T08:58:45Z</time></trkpt><trkpt lat="29.742086615544324" lon="-8.831997882817848"><ele>1605.0</ele><time>2026-04-15T08:58:46Z</time></trkpt><trkpt lat="29.74212261181243" lon="-8.83192961495405"><ele>1605.0</ele><time>2026-04-15T08:58:47Z</time></trkpt><trkpt lat="29.742171565347657" lon="-8.831789508236808"><ele>1605.0</ele><time>2026-04-15T08:58:49Z</time></trkpt><trkpt lat="29.742178225027754" lon="-8.831701240720548"><ele>1604.2</ele><time>2026-04-15T08:58:50Z</time></trkpt><trkpt lat="29.742173461499814" lon="-8.831608719170033"><ele>1603.4</ele><time>2026-04-15T08:58:51Z</time></trkpt><trkpt lat="29.74216006429336" lon="-8.831507829829803"><ele>1602.6</ele><time>2026-04-15T08:58:52Z</time></trkpt><trkpt lat="29.742137064633187" lon="-8.83140033725123"><ele>1601.8</ele><time>2026-04-15T08:58:53Z</time></trkpt><trkpt lat="29.74210972668563" lon="-8.831285107608116"><ele>1601.0</ele><time>2026-04-15T08:58:54Z</time></trkpt><trkpt lat="29.742054557293578" lon="-8.831178633076712"><ele>1601.0</ele><time>2026-04-15T08:58:55Z</time></trkpt><trkpt lat="29.742038499569702" lon="-8.831074523496072"><ele>1601.0</ele><time>2026-04-15T08:58:56Z</time></trkpt><trkpt lat="29.742035725457374" lon="-8.830966356273152"><ele>1601.0</ele><time>2026-04-15T08:58:57Z</time></trkpt><trkpt lat="29.74203316663388" lon="-8.830858519368668"><ele>1601.0</ele><time>2026-04-15T08:58:58Z</time></trkpt><trkpt lat="29.742087405400355" lon="-8.830748023009711"><ele>1601.0</ele><time>2026-04-15T08:58:59Z</time></trkpt><trkpt lat="29.742121846139433" lon="-8.830626933387993"><ele>1602.25</ele><time>2026-04-15T08:59:00Z</time></trkpt><trkpt lat="29.742184384482055" lon="-8.830511988415024"><ele>1603.5</ele><time>2026-04-15T08:59:01Z</time></trkpt><trkpt lat="29.742241505712872" lon="-8.83039472627501"><ele>1604.75</ele><time>2026-04-15T08:59:02Z</time></trkpt><trkpt lat="29.74229837557119" lon="-8.83027235709825"><ele>1606.0</ele><time>2026-04-15T08:59:03Z</time></trkpt><trkpt lat="29.7423573056146" lon="-8.830147212633545"><ele>1604.75</ele><time>2026-04-15T08:59:04Z</time></trkpt><trkpt lat="29.74241433089261" lon="-8.830022655362017"><ele>1603.5</ele><time>2026-04-15T08:59:05Z</time></trkpt><trkpt lat="29.74248602883042" lon="-8.829911118773188"><ele>1602.25</ele><time>2026-04-15T08:59:06Z</time></trkpt><trkpt lat="29.74254053803715" lon="-8.82977875446876"><ele>1601.0</ele><time>2026-04-15T08:59:07Z</time></trkpt><trkpt lat="29.742602631973224" lon="-8.829648322870032"><ele>1601.0</ele><time>2026-04-15T08:59:08Z</time></trkpt><trkpt lat="29.742665338769765" lon="-8.829518610594713"><ele>1601.0</ele><time>2026-04-15T08:59:09Z</time></trkpt><trkpt lat="29.7427390869316" lon="-8.829391275617839"><ele>1601.0</ele><time>2026-04-15T08:59:10Z</time></trkpt><trkpt lat="29.742818252801396" lon="-8.829263353151905"><ele>1601.0</ele><time>2026-04-15T08:59:11Z</time></trkpt><trkpt lat="29.742896269940957" lon="-8.829127405240314"><ele>1603.5</ele><time>2026-04-15T08:59:12Z</time></trkpt><trkpt lat="29.742980972355642" lon="-8.829001924162393"><ele>1606.0</ele><time>2026-04-15T08:59:13Z</time></trkpt><trkpt lat="29.743075844536822" lon="-8.82888522394836"><ele>1608.5</ele><time>2026-04-15T08:59:14Z</time></trkpt><trkpt lat="29.74317034912704" lon="-8.828778176375607"><ele>1611.0</ele><time>2026-04-15T08:59:15Z</time></trkpt><trkpt lat="29.743263541163508" lon="-8.828674407764296"><ele>1611.0</ele><time>2026-04-15T08:59:16Z</time></trkpt><trkpt lat="29.743359674379555" lon="-8.82856578136444"><ele>1611.0</ele><time>2026-04-15T08:59:17Z</time></trkpt><trkpt lat="29.743454240892795" lon="-8.828459365874732"><ele>1611.0</ele><time>2026-04-15T08:59:18Z</time></trkpt><trkpt lat="29.74355073513252" lon="-8.82835215704719"><ele>1611.0</ele><time>2026-04-15T08:59:19Z</time></trkpt><trkpt lat="29.74364473379878" lon="-8.828248588195173"><ele>1610.25</ele><time>2026-04-15T08:59:20Z</time></trkpt><trkpt lat="29.74373503045698" lon="-8.82815305150194"><ele>1609.5</ele><time>2026-04-15T08:59:21Z</time></trkpt><trkpt lat="29.743821819333373" lon="-8.828061934166442"><ele>1608.75</ele><time>2026-04-15T08:59:22Z</time></trkpt><trkpt lat="29.743901969552542" lon="-8.827965813038603"><ele>1608.0</ele><time>2026-04-15T08:59:23Z</time></trkpt><trkpt lat="29.74396430519807" lon="-8.827863576328548"><ele>1608.0</ele><time>2026-04-15T08:59:24Z</time></trkpt><trkpt lat="29.744002047216053" lon="-8.827751742690921"><ele>1608.0</ele><time>2026-04-15T08:59:25Z</time></trkpt><trkpt lat="29.743978314649873" lon="-8.8276359045893"><ele>1608.0</ele><time>2026-04-15T08:59:26Z</time></trkpt><trkpt lat="29.74395602826847" lon="-8.827520232396992"><ele>1608.0</ele><time>2026-04-15T08:59:27Z</time></trkpt><trkpt lat="29.743913826827676" lon="-8.827402480938964"><ele>1608.0</ele><time>2026-04-15T08:59:28Z</time></trkpt><trkpt lat="29.743866103987994" lon="-8.827284303489508"><ele>1605.25</ele><time>2026-04-15T08:59:29Z</time></trkpt><trkpt lat="29.743803501980473" lon="-8.827172775975194"><ele>1602.5</ele><time>2026-04-15T08:59:30Z</time></trkpt><trkpt lat="29.74372709703362" lon="-8.827068174792302"><ele>1599.75</ele><time>2026-04-15T08:59:31Z</time></trkpt><trkpt lat="29.743638708016967" lon="-8.826956450934926"><ele>1597.0</ele><time>2026-04-15T08:59:32Z</time></trkpt><trkpt lat="29.74353132523892" lon="-8.826868102202043"><ele>1590.5</ele><time>2026-04-15T08:59:33Z</time></trkpt><trkpt lat="29.743423938847062" lon="-8.826770066175403"><ele>1584.0</ele><time>2026-04-15T08:59:34Z</time></trkpt><trkpt lat="29.74332746028196" lon="-8.826677345778178"><ele>1577.5</ele><time>2026-04-15T08:59:35Z</time></trkpt><trkpt lat="29.743234408625636" lon="-8.82658881281368"><ele>1571.0</ele><time>2026-04-15T08:59:36Z</time></trkpt><trkpt lat="29.74315721887328" lon="-8.826473624070962"><ele>1571.0</ele><time>2026-04-15T08:59:37Z</time></trkpt><trkpt lat="29.743103588399965" lon="-8.826350493339522"><ele>1571.0</ele><time>2026-04-15T08:59:38Z</time></trkpt><trkpt lat="29.74303849954027" lon="-8.826256755367881"><ele>1571.0</ele><time>2026-04-15T08:59:39Z</time></trkpt><trkpt lat="29.743038652458118" lon="-8.826126497941736"><ele>1571.0</ele><time>2026-04-15T08:59:40Z</time></trkpt><trkpt lat="29.743067660148004" lon="-8.826001092348324"><ele>1570.5</ele><time>2026-04-15T08:59:41Z</time></trkpt><trkpt lat="29.743115574341925" lon="-8.82587619636418"><ele>1570.0</ele><time>2026-04-15T08:59:42Z</time></trkpt><trkpt lat="29.74318574955473" lon="-8.825743538367043"><ele>1569.5</ele><time>2026-04-15T08:59:43Z</time></trkpt><trkpt lat="29.743273675077074" lon="-8.82561247093196"><ele>1569.0</ele><time>2026-04-15T08:59:44Z</time></trkpt><trkpt lat="29.743359621942467" lon="-8.825485532334858"><ele>1569.0</ele><time>2026-04-15T08:59:45Z</time></trkpt><trkpt lat="29.743443441620055" lon="-8.825360896141168"><ele>1569.0</ele><time>2026-04-15T08:59:46Z</time></trkpt><trkpt lat="29.743538125848644" lon="-8.825228292178831"><ele>1569.0</ele><time>2026-04-15T08:59:47Z</time></trkpt><trkpt lat="29.743648005437407" lon="-8.825106734908475"><ele>1569.0</ele><time>2026-04-15T08:59:48Z</time></trkpt><trkpt lat="29.743761548971854" lon="-8.824981018312688"><ele>1568.0</ele><time>2026-04-15T08:59:49Z</time></trkpt><trkpt lat="29.743881221964504" lon="-8.824848489338068"><ele>1567.0</ele><time>2026-04-15T08:59:50Z</time></trkpt><trkpt lat="29.74400203272136" lon="-8.824714878514419"><ele>1566.0</ele><time>2026-04-15T08:59:51Z</time></trkpt><trkpt lat="29.74411481243584" lon="-8.82458295245428"><ele>1566.0</ele><time>2026-04-15T08:59:52Z</time></trkpt><trkpt lat="29.744228682616587" lon="-8.824448298928575"><ele>1566.0</ele><time>2026-04-15T08:59:53Z</time></trkpt><trkpt lat="29.744340669423387" lon="-8.8243158722563"><ele>1566.0</ele><time>2026-04-15T08:59:54Z</time></trkpt><trkpt lat="29.744451282494296" lon="-8.82418434331961"><ele>1566.3333333333335</ele><time>2026-04-15T08:59:55Z</time></trkpt><trkpt lat="29.744560579092802" lon="-8.824053206942514"><ele>1566.6666666666667</ele><time>2026-04-15T08:59:56Z</time></trkpt><trkpt lat="29.74466967743452" lon="-8.823922153200952"><ele>1567.0</ele><time>2026-04-15T08:59:57Z</time></trkpt><trkpt lat="29.744770324995343" lon="-8.823785243927267"><ele>1567.0</ele><time>2026-04-15T08:59:58Z</time></trkpt><trkpt lat="29.744864497872786" lon="-8.823639262822642"><ele>1567.0</ele><time>2026-04-15T08:59:59Z</time></trkpt><trkpt lat="29.744957194412375" lon="-8.823484594944466"><ele>1567.0</ele><time>2026-04-15T09:00:00Z</time></trkpt><trkpt lat="29.745041977534488" lon="-8.823323775858913"><ele>1568.6666666666667</ele><time>2026-04-15T09:00:01Z</time></trkpt><trkpt lat="29.745126864455845" lon="-8.823160778335842"><ele>1570.3333333333335</ele><time>2026-04-15T09:00:02Z</time></trkpt><trkpt lat="29.745204333775295" lon="-8.822998198166706"><ele>1572.0</ele><time>2026-04-15T09:00:03Z</time></trkpt><trkpt lat="29.745279773229573" lon="-8.822838031810763"><ele>1572.0</ele><time>2026-04-15T09:00:04Z</time></trkpt><trkpt lat="29.74535708816365" lon="-8.822675258605468"><ele>1572.0</ele><time>2026-04-15T09:00:05Z</time></trkpt><trkpt lat="29.745436743714052" lon="-8.822507857111656"><ele>1572.0</ele><time>2026-04-15T09:00:06Z</time></trkpt><trkpt lat="29.745517757773534" lon="-8.822338383898186"><ele>1564.3333333333335</ele><time>2026-04-15T09:00:07Z</time></trkpt><trkpt lat="29.745595481737393" lon="-8.822175649672307"><ele>1556.6666666666667</ele><time>2026-04-15T09:00:08Z</time></trkpt><trkpt lat="29.745688766587065" lon="-8.822016449981216"><ele>1549.0</ele><time>2026-04-15T09:00:09Z</time></trkpt><trkpt lat="29.74574006258862" lon="-8.821833818317298"><ele>1543.0</ele><time>2026-04-15T09:00:10Z</time></trkpt><trkpt lat="29.74580578552484" lon="-8.821659644572616"><ele>1537.0</ele><time>2026-04-15T09:00:11Z</time></trkpt><trkpt lat="29.74588098661654" lon="-8.821492382294974"><ele>1531.0</ele><time>2026-04-15T09:00:12Z</time></trkpt><trkpt lat="29.745941199812005" lon="-8.821314413108375"><ele>1531.0</ele><time>2026-04-15T09:00:13Z</time></trkpt><trkpt lat="29.74600501690204" lon="-8.821143163790271"><ele>1531.0</ele><time>2026-04-15T09:00:14Z</time></trkpt><trkpt lat="29.746070126520685" lon="-8.820973535804548"><ele>1531.0</ele><time>2026-04-15T09:00:15Z</time></trkpt><trkpt lat="29.746136102472626" lon="-8.820800362126445"><ele>1536.6666666666665</ele><time>2026-04-15T09:00:16Z</time></trkpt><trkpt lat="29.746203134791912" lon="-8.820626867065075"><ele>1542.3333333333333</ele><time>2026-04-15T09:00:17Z</time></trkpt><trkpt lat="29.746267587063052" lon="-8.820460085055247"><ele>1548.0</ele><time>2026-04-15T09:00:18Z</time></trkpt><trkpt lat="29.746332109430362" lon="-8.820299087011414"><ele>1540.6666666666667</ele><time>2026-04-15T09:00:19Z</time></trkpt><trkpt lat="29.746397792471516" lon="-8.82013873235641"><ele>1533.3333333333335</ele><time>2026-04-15T09:00:20Z</time></trkpt><trkpt lat="29.746425465267848" lon="-8.819967357512791"><ele>1526.0</ele><time>2026-04-15T09:00:21Z</time></trkpt><trkpt lat="29.746464947134115" lon="-8.81979103880638"><ele>1526.0</ele><time>2026-04-15T09:00:22Z</time></trkpt><trkpt lat="29.746495248093993" lon="-8.819612776247007"><ele>1526.0</ele><time>2026-04-15T09:00:23Z</time></trkpt><trkpt lat="29.74652306437409" lon="-8.819438796416437"><ele>1526.0</ele><time>2026-04-15T09:00:24Z</time></trkpt><trkpt lat="29.746554082488426" lon="-8.819276788954985"><ele>1522.25</ele><time>2026-04-15T09:00:25Z</time></trkpt><trkpt lat="29.746584739300058" lon="-8.819133559054801"><ele>1518.5</ele><time>2026-04-15T09:00:26Z</time></trkpt><trkpt lat="29.746631020395217" lon="-8.819009354066612"><ele>1514.75</ele><time>2026-04-15T09:00:27Z</time></trkpt><trkpt lat="29.746671962260088" lon="-8.818894539236462"><ele>1511.0</ele><time>2026-04-15T09:00:28Z</time></trkpt><trkpt lat="29.746724572903283" lon="-8.818777155360909"><ele>1511.0</ele><time>2026-04-15T09:00:29Z</time></trkpt><trkpt lat="29.74678853165818" lon="-8.818657033037582"><ele>1511.0</ele><time>2026-04-15T09:00:30Z</time></trkpt><trkpt lat="29.74686399921096" lon="-8.818542146435009"><ele>1511.0</ele><time>2026-04-15T09:00:31Z</time></trkpt><trkpt lat="29.7469521462343" lon="-8.81842918966473"><ele>1511.0</ele><time>2026-04-15T09:00:32Z</time></trkpt><trkpt lat="29.74705137483505" lon="-8.81833456728512"><ele>1512.25</ele><time>2026-04-15T09:00:33Z</time></trkpt><trkpt lat="29.74716305169162" lon="-8.818248954313882"><ele>1513.5</ele><time>2026-04-15T09:00:34Z</time></trkpt><trkpt lat="29.74728899004097" lon="-8.818191181802108"><ele>1514.75</ele><time>2026-04-15T09:00:35Z</time></trkpt><trkpt lat="29.747425837933566" lon="-8.818153257276657"><ele>1516.0</ele><time>2026-04-15T09:00:36Z</time></trkpt><trkpt lat="29.747564327719168" lon="-8.81813321877156"><ele>1516.0</ele><time>2026-04-15T09:00:37Z</time></trkpt><trkpt lat="29.74770499817646" lon="-8.818132542226712"><ele>1516.0</ele><time>2026-04-15T09:00:38Z</time></trkpt><trkpt lat="29.74784809357592" lon="-8.81815147377352"><ele>1516.0</ele><time>2026-04-15T09:00:39Z</time></trkpt><trkpt lat="29.747989586151363" lon="-8.818192955061821"><ele>1516.0</ele><time>2026-04-15T09:00:40Z</time></trkpt><trkpt lat="29.748128366136424" lon="-8.818257559838814"><ele>1517.75</ele><time>2026-04-15T09:00:41Z</time></trkpt><trkpt lat="29.748260533272774" lon="-8.818338863850308"><ele>1519.5</ele><time>2026-04-15T09:00:42Z</time></trkpt><trkpt lat="29.748379585740132" lon="-8.818430792760106"><ele>1521.25</ele><time>2026-04-15T09:00:43Z</time></trkpt><trkpt lat="29.74849721226874" lon="-8.818514819971792"><ele>1523.0</ele><time>2026-04-15T09:00:44Z</time></trkpt><trkpt lat="29.748617380592904" lon="-8.818587448483171"><ele>1519.5</ele><time>2026-04-15T09:00:45Z</time></trkpt><trkpt lat="29.748746437791784" lon="-8.81864272166384"><ele>1516.0</ele><time>2026-04-15T09:00:46Z</time></trkpt><trkpt lat="29.74888570475237" lon="-8.818688313170334"><ele>1512.5</ele><time>2026-04-15T09:00:47Z</time></trkpt><trkpt lat="29.749034129949276" lon="-8.81871520759189"><ele>1509.0</ele><time>2026-04-15T09:00:48Z</time></trkpt><trkpt lat="29.749184716476098" lon="-8.818707870766081"><ele>1509.0</ele><time>2026-04-15T09:00:49Z</time></trkpt><trkpt lat="29.749329068503492" lon="-8.818675400279949"><ele>1509.0</ele><time>2026-04-15T09:00:50Z</time></trkpt><trkpt lat="29.74946399666954" lon="-8.818611120548173"><ele>1509.0</ele><time>2026-04-15T09:00:51Z</time></trkpt><trkpt lat="29.74959376659511" lon="-8.818531213090374"><ele>1509.0</ele><time>2026-04-15T09:00:52Z</time></trkpt><trkpt lat="29.74972067156291" lon="-8.818432115162214"><ele>1512.0</ele><time>2026-04-15T09:00:53Z</time></trkpt><trkpt lat="29.749833024690993" lon="-8.818317140405583"><ele>1515.0</ele><time>2026-04-15T09:00:54Z</time></trkpt><trkpt lat="29.749916850806365" lon="-8.818178442761576"><ele>1518.0</ele><time>2026-04-15T09:00:55Z</time></trkpt><trkpt lat="29.74996837348763" lon="-8.818012752721073"><ele>1518.0</ele><time>2026-04-15T09:00:56Z</time></trkpt><trkpt lat="29.750004353897342" lon="-8.817835344229083"><ele>1518.0</ele><time>2026-04-15T09:00:57Z</time></trkpt><trkpt lat="29.750034542575865" lon="-8.817653221843388"><ele>1518.0</ele><time>2026-04-15T09:00:58Z</time></trkpt><trkpt lat="29.7500589803867" lon="-8.817460697938612"><ele>1519.3333333333333</ele><time>2026-04-15T09:00:59Z</time></trkpt><trkpt lat="29.750078204778443" lon="-8.81726654463478"><ele>1520.6666666666665</ele><time>2026-04-15T09:01:00Z</time></trkpt><trkpt lat="29.750106417883373" lon="-8.817080177991654"><ele>1522.0</ele><time>2026-04-15T09:01:01Z</time></trkpt><trkpt lat="29.750155807715412" lon="-8.816915217365453"><ele>1522.5</ele><time>2026-04-15T09:01:02Z</time></trkpt><trkpt lat="29.750203846163345" lon="-8.81675353356259"><ele>1523.0</ele><time>2026-04-15T09:01:03Z</time></trkpt><trkpt lat="29.750249781637116" lon="-8.81659858360958"><ele>1523.5</ele><time>2026-04-15T09:01:04Z</time></trkpt><trkpt lat="29.75034563225617" lon="-8.816473863835549"><ele>1524.0</ele><time>2026-04-15T09:01:05Z</time></trkpt><trkpt lat="29.75043365917512" lon="-8.816356930619357"><ele>1520.0</ele><time>2026-04-15T09:01:06Z</time></trkpt><trkpt lat="29.750544574502378" lon="-8.816272565433474"><ele>1516.0</ele><time>2026-04-15T09:01:07Z</time></trkpt><trkpt lat="29.75067315044353" lon="-8.816208399025133"><ele>1512.0</ele><time>2026-04-15T09:01:08Z</time></trkpt><trkpt lat="29.750822708460426" lon="-8.816165057604893"><ele>1508.0</ele><time>2026-04-15T09:01:09Z</time></trkpt><trkpt lat="29.75098721199508" lon="-8.81613695740671"><ele>1504.3333333333335</ele><time>2026-04-15T09:01:10Z</time></trkpt><trkpt lat="29.751171799415363" lon="-8.816115549159752"><ele>1500.6666666666667</ele><time>2026-04-15T09:01:11Z</time></trkpt><trkpt lat="29.751362917681224" lon="-8.816086504514052"><ele>1497.0</ele><time>2026-04-15T09:01:12Z</time></trkpt><trkpt lat="29.751568585011057" lon="-8.816046433654789"><ele>1499.0</ele><time>2026-04-15T09:01:13Z</time></trkpt><trkpt lat="29.75178685519932" lon="-8.815985651875986"><ele>1501.0</ele><time>2026-04-15T09:01:14Z</time></trkpt><trkpt lat="29.75201640854935" lon="-8.815925321150495"><ele>1501.0</ele><time>2026-04-15T09:01:15Z</time></trkpt><trkpt lat="29.75225216697185" lon="-8.815858319665356"><ele>1501.0</ele><time>2026-04-15T09:01:16Z</time></trkpt><trkpt lat="29.75249172711379" lon="-8.81578041183302"><ele>1499.0</ele><time>2026-04-15T09:01:17Z</time></trkpt><trkpt lat="29.752736528255525" lon="-8.81568578936396"><ele>1497.0</ele><time>2026-04-15T09:01:18Z</time></trkpt><trkpt lat="29.752982923869716" lon="-8.815582267633063"><ele>1497.0</ele><time>2026-04-15T09:01:19Z</time></trkpt><trkpt lat="29.753208738617435" lon="-8.815482755312853"><ele>1497.0</ele><time>2026-04-15T09:01:20Z</time></trkpt><trkpt lat="29.75340800091973" lon="-8.815391662755196"><ele>1496.3333333333333</ele><time>2026-04-15T09:01:21Z</time></trkpt><trkpt lat="29.75358723460396" lon="-8.815311952552902"><ele>1495.6666666666665</ele><time>2026-04-15T09:01:22Z</time></trkpt><trkpt lat="29.753749066491974" lon="-8.815244020062545"><ele>1495.0</ele><time>2026-04-15T09:01:23Z</time></trkpt><trkpt lat="29.75389439335813" lon="-8.815177602075421"><ele>1498.0</ele><time>2026-04-15T09:01:24Z</time></trkpt><trkpt lat="29.754029117465322" lon="-8.815082760404392"><ele>1501.0</ele><time>2026-04-15T09:01:25Z</time></trkpt><trkpt lat="29.754151612546107" lon="-8.814959773470642"><ele>1504.0</ele><time>2026-04-15T09:01:26Z</time></trkpt><trkpt lat="29.75425612358941" lon="-8.814805740519956"><ele>1504.0</ele><time>2026-04-15T09:01:27Z</time></trkpt><trkpt lat="29.75434416792906" lon="-8.814645203382053"><ele>1504.0</ele><time>2026-04-15T09:01:28Z</time></trkpt><trkpt lat="29.754407219743324" lon="-8.814480691551918"><ele>1504.0</ele><time>2026-04-15T09:01:29Z</time></trkpt><trkpt lat="29.754416141652328" lon="-8.814307978059587"><ele>1500.0</ele><time>2026-04-15T09:01:30Z</time></trkpt><trkpt lat="29.75441591763726" lon="-8.814125070630169"><ele>1496.0</ele><time>2026-04-15T09:01:31Z</time></trkpt><trkpt lat="29.75441818180464" lon="-8.813928334041135"><ele>1492.0</ele><time>2026-04-15T09:01:32Z</time></trkpt><trkpt lat="29.754424691456304" lon="-8.813716545403752"><ele>1492.0</ele><time>2026-04-15T09:01:33Z</time></trkpt><trkpt lat="29.754400037877925" lon="-8.813514856147789"><ele>1492.0</ele><time>2026-04-15T09:01:34Z</time></trkpt><trkpt lat="29.75439248703029" lon="-8.813334826607525"><ele>1492.0</ele><time>2026-04-15T09:01:35Z</time></trkpt><trkpt lat="29.754393931242866" lon="-8.81315820243317"><ele>1492.6666666666665</ele><time>2026-04-15T09:01:36Z</time></trkpt><trkpt lat="29.754422055220903" lon="-8.812991553981062"><ele>1493.3333333333333</ele><time>2026-04-15T09:01:37Z</time></trkpt><trkpt lat="29.754455581736334" lon="-8.812821373707228"><ele>1494.0</ele><time>2026-04-15T09:01:38Z</time></trkpt><trkpt lat="29.754504836985845" lon="-8.812642287534322"><ele>1495.3333333333333</ele><time>2026-04-15T09:01:39Z</time></trkpt><trkpt lat="29.75456598333366" lon="-8.812461376229894"><ele>1496.6666666666665</ele><time>2026-04-15T09:01:40Z</time></trkpt><trkpt lat="29.754644900717317" lon="-8.812285145987522"><ele>1498.0</ele><time>2026-04-15T09:01:41Z</time></trkpt><trkpt lat="29.754738915545" lon="-8.8121090715189"><ele>1498.0</ele><time>2026-04-15T09:01:42Z</time></trkpt><trkpt lat="29.754839524740735" lon="-8.81192908458186"><ele>1498.0</ele><time>2026-04-15T09:01:43Z</time></trkpt><trkpt lat="29.754947271994503" lon="-8.811764608061237"><ele>1498.0</ele><time>2026-04-15T09:01:44Z</time></trkpt><trkpt lat="29.755074182259694" lon="-8.811603398351394"><ele>1498.6666666666665</ele><time>2026-04-15T09:01:45Z</time></trkpt><trkpt lat="29.755204183008892" lon="-8.811439733270872"><ele>1499.3333333333333</ele><time>2026-04-15T09:01:46Z</time></trkpt><trkpt lat="29.75534481361429" lon="-8.811274402002661"><ele>1500.0</ele><time>2026-04-15T09:01:47Z</time></trkpt><trkpt lat="29.75549181126636" lon="-8.811109457785687"><ele>1504.0</ele><time>2026-04-15T09:01:48Z</time></trkpt><trkpt lat="29.755643371320268" lon="-8.810948580389153"><ele>1508.0</ele><time>2026-04-15T09:01:49Z</time></trkpt><trkpt lat="29.755793133541847" lon="-8.810803486654164"><ele>1512.0</ele><time>2026-04-15T09:01:50Z</time></trkpt><trkpt lat="29.75594757412201" lon="-8.810670891929622"><ele>1510.0</ele><time>2026-04-15T09:01:51Z</time></trkpt><trkpt lat="29.756112206133132" lon="-8.81055679243983"><ele>1508.0</ele><time>2026-04-15T09:01:52Z</time></trkpt><trkpt lat="29.75628349776421" lon="-8.81045433680174"><ele>1506.0</ele><time>2026-04-15T09:01:53Z</time></trkpt><trkpt lat="29.75644378841887" lon="-8.810372175589222"><ele>1506.0</ele><time>2026-04-15T09:01:54Z</time></trkpt><trkpt lat="29.756589019886956" lon="-8.810299928524364"><ele>1506.0</ele><time>2026-04-15T09:01:55Z</time></trkpt><trkpt lat="29.756721289686727" lon="-8.810233457454247"><ele>1506.0</ele><time>2026-04-15T09:01:56Z</time></trkpt><trkpt lat="29.756844233611595" lon="-8.810169069620326"><ele>1506.0</ele><time>2026-04-15T09:01:57Z</time></trkpt><trkpt lat="29.756957226331615" lon="-8.810111351085162"><ele>1508.0</ele><time>2026-04-15T09:01:58Z</time></trkpt><trkpt lat="29.757060869833925" lon="-8.810052033266501"><ele>1510.0</ele><time>2026-04-15T09:01:59Z</time></trkpt><trkpt lat="29.757160852833366" lon="-8.80999510000797"><ele>1512.0</ele><time>2026-04-15T09:02:00Z</time></trkpt><trkpt lat="29.75726031806619" lon="-8.809939294714077"><ele>1514.0</ele><time>2026-04-15T09:02:01Z</time></trkpt><trkpt lat="29.757355795722372" lon="-8.80988903898472"><ele>1516.0</ele><time>2026-04-15T09:02:02Z</time></trkpt><trkpt lat="29.75743012880198" lon="-8.80980941988893"><ele>1516.0</ele><time>2026-04-15T09:02:03Z</time></trkpt><trkpt lat="29.757516545341925" lon="-8.809748045489508"><ele>1516.0</ele><time>2026-04-15T09:02:04Z</time></trkpt><trkpt lat="29.757583679009663" lon="-8.809660279865081"><ele>1516.0</ele><time>2026-04-15T09:02:05Z</time></trkpt><trkpt lat="29.757643799337398" lon="-8.809565179965443"><ele>1516.0</ele><time>2026-04-15T09:02:06Z</time></trkpt><trkpt lat="29.757688233607073" lon="-8.80946716541364"><ele>1516.0</ele><time>2026-04-15T09:02:07Z</time></trkpt><trkpt lat="29.7577222715721" lon="-8.809361592572374"><ele>1515.5</ele><time>2026-04-15T09:02:08Z</time></trkpt><trkpt lat="29.757730754000136" lon="-8.809258965035315"><ele>1515.0</ele><time>2026-04-15T09:02:09Z</time></trkpt><trkpt lat="29.75770516996655" lon="-8.809170809490853"><ele>1514.5</ele><time>2026-04-15T09:02:10Z</time></trkpt><trkpt lat="29.757699920386177" lon="-8.809084556826724"><ele>1514.0</ele><time>2026-04-15T09:02:11Z</time></trkpt><trkpt lat="29.75766904134621" lon="-8.809010243079403"><ele>1513.5</ele><time>2026-04-15T09:02:12Z</time></trkpt><trkpt lat="29.75762433393412" lon="-8.808944183043717"><ele>1513.0</ele><time>2026-04-15T09:02:13Z</time></trkpt><trkpt lat="29.75756139702878" lon="-8.808886572647493"><ele>1515.3333333333333</ele><time>2026-04-15T09:02:14Z</time></trkpt><trkpt lat="29.757487514841145" lon="-8.808843321402193"><ele>1517.6666666666665</ele><time>2026-04-15T09:02:15Z</time></trkpt><trkpt lat="29.75739898369146" lon="-8.808847771446517"><ele>1520.0</ele><time>2026-04-15T09:02:16Z</time></trkpt><trkpt lat="29.757322947207008" lon="-8.808802842643045"><ele>1522.3333333333333</ele><time>2026-04-15T09:02:17Z</time></trkpt><trkpt lat="29.757241019318798" lon="-8.808789729879384"><ele>1524.6666666666667</ele><time>2026-04-15T09:02:18Z</time></trkpt><trkpt lat="29.757165023811552" lon="-8.808753657425246"><ele>1527.0</ele><time>2026-04-15T09:02:19Z</time></trkpt><trkpt lat="29.757080803961095" lon="-8.808735814748127"><ele>1527.0</ele><time>2026-04-15T09:02:20Z</time></trkpt><trkpt lat="29.757004995238823" lon="-8.808695274877968"><ele>1527.0</ele><time>2026-04-15T09:02:21Z</time></trkpt><trkpt lat="29.756928652595658" lon="-8.808648638635557"><ele>1527.0</ele><time>2026-04-15T09:02:22Z</time></trkpt><trkpt lat="29.7568526218854" lon="-8.808596659163669"><ele>1527.0</ele><time>2026-04-15T09:02:23Z</time></trkpt><trkpt lat="29.75678497362471" lon="-8.808528007159447"><ele>1527.0</ele><time>2026-04-15T09:02:24Z</time></trkpt><trkpt lat="29.756719432447348" lon="-8.808463581759307"><ele>1527.0</ele><time>2026-04-15T09:02:25Z</time></trkpt><trkpt lat="29.756665497332538" lon="-8.808367764406276"><ele>1527.6666666666667</ele><time>2026-04-15T09:02:26Z</time></trkpt><trkpt lat="29.75661385314142" lon="-8.80827777638447"><ele>1528.3333333333333</ele><time>2026-04-15T09:02:27Z</time></trkpt><trkpt lat="29.756598592390475" lon="-8.808171068038757"><ele>1529.0</ele><time>2026-04-15T09:02:28Z</time></trkpt><trkpt lat="29.756563841079853" lon="-8.808073644837219"><ele>1529.6666666666665</ele><time>2026-04-15T09:02:29Z</time></trkpt><trkpt lat="29.756547590629264" lon="-8.807979845465614"><ele>1530.3333333333333</ele><time>2026-04-15T09:02:30Z</time></trkpt><trkpt lat="29.756527817099244" lon="-8.807885638754895"><ele>1531.0</ele><time>2026-04-15T09:02:31Z</time></trkpt><trkpt lat="29.756500608368857" lon="-8.807793491040607"><ele>1531.0</ele><time>2026-04-15T09:02:32Z</time></trkpt><trkpt lat="29.756486711229467" lon="-8.80769843184284"><ele>1531.0</ele><time>2026-04-15T09:02:33Z</time></trkpt><trkpt lat="29.756475991650877" lon="-8.807603550402943"><ele>1531.0</ele><time>2026-04-15T09:02:34Z</time></trkpt><trkpt lat="29.75646234599435" lon="-8.807510951784469"><ele>1531.0</ele><time>2026-04-15T09:02:35Z</time></trkpt><trkpt lat="29.756446691516434" lon="-8.807418204828878"><ele>1531.0</ele><time>2026-04-15T09:02:36Z</time></trkpt><trkpt lat="29.756436325186257" lon="-8.80732422703247"><ele>1531.0</ele><time>2026-04-15T09:02:37Z</time></trkpt><trkpt lat="29.756424637599057" lon="-8.80723229318692"><ele>1529.3333333333333</ele><time>2026-04-15T09:02:38Z</time></trkpt><trkpt lat="29.756412745770124" lon="-8.807137331842346"><ele>1527.6666666666665</ele><time>2026-04-15T09:02:39Z</time></trkpt><trkpt lat="29.75639239810017" lon="-8.807039729851645"><ele>1526.0</ele><time>2026-04-15T09:02:40Z</time></trkpt><trkpt lat="29.756394848647194" lon="-8.806944640000422"><ele>1524.3333333333333</ele><time>2026-04-15T09:02:41Z</time></trkpt><trkpt lat="29.756402717658982" lon="-8.806847645929517"><ele>1522.6666666666667</ele><time>2026-04-15T09:02:42Z</time></trkpt><trkpt lat="29.756415381725166" lon="-8.80675181203645"><ele>1521.0</ele><time>2026-04-15T09:02:43Z</time></trkpt><trkpt lat="29.756420950904936" lon="-8.80665738166319"><ele>1521.0</ele><time>2026-04-15T09:02:44Z</time></trkpt><trkpt lat="29.756434549103023" lon="-8.806576509509446"><ele>1521.0</ele><time>2026-04-15T09:02:45Z</time></trkpt><trkpt lat="29.756443747638688" lon="-8.806500623199966"><ele>1521.0</ele><time>2026-04-15T09:02:46Z</time></trkpt><trkpt lat="29.756467026385327" lon="-8.806389946549182"><ele>1521.0</ele><time>2026-04-15T09:02:48Z</time></trkpt><trkpt lat="29.756491612305442" lon="-8.806308705704064"><ele>1521.0</ele><time>2026-04-15T09:04:03Z</time></trkpt><trkpt lat="29.756524436920998" lon="-8.806210572272281"><ele>1521.0</ele><time>2026-04-15T09:04:05Z</time></trkpt><trkpt lat="29.756556443514167" lon="-8.80607524754782"><ele>1522.6666666666667</ele><time>2026-04-15T09:04:07Z</time></trkpt><trkpt lat="29.75657163121382" lon="-8.80598543737194"><ele>1524.3333333333333</ele><time>2026-04-15T09:04:08Z</time></trkpt><trkpt lat="29.756592741884923" lon="-8.805885205118077"><ele>1526.0</ele><time>2026-04-15T09:04:09Z</time></trkpt><trkpt lat="29.756613507684754" lon="-8.805786223772227"><ele>1527.6666666666665</ele><time>2026-04-15T09:04:10Z</time></trkpt><trkpt lat="29.75663190933335" lon="-8.805683848829732"><ele>1529.3333333333333</ele><time>2026-04-15T09:04:11Z</time></trkpt><trkpt lat="29.75664828924082" lon="-8.805573459342934"><ele>1531.0</ele><time>2026-04-15T09:04:12Z</time></trkpt><trkpt lat="29.756667864086374" lon="-8.805450877289246"><ele>1531.0</ele><time>2026-04-15T09:04:13Z</time></trkpt><trkpt lat="29.756663002595054" lon="-8.805316987012647"><ele>1531.0</ele><time>2026-04-15T09:04:14Z</time></trkpt><trkpt lat="29.75666561778055" lon="-8.805183296839292"><ele>1531.0</ele><time>2026-04-15T09:04:15Z</time></trkpt><trkpt lat="29.75667317345983" lon="-8.805057586378627"><ele>1531.0</ele><time>2026-04-15T09:04:16Z</time></trkpt><trkpt lat="29.75663126903416" lon="-8.804947612201351"><ele>1531.0</ele><time>2026-04-15T09:04:17Z</time></trkpt><trkpt lat="29.756616521139886" lon="-8.804836439428902"><ele>1531.1999999999998</ele><time>2026-04-15T09:04:18Z</time></trkpt><trkpt lat="29.756548278251834" lon="-8.804755389224699"><ele>1531.3999999999999</ele><time>2026-04-15T09:04:19Z</time></trkpt><trkpt lat="29.756506038756505" lon="-8.80465618453991"><ele>1531.6</ele><time>2026-04-15T09:04:20Z</time></trkpt><trkpt lat="29.75642338754358" lon="-8.804584494867642"><ele>1531.8</ele><time>2026-04-15T09:04:21Z</time></trkpt><trkpt lat="29.75632940711437" lon="-8.804524356937481"><ele>1532.0</ele><time>2026-04-15T09:04:22Z</time></trkpt><trkpt lat="29.756230877137224" lon="-8.804477742936477"><ele>1532.0</ele><time>2026-04-15T09:04:23Z</time></trkpt><trkpt lat="29.756127030920954" lon="-8.804448358098826"><ele>1532.0</ele><time>2026-04-15T09:04:24Z</time></trkpt><trkpt lat="29.756016633268835" lon="-8.80445932347435"><ele>1532.0</ele><time>2026-04-15T09:04:25Z</time></trkpt><trkpt lat="29.755904901371164" lon="-8.804471463691726"><ele>1532.0</ele><time>2026-04-15T09:04:26Z</time></trkpt><trkpt lat="29.755793132234867" lon="-8.804493292056202"><ele>1532.0</ele><time>2026-04-15T09:04:27Z</time></trkpt><trkpt lat="29.755682630902204" lon="-8.804522797646184"><ele>1536.25</ele><time>2026-04-15T09:04:28Z</time></trkpt><trkpt lat="29.755570968031506" lon="-8.804552613388912"><ele>1540.5</ele><time>2026-04-15T09:04:29Z</time></trkpt><trkpt lat="29.755448932962345" lon="-8.80456438239036"><ele>1544.75</ele><time>2026-04-15T09:04:30Z</time></trkpt><trkpt lat="29.75532460227359" lon="-8.804573326050011"><ele>1549.0</ele><time>2026-04-15T09:04:31Z</time></trkpt><trkpt lat="29.755197377812735" lon="-8.804560716144502"><ele>1551.0</ele><time>2026-04-15T09:04:32Z</time></trkpt><trkpt lat="29.755074975931322" lon="-8.804537232749672"><ele>1553.0</ele><time>2026-04-15T09:04:33Z</time></trkpt><trkpt lat="29.754960830005324" lon="-8.804482923199515"><ele>1555.0</ele><time>2026-04-15T09:04:34Z</time></trkpt><trkpt lat="29.75484601294818" lon="-8.80444221635319"><ele>1557.0</ele><time>2026-04-15T09:04:35Z</time></trkpt><trkpt lat="29.7547343238221" lon="-8.804397788934294"><ele>1557.0</ele><time>2026-04-15T09:04:36Z</time></trkpt><trkpt lat="29.754631089503114" lon="-8.804334502332427"><ele>1557.0</ele><time>2026-04-15T09:04:37Z</time></trkpt><trkpt lat="29.754520045764412" lon="-8.804284336952474"><ele>1557.0</ele><time>2026-04-15T09:04:38Z</time></trkpt><trkpt lat="29.754417731164214" lon="-8.804196265615776"><ele>1557.0</ele><time>2026-04-15T09:04:39Z</time></trkpt><trkpt lat="29.754325928269854" lon="-8.804101342323804"><ele>1552.75</ele><time>2026-04-15T09:04:40Z</time></trkpt><trkpt lat="29.75423527927136" lon="-8.803999448415643"><ele>1548.5</ele><time>2026-04-15T09:04:41Z</time></trkpt><trkpt lat="29.754158621248436" lon="-8.803872195589399"><ele>1544.25</ele><time>2026-04-15T09:04:42Z</time></trkpt><trkpt lat="29.754083890305882" lon="-8.803738196904224"><ele>1540.0</ele><time>2026-04-15T09:04:43Z</time></trkpt><trkpt lat="29.754023535749774" lon="-8.803602975045221"><ele>1539.25</ele><time>2026-04-15T09:04:44Z</time></trkpt><trkpt lat="29.753976999985237" lon="-8.803458535124937"><ele>1538.5</ele><time>2026-04-15T09:04:45Z</time></trkpt><trkpt lat="29.753939636053115" lon="-8.803322893711792"><ele>1537.75</ele><time>2026-04-15T09:04:46Z</time></trkpt><trkpt lat="29.753915404243116" lon="-8.803177930731154"><ele>1537.0</ele><time>2026-04-15T09:04:47Z</time></trkpt><trkpt lat="29.753892726380393" lon="-8.80303424627918"><ele>1537.0</ele><time>2026-04-15T09:04:48Z</time></trkpt><trkpt lat="29.753869646897737" lon="-8.802888017180567"><ele>1537.0</ele><time>2026-04-15T09:04:49Z</time></trkpt><trkpt lat="29.753850416601853" lon="-8.802741751782339"><ele>1537.0</ele><time>2026-04-15T09:04:50Z</time></trkpt><trkpt lat="29.753831041183172" lon="-8.80259604468166"><ele>1537.0</ele><time>2026-04-15T09:04:51Z</time></trkpt><trkpt lat="29.75381730362395" lon="-8.802447090621435"><ele>1537.25</ele><time>2026-04-15T09:04:52Z</time></trkpt><trkpt lat="29.753803478178156" lon="-8.802298187762364"><ele>1537.5</ele><time>2026-04-15T09:04:53Z</time></trkpt><trkpt lat="29.75378918831205" lon="-8.802148075913975"><ele>1537.75</ele><time>2026-04-15T09:04:54Z</time></trkpt><trkpt lat="29.753773007599715" lon="-8.801998017139734"><ele>1538.0</ele><time>2026-04-15T09:04:55Z</time></trkpt><trkpt lat="29.75375708490141" lon="-8.801850351178459"><ele>1538.75</ele><time>2026-04-15T09:04:56Z</time></trkpt><trkpt lat="29.753740732352558" lon="-8.801698698805847"><ele>1539.5</ele><time>2026-04-15T09:04:57Z</time></trkpt><trkpt lat="29.753722334840855" lon="-8.801547771659635"><ele>1540.25</ele><time>2026-04-15T09:04:58Z</time></trkpt><trkpt lat="29.753700746746052" lon="-8.801395623731699"><ele>1541.0</ele><time>2026-04-15T09:04:59Z</time></trkpt><trkpt lat="29.753679599487775" lon="-8.8012465826594"><ele>1541.0</ele><time>2026-04-15T09:05:00Z</time></trkpt><trkpt lat="29.753665827049534" lon="-8.801103264162009"><ele>1541.0</ele><time>2026-04-15T09:05:01Z</time></trkpt><trkpt lat="29.753632606745043" lon="-8.800972917048496"><ele>1541.0</ele><time>2026-04-15T09:05:02Z</time></trkpt><trkpt lat="29.75355528334488" lon="-8.800865625230712"><ele>1541.0</ele><time>2026-04-15T09:05:03Z</time></trkpt><trkpt lat="29.75347712423016" lon="-8.800765518089136"><ele>1545.5</ele><time>2026-04-15T09:05:04Z</time></trkpt><trkpt lat="29.753389455904028" lon="-8.800667023208309"><ele>1550.0</ele><time>2026-04-15T09:05:05Z</time></trkpt><trkpt lat="29.753291874370724" lon="-8.800581739489793"><ele>1554.5</ele><time>2026-04-15T09:05:06Z</time></trkpt><trkpt lat="29.753183705554935" lon="-8.800500038445627"><ele>1559.0</ele><time>2026-04-15T09:05:07Z</time></trkpt><trkpt lat="29.753061199030896" lon="-8.80046727181797"><ele>1559.0</ele><time>2026-04-15T09:05:08Z</time></trkpt><trkpt lat="29.752934666581147" lon="-8.800430440365355"><ele>1559.0</ele><time>2026-04-15T09:05:09Z</time></trkpt><trkpt lat="29.75280507647739" lon="-8.800388839843547"><ele>1559.0</ele><time>2026-04-15T09:05:10Z</time></trkpt><trkpt lat="29.752670960294125" lon="-8.800345786384455"><ele>1559.0</ele><time>2026-04-15T09:05:11Z</time></trkpt><trkpt lat="29.752535503852897" lon="-8.800301017656102"><ele>1556.25</ele><time>2026-04-15T09:05:12Z</time></trkpt><trkpt lat="29.752398534087785" lon="-8.800236947934694"><ele>1553.5</ele><time>2026-04-15T09:05:13Z</time></trkpt><trkpt lat="29.75226304628279" lon="-8.800194682104964"><ele>1550.75</ele><time>2026-04-15T09:05:14Z</time></trkpt><trkpt lat="29.752126282956144" lon="-8.800144810282454"><ele>1548.0</ele><time>2026-04-15T09:05:15Z</time></trkpt><trkpt lat="29.75198975881161" lon="-8.800086563373737"><ele>1550.0</ele><time>2026-04-15T09:05:16Z</time></trkpt><trkpt lat="29.751852063865385" lon="-8.800028434282693"><ele>1552.0</ele><time>2026-04-15T09:05:17Z</time></trkpt><trkpt lat="29.75172826113325" lon="-8.799948654975298"><ele>1554.0</ele><time>2026-04-15T09:05:18Z</time></trkpt><trkpt lat="29.751608070027007" lon="-8.799868880768772"><ele>1556.0</ele><time>2026-04-15T09:05:19Z</time></trkpt><trkpt lat="29.751485833305523" lon="-8.799798633927942"><ele>1556.0</ele><time>2026-04-15T09:05:20Z</time></trkpt><trkpt lat="29.751366654309123" lon="-8.799730337215909"><ele>1556.0</ele><time>2026-04-15T09:05:21Z</time></trkpt><trkpt lat="29.75126060345148" lon="-8.799657272622502"><ele>1556.0</ele><time>2026-04-15T09:05:22Z</time></trkpt><trkpt lat="29.751159905409153" lon="-8.799571322029"><ele>1556.0</ele><time>2026-04-15T09:05:23Z</time></trkpt><trkpt lat="29.751069854717358" lon="-8.799465307692767"><ele>1556.0</ele><time>2026-04-15T09:05:24Z</time></trkpt><trkpt lat="29.750993869297645" lon="-8.79934073257381"><ele>1556.0</ele><time>2026-04-15T09:05:25Z</time></trkpt><trkpt lat="29.750939962102454" lon="-8.799203356178424"><ele>1556.0</ele><time>2026-04-15T09:05:26Z</time></trkpt><trkpt lat="29.75091892187427" lon="-8.799044431034053"><ele>1556.0</ele><time>2026-04-15T09:05:27Z</time></trkpt><trkpt lat="29.750910481204958" lon="-8.798875282984277"><ele>1556.0</ele><time>2026-04-15T09:05:28Z</time></trkpt><trkpt lat="29.750924673403247" lon="-8.798705397049607"><ele>1556.0</ele><time>2026-04-15T09:05:29Z</time></trkpt><trkpt lat="29.750959054447282" lon="-8.798529565029687"><ele>1556.0</ele><time>2026-04-15T09:05:30Z</time></trkpt><trkpt lat="29.751004804086215" lon="-8.798355412273946"><ele>1554.3333333333333</ele><time>2026-04-15T09:05:31Z</time></trkpt><trkpt lat="29.751048954413136" lon="-8.798177940492053"><ele>1552.6666666666665</ele><time>2026-04-15T09:05:32Z</time></trkpt><trkpt lat="29.75108585008356" lon="-8.79799967247533"><ele>1551.0</ele><time>2026-04-15T09:05:33Z</time></trkpt><trkpt lat="29.751113220352746" lon="-8.797826744269718"><ele>1552.3333333333335</ele><time>2026-04-15T09:05:34Z</time></trkpt><trkpt lat="29.7511381555692" lon="-8.797653230007882"><ele>1553.6666666666667</ele><time>2026-04-15T09:05:35Z</time></trkpt><trkpt lat="29.751161296900854" lon="-8.797479194919813"><ele>1555.0</ele><time>2026-04-15T09:05:36Z</time></trkpt><trkpt lat="29.751176982702226" lon="-8.797309312177337"><ele>1555.0</ele><time>2026-04-15T09:05:37Z</time></trkpt><trkpt lat="29.751187635506923" lon="-8.797146109508033"><ele>1555.0</ele><time>2026-04-15T09:05:38Z</time></trkpt><trkpt lat="29.75118851989904" lon="-8.79698535525527"><ele>1555.0</ele><time>2026-04-15T09:05:39Z</time></trkpt><trkpt lat="29.751191723837177" lon="-8.796826856538686"><ele>1555.0</ele><time>2026-04-15T09:05:40Z</time></trkpt><trkpt lat="29.751200934028265" lon="-8.796670329068455"><ele>1556.75</ele><time>2026-04-15T09:05:41Z</time></trkpt><trkpt lat="29.751204991450447" lon="-8.79650763652656"><ele>1558.5</ele><time>2026-04-15T09:05:42Z</time></trkpt><trkpt lat="29.751191490161666" lon="-8.796345722369582"><ele>1560.25</ele><time>2026-04-15T09:05:43Z</time></trkpt><trkpt lat="29.75116963176544" lon="-8.796179840151673"><ele>1562.0</ele><time>2026-04-15T09:05:44Z</time></trkpt><trkpt lat="29.751144233441686" lon="-8.796011040661043"><ele>1562.0</ele><time>2026-04-15T09:05:45Z</time></trkpt><trkpt lat="29.751118297510352" lon="-8.795841994535433"><ele>1562.0</ele><time>2026-04-15T09:05:46Z</time></trkpt><trkpt lat="29.75109389758048" lon="-8.795675477677984"><ele>1562.0</ele><time>2026-04-15T09:05:47Z</time></trkpt><trkpt lat="29.751072118418225" lon="-8.795510974593997"><ele>1562.0</ele><time>2026-04-15T09:05:48Z</time></trkpt><trkpt lat="29.751050025409054" lon="-8.795346080860082"><ele>1560.3333333333333</ele><time>2026-04-15T09:05:49Z</time></trkpt><trkpt lat="29.75102719337705" lon="-8.79517633420243"><ele>1558.6666666666665</ele><time>2026-04-15T09:05:50Z</time></trkpt><trkpt lat="29.751009072201175" lon="-8.795003365129997"><ele>1557.0</ele><time>2026-04-15T09:05:51Z</time></trkpt><trkpt lat="29.750987253325448" lon="-8.79482996414618"><ele>1557.0</ele><time>2026-04-15T09:05:52Z</time></trkpt><trkpt lat="29.7509665268259" lon="-8.794656852986662"><ele>1557.0</ele><time>2026-04-15T09:05:53Z</time></trkpt><trkpt lat="29.750943956905335" lon="-8.794483864116657"><ele>1557.0</ele><time>2026-04-15T09:05:54Z</time></trkpt><trkpt lat="29.750916247758738" lon="-8.794310648977039"><ele>1557.25</ele><time>2026-04-15T09:05:55Z</time></trkpt><trkpt lat="29.750888714701667" lon="-8.794138037924252"><ele>1557.5</ele><time>2026-04-15T09:05:56Z</time></trkpt><trkpt lat="29.750865514677407" lon="-8.79396712921274"><ele>1557.75</ele><time>2026-04-15T09:05:57Z</time></trkpt><trkpt lat="29.750848290723297" lon="-8.793801278896622"><ele>1558.0</ele><time>2026-04-15T09:05:58Z</time></trkpt><trkpt lat="29.75083380706937" lon="-8.793637042464756"><ele>1559.0</ele><time>2026-04-15T09:05:59Z</time></trkpt><trkpt lat="29.750826575845025" lon="-8.793474710756119"><ele>1560.0</ele><time>2026-04-15T09:06:00Z</time></trkpt><trkpt lat="29.750836007080416" lon="-8.793316330153552"><ele>1561.0</ele><time>2026-04-15T09:06:01Z</time></trkpt><trkpt lat="29.750860694085716" lon="-8.793159022668178"><ele>1562.0</ele><time>2026-04-15T09:06:02Z</time></trkpt><trkpt lat="29.75090148631722" lon="-8.793004405447526"><ele>1562.0</ele><time>2026-04-15T09:06:03Z</time></trkpt><trkpt lat="29.750957437605344" lon="-8.792855735693516"><ele>1562.0</ele><time>2026-04-15T09:06:04Z</time></trkpt><trkpt lat="29.751020943726793" lon="-8.79270946666321"><ele>1562.0</ele><time>2026-04-15T09:06:05Z</time></trkpt><trkpt lat="29.751092196991195" lon="-8.792565814255145"><ele>1562.0</ele><time>2026-04-15T09:06:06Z</time></trkpt><trkpt lat="29.751170261621336" lon="-8.792427502871755"><ele>1566.5</ele><time>2026-04-15T09:06:07Z</time></trkpt><trkpt lat="29.751259592237503" lon="-8.792294525067843"><ele>1571.0</ele><time>2026-04-15T09:06:08Z</time></trkpt><trkpt lat="29.75135746064856" lon="-8.792166758052183"><ele>1575.5</ele><time>2026-04-15T09:06:09Z</time></trkpt><trkpt lat="29.751468973296426" lon="-8.792056705043679"><ele>1580.0</ele><time>2026-04-15T09:06:10Z</time></trkpt><trkpt lat="29.75159031786308" lon="-8.791952242348449"><ele>1580.0</ele><time>2026-04-15T09:06:11Z</time></trkpt><trkpt lat="29.751717059453277" lon="-8.791851964267105"><ele>1580.0</ele><time>2026-04-15T09:06:12Z</time></trkpt><trkpt lat="29.751843412986112" lon="-8.791748462988643"><ele>1580.0</ele><time>2026-04-15T09:06:13Z</time></trkpt><trkpt lat="29.75196524411486" lon="-8.791644596211501"><ele>1581.3333333333333</ele><time>2026-04-15T09:06:14Z</time></trkpt><trkpt lat="29.7520889076448" lon="-8.791545573840773"><ele>1582.6666666666665</ele><time>2026-04-15T09:06:15Z</time></trkpt><trkpt lat="29.75221702305151" lon="-8.791445153637719"><ele>1584.0</ele><time>2026-04-15T09:06:16Z</time></trkpt><trkpt lat="29.75234511965905" lon="-8.79133924934246"><ele>1584.0</ele><time>2026-04-15T09:06:17Z</time></trkpt><trkpt lat="29.7524714060971" lon="-8.791231074891277"><ele>1584.0</ele><time>2026-04-15T09:06:18Z</time></trkpt><trkpt lat="29.7525912489305" lon="-8.791122439309142"><ele>1584.0</ele><time>2026-04-15T09:06:19Z</time></trkpt><trkpt lat="29.752709844623183" lon="-8.791028993343541"><ele>1585.25</ele><time>2026-04-15T09:06:20Z</time></trkpt><trkpt lat="29.752826053023636" lon="-8.790942660668517"><ele>1586.5</ele><time>2026-04-15T09:06:21Z</time></trkpt><trkpt lat="29.752928401781624" lon="-8.790838225136786"><ele>1587.75</ele><time>2026-04-15T09:06:22Z</time></trkpt><trkpt lat="29.753010288053876" lon="-8.790710297209118"><ele>1589.0</ele><time>2026-04-15T09:06:23Z</time></trkpt><trkpt lat="29.753071773703184" lon="-8.790568559537416"><ele>1589.0</ele><time>2026-04-15T09:06:24Z</time></trkpt><trkpt lat="29.753115391180053" lon="-8.790419452504498"><ele>1589.0</ele><time>2026-04-15T09:06:25Z</time></trkpt><trkpt lat="29.753149684179007" lon="-8.79026631482329"><ele>1589.0</ele><time>2026-04-15T09:06:26Z</time></trkpt><trkpt lat="29.753178521790858" lon="-8.79011479039001"><ele>1589.0</ele><time>2026-04-15T09:06:27Z</time></trkpt><trkpt lat="29.753201153249446" lon="-8.789963747208828"><ele>1590.25</ele><time>2026-04-15T09:06:28Z</time></trkpt><trkpt lat="29.753218190361963" lon="-8.789811930918658"><ele>1591.5</ele><time>2026-04-15T09:06:29Z</time></trkpt><trkpt lat="29.75323135315784" lon="-8.789670087445689"><ele>1592.75</ele><time>2026-04-15T09:06:30Z</time></trkpt><trkpt lat="29.753244907173666" lon="-8.789533119678083"><ele>1594.0</ele><time>2026-04-15T09:06:31Z</time></trkpt><trkpt lat="29.75325904532576" lon="-8.78939167726378"><ele>1594.75</ele><time>2026-04-15T09:06:32Z</time></trkpt><trkpt lat="29.753277612205054" lon="-8.789250958742544"><ele>1595.5</ele><time>2026-04-15T09:06:33Z</time></trkpt><trkpt lat="29.753292443825075" lon="-8.78911357630527"><ele>1596.25</ele><time>2026-04-15T09:06:34Z</time></trkpt><trkpt lat="29.753304260191495" lon="-8.788981498033063"><ele>1597.0</ele><time>2026-04-15T09:06:35Z</time></trkpt><trkpt lat="29.753324572609674" lon="-8.788848728949448"><ele>1597.0</ele><time>2026-04-15T09:06:36Z</time></trkpt><trkpt lat="29.75336346750074" lon="-8.788717612504463"><ele>1597.0</ele><time>2026-04-15T09:06:37Z</time></trkpt><trkpt lat="29.753417966129525" lon="-8.788583784523485"><ele>1597.0</ele><time>2026-04-15T09:06:38Z</time></trkpt><trkpt lat="29.75349031887169" lon="-8.788453266296312"><ele>1597.0</ele><time>2026-04-15T09:06:39Z</time></trkpt><trkpt lat="29.753580472110936" lon="-8.788333065594708"><ele>1600.5</ele><time>2026-04-15T09:06:40Z</time></trkpt><trkpt lat="29.75368359289439" lon="-8.788224873632657"><ele>1604.0</ele><time>2026-04-15T09:06:41Z</time></trkpt><trkpt lat="29.753788949985488" lon="-8.7881386462822"><ele>1607.5</ele><time>2026-04-15T09:06:42Z</time></trkpt><trkpt lat="29.75390584224625" lon="-8.788069563263804"><ele>1611.0</ele><time>2026-04-15T09:06:43Z</time></trkpt><trkpt lat="29.7540299224158" lon="-8.788023343080356"><ele>1611.0</ele><time>2026-04-15T09:06:44Z</time></trkpt><trkpt lat="29.754161939356663" lon="-8.788006894065314"><ele>1611.0</ele><time>2026-04-15T09:06:45Z</time></trkpt><trkpt lat="29.754294104407983" lon="-8.788010756517219"><ele>1611.0</ele><time>2026-04-15T09:06:46Z</time></trkpt><trkpt lat="29.754426642177783" lon="-8.788033212506145"><ele>1611.0</ele><time>2026-04-15T09:06:47Z</time></trkpt><trkpt lat="29.754549112808604" lon="-8.788069795500682"><ele>1611.8</ele><time>2026-04-15T09:06:48Z</time></trkpt><trkpt lat="29.754656021390886" lon="-8.78810823068727"><ele>1612.6</ele><time>2026-04-15T09:06:49Z</time></trkpt><trkpt lat="29.754756597368207" lon="-8.788123662592376"><ele>1613.4</ele><time>2026-04-15T09:06:50Z</time></trkpt><trkpt lat="29.754841670469585" lon="-8.788108578699923"><ele>1614.2</ele><time>2026-04-15T09:06:51Z</time></trkpt><trkpt lat="29.754907216098726" lon="-8.78806811284505"><ele>1615.0</ele><time>2026-04-15T09:06:52Z</time></trkpt><trkpt lat="29.754955022262358" lon="-8.787999430021783"><ele>1615.0</ele><time>2026-04-15T09:06:53Z</time></trkpt><trkpt lat="29.75498890628689" lon="-8.787908124056809"><ele>1615.0</ele><time>2026-04-15T09:06:54Z</time></trkpt><trkpt lat="29.754997429766615" lon="-8.787810947858727"><ele>1615.0</ele><time>2026-04-15T09:06:55Z</time></trkpt><trkpt lat="29.754975415734613" lon="-8.78770583163267"><ele>1615.0</ele><time>2026-04-15T09:06:56Z</time></trkpt><trkpt lat="29.754936696985048" lon="-8.787594097708329"><ele>1615.0</ele><time>2026-04-15T09:06:57Z</time></trkpt><trkpt lat="29.754884615149578" lon="-8.787475500896777"><ele>1614.5</ele><time>2026-04-15T09:06:58Z</time></trkpt><trkpt lat="29.754829908733807" lon="-8.78734968395878"><ele>1614.0</ele><time>2026-04-15T09:06:59Z</time></trkpt><trkpt lat="29.75478612611604" lon="-8.7872211285297"><ele>1613.5</ele><time>2026-04-15T09:07:00Z</time></trkpt><trkpt lat="29.754751874070948" lon="-8.787089764020644"><ele>1613.0</ele><time>2026-04-15T09:07:01Z</time></trkpt><trkpt lat="29.754722770400186" lon="-8.786964656514483"><ele>1613.0</ele><time>2026-04-15T09:07:02Z</time></trkpt><trkpt lat="29.75467407594544" lon="-8.786847727552018"><ele>1613.0</ele><time>2026-04-15T09:07:03Z</time></trkpt><trkpt lat="29.754599005025682" lon="-8.78675311419973"><ele>1613.0</ele><time>2026-04-15T09:07:04Z</time></trkpt><trkpt lat="29.754506674832474" lon="-8.7866819296297"><ele>1613.0</ele><time>2026-04-15T09:07:05Z</time></trkpt><trkpt lat="29.754401302232544" lon="-8.78663618190155"><ele>1613.0</ele><time>2026-04-15T09:07:06Z</time></trkpt><trkpt lat="29.754283094497858" lon="-8.786612968178684"><ele>1611.75</ele><time>2026-04-15T09:07:07Z</time></trkpt><trkpt lat="29.754154336473775" lon="-8.786612985947105"><ele>1610.5</ele><time>2026-04-15T09:07:08Z</time></trkpt><trkpt lat="29.75402251182587" lon="-8.786624410174717"><ele>1609.25</ele><time>2026-04-15T09:07:09Z</time></trkpt><trkpt lat="29.753889012103954" lon="-8.78664523405025"><ele>1608.0</ele><time>2026-04-15T09:07:10Z</time></trkpt><trkpt lat="29.753762974221356" lon="-8.78667177211549"><ele>1608.0</ele><time>2026-04-15T09:07:11Z</time></trkpt><trkpt lat="29.75363812343922" lon="-8.786700867555378"><ele>1608.0</ele><time>2026-04-15T09:07:12Z</time></trkpt><trkpt lat="29.753509987799365" lon="-8.786719743405403"><ele>1608.0</ele><time>2026-04-15T09:07:13Z</time></trkpt><trkpt lat="29.753380749978135" lon="-8.786725384655194"><ele>1608.0</ele><time>2026-04-15T09:07:14Z</time></trkpt><trkpt lat="29.753252475343327" lon="-8.786718982892497"><ele>1609.5</ele><time>2026-04-15T09:07:15Z</time></trkpt><trkpt lat="29.7531308112805" lon="-8.786696466437995"><ele>1611.0</ele><time>2026-04-15T09:07:16Z</time></trkpt><trkpt lat="29.753017508588723" lon="-8.786652312809032"><ele>1612.5</ele><time>2026-04-15T09:07:17Z</time></trkpt><trkpt lat="29.75291637935936" lon="-8.786585723237192"><ele>1614.0</ele><time>2026-04-15T09:07:18Z</time></trkpt><trkpt lat="29.75282774836276" lon="-8.786490031517538"><ele>1614.0</ele><time>2026-04-15T09:07:19Z</time></trkpt><trkpt lat="29.752751618011608" lon="-8.786375784171005"><ele>1614.0</ele><time>2026-04-15T09:07:20Z</time></trkpt><trkpt lat="29.75268607629115" lon="-8.78624558939088"><ele>1614.0</ele><time>2026-04-15T09:07:21Z</time></trkpt><trkpt lat="29.752633805216337" lon="-8.786110582910199"><ele>1614.0</ele><time>2026-04-15T09:07:22Z</time></trkpt><trkpt lat="29.752601344059556" lon="-8.785965363605468"><ele>1615.25</ele><time>2026-04-15T09:07:23Z</time></trkpt><trkpt lat="29.752588732310095" lon="-8.785815910923606"><ele>1616.5</ele><time>2026-04-15T09:07:24Z</time></trkpt><trkpt lat="29.752591763035124" lon="-8.785665486144994"><ele>1617.75</ele><time>2026-04-15T09:07:25Z</time></trkpt><trkpt lat="29.752606803061354" lon="-8.785509130374294"><ele>1619.0</ele><time>2026-04-15T09:07:26Z</time></trkpt><trkpt lat="29.752634101736696" lon="-8.785352990435086"><ele>1619.0</ele><time>2026-04-15T09:07:27Z</time></trkpt><trkpt lat="29.75268376313112" lon="-8.785195024233081"><ele>1619.0</ele><time>2026-04-15T09:07:28Z</time></trkpt><trkpt lat="29.75274909080488" lon="-8.785043090491225"><ele>1619.0</ele><time>2026-04-15T09:07:29Z</time></trkpt><trkpt lat="29.752819210894796" lon="-8.784889841701629"><ele>1619.0</ele><time>2026-04-15T09:07:30Z</time></trkpt><trkpt lat="29.75288984959137" lon="-8.784730674483342"><ele>1626.25</ele><time>2026-04-15T09:07:31Z</time></trkpt><trkpt lat="29.752956149836645" lon="-8.784573223297926"><ele>1633.5</ele><time>2026-04-15T09:07:32Z</time></trkpt><trkpt lat="29.753015619978427" lon="-8.784418832590235"><ele>1640.75</ele><time>2026-04-15T09:07:33Z</time></trkpt><trkpt lat="29.75306612853821" lon="-8.78425894241261"><ele>1648.0</ele><time>2026-04-15T09:07:34Z</time></trkpt><trkpt lat="29.753108188248973" lon="-8.78409826927761"><ele>1648.0</ele><time>2026-04-15T09:07:35Z</time></trkpt><trkpt lat="29.75313919319765" lon="-8.78393216814248"><ele>1648.0</ele><time>2026-04-15T09:07:36Z</time></trkpt><trkpt lat="29.753170012121547" lon="-8.783767009750031"><ele>1648.0</ele><time>2026-04-15T09:07:37Z</time></trkpt><trkpt lat="29.753201745911845" lon="-8.78360242512917"><ele>1648.0</ele><time>2026-04-15T09:07:38Z</time></trkpt><trkpt lat="29.753227369163255" lon="-8.78344325598844"><ele>1647.25</ele><time>2026-04-15T09:07:39Z</time></trkpt><trkpt lat="29.753251665948863" lon="-8.783284901061222"><ele>1646.5</ele><time>2026-04-15T09:07:40Z</time></trkpt><trkpt lat="29.75327893104624" lon="-8.783129760663051"><ele>1645.75</ele><time>2026-04-15T09:07:41Z</time></trkpt><trkpt lat="29.753292788066908" lon="-8.782983933302734"><ele>1645.0</ele><time>2026-04-15T09:07:42Z</time></trkpt><trkpt lat="29.75329171269259" lon="-8.782841793593175"><ele>1645.0</ele><time>2026-04-15T09:07:43Z</time></trkpt><trkpt lat="29.75328654404121" lon="-8.782699062491577"><ele>1645.0</ele><time>2026-04-15T09:07:44Z</time></trkpt><trkpt lat="29.753285517654216" lon="-8.782563814473162"><ele>1645.0</ele><time>2026-04-15T09:07:45Z</time></trkpt><trkpt lat="29.75328663656397" lon="-8.782441233286791"><ele>1645.0</ele><time>2026-04-15T09:07:46Z</time></trkpt><trkpt lat="29.75329515295711" lon="-8.782325504933612"><ele>1645.0</ele><time>2026-04-15T09:07:47Z</time></trkpt><trkpt lat="29.753314128734853" lon="-8.782207940333615"><ele>1645.2</ele><time>2026-04-15T09:07:48Z</time></trkpt><trkpt lat="29.753344553516275" lon="-8.782088363800302"><ele>1645.4</ele><time>2026-04-15T09:07:49Z</time></trkpt><trkpt lat="29.75338917321471" lon="-8.78197803263096"><ele>1645.6</ele><time>2026-04-15T09:07:50Z</time></trkpt><trkpt lat="29.753451450725006" lon="-8.781874278937577"><ele>1645.8</ele><time>2026-04-15T09:07:51Z</time></trkpt><trkpt lat="29.753527340993923" lon="-8.781781810302613"><ele>1646.0</ele><time>2026-04-15T09:07:52Z</time></trkpt><trkpt lat="29.753611965354278" lon="-8.781700195402353"><ele>1644.25</ele><time>2026-04-15T09:07:53Z</time></trkpt><trkpt lat="29.753702518021193" lon="-8.78162747947737"><ele>1642.5</ele><time>2026-04-15T09:07:54Z</time></trkpt><trkpt lat="29.75380205930951" lon="-8.781569294628786"><ele>1640.75</ele><time>2026-04-15T09:07:55Z</time></trkpt><trkpt lat="29.753911975703996" lon="-8.781546440079238"><ele>1639.0</ele><time>2026-04-15T09:07:56Z</time></trkpt><trkpt lat="29.7540314064115" lon="-8.781553278411899"><ele>1639.0</ele><time>2026-04-15T09:07:57Z</time></trkpt><trkpt lat="29.754156296866476" lon="-8.781584300033291"><ele>1639.0</ele><time>2026-04-15T09:07:58Z</time></trkpt><trkpt lat="29.754284451631506" lon="-8.78161947511937"><ele>1639.0</ele><time>2026-04-15T09:07:59Z</time></trkpt><trkpt lat="29.754414722525027" lon="-8.78164615943658"><ele>1639.0</ele><time>2026-04-15T09:08:00Z</time></trkpt><trkpt lat="29.754552205899724" lon="-8.781654970787933"><ele>1637.5</ele><time>2026-04-15T09:08:01Z</time></trkpt><trkpt lat="29.75468965421728" lon="-8.781651701781408"><ele>1636.0</ele><time>2026-04-15T09:08:02Z</time></trkpt><trkpt lat="29.75482513614711" lon="-8.781634032293287"><ele>1634.5</ele><time>2026-04-15T09:08:03Z</time></trkpt><trkpt lat="29.754957736972912" lon="-8.781610012083323"><ele>1633.0</ele><time>2026-04-15T09:08:04Z</time></trkpt><trkpt lat="29.75509288183505" lon="-8.78157138476708"><ele>1629.3333333333335</ele><time>2026-04-15T09:08:05Z</time></trkpt><trkpt lat="29.755228486021608" lon="-8.781513108076652"><ele>1625.6666666666665</ele><time>2026-04-15T09:08:06Z</time></trkpt><trkpt lat="29.755366789061625" lon="-8.781438134466995"><ele>1622.0</ele><time>2026-04-15T09:08:07Z</time></trkpt><trkpt lat="29.755505175419874" lon="-8.781346982142011"><ele>1622.0</ele><time>2026-04-15T09:08:08Z</time></trkpt><trkpt lat="29.755632818016526" lon="-8.781253920519468"><ele>1622.0</ele><time>2026-04-15T09:08:09Z</time></trkpt><trkpt lat="29.755757188519635" lon="-8.781163557233953"><ele>1622.0</ele><time>2026-04-15T09:08:10Z</time></trkpt><trkpt lat="29.75587997530366" lon="-8.781077394042137"><ele>1622.0</ele><time>2026-04-15T09:08:11Z</time></trkpt><trkpt lat="29.756008375499558" lon="-8.780999751060909"><ele>1621.25</ele><time>2026-04-15T09:08:12Z</time></trkpt><trkpt lat="29.756134162327" lon="-8.78092340031187"><ele>1620.5</ele><time>2026-04-15T09:08:13Z</time></trkpt><trkpt lat="29.75626099309684" lon="-8.780852758580876"><ele>1619.75</ele><time>2026-04-15T09:08:14Z</time></trkpt><trkpt lat="29.756390572523696" lon="-8.78080174694586"><ele>1619.0</ele><time>2026-04-15T09:08:15Z</time></trkpt><trkpt lat="29.75652414388613" lon="-8.780770755663369"><ele>1619.0</ele><time>2026-04-15T09:08:16Z</time></trkpt><trkpt lat="29.756667669404347" lon="-8.780765042785127"><ele>1619.0</ele><time>2026-04-15T09:08:17Z</time></trkpt><trkpt lat="29.756824098467764" lon="-8.780796034220545"><ele>1619.0</ele><time>2026-04-15T09:08:18Z</time></trkpt><trkpt lat="29.7569857582067" lon="-8.780848020564601"><ele>1617.6666666666665</ele><time>2026-04-15T09:08:19Z</time></trkpt><trkpt lat="29.757146186228983" lon="-8.780920115407271"><ele>1616.3333333333335</ele><time>2026-04-15T09:08:20Z</time></trkpt><trkpt lat="29.757312839380717" lon="-8.781012750724596"><ele>1615.0</ele><time>2026-04-15T09:08:21Z</time></trkpt><trkpt lat="29.757476531724784" lon="-8.781110113978201"><ele>1612.3333333333335</ele><time>2026-04-15T09:08:22Z</time></trkpt><trkpt lat="29.757636769923636" lon="-8.7812015815159"><ele>1609.6666666666665</ele><time>2026-04-15T09:08:23Z</time></trkpt><trkpt lat="29.757798334675186" lon="-8.78128727139489"><ele>1607.0</ele><time>2026-04-15T09:08:24Z</time></trkpt><trkpt lat="29.75795929854579" lon="-8.781369215232417"><ele>1606.0</ele><time>2026-04-15T09:08:25Z</time></trkpt><trkpt lat="29.75811720869909" lon="-8.781447163463907"><ele>1605.0</ele><time>2026-04-15T09:08:26Z</time></trkpt><trkpt lat="29.758273165259475" lon="-8.781525237599503"><ele>1604.0</ele><time>2026-04-15T09:08:27Z</time></trkpt><trkpt lat="29.758430702377964" lon="-8.781606388368447"><ele>1604.6666666666665</ele><time>2026-04-15T09:08:28Z</time></trkpt><trkpt lat="29.758587939937428" lon="-8.781687416745914"><ele>1605.3333333333335</ele><time>2026-04-15T09:08:29Z</time></trkpt><trkpt lat="29.758745407522735" lon="-8.781769638618037"><ele>1606.0</ele><time>2026-04-15T09:08:30Z</time></trkpt><trkpt lat="29.758903994099835" lon="-8.781858227595555"><ele>1602.6666666666667</ele><time>2026-04-15T09:08:31Z</time></trkpt><trkpt lat="29.759061062655213" lon="-8.781946966620515"><ele>1599.3333333333335</ele><time>2026-04-15T09:08:32Z</time></trkpt><trkpt lat="29.75920786826477" lon="-8.782036385141561"><ele>1596.0</ele><time>2026-04-15T09:08:33Z</time></trkpt><trkpt lat="29.75934617908813" lon="-8.782120823724046"><ele>1597.25</ele><time>2026-04-15T09:08:34Z</time></trkpt><trkpt lat="29.759481595157435" lon="-8.782208047480497"><ele>1598.5</ele><time>2026-04-15T09:08:35Z</time></trkpt><trkpt lat="29.75961055887026" lon="-8.782293204595478"><ele>1599.75</ele><time>2026-04-15T09:08:36Z</time></trkpt><trkpt lat="29.75973265027865" lon="-8.782378635078768"><ele>1601.0</ele><time>2026-04-15T09:08:37Z</time></trkpt><trkpt lat="29.75984364914618" lon="-8.782474046670892"><ele>1601.0</ele><time>2026-04-15T09:08:38Z</time></trkpt><trkpt lat="29.759940748542117" lon="-8.782573332717188"><ele>1601.0</ele><time>2026-04-15T09:08:39Z</time></trkpt><trkpt lat="29.760019688014197" lon="-8.782687695888274"><ele>1601.0</ele><time>2026-04-15T09:08:40Z</time></trkpt><trkpt lat="29.760072102144207" lon="-8.782823344659315"><ele>1601.0</ele><time>2026-04-15T09:08:41Z</time></trkpt><trkpt lat="29.760099923857148" lon="-8.782969369091399"><ele>1600.5</ele><time>2026-04-15T09:08:42Z</time></trkpt><trkpt lat="29.760099220698063" lon="-8.783123089642498"><ele>1600.0</ele><time>2026-04-15T09:08:43Z</time></trkpt><trkpt lat="29.76008096542274" lon="-8.783281282286904"><ele>1599.5</ele><time>2026-04-15T09:08:44Z</time></trkpt><trkpt lat="29.760058913081984" lon="-8.783430478274287"><ele>1599.0</ele><time>2026-04-15T09:08:45Z</time></trkpt><trkpt lat="29.76003801088876" lon="-8.78357163199194"><ele>1598.75</ele><time>2026-04-15T09:08:46Z</time></trkpt><trkpt lat="29.760022365399497" lon="-8.783709289875642"><ele>1598.5</ele><time>2026-04-15T09:08:47Z</time></trkpt><trkpt lat="29.760018043232023" lon="-8.78385083699903"><ele>1598.25</ele><time>2026-04-15T09:08:48Z</time></trkpt><trkpt lat="29.760024870668477" lon="-8.78399786517251"><ele>1598.0</ele><time>2026-04-15T09:08:49Z</time></trkpt><trkpt lat="29.76003932004264" lon="-8.784149022167606"><ele>1598.0</ele><time>2026-04-15T09:08:50Z</time></trkpt><trkpt lat="29.760061329278226" lon="-8.784303354841063"><ele>1598.0</ele><time>2026-04-15T09:08:51Z</time></trkpt><trkpt lat="29.76009660091861" lon="-8.784455248902251"><ele>1598.0</ele><time>2026-04-15T09:08:52Z</time></trkpt><trkpt lat="29.760151162918582" lon="-8.784603288583954"><ele>1598.0</ele><time>2026-04-15T09:08:53Z</time></trkpt><trkpt lat="29.76021472967236" lon="-8.784744428593504"><ele>1598.0</ele><time>2026-04-15T09:08:54Z</time></trkpt><trkpt lat="29.76027994412303" lon="-8.78487564119516"><ele>1598.0</ele><time>2026-04-15T09:08:55Z</time></trkpt><trkpt lat="29.760340195963085" lon="-8.784993774482396"><ele>1598.0</ele><time>2026-04-15T09:08:56Z</time></trkpt><trkpt lat="29.760404656473572" lon="-8.785097219813881"><ele>1598.0</ele><time>2026-04-15T09:08:57Z</time></trkpt><trkpt lat="29.760484372580493" lon="-8.785178804727797"><ele>1592.75</ele><time>2026-04-15T09:08:58Z</time></trkpt><trkpt lat="29.76057999037431" lon="-8.785230271082767"><ele>1587.5</ele><time>2026-04-15T09:08:59Z</time></trkpt><trkpt lat="29.760688947740753" lon="-8.78525165761362"><ele>1582.25</ele><time>2026-04-15T09:09:00Z</time></trkpt><trkpt lat="29.76081687012851" lon="-8.78525350622399"><ele>1577.0</ele><time>2026-04-15T09:09:01Z</time></trkpt><trkpt lat="29.760956091710757" lon="-8.785244324768353"><ele>1576.0</ele><time>2026-04-15T09:09:02Z</time></trkpt><trkpt lat="29.76110509928913" lon="-8.785236557569645"><ele>1575.0</ele><time>2026-04-15T09:09:03Z</time></trkpt><trkpt lat="29.761256345918994" lon="-8.785231519414893"><ele>1574.0</ele><time>2026-04-15T09:09:04Z</time></trkpt><trkpt lat="29.76140756811015" lon="-8.785231952752696"><ele>1574.0</ele><time>2026-04-15T09:09:05Z</time></trkpt><trkpt lat="29.761554828034747" lon="-8.785240627301118"><ele>1574.0</ele><time>2026-04-15T09:09:06Z</time></trkpt><trkpt lat="29.76169741927413" lon="-8.785244191695936"><ele>1574.0</ele><time>2026-04-15T09:09:07Z</time></trkpt><trkpt lat="29.761835867404013" lon="-8.785235894507435"><ele>1574.0</ele><time>2026-04-15T09:09:08Z</time></trkpt><trkpt lat="29.76197804930963" lon="-8.78520989664457"><ele>1575.5</ele><time>2026-04-15T09:09:09Z</time></trkpt><trkpt lat="29.762109216361463" lon="-8.785165758001162"><ele>1577.0</ele><time>2026-04-15T09:09:10Z</time></trkpt><trkpt lat="29.762225235974512" lon="-8.78509594340264"><ele>1578.5</ele><time>2026-04-15T09:09:11Z</time></trkpt><trkpt lat="29.762323668620105" lon="-8.785005359718706"><ele>1580.0</ele><time>2026-04-15T09:09:12Z</time></trkpt><trkpt lat="29.762403078008514" lon="-8.784905419300285"><ele>1580.0</ele><time>2026-04-15T09:09:13Z</time></trkpt><trkpt lat="29.762476980588666" lon="-8.784820651821272"><ele>1580.0</ele><time>2026-04-15T09:09:14Z</time></trkpt><trkpt lat="29.762559329513447" lon="-8.784765560033117"><ele>1580.0</ele><time>2026-04-15T09:09:15Z</time></trkpt><trkpt lat="29.762652081936672" lon="-8.784742659492128"><ele>1580.0</ele><time>2026-04-15T09:09:16Z</time></trkpt><trkpt lat="29.762746424778584" lon="-8.78475225533741"><ele>1580.0</ele><time>2026-04-15T09:09:17Z</time></trkpt><trkpt lat="29.762837736290294" lon="-8.784798909747588"><ele>1579.0</ele><time>2026-04-15T09:09:18Z</time></trkpt><trkpt lat="29.76292570880584" lon="-8.784872135171481"><ele>1578.0</ele><time>2026-04-15T09:09:19Z</time></trkpt><trkpt lat="29.763014401928224" lon="-8.784945641488466"><ele>1577.0</ele><time>2026-04-15T09:09:20Z</time></trkpt><trkpt lat="29.763117380766378" lon="-8.784993123437726"><ele>1576.0</ele><time>2026-04-15T09:09:21Z</time></trkpt><trkpt lat="29.763238811460678" lon="-8.785009500265659"><ele>1576.0</ele><time>2026-04-15T09:09:22Z</time></trkpt><trkpt lat="29.76337405479571" lon="-8.785002116847345"><ele>1576.0</ele><time>2026-04-15T09:09:23Z</time></trkpt><trkpt lat="29.763521735465005" lon="-8.784976511172301"><ele>1576.0</ele><time>2026-04-15T09:09:24Z</time></trkpt><trkpt lat="29.763672105482215" lon="-8.78494750280207"><ele>1576.0</ele><time>2026-04-15T09:09:25Z</time></trkpt><trkpt lat="29.763816862805207" lon="-8.784923963972602"><ele>1574.0</ele><time>2026-04-15T09:09:26Z</time></trkpt><trkpt lat="29.763955168940576" lon="-8.784903340199953"><ele>1572.0</ele><time>2026-04-15T09:09:27Z</time></trkpt><trkpt lat="29.76409720009685" lon="-8.784875442937205"><ele>1570.0</ele><time>2026-04-15T09:09:28Z</time></trkpt><trkpt lat="29.764235750749172" lon="-8.784835225716462"><ele>1568.0</ele><time>2026-04-15T09:09:29Z</time></trkpt><trkpt lat="29.764368570751035" lon="-8.784780037907732"><ele>1565.25</ele><time>2026-04-15T09:09:30Z</time></trkpt><trkpt lat="29.76449355756872" lon="-8.7847036383846"><ele>1562.5</ele><time>2026-04-15T09:09:31Z</time></trkpt><trkpt lat="29.764610337043834" lon="-8.784602494256204"><ele>1559.75</ele><time>2026-04-15T09:09:32Z</time></trkpt><trkpt lat="29.76471651981112" lon="-8.7844854194234"><ele>1557.0</ele><time>2026-04-15T09:09:33Z</time></trkpt><trkpt lat="29.7648121330489" lon="-8.784368388589007"><ele>1557.5</ele><time>2026-04-15T09:09:34Z</time></trkpt><trkpt lat="29.76491388611958" lon="-8.78426295773005"><ele>1558.0</ele><time>2026-04-15T09:09:35Z</time></trkpt><trkpt lat="29.76502979999308" lon="-8.784167839369955"><ele>1558.5</ele><time>2026-04-15T09:09:36Z</time></trkpt><trkpt lat="29.765158347802778" lon="-8.784086409244969"><ele>1559.0</ele><time>2026-04-15T09:09:37Z</time></trkpt><trkpt lat="29.765290172006782" lon="-8.784008943135758"><ele>1559.0</ele><time>2026-04-15T09:09:38Z</time></trkpt><trkpt lat="29.76541864447875" lon="-8.783943389424408"><ele>1559.0</ele><time>2026-04-15T09:09:39Z</time></trkpt><trkpt lat="29.765545378284557" lon="-8.783887851700284"><ele>1559.0</ele><time>2026-04-15T09:09:40Z</time></trkpt><trkpt lat="29.76567284842474" lon="-8.783846909564717"><ele>1559.0</ele><time>2026-04-15T09:09:41Z</time></trkpt><trkpt lat="29.765805548140236" lon="-8.783826887777636"><ele>1559.0</ele><time>2026-04-15T09:09:42Z</time></trkpt><trkpt lat="29.765946702013434" lon="-8.783844299116785"><ele>1559.0</ele><time>2026-04-15T09:09:43Z</time></trkpt><trkpt lat="29.766091679522813" lon="-8.783885313853062"><ele>1559.0</ele><time>2026-04-15T09:09:44Z</time></trkpt><trkpt lat="29.76623529851308" lon="-8.783954405879934"><ele>1559.0</ele><time>2026-04-15T09:09:45Z</time></trkpt><trkpt lat="29.766376455420872" lon="-8.784044299213743"><ele>1560.6666666666665</ele><time>2026-04-15T09:09:46Z</time></trkpt><trkpt lat="29.766510755935304" lon="-8.784147498659973"><ele>1562.3333333333335</ele><time>2026-04-15T09:09:47Z</time></trkpt><trkpt lat="29.76663413452177" lon="-8.784252590452668"><ele>1564.0</ele><time>2026-04-15T09:09:48Z</time></trkpt><trkpt lat="29.76675500111458" lon="-8.784351535877276"><ele>1560.0</ele><time>2026-04-15T09:09:49Z</time></trkpt><trkpt lat="29.76688126136121" lon="-8.784446257918368"><ele>1556.0</ele><time>2026-04-15T09:09:50Z</time></trkpt><trkpt lat="29.76701407576765" lon="-8.784531515158635"><ele>1552.0</ele><time>2026-04-15T09:09:51Z</time></trkpt><trkpt lat="29.76714899864821" lon="-8.784612441159693"><ele>1552.0</ele><time>2026-04-15T09:09:52Z</time></trkpt><trkpt lat="29.767291549708638" lon="-8.784680712896703"><ele>1552.0</ele><time>2026-04-15T09:09:53Z</time></trkpt><trkpt lat="29.767436477760782" lon="-8.784737066737836"><ele>1552.0</ele><time>2026-04-15T09:09:54Z</time></trkpt><trkpt lat="29.767582322790208" lon="-8.78477670876739"><ele>1550.75</ele><time>2026-04-15T09:09:55Z</time></trkpt><trkpt lat="29.76772612208763" lon="-8.784801998904594"><ele>1549.5</ele><time>2026-04-15T09:09:56Z</time></trkpt><trkpt lat="29.76786625599465" lon="-8.784822900909807"><ele>1548.25</ele><time>2026-04-15T09:09:57Z</time></trkpt><trkpt lat="29.76800183248678" lon="-8.784860182429073"><ele>1547.0</ele><time>2026-04-15T09:09:58Z</time></trkpt><trkpt lat="29.768134311152615" lon="-8.784919893461831"><ele>1547.0</ele><time>2026-04-15T09:09:59Z</time></trkpt><trkpt lat="29.768264183261085" lon="-8.785005755916496"><ele>1547.0</ele><time>2026-04-15T09:10:00Z</time></trkpt><trkpt lat="29.768387609349784" lon="-8.785115249899693"><ele>1547.0</ele><time>2026-04-15T09:10:01Z</time></trkpt><trkpt lat="29.768496547416486" lon="-8.785242181355702"><ele>1546.75</ele><time>2026-04-15T09:10:02Z</time></trkpt><trkpt lat="29.768584641585043" lon="-8.78538994163278"><ele>1546.5</ele><time>2026-04-15T09:10:03Z</time></trkpt><trkpt lat="29.768643868316072" lon="-8.785546866418196"><ele>1546.25</ele><time>2026-04-15T09:10:04Z</time></trkpt><trkpt lat="29.768683893856124" lon="-8.785703719899356"><ele>1546.0</ele><time>2026-04-15T09:10:05Z</time></trkpt><trkpt lat="29.768723808109737" lon="-8.785847412343685"><ele>1546.0</ele><time>2026-04-15T09:10:06Z</time></trkpt><trkpt lat="29.768780094341057" lon="-8.785964538521702"><ele>1546.0</ele><time>2026-04-15T09:10:07Z</time></trkpt><trkpt lat="29.768856692131617" lon="-8.786060980717302"><ele>1546.0</ele><time>2026-04-15T09:10:08Z</time></trkpt><trkpt lat="29.7689499140832" lon="-8.7861369958736"><ele>1546.0</ele><time>2026-04-15T09:10:09Z</time></trkpt><trkpt lat="29.769055235614605" lon="-8.786176775263842"><ele>1543.0</ele><time>2026-04-15T09:10:10Z</time></trkpt><trkpt lat="29.769169014284845" lon="-8.786186792014682"><ele>1540.0</ele><time>2026-04-15T09:10:11Z</time></trkpt><trkpt lat="29.769293416626383" lon="-8.786169871032154"><ele>1537.0</ele><time>2026-04-15T09:10:12Z</time></trkpt><trkpt lat="29.769424322924014" lon="-8.78613577785322"><ele>1534.0</ele><time>2026-04-15T09:10:13Z</time></trkpt><trkpt lat="29.769559569397387" lon="-8.786097255679021"><ele>1534.0</ele><time>2026-04-15T09:10:14Z</time></trkpt><trkpt lat="29.76969786671371" lon="-8.786065876035488"><ele>1534.0</ele><time>2026-04-15T09:10:15Z</time></trkpt><trkpt lat="29.7698329519883" lon="-8.786041017845394"><ele>1534.0</ele><time>2026-04-15T09:10:16Z</time></trkpt><trkpt lat="29.769974338378766" lon="-8.786041761126521"><ele>1534.0</ele><time>2026-04-15T09:10:17Z</time></trkpt><trkpt lat="29.770117981657" lon="-8.78606711844429"><ele>1534.6666666666665</ele><time>2026-04-15T09:10:18Z</time></trkpt><trkpt lat="29.77026182453247" lon="-8.786106683510704"><ele>1535.3333333333333</ele><time>2026-04-15T09:10:19Z</time></trkpt><trkpt lat="29.77040398977222" lon="-8.786167820285291"><ele>1536.0</ele><time>2026-04-15T09:10:20Z</time></trkpt><trkpt lat="29.770538456287873" lon="-8.786245601049602"><ele>1536.0</ele><time>2026-04-15T09:10:21Z</time></trkpt><trkpt lat="29.770664103300795" lon="-8.786337645196628"><ele>1536.0</ele><time>2026-04-15T09:10:22Z</time></trkpt><trkpt lat="29.770777143723794" lon="-8.78644432351657"><ele>1536.0</ele><time>2026-04-15T09:10:23Z</time></trkpt><trkpt lat="29.77087692421315" lon="-8.786565179000629"><ele>1536.0</ele><time>2026-04-15T09:10:24Z</time></trkpt><trkpt lat="29.77095827813572" lon="-8.786695727449883"><ele>1535.75</ele><time>2026-04-15T09:10:25Z</time></trkpt><trkpt lat="29.77102888996808" lon="-8.786831320124865"><ele>1535.5</ele><time>2026-04-15T09:10:26Z</time></trkpt><trkpt lat="29.77110029362701" lon="-8.786957930444578"><ele>1535.25</ele><time>2026-04-15T09:10:27Z</time></trkpt><trkpt lat="29.771180179309802" lon="-8.787073143397565"><ele>1535.0</ele><time>2026-04-15T09:10:28Z</time></trkpt><trkpt lat="29.771268547675366" lon="-8.787175258452764"><ele>1534.6</ele><time>2026-04-15T09:10:29Z</time></trkpt><trkpt lat="29.771356637506837" lon="-8.787254785764622"><ele>1534.2</ele><time>2026-04-15T09:10:30Z</time></trkpt><trkpt lat="29.77144826835717" lon="-8.787299925683776"><ele>1533.8000000000002</ele><time>2026-04-15T09:10:31Z</time></trkpt><trkpt lat="29.771548001043318" lon="-8.787311074591088"><ele>1533.4</ele><time>2026-04-15T09:10:32Z</time></trkpt><trkpt lat="29.77165306371229" lon="-8.787284198383002"><ele>1533.0</ele><time>2026-04-15T09:10:33Z</time></trkpt><trkpt lat="29.771749385422765" lon="-8.787227060203508"><ele>1533.0</ele><time>2026-04-15T09:10:34Z</time></trkpt><trkpt lat="29.771834540344376" lon="-8.787156134676609"><ele>1533.0</ele><time>2026-04-15T09:10:35Z</time></trkpt><trkpt lat="29.771895720674866" lon="-8.787054117717743"><ele>1533.0</ele><time>2026-04-15T09:10:36Z</time></trkpt><trkpt lat="29.771939616089988" lon="-8.786932115540154"><ele>1533.0</ele><time>2026-04-15T09:10:37Z</time></trkpt><trkpt lat="29.771978568464668" lon="-8.786797991607877"><ele>1526.5</ele><time>2026-04-15T09:10:38Z</time></trkpt><trkpt lat="29.772018008386304" lon="-8.786659145617577"><ele>1520.0</ele><time>2026-04-15T09:10:39Z</time></trkpt><trkpt lat="29.772061639669616" lon="-8.7865235224229"><ele>1513.5</ele><time>2026-04-15T09:10:40Z</time></trkpt><trkpt lat="29.772104338038872" lon="-8.786384503856821"><ele>1507.0</ele><time>2026-04-15T09:10:41Z</time></trkpt><trkpt lat="29.77214478839603" lon="-8.786246212278876"><ele>1507.0</ele><time>2026-04-15T09:10:42Z</time></trkpt><trkpt lat="29.77218783566077" lon="-8.786108453328868"><ele>1507.0</ele><time>2026-04-15T09:10:43Z</time></trkpt><trkpt lat="29.772233074574498" lon="-8.785970204737168"><ele>1507.0</ele><time>2026-04-15T09:10:44Z</time></trkpt><trkpt lat="29.772282007271837" lon="-8.785829953644974"><ele>1507.0</ele><time>2026-04-15T09:10:45Z</time></trkpt><trkpt lat="29.77232995664551" lon="-8.78568777422376"><ele>1506.75</ele><time>2026-04-15T09:10:46Z</time></trkpt><trkpt lat="29.772377621714604" lon="-8.785542303124352"><ele>1506.5</ele><time>2026-04-15T09:10:47Z</time></trkpt><trkpt lat="29.772427686218187" lon="-8.7853963481195"><ele>1506.25</ele><time>2026-04-15T09:10:48Z</time></trkpt><trkpt lat="29.772478211456445" lon="-8.785248555419166"><ele>1506.0</ele><time>2026-04-15T09:10:49Z</time></trkpt><trkpt lat="29.772529824334775" lon="-8.785099899352328"><ele>1506.5</ele><time>2026-04-15T09:10:50Z</time></trkpt><trkpt lat="29.772581959525596" lon="-8.784953712913456"><ele>1507.0</ele><time>2026-04-15T09:10:51Z</time></trkpt><trkpt lat="29.772630618912466" lon="-8.784810327252439"><ele>1507.5</ele><time>2026-04-15T09:10:52Z</time></trkpt><trkpt lat="29.772679998532396" lon="-8.784668653643894"><ele>1508.0</ele><time>2026-04-15T09:10:53Z</time></trkpt><trkpt lat="29.772729099997907" lon="-8.784529246502466"><ele>1505.75</ele><time>2026-04-15T09:10:54Z</time></trkpt><trkpt lat="29.772776597210918" lon="-8.784383462050785"><ele>1503.5</ele><time>2026-04-15T09:10:55Z</time></trkpt><trkpt lat="29.772822919573585" lon="-8.7842368809067"><ele>1501.25</ele><time>2026-04-15T09:10:56Z</time></trkpt><trkpt lat="29.772873944223047" lon="-8.784088607061744"><ele>1499.0</ele><time>2026-04-15T09:10:57Z</time></trkpt><trkpt lat="29.77292546787766" lon="-8.78393699089949"><ele>1499.0</ele><time>2026-04-15T09:10:58Z</time></trkpt><trkpt lat="29.772977930195896" lon="-8.783782726885274"><ele>1499.0</ele><time>2026-04-15T09:10:59Z</time></trkpt><trkpt lat="29.773031478191733" lon="-8.783636000520758"><ele>1499.0</ele><time>2026-04-15T09:11:00Z</time></trkpt><trkpt lat="29.77308533458338" lon="-8.783493250243477"><ele>1499.0</ele><time>2026-04-15T09:11:01Z</time></trkpt><trkpt lat="29.773134756476292" lon="-8.783353644486434"><ele>1499.5</ele><time>2026-04-15T09:11:02Z</time></trkpt><trkpt lat="29.773184522063413" lon="-8.783214110406886"><ele>1500.0</ele><time>2026-04-15T09:11:03Z</time></trkpt><trkpt lat="29.773224854495428" lon="-8.783080281974033"><ele>1500.5</ele><time>2026-04-15T09:11:04Z</time></trkpt><trkpt lat="29.77326462613241" lon="-8.782951357433637"><ele>1501.0</ele><time>2026-04-15T09:11:05Z</time></trkpt><trkpt lat="29.77330291735542" lon="-8.782828191828061"><ele>1501.0</ele><time>2026-04-15T09:11:06Z</time></trkpt><trkpt lat="29.773342076420136" lon="-8.782698531545371"><ele>1501.0</ele><time>2026-04-15T09:11:07Z</time></trkpt><trkpt lat="29.773386629306856" lon="-8.782558668252491"><ele>1501.0</ele><time>2026-04-15T09:11:08Z</time></trkpt><trkpt lat="29.773430188136285" lon="-8.782409511533444"><ele>1501.0</ele><time>2026-04-15T09:11:09Z</time></trkpt><trkpt lat="29.773478577854224" lon="-8.782257805641594"><ele>1503.75</ele><time>2026-04-15T09:11:10Z</time></trkpt><trkpt lat="29.773539710257182" lon="-8.782107020004704"><ele>1506.5</ele><time>2026-04-15T09:11:11Z</time></trkpt><trkpt lat="29.773614696149775" lon="-8.781972434659027"><ele>1509.25</ele><time>2026-04-15T09:11:12Z</time></trkpt><trkpt lat="29.77370689857577" lon="-8.781848864818313"><ele>1512.0</ele><time>2026-04-15T09:11:13Z</time></trkpt><trkpt lat="29.773814417427616" lon="-8.781729450347274"><ele>1512.0</ele><time>2026-04-15T09:11:14Z</time></trkpt><trkpt lat="29.773926666873106" lon="-8.781615696870656"><ele>1512.0</ele><time>2026-04-15T09:11:15Z</time></trkpt><trkpt lat="29.774044212425547" lon="-8.781505407976633"><ele>1512.0</ele><time>2026-04-15T09:11:16Z</time></trkpt><trkpt lat="29.774161252094203" lon="-8.781390549384879"><ele>1512.0</ele><time>2026-04-15T09:11:17Z</time></trkpt><trkpt lat="29.77427591893187" lon="-8.781277570023379"><ele>1512.0</ele><time>2026-04-15T09:11:18Z</time></trkpt><trkpt lat="29.774386571805696" lon="-8.781164546509688"><ele>1512.0</ele><time>2026-04-15T09:11:19Z</time></trkpt><trkpt lat="29.774492198145623" lon="-8.78104397426216"><ele>1512.0</ele><time>2026-04-15T09:11:20Z</time></trkpt><trkpt lat="29.774591338402942" lon="-8.780913662456893"><ele>1511.3333333333333</ele><time>2026-04-15T09:11:21Z</time></trkpt><trkpt lat="29.774683661903953" lon="-8.780768785175884"><ele>1510.6666666666665</ele><time>2026-04-15T09:11:22Z</time></trkpt><trkpt lat="29.774764807993215" lon="-8.780612422182545"><ele>1510.0</ele><time>2026-04-15T09:11:23Z</time></trkpt><trkpt lat="29.774839579843597" lon="-8.7804599678474"><ele>1510.0</ele><time>2026-04-15T09:11:24Z</time></trkpt><trkpt lat="29.77490427248737" lon="-8.780324621493092"><ele>1510.0</ele><time>2026-04-15T09:11:25Z</time></trkpt><trkpt lat="29.77496039903125" lon="-8.780211501755552"><ele>1510.0</ele><time>2026-04-15T09:11:26Z</time></trkpt><trkpt lat="29.775007792133714" lon="-8.780114337042523"><ele>1510.0</ele><time>2026-04-15T09:11:27Z</time></trkpt><trkpt lat="29.775043608328332" lon="-8.780027138205174"><ele>1510.0</ele><time>2026-04-15T09:11:28Z</time></trkpt><trkpt lat="29.775069082179716" lon="-8.779945358239905"><ele>1510.0</ele><time>2026-04-15T09:11:29Z</time></trkpt><trkpt lat="29.775082668010022" lon="-8.779871282408008"><ele>1510.0</ele><time>2026-04-15T09:11:30Z</time></trkpt><trkpt lat="29.775082812429037" lon="-8.77973412339894"><ele>1510.0</ele><time>2026-04-15T09:11:32Z</time></trkpt><trkpt lat="29.775109775030412" lon="-8.779594916912899"><ele>1510.0</ele><time>2026-04-15T09:11:34Z</time></trkpt><trkpt lat="29.77513218214358" lon="-8.77951688386056"><ele>1510.0</ele><time>2026-04-15T09:11:35Z</time></trkpt><trkpt lat="29.775150502994457" lon="-8.77943362591948"><ele>1510.0</ele><time>2026-04-15T09:11:36Z</time></trkpt><trkpt lat="29.775170281581882" lon="-8.779356271903366"><ele>1510.0</ele><time>2026-04-15T09:11:37Z</time></trkpt><trkpt lat="29.775191702404303" lon="-8.779281315791728"><ele>1510.0</ele><time>2026-04-15T09:11:38Z</time></trkpt><trkpt lat="29.775214637843295" lon="-8.779211233738675"><ele>1510.0</ele><time>2026-04-15T09:11:39Z</time></trkpt><trkpt lat="29.775259271170963" lon="-8.779086860821481"><ele>1510.0</ele><time>2026-04-15T09:11:41Z</time></trkpt><trkpt lat="29.775284923017498" lon="-8.778986819924828"><ele>1510.0</ele><time>2026-04-15T09:11:43Z</time></trkpt><trkpt lat="29.77530519424925" lon="-8.778890377304881"><ele>1510.3333333333333</ele><time>2026-04-15T09:12:01Z</time></trkpt><trkpt lat="29.775323751860544" lon="-8.778791257298716"><ele>1510.6666666666665</ele><time>2026-04-15T09:12:03Z</time></trkpt><trkpt lat="29.775309449639195" lon="-8.778663468154265"><ele>1511.0</ele><time>2026-04-15T09:12:05Z</time></trkpt><trkpt lat="29.775285266497622" lon="-8.778592440923278"><ele>1511.3333333333333</ele><time>2026-04-15T09:12:06Z</time></trkpt><trkpt lat="29.775240206902367" lon="-8.778519987496052"><ele>1511.6666666666667</ele><time>2026-04-15T09:12:07Z</time></trkpt><trkpt lat="29.775173142786514" lon="-8.778463048586504"><ele>1512.0</ele><time>2026-04-15T09:12:08Z</time></trkpt><trkpt lat="29.775092596016762" lon="-8.778423419673064"><ele>1511.1999999999998</ele><time>2026-04-15T09:12:09Z</time></trkpt><trkpt lat="29.77500502646032" lon="-8.778395041684524"><ele>1510.4</ele><time>2026-04-15T09:12:10Z</time></trkpt><trkpt lat="29.774916422653973" lon="-8.778370361528301"><ele>1509.6</ele><time>2026-04-15T09:12:11Z</time></trkpt><trkpt lat="29.77483049423081" lon="-8.77833699101811"><ele>1508.8000000000002</ele><time>2026-04-15T09:12:12Z</time></trkpt><trkpt lat="29.774755844868867" lon="-8.778288232434829"><ele>1508.0</ele><time>2026-04-15T09:12:13Z</time></trkpt><trkpt lat="29.77468663954603" lon="-8.778216505119765"><ele>1508.0</ele><time>2026-04-15T09:12:14Z</time></trkpt><trkpt lat="29.774620709873766" lon="-8.778129357100276"><ele>1508.0</ele><time>2026-04-15T09:12:15Z</time></trkpt><trkpt lat="29.774559810281684" lon="-8.778035625694871"><ele>1508.0</ele><time>2026-04-15T09:12:16Z</time></trkpt><trkpt lat="29.774492040058533" lon="-8.777949782604118"><ele>1508.0</ele><time>2026-04-15T09:12:17Z</time></trkpt><trkpt lat="29.774404143692056" lon="-8.777880456130113"><ele>1508.0</ele><time>2026-04-15T09:12:18Z</time></trkpt><trkpt lat="29.774301438788658" lon="-8.777826591097773"><ele>1508.0</ele><time>2026-04-15T09:12:19Z</time></trkpt><trkpt lat="29.77419739074134" lon="-8.777783451696571"><ele>1508.0</ele><time>2026-04-15T09:12:20Z</time></trkpt><trkpt lat="29.774094713547143" lon="-8.777747742607072"><ele>1508.0</ele><time>2026-04-15T09:12:21Z</time></trkpt><trkpt lat="29.773995965931825" lon="-8.777715957051065"><ele>1508.0</ele><time>2026-04-15T09:12:22Z</time></trkpt><trkpt lat="29.773905441130545" lon="-8.777684558220859"><ele>1508.0</ele><time>2026-04-15T09:12:23Z</time></trkpt><trkpt lat="29.773819260143235" lon="-8.777646323343912"><ele>1508.4</ele><time>2026-04-15T09:12:24Z</time></trkpt><trkpt lat="29.773729049578748" lon="-8.77761561224841"><ele>1508.8000000000002</ele><time>2026-04-15T09:12:25Z</time></trkpt><trkpt lat="29.77363380027149" lon="-8.77759517940345"><ele>1509.2</ele><time>2026-04-15T09:12:26Z</time></trkpt><trkpt lat="29.773546743234913" lon="-8.77757038180012"><ele>1509.6</ele><time>2026-04-15T09:12:27Z</time></trkpt><trkpt lat="29.77346107692101" lon="-8.777546675472186"><ele>1510.0</ele><time>2026-04-15T09:12:28Z</time></trkpt><trkpt lat="29.77337427091019" lon="-8.77751948464339"><ele>1510.0</ele><time>2026-04-15T09:12:29Z</time></trkpt><trkpt lat="29.773286486942116" lon="-8.77749275797277"><ele>1510.0</ele><time>2026-04-15T09:12:30Z</time></trkpt><trkpt lat="29.773201390086804" lon="-8.777465012021755"><ele>1510.0</ele><time>2026-04-15T09:12:31Z</time></trkpt><trkpt lat="29.773112508891366" lon="-8.777438391621967"><ele>1510.0</ele><time>2026-04-15T09:12:32Z</time></trkpt><trkpt lat="29.773025788517437" lon="-8.777401897849353"><ele>1510.0</ele><time>2026-04-15T09:12:33Z</time></trkpt><trkpt lat="29.772943676310128" lon="-8.777358734397518"><ele>1510.0</ele><time>2026-04-15T09:12:34Z</time></trkpt><trkpt lat="29.772868651883247" lon="-8.777308427721527"><ele>1510.0</ele><time>2026-04-15T09:12:35Z</time></trkpt><trkpt lat="29.772799820222527" lon="-8.777242509198738"><ele>1510.0</ele><time>2026-04-15T09:12:36Z</time></trkpt><trkpt lat="29.77273511354977" lon="-8.777162795648243"><ele>1510.0</ele><time>2026-04-15T09:12:37Z</time></trkpt><trkpt lat="29.77267457694209" lon="-8.777077877057135"><ele>1510.0</ele><time>2026-04-15T09:12:38Z</time></trkpt><trkpt lat="29.77261019875915" lon="-8.776999413297673"><ele>1509.6</ele><time>2026-04-15T09:12:39Z</time></trkpt><trkpt lat="29.772532691944097" lon="-8.776931819007075"><ele>1509.2</ele><time>2026-04-15T09:12:40Z</time></trkpt><trkpt lat="29.77245158005646" lon="-8.776874571039686"><ele>1508.8000000000002</ele><time>2026-04-15T09:12:41Z</time></trkpt><trkpt lat="29.772369621632468" lon="-8.776827178749656"><ele>1508.4</ele><time>2026-04-15T09:12:42Z</time></trkpt><trkpt lat="29.772281877337782" lon="-8.776797775192309"><ele>1508.0</ele><time>2026-04-15T09:12:43Z</time></trkpt><trkpt lat="29.772192683040693" lon="-8.776788149670374"><ele>1508.0</ele><time>2026-04-15T09:12:44Z</time></trkpt><trkpt lat="29.772105111495517" lon="-8.776798089449162"><ele>1508.0</ele><time>2026-04-15T09:12:45Z</time></trkpt><trkpt lat="29.77201106107881" lon="-8.776832039042752"><ele>1508.0</ele><time>2026-04-15T09:12:46Z</time></trkpt><trkpt lat="29.77191852051437" lon="-8.776863393392588"><ele>1508.0</ele><time>2026-04-15T09:12:47Z</time></trkpt><trkpt lat="29.771824624955716" lon="-8.776891000396319"><ele>1508.0</ele><time>2026-04-15T09:12:48Z</time></trkpt><trkpt lat="29.771726969237907" lon="-8.776905018004227"><ele>1508.2</ele><time>2026-04-15T09:12:49Z</time></trkpt><trkpt lat="29.771626381436402" lon="-8.776913007972142"><ele>1508.4</ele><time>2026-04-15T09:12:50Z</time></trkpt><trkpt lat="29.771520040656156" lon="-8.776918956587844"><ele>1508.6000000000001</ele><time>2026-04-15T09:12:51Z</time></trkpt><trkpt lat="29.771413430135862" lon="-8.776919619573691"><ele>1508.8000000000002</ele><time>2026-04-15T09:12:52Z</time></trkpt><trkpt lat="29.771311582841847" lon="-8.776909396353481"><ele>1509.0</ele><time>2026-04-15T09:12:53Z</time></trkpt><trkpt lat="29.771221507793175" lon="-8.776887153456775"><ele>1509.0</ele><time>2026-04-15T09:12:54Z</time></trkpt><trkpt lat="29.771133933870836" lon="-8.77686547942"><ele>1509.0</ele><time>2026-04-15T09:12:55Z</time></trkpt><trkpt lat="29.77105222944832" lon="-8.776843528711339"><ele>1509.0</ele><time>2026-04-15T09:12:56Z</time></trkpt><trkpt lat="29.77097558408168" lon="-8.77682088165155"><ele>1509.0</ele><time>2026-04-15T09:12:57Z</time></trkpt><trkpt lat="29.770900656179773" lon="-8.7767967621128"><ele>1509.0</ele><time>2026-04-15T09:12:58Z</time></trkpt><trkpt lat="29.770833706667666" lon="-8.776762248040207"><ele>1509.0</ele><time>2026-04-15T09:12:59Z</time></trkpt><trkpt lat="29.77077633402702" lon="-8.776720888390333"><ele>1509.2</ele><time>2026-04-15T09:13:00Z</time></trkpt><trkpt lat="29.770725627852883" lon="-8.776676371708998"><ele>1509.4</ele><time>2026-04-15T09:13:01Z</time></trkpt><trkpt lat="29.770640389167944" lon="-8.776599151624396"><ele>1509.6</ele><time>2026-04-15T09:13:03Z</time></trkpt><trkpt lat="29.77058555207095" lon="-8.776540833000393"><ele>1509.8</ele><time>2026-04-15T09:13:05Z</time></trkpt><trkpt lat="29.770655690569324" lon="-8.776595480025149"><ele>1510.0</ele><time>2026-04-15T09:14:15Z</time></trkpt><trkpt lat="29.770749568316944" lon="-8.77668256687063"><ele>1510.0</ele><time>2026-04-15T09:14:17Z</time></trkpt><trkpt lat="29.77081180739572" lon="-8.776722661046117"><ele>1510.0</ele><time>2026-04-15T09:14:18Z</time></trkpt><trkpt lat="29.77092632681856" lon="-8.776784756204668"><ele>1510.0</ele><time>2026-04-15T09:14:19Z</time></trkpt><trkpt lat="29.771018290766822" lon="-8.776823864383312"><ele>1510.0</ele><time>2026-04-15T09:14:20Z</time></trkpt><trkpt lat="29.771104412360046" lon="-8.776848723471174"><ele>1510.0</ele><time>2026-04-15T09:14:21Z</time></trkpt><trkpt lat="29.77119743361262" lon="-8.776871401012853"><ele>1509.8</ele><time>2026-04-15T09:14:22Z</time></trkpt><trkpt lat="29.771302722410958" lon="-8.776890342197525"><ele>1509.6</ele><time>2026-04-15T09:14:23Z</time></trkpt><trkpt lat="29.77141319937515" lon="-8.776901549066574"><ele>1509.4</ele><time>2026-04-15T09:14:24Z</time></trkpt><trkpt lat="29.771520816858263" lon="-8.776902227881958"><ele>1509.2</ele><time>2026-04-15T09:14:25Z</time></trkpt><trkpt lat="29.77163186859674" lon="-8.776896295160558"><ele>1509.0</ele><time>2026-04-15T09:14:26Z</time></trkpt><trkpt lat="29.77174475217204" lon="-8.77687906753564"><ele>1509.0</ele><time>2026-04-15T09:14:27Z</time></trkpt><trkpt lat="29.771852404674434" lon="-8.776855432401282"><ele>1509.0</ele><time>2026-04-15T09:14:28Z</time></trkpt><trkpt lat="29.771949870684498" lon="-8.776830700286984"><ele>1509.0</ele><time>2026-04-15T09:14:29Z</time></trkpt><trkpt lat="29.772035037429617" lon="-8.776809804970332"><ele>1509.0</ele><time>2026-04-15T09:14:30Z</time></trkpt><trkpt lat="29.772111241012443" lon="-8.776794531782414"><ele>1509.0</ele><time>2026-04-15T09:14:31Z</time></trkpt><trkpt lat="29.77218760262462" lon="-8.776782402079785"><ele>1508.8333333333333</ele><time>2026-04-15T09:14:32Z</time></trkpt><trkpt lat="29.77226626757688" lon="-8.776783088947527"><ele>1508.6666666666667</ele><time>2026-04-15T09:14:33Z</time></trkpt><trkpt lat="29.772350720280123" lon="-8.776798585903583"><ele>1508.5</ele><time>2026-04-15T09:14:34Z</time></trkpt><trkpt lat="29.77241856160468" lon="-8.776816989787653"><ele>1508.3333333333335</ele><time>2026-04-15T09:14:35Z</time></trkpt><trkpt lat="29.772523374645896" lon="-8.77688792575217"><ele>1508.1666666666667</ele><time>2026-04-15T09:14:37Z</time></trkpt><trkpt lat="29.772584315409865" lon="-8.776947203589666"><ele>1508.0</ele><time>2026-04-15T09:14:38Z</time></trkpt><trkpt lat="29.772644023379268" lon="-8.777010366072231"><ele>1508.3333333333335</ele><time>2026-04-15T09:14:39Z</time></trkpt><trkpt lat="29.772701366526693" lon="-8.777078713972879"><ele>1508.6666666666667</ele><time>2026-04-15T09:14:40Z</time></trkpt><trkpt lat="29.77275992165385" lon="-8.777154444780477"><ele>1509.0</ele><time>2026-04-15T09:14:41Z</time></trkpt><trkpt lat="29.772813888906914" lon="-8.777223898190014"><ele>1509.3333333333333</ele><time>2026-04-15T09:14:42Z</time></trkpt><trkpt lat="29.77287018602066" lon="-8.777285185038178"><ele>1509.6666666666665</ele><time>2026-04-15T09:14:43Z</time></trkpt><trkpt lat="29.772939762565393" lon="-8.777335391192919"><ele>1510.0</ele><time>2026-04-15T09:14:44Z</time></trkpt><trkpt lat="29.77302286118002" lon="-8.777380002520308"><ele>1510.0</ele><time>2026-04-15T09:14:45Z</time></trkpt><trkpt lat="29.773113517522134" lon="-8.777420969901293"><ele>1510.0</ele><time>2026-04-15T09:14:46Z</time></trkpt><trkpt lat="29.773207071954786" lon="-8.777453919546168"><ele>1510.0</ele><time>2026-04-15T09:14:47Z</time></trkpt><trkpt lat="29.77330254305518" lon="-8.777484685579399"><ele>1510.0</ele><time>2026-04-15T09:14:48Z</time></trkpt><trkpt lat="29.77340192220358" lon="-8.77751866846435"><ele>1510.0</ele><time>2026-04-15T09:14:49Z</time></trkpt><trkpt lat="29.77350544322227" lon="-8.77755525895515"><ele>1509.6</ele><time>2026-04-15T09:14:50Z</time></trkpt><trkpt lat="29.773602436026806" lon="-8.777581243512424"><ele>1509.2</ele><time>2026-04-15T09:14:51Z</time></trkpt><trkpt lat="29.773693402670688" lon="-8.77759954044941"><ele>1508.8000000000002</ele><time>2026-04-15T09:14:52Z</time></trkpt><trkpt lat="29.773780724099243" lon="-8.777623843495078"><ele>1508.4</ele><time>2026-04-15T09:14:53Z</time></trkpt><trkpt lat="29.773867176542822" lon="-8.777663738673"><ele>1508.0</ele><time>2026-04-15T09:14:54Z</time></trkpt><trkpt lat="29.773968956071933" lon="-8.777701438061234"><ele>1508.0</ele><time>2026-04-15T09:14:55Z</time></trkpt><trkpt lat="29.77406821599672" lon="-8.777748191059265"><ele>1508.0</ele><time>2026-04-15T09:14:56Z</time></trkpt><trkpt lat="29.77416790472191" lon="-8.777788854973943"><ele>1508.0</ele><time>2026-04-15T09:14:57Z</time></trkpt><trkpt lat="29.774273870675483" lon="-8.777829031978658"><ele>1508.0</ele><time>2026-04-15T09:14:58Z</time></trkpt><trkpt lat="29.774375343253734" lon="-8.777864797310613"><ele>1508.0</ele><time>2026-04-15T09:14:59Z</time></trkpt><trkpt lat="29.774471941314978" lon="-8.77792287654204"><ele>1508.0</ele><time>2026-04-15T09:15:00Z</time></trkpt><trkpt lat="29.774551337606617" lon="-8.77800099266634"><ele>1508.0</ele><time>2026-04-15T09:15:01Z</time></trkpt><trkpt lat="29.774616594271013" lon="-8.778091076416603"><ele>1508.0</ele><time>2026-04-15T09:15:02Z</time></trkpt><trkpt lat="29.77466845343428" lon="-8.778181533435474"><ele>1508.0</ele><time>2026-04-15T09:15:03Z</time></trkpt><trkpt lat="29.774725793558883" lon="-8.778252769000474"><ele>1508.0</ele><time>2026-04-15T09:15:04Z</time></trkpt><trkpt lat="29.774800955605475" lon="-8.778314113050936"><ele>1508.0</ele><time>2026-04-15T09:15:05Z</time></trkpt><trkpt lat="29.774895523833607" lon="-8.778362883686407"><ele>1508.0</ele><time>2026-04-15T09:15:06Z</time></trkpt><trkpt lat="29.774996066839066" lon="-8.778402916289672"><ele>1508.0</ele><time>2026-04-15T09:15:07Z</time></trkpt><trkpt lat="29.775092355492806" lon="-8.778431734392857"><ele>1508.0</ele><time>2026-04-15T09:15:08Z</time></trkpt><trkpt lat="29.775176267005577" lon="-8.778464657883655"><ele>1508.0</ele><time>2026-04-15T09:15:09Z</time></trkpt><trkpt lat="29.775239007797992" lon="-8.778501393594873"><ele>1508.0</ele><time>2026-04-15T09:15:10Z</time></trkpt><trkpt lat="29.77529353800922" lon="-8.778571248461668"><ele>1508.0</ele><time>2026-04-15T09:15:12Z</time></trkpt><trkpt lat="29.77521715797837" lon="-8.77851994305958"><ele>1508.0</ele><time>2026-04-15T09:15:28Z</time></trkpt><trkpt lat="29.775147619694494" lon="-8.778472013244754"><ele>1508.0</ele><time>2026-04-15T09:15:30Z</time></trkpt><trkpt lat="29.77505505700411" lon="-8.778425840420317"><ele>1508.0</ele><time>2026-04-15T09:15:31Z</time></trkpt><trkpt lat="29.774972026495316" lon="-8.778399007484749"><ele>1508.0</ele><time>2026-04-15T09:15:32Z</time></trkpt><trkpt lat="29.77489821294719" lon="-8.778373544312263"><ele>1508.0</ele><time>2026-04-15T09:15:33Z</time></trkpt><trkpt lat="29.774826726602637" lon="-8.778334205289969"><ele>1508.0</ele><time>2026-04-15T09:15:34Z</time></trkpt><trkpt lat="29.774757989691295" lon="-8.778283826823776"><ele>1508.0</ele><time>2026-04-15T09:15:35Z</time></trkpt><trkpt lat="29.774691155043033" lon="-8.77821468257734"><ele>1508.0</ele><time>2026-04-15T09:15:36Z</time></trkpt><trkpt lat="29.774622352182067" lon="-8.778119119969825"><ele>1508.0</ele><time>2026-04-15T09:15:37Z</time></trkpt><trkpt lat="29.77455433030763" lon="-8.778017806497902"><ele>1508.0</ele><time>2026-04-15T09:15:38Z</time></trkpt><trkpt lat="29.77448914397379" lon="-8.777932680080813"><ele>1508.0</ele><time>2026-04-15T09:15:39Z</time></trkpt><trkpt lat="29.77440052998005" lon="-8.777866453006132"><ele>1508.0</ele><time>2026-04-15T09:15:40Z</time></trkpt><trkpt lat="29.774296185683436" lon="-8.777814316376528"><ele>1508.0</ele><time>2026-04-15T09:15:41Z</time></trkpt><trkpt lat="29.77418409592688" lon="-8.777773830612347"><ele>1508.0</ele><time>2026-04-15T09:15:42Z</time></trkpt><trkpt lat="29.774071132854164" lon="-8.777739485378895"><ele>1508.0</ele><time>2026-04-15T09:15:43Z</time></trkpt><trkpt lat="29.77397050521169" lon="-8.77770963304539"><ele>1508.0</ele><time>2026-04-15T09:15:44Z</time></trkpt><trkpt lat="29.77387728591692" lon="-8.777680409858748"><ele>1508.0</ele><time>2026-04-15T09:15:45Z</time></trkpt><trkpt lat="29.773789498256512" lon="-8.777646965521466"><ele>1508.0</ele><time>2026-04-15T09:15:46Z</time></trkpt><trkpt lat="29.773704005162735" lon="-8.777614593382093"><ele>1508.0</ele><time>2026-04-15T09:15:47Z</time></trkpt><trkpt lat="29.77362092719705" lon="-8.777587337630278"><ele>1508.4</ele><time>2026-04-15T09:15:48Z</time></trkpt><trkpt lat="29.773529217392053" lon="-8.777569396633153"><ele>1508.8000000000002</ele><time>2026-04-15T09:15:49Z</time></trkpt><trkpt lat="29.773438905170696" lon="-8.777540753710728"><ele>1509.2</ele><time>2026-04-15T09:15:50Z</time></trkpt><trkpt lat="29.773354731642286" lon="-8.777509441613331"><ele>1509.6</ele><time>2026-04-15T09:15:51Z</time></trkpt><trkpt lat="29.773273434324494" lon="-8.777478793879249"><ele>1510.0</ele><time>2026-04-15T09:15:52Z</time></trkpt><trkpt lat="29.773184770463253" lon="-8.777447652261937"><ele>1510.0</ele><time>2026-04-15T09:15:53Z</time></trkpt><trkpt lat="29.77309151760654" lon="-8.777421008083667"><ele>1510.0</ele><time>2026-04-15T09:15:54Z</time></trkpt><trkpt lat="29.773008569618717" lon="-8.777387777328613"><ele>1510.0</ele><time>2026-04-15T09:15:55Z</time></trkpt><trkpt lat="29.772923060569234" lon="-8.777350264894805"><ele>1510.0</ele><time>2026-04-15T09:15:56Z</time></trkpt><trkpt lat="29.772847560974043" lon="-8.777299090603107"><ele>1510.0</ele><time>2026-04-15T09:15:57Z</time></trkpt><trkpt lat="29.77278054971891" lon="-8.777231310367005"><ele>1510.0</ele><time>2026-04-15T09:15:58Z</time></trkpt><trkpt lat="29.772721323554514" lon="-8.777146524234288"><ele>1510.0</ele><time>2026-04-15T09:15:59Z</time></trkpt><trkpt lat="29.77266638580422" lon="-8.777058636266297"><ele>1510.0</ele><time>2026-04-15T09:16:00Z</time></trkpt><trkpt lat="29.772599970401117" lon="-8.776979369332349"><ele>1510.0</ele><time>2026-04-15T09:16:01Z</time></trkpt><trkpt lat="29.772522848277987" lon="-8.776915700677943"><ele>1510.0</ele><time>2026-04-15T09:16:02Z</time></trkpt><trkpt lat="29.77244372167489" lon="-8.776859461796132"><ele>1510.4</ele><time>2026-04-15T09:16:03Z</time></trkpt><trkpt lat="29.77235468885967" lon="-8.776817321108595"><ele>1510.8</ele><time>2026-04-15T09:16:04Z</time></trkpt><trkpt lat="29.772258001823687" lon="-8.776787692256393"><ele>1511.1999999999998</ele><time>2026-04-15T09:16:05Z</time></trkpt><trkpt lat="29.772162172501872" lon="-8.776785941005924"><ele>1511.6</ele><time>2026-04-15T09:16:06Z</time></trkpt><trkpt lat="29.77207213412144" lon="-8.776810782741814"><ele>1512.0</ele><time>2026-04-15T09:16:07Z</time></trkpt><trkpt lat="29.771980952226844" lon="-8.776841035487154"><ele>1511.3999999999999</ele><time>2026-04-15T09:16:08Z</time></trkpt><trkpt lat="29.77189618379457" lon="-8.776865880243758"><ele>1510.8</ele><time>2026-04-15T09:16:09Z</time></trkpt><trkpt lat="29.771804422123715" lon="-8.77688110212614"><ele>1510.2</ele><time>2026-04-15T09:16:10Z</time></trkpt><trkpt lat="29.771706105524043" lon="-8.776896821389794"><ele>1509.6</ele><time>2026-04-15T09:16:11Z</time></trkpt><trkpt lat="29.771603015842434" lon="-8.776915911897872"><ele>1509.0</ele><time>2026-04-15T09:16:12Z</time></trkpt><trkpt lat="29.771494656510566" lon="-8.776924202139371"><ele>1509.0</ele><time>2026-04-15T09:16:13Z</time></trkpt><trkpt lat="29.771384754928338" lon="-8.776919136303718"><ele>1509.0</ele><time>2026-04-15T09:16:14Z</time></trkpt><trkpt lat="29.771275114331473" lon="-8.776902220527814"><ele>1509.0</ele><time>2026-04-15T09:16:15Z</time></trkpt><trkpt lat="29.771164065013924" lon="-8.776875311845311"><ele>1509.0</ele><time>2026-04-15T09:16:16Z</time></trkpt><trkpt lat="29.771056833035985" lon="-8.776839756104373"><ele>1509.0</ele><time>2026-04-15T09:16:17Z</time></trkpt><trkpt lat="29.770956171560705" lon="-8.776800965790711"><ele>1509.1666666666667</ele><time>2026-04-15T09:16:18Z</time></trkpt><trkpt lat="29.770861828225275" lon="-8.776757342354255"><ele>1509.3333333333333</ele><time>2026-04-15T09:16:19Z</time></trkpt><trkpt lat="29.770778251673725" lon="-8.776708958703537"><ele>1509.5</ele><time>2026-04-15T09:16:20Z</time></trkpt><trkpt lat="29.770706405303105" lon="-8.776647860020407"><ele>1509.6666666666665</ele><time>2026-04-15T09:16:21Z</time></trkpt><trkpt lat="29.77064902506193" lon="-8.776581681106169"><ele>1509.8333333333333</ele><time>2026-04-15T09:16:22Z</time></trkpt><trkpt lat="29.770598556620566" lon="-8.776518505447246"><ele>1510.0</ele><time>2026-04-15T09:16:23Z</time></trkpt><trkpt lat="29.770545978463634" lon="-8.776453719870705"><ele>1510.0</ele><time>2026-04-15T09:16:24Z</time></trkpt><trkpt lat="29.77048239164903" lon="-8.776380784778944"><ele>1510.0</ele><time>2026-04-15T09:16:25Z</time></trkpt><trkpt lat="29.77041688372756" lon="-8.77629790355201"><ele>1510.0</ele><time>2026-04-15T09:16:26Z</time></trkpt><trkpt lat="29.770353473543942" lon="-8.776208471475812"><ele>1510.0</ele><time>2026-04-15T09:16:27Z</time></trkpt><trkpt lat="29.77028263233923" lon="-8.776113229721906"><ele>1510.0</ele><time>2026-04-15T09:16:28Z</time></trkpt><trkpt lat="29.770202036973117" lon="-8.776012206636663"><ele>1511.0</ele><time>2026-04-15T09:16:29Z</time></trkpt><trkpt lat="29.770116317071004" lon="-8.775903464672346"><ele>1512.0</ele><time>2026-04-15T09:16:30Z</time></trkpt><trkpt lat="29.770033627275186" lon="-8.775795183895564"><ele>1513.0</ele><time>2026-04-15T09:16:31Z</time></trkpt><trkpt lat="29.76995432339833" lon="-8.77568271581619"><ele>1514.0</ele><time>2026-04-15T09:16:32Z</time></trkpt><trkpt lat="29.769880148590772" lon="-8.775571207747147"><ele>1514.0</ele><time>2026-04-15T09:16:33Z</time></trkpt><trkpt lat="29.769805616993995" lon="-8.77546227619903"><ele>1514.0</ele><time>2026-04-15T09:16:34Z</time></trkpt><trkpt lat="29.769723577311996" lon="-8.775359691974462"><ele>1514.0</ele><time>2026-04-15T09:16:35Z</time></trkpt><trkpt lat="29.769639201892332" lon="-8.775260801721958"><ele>1514.0</ele><time>2026-04-15T09:16:36Z</time></trkpt><trkpt lat="29.769546996934437" lon="-8.775159296786954"><ele>1514.0</ele><time>2026-04-15T09:16:37Z</time></trkpt><trkpt lat="29.76945373893061" lon="-8.775057022195895"><ele>1514.0</ele><time>2026-04-15T09:16:38Z</time></trkpt><trkpt lat="29.769355194485097" lon="-8.77495835989185"><ele>1514.0</ele><time>2026-04-15T09:16:39Z</time></trkpt><trkpt lat="29.769256079175154" lon="-8.77486494862192"><ele>1514.0</ele><time>2026-04-15T09:16:40Z</time></trkpt><trkpt lat="29.769159412675577" lon="-8.774779701890667"><ele>1514.0</ele><time>2026-04-15T09:16:41Z</time></trkpt><trkpt lat="29.769063968278928" lon="-8.774695996557414"><ele>1514.0</ele><time>2026-04-15T09:16:42Z</time></trkpt><trkpt lat="29.768967735794874" lon="-8.774614311481614"><ele>1514.0</ele><time>2026-04-15T09:16:43Z</time></trkpt><trkpt lat="29.768873762264207" lon="-8.774531250417555"><ele>1514.0</ele><time>2026-04-15T09:16:44Z</time></trkpt><trkpt lat="29.768778065800863" lon="-8.774448322303092"><ele>1514.0</ele><time>2026-04-15T09:16:45Z</time></trkpt><trkpt lat="29.768681657467692" lon="-8.77436945779628"><ele>1514.0</ele><time>2026-04-15T09:16:46Z</time></trkpt><trkpt lat="29.768582921236757" lon="-8.774288712806365"><ele>1514.0</ele><time>2026-04-15T09:16:47Z</time></trkpt><trkpt lat="29.768486712148437" lon="-8.774210133847234"><ele>1514.0</ele><time>2026-04-15T09:16:48Z</time></trkpt><trkpt lat="29.768390011194327" lon="-8.774123156174536"><ele>1514.5</ele><time>2026-04-15T09:16:49Z</time></trkpt><trkpt lat="29.76829358274758" lon="-8.774040444889792"><ele>1515.0</ele><time>2026-04-15T09:16:50Z</time></trkpt><trkpt lat="29.768196824083777" lon="-8.773952128041078"><ele>1515.5</ele><time>2026-04-15T09:16:51Z</time></trkpt><trkpt lat="29.768099724263866" lon="-8.77386469107782"><ele>1516.0</ele><time>2026-04-15T09:16:52Z</time></trkpt><trkpt lat="29.768007259034903" lon="-8.773773364062208"><ele>1516.0</ele><time>2026-04-15T09:16:53Z</time></trkpt><trkpt lat="29.767918391381258" lon="-8.773676032323745"><ele>1516.0</ele><time>2026-04-15T09:16:54Z</time></trkpt><trkpt lat="29.76782913709245" lon="-8.77358610941185"><ele>1516.0</ele><time>2026-04-15T09:16:55Z</time></trkpt><trkpt lat="29.767736667701882" lon="-8.773501711000385"><ele>1516.0</ele><time>2026-04-15T09:16:56Z</time></trkpt><trkpt lat="29.76763648689126" lon="-8.773422841069728"><ele>1516.25</ele><time>2026-04-15T09:16:57Z</time></trkpt><trkpt lat="29.76753349130409" lon="-8.773342632271493"><ele>1516.5</ele><time>2026-04-15T09:16:58Z</time></trkpt><trkpt lat="29.767426613018124" lon="-8.773263766053711"><ele>1516.75</ele><time>2026-04-15T09:16:59Z</time></trkpt><trkpt lat="29.7673237355666" lon="-8.77319374655955"><ele>1517.0</ele><time>2026-04-15T09:17:00Z</time></trkpt><trkpt lat="29.7672309058406" lon="-8.7731316537775"><ele>1517.0</ele><time>2026-04-15T09:17:01Z</time></trkpt><trkpt lat="29.76714039087255" lon="-8.77307353251803"><ele>1517.0</ele><time>2026-04-15T09:17:02Z</time></trkpt><trkpt lat="29.7670605878902" lon="-8.773023171888955"><ele>1517.0</ele><time>2026-04-15T09:17:03Z</time></trkpt><trkpt lat="29.766978653253524" lon="-8.772974171521726"><ele>1517.0</ele><time>2026-04-15T09:17:04Z</time></trkpt><trkpt lat="29.76689429198781" lon="-8.772923399523803"><ele>1517.0</ele><time>2026-04-15T09:17:05Z</time></trkpt><trkpt lat="29.766812408617" lon="-8.772866743916921"><ele>1517.0</ele><time>2026-04-15T09:17:06Z</time></trkpt><trkpt lat="29.766728888695972" lon="-8.772806385257871"><ele>1517.0</ele><time>2026-04-15T09:17:07Z</time></trkpt><trkpt lat="29.766646649383908" lon="-8.772743828534306"><ele>1517.0</ele><time>2026-04-15T09:17:08Z</time></trkpt><trkpt lat="29.766572790130652" lon="-8.772673763482473"><ele>1517.0</ele><time>2026-04-15T09:17:09Z</time></trkpt><trkpt lat="29.766511961945795" lon="-8.772595269109651"><ele>1517.0</ele><time>2026-04-15T09:17:10Z</time></trkpt><trkpt lat="29.766463591981907" lon="-8.772520614425225"><ele>1517.7142857142856</ele><time>2026-04-15T09:17:11Z</time></trkpt><trkpt lat="29.76643146818007" lon="-8.772443536564543"><ele>1518.4285714285716</ele><time>2026-04-15T09:17:12Z</time></trkpt><trkpt lat="29.76641088224642" lon="-8.772362388511203"><ele>1519.142857142857</ele><time>2026-04-15T09:17:13Z</time></trkpt><trkpt lat="29.766395597348918" lon="-8.772278166710066"><ele>1519.8571428571427</ele><time>2026-04-15T09:17:14Z</time></trkpt><trkpt lat="29.766388886489917" lon="-8.772194029941577"><ele>1520.5714285714284</ele><time>2026-04-15T09:17:15Z</time></trkpt><trkpt lat="29.766385538877557" lon="-8.77211406012124"><ele>1521.2857142857142</ele><time>2026-04-15T09:17:16Z</time></trkpt><trkpt lat="29.766376523235557" lon="-8.772031273435164"><ele>1522.0</ele><time>2026-04-15T09:17:17Z</time></trkpt><trkpt lat="29.76636595594425" lon="-8.771938674387568"><ele>1522.0</ele><time>2026-04-15T09:17:18Z</time></trkpt><trkpt lat="29.766359553242395" lon="-8.771841539777004"><ele>1522.0</ele><time>2026-04-15T09:17:19Z</time></trkpt><trkpt lat="29.766354254869178" lon="-8.771738867610486"><ele>1522.0</ele><time>2026-04-15T09:17:20Z</time></trkpt><trkpt lat="29.766355624781657" lon="-8.771634491368355"><ele>1522.0</ele><time>2026-04-15T09:17:21Z</time></trkpt><trkpt lat="29.766358298381835" lon="-8.771526125442643"><ele>1522.0</ele><time>2026-04-15T09:17:22Z</time></trkpt><trkpt lat="29.766359919432876" lon="-8.771405241635845"><ele>1522.0</ele><time>2026-04-15T09:17:23Z</time></trkpt><trkpt lat="29.766362980133252" lon="-8.771285509416925"><ele>1522.0</ele><time>2026-04-15T09:17:24Z</time></trkpt><trkpt lat="29.766361763392833" lon="-8.77116715032571"><ele>1522.0</ele><time>2026-04-15T09:17:25Z</time></trkpt><trkpt lat="29.76636103303989" lon="-8.77104442595118"><ele>1522.0</ele><time>2026-04-15T09:17:26Z</time></trkpt><trkpt lat="29.76636164939432" lon="-8.770917729375943"><ele>1522.0</ele><time>2026-04-15T09:17:27Z</time></trkpt><trkpt lat="29.76636504331789" lon="-8.770792863756784"><ele>1522.3999999999999</ele><time>2026-04-15T09:17:28Z</time></trkpt><trkpt lat="29.766368645000824" lon="-8.770668377900796"><ele>1522.8</ele><time>2026-04-15T09:17:29Z</time></trkpt><trkpt lat="29.76637293949693" lon="-8.770544152558873"><ele>1523.2</ele><time>2026-04-15T09:17:30Z</time></trkpt><trkpt lat="29.766374881983005" lon="-8.770416295803392"><ele>1523.6</ele><time>2026-04-15T09:17:31Z</time></trkpt><trkpt lat="29.766376244194817" lon="-8.77029310600197"><ele>1524.0</ele><time>2026-04-15T09:17:32Z</time></trkpt><trkpt lat="29.766378978104573" lon="-8.77017010575856"><ele>1524.6</ele><time>2026-04-15T09:17:33Z</time></trkpt><trkpt lat="29.766382149067752" lon="-8.77004461322915"><ele>1525.2</ele><time>2026-04-15T09:17:34Z</time></trkpt><trkpt lat="29.766386956054532" lon="-8.76991756217723"><ele>1525.8</ele><time>2026-04-15T09:17:35Z</time></trkpt><trkpt lat="29.766394498170264" lon="-8.769790821614794"><ele>1526.3999999999999</ele><time>2026-04-15T09:17:36Z</time></trkpt><trkpt lat="29.766406227647387" lon="-8.76965884536274"><ele>1527.0</ele><time>2026-04-15T09:17:37Z</time></trkpt><trkpt lat="29.76642218172746" lon="-8.76952854852877"><ele>1527.0</ele><time>2026-04-15T09:17:38Z</time></trkpt><trkpt lat="29.766438519083597" lon="-8.76939926518272"><ele>1527.0</ele><time>2026-04-15T09:17:39Z</time></trkpt><trkpt lat="29.766451517225974" lon="-8.769271094048216"><ele>1527.0</ele><time>2026-04-15T09:17:40Z</time></trkpt><trkpt lat="29.766462308597305" lon="-8.769145086784754"><ele>1527.0</ele><time>2026-04-15T09:17:41Z</time></trkpt><trkpt lat="29.766470611885183" lon="-8.769019419175953"><ele>1527.0</ele><time>2026-04-15T09:17:42Z</time></trkpt><trkpt lat="29.766479427427672" lon="-8.768887714468077"><ele>1527.75</ele><time>2026-04-15T09:17:43Z</time></trkpt><trkpt lat="29.766498477305205" lon="-8.768754620910492"><ele>1528.5</ele><time>2026-04-15T09:17:44Z</time></trkpt><trkpt lat="29.766529117494983" lon="-8.768621998169886"><ele>1529.25</ele><time>2026-04-15T09:17:45Z</time></trkpt><trkpt lat="29.766564985400215" lon="-8.768493004308132"><ele>1530.0</ele><time>2026-04-15T09:17:46Z</time></trkpt><trkpt lat="29.766610781693924" lon="-8.768359508795136"><ele>1530.5</ele><time>2026-04-15T09:17:47Z</time></trkpt><trkpt lat="29.766663856104252" lon="-8.7682325081204"><ele>1531.0</ele><time>2026-04-15T09:17:48Z</time></trkpt><trkpt lat="29.76670639612697" lon="-8.76810546285861"><ele>1531.5</ele><time>2026-04-15T09:17:49Z</time></trkpt><trkpt lat="29.76673046604039" lon="-8.7679734328187"><ele>1532.0</ele><time>2026-04-15T09:17:50Z</time></trkpt><trkpt lat="29.766743788062435" lon="-8.767835725112036"><ele>1532.0</ele><time>2026-04-15T09:17:51Z</time></trkpt><trkpt lat="29.7667458092743" lon="-8.767697077990256"><ele>1532.0</ele><time>2026-04-15T09:17:52Z</time></trkpt><trkpt lat="29.76674930356453" lon="-8.767559032357012"><ele>1532.0</ele><time>2026-04-15T09:17:53Z</time></trkpt><trkpt lat="29.766760518647338" lon="-8.767427523011259"><ele>1532.0</ele><time>2026-04-15T09:17:54Z</time></trkpt><trkpt lat="29.766779291307035" lon="-8.76730659174225"><ele>1532.6</ele><time>2026-04-15T09:17:55Z</time></trkpt><trkpt lat="29.766805322175202" lon="-8.767188145875423"><ele>1533.1999999999998</ele><time>2026-04-15T09:17:56Z</time></trkpt><trkpt lat="29.766841797806546" lon="-8.76707112859288"><ele>1533.8</ele><time>2026-04-15T09:17:57Z</time></trkpt><trkpt lat="29.766891455687446" lon="-8.766955053764232"><ele>1534.4</ele><time>2026-04-15T09:17:58Z</time></trkpt><trkpt lat="29.766947862104132" lon="-8.7668416091668"><ele>1535.0</ele><time>2026-04-15T09:17:59Z</time></trkpt><trkpt lat="29.76701135528447" lon="-8.766729024932872"><ele>1536.25</ele><time>2026-04-15T09:18:00Z</time></trkpt><trkpt lat="29.767075306539855" lon="-8.766614725539899"><ele>1537.5</ele><time>2026-04-15T09:18:01Z</time></trkpt><trkpt lat="29.76713767792543" lon="-8.766501854849109"><ele>1538.75</ele><time>2026-04-15T09:18:02Z</time></trkpt><trkpt lat="29.76719956075755" lon="-8.766392727329439"><ele>1540.0</ele><time>2026-04-15T09:18:03Z</time></trkpt><trkpt lat="29.76725962369596" lon="-8.766284270424983"><ele>1540.0</ele><time>2026-04-15T09:18:04Z</time></trkpt><trkpt lat="29.767321002876134" lon="-8.766176325826585"><ele>1540.0</ele><time>2026-04-15T09:18:05Z</time></trkpt><trkpt lat="29.76738124139717" lon="-8.766069076632727"><ele>1540.0</ele><time>2026-04-15T09:18:06Z</time></trkpt><trkpt lat="29.767437322077214" lon="-8.765968438653282"><ele>1540.0</ele><time>2026-04-15T09:18:07Z</time></trkpt><trkpt lat="29.7674913659878" lon="-8.765875178362556"><ele>1540.0</ele><time>2026-04-15T09:18:08Z</time></trkpt><trkpt lat="29.767544764537472" lon="-8.765792428761246"><ele>1541.6</ele><time>2026-04-15T09:18:09Z</time></trkpt><trkpt lat="29.76760321050766" lon="-8.765711386245618"><ele>1543.2</ele><time>2026-04-15T09:18:10Z</time></trkpt><trkpt lat="29.76767486708272" lon="-8.765633388629777"><ele>1544.8000000000002</ele><time>2026-04-15T09:18:11Z</time></trkpt><trkpt lat="29.767756532168615" lon="-8.765552822436632"><ele>1546.4</ele><time>2026-04-15T09:18:12Z</time></trkpt><trkpt lat="29.767845400362766" lon="-8.76547342099378"><ele>1548.0</ele><time>2026-04-15T09:18:13Z</time></trkpt><trkpt lat="29.767928035287152" lon="-8.765399417207437"><ele>1549.0</ele><time>2026-04-15T09:18:14Z</time></trkpt><trkpt lat="29.767994289876917" lon="-8.765340932448753"><ele>1550.0</ele><time>2026-04-15T09:18:15Z</time></trkpt><trkpt lat="29.768053981927796" lon="-8.765289128933313"><ele>1551.0</ele><time>2026-04-15T09:18:16Z</time></trkpt><trkpt lat="29.768118819329736" lon="-8.765229667001813"><ele>1552.0</ele><time>2026-04-15T09:18:17Z</time></trkpt><trkpt lat="29.76818852595115" lon="-8.765164979446363"><ele>1553.0</ele><time>2026-04-15T09:18:18Z</time></trkpt><trkpt lat="29.768262112099908" lon="-8.765093136736308"><ele>1554.0</ele><time>2026-04-15T09:18:19Z</time></trkpt><trkpt lat="29.76833977611313" lon="-8.765015184298692"><ele>1555.2</ele><time>2026-04-15T09:18:20Z</time></trkpt><trkpt lat="29.768421606861743" lon="-8.764931785969793"><ele>1556.4</ele><time>2026-04-15T09:18:21Z</time></trkpt><trkpt lat="29.768507852440152" lon="-8.76484219867039"><ele>1557.6</ele><time>2026-04-15T09:18:22Z</time></trkpt><trkpt lat="29.76858741838095" lon="-8.764756427047047"><ele>1558.8</ele><time>2026-04-15T09:18:23Z</time></trkpt><trkpt lat="29.76866097493718" lon="-8.76466965794815"><ele>1560.0</ele><time>2026-04-15T09:18:24Z</time></trkpt><trkpt lat="29.76873184482899" lon="-8.764574854727666"><ele>1560.6</ele><time>2026-04-15T09:18:25Z</time></trkpt><trkpt lat="29.76880112072676" lon="-8.764479293480525"><ele>1561.2</ele><time>2026-04-15T09:18:26Z</time></trkpt><trkpt lat="29.76886636519999" lon="-8.76437900447218"><ele>1561.8000000000002</ele><time>2026-04-15T09:18:27Z</time></trkpt><trkpt lat="29.7689223892223" lon="-8.764275787425198"><ele>1562.4</ele><time>2026-04-15T09:18:28Z</time></trkpt><trkpt lat="29.768972239611006" lon="-8.764170593488462"><ele>1563.0</ele><time>2026-04-15T09:18:29Z</time></trkpt><trkpt lat="29.769014059270756" lon="-8.764061388013197"><ele>1563.4</ele><time>2026-04-15T09:18:30Z</time></trkpt><trkpt lat="29.769041054987007" lon="-8.763954789659362"><ele>1563.8000000000002</ele><time>2026-04-15T09:18:31Z</time></trkpt><trkpt lat="29.769049420062508" lon="-8.763843829802353"><ele>1564.2</ele><time>2026-04-15T09:18:32Z</time></trkpt><trkpt lat="29.769043278254152" lon="-8.763730034992763"><ele>1564.6</ele><time>2026-04-15T09:18:33Z</time></trkpt><trkpt lat="29.769028590882378" lon="-8.763612724636754"><ele>1565.0</ele><time>2026-04-15T09:18:34Z</time></trkpt><trkpt lat="29.76901569566414" lon="-8.763498964700878"><ele>1566.6</ele><time>2026-04-15T09:18:35Z</time></trkpt><trkpt lat="29.76900327194329" lon="-8.763381817728654"><ele>1568.2</ele><time>2026-04-15T09:18:36Z</time></trkpt><trkpt lat="29.768993421155596" lon="-8.763267685022582"><ele>1569.8000000000002</ele><time>2026-04-15T09:18:37Z</time></trkpt><trkpt lat="29.768974260243183" lon="-8.76314911800123"><ele>1571.4</ele><time>2026-04-15T09:18:38Z</time></trkpt><trkpt lat="29.768958478887864" lon="-8.763035982028715"><ele>1573.0</ele><time>2026-04-15T09:18:39Z</time></trkpt><trkpt lat="29.768941441018434" lon="-8.76292068833018"><ele>1573.0</ele><time>2026-04-15T09:18:40Z</time></trkpt><trkpt lat="29.768926283936413" lon="-8.762800895018131"><ele>1573.0</ele><time>2026-04-15T09:18:41Z</time></trkpt><trkpt lat="29.768910175153124" lon="-8.762678351483991"><ele>1573.0</ele><time>2026-04-15T09:18:42Z</time></trkpt><trkpt lat="29.768892247916295" lon="-8.76255326966695"><ele>1573.0</ele><time>2026-04-15T09:18:43Z</time></trkpt><trkpt lat="29.768869647672098" lon="-8.762426086847947"><ele>1573.0</ele><time>2026-04-15T09:18:44Z</time></trkpt><trkpt lat="29.768844265239757" lon="-8.762298868127685"><ele>1574.75</ele><time>2026-04-15T09:18:45Z</time></trkpt><trkpt lat="29.768812513490793" lon="-8.76217428628412"><ele>1576.5</ele><time>2026-04-15T09:18:46Z</time></trkpt><trkpt lat="29.768779110659086" lon="-8.762050126178842"><ele>1578.25</ele><time>2026-04-15T09:18:47Z</time></trkpt><trkpt lat="29.768750187184324" lon="-8.761924570809882"><ele>1580.0</ele><time>2026-04-15T09:18:48Z</time></trkpt><trkpt lat="29.768729141177932" lon="-8.761792651992062"><ele>1581.75</ele><time>2026-04-15T09:18:49Z</time></trkpt><trkpt lat="29.768715568882293" lon="-8.761661484520728"><ele>1583.5</ele><time>2026-04-15T09:18:50Z</time></trkpt><trkpt lat="29.76871414938298" lon="-8.76152909573226"><ele>1585.25</ele><time>2026-04-15T09:18:51Z</time></trkpt><trkpt lat="29.76872544925683" lon="-8.761393880072603"><ele>1587.0</ele><time>2026-04-15T09:18:52Z</time></trkpt><trkpt lat="29.76875989210719" lon="-8.761264873495328"><ele>1587.0</ele><time>2026-04-15T09:18:53Z</time></trkpt><trkpt lat="29.768804683272453" lon="-8.761142919631904"><ele>1587.0</ele><time>2026-04-15T09:18:54Z</time></trkpt><trkpt lat="29.7688544038564" lon="-8.761023785367222"><ele>1587.0</ele><time>2026-04-15T09:18:55Z</time></trkpt><trkpt lat="29.76889578586402" lon="-8.760906073836871"><ele>1587.0</ele><time>2026-04-15T09:18:56Z</time></trkpt><trkpt lat="29.768923516929576" lon="-8.76079912853377"><ele>1587.0</ele><time>2026-04-15T09:18:57Z</time></trkpt><trkpt lat="29.768934140726895" lon="-8.760710375899997"><ele>1588.1666666666667</ele><time>2026-04-15T09:18:58Z</time></trkpt><trkpt lat="29.76893541575911" lon="-8.760632696353447"><ele>1589.3333333333335</ele><time>2026-04-15T09:18:59Z</time></trkpt><trkpt lat="29.768929097306927" lon="-8.76055613737907"><ele>1590.5</ele><time>2026-04-15T09:19:00Z</time></trkpt><trkpt lat="29.768917129580675" lon="-8.760459358058052"><ele>1591.6666666666667</ele><time>2026-04-15T09:19:02Z</time></trkpt><trkpt lat="29.76886811691455" lon="-8.760377188269308"><ele>1592.8333333333335</ele><time>2026-04-15T09:19:52Z</time></trkpt><trkpt lat="29.768851461633744" lon="-8.760286633232592"><ele>1594.0</ele><time>2026-04-15T09:19:55Z</time></trkpt><trkpt lat="29.768838824928253" lon="-8.760200165265532"><ele>1594.8333333333335</ele><time>2026-04-15T09:19:57Z</time></trkpt><trkpt lat="29.768781620486372" lon="-8.760153650476608"><ele>1595.6666666666667</ele><time>2026-04-15T09:27:10Z</time></trkpt><trkpt lat="29.768756953067367" lon="-8.760085316171905"><ele>1596.5</ele><time>2026-04-15T09:27:13Z</time></trkpt><trkpt lat="29.768733990040378" lon="-8.760007797465352"><ele>1597.3333333333335</ele><time>2026-04-15T09:27:15Z</time></trkpt><trkpt lat="29.76870727337236" lon="-8.759915549741992"><ele>1598.1666666666667</ele><time>2026-04-15T09:27:18Z</time></trkpt><trkpt lat="29.768682000613115" lon="-8.759828556663255"><ele>1599.0</ele><time>2026-04-15T09:27:21Z</time></trkpt><trkpt lat="29.768669700197375" lon="-8.759722126334234"><ele>1599.0</ele><time>2026-04-15T09:27:24Z</time></trkpt><trkpt lat="29.76865009282829" lon="-8.75964413683477"><ele>1599.0</ele><time>2026-04-15T09:27:27Z</time></trkpt><trkpt lat="29.76865401261326" lon="-8.759544138517748"><ele>1599.0</ele><time>2026-04-15T09:27:38Z</time></trkpt><trkpt lat="29.76864926889246" lon="-8.759464991660623"><ele>1599.0</ele><time>2026-04-15T09:28:11Z</time></trkpt><trkpt lat="29.768682416431325" lon="-8.759356652610116"><ele>1599.0</ele><time>2026-04-15T09:28:13Z</time></trkpt><trkpt lat="29.768728533561625" lon="-8.759244383779155"><ele>1599.0</ele><time>2026-04-15T09:28:15Z</time></trkpt><trkpt lat="29.768789268019713" lon="-8.759138928086394"><ele>1600.6</ele><time>2026-04-15T09:28:17Z</time></trkpt><trkpt lat="29.768856713917188" lon="-8.759040910969423"><ele>1602.2</ele><time>2026-04-15T09:28:19Z</time></trkpt><trkpt lat="29.768928331701318" lon="-8.758916341012872"><ele>1603.8</ele><time>2026-04-15T09:28:21Z</time></trkpt><trkpt lat="29.76897558774429" lon="-8.758852868580437"><ele>1605.3999999999999</ele><time>2026-04-15T09:28:22Z</time></trkpt><trkpt lat="29.769033508438547" lon="-8.758791609456484"><ele>1607.0</ele><time>2026-04-15T09:28:23Z</time></trkpt><trkpt lat="29.76909384632039" lon="-8.758735830876821"><ele>1606.9999999999998</ele><time>2026-04-15T09:28:24Z</time></trkpt><trkpt lat="29.769181315331174" lon="-8.758637308553526"><ele>1607.0</ele><time>2026-04-15T09:28:26Z</time></trkpt><trkpt lat="29.769225804279934" lon="-8.758581047438359"><ele>1607.0</ele><time>2026-04-15T09:28:27Z</time></trkpt><trkpt lat="29.76926562473418" lon="-8.758518553115161"><ele>1607.0</ele><time>2026-04-15T09:28:28Z</time></trkpt><trkpt lat="29.769301927406268" lon="-8.758443283591363"><ele>1606.9999999999998</ele><time>2026-04-15T09:28:29Z</time></trkpt><trkpt lat="29.76933020665538" lon="-8.758363373193346"><ele>1607.0</ele><time>2026-04-15T09:28:30Z</time></trkpt><trkpt lat="29.769348494333677" lon="-8.758280233133368"><ele>1607.6666666666665</ele><time>2026-04-15T09:28:31Z</time></trkpt><trkpt lat="29.76936047652282" lon="-8.758193029281635"><ele>1608.3333333333333</ele><time>2026-04-15T09:28:32Z</time></trkpt><trkpt lat="29.769369884280636" lon="-8.75810861141459"><ele>1609.0</ele><time>2026-04-15T09:28:33Z</time></trkpt><trkpt lat="29.769378806457077" lon="-8.758018343792964"><ele>1609.6666666666665</ele><time>2026-04-15T09:28:34Z</time></trkpt><trkpt lat="29.76939291126372" lon="-8.757925621667868"><ele>1610.3333333333333</ele><time>2026-04-15T09:28:35Z</time></trkpt><trkpt lat="29.769411723698138" lon="-8.757825602826387"><ele>1611.0</ele><time>2026-04-15T09:28:36Z</time></trkpt><trkpt lat="29.769433921251647" lon="-8.757718555863677"><ele>1612.0</ele><time>2026-04-15T09:28:37Z</time></trkpt><trkpt lat="29.769464694289958" lon="-8.757601443251085"><ele>1613.0</ele><time>2026-04-15T09:28:38Z</time></trkpt><trkpt lat="29.76949809492506" lon="-8.757493343722295"><ele>1614.0</ele><time>2026-04-15T09:28:39Z</time></trkpt><trkpt lat="29.769537914629584" lon="-8.75739633122536"><ele>1615.0</ele><time>2026-04-15T09:28:40Z</time></trkpt><trkpt lat="29.76957618457492" lon="-8.75731478049907"><ele>1616.0</ele><time>2026-04-15T09:28:41Z</time></trkpt><trkpt lat="29.769608624068542" lon="-8.75724867145032"><ele>1617.0</ele><time>2026-04-15T09:28:42Z</time></trkpt><trkpt lat="29.769668666520396" lon="-8.75712759783286"><ele>1617.0</ele><time>2026-04-15T09:28:44Z</time></trkpt><trkpt lat="29.769712989856007" lon="-8.757014656105861"><ele>1617.0</ele><time>2026-04-15T09:28:46Z</time></trkpt><trkpt lat="29.76976705251101" lon="-8.75691409320095"><ele>1617.0</ele><time>2026-04-15T09:28:48Z</time></trkpt><trkpt lat="29.76981618424332" lon="-8.756816532790214"><ele>1617.0</ele><time>2026-04-15T09:28:50Z</time></trkpt><trkpt lat="29.769877048609366" lon="-8.756694984311089"><ele>1617.0</ele><time>2026-04-15T09:28:52Z</time></trkpt><trkpt lat="29.769911845465035" lon="-8.756629982647391"><ele>1618.3333333333333</ele><time>2026-04-15T09:28:53Z</time></trkpt><trkpt lat="29.76995069885254" lon="-8.756557658071262"><ele>1619.6666666666665</ele><time>2026-04-15T09:28:54Z</time></trkpt><trkpt lat="29.769989654647603" lon="-8.756487510535042"><ele>1621.0</ele><time>2026-04-15T09:28:55Z</time></trkpt><trkpt lat="29.770029677022823" lon="-8.756415135790844"><ele>1622.3333333333333</ele><time>2026-04-15T09:28:56Z</time></trkpt><trkpt lat="29.770070999233887" lon="-8.756339210930697"><ele>1623.6666666666665</ele><time>2026-04-15T09:28:57Z</time></trkpt><trkpt lat="29.77011249465614" lon="-8.756258429535787"><ele>1625.0</ele><time>2026-04-15T09:28:58Z</time></trkpt><trkpt lat="29.77015197759512" lon="-8.756174905382238"><ele>1625.0</ele><time>2026-04-15T09:28:59Z</time></trkpt><trkpt lat="29.770191926110805" lon="-8.756088232823135"><ele>1625.0</ele><time>2026-04-15T09:29:00Z</time></trkpt><trkpt lat="29.770238826389246" lon="-8.756002658249455"><ele>1625.0</ele><time>2026-04-15T09:29:01Z</time></trkpt><trkpt lat="29.770291922365406" lon="-8.755918931613735"><ele>1625.0</ele><time>2026-04-15T09:29:02Z</time></trkpt><trkpt lat="29.77034587770386" lon="-8.755828260085583"><ele>1625.0</ele><time>2026-04-15T09:29:03Z</time></trkpt><trkpt lat="29.770399468865513" lon="-8.755733985446641"><ele>1625.0</ele><time>2026-04-15T09:29:04Z</time></trkpt><trkpt lat="29.77045179729409" lon="-8.755633144091094"><ele>1625.0</ele><time>2026-04-15T09:29:05Z</time></trkpt><trkpt lat="29.77049865838161" lon="-8.755523532694847"><ele>1625.0</ele><time>2026-04-15T09:29:06Z</time></trkpt><trkpt lat="29.770539373892458" lon="-8.755414958570961"><ele>1625.0</ele><time>2026-04-15T09:29:07Z</time></trkpt><trkpt lat="29.7705717551896" lon="-8.755309050445405"><ele>1625.0</ele><time>2026-04-15T09:29:08Z</time></trkpt><trkpt lat="29.770596675689177" lon="-8.755203730083698"><ele>1625.4</ele><time>2026-04-15T09:29:09Z</time></trkpt><trkpt lat="29.770609435952636" lon="-8.755091833170223"><ele>1625.8</ele><time>2026-04-15T09:29:10Z</time></trkpt><trkpt lat="29.77060542913456" lon="-8.75498326836357"><ele>1626.1999999999998</ele><time>2026-04-15T09:29:11Z</time></trkpt><trkpt lat="29.7705804051365" lon="-8.75487676612379"><ele>1626.6</ele><time>2026-04-15T09:29:12Z</time></trkpt><trkpt lat="29.770541184990623" lon="-8.754770855274746"><ele>1627.0</ele><time>2026-04-15T09:29:13Z</time></trkpt><trkpt lat="29.770491871773817" lon="-8.75466477879879"><ele>1627.0</ele><time>2026-04-15T09:29:14Z</time></trkpt><trkpt lat="29.77043314269154" lon="-8.754561044238233"><ele>1627.0</ele><time>2026-04-15T09:29:15Z</time></trkpt><trkpt lat="29.77036947817428" lon="-8.754457965916847"><ele>1627.0</ele><time>2026-04-15T09:29:16Z</time></trkpt><trkpt lat="29.770310797665065" lon="-8.754361354173568"><ele>1627.0</ele><time>2026-04-15T09:29:17Z</time></trkpt><trkpt lat="29.770256352642157" lon="-8.754273842914943"><ele>1627.0</ele><time>2026-04-15T09:29:18Z</time></trkpt><trkpt lat="29.77020769420524" lon="-8.75418851071674"><ele>1626.8333333333335</ele><time>2026-04-15T09:29:19Z</time></trkpt><trkpt lat="29.770164548194774" lon="-8.754098354929138"><ele>1626.6666666666667</ele><time>2026-04-15T09:29:20Z</time></trkpt><trkpt lat="29.77012710051156" lon="-8.754005631145706"><ele>1626.5</ele><time>2026-04-15T09:29:21Z</time></trkpt><trkpt lat="29.770096349305636" lon="-8.75391636665218"><ele>1626.3333333333335</ele><time>2026-04-15T09:29:22Z</time></trkpt><trkpt lat="29.770075338675365" lon="-8.753832078850204"><ele>1626.1666666666667</ele><time>2026-04-15T09:29:23Z</time></trkpt><trkpt lat="29.77006617092227" lon="-8.753748970684041"><ele>1626.0</ele><time>2026-04-15T09:29:24Z</time></trkpt><trkpt lat="29.770074452490572" lon="-8.75366938893019"><ele>1626.0</ele><time>2026-04-15T09:29:25Z</time></trkpt><trkpt lat="29.770098454840767" lon="-8.753595890658792"><ele>1626.0</ele><time>2026-04-15T09:29:26Z</time></trkpt><trkpt lat="29.77013012285183" lon="-8.753524194529888"><ele>1626.0</ele><time>2026-04-15T09:29:27Z</time></trkpt><trkpt lat="29.770185489083893" lon="-8.753450789808193"><ele>1626.0</ele><time>2026-04-15T09:29:28Z</time></trkpt><trkpt lat="29.770253871064288" lon="-8.75337283919232"><ele>1626.0</ele><time>2026-04-15T09:29:29Z</time></trkpt><trkpt lat="29.770325369573023" lon="-8.753288596632355"><ele>1626.0</ele><time>2026-04-15T09:29:30Z</time></trkpt><trkpt lat="29.77039663724334" lon="-8.753198031990625"><ele>1625.6</ele><time>2026-04-15T09:29:31Z</time></trkpt><trkpt lat="29.77046628225882" lon="-8.753103994037009"><ele>1625.1999999999998</ele><time>2026-04-15T09:29:32Z</time></trkpt><trkpt lat="29.770529727308556" lon="-8.753003722818054"><ele>1624.8000000000002</ele><time>2026-04-15T09:29:33Z</time></trkpt><trkpt lat="29.770590956200685" lon="-8.752890805942043"><ele>1624.4</ele><time>2026-04-15T09:29:34Z</time></trkpt><trkpt lat="29.77064605669616" lon="-8.752776303980504"><ele>1624.0</ele><time>2026-04-15T09:29:35Z</time></trkpt><trkpt lat="29.770688406590423" lon="-8.752665281010295"><ele>1624.0</ele><time>2026-04-15T09:29:36Z</time></trkpt><trkpt lat="29.77072699920626" lon="-8.752550925585659"><ele>1624.0</ele><time>2026-04-15T09:29:37Z</time></trkpt><trkpt lat="29.770761028466357" lon="-8.752433747972795"><ele>1624.0</ele><time>2026-04-15T09:29:38Z</time></trkpt><trkpt lat="29.77079123714199" lon="-8.752329122273762"><ele>1624.0</ele><time>2026-04-15T09:29:39Z</time></trkpt><trkpt lat="29.770817458349637" lon="-8.752221149971863"><ele>1624.0</ele><time>2026-04-15T09:29:40Z</time></trkpt><trkpt lat="29.770835346514136" lon="-8.752103752178831"><ele>1624.0000000000002</ele><time>2026-04-15T09:29:41Z</time></trkpt><trkpt lat="29.77084759020558" lon="-8.751992814697902"><ele>1624.0</ele><time>2026-04-15T09:29:42Z</time></trkpt><trkpt lat="29.770862767315812" lon="-8.751894870435592"><ele>1624.0</ele><time>2026-04-15T09:29:43Z</time></trkpt><trkpt lat="29.770883621917353" lon="-8.751818073945847"><ele>1624.0</ele><time>2026-04-15T09:29:44Z</time></trkpt><trkpt lat="29.770911887081816" lon="-8.751721207544726"><ele>1624.0000000000002</ele><time>2026-04-15T09:29:46Z</time></trkpt><trkpt lat="29.77098606474479" lon="-8.75165306135209"><ele>1624.0</ele><time>2026-04-15T09:29:48Z</time></trkpt><trkpt lat="29.77104488811081" lon="-8.751623190777499"><ele>1624.0</ele><time>2026-04-15T09:29:49Z</time></trkpt><trkpt lat="29.771124177228163" lon="-8.751598293041257"><ele>1624.0</ele><time>2026-04-15T09:29:50Z</time></trkpt><trkpt lat="29.771213536079387" lon="-8.751584609844892"><ele>1624.0</ele><time>2026-04-15T09:29:51Z</time></trkpt><trkpt lat="29.77131658024693" lon="-8.751570631109056"><ele>1624.0</ele><time>2026-04-15T09:29:52Z</time></trkpt><trkpt lat="29.77141974210063" lon="-8.751553609886006"><ele>1624.0</ele><time>2026-04-15T09:29:53Z</time></trkpt><trkpt lat="29.771511763476035" lon="-8.7515246147756"><ele>1624.0000000000002</ele><time>2026-04-15T09:29:54Z</time></trkpt><trkpt lat="29.771591344552363" lon="-8.751477410071965"><ele>1624.0</ele><time>2026-04-15T09:29:55Z</time></trkpt><trkpt lat="29.771658568445314" lon="-8.751412363278437"><ele>1624.0</ele><time>2026-04-15T09:29:56Z</time></trkpt><trkpt lat="29.77170344126182" lon="-8.751342112129194"><ele>1624.0</ele><time>2026-04-15T09:29:57Z</time></trkpt><trkpt lat="29.771728910312962" lon="-8.751257608125153"><ele>1624.0000000000002</ele><time>2026-04-15T09:29:58Z</time></trkpt><trkpt lat="29.771736649423172" lon="-8.751166708160273"><ele>1624.0</ele><time>2026-04-15T09:29:59Z</time></trkpt><trkpt lat="29.771730256632953" lon="-8.751061872279225"><ele>1622.6</ele><time>2026-04-15T09:30:00Z</time></trkpt><trkpt lat="29.77172036412226" lon="-8.750964524561171"><ele>1621.2</ele><time>2026-04-15T09:30:01Z</time></trkpt><trkpt lat="29.771712909523377" lon="-8.750891339034613"><ele>1619.8</ele><time>2026-04-15T09:30:02Z</time></trkpt><trkpt lat="29.771714230598217" lon="-8.75077007387672"><ele>1618.3999999999999</ele><time>2026-04-15T09:30:04Z</time></trkpt><trkpt lat="29.771725744664113" lon="-8.750650278272968"><ele>1617.0</ele><time>2026-04-15T09:30:06Z</time></trkpt><trkpt lat="29.771777766815617" lon="-8.75053390993715"><ele>1617.0</ele><time>2026-04-15T09:30:08Z</time></trkpt><trkpt lat="29.77185484298795" lon="-8.75045638040902"><ele>1617.0</ele><time>2026-04-15T09:30:10Z</time></trkpt><trkpt lat="29.771939515103153" lon="-8.75040173988735"><ele>1617.0</ele><time>2026-04-15T09:30:12Z</time></trkpt><trkpt lat="29.772048532055038" lon="-8.750340790367913"><ele>1617.0</ele><time>2026-04-15T09:30:14Z</time></trkpt><trkpt lat="29.772111153859225" lon="-8.75030265940762"><ele>1617.0</ele><time>2026-04-15T09:30:15Z</time></trkpt><trkpt lat="29.77218032530982" lon="-8.750261868253167"><ele>1616.1666666666667</ele><time>2026-04-15T09:30:16Z</time></trkpt><trkpt lat="29.772253305450167" lon="-8.750218142461899"><ele>1615.3333333333335</ele><time>2026-04-15T09:30:17Z</time></trkpt><trkpt lat="29.772320428635293" lon="-8.750175370721706"><ele>1614.5</ele><time>2026-04-15T09:30:18Z</time></trkpt><trkpt lat="29.77238231121406" lon="-8.75013832060769"><ele>1613.6666666666667</ele><time>2026-04-15T09:30:19Z</time></trkpt><trkpt lat="29.772442106678724" lon="-8.750100070538329"><ele>1612.8333333333335</ele><time>2026-04-15T09:30:20Z</time></trkpt><trkpt lat="29.772510591874866" lon="-8.750051429429222"><ele>1612.0</ele><time>2026-04-15T09:30:21Z</time></trkpt><trkpt lat="29.77257814422405" lon="-8.750008447186667"><ele>1612.0000000000002</ele><time>2026-04-15T09:30:22Z</time></trkpt><trkpt lat="29.772642822596236" lon="-8.749964721882192"><ele>1612.0</ele><time>2026-04-15T09:30:23Z</time></trkpt><trkpt lat="29.772709195019285" lon="-8.749923561657994"><ele>1612.0</ele><time>2026-04-15T09:30:24Z</time></trkpt><trkpt lat="29.772774304570746" lon="-8.749885743814557"><ele>1612.0</ele><time>2026-04-15T09:30:25Z</time></trkpt><trkpt lat="29.77283464155996" lon="-8.749836198455274"><ele>1612.0000000000002</ele><time>2026-04-15T09:30:26Z</time></trkpt><trkpt lat="29.772885638322563" lon="-8.749778971650414"><ele>1612.0</ele><time>2026-04-15T09:30:27Z</time></trkpt><trkpt lat="29.772938125834873" lon="-8.7497064721853"><ele>1611.8</ele><time>2026-04-15T09:30:28Z</time></trkpt><trkpt lat="29.772992898768724" lon="-8.749627334094729"><ele>1611.6</ele><time>2026-04-15T09:30:29Z</time></trkpt><trkpt lat="29.77304499246983" lon="-8.749535888812563"><ele>1611.3999999999999</ele><time>2026-04-15T09:30:30Z</time></trkpt><trkpt lat="29.773100539991393" lon="-8.749443037191378"><ele>1611.1999999999998</ele><time>2026-04-15T09:30:31Z</time></trkpt><trkpt lat="29.773158811725974" lon="-8.749355064680971"><ele>1611.0</ele><time>2026-04-15T09:30:32Z</time></trkpt><trkpt lat="29.773207063913794" lon="-8.749274791526416"><ele>1611.3333333333333</ele><time>2026-04-15T09:30:33Z</time></trkpt><trkpt lat="29.773253154522816" lon="-8.749191952379284"><ele>1611.6666666666665</ele><time>2026-04-15T09:30:34Z</time></trkpt><trkpt lat="29.773294749220724" lon="-8.749102770582791"><ele>1612.0</ele><time>2026-04-15T09:30:35Z</time></trkpt><trkpt lat="29.77333622438177" lon="-8.749013907240498"><ele>1612.3333333333333</ele><time>2026-04-15T09:30:36Z</time></trkpt><trkpt lat="29.773389515181872" lon="-8.748934441018816"><ele>1612.6666666666665</ele><time>2026-04-15T09:30:37Z</time></trkpt><trkpt lat="29.773450197651986" lon="-8.748859354857867"><ele>1613.0</ele><time>2026-04-15T09:30:38Z</time></trkpt><trkpt lat="29.773506757336417" lon="-8.748784567897516"><ele>1612.9999999999998</ele><time>2026-04-15T09:30:39Z</time></trkpt><trkpt lat="29.773547413810643" lon="-8.748708099358907"><ele>1613.0</ele><time>2026-04-15T09:30:40Z</time></trkpt><trkpt lat="29.77356840850333" lon="-8.74863544263733"><ele>1613.0</ele><time>2026-04-15T09:30:41Z</time></trkpt><trkpt lat="29.77358163770363" lon="-8.748549225275232"><ele>1613.0</ele><time>2026-04-15T09:30:42Z</time></trkpt><trkpt lat="29.77357284998109" lon="-8.748456051873562"><ele>1612.9999999999998</ele><time>2026-04-15T09:30:43Z</time></trkpt><trkpt lat="29.773550034032894" lon="-8.748354710717093"><ele>1613.0</ele><time>2026-04-15T09:30:44Z</time></trkpt><trkpt lat="29.773516822632303" lon="-8.748246168005803"><ele>1613.4</ele><time>2026-04-15T09:30:45Z</time></trkpt><trkpt lat="29.77348300579399" lon="-8.748136744534438"><ele>1613.8000000000002</ele><time>2026-04-15T09:30:46Z</time></trkpt><trkpt lat="29.77344181728381" lon="-8.748024600147975"><ele>1614.2</ele><time>2026-04-15T09:30:47Z</time></trkpt><trkpt lat="29.773402456478948" lon="-8.747917403408602"><ele>1614.6</ele><time>2026-04-15T09:30:48Z</time></trkpt><trkpt lat="29.77336714121848" lon="-8.7478185739038"><ele>1615.0</ele><time>2026-04-15T09:30:49Z</time></trkpt><trkpt lat="29.773336741452216" lon="-8.747732804197101"><ele>1615.2857142857142</ele><time>2026-04-15T09:30:50Z</time></trkpt><trkpt lat="29.773322263049792" lon="-8.747648329999217"><ele>1615.5714285714287</ele><time>2026-04-15T09:30:51Z</time></trkpt><trkpt lat="29.773333603271904" lon="-8.747560629570026"><ele>1615.857142857143</ele><time>2026-04-15T09:30:52Z</time></trkpt><trkpt lat="29.77334517386015" lon="-8.747478026589217"><ele>1616.142857142857</ele><time>2026-04-15T09:30:53Z</time></trkpt><trkpt lat="29.773371996274296" lon="-8.747408889930272"><ele>1616.4285714285716</ele><time>2026-04-15T09:30:54Z</time></trkpt><trkpt lat="29.773409621866783" lon="-8.747338074816055"><ele>1616.7142857142858</ele><time>2026-04-15T09:30:55Z</time></trkpt><trkpt lat="29.773445448374698" lon="-8.747265806010203"><ele>1617.0</ele><time>2026-04-15T09:30:56Z</time></trkpt><trkpt lat="29.773475198770356" lon="-8.747195498720108"><ele>1617.0</ele><time>2026-04-15T09:30:57Z</time></trkpt><trkpt lat="29.77349637254734" lon="-8.747122461523976"><ele>1617.0</ele><time>2026-04-15T09:30:58Z</time></trkpt><trkpt lat="29.773512545154215" lon="-8.747042659282988"><ele>1617.0</ele><time>2026-04-15T09:30:59Z</time></trkpt><trkpt lat="29.773525139811817" lon="-8.746954149954643"><ele>1617.0</ele><time>2026-04-15T09:31:00Z</time></trkpt><trkpt lat="29.773531348654156" lon="-8.746874630815169"><ele>1617.0</ele><time>2026-04-15T09:31:01Z</time></trkpt><trkpt lat="29.77353242706491" lon="-8.746795127567445"><ele>1617.0</ele><time>2026-04-15T09:31:02Z</time></trkpt><trkpt lat="29.7735433285002" lon="-8.74664146733801"><ele>1617.7142857142858</ele><time>2026-04-15T09:31:04Z</time></trkpt><trkpt lat="29.773549003121225" lon="-8.746563227197282"><ele>1618.4285714285716</ele><time>2026-04-15T09:31:05Z</time></trkpt><trkpt lat="29.773524770975307" lon="-8.746435552247394"><ele>1619.142857142857</ele><time>2026-04-15T09:31:07Z</time></trkpt><trkpt lat="29.7734973492766" lon="-8.74636732796287"><ele>1619.857142857143</ele><time>2026-04-15T09:31:08Z</time></trkpt><trkpt lat="29.773470731483545" lon="-8.746297265659965"><ele>1620.5714285714287</ele><time>2026-04-15T09:31:09Z</time></trkpt><trkpt lat="29.77345171833761" lon="-8.74622541812496"><ele>1621.2857142857142</ele><time>2026-04-15T09:31:10Z</time></trkpt><trkpt lat="29.773436239550986" lon="-8.746152078520185"><ele>1622.0</ele><time>2026-04-15T09:31:11Z</time></trkpt><trkpt lat="29.773418173813422" lon="-8.74607902095513"><ele>1622.857142857143</ele><time>2026-04-15T09:31:12Z</time></trkpt><trkpt lat="29.773392002535548" lon="-8.746008942194523"><ele>1623.7142857142858</ele><time>2026-04-15T09:31:13Z</time></trkpt><trkpt lat="29.773371136271972" lon="-8.74594033775081"><ele>1624.5714285714287</ele><time>2026-04-15T09:31:14Z</time></trkpt><trkpt lat="29.773349242536465" lon="-8.745865905652865"><ele>1625.4285714285716</ele><time>2026-04-15T09:31:15Z</time></trkpt><trkpt lat="29.77332474124696" lon="-8.745777073386009"><ele>1626.2857142857142</ele><time>2026-04-15T09:31:16Z</time></trkpt><trkpt lat="29.773303773574675" lon="-8.74568771669614"><ele>1627.1428571428573</ele><time>2026-04-15T09:31:17Z</time></trkpt><trkpt lat="29.77327931528906" lon="-8.745592400898738"><ele>1628.0</ele><time>2026-04-15T09:31:18Z</time></trkpt><trkpt lat="29.77325158519446" lon="-8.74549490287825"><ele>1627.9999999999998</ele><time>2026-04-15T09:31:19Z</time></trkpt><trkpt lat="29.77322054069949" lon="-8.745390917224427"><ele>1628.0</ele><time>2026-04-15T09:31:20Z</time></trkpt><trkpt lat="29.773199125961277" lon="-8.745296878007094"><ele>1628.0</ele><time>2026-04-15T09:31:21Z</time></trkpt><trkpt lat="29.77317839038422" lon="-8.745207465963032"><ele>1628.0</ele><time>2026-04-15T09:31:22Z</time></trkpt><trkpt lat="29.77316001571731" lon="-8.7451195513612"><ele>1627.9999999999998</ele><time>2026-04-15T09:31:23Z</time></trkpt><trkpt lat="29.773149529044797" lon="-8.745025839917094"><ele>1628.0</ele><time>2026-04-15T09:31:24Z</time></trkpt><trkpt lat="29.773142037310336" lon="-8.744936751595416"><ele>1628.6000000000001</ele><time>2026-04-15T09:31:25Z</time></trkpt><trkpt lat="29.773136516036963" lon="-8.7448501734752"><ele>1629.2</ele><time>2026-04-15T09:31:26Z</time></trkpt><trkpt lat="29.773124326115532" lon="-8.744749095132098"><ele>1629.8</ele><time>2026-04-15T09:31:27Z</time></trkpt><trkpt lat="29.7731082735893" lon="-8.744636320656317"><ele>1630.4</ele><time>2026-04-15T09:31:28Z</time></trkpt><trkpt lat="29.773074448163932" lon="-8.744517693871497"><ele>1631.0</ele><time>2026-04-15T09:31:29Z</time></trkpt><trkpt lat="29.773021330839548" lon="-8.744399098637968"><ele>1633.0</ele><time>2026-04-15T09:31:30Z</time></trkpt><trkpt lat="29.77296147470742" lon="-8.744288429698363"><ele>1635.0</ele><time>2026-04-15T09:31:31Z</time></trkpt><trkpt lat="29.77289675376917" lon="-8.74417594011238"><ele>1637.0</ele><time>2026-04-15T09:31:32Z</time></trkpt><trkpt lat="29.77282161063164" lon="-8.744066456629463"><ele>1639.0</ele><time>2026-04-15T09:31:33Z</time></trkpt><trkpt lat="29.772737572280686" lon="-8.743961777377715"><ele>1637.0</ele><time>2026-04-15T09:31:34Z</time></trkpt><trkpt lat="29.772636610943668" lon="-8.743858215901621"><ele>1635.0</ele><time>2026-04-15T09:31:35Z</time></trkpt><trkpt lat="29.77253260065581" lon="-8.743766511499055"><ele>1633.0</ele><time>2026-04-15T09:31:36Z</time></trkpt><trkpt lat="29.77243005123097" lon="-8.743681255826257"><ele>1631.0</ele><time>2026-04-15T09:31:37Z</time></trkpt><trkpt lat="29.772324925962177" lon="-8.743600373519605"><ele>1633.75</ele><time>2026-04-15T09:31:38Z</time></trkpt><trkpt lat="29.77222078869063" lon="-8.74352164118146"><ele>1636.5</ele><time>2026-04-15T09:31:39Z</time></trkpt><trkpt lat="29.77211017943383" lon="-8.743440158987614"><ele>1639.25</ele><time>2026-04-15T09:31:40Z</time></trkpt><trkpt lat="29.77200715207556" lon="-8.7433437811843"><ele>1642.0</ele><time>2026-04-15T09:31:41Z</time></trkpt><trkpt lat="29.771902294042153" lon="-8.743241155931024"><ele>1640.0</ele><time>2026-04-15T09:31:42Z</time></trkpt><trkpt lat="29.77180745538841" lon="-8.743139799963378"><ele>1638.0</ele><time>2026-04-15T09:31:43Z</time></trkpt><trkpt lat="29.771714912760245" lon="-8.74302924843188"><ele>1636.0</ele><time>2026-04-15T09:31:44Z</time></trkpt><trkpt lat="29.771626070723542" lon="-8.742918620715288"><ele>1634.0</ele><time>2026-04-15T09:31:45Z</time></trkpt><trkpt lat="29.771539692079276" lon="-8.74282137610674"><ele>1634.0</ele><time>2026-04-15T09:31:46Z</time></trkpt><trkpt lat="29.771453224347695" lon="-8.742724969999264"><ele>1634.0</ele><time>2026-04-15T09:31:47Z</time></trkpt><trkpt lat="29.771371730326155" lon="-8.742629809471328"><ele>1634.0</ele><time>2026-04-15T09:31:48Z</time></trkpt><trkpt lat="29.77129541599421" lon="-8.742537416291984"><ele>1634.0</ele><time>2026-04-15T09:31:49Z</time></trkpt><trkpt lat="29.77122586595169" lon="-8.742443498220792"><ele>1633.6</ele><time>2026-04-15T09:31:50Z</time></trkpt><trkpt lat="29.77115854974034" lon="-8.742351407394507"><ele>1633.2</ele><time>2026-04-15T09:31:51Z</time></trkpt><trkpt lat="29.771088397948223" lon="-8.742263052946138"><ele>1632.8</ele><time>2026-04-15T09:31:52Z</time></trkpt><trkpt lat="29.77102092877783" lon="-8.74217280770797"><ele>1632.3999999999999</ele><time>2026-04-15T09:31:53Z</time></trkpt><trkpt lat="29.770960044329254" lon="-8.742081798204511"><ele>1632.0</ele><time>2026-04-15T09:31:54Z</time></trkpt><trkpt lat="29.77089471630399" lon="-8.741992703716965"><ele>1632.0</ele><time>2026-04-15T09:31:55Z</time></trkpt><trkpt lat="29.770828529463117" lon="-8.741901645997363"><ele>1632.0</ele><time>2026-04-15T09:31:56Z</time></trkpt><trkpt lat="29.77076860654362" lon="-8.741801676270493"><ele>1632.0</ele><time>2026-04-15T09:31:57Z</time></trkpt><trkpt lat="29.77071572766563" lon="-8.74169922590294"><ele>1632.0</ele><time>2026-04-15T09:31:58Z</time></trkpt><trkpt lat="29.770670362356743" lon="-8.741606262349304"><ele>1632.0</ele><time>2026-04-15T09:31:59Z</time></trkpt><trkpt lat="29.770632157400676" lon="-8.741528880296"><ele>1634.1666666666667</ele><time>2026-04-15T09:32:00Z</time></trkpt><trkpt lat="29.770595271746686" lon="-8.741459691711594"><ele>1636.3333333333335</ele><time>2026-04-15T09:32:01Z</time></trkpt><trkpt lat="29.770554397037905" lon="-8.741389821733733"><ele>1638.5</ele><time>2026-04-15T09:32:02Z</time></trkpt><trkpt lat="29.77050702240302" lon="-8.741315830484401"><ele>1640.6666666666667</ele><time>2026-04-15T09:32:03Z</time></trkpt><trkpt lat="29.770455306257574" lon="-8.741239232572251"><ele>1642.8333333333335</ele><time>2026-04-15T09:32:04Z</time></trkpt><trkpt lat="29.77040275149999" lon="-8.741159904880938"><ele>1645.0</ele><time>2026-04-15T09:32:05Z</time></trkpt><trkpt lat="29.770337195544364" lon="-8.741067118960332"><ele>1644.5</ele><time>2026-04-15T09:32:06Z</time></trkpt><trkpt lat="29.770273174306453" lon="-8.740959646778949"><ele>1644.0</ele><time>2026-04-15T09:32:07Z</time></trkpt><trkpt lat="29.770213715009426" lon="-8.740852602654535"><ele>1643.5</ele><time>2026-04-15T09:32:08Z</time></trkpt><trkpt lat="29.7701545173849" lon="-8.740738120949075"><ele>1643.0</ele><time>2026-04-15T09:32:09Z</time></trkpt><trkpt lat="29.77009462181091" lon="-8.740619742876921"><ele>1643.0</ele><time>2026-04-15T09:32:10Z</time></trkpt><trkpt lat="29.770033534854118" lon="-8.740502349605533"><ele>1643.0</ele><time>2026-04-15T09:32:11Z</time></trkpt><trkpt lat="29.769971035374816" lon="-8.740392891199786"><ele>1643.0</ele><time>2026-04-15T09:32:12Z</time></trkpt><trkpt lat="29.769911676618744" lon="-8.740289018780427"><ele>1643.0</ele><time>2026-04-15T09:32:13Z</time></trkpt><trkpt lat="29.76985686583849" lon="-8.74018673419268"><ele>1643.0</ele><time>2026-04-15T09:32:14Z</time></trkpt><trkpt lat="29.769804246919833" lon="-8.740085619084075"><ele>1645.1666666666665</ele><time>2026-04-15T09:32:15Z</time></trkpt><trkpt lat="29.769758400633503" lon="-8.739991422161902"><ele>1647.3333333333333</ele><time>2026-04-15T09:32:16Z</time></trkpt><trkpt lat="29.769722238860364" lon="-8.739904037594767"><ele>1649.5</ele><time>2026-04-15T09:32:17Z</time></trkpt><trkpt lat="29.769689366468082" lon="-8.73983332762183"><ele>1651.6666666666665</ele><time>2026-04-15T09:32:18Z</time></trkpt><trkpt lat="29.769651929962905" lon="-8.73977183260818"><ele>1653.8333333333333</ele><time>2026-04-15T09:32:19Z</time></trkpt><trkpt lat="29.769543968394462" lon="-8.739700710670151"><ele>1656.0</ele><time>2026-04-15T09:32:21Z</time></trkpt><trkpt lat="29.769472664528745" lon="-8.739681935749061"><ele>1656.0</ele><time>2026-04-15T09:32:22Z</time></trkpt><trkpt lat="29.76940707700861" lon="-8.739682130725424"><ele>1656.0</ele><time>2026-04-15T09:32:23Z</time></trkpt><trkpt lat="29.76933088870717" lon="-8.739680723831427"><ele>1656.0</ele><time>2026-04-15T09:32:24Z</time></trkpt><trkpt lat="29.76924941415326" lon="-8.739688895775789"><ele>1656.0</ele><time>2026-04-15T09:32:25Z</time></trkpt><trkpt lat="29.76916660366424" lon="-8.739692039780182"><ele>1656.0</ele><time>2026-04-15T09:32:26Z</time></trkpt><trkpt lat="29.769080621409024" lon="-8.739685517783549"><ele>1656.0</ele><time>2026-04-15T09:32:27Z</time></trkpt><trkpt lat="29.768992784346537" lon="-8.739670091398956"><ele>1655.6666666666667</ele><time>2026-04-15T09:32:28Z</time></trkpt><trkpt lat="29.76890475421984" lon="-8.73964418624251"><ele>1655.3333333333335</ele><time>2026-04-15T09:32:29Z</time></trkpt><trkpt lat="29.768814977021766" lon="-8.73961737575046"><ele>1655.0</ele><time>2026-04-15T09:32:30Z</time></trkpt><trkpt lat="29.768730577828816" lon="-8.739592064064983"><ele>1654.6666666666667</ele><time>2026-04-15T09:32:31Z</time></trkpt><trkpt lat="29.768647897303733" lon="-8.739563973032062"><ele>1654.3333333333335</ele><time>2026-04-15T09:32:32Z</time></trkpt><trkpt lat="29.768568552267702" lon="-8.73952667402142"><ele>1654.0</ele><time>2026-04-15T09:32:33Z</time></trkpt><trkpt lat="29.768493183423818" lon="-8.739476931759643"><ele>1657.5000000000002</ele><time>2026-04-15T09:32:34Z</time></trkpt><trkpt lat="29.768430755864628" lon="-8.739416934145888"><ele>1661.0</ele><time>2026-04-15T09:32:35Z</time></trkpt><trkpt lat="29.76837143939056" lon="-8.739351049643515"><ele>1664.5</ele><time>2026-04-15T09:32:36Z</time></trkpt><trkpt lat="29.768316106440334" lon="-8.739274563077425"><ele>1668.0</ele><time>2026-04-15T09:32:37Z</time></trkpt><trkpt lat="29.76826437381482" lon="-8.7391948130139"><ele>1671.5000000000002</ele><time>2026-04-15T09:32:38Z</time></trkpt><trkpt lat="29.7682129071404" lon="-8.739118923074411"><ele>1675.0</ele><time>2026-04-15T09:32:39Z</time></trkpt><trkpt lat="29.76816244305742" lon="-8.739051966586324"><ele>1675.0000000000002</ele><time>2026-04-15T09:32:40Z</time></trkpt><trkpt lat="29.76810531251447" lon="-8.738999682267531"><ele>1675.0</ele><time>2026-04-15T09:32:41Z</time></trkpt><trkpt lat="29.76804559737239" lon="-8.738969440465695"><ele>1675.0</ele><time>2026-04-15T09:32:42Z</time></trkpt><trkpt lat="29.76791049904082" lon="-8.73895514381296"><ele>1675.0</ele><time>2026-04-15T09:32:44Z</time></trkpt><trkpt lat="29.76782764055403" lon="-8.738943574288278"><ele>1675.0000000000002</ele><time>2026-04-15T09:32:45Z</time></trkpt><trkpt lat="29.76774741415628" lon="-8.738931992069913"><ele>1675.0</ele><time>2026-04-15T09:32:46Z</time></trkpt><trkpt lat="29.767658851700993" lon="-8.738917940349266"><ele>1677.0</ele><time>2026-04-15T09:32:47Z</time></trkpt><trkpt lat="29.76756605099763" lon="-8.738903868967629"><ele>1679.0</ele><time>2026-04-15T09:32:48Z</time></trkpt><trkpt lat="29.767469475436997" lon="-8.738883283566024"><ele>1681.0</ele><time>2026-04-15T09:32:49Z</time></trkpt><trkpt lat="29.767372467702128" lon="-8.738866168286727"><ele>1683.0</ele><time>2026-04-15T09:32:50Z</time></trkpt><trkpt lat="29.767275947753127" lon="-8.738849815721052"><ele>1685.0</ele><time>2026-04-15T09:32:51Z</time></trkpt><trkpt lat="29.767176604514418" lon="-8.73883394907371"><ele>1685.0</ele><time>2026-04-15T09:32:52Z</time></trkpt><trkpt lat="29.76707628819314" lon="-8.738820576034916"><ele>1685.0</ele><time>2026-04-15T09:32:53Z</time></trkpt><trkpt lat="29.766973565165195" lon="-8.738803362169302"><ele>1685.0</ele><time>2026-04-15T09:32:54Z</time></trkpt><trkpt lat="29.76687982636173" lon="-8.738782374752224"><ele>1685.0</ele><time>2026-04-15T09:32:55Z</time></trkpt><trkpt lat="29.766786693268646" lon="-8.738764189963934"><ele>1685.0</ele><time>2026-04-15T09:32:56Z</time></trkpt><trkpt lat="29.766690220166726" lon="-8.738747254589049"><ele>1687.4</ele><time>2026-04-15T09:32:57Z</time></trkpt><trkpt lat="29.7665946481459" lon="-8.738729693693841"><ele>1689.8</ele><time>2026-04-15T09:32:58Z</time></trkpt><trkpt lat="29.766500760238713" lon="-8.738703888634433"><ele>1692.1999999999998</ele><time>2026-04-15T09:32:59Z</time></trkpt><trkpt lat="29.76640652061212" lon="-8.738677036874286"><ele>1694.6</ele><time>2026-04-15T09:33:00Z</time></trkpt><trkpt lat="29.766312980112183" lon="-8.73865106946865"><ele>1697.0</ele><time>2026-04-15T09:33:01Z</time></trkpt><trkpt lat="29.76621714611097" lon="-8.738627113723568"><ele>1697.0</ele><time>2026-04-15T09:33:02Z</time></trkpt><trkpt lat="29.76612062734991" lon="-8.738605866482175"><ele>1697.0</ele><time>2026-04-15T09:33:03Z</time></trkpt><trkpt lat="29.766023312213648" lon="-8.738582819523245"><ele>1697.0</ele><time>2026-04-15T09:33:04Z</time></trkpt><trkpt lat="29.765921790687894" lon="-8.738558337714297"><ele>1697.0</ele><time>2026-04-15T09:33:05Z</time></trkpt><trkpt lat="29.765827074141523" lon="-8.738532561248872"><ele>1697.0</ele><time>2026-04-15T09:33:06Z</time></trkpt><trkpt lat="29.76572318316198" lon="-8.738512361820694"><ele>1696.6</ele><time>2026-04-15T09:33:07Z</time></trkpt><trkpt lat="29.765632683462783" lon="-8.738483662087512"><ele>1696.1999999999998</ele><time>2026-04-15T09:33:08Z</time></trkpt><trkpt lat="29.765535195394364" lon="-8.738449400041606"><ele>1695.8</ele><time>2026-04-15T09:33:09Z</time></trkpt><trkpt lat="29.76542851271653" lon="-8.738414445235005"><ele>1695.4</ele><time>2026-04-15T09:33:10Z</time></trkpt><trkpt lat="29.765317265775277" lon="-8.738378398189163"><ele>1695.0</ele><time>2026-04-15T09:33:11Z</time></trkpt><trkpt lat="29.765201032327337" lon="-8.73836043539089"><ele>1698.2</ele><time>2026-04-15T09:33:12Z</time></trkpt><trkpt lat="29.76509395284885" lon="-8.738350912314127"><ele>1701.4</ele><time>2026-04-15T09:33:13Z</time></trkpt><trkpt lat="29.76498613095125" lon="-8.738350385784866"><ele>1704.6</ele><time>2026-04-15T09:33:14Z</time></trkpt><trkpt lat="29.76488800801524" lon="-8.738349664646599"><ele>1707.8</ele><time>2026-04-15T09:33:15Z</time></trkpt><trkpt lat="29.764806715908996" lon="-8.738339928689008"><ele>1711.0</ele><time>2026-04-15T09:33:16Z</time></trkpt><trkpt lat="29.764736156452063" lon="-8.73832159250637"><ele>1711.0000000000002</ele><time>2026-04-15T09:33:17Z</time></trkpt><trkpt lat="29.764666440582204" lon="-8.738283625737315"><ele>1711.0</ele><time>2026-04-15T09:33:18Z</time></trkpt><trkpt lat="29.764600500845376" lon="-8.738227818147916"><ele>1711.0</ele><time>2026-04-15T09:33:19Z</time></trkpt><trkpt lat="29.764533703007764" lon="-8.738156284887696"><ele>1711.0</ele><time>2026-04-15T09:33:20Z</time></trkpt><trkpt lat="29.76447207800069" lon="-8.738076686609208"><ele>1711.0000000000002</ele><time>2026-04-15T09:33:21Z</time></trkpt><trkpt lat="29.764410362434564" lon="-8.7379929226743"><ele>1711.0</ele><time>2026-04-15T09:33:22Z</time></trkpt><trkpt lat="29.764349273365053" lon="-8.737900793698557"><ele>1712.5000000000002</ele><time>2026-04-15T09:33:23Z</time></trkpt><trkpt lat="29.764289027158387" lon="-8.737808634398082"><ele>1714.0</ele><time>2026-04-15T09:33:24Z</time></trkpt><trkpt lat="29.764234113518924" lon="-8.737737658977437"><ele>1715.5</ele><time>2026-04-15T09:33:25Z</time></trkpt><trkpt lat="29.76418678443838" lon="-8.737673209959514"><ele>1717.0</ele><time>2026-04-15T09:33:26Z</time></trkpt><trkpt lat="29.76413478329366" lon="-8.737606955612"><ele>1718.5000000000002</ele><time>2026-04-15T09:33:27Z</time></trkpt><trkpt lat="29.764068121874686" lon="-8.737548654161834"><ele>1720.0</ele><time>2026-04-15T09:33:28Z</time></trkpt><trkpt lat="29.763996798822312" lon="-8.73749375259848"><ele>1720.0</ele><time>2026-04-15T09:33:29Z</time></trkpt><trkpt lat="29.763919523548523" lon="-8.737445010229406"><ele>1720.0</ele><time>2026-04-15T09:33:30Z</time></trkpt><trkpt lat="29.76383344450787" lon="-8.737409081309258"><ele>1720.0</ele><time>2026-04-15T09:33:31Z</time></trkpt><trkpt lat="29.763744289177012" lon="-8.737373289373444"><ele>1720.0</ele><time>2026-04-15T09:33:32Z</time></trkpt><trkpt lat="29.76365601680202" lon="-8.73733029741499"><ele>1720.0</ele><time>2026-04-15T09:33:33Z</time></trkpt><trkpt lat="29.763564693042262" lon="-8.73728890785879"><ele>1724.8</ele><time>2026-04-15T09:33:34Z</time></trkpt><trkpt lat="29.763472314359372" lon="-8.737255829570673"><ele>1729.6</ele><time>2026-04-15T09:33:35Z</time></trkpt><trkpt lat="29.763384168092063" lon="-8.737229695194905"><ele>1734.4</ele><time>2026-04-15T09:33:36Z</time></trkpt><trkpt lat="29.763293417198064" lon="-8.737197251513711"><ele>1739.2</ele><time>2026-04-15T09:33:37Z</time></trkpt><trkpt lat="29.763197039646492" lon="-8.737164992990957"><ele>1744.0</ele><time>2026-04-15T09:33:38Z</time></trkpt><trkpt lat="29.76310506379731" lon="-8.737137845516305"><ele>1744.0</ele><time>2026-04-15T09:33:39Z</time></trkpt><trkpt lat="29.763033375538832" lon="-8.737107650304559"><ele>1744.0</ele><time>2026-04-15T09:33:40Z</time></trkpt><trkpt lat="29.762969605014447" lon="-8.737081624138764"><ele>1744.0</ele><time>2026-04-15T09:33:41Z</time></trkpt><trkpt lat="29.762905320177577" lon="-8.737067186662639"><ele>1744.0</ele><time>2026-04-15T09:33:42Z</time></trkpt><trkpt lat="29.762806001360445" lon="-8.737117617774429"><ele>1744.0</ele><time>2026-04-15T09:33:44Z</time></trkpt><trkpt lat="29.762679022644207" lon="-8.737166699551947"><ele>1747.2</ele><time>2026-04-15T09:33:46Z</time></trkpt><trkpt lat="29.762600145871446" lon="-8.737196074615381"><ele>1750.4</ele><time>2026-04-15T09:33:47Z</time></trkpt><trkpt lat="29.762517508211392" lon="-8.737218965607243"><ele>1753.6</ele><time>2026-04-15T09:33:48Z</time></trkpt><trkpt lat="29.76241630899674" lon="-8.737223998927837"><ele>1756.8</ele><time>2026-04-15T09:33:49Z</time></trkpt><trkpt lat="29.76230647373019" lon="-8.737211405945024"><ele>1760.0</ele><time>2026-04-15T09:33:50Z</time></trkpt><trkpt lat="29.762204407089822" lon="-8.737185423804767"><ele>1760.0</ele><time>2026-04-15T09:33:51Z</time></trkpt><trkpt lat="29.762102449961773" lon="-8.737155558817483"><ele>1760.0</ele><time>2026-04-15T09:33:52Z</time></trkpt><trkpt lat="29.761996997902376" lon="-8.73710546142762"><ele>1760.0</ele><time>2026-04-15T09:33:53Z</time></trkpt><trkpt lat="29.76189833106213" lon="-8.737074881065343"><ele>1760.0</ele><time>2026-04-15T09:33:54Z</time></trkpt><trkpt lat="29.761795604821305" lon="-8.737055125882048"><ele>1760.0</ele><time>2026-04-15T09:33:55Z</time></trkpt><trkpt lat="29.761705176781287" lon="-8.737058582284686"><ele>1761.9999999999998</ele><time>2026-04-15T09:33:56Z</time></trkpt><trkpt lat="29.761625405708592" lon="-8.737062153005766"><ele>1764.0</ele><time>2026-04-15T09:33:57Z</time></trkpt><trkpt lat="29.761549424694476" lon="-8.737067178400691"><ele>1766.0</ele><time>2026-04-15T09:33:58Z</time></trkpt><trkpt lat="29.761476007642713" lon="-8.737080734631157"><ele>1768.0</ele><time>2026-04-15T09:33:59Z</time></trkpt><trkpt lat="29.761385275814586" lon="-8.737090023144088"><ele>1769.9999999999998</ele><time>2026-04-15T09:34:00Z</time></trkpt><trkpt lat="29.76128104624929" lon="-8.737048058184062"><ele>1772.0</ele><time>2026-04-15T09:34:01Z</time></trkpt><trkpt lat="29.761205588587206" lon="-8.73697902474855"><ele>1771.6</ele><time>2026-04-15T09:34:02Z</time></trkpt><trkpt lat="29.76116113733129" lon="-8.73687700705686"><ele>1771.1999999999998</ele><time>2026-04-15T09:34:03Z</time></trkpt><trkpt lat="29.761157796924202" lon="-8.73677046261804"><ele>1770.8</ele><time>2026-04-15T09:34:04Z</time></trkpt><trkpt lat="29.76111012657286" lon="-8.736678987636175"><ele>1770.4</ele><time>2026-04-15T09:34:05Z</time></trkpt><trkpt lat="29.76106136166744" lon="-8.736586130406545"><ele>1770.0</ele><time>2026-04-15T09:34:06Z</time></trkpt><trkpt lat="29.760996591085707" lon="-8.73648671404442"><ele>1770.0</ele><time>2026-04-15T09:34:07Z</time></trkpt><trkpt lat="29.76090396759929" lon="-8.736418708837384"><ele>1770.0</ele><time>2026-04-15T09:34:08Z</time></trkpt><trkpt lat="29.760814366867464" lon="-8.73633129142387"><ele>1770.0</ele><time>2026-04-15T09:34:09Z</time></trkpt><trkpt lat="29.760732624464346" lon="-8.736256168525061"><ele>1770.0</ele><time>2026-04-15T09:34:10Z</time></trkpt><trkpt lat="29.76066043223964" lon="-8.73619969448276"><ele>1770.0</ele><time>2026-04-15T09:34:11Z</time></trkpt><trkpt lat="29.760586427162508" lon="-8.736163062352476"><ele>1770.0</ele><time>2026-04-15T09:34:12Z</time></trkpt><trkpt lat="29.760505279471992" lon="-8.736133184194665"><ele>1770.0</ele><time>2026-04-15T09:34:13Z</time></trkpt><trkpt lat="29.760402970466686" lon="-8.736153589173389"><ele>1770.0</ele><time>2026-04-15T09:34:14Z</time></trkpt><trkpt lat="29.76028743835091" lon="-8.73614768243217"><ele>1770.0</ele><time>2026-04-15T09:34:15Z</time></trkpt><trkpt lat="29.760185866062525" lon="-8.736128149182202"><ele>1770.0</ele><time>2026-04-15T09:34:16Z</time></trkpt><trkpt lat="29.76009528975751" lon="-8.736074432971126"><ele>1770.3333333333333</ele><time>2026-04-15T09:34:17Z</time></trkpt><trkpt lat="29.76002155529677" lon="-8.736032870541074"><ele>1770.6666666666665</ele><time>2026-04-15T09:34:18Z</time></trkpt><trkpt lat="29.759949923482626" lon="-8.736020477054662"><ele>1771.0</ele><time>2026-04-15T09:34:19Z</time></trkpt><trkpt lat="29.759854987525024" lon="-8.73599512358129"><ele>1771.3333333333333</ele><time>2026-04-15T09:34:21Z</time></trkpt><trkpt lat="29.759773875853032" lon="-8.73600768233729"><ele>1771.6666666666665</ele><time>2026-04-15T09:34:23Z</time></trkpt><trkpt lat="29.759723400544623" lon="-8.736072709126233"><ele>1772.0</ele><time>2026-04-15T09:34:25Z</time></trkpt><trkpt lat="29.75976483464335" lon="-8.736195148035591"><ele>1771.6666666666665</ele><time>2026-04-15T09:34:27Z</time></trkpt><trkpt lat="29.759818499337587" lon="-8.736243301537987"><ele>1771.3333333333333</ele><time>2026-04-15T09:34:28Z</time></trkpt><trkpt lat="29.75988897484795" lon="-8.73628977255418"><ele>1771.0</ele><time>2026-04-15T09:34:29Z</time></trkpt><trkpt lat="29.75996834132425" lon="-8.736339908939314"><ele>1770.6666666666665</ele><time>2026-04-15T09:34:30Z</time></trkpt><trkpt lat="29.760049844493548" lon="-8.736381045442315"><ele>1770.3333333333333</ele><time>2026-04-15T09:34:31Z</time></trkpt><trkpt lat="29.760112698313563" lon="-8.736409671261027"><ele>1770.0</ele><time>2026-04-15T09:34:32Z</time></trkpt><trkpt lat="29.760221622471118" lon="-8.73646181587943"><ele>1770.0</ele><time>2026-04-15T09:34:34Z</time></trkpt><trkpt lat="29.76028057383836" lon="-8.736499789296209"><ele>1770.0</ele><time>2026-04-15T09:34:35Z</time></trkpt><trkpt lat="29.760340152458568" lon="-8.736548244903824"><ele>1770.0</ele><time>2026-04-15T09:34:36Z</time></trkpt><trkpt lat="29.760386571715575" lon="-8.73660123351246"><ele>1770.0</ele><time>2026-04-15T09:34:37Z</time></trkpt><trkpt lat="29.760413921379318" lon="-8.736668312001994"><ele>1770.0</ele><time>2026-04-15T09:34:38Z</time></trkpt><trkpt lat="29.760427915197248" lon="-8.736742436518023"><ele>1770.0</ele><time>2026-04-15T09:34:39Z</time></trkpt><trkpt lat="29.76042414702029" lon="-8.73682295250868"><ele>1770.0</ele><time>2026-04-15T09:34:40Z</time></trkpt><trkpt lat="29.760408428695754" lon="-8.736905817825097"><ele>1772.0</ele><time>2026-04-15T09:34:41Z</time></trkpt><trkpt lat="29.760388508473987" lon="-8.736995008548336"><ele>1774.0</ele><time>2026-04-15T09:34:42Z</time></trkpt><trkpt lat="29.760358025375588" lon="-8.737076919630319"><ele>1776.0</ele><time>2026-04-15T09:34:43Z</time></trkpt><trkpt lat="29.760323652322253" lon="-8.737167433805318"><ele>1778.0</ele><time>2026-04-15T09:34:44Z</time></trkpt><trkpt lat="29.7602802832559" lon="-8.737249504153205"><ele>1780.0</ele><time>2026-04-15T09:34:45Z</time></trkpt><trkpt lat="29.760232053127428" lon="-8.737328171184968"><ele>1782.0</ele><time>2026-04-15T09:34:46Z</time></trkpt><trkpt lat="29.760171569905964" lon="-8.737395495623263"><ele>1783.1999999999998</ele><time>2026-04-15T09:34:47Z</time></trkpt><trkpt lat="29.760116542494185" lon="-8.737473213664645"><ele>1784.3999999999999</ele><time>2026-04-15T09:34:48Z</time></trkpt><trkpt lat="29.760009779317762" lon="-8.737507481766519"><ele>1785.6000000000001</ele><time>2026-04-15T09:34:49Z</time></trkpt><trkpt lat="29.759913063129964" lon="-8.737542559698753"><ele>1786.8000000000002</ele><time>2026-04-15T09:34:50Z</time></trkpt><trkpt lat="29.759808303844228" lon="-8.73756625403969"><ele>1788.0</ele><time>2026-04-15T09:34:51Z</time></trkpt><trkpt lat="29.7596925902749" lon="-8.737574511239272"><ele>1788.0</ele><time>2026-04-15T09:34:52Z</time></trkpt><trkpt lat="29.75957383141491" lon="-8.737588535956611"><ele>1788.0</ele><time>2026-04-15T09:34:53Z</time></trkpt><trkpt lat="29.759447742686593" lon="-8.737608733457604"><ele>1788.0</ele><time>2026-04-15T09:34:54Z</time></trkpt><trkpt lat="29.759322394432047" lon="-8.737625998039041"><ele>1788.0</ele><time>2026-04-15T09:34:55Z</time></trkpt><trkpt lat="29.759204439804158" lon="-8.73763496342553"><ele>1789.0</ele><time>2026-04-15T09:34:56Z</time></trkpt><trkpt lat="29.759098367965624" lon="-8.737646181179057"><ele>1790.0000000000002</ele><time>2026-04-15T09:34:57Z</time></trkpt><trkpt lat="29.75900282424596" lon="-8.737660538512301"><ele>1791.0000000000002</ele><time>2026-04-15T09:34:58Z</time></trkpt><trkpt lat="29.758916178383554" lon="-8.737675621074915"><ele>1792.0</ele><time>2026-04-15T09:34:59Z</time></trkpt><trkpt lat="29.75883129595042" lon="-8.73768833382006"><ele>1793.0</ele><time>2026-04-15T09:35:00Z</time></trkpt><trkpt lat="29.758749648134142" lon="-8.737696991793731"><ele>1792.9999999999998</ele><time>2026-04-15T09:35:01Z</time></trkpt><trkpt lat="29.758665036086377" lon="-8.737713841360074"><ele>1793.0</ele><time>2026-04-15T09:35:02Z</time></trkpt><trkpt lat="29.758585443730183" lon="-8.737726891499735"><ele>1793.0</ele><time>2026-04-15T09:35:03Z</time></trkpt><trkpt lat="29.758507561595273" lon="-8.737745748339904"><ele>1793.0</ele><time>2026-04-15T09:35:04Z</time></trkpt><trkpt lat="29.758421321789545" lon="-8.737766211718254"><ele>1792.9999999999998</ele><time>2026-04-15T09:35:05Z</time></trkpt><trkpt lat="29.758327389755376" lon="-8.73778620031839"><ele>1793.0</ele><time>2026-04-15T09:35:06Z</time></trkpt><trkpt lat="29.75822907430954" lon="-8.737808195224806"><ele>1793.25</ele><time>2026-04-15T09:35:07Z</time></trkpt><trkpt lat="29.758122305229282" lon="-8.73782955274309"><ele>1793.5</ele><time>2026-04-15T09:35:08Z</time></trkpt><trkpt lat="29.75801383586217" lon="-8.73784899293292"><ele>1793.75</ele><time>2026-04-15T09:35:09Z</time></trkpt><trkpt lat="29.75789552795163" lon="-8.737868923366804"><ele>1794.0</ele><time>2026-04-15T09:35:10Z</time></trkpt><trkpt lat="29.757778310702598" lon="-8.737886623596795"><ele>1795.25</ele><time>2026-04-15T09:35:11Z</time></trkpt><trkpt lat="29.75766874491008" lon="-8.737907159484244"><ele>1796.5</ele><time>2026-04-15T09:35:12Z</time></trkpt><trkpt lat="29.757557820398194" lon="-8.737928147105526"><ele>1797.75</ele><time>2026-04-15T09:35:13Z</time></trkpt><trkpt lat="29.757440134749285" lon="-8.73795388714528"><ele>1799.0</ele><time>2026-04-15T09:35:14Z</time></trkpt><trkpt lat="29.757315093303124" lon="-8.737980531038684"><ele>1799.0</ele><time>2026-04-15T09:35:15Z</time></trkpt><trkpt lat="29.757185322912317" lon="-8.738003053901531"><ele>1799.0</ele><time>2026-04-15T09:35:16Z</time></trkpt><trkpt lat="29.757055413783526" lon="-8.738026927491976"><ele>1799.0</ele><time>2026-04-15T09:35:17Z</time></trkpt><trkpt lat="29.756923955413036" lon="-8.738047829197336"><ele>1799.0</ele><time>2026-04-15T09:35:18Z</time></trkpt><trkpt lat="29.756790793153215" lon="-8.738062866859158"><ele>1802.25</ele><time>2026-04-15T09:35:19Z</time></trkpt><trkpt lat="29.756657371723882" lon="-8.738081811262544"><ele>1805.5</ele><time>2026-04-15T09:35:20Z</time></trkpt><trkpt lat="29.7565312728676" lon="-8.738123430422768"><ele>1808.75</ele><time>2026-04-15T09:35:21Z</time></trkpt><trkpt lat="29.75640143472126" lon="-8.738146545566167"><ele>1812.0</ele><time>2026-04-15T09:35:22Z</time></trkpt><trkpt lat="29.756293810269035" lon="-8.738165118433837"><ele>1812.0</ele><time>2026-04-15T09:35:23Z</time></trkpt><trkpt lat="29.756201722549623" lon="-8.738181194760891"><ele>1811.9999999999998</ele><time>2026-04-15T09:35:24Z</time></trkpt><trkpt lat="29.75610806607785" lon="-8.738197388458635"><ele>1811.9999999999998</ele><time>2026-04-15T09:35:25Z</time></trkpt><trkpt lat="29.756026045670712" lon="-8.738211413757886"><ele>1812.0</ele><time>2026-04-15T09:35:26Z</time></trkpt><trkpt lat="29.755960414473392" lon="-8.738222411272563"><ele>1812.0</ele><time>2026-04-15T09:35:27Z</time></trkpt><trkpt lat="29.755847393410686" lon="-8.73824154207504"><ele>1815.3333333333333</ele><time>2026-04-15T09:35:29Z</time></trkpt><trkpt lat="29.755784019132015" lon="-8.738252999703038"><ele>1818.6666666666665</ele><time>2026-04-15T09:35:30Z</time></trkpt><trkpt lat="29.755712035319817" lon="-8.73826562218025"><ele>1822.0</ele><time>2026-04-15T09:35:31Z</time></trkpt><trkpt lat="29.755632333281234" lon="-8.738279094279017"><ele>1825.3333333333333</ele><time>2026-04-15T09:35:32Z</time></trkpt><trkpt lat="29.75555913434052" lon="-8.738291467143243"><ele>1828.6666666666665</ele><time>2026-04-15T09:35:33Z</time></trkpt><trkpt lat="29.75546904806554" lon="-8.738306694489468"><ele>1832.0</ele><time>2026-04-15T09:35:34Z</time></trkpt><trkpt lat="29.75536302888758" lon="-8.73832461499153"><ele>1832.0</ele><time>2026-04-15T09:35:35Z</time></trkpt><trkpt lat="29.755266078315138" lon="-8.73834100261864"><ele>1831.9999999999998</ele><time>2026-04-15T09:35:36Z</time></trkpt><trkpt lat="29.755165708099433" lon="-8.73835860935189"><ele>1831.9999999999998</ele><time>2026-04-15T09:35:37Z</time></trkpt><trkpt lat="29.75507497358956" lon="-8.738374645574112"><ele>1832.0</ele><time>2026-04-15T09:35:38Z</time></trkpt><trkpt lat="29.755001018815836" lon="-8.73838501559463"><ele>1832.0</ele><time>2026-04-15T09:35:39Z</time></trkpt><trkpt lat="29.75488722077411" lon="-8.738394561255364"><ele>1833.0</ele><time>2026-04-15T09:35:41Z</time></trkpt><trkpt lat="29.754811830526105" lon="-8.738401689859145"><ele>1833.9999999999998</ele><time>2026-04-15T09:35:42Z</time></trkpt><trkpt lat="29.754718537151202" lon="-8.738395326763303"><ele>1834.9999999999998</ele><time>2026-04-15T09:35:43Z</time></trkpt><trkpt lat="29.754620096266233" lon="-8.738380176529432"><ele>1836.0</ele><time>2026-04-15T09:35:44Z</time></trkpt><trkpt lat="29.754511542271256" lon="-8.738334198338336"><ele>1837.0</ele><time>2026-04-15T09:35:45Z</time></trkpt><trkpt lat="29.75440736865481" lon="-8.738277399954542"><ele>1841.5</ele><time>2026-04-15T09:35:46Z</time></trkpt><trkpt lat="29.754309916415764" lon="-8.738210657974436"><ele>1846.0</ele><time>2026-04-15T09:35:47Z</time></trkpt><trkpt lat="29.75420966065068" lon="-8.738134491332016"><ele>1850.5</ele><time>2026-04-15T09:35:48Z</time></trkpt><trkpt lat="29.754110415588574" lon="-8.738057679775075"><ele>1855.0</ele><time>2026-04-15T09:35:49Z</time></trkpt><trkpt lat="29.754008114742515" lon="-8.737978509141037"><ele>1855.0</ele><time>2026-04-15T09:35:50Z</time></trkpt><trkpt lat="29.753919148635752" lon="-8.737909684106514"><ele>1855.0</ele><time>2026-04-15T09:35:51Z</time></trkpt><trkpt lat="29.75385058544587" lon="-8.737858365653478"><ele>1855.0</ele><time>2026-04-15T09:35:52Z</time></trkpt><trkpt lat="29.753790349453578" lon="-8.73777163298129"><ele>1855.0</ele><time>2026-04-15T09:35:53Z</time></trkpt><trkpt lat="29.753742852994378" lon="-8.737685041942926"><ele>1855.0</ele><time>2026-04-15T09:35:54Z</time></trkpt><trkpt lat="29.75369758655276" lon="-8.737594259886645"><ele>1853.4</ele><time>2026-04-15T09:35:55Z</time></trkpt><trkpt lat="29.753672759682186" lon="-8.737481656929512"><ele>1851.8</ele><time>2026-04-15T09:35:56Z</time></trkpt><trkpt lat="29.75364495257117" lon="-8.737385602009033"><ele>1850.1999999999998</ele><time>2026-04-15T09:35:57Z</time></trkpt><trkpt lat="29.753658815413946" lon="-8.737266920144233"><ele>1848.6</ele><time>2026-04-15T09:35:58Z</time></trkpt><trkpt lat="29.75369723398089" lon="-8.737163235903617"><ele>1847.0</ele><time>2026-04-15T09:35:59Z</time></trkpt><trkpt lat="29.75376118306433" lon="-8.73707910503194"><ele>1847.0</ele><time>2026-04-15T09:36:00Z</time></trkpt><trkpt lat="29.753811201872963" lon="-8.736982341435027"><ele>1846.9999999999998</ele><time>2026-04-15T09:36:01Z</time></trkpt><trkpt lat="29.75386116546875" lon="-8.736886441048366"><ele>1846.9999999999998</ele><time>2026-04-15T09:36:02Z</time></trkpt><trkpt lat="29.75390122231604" lon="-8.736783143080649"><ele>1847.0</ele><time>2026-04-15T09:36:03Z</time></trkpt><trkpt lat="29.75394309240748" lon="-8.73666854113358"><ele>1847.0</ele><time>2026-04-15T09:36:04Z</time></trkpt><trkpt lat="29.753948367961573" lon="-8.736564715638135"><ele>1848.4999999999998</ele><time>2026-04-15T09:36:05Z</time></trkpt><trkpt lat="29.753953835044967" lon="-8.736455079437178"><ele>1850.0</ele><time>2026-04-15T09:36:06Z</time></trkpt><trkpt lat="29.75393103160313" lon="-8.736365682236439"><ele>1851.5</ele><time>2026-04-15T09:36:07Z</time></trkpt><trkpt lat="29.753914441654548" lon="-8.736270348050533"><ele>1853.0</ele><time>2026-04-15T09:36:08Z</time></trkpt><trkpt lat="29.753874488082204" lon="-8.736195422471049"><ele>1854.4999999999998</ele><time>2026-04-15T09:36:09Z</time></trkpt><trkpt lat="29.753830635424087" lon="-8.736121062103495"><ele>1856.0</ele><time>2026-04-15T09:36:10Z</time></trkpt><trkpt lat="29.75377775260054" lon="-8.736036925337201"><ele>1856.1999999999998</ele><time>2026-04-15T09:36:11Z</time></trkpt><trkpt lat="29.753712653189506" lon="-8.735975897396377"><ele>1856.3999999999999</ele><time>2026-04-15T09:36:12Z</time></trkpt><trkpt lat="29.75363463509864" lon="-8.735904514917147"><ele>1856.6</ele><time>2026-04-15T09:36:13Z</time></trkpt><trkpt lat="29.753553594259788" lon="-8.735830366483384"><ele>1856.8</ele><time>2026-04-15T09:36:14Z</time></trkpt><trkpt lat="29.75346770492336" lon="-8.735758878263312"><ele>1857.0</ele><time>2026-04-15T09:36:15Z</time></trkpt><trkpt lat="29.75337433822382" lon="-8.735690118048547"><ele>1860.0</ele><time>2026-04-15T09:36:16Z</time></trkpt><trkpt lat="29.753282356466947" lon="-8.735622377792302"><ele>1862.9999999999998</ele><time>2026-04-15T09:36:17Z</time></trkpt><trkpt lat="29.753195239245866" lon="-8.735558384114166"><ele>1865.9999999999998</ele><time>2026-04-15T09:36:18Z</time></trkpt><trkpt lat="29.753112176873476" lon="-8.735497686358539"><ele>1869.0</ele><time>2026-04-15T09:36:19Z</time></trkpt><trkpt lat="29.753028062129427" lon="-8.735436219588708"><ele>1872.0</ele><time>2026-04-15T09:36:20Z</time></trkpt><trkpt lat="29.75294631061645" lon="-8.735359735601303"><ele>1872.0</ele><time>2026-04-15T09:36:21Z</time></trkpt><trkpt lat="29.752869019471056" lon="-8.735287503986234"><ele>1871.9999999999998</ele><time>2026-04-15T09:36:22Z</time></trkpt><trkpt lat="29.7528257465525" lon="-8.735191355242447"><ele>1871.9999999999998</ele><time>2026-04-15T09:36:23Z</time></trkpt><trkpt lat="29.752754534629698" lon="-8.73511861706185"><ele>1872.0</ele><time>2026-04-15T09:36:24Z</time></trkpt><trkpt lat="29.75274332194523" lon="-8.734979782909003"><ele>1872.0</ele><time>2026-04-15T09:36:25Z</time></trkpt><trkpt lat="29.75270058503394" lon="-8.734864234013402"><ele>1875.6</ele><time>2026-04-15T09:36:26Z</time></trkpt><trkpt lat="29.752669688843426" lon="-8.734753285029196"><ele>1879.1999999999998</ele><time>2026-04-15T09:36:27Z</time></trkpt><trkpt lat="29.752639230797477" lon="-8.734643602954955"><ele>1882.8</ele><time>2026-04-15T09:36:28Z</time></trkpt><trkpt lat="29.75260706748929" lon="-8.734527780069948"><ele>1886.4</ele><time>2026-04-15T09:36:29Z</time></trkpt><trkpt lat="29.75256903845313" lon="-8.734409723987675"><ele>1890.0</ele><time>2026-04-15T09:36:30Z</time></trkpt><trkpt lat="29.752522289041604" lon="-8.73428337406117"><ele>1890.5</ele><time>2026-04-15T09:36:31Z</time></trkpt><trkpt lat="29.752478556011294" lon="-8.73416711923237"><ele>1891.0</ele><time>2026-04-15T09:36:32Z</time></trkpt><trkpt lat="29.752433453560716" lon="-8.734045875455118"><ele>1891.5</ele><time>2026-04-15T09:36:33Z</time></trkpt><trkpt lat="29.752401307905515" lon="-8.733914365841194"><ele>1892.0</ele><time>2026-04-15T09:36:34Z</time></trkpt><trkpt lat="29.752345463126037" lon="-8.733787926048494"><ele>1892.0</ele><time>2026-04-15T09:36:35Z</time></trkpt><trkpt lat="29.752302466349033" lon="-8.733659042059683"><ele>1891.9999999999998</ele><time>2026-04-15T09:36:36Z</time></trkpt><trkpt lat="29.75226447105275" lon="-8.733534838001933"><ele>1891.9999999999998</ele><time>2026-04-15T09:36:37Z</time></trkpt><trkpt lat="29.752234447653166" lon="-8.733416110228598"><ele>1892.0</ele><time>2026-04-15T09:36:38Z</time></trkpt><trkpt lat="29.752202015185475" lon="-8.73330474678915"><ele>1892.0</ele><time>2026-04-15T09:36:39Z</time></trkpt><trkpt lat="29.75217591116311" lon="-8.733183613785359"><ele>1892.0</ele><time>2026-04-15T09:36:40Z</time></trkpt><trkpt lat="29.75214929682477" lon="-8.733053989195849"><ele>1892.0</ele><time>2026-04-15T09:36:41Z</time></trkpt><trkpt lat="29.752133473634444" lon="-8.732912961257627"><ele>1892.0</ele><time>2026-04-15T09:36:42Z</time></trkpt><trkpt lat="29.752114258104953" lon="-8.732762762066644"><ele>1892.0</ele><time>2026-04-15T09:36:43Z</time></trkpt><trkpt lat="29.752092285161392" lon="-8.73260497641407"><ele>1891.5</ele><time>2026-04-15T09:36:44Z</time></trkpt><trkpt lat="29.752080068625588" lon="-8.73244299421746"><ele>1891.0</ele><time>2026-04-15T09:36:45Z</time></trkpt><trkpt lat="29.75206060639255" lon="-8.73228352660243"><ele>1890.5</ele><time>2026-04-15T09:36:46Z</time></trkpt><trkpt lat="29.75205213675085" lon="-8.732126159963036"><ele>1890.0</ele><time>2026-04-15T09:36:47Z</time></trkpt><trkpt lat="29.752023420437567" lon="-8.731983389504602"><ele>1888.25</ele><time>2026-04-15T09:36:48Z</time></trkpt><trkpt lat="29.752010907621965" lon="-8.731842451327436"><ele>1886.5</ele><time>2026-04-15T09:36:49Z</time></trkpt><trkpt lat="29.751999119235812" lon="-8.731709186464117"><ele>1884.75</ele><time>2026-04-15T09:36:50Z</time></trkpt><trkpt lat="29.751983149444445" lon="-8.731583647973046"><ele>1883.0</ele><time>2026-04-15T09:36:51Z</time></trkpt><trkpt lat="29.751955427912044" lon="-8.731452492344758"><ele>1883.0</ele><time>2026-04-15T09:36:52Z</time></trkpt><trkpt lat="29.751920081930752" lon="-8.731331665338582"><ele>1883.0000000000002</ele><time>2026-04-15T09:36:53Z</time></trkpt><trkpt lat="29.75187756954393" lon="-8.731207971115584"><ele>1883.0000000000002</ele><time>2026-04-15T09:36:54Z</time></trkpt><trkpt lat="29.751830733256323" lon="-8.731087341508797"><ele>1883.0</ele><time>2026-04-15T09:36:55Z</time></trkpt><trkpt lat="29.751783739703292" lon="-8.730977846297032"><ele>1883.0</ele><time>2026-04-15T09:36:56Z</time></trkpt><trkpt lat="29.751740407171216" lon="-8.730876881293016"><ele>1880.6000000000001</ele><time>2026-04-15T09:36:57Z</time></trkpt><trkpt lat="29.75170059155487" lon="-8.73078411071719"><ele>1878.2000000000003</ele><time>2026-04-15T09:36:58Z</time></trkpt><trkpt lat="29.751665992037914" lon="-8.730703493815424"><ele>1875.8</ele><time>2026-04-15T09:36:59Z</time></trkpt><trkpt lat="29.75162987782502" lon="-8.730642028062245"><ele>1873.4</ele><time>2026-04-15T09:37:00Z</time></trkpt><trkpt lat="29.751570202822236" lon="-8.73053241882633"><ele>1871.0</ele><time>2026-04-15T09:37:02Z</time></trkpt><trkpt lat="29.751458341684735" lon="-8.730548490484388"><ele>1870.9999999999998</ele><time>2026-04-15T09:37:04Z</time></trkpt><trkpt lat="29.751390655547983" lon="-8.730548266103739"><ele>1871.0</ele><time>2026-04-15T09:37:05Z</time></trkpt><trkpt lat="29.751312928031425" lon="-8.730553166413008"><ele>1871.0</ele><time>2026-04-15T09:37:06Z</time></trkpt><trkpt lat="29.751241074444568" lon="-8.730557696544302"><ele>1871.0</ele><time>2026-04-15T09:37:07Z</time></trkpt><trkpt lat="29.751177517459084" lon="-8.730541272602338"><ele>1870.9999999999998</ele><time>2026-04-15T09:37:08Z</time></trkpt><trkpt lat="29.751107406597907" lon="-8.730497114853438"><ele>1871.0</ele><time>2026-04-15T09:37:09Z</time></trkpt><trkpt lat="29.751021785161647" lon="-8.730353491936256"><ele>1871.0</ele><time>2026-04-15T09:37:11Z</time></trkpt><trkpt lat="29.75104801779753" lon="-8.73022494319064"><ele>1871.0</ele><time>2026-04-15T09:37:12Z</time></trkpt><trkpt lat="29.751058198241314" lon="-8.730111205331433"><ele>1871.0</ele><time>2026-04-15T09:37:13Z</time></trkpt><trkpt lat="29.751065549234607" lon="-8.729988459724416"><ele>1871.0</ele><time>2026-04-15T09:37:14Z</time></trkpt><trkpt lat="29.751068384112163" lon="-8.729878709524113"><ele>1871.0</ele><time>2026-04-15T09:37:15Z</time></trkpt><trkpt lat="29.751062263854788" lon="-8.729768101355921"><ele>1870.1999999999998</ele><time>2026-04-15T09:37:16Z</time></trkpt><trkpt lat="29.751040185057388" lon="-8.729662446952148"><ele>1869.3999999999999</ele><time>2026-04-15T09:37:17Z</time></trkpt><trkpt lat="29.751003937283784" lon="-8.72957256562176"><ele>1868.6</ele><time>2026-04-15T09:37:18Z</time></trkpt><trkpt lat="29.75095295773822" lon="-8.72948979757984"><ele>1867.8</ele><time>2026-04-15T09:37:19Z</time></trkpt><trkpt lat="29.750901485924214" lon="-8.729397138371361"><ele>1867.0</ele><time>2026-04-15T09:37:20Z</time></trkpt><trkpt lat="29.750842649491684" lon="-8.729321149920423"><ele>1866.8</ele><time>2026-04-15T09:37:21Z</time></trkpt><trkpt lat="29.75077326809299" lon="-8.729236055513692"><ele>1866.6</ele><time>2026-04-15T09:37:22Z</time></trkpt><trkpt lat="29.75070618460475" lon="-8.729147337213023"><ele>1866.3999999999999</ele><time>2026-04-15T09:37:23Z</time></trkpt><trkpt lat="29.750639109076367" lon="-8.729070266361736"><ele>1866.1999999999998</ele><time>2026-04-15T09:37:24Z</time></trkpt><trkpt lat="29.7505753378004" lon="-8.729003505811814"><ele>1866.0</ele><time>2026-04-15T09:37:25Z</time></trkpt><trkpt lat="29.750494906047354" lon="-8.729011461074418"><ele>1866.0</ele><time>2026-04-15T09:37:26Z</time></trkpt><trkpt lat="29.75040078108732" lon="-8.729003636621352"><ele>1866.0</ele><time>2026-04-15T09:37:27Z</time></trkpt><trkpt lat="29.750298767758736" lon="-8.728990966482558"><ele>1866.0</ele><time>2026-04-15T09:37:28Z</time></trkpt><trkpt lat="29.75019255887495" lon="-8.72896911586398"><ele>1866.0</ele><time>2026-04-15T09:37:29Z</time></trkpt><trkpt lat="29.7500837366106" lon="-8.728945927473646"><ele>1866.0</ele><time>2026-04-15T09:37:30Z</time></trkpt><trkpt lat="29.7499710642924" lon="-8.72890807470831"><ele>1868.5</ele><time>2026-04-15T09:37:31Z</time></trkpt><trkpt lat="29.74985549116677" lon="-8.728859384798897"><ele>1871.0</ele><time>2026-04-15T09:37:32Z</time></trkpt><trkpt lat="29.74973699923657" lon="-8.728797488236767"><ele>1873.5</ele><time>2026-04-15T09:37:33Z</time></trkpt><trkpt lat="29.749621356790094" lon="-8.728729309551973"><ele>1876.0</ele><time>2026-04-15T09:37:34Z</time></trkpt><trkpt lat="29.74951389634266" lon="-8.728665954684043"><ele>1876.0</ele><time>2026-04-15T09:37:35Z</time></trkpt><trkpt lat="29.749407585411145" lon="-8.728596350715518"><ele>1876.0</ele><time>2026-04-15T09:37:36Z</time></trkpt><trkpt lat="29.74930194417848" lon="-8.728526869004316"><ele>1876.0</ele><time>2026-04-15T09:37:37Z</time></trkpt><trkpt lat="29.749194649704634" lon="-8.728456299932942"><ele>1876.0</ele><time>2026-04-15T09:37:38Z</time></trkpt><trkpt lat="29.74909266615777" lon="-8.728389340434076"><ele>1877.0</ele><time>2026-04-15T09:37:39Z</time></trkpt><trkpt lat="29.748993235430273" lon="-8.728321216225371"><ele>1878.0</ele><time>2026-04-15T09:37:40Z</time></trkpt><trkpt lat="29.74889359510368" lon="-8.728251787672992"><ele>1879.0</ele><time>2026-04-15T09:37:41Z</time></trkpt><trkpt lat="29.748794677187654" lon="-8.728190323550406"><ele>1880.0</ele><time>2026-04-15T09:37:42Z</time></trkpt><trkpt lat="29.748691474865108" lon="-8.72814495522222"><ele>1880.0</ele><time>2026-04-15T09:37:43Z</time></trkpt><trkpt lat="29.748579839270366" lon="-8.72810877441882"><ele>1880.0</ele><time>2026-04-15T09:37:44Z</time></trkpt><trkpt lat="29.748473949850528" lon="-8.72807993949209"><ele>1880.0</ele><time>2026-04-15T09:37:45Z</time></trkpt><trkpt lat="29.748357898289076" lon="-8.728048949472461"><ele>1880.0</ele><time>2026-04-15T09:37:46Z</time></trkpt><trkpt lat="29.74824511824666" lon="-8.728019141173297"><ele>1880.1666666666665</ele><time>2026-04-15T09:37:47Z</time></trkpt><trkpt lat="29.748143581359766" lon="-8.727996738018373"><ele>1880.3333333333333</ele><time>2026-04-15T09:37:48Z</time></trkpt><trkpt lat="29.748057348316102" lon="-8.727977711510993"><ele>1880.5</ele><time>2026-04-15T09:37:49Z</time></trkpt><trkpt lat="29.747970896000435" lon="-8.727962869552446"><ele>1880.6666666666665</ele><time>2026-04-15T09:37:50Z</time></trkpt><trkpt lat="29.747887875952408" lon="-8.727940689493717"><ele>1880.8333333333333</ele><time>2026-04-15T09:37:51Z</time></trkpt><trkpt lat="29.747802480114697" lon="-8.727940932974517"><ele>1881.0</ele><time>2026-04-15T09:37:52Z</time></trkpt><trkpt lat="29.747712837198552" lon="-8.727966501832263"><ele>1880.1999999999998</ele><time>2026-04-15T09:37:53Z</time></trkpt><trkpt lat="29.74761822904584" lon="-8.727965353168182"><ele>1879.3999999999999</ele><time>2026-04-15T09:37:54Z</time></trkpt><trkpt lat="29.747515757624793" lon="-8.727983304526846"><ele>1878.6</ele><time>2026-04-15T09:37:55Z</time></trkpt><trkpt lat="29.747407978051978" lon="-8.728008232059656"><ele>1877.8</ele><time>2026-04-15T09:37:56Z</time></trkpt><trkpt lat="29.747296943127413" lon="-8.728025350060623"><ele>1877.0</ele><time>2026-04-15T09:37:57Z</time></trkpt><trkpt lat="29.747182220511498" lon="-8.728031442881171"><ele>1877.0</ele><time>2026-04-15T09:37:58Z</time></trkpt><trkpt lat="29.74706322424314" lon="-8.728034128988636"><ele>1877.0</ele><time>2026-04-15T09:37:59Z</time></trkpt><trkpt lat="29.746941107141403" lon="-8.728008234971394"><ele>1877.0</ele><time>2026-04-15T09:38:00Z</time></trkpt><trkpt lat="29.74682318721115" lon="-8.727966930600605"><ele>1877.0</ele><time>2026-04-15T09:38:01Z</time></trkpt><trkpt lat="29.74670879294284" lon="-8.727904109440734"><ele>1877.25</ele><time>2026-04-15T09:38:02Z</time></trkpt><trkpt lat="29.746608017834003" lon="-8.727806712067887"><ele>1877.5</ele><time>2026-04-15T09:38:03Z</time></trkpt><trkpt lat="29.74654056837133" lon="-8.727668275685232"><ele>1877.75</ele><time>2026-04-15T09:38:04Z</time></trkpt><trkpt lat="29.74647548116372" lon="-8.727541511773106"><ele>1878.0</ele><time>2026-04-15T09:38:05Z</time></trkpt><trkpt lat="29.746408159888407" lon="-8.727410182592283"><ele>1876.5</ele><time>2026-04-15T09:38:06Z</time></trkpt><trkpt lat="29.746351478595738" lon="-8.727269954217423"><ele>1875.0</ele><time>2026-04-15T09:38:07Z</time></trkpt><trkpt lat="29.746311717262913" lon="-8.727145892676562"><ele>1873.5</ele><time>2026-04-15T09:38:08Z</time></trkpt><trkpt lat="29.746274383838774" lon="-8.727029517399053"><ele>1872.0</ele><time>2026-04-15T09:38:09Z</time></trkpt><trkpt lat="29.74624876824475" lon="-8.726894565502734"><ele>1870.0</ele><time>2026-04-15T09:38:10Z</time></trkpt><trkpt lat="29.746230549019742" lon="-8.72677055867731"><ele>1867.9999999999998</ele><time>2026-04-15T09:38:11Z</time></trkpt><trkpt lat="29.746213156449535" lon="-8.726653474625895"><ele>1865.9999999999998</ele><time>2026-04-15T09:38:12Z</time></trkpt><trkpt lat="29.746199038963862" lon="-8.726530979603808"><ele>1864.0</ele><time>2026-04-15T09:38:13Z</time></trkpt><trkpt lat="29.74619253125995" lon="-8.726415779415504"><ele>1862.0</ele><time>2026-04-15T09:38:14Z</time></trkpt><trkpt lat="29.746186591318754" lon="-8.726304687755304"><ele>1861.9999999999998</ele><time>2026-04-15T09:38:15Z</time></trkpt><trkpt lat="29.74618754349045" lon="-8.7261940297672"><ele>1862.0</ele><time>2026-04-15T09:38:16Z</time></trkpt><trkpt lat="29.746190425199007" lon="-8.726096654812356"><ele>1862.0</ele><time>2026-04-15T09:38:17Z</time></trkpt><trkpt lat="29.746192998688432" lon="-8.726009694772618"><ele>1862.0</ele><time>2026-04-15T09:38:18Z</time></trkpt><trkpt lat="29.74619528377891" lon="-8.725932479997473"><ele>1861.9999999999998</ele><time>2026-04-15T09:38:19Z</time></trkpt><trkpt lat="29.746197529805602" lon="-8.725856585179045"><ele>1862.0</ele><time>2026-04-15T09:38:20Z</time></trkpt><trkpt lat="29.746206879478688" lon="-8.725776292432252"><ele>1861.8333333333333</ele><time>2026-04-15T09:38:21Z</time></trkpt><trkpt lat="29.746217210452002" lon="-8.725703253556286"><ele>1861.6666666666665</ele><time>2026-04-15T09:38:22Z</time></trkpt><trkpt lat="29.746242518178406" lon="-8.725633907689222"><ele>1861.5</ele><time>2026-04-15T09:38:23Z</time></trkpt><trkpt lat="29.746241286684082" lon="-8.725554424814796"><ele>1861.3333333333335</ele><time>2026-04-15T09:38:24Z</time></trkpt><trkpt lat="29.746255482929946" lon="-8.725463987738552"><ele>1861.1666666666667</ele><time>2026-04-15T09:38:25Z</time></trkpt><trkpt lat="29.746278908119884" lon="-8.725362308498692"><ele>1861.0</ele><time>2026-04-15T09:38:26Z</time></trkpt><trkpt lat="29.746318601552158" lon="-8.725257137440517"><ele>1860.6666666666667</ele><time>2026-04-15T09:38:27Z</time></trkpt><trkpt lat="29.746359388815772" lon="-8.725159091279277"><ele>1860.3333333333335</ele><time>2026-04-15T09:38:28Z</time></trkpt><trkpt lat="29.746377486243226" lon="-8.725059098649584"><ele>1860.0</ele><time>2026-04-15T09:38:29Z</time></trkpt><trkpt lat="29.74641949240438" lon="-8.724960970670445"><ele>1859.6666666666665</ele><time>2026-04-15T09:38:30Z</time></trkpt><trkpt lat="29.74644244317103" lon="-8.724867841346025"><ele>1859.3333333333333</ele><time>2026-04-15T09:38:31Z</time></trkpt><trkpt lat="29.746462921998877" lon="-8.724781770466373"><ele>1859.0</ele><time>2026-04-15T09:38:32Z</time></trkpt><trkpt lat="29.74647626960957" lon="-8.724694021206393"><ele>1858.9999999999998</ele><time>2026-04-15T09:38:33Z</time></trkpt><trkpt lat="29.746489184499033" lon="-8.724612230709745"><ele>1859.0</ele><time>2026-04-15T09:38:34Z</time></trkpt><trkpt lat="29.746483548821683" lon="-8.724530368830639"><ele>1859.0</ele><time>2026-04-15T09:38:35Z</time></trkpt><trkpt lat="29.746423676654643" lon="-8.72446010800813"><ele>1859.0</ele><time>2026-04-15T09:38:36Z</time></trkpt><trkpt lat="29.746367426207062" lon="-8.724400293079588"><ele>1858.9999999999998</ele><time>2026-04-15T09:38:37Z</time></trkpt><trkpt lat="29.74630244057813" lon="-8.724344258129838"><ele>1859.0</ele><time>2026-04-15T09:38:38Z</time></trkpt><trkpt lat="29.74623652643649" lon="-8.724284005072636"><ele>1858.2</ele><time>2026-04-15T09:38:39Z</time></trkpt><trkpt lat="29.746149039872677" lon="-8.724234431604"><ele>1857.4</ele><time>2026-04-15T09:38:40Z</time></trkpt><trkpt lat="29.74606331958642" lon="-8.724176757488689"><ele>1856.6</ele><time>2026-04-15T09:38:41Z</time></trkpt><trkpt lat="29.74598152906795" lon="-8.724121727388738"><ele>1855.8</ele><time>2026-04-15T09:38:42Z</time></trkpt><trkpt lat="29.745897046017564" lon="-8.724064885709465"><ele>1855.0</ele><time>2026-04-15T09:38:43Z</time></trkpt><trkpt lat="29.74580529171314" lon="-8.724003081108577"><ele>1855.0</ele><time>2026-04-15T09:38:44Z</time></trkpt><trkpt lat="29.745708918985155" lon="-8.723938098073573"><ele>1855.0</ele><time>2026-04-15T09:38:45Z</time></trkpt><trkpt lat="29.745612171731945" lon="-8.723871306952981"><ele>1855.0</ele><time>2026-04-15T09:38:46Z</time></trkpt><trkpt lat="29.745519655026087" lon="-8.723805668381813"><ele>1855.0</ele><time>2026-04-15T09:38:47Z</time></trkpt><trkpt lat="29.745433675251515" lon="-8.723745216860527"><ele>1855.0</ele><time>2026-04-15T09:38:48Z</time></trkpt><trkpt lat="29.745347877429957" lon="-8.723684957389782"><ele>1855.0</ele><time>2026-04-15T09:38:49Z</time></trkpt><trkpt lat="29.745254770133386" lon="-8.723619494659092"><ele>1855.0</ele><time>2026-04-15T09:38:50Z</time></trkpt><trkpt lat="29.745155418246327" lon="-8.723549534845134"><ele>1855.0</ele><time>2026-04-15T09:38:51Z</time></trkpt><trkpt lat="29.74505178047117" lon="-8.723476557066638"><ele>1855.0</ele><time>2026-04-15T09:38:52Z</time></trkpt><trkpt lat="29.744960526146382" lon="-8.723401915902594"><ele>1853.6</ele><time>2026-04-15T09:38:53Z</time></trkpt><trkpt lat="29.744868572841828" lon="-8.723322174836447"><ele>1852.2</ele><time>2026-04-15T09:38:54Z</time></trkpt><trkpt lat="29.744788768789398" lon="-8.723253330824525"><ele>1850.8000000000002</ele><time>2026-04-15T09:38:55Z</time></trkpt><trkpt lat="29.744707098082053" lon="-8.723182911360627"><ele>1849.4</ele><time>2026-04-15T09:38:56Z</time></trkpt><trkpt lat="29.74462493687165" lon="-8.723112398272598"><ele>1848.0</ele><time>2026-04-15T09:38:57Z</time></trkpt><trkpt lat="29.744538255876048" lon="-8.723038174422843"><ele>1848.0</ele><time>2026-04-15T09:38:58Z</time></trkpt><trkpt lat="29.744449450922456" lon="-8.722962278209005"><ele>1848.0000000000002</ele><time>2026-04-15T09:38:59Z</time></trkpt><trkpt lat="29.744363786953524" lon="-8.722889080831505"><ele>1848.0000000000002</ele><time>2026-04-15T09:39:00Z</time></trkpt><trkpt lat="29.744282383319774" lon="-8.72281884244517"><ele>1848.0</ele><time>2026-04-15T09:39:01Z</time></trkpt><trkpt lat="29.74419431454386" lon="-8.722745507590785"><ele>1848.0</ele><time>2026-04-15T09:39:02Z</time></trkpt><trkpt lat="29.744105303086386" lon="-8.722678214302839"><ele>1847.0</ele><time>2026-04-15T09:39:03Z</time></trkpt><trkpt lat="29.744018219195304" lon="-8.722612378276132"><ele>1846.0000000000002</ele><time>2026-04-15T09:39:04Z</time></trkpt><trkpt lat="29.743931291048018" lon="-8.72254665998092"><ele>1845.0000000000002</ele><time>2026-04-15T09:39:05Z</time></trkpt><trkpt lat="29.743845043309456" lon="-8.72248145608131"><ele>1844.0</ele><time>2026-04-15T09:39:06Z</time></trkpt><trkpt lat="29.743759346647483" lon="-8.722416668795015"><ele>1843.0</ele><time>2026-04-15T09:39:07Z</time></trkpt><trkpt lat="29.743680854687025" lon="-8.722357328325392"><ele>1843.0000000000002</ele><time>2026-04-15T09:39:08Z</time></trkpt><trkpt lat="29.743609441155908" lon="-8.722303326705854"><ele>1843.0</ele><time>2026-04-15T09:39:09Z</time></trkpt><trkpt lat="29.74354743192065" lon="-8.722256429871003"><ele>1843.0</ele><time>2026-04-15T09:39:10Z</time></trkpt><trkpt lat="29.74348290778644" lon="-8.722201133787506"><ele>1843.0</ele><time>2026-04-15T09:39:11Z</time></trkpt><trkpt lat="29.743411272287716" lon="-8.722138529080924"><ele>1843.0000000000002</ele><time>2026-04-15T09:39:12Z</time></trkpt><trkpt lat="29.743341907575026" lon="-8.722078645173234"><ele>1843.0</ele><time>2026-04-15T09:39:13Z</time></trkpt><trkpt lat="29.74326872218256" lon="-8.72201482304242"><ele>1843.0</ele><time>2026-04-15T09:39:14Z</time></trkpt><trkpt lat="29.743208139317673" lon="-8.721941341261283"><ele>1843.0000000000002</ele><time>2026-04-15T09:39:15Z</time></trkpt><trkpt lat="29.743129226760388" lon="-8.72187907787774"><ele>1843.0000000000002</ele><time>2026-04-15T09:39:16Z</time></trkpt><trkpt lat="29.743051859582533" lon="-8.721805912403575"><ele>1843.0</ele><time>2026-04-15T09:39:17Z</time></trkpt><trkpt lat="29.742963480360803" lon="-8.72174576231591"><ele>1843.0</ele><time>2026-04-15T09:39:18Z</time></trkpt><trkpt lat="29.742869696491603" lon="-8.721685633411902"><ele>1842.2</ele><time>2026-04-15T09:39:19Z</time></trkpt><trkpt lat="29.742765912196923" lon="-8.721636873497513"><ele>1841.4</ele><time>2026-04-15T09:39:20Z</time></trkpt><trkpt lat="29.742667908321913" lon="-8.721591739662705"><ele>1840.6000000000001</ele><time>2026-04-15T09:39:21Z</time></trkpt><trkpt lat="29.742579508013563" lon="-8.721548036843915"><ele>1839.8000000000002</ele><time>2026-04-15T09:39:22Z</time></trkpt><trkpt lat="29.742485866931734" lon="-8.721520438959832"><ele>1839.0</ele><time>2026-04-15T09:39:23Z</time></trkpt><trkpt lat="29.742389329753443" lon="-8.721460433503577"><ele>1839.0</ele><time>2026-04-15T09:39:24Z</time></trkpt><trkpt lat="29.742304602879607" lon="-8.721387687930685"><ele>1839.0</ele><time>2026-04-15T09:39:25Z</time></trkpt><trkpt lat="29.74221638090672" lon="-8.721311941499275"><ele>1839.0</ele><time>2026-04-15T09:39:26Z</time></trkpt><trkpt lat="29.74212717967482" lon="-8.721235354290474"><ele>1839.0</ele><time>2026-04-15T09:39:27Z</time></trkpt><trkpt lat="29.742041293941043" lon="-8.721146837742763"><ele>1839.0</ele><time>2026-04-15T09:39:28Z</time></trkpt><trkpt lat="29.741956125564908" lon="-8.721057713204154"><ele>1838.0</ele><time>2026-04-15T09:39:29Z</time></trkpt><trkpt lat="29.741873093001388" lon="-8.720970823686574"><ele>1837.0</ele><time>2026-04-15T09:39:30Z</time></trkpt><trkpt lat="29.741787603481164" lon="-8.720881435302939"><ele>1836.0</ele><time>2026-04-15T09:39:31Z</time></trkpt><trkpt lat="29.74170221388459" lon="-8.720792177111395"><ele>1835.0</ele><time>2026-04-15T09:39:32Z</time></trkpt><trkpt lat="29.74161282516479" lon="-8.720698739146544"><ele>1835.0</ele><time>2026-04-15T09:39:33Z</time></trkpt><trkpt lat="29.741524499195158" lon="-8.720606412195087"><ele>1835.0</ele><time>2026-04-15T09:39:34Z</time></trkpt><trkpt lat="29.741438989058857" lon="-8.720517028690546"><ele>1835.0</ele><time>2026-04-15T09:39:35Z</time></trkpt><trkpt lat="29.741351386186473" lon="-8.720425406764539"><ele>1835.0</ele><time>2026-04-15T09:39:36Z</time></trkpt><trkpt lat="29.741263898149025" lon="-8.720333829285579"><ele>1835.0</ele><time>2026-04-15T09:39:37Z</time></trkpt><trkpt lat="29.741180698626785" lon="-8.720246768746092"><ele>1835.0</ele><time>2026-04-15T09:39:38Z</time></trkpt><trkpt lat="29.741097813887347" lon="-8.720160037528322"><ele>1835.0</ele><time>2026-04-15T09:39:39Z</time></trkpt><trkpt lat="29.74100976830445" lon="-8.720067905961244"><ele>1835.0</ele><time>2026-04-15T09:39:40Z</time></trkpt><trkpt lat="29.740917711301968" lon="-8.719971576834324"><ele>1833.5</ele><time>2026-04-15T09:39:41Z</time></trkpt><trkpt lat="29.74081865547609" lon="-8.719867924021345"><ele>1832.0</ele><time>2026-04-15T09:39:42Z</time></trkpt><trkpt lat="29.740719125590733" lon="-8.719763775191478"><ele>1830.5</ele><time>2026-04-15T09:39:43Z</time></trkpt><trkpt lat="29.740622904167083" lon="-8.719663112030926"><ele>1829.0</ele><time>2026-04-15T09:39:44Z</time></trkpt><trkpt lat="29.74052631239254" lon="-8.719562256401069"><ele>1829.0</ele><time>2026-04-15T09:39:45Z</time></trkpt><trkpt lat="29.740431132712693" lon="-8.719462875162039"><ele>1829.0</ele><time>2026-04-15T09:39:46Z</time></trkpt><trkpt lat="29.740335079233674" lon="-8.719362581504603"><ele>1829.0</ele><time>2026-04-15T09:39:47Z</time></trkpt><trkpt lat="29.74023252375153" lon="-8.719274258257006"><ele>1829.0</ele><time>2026-04-15T09:39:48Z</time></trkpt><trkpt lat="29.740127199381867" lon="-8.719181668077097"><ele>1828.25</ele><time>2026-04-15T09:39:49Z</time></trkpt><trkpt lat="29.740024726082" lon="-8.719091357930264"><ele>1827.5</ele><time>2026-04-15T09:39:50Z</time></trkpt><trkpt lat="29.739919974209332" lon="-8.71899885148742"><ele>1826.75</ele><time>2026-04-15T09:39:51Z</time></trkpt><trkpt lat="29.739814389509977" lon="-8.718905609572063"><ele>1826.0</ele><time>2026-04-15T09:39:52Z</time></trkpt><trkpt lat="29.73970737669823" lon="-8.718811106488618"><ele>1826.0</ele><time>2026-04-15T09:39:53Z</time></trkpt><trkpt lat="29.739599421645007" lon="-8.718715780101972"><ele>1826.0</ele><time>2026-04-15T09:39:54Z</time></trkpt><trkpt lat="29.739488460515915" lon="-8.718618300720243"><ele>1826.0</ele><time>2026-04-15T09:39:55Z</time></trkpt><trkpt lat="29.739377656444518" lon="-8.718520790327364"><ele>1826.0</ele><time>2026-04-15T09:39:56Z</time></trkpt><trkpt lat="29.73926866138219" lon="-8.718423615220381"><ele>1825.5</ele><time>2026-04-15T09:39:57Z</time></trkpt><trkpt lat="29.739159297864678" lon="-8.718326720661295"><ele>1825.0</ele><time>2026-04-15T09:39:58Z</time></trkpt><trkpt lat="29.739050553069227" lon="-8.718234271909681"><ele>1824.5</ele><time>2026-04-15T09:39:59Z</time></trkpt><trkpt lat="29.738940596243687" lon="-8.718140605604965"><ele>1824.0</ele><time>2026-04-15T09:40:00Z</time></trkpt><trkpt lat="29.738832523320482" lon="-8.71804839121199"><ele>1824.0</ele><time>2026-04-15T09:40:01Z</time></trkpt><trkpt lat="29.73872940755697" lon="-8.71796066468258"><ele>1824.0</ele><time>2026-04-15T09:40:02Z</time></trkpt><trkpt lat="29.738623927519523" lon="-8.717870974808106"><ele>1824.0</ele><time>2026-04-15T09:40:03Z</time></trkpt><trkpt lat="29.73851908370473" lon="-8.717777251519227"><ele>1824.0</ele><time>2026-04-15T09:40:04Z</time></trkpt><trkpt lat="29.738414128124056" lon="-8.717680903899607"><ele>1824.2</ele><time>2026-04-15T09:40:05Z</time></trkpt><trkpt lat="29.738308511729702" lon="-8.717584354660758"><ele>1824.4</ele><time>2026-04-15T09:40:06Z</time></trkpt><trkpt lat="29.738208819270753" lon="-8.717493214146234"><ele>1824.6</ele><time>2026-04-15T09:40:07Z</time></trkpt><trkpt lat="29.73813212507607" lon="-8.717423058178362"><ele>1824.8</ele><time>2026-04-15T09:40:08Z</time></trkpt><trkpt lat="29.73807240062361" lon="-8.71736842527039"><ele>1825.0</ele><time>2026-04-15T09:40:09Z</time></trkpt><trkpt lat="29.738019725291803" lon="-8.717320240550748"><ele>1825.0</ele><time>2026-04-15T09:40:10Z</time></trkpt><trkpt lat="29.737928349071566" lon="-8.717236654206078"><ele>1825.0</ele><time>2026-04-15T09:40:12Z</time></trkpt><trkpt lat="29.73784276863187" lon="-8.7171583695416"><ele>1825.0</ele><time>2026-04-15T09:40:14Z</time></trkpt><trkpt lat="29.737792510663617" lon="-8.717112396102387"><ele>1825.0</ele><time>2026-04-15T09:40:15Z</time></trkpt><trkpt lat="29.73770181692203" lon="-8.71703029137355"><ele>1825.0</ele><time>2026-04-15T09:40:17Z</time></trkpt><trkpt lat="29.73763928390428" lon="-8.717071222276484"><ele>1824.75</ele><time>2026-04-15T09:40:48Z</time></trkpt><trkpt lat="29.73753426174369" lon="-8.717259553426148"><ele>1824.5</ele><time>2026-04-15T09:40:52Z</time></trkpt><trkpt lat="29.737436373533093" lon="-8.717362318684572"><ele>1824.25</ele><time>2026-04-15T09:40:54Z</time></trkpt><trkpt lat="29.737379768728054" lon="-8.717421743717997"><ele>1824.0</ele><time>2026-04-15T09:40:55Z</time></trkpt><trkpt lat="29.737320379833864" lon="-8.717484091558267"><ele>1824.0</ele><time>2026-04-15T09:40:56Z</time></trkpt><trkpt lat="29.737261271979836" lon="-8.71754614436515"><ele>1824.0</ele><time>2026-04-15T09:40:57Z</time></trkpt><trkpt lat="29.737194809955405" lon="-8.717598520569842"><ele>1824.0</ele><time>2026-04-15T09:40:58Z</time></trkpt><trkpt lat="29.737130157428062" lon="-8.71766822297075"><ele>1824.0</ele><time>2026-04-15T09:40:59Z</time></trkpt><trkpt lat="29.73706381791371" lon="-8.717737084816257"><ele>1824.0</ele><time>2026-04-15T09:41:00Z</time></trkpt><trkpt lat="29.736992918593753" lon="-8.71780724614725"><ele>1824.0</ele><time>2026-04-15T09:41:01Z</time></trkpt><trkpt lat="29.73691400784718" lon="-8.717893521144699"><ele>1823.2</ele><time>2026-04-15T09:41:02Z</time></trkpt><trkpt lat="29.736833869456767" lon="-8.717976534571168"><ele>1822.4</ele><time>2026-04-15T09:41:03Z</time></trkpt><trkpt lat="29.736762265322547" lon="-8.718069078825977"><ele>1821.6</ele><time>2026-04-15T09:41:04Z</time></trkpt><trkpt lat="29.736672339344324" lon="-8.718142978474221"><ele>1820.8</ele><time>2026-04-15T09:41:05Z</time></trkpt><trkpt lat="29.736584804758955" lon="-8.718235491507178"><ele>1820.0</ele><time>2026-04-15T09:41:06Z</time></trkpt><trkpt lat="29.73649927629021" lon="-8.718331180284142"><ele>1820.0</ele><time>2026-04-15T09:41:07Z</time></trkpt><trkpt lat="29.73640958745503" lon="-8.718408207356294"><ele>1820.0</ele><time>2026-04-15T09:41:08Z</time></trkpt><trkpt lat="29.736331048449284" lon="-8.718489652282772"><ele>1820.0</ele><time>2026-04-15T09:41:09Z</time></trkpt><trkpt lat="29.736245080184748" lon="-8.718554589523347"><ele>1820.0</ele><time>2026-04-15T09:41:10Z</time></trkpt><trkpt lat="29.73616077963549" lon="-8.71861740892235"><ele>1820.0</ele><time>2026-04-15T09:41:11Z</time></trkpt><trkpt lat="29.736079117326177" lon="-8.718678604026774"><ele>1820.0</ele><time>2026-04-15T09:41:12Z</time></trkpt><trkpt lat="29.735990070412143" lon="-8.718738348320175"><ele>1820.0</ele><time>2026-04-15T09:41:13Z</time></trkpt><trkpt lat="29.735897386184735" lon="-8.71880098851592"><ele>1820.0</ele><time>2026-04-15T09:41:14Z</time></trkpt><trkpt lat="29.735808147271726" lon="-8.718843241493452"><ele>1820.0</ele><time>2026-04-15T09:41:15Z</time></trkpt><trkpt lat="29.735736143979143" lon="-8.718902047512946"><ele>1820.0</ele><time>2026-04-15T09:41:16Z</time></trkpt><trkpt lat="29.735645514919202" lon="-8.718910688425796"><ele>1819.9999999999998</ele><time>2026-04-15T09:41:17Z</time></trkpt><trkpt lat="29.735560076039256" lon="-8.718958845766982"><ele>1820.0</ele><time>2026-04-15T09:41:18Z</time></trkpt><trkpt lat="29.735470427199942" lon="-8.718991034590541"><ele>1820.0</ele><time>2026-04-15T09:41:19Z</time></trkpt><trkpt lat="29.735385919037306" lon="-8.719015075209994"><ele>1820.0</ele><time>2026-04-15T09:41:20Z</time></trkpt><trkpt lat="29.73530832022488" lon="-8.719037036607897"><ele>1819.9999999999998</ele><time>2026-04-15T09:41:21Z</time></trkpt><trkpt lat="29.735232038893283" lon="-8.719058625141558"><ele>1820.0</ele><time>2026-04-15T09:41:22Z</time></trkpt><trkpt lat="29.73514058279182" lon="-8.719073641997927"><ele>1820.0</ele><time>2026-04-15T09:41:23Z</time></trkpt><trkpt lat="29.735051405250008" lon="-8.719080011822276"><ele>1820.0</ele><time>2026-04-15T09:41:24Z</time></trkpt><trkpt lat="29.73495865162536" lon="-8.719086637081096"><ele>1820.0</ele><time>2026-04-15T09:41:25Z</time></trkpt><trkpt lat="29.73486226706754" lon="-8.719088042184888"><ele>1820.0</ele><time>2026-04-15T09:41:26Z</time></trkpt><trkpt lat="29.73475961586696" lon="-8.719086633860561"><ele>1820.0</ele><time>2026-04-15T09:41:27Z</time></trkpt><trkpt lat="29.734646537475005" lon="-8.719085082480545"><ele>1820.0</ele><time>2026-04-15T09:41:28Z</time></trkpt><trkpt lat="29.734528659919896" lon="-8.71908347778222"><ele>1820.0</ele><time>2026-04-15T09:41:29Z</time></trkpt><trkpt lat="29.734406175078096" lon="-8.719082204845268"><ele>1820.0</ele><time>2026-04-15T09:41:30Z</time></trkpt><trkpt lat="29.734288451281127" lon="-8.719080981388005"><ele>1820.0</ele><time>2026-04-15T09:41:31Z</time></trkpt><trkpt lat="29.734172257581086" lon="-8.719063714883921"><ele>1819.75</ele><time>2026-04-15T09:41:32Z</time></trkpt><trkpt lat="29.73405646761839" lon="-8.719074102264603"><ele>1819.5</ele><time>2026-04-15T09:41:33Z</time></trkpt><trkpt lat="29.73393899996663" lon="-8.719075638992017"><ele>1819.25</ele><time>2026-04-15T09:41:34Z</time></trkpt><trkpt lat="29.73382384446481" lon="-8.719099449345828"><ele>1819.0</ele><time>2026-04-15T09:41:35Z</time></trkpt><trkpt lat="29.73371115950907" lon="-8.71910838823963"><ele>1819.0</ele><time>2026-04-15T09:41:36Z</time></trkpt><trkpt lat="29.73359779193885" lon="-8.719101979934752"><ele>1819.0</ele><time>2026-04-15T09:41:37Z</time></trkpt><trkpt lat="29.73349221249928" lon="-8.719129625989781"><ele>1819.0</ele><time>2026-04-15T09:41:38Z</time></trkpt><trkpt lat="29.733394643375068" lon="-8.719123343519245"><ele>1819.0</ele><time>2026-04-15T09:41:39Z</time></trkpt><trkpt lat="29.733299847200584" lon="-8.719144629911959"><ele>1819.0</ele><time>2026-04-15T09:41:40Z</time></trkpt><trkpt lat="29.73320176103221" lon="-8.719165449513666"><ele>1818.4</ele><time>2026-04-15T09:41:41Z</time></trkpt><trkpt lat="29.73310534365182" lon="-8.719196599115822"><ele>1817.8000000000002</ele><time>2026-04-15T09:41:42Z</time></trkpt><trkpt lat="29.733013532739957" lon="-8.71924387007326"><ele>1817.1999999999998</ele><time>2026-04-15T09:41:43Z</time></trkpt><trkpt lat="29.732913622350406" lon="-8.719285954130031"><ele>1816.6</ele><time>2026-04-15T09:41:44Z</time></trkpt><trkpt lat="29.73281502643583" lon="-8.71931990243113"><ele>1816.0</ele><time>2026-04-15T09:41:45Z</time></trkpt><trkpt lat="29.732723648886186" lon="-8.719356232765959"><ele>1815.4</ele><time>2026-04-15T09:41:46Z</time></trkpt><trkpt lat="29.73264009683401" lon="-8.719391466165971"><ele>1814.8</ele><time>2026-04-15T09:41:47Z</time></trkpt><trkpt lat="29.732553738903768" lon="-8.719433312319403"><ele>1814.2000000000003</ele><time>2026-04-15T09:41:48Z</time></trkpt><trkpt lat="29.732457273365142" lon="-8.719477852989682"><ele>1813.6000000000001</ele><time>2026-04-15T09:41:49Z</time></trkpt><trkpt lat="29.732361716594344" lon="-8.719517246342269"><ele>1813.0</ele><time>2026-04-15T09:41:50Z</time></trkpt><trkpt lat="29.73226789403103" lon="-8.719558263237364"><ele>1813.0</ele><time>2026-04-15T09:41:51Z</time></trkpt><trkpt lat="29.732174026126263" lon="-8.719597673327481"><ele>1813.0000000000002</ele><time>2026-04-15T09:41:52Z</time></trkpt><trkpt lat="29.732076309403098" lon="-8.71962703616469"><ele>1813.0000000000002</ele><time>2026-04-15T09:41:53Z</time></trkpt><trkpt lat="29.731974303900234" lon="-8.71964712308089"><ele>1813.0</ele><time>2026-04-15T09:41:54Z</time></trkpt><trkpt lat="29.731866310652606" lon="-8.719662807168087"><ele>1813.0</ele><time>2026-04-15T09:41:55Z</time></trkpt><trkpt lat="29.731759642943636" lon="-8.719676544766275"><ele>1812.4</ele><time>2026-04-15T09:41:56Z</time></trkpt><trkpt lat="29.731657212467784" lon="-8.71970259540692"><ele>1811.8000000000002</ele><time>2026-04-15T09:41:57Z</time></trkpt><trkpt lat="29.731555248613716" lon="-8.719697645634417"><ele>1811.2</ele><time>2026-04-15T09:41:58Z</time></trkpt><trkpt lat="29.731457272004505" lon="-8.71971977776406"><ele>1810.6</ele><time>2026-04-15T09:41:59Z</time></trkpt><trkpt lat="29.731364927732848" lon="-8.71972668097759"><ele>1810.0</ele><time>2026-04-15T09:42:00Z</time></trkpt><trkpt lat="29.731273411356547" lon="-8.719733082603385"><ele>1810.0</ele><time>2026-04-15T09:42:01Z</time></trkpt><trkpt lat="29.731172520317223" lon="-8.719739900811225"><ele>1810.0</ele><time>2026-04-15T09:42:02Z</time></trkpt><trkpt lat="29.731061999068455" lon="-8.71974737127289"><ele>1810.0</ele><time>2026-04-15T09:42:03Z</time></trkpt><trkpt lat="29.730945006510694" lon="-8.719755280493771"><ele>1810.0</ele><time>2026-04-15T09:42:04Z</time></trkpt><trkpt lat="29.73082473494386" lon="-8.719763411387095"><ele>1810.0</ele><time>2026-04-15T09:42:05Z</time></trkpt><trkpt lat="29.730702972315427" lon="-8.71977164308312"><ele>1810.25</ele><time>2026-04-15T09:42:06Z</time></trkpt><trkpt lat="29.730585124786582" lon="-8.719776302684453"><ele>1810.5</ele><time>2026-04-15T09:42:07Z</time></trkpt><trkpt lat="29.73048327637713" lon="-8.719811228457187"><ele>1810.75</ele><time>2026-04-15T09:42:08Z</time></trkpt><trkpt lat="29.730382674304863" lon="-8.719839011903051"><ele>1811.0</ele><time>2026-04-15T09:42:09Z</time></trkpt><trkpt lat="29.730164279772218" lon="-8.719899326296316"><ele>1811.0</ele><time>2026-04-15T09:42:11Z</time></trkpt><trkpt lat="29.730047383528113" lon="-8.719931570019858"><ele>1811.0</ele><time>2026-04-15T09:42:12Z</time></trkpt><trkpt lat="29.72993554960989" lon="-8.71996211648101"><ele>1811.0</ele><time>2026-04-15T09:42:13Z</time></trkpt><trkpt lat="29.729816360156434" lon="-8.719994672043631"><ele>1811.0</ele><time>2026-04-15T09:42:14Z</time></trkpt><trkpt lat="29.729697267497365" lon="-8.720008364128299"><ele>1811.0</ele><time>2026-04-15T09:42:15Z</time></trkpt><trkpt lat="29.729587599945095" lon="-8.720046412536792"><ele>1811.0</ele><time>2026-04-15T09:42:16Z</time></trkpt><trkpt lat="29.72946837482487" lon="-8.720074201495432"><ele>1811.0</ele><time>2026-04-15T09:42:17Z</time></trkpt><trkpt lat="29.729357538338018" lon="-8.720108498695287"><ele>1811.0</ele><time>2026-04-15T09:42:18Z</time></trkpt><trkpt lat="29.729253383539106" lon="-8.720139631007088"><ele>1811.0</ele><time>2026-04-15T09:42:19Z</time></trkpt><trkpt lat="29.729157122815497" lon="-8.720161333464436"><ele>1811.0</ele><time>2026-04-15T09:42:20Z</time></trkpt><trkpt lat="29.72906203153587" lon="-8.720196999743889"><ele>1811.0</ele><time>2026-04-15T09:42:21Z</time></trkpt><trkpt lat="29.728960279957565" lon="-8.720214545606904"><ele>1811.0</ele><time>2026-04-15T09:42:22Z</time></trkpt><trkpt lat="29.72886110261504" lon="-8.720222409604071"><ele>1811.0</ele><time>2026-04-15T09:42:23Z</time></trkpt><trkpt lat="29.728754751748877" lon="-8.720222291064779"><ele>1811.0</ele><time>2026-04-15T09:42:24Z</time></trkpt><trkpt lat="29.728643148438646" lon="-8.720220474759353"><ele>1811.0</ele><time>2026-04-15T09:42:25Z</time></trkpt><trkpt lat="29.728530401060564" lon="-8.720218630976364"><ele>1811.0</ele><time>2026-04-15T09:42:26Z</time></trkpt><trkpt lat="29.728409935956822" lon="-8.720200333288165"><ele>1811.0</ele><time>2026-04-15T09:42:27Z</time></trkpt><trkpt lat="29.728298831836565" lon="-8.720179170048915"><ele>1811.1999999999998</ele><time>2026-04-15T09:42:28Z</time></trkpt><trkpt lat="29.72819159426992" lon="-8.720158743306671"><ele>1811.3999999999999</ele><time>2026-04-15T09:42:29Z</time></trkpt><trkpt lat="29.728086093628903" lon="-8.720138647437064"><ele>1811.6</ele><time>2026-04-15T09:42:30Z</time></trkpt><trkpt lat="29.72798406102384" lon="-8.7201192121501"><ele>1811.8</ele><time>2026-04-15T09:42:31Z</time></trkpt><trkpt lat="29.72787628953277" lon="-8.720098683719794"><ele>1812.0</ele><time>2026-04-15T09:42:32Z</time></trkpt><trkpt lat="29.727766078452976" lon="-8.720077690586498"><ele>1811.3999999999999</ele><time>2026-04-15T09:42:33Z</time></trkpt><trkpt lat="29.727659000709988" lon="-8.720057294295437"><ele>1810.7999999999997</ele><time>2026-04-15T09:42:34Z</time></trkpt><trkpt lat="29.727553486516044" lon="-8.720037195837774"><ele>1810.2</ele><time>2026-04-15T09:42:35Z</time></trkpt><trkpt lat="29.7274459113663" lon="-8.720016380144203"><ele>1809.6</ele><time>2026-04-15T09:42:36Z</time></trkpt><trkpt lat="29.72733751833949" lon="-8.719995351345982"><ele>1809.0</ele><time>2026-04-15T09:42:37Z</time></trkpt><trkpt lat="29.727227324924794" lon="-8.71997397325964"><ele>1809.0</ele><time>2026-04-15T09:42:38Z</time></trkpt><trkpt lat="29.72711643353079" lon="-8.71995245976074"><ele>1809.0</ele><time>2026-04-15T09:42:39Z</time></trkpt><trkpt lat="29.727007219075347" lon="-8.719931271594458"><ele>1809.0</ele><time>2026-04-15T09:42:40Z</time></trkpt><trkpt lat="29.726903414994084" lon="-8.719911133071891"><ele>1809.0</ele><time>2026-04-15T09:42:41Z</time></trkpt><trkpt lat="29.7268102520003" lon="-8.719893058913966"><ele>1809.0</ele><time>2026-04-15T09:42:42Z</time></trkpt><trkpt lat="29.726720721213656" lon="-8.719875689404299"><ele>1808.4</ele><time>2026-04-15T09:42:43Z</time></trkpt><trkpt lat="29.72662972339656" lon="-8.719858035276893"><ele>1807.8000000000002</ele><time>2026-04-15T09:42:44Z</time></trkpt><trkpt lat="29.72653400201269" lon="-8.719789937647914"><ele>1807.1999999999998</ele><time>2026-04-15T09:42:45Z</time></trkpt><trkpt lat="29.726426763453244" lon="-8.719760480637666"><ele>1806.6</ele><time>2026-04-15T09:42:46Z</time></trkpt><trkpt lat="29.726315114452575" lon="-8.719733077766742"><ele>1806.0</ele><time>2026-04-15T09:42:47Z</time></trkpt><trkpt lat="29.726205216803116" lon="-8.71970575989225"><ele>1806.0</ele><time>2026-04-15T09:42:48Z</time></trkpt><trkpt lat="29.726095253563862" lon="-8.719670807198417"><ele>1806.0</ele><time>2026-04-15T09:42:49Z</time></trkpt><trkpt lat="29.725987056774496" lon="-8.719623548951551"><ele>1806.0</ele><time>2026-04-15T09:42:50Z</time></trkpt><trkpt lat="29.725884329868308" lon="-8.719582664552972"><ele>1806.0</ele><time>2026-04-15T09:42:51Z</time></trkpt><trkpt lat="29.7257888545141" lon="-8.719539524367073"><ele>1806.0</ele><time>2026-04-15T09:42:52Z</time></trkpt><trkpt lat="29.725695751893785" lon="-8.719494570420732"><ele>1806.0</ele><time>2026-04-15T09:42:53Z</time></trkpt><trkpt lat="29.725598792140172" lon="-8.719445208697055"><ele>1806.0</ele><time>2026-04-15T09:42:54Z</time></trkpt><trkpt lat="29.725499556047396" lon="-8.71939512079854"><ele>1806.0</ele><time>2026-04-15T09:42:55Z</time></trkpt><trkpt lat="29.725402034135826" lon="-8.719338775084916"><ele>1806.0</ele><time>2026-04-15T09:42:56Z</time></trkpt><trkpt lat="29.7253024720106" lon="-8.719278959433993"><ele>1806.0</ele><time>2026-04-15T09:42:57Z</time></trkpt><trkpt lat="29.725208305555626" lon="-8.719226465316643"><ele>1806.4</ele><time>2026-04-15T09:42:58Z</time></trkpt><trkpt lat="29.7251137194477" lon="-8.719174800448313"><ele>1806.8</ele><time>2026-04-15T09:42:59Z</time></trkpt><trkpt lat="29.72501666362042" lon="-8.719122529498176"><ele>1807.2000000000003</ele><time>2026-04-15T09:43:00Z</time></trkpt><trkpt lat="29.724916564149957" lon="-8.719067016377952"><ele>1807.6000000000001</ele><time>2026-04-15T09:43:01Z</time></trkpt><trkpt lat="29.724818714735267" lon="-8.719013336274612"><ele>1808.0</ele><time>2026-04-15T09:43:02Z</time></trkpt><trkpt lat="29.72471937139158" lon="-8.718957259282128"><ele>1808.0</ele><time>2026-04-15T09:43:03Z</time></trkpt><trkpt lat="29.724619976933283" lon="-8.718903315235098"><ele>1808.0000000000002</ele><time>2026-04-15T09:43:04Z</time></trkpt><trkpt lat="29.724525554149345" lon="-8.718851148131328"><ele>1808.0000000000002</ele><time>2026-04-15T09:43:05Z</time></trkpt><trkpt lat="29.72443275540034" lon="-8.718802375589316"><ele>1808.0</ele><time>2026-04-15T09:43:06Z</time></trkpt><trkpt lat="29.724345454971733" lon="-8.718753719908998"><ele>1808.0</ele><time>2026-04-15T09:43:07Z</time></trkpt><trkpt lat="29.72425872646727" lon="-8.718702795058174"><ele>1808.2</ele><time>2026-04-15T09:43:08Z</time></trkpt><trkpt lat="29.724165933663805" lon="-8.718651287810454"><ele>1808.4</ele><time>2026-04-15T09:43:09Z</time></trkpt><trkpt lat="29.724069232411953" lon="-8.718598853479783"><ele>1808.6000000000001</ele><time>2026-04-15T09:43:10Z</time></trkpt><trkpt lat="29.723967840394582" lon="-8.718550742028066"><ele>1808.8000000000002</ele><time>2026-04-15T09:43:11Z</time></trkpt><trkpt lat="29.723860202089394" lon="-8.718505750807697"><ele>1809.0</ele><time>2026-04-15T09:43:12Z</time></trkpt><trkpt lat="29.723745116338407" lon="-8.718451773462629"><ele>1809.0</ele><time>2026-04-15T09:43:13Z</time></trkpt><trkpt lat="29.72362447980166" lon="-8.718390914328564"><ele>1809.0</ele><time>2026-04-15T09:43:14Z</time></trkpt><trkpt lat="29.723501955223643" lon="-8.718340291772163"><ele>1809.0</ele><time>2026-04-15T09:43:15Z</time></trkpt><trkpt lat="29.723376231500183" lon="-8.71829895973756"><ele>1809.0</ele><time>2026-04-15T09:43:16Z</time></trkpt><trkpt lat="29.723243431445724" lon="-8.718255230725322"><ele>1809.75</ele><time>2026-04-15T09:43:17Z</time></trkpt><trkpt lat="29.72310550716169" lon="-8.71820745018166"><ele>1810.5</ele><time>2026-04-15T09:43:18Z</time></trkpt><trkpt lat="29.72297116258657" lon="-8.718159189420161"><ele>1811.25</ele><time>2026-04-15T09:43:19Z</time></trkpt><trkpt lat="29.722838090641574" lon="-8.718120262055008"><ele>1812.0</ele><time>2026-04-15T09:43:20Z</time></trkpt><trkpt lat="29.72270157893709" lon="-8.718086388634681"><ele>1812.5</ele><time>2026-04-15T09:43:21Z</time></trkpt><trkpt lat="29.722565289947926" lon="-8.718051347786018"><ele>1813.0</ele><time>2026-04-15T09:43:22Z</time></trkpt><trkpt lat="29.72242656845866" lon="-8.718018389880825"><ele>1813.5</ele><time>2026-04-15T09:43:23Z</time></trkpt><trkpt lat="29.722288329727114" lon="-8.717982177579442"><ele>1814.0</ele><time>2026-04-15T09:43:24Z</time></trkpt><trkpt lat="29.72214641006605" lon="-8.717946752974443"><ele>1814.0</ele><time>2026-04-15T09:43:25Z</time></trkpt><trkpt lat="29.721999828198044" lon="-8.7179188733845"><ele>1814.0</ele><time>2026-04-15T09:43:26Z</time></trkpt><trkpt lat="29.721852437012416" lon="-8.717893231365766"><ele>1814.0</ele><time>2026-04-15T09:43:27Z</time></trkpt><trkpt lat="29.721709078615397" lon="-8.717877312940729"><ele>1814.0</ele><time>2026-04-15T09:43:28Z</time></trkpt><trkpt lat="29.72157347689494" lon="-8.717862814499316"><ele>1814.5</ele><time>2026-04-15T09:43:29Z</time></trkpt><trkpt lat="29.721452985590087" lon="-8.717846018483021"><ele>1815.0</ele><time>2026-04-15T09:43:30Z</time></trkpt><trkpt lat="29.721335755381777" lon="-8.717848029865571"><ele>1815.5</ele><time>2026-04-15T09:43:31Z</time></trkpt><trkpt lat="29.721214670756062" lon="-8.717825400772222"><ele>1816.0</ele><time>2026-04-15T09:43:32Z</time></trkpt><trkpt lat="29.72109346589543" lon="-8.717802749206845"><ele>1816.0</ele><time>2026-04-15T09:43:33Z</time></trkpt><trkpt lat="29.7209724258678" lon="-8.717780128447302"><ele>1816.0</ele><time>2026-04-15T09:43:34Z</time></trkpt><trkpt lat="29.720852314547187" lon="-8.717757450586912"><ele>1816.0</ele><time>2026-04-15T09:43:35Z</time></trkpt><trkpt lat="29.720727261662194" lon="-8.717733444009442"><ele>1816.0</ele><time>2026-04-15T09:43:36Z</time></trkpt><trkpt lat="29.72060140823162" lon="-8.71770928375255"><ele>1816.0</ele><time>2026-04-15T09:43:37Z</time></trkpt><trkpt lat="29.720481032940683" lon="-8.717686175140274"><ele>1816.0</ele><time>2026-04-15T09:43:38Z</time></trkpt><trkpt lat="29.72035813522453" lon="-8.717660738493832"><ele>1816.0</ele><time>2026-04-15T09:43:39Z</time></trkpt><trkpt lat="29.7202326730834" lon="-8.717630219011447"><ele>1816.0</ele><time>2026-04-15T09:43:40Z</time></trkpt><trkpt lat="29.720112940238955" lon="-8.717600771359628"><ele>1816.4</ele><time>2026-04-15T09:43:41Z</time></trkpt><trkpt lat="29.719999501444434" lon="-8.717563956393246"><ele>1816.8</ele><time>2026-04-15T09:43:42Z</time></trkpt><trkpt lat="29.71989427992306" lon="-8.717522919864404"><ele>1817.2000000000003</ele><time>2026-04-15T09:43:43Z</time></trkpt><trkpt lat="29.71979763592051" lon="-8.717474353811204"><ele>1817.6000000000001</ele><time>2026-04-15T09:43:44Z</time></trkpt><trkpt lat="29.719716087941478" lon="-8.71741623676697"><ele>1818.0</ele><time>2026-04-15T09:43:45Z</time></trkpt><trkpt lat="29.719625253299096" lon="-8.717378766586906"><ele>1818.0</ele><time>2026-04-15T09:43:46Z</time></trkpt><trkpt lat="29.719545115407733" lon="-8.717325732803191"><ele>1818.0</ele><time>2026-04-15T09:43:47Z</time></trkpt><trkpt lat="29.719463148804003" lon="-8.717286050223262"><ele>1818.0</ele><time>2026-04-15T09:43:48Z</time></trkpt><trkpt lat="29.719390382232987" lon="-8.717243683091947"><ele>1818.0</ele><time>2026-04-15T09:43:49Z</time></trkpt><trkpt lat="29.71931478641513" lon="-8.71719895741007"><ele>1818.0</ele><time>2026-04-15T09:43:50Z</time></trkpt><trkpt lat="29.719238780370514" lon="-8.717151582340083"><ele>1818.0</ele><time>2026-04-15T09:43:51Z</time></trkpt><trkpt lat="29.719159589070042" lon="-8.717097325442227"><ele>1818.2</ele><time>2026-04-15T09:43:52Z</time></trkpt><trkpt lat="29.719073863155852" lon="-8.717045181692658"><ele>1818.4</ele><time>2026-04-15T09:43:53Z</time></trkpt><trkpt lat="29.718988018110423" lon="-8.716994941458404"><ele>1818.6000000000001</ele><time>2026-04-15T09:43:54Z</time></trkpt><trkpt lat="29.71889924049468" lon="-8.716940550792192"><ele>1818.8000000000002</ele><time>2026-04-15T09:43:55Z</time></trkpt><trkpt lat="29.718802552178108" lon="-8.716886199338319"><ele>1819.0</ele><time>2026-04-15T09:43:56Z</time></trkpt><trkpt lat="29.71870312065263" lon="-8.716826623339838"><ele>1819.0</ele><time>2026-04-15T09:43:57Z</time></trkpt><trkpt lat="29.71860093632032" lon="-8.716766713223615"><ele>1819.0</ele><time>2026-04-15T09:43:58Z</time></trkpt><trkpt lat="29.718501088821338" lon="-8.71670103416831"><ele>1819.0</ele><time>2026-04-15T09:43:59Z</time></trkpt><trkpt lat="29.718396734276798" lon="-8.716635475304912"><ele>1819.0</ele><time>2026-04-15T09:44:00Z</time></trkpt><trkpt lat="29.71830040196177" lon="-8.716560047676841"><ele>1819.75</ele><time>2026-04-15T09:44:01Z</time></trkpt><trkpt lat="29.718202569700164" lon="-8.716485541269089"><ele>1820.5</ele><time>2026-04-15T09:44:02Z</time></trkpt><trkpt lat="29.7181010325197" lon="-8.716403605042016"><ele>1821.25</ele><time>2026-04-15T09:44:03Z</time></trkpt><trkpt lat="29.717993497864406" lon="-8.716314533161196"><ele>1822.0</ele><time>2026-04-15T09:44:04Z</time></trkpt><trkpt lat="29.71788558901213" lon="-8.716228862653782"><ele>1822.0</ele><time>2026-04-15T09:44:05Z</time></trkpt><trkpt lat="29.717777038434296" lon="-8.716146906397428"><ele>1822.0</ele><time>2026-04-15T09:44:06Z</time></trkpt><trkpt lat="29.717674010879982" lon="-8.71605300148305"><ele>1822.0</ele><time>2026-04-15T09:44:07Z</time></trkpt><trkpt lat="29.71756798686937" lon="-8.71595918345144"><ele>1822.0</ele><time>2026-04-15T09:44:08Z</time></trkpt><trkpt lat="29.71746074731948" lon="-8.71586558739329"><ele>1822.5</ele><time>2026-04-15T09:44:09Z</time></trkpt><trkpt lat="29.717349982537815" lon="-8.715771195737485"><ele>1823.0</ele><time>2026-04-15T09:44:10Z</time></trkpt><trkpt lat="29.71725261997595" lon="-8.715670833261537"><ele>1823.5</ele><time>2026-04-15T09:44:11Z</time></trkpt><trkpt lat="29.71716614871713" lon="-8.715588064763232"><ele>1824.0</ele><time>2026-04-15T09:44:12Z</time></trkpt><trkpt lat="29.71707868946195" lon="-8.715486265464836"><ele>1824.0</ele><time>2026-04-15T09:44:13Z</time></trkpt><trkpt lat="29.71699724867352" lon="-8.715387588653064"><ele>1824.0</ele><time>2026-04-15T09:44:14Z</time></trkpt><trkpt lat="29.716905305417974" lon="-8.71530411857423"><ele>1824.0</ele><time>2026-04-15T09:44:15Z</time></trkpt><trkpt lat="29.71683045612906" lon="-8.715211152438014"><ele>1824.0</ele><time>2026-04-15T09:44:16Z</time></trkpt><trkpt lat="29.716754608276577" lon="-8.715117493367288"><ele>1824.25</ele><time>2026-04-15T09:44:17Z</time></trkpt><trkpt lat="29.71667664282568" lon="-8.715021341245281"><ele>1824.5</ele><time>2026-04-15T09:44:18Z</time></trkpt><trkpt lat="29.716597654283344" lon="-8.714923341687289"><ele>1824.75</ele><time>2026-04-15T09:44:19Z</time></trkpt><trkpt lat="29.716521115943525" lon="-8.714828321743838"><ele>1825.0</ele><time>2026-04-15T09:44:20Z</time></trkpt><trkpt lat="29.716447123569463" lon="-8.714736462543739"><ele>1825.0</ele><time>2026-04-15T09:44:21Z</time></trkpt><trkpt lat="29.716375496768805" lon="-8.71464754013408"><ele>1825.0</ele><time>2026-04-15T09:44:22Z</time></trkpt><trkpt lat="29.716303951485155" lon="-8.714558718923044"><ele>1825.0</ele><time>2026-04-15T09:44:23Z</time></trkpt><trkpt lat="29.71623547510165" lon="-8.714463241393343"><ele>1825.0</ele><time>2026-04-15T09:44:24Z</time></trkpt><trkpt lat="29.71618199866293" lon="-8.714358322858423"><ele>1825.0</ele><time>2026-04-15T09:44:25Z</time></trkpt><trkpt lat="29.71611517867816" lon="-8.714262779095035"><ele>1825.0</ele><time>2026-04-15T09:44:26Z</time></trkpt><trkpt lat="29.716044857615795" lon="-8.714163713800225"><ele>1825.0</ele><time>2026-04-15T09:44:27Z</time></trkpt><trkpt lat="29.715981103518107" lon="-8.71405487398919"><ele>1825.0</ele><time>2026-04-15T09:44:28Z</time></trkpt><trkpt lat="29.715913019126187" lon="-8.71394673545908"><ele>1825.0</ele><time>2026-04-15T09:44:29Z</time></trkpt><trkpt lat="29.715844489379666" lon="-8.713830595834668"><ele>1825.0</ele><time>2026-04-15T09:44:30Z</time></trkpt><trkpt lat="29.71577325510264" lon="-8.713705700143635"><ele>1825.0</ele><time>2026-04-15T09:44:31Z</time></trkpt><trkpt lat="29.71569896457407" lon="-8.713570480193034"><ele>1825.0</ele><time>2026-04-15T09:44:32Z</time></trkpt><trkpt lat="29.715624144320774" lon="-8.713436436508648"><ele>1825.0</ele><time>2026-04-15T09:44:33Z</time></trkpt><trkpt lat="29.71555094680837" lon="-8.71330612130002"><ele>1825.0</ele><time>2026-04-15T09:44:34Z</time></trkpt><trkpt lat="29.715481512777362" lon="-8.71317084765963"><ele>1825.0</ele><time>2026-04-15T09:44:35Z</time></trkpt><trkpt lat="29.71540121193131" lon="-8.713045821325453"><ele>1825.0</ele><time>2026-04-15T09:44:36Z</time></trkpt><trkpt lat="29.715321631492035" lon="-8.712934982877016"><ele>1825.0</ele><time>2026-04-15T09:44:37Z</time></trkpt><trkpt lat="29.71524572295601" lon="-8.712812159484791"><ele>1824.5</ele><time>2026-04-15T09:44:38Z</time></trkpt><trkpt lat="29.71516992034868" lon="-8.7126895074963"><ele>1824.0</ele><time>2026-04-15T09:44:39Z</time></trkpt><trkpt lat="29.715095052497492" lon="-8.712568367980309"><ele>1823.5</ele><time>2026-04-15T09:44:40Z</time></trkpt><trkpt lat="29.715021210118" lon="-8.712448887728748"><ele>1823.0</ele><time>2026-04-15T09:44:41Z</time></trkpt><trkpt lat="29.71494328882489" lon="-8.712322806367862"><ele>1823.0</ele><time>2026-04-15T09:44:42Z</time></trkpt><trkpt lat="29.714857108086036" lon="-8.712191450400859"><ele>1823.0</ele><time>2026-04-15T09:44:43Z</time></trkpt><trkpt lat="29.71476400072235" lon="-8.712052626894403"><ele>1823.0</ele><time>2026-04-15T09:44:44Z</time></trkpt><trkpt lat="29.71466738458624" lon="-8.711908666172572"><ele>1823.0</ele><time>2026-04-15T09:44:45Z</time></trkpt><trkpt lat="29.714566934832032" lon="-8.711758993260634"><ele>1823.0</ele><time>2026-04-15T09:44:46Z</time></trkpt><trkpt lat="29.714463378435322" lon="-8.711604691357177"><ele>1823.0</ele><time>2026-04-15T09:44:47Z</time></trkpt><trkpt lat="29.71435507804817" lon="-8.711446160720666"><ele>1823.0</ele><time>2026-04-15T09:44:48Z</time></trkpt><trkpt lat="29.714244758346656" lon="-8.711285203647414"><ele>1823.0</ele><time>2026-04-15T09:44:49Z</time></trkpt><trkpt lat="29.714132035078762" lon="-8.71112006010666"><ele>1823.0</ele><time>2026-04-15T09:44:50Z</time></trkpt><trkpt lat="29.714027168206773" lon="-8.710951578150643"><ele>1822.0</ele><time>2026-04-15T09:44:51Z</time></trkpt><trkpt lat="29.713920239401656" lon="-8.710773890139413"><ele>1821.0</ele><time>2026-04-15T09:44:52Z</time></trkpt><trkpt lat="29.713821558271967" lon="-8.710589690110078"><ele>1820.0</ele><time>2026-04-15T09:44:53Z</time></trkpt><trkpt lat="29.713720740159946" lon="-8.71039941992229"><ele>1819.3333333333333</ele><time>2026-04-15T09:44:54Z</time></trkpt><trkpt lat="29.71362032041295" lon="-8.710207085410033"><ele>1818.6666666666665</ele><time>2026-04-15T09:44:55Z</time></trkpt><trkpt lat="29.71352706922805" lon="-8.710028480886962"><ele>1818.0</ele><time>2026-04-15T09:44:56Z</time></trkpt><trkpt lat="29.71344365236957" lon="-8.709882594417454"><ele>1817.75</ele><time>2026-04-15T09:44:57Z</time></trkpt><trkpt lat="29.713365812669583" lon="-8.709762170085646"><ele>1817.5</ele><time>2026-04-15T09:44:58Z</time></trkpt><trkpt lat="29.713280744842926" lon="-8.709659334353669"><ele>1817.25</ele><time>2026-04-15T09:44:59Z</time></trkpt><trkpt lat="29.71318596479786" lon="-8.70954508043328"><ele>1817.0</ele><time>2026-04-15T09:45:00Z</time></trkpt><trkpt lat="29.713069447763388" lon="-8.70943840950788"><ele>1815.3333333333333</ele><time>2026-04-15T09:45:01Z</time></trkpt><trkpt lat="29.712940805619116" lon="-8.70932263654828"><ele>1813.6666666666665</ele><time>2026-04-15T09:45:02Z</time></trkpt><trkpt lat="29.712797582574044" lon="-8.709195285171429"><ele>1812.0</ele><time>2026-04-15T09:45:03Z</time></trkpt><trkpt lat="29.712650046160608" lon="-8.70906443020325"><ele>1812.0</ele><time>2026-04-15T09:45:04Z</time></trkpt><trkpt lat="29.712505735769035" lon="-8.708936428018223"><ele>1812.0</ele><time>2026-04-15T09:45:05Z</time></trkpt><trkpt lat="29.71238638944567" lon="-8.708830566896765"><ele>1812.0</ele><time>2026-04-15T09:45:06Z</time></trkpt><trkpt lat="29.712287634266854" lon="-8.708743496261315"><ele>1812.0</ele><time>2026-04-15T09:45:07Z</time></trkpt><trkpt lat="29.712204906311854" lon="-8.708670673144756"><ele>1812.0</ele><time>2026-04-15T09:45:08Z</time></trkpt><trkpt lat="29.712140422780777" lon="-8.708613785088682"><ele>1812.0</ele><time>2026-04-15T09:45:09Z</time></trkpt><trkpt lat="29.712086894445928" lon="-8.708566507052513"><ele>1812.0</ele><time>2026-04-15T09:45:10Z</time></trkpt><trkpt lat="29.712032327293837" lon="-8.708515689496945"><ele>1812.0</ele><time>2026-04-15T09:46:51Z</time></trkpt><trkpt lat="29.712101993614496" lon="-8.70857984318934"><ele>1812.0</ele><time>2026-04-15T09:47:25Z</time></trkpt><trkpt lat="29.712236736626036" lon="-8.70869644198032"><ele>1812.0</ele><time>2026-04-15T09:47:27Z</time></trkpt><trkpt lat="29.712315893259127" lon="-8.708768371031129"><ele>1811.9999999999998</ele><time>2026-04-15T09:47:28Z</time></trkpt><trkpt lat="29.712389837053482" lon="-8.708833624285091"><ele>1811.9999999999998</ele><time>2026-04-15T09:47:29Z</time></trkpt><trkpt lat="29.712465848121663" lon="-8.708901046879998"><ele>1812.0</ele><time>2026-04-15T09:47:30Z</time></trkpt><trkpt lat="29.712551161640256" lon="-8.708976720738715"><ele>1812.0</ele><time>2026-04-15T09:47:31Z</time></trkpt><trkpt lat="29.71265021436311" lon="-8.709064581418646"><ele>1811.8</ele><time>2026-04-15T09:47:32Z</time></trkpt><trkpt lat="29.712743973242777" lon="-8.709147737103425"><ele>1811.6</ele><time>2026-04-15T09:47:33Z</time></trkpt><trkpt lat="29.71282531474801" lon="-8.709219881526915"><ele>1811.3999999999999</ele><time>2026-04-15T09:47:34Z</time></trkpt><trkpt lat="29.71290260526366" lon="-8.70928843304866"><ele>1811.1999999999998</ele><time>2026-04-15T09:47:35Z</time></trkpt><trkpt lat="29.7129878921921" lon="-8.709364506159732"><ele>1811.0</ele><time>2026-04-15T09:47:36Z</time></trkpt><trkpt lat="29.71308411788488" lon="-8.709450080556188"><ele>1812.5</ele><time>2026-04-15T09:47:37Z</time></trkpt><trkpt lat="29.71318140265528" lon="-8.709537770457873"><ele>1814.0</ele><time>2026-04-15T09:47:38Z</time></trkpt><trkpt lat="29.713267900448866" lon="-8.70963084092075"><ele>1815.5</ele><time>2026-04-15T09:47:39Z</time></trkpt><trkpt lat="29.713358024826032" lon="-8.7097182309612"><ele>1817.0</ele><time>2026-04-15T09:47:40Z</time></trkpt><trkpt lat="29.713432823200822" lon="-8.709813362349642"><ele>1817.0</ele><time>2026-04-15T09:47:41Z</time></trkpt><trkpt lat="29.713491688265858" lon="-8.709913255581029"><ele>1816.9999999999998</ele><time>2026-04-15T09:47:42Z</time></trkpt><trkpt lat="29.71353395204763" lon="-8.710022355671107"><ele>1816.9999999999998</ele><time>2026-04-15T09:47:43Z</time></trkpt><trkpt lat="29.71360631405669" lon="-8.710115381480191"><ele>1817.0</ele><time>2026-04-15T09:47:44Z</time></trkpt><trkpt lat="29.713664861392555" lon="-8.710225522610763"><ele>1817.0</ele><time>2026-04-15T09:47:45Z</time></trkpt><trkpt lat="29.71369887146722" lon="-8.710357536012182"><ele>1817.75</ele><time>2026-04-15T09:47:46Z</time></trkpt><trkpt lat="29.71375923512599" lon="-8.710473151050762"><ele>1818.5</ele><time>2026-04-15T09:47:47Z</time></trkpt><trkpt lat="29.7138219379015" lon="-8.71059324639968"><ele>1819.25</ele><time>2026-04-15T09:47:48Z</time></trkpt><trkpt lat="29.713882818579787" lon="-8.710709851407856"><ele>1820.0</ele><time>2026-04-15T09:47:49Z</time></trkpt><trkpt lat="29.71394262160984" lon="-8.71082439234053"><ele>1820.0</ele><time>2026-04-15T09:47:50Z</time></trkpt><trkpt lat="29.7140103767549" lon="-8.710942143503535"><ele>1820.0</ele><time>2026-04-15T09:47:51Z</time></trkpt><trkpt lat="29.714078053975285" lon="-8.711068470965056"><ele>1820.0</ele><time>2026-04-15T09:47:52Z</time></trkpt><trkpt lat="29.714215321880253" lon="-8.711139877849638"><ele>1820.0</ele><time>2026-04-15T09:47:53Z</time></trkpt><trkpt lat="29.71429377961243" lon="-8.711251569803377"><ele>1820.75</ele><time>2026-04-15T09:47:54Z</time></trkpt><trkpt lat="29.714371510037306" lon="-8.711362142863944"><ele>1821.5</ele><time>2026-04-15T09:47:55Z</time></trkpt><trkpt lat="29.714451869505638" lon="-8.711479209347331"><ele>1822.25</ele><time>2026-04-15T09:47:56Z</time></trkpt><trkpt lat="29.71452874192484" lon="-8.711593260914608"><ele>1823.0</ele><time>2026-04-15T09:47:57Z</time></trkpt><trkpt lat="29.71459438077306" lon="-8.711697382748225"><ele>1823.0</ele><time>2026-04-15T09:47:58Z</time></trkpt><trkpt lat="29.71465299837319" lon="-8.711793111606651"><ele>1823.0</ele><time>2026-04-15T09:47:59Z</time></trkpt><trkpt lat="29.71472082020936" lon="-8.71189344050898"><ele>1823.0</ele><time>2026-04-15T09:48:00Z</time></trkpt><trkpt lat="29.71479048749221" lon="-8.712000026223443"><ele>1823.0</ele><time>2026-04-15T09:48:01Z</time></trkpt><trkpt lat="29.714869823554363" lon="-8.712113461543321"><ele>1823.0</ele><time>2026-04-15T09:48:02Z</time></trkpt><trkpt lat="29.714950807464913" lon="-8.712240191395972"><ele>1823.0</ele><time>2026-04-15T09:48:03Z</time></trkpt><trkpt lat="29.71503994594696" lon="-8.712378578948785"><ele>1823.0</ele><time>2026-04-15T09:48:04Z</time></trkpt><trkpt lat="29.71513391466463" lon="-8.712520424090775"><ele>1823.0</ele><time>2026-04-15T09:48:05Z</time></trkpt><trkpt lat="29.715230610942477" lon="-8.712676344345747"><ele>1823.6666666666665</ele><time>2026-04-15T09:48:06Z</time></trkpt><trkpt lat="29.715328504171726" lon="-8.712842360258467"><ele>1824.3333333333335</ele><time>2026-04-15T09:48:07Z</time></trkpt><trkpt lat="29.71542889282729" lon="-8.713013818140256"><ele>1825.0</ele><time>2026-04-15T09:48:08Z</time></trkpt><trkpt lat="29.715528991483925" lon="-8.71318559771173"><ele>1825.0</ele><time>2026-04-15T09:48:09Z</time></trkpt><trkpt lat="29.715626958865208" lon="-8.713358233107357"><ele>1825.0</ele><time>2026-04-15T09:48:10Z</time></trkpt><trkpt lat="29.715717734465056" lon="-8.713525301621921"><ele>1825.0</ele><time>2026-04-15T09:48:11Z</time></trkpt><trkpt lat="29.715813366105742" lon="-8.713693443210385"><ele>1825.0</ele><time>2026-04-15T09:48:12Z</time></trkpt><trkpt lat="29.715913743823087" lon="-8.71386333557502"><ele>1825.0</ele><time>2026-04-15T09:48:13Z</time></trkpt><trkpt lat="29.7160223797033" lon="-8.714036018513433"><ele>1825.0</ele><time>2026-04-15T09:48:14Z</time></trkpt><trkpt lat="29.716132768676857" lon="-8.714206387755755"><ele>1825.0</ele><time>2026-04-15T09:48:15Z</time></trkpt><trkpt lat="29.716246159135217" lon="-8.714375174328985"><ele>1825.0</ele><time>2026-04-15T09:48:16Z</time></trkpt><trkpt lat="29.716362408000638" lon="-8.714528972341245"><ele>1825.0</ele><time>2026-04-15T09:48:17Z</time></trkpt><trkpt lat="29.71647670369275" lon="-8.714681196584236"><ele>1825.0</ele><time>2026-04-15T09:48:18Z</time></trkpt><trkpt lat="29.71659708227763" lon="-8.714832613862802"><ele>1825.0</ele><time>2026-04-15T09:48:19Z</time></trkpt><trkpt lat="29.716725162568007" lon="-8.71498962570391"><ele>1825.0</ele><time>2026-04-15T09:48:20Z</time></trkpt><trkpt lat="29.71685459558431" lon="-8.715145601427457"><ele>1824.6666666666667</ele><time>2026-04-15T09:48:21Z</time></trkpt><trkpt lat="29.716978673422915" lon="-8.715294953613833"><ele>1824.3333333333335</ele><time>2026-04-15T09:48:22Z</time></trkpt><trkpt lat="29.71710302939852" lon="-8.715440470140322"><ele>1824.0</ele><time>2026-04-15T09:48:23Z</time></trkpt><trkpt lat="29.7172293885167" lon="-8.715578363018654"><ele>1824.0</ele><time>2026-04-15T09:48:24Z</time></trkpt><trkpt lat="29.71735910056782" lon="-8.715706849291648"><ele>1824.0</ele><time>2026-04-15T09:48:25Z</time></trkpt><trkpt lat="29.717495026174802" lon="-8.715835643100611"><ele>1824.0</ele><time>2026-04-15T09:48:26Z</time></trkpt><trkpt lat="29.717637645889713" lon="-8.715963992149115"><ele>1823.3333333333335</ele><time>2026-04-15T09:48:27Z</time></trkpt><trkpt lat="29.717787583388745" lon="-8.716088770390563"><ele>1822.6666666666667</ele><time>2026-04-15T09:48:28Z</time></trkpt><trkpt lat="29.717943711402302" lon="-8.716215218217316"><ele>1822.0</ele><time>2026-04-15T09:48:29Z</time></trkpt><trkpt lat="29.718093495202243" lon="-8.71633812786373"><ele>1822.0</ele><time>2026-04-15T09:48:30Z</time></trkpt><trkpt lat="29.718237772733225" lon="-8.716447696724114"><ele>1822.0</ele><time>2026-04-15T09:48:31Z</time></trkpt><trkpt lat="29.71838030839366" lon="-8.716551122178116"><ele>1822.0</ele><time>2026-04-15T09:48:32Z</time></trkpt><trkpt lat="29.718514199857886" lon="-8.716649821171298"><ele>1821.0</ele><time>2026-04-15T09:48:33Z</time></trkpt><trkpt lat="29.71864726081037" lon="-8.716742979661792"><ele>1820.0</ele><time>2026-04-15T09:48:34Z</time></trkpt><trkpt lat="29.71877804291729" lon="-8.716823508020267"><ele>1819.0</ele><time>2026-04-15T09:48:35Z</time></trkpt><trkpt lat="29.718911643310527" lon="-8.716894903784276"><ele>1819.25</ele><time>2026-04-15T09:48:36Z</time></trkpt><trkpt lat="29.71903442020201" lon="-8.716968868401171"><ele>1819.5</ele><time>2026-04-15T09:48:37Z</time></trkpt><trkpt lat="29.719153352123335" lon="-8.717039826123155"><ele>1819.75</ele><time>2026-04-15T09:48:38Z</time></trkpt><trkpt lat="29.71926938323105" lon="-8.717106975929699"><ele>1820.0</ele><time>2026-04-15T09:48:39Z</time></trkpt><trkpt lat="29.719383323789753" lon="-8.717172179123994"><ele>1819.5</ele><time>2026-04-15T09:48:40Z</time></trkpt><trkpt lat="29.719496968719415" lon="-8.717241002155726"><ele>1819.0</ele><time>2026-04-15T09:48:41Z</time></trkpt><trkpt lat="29.719605271550567" lon="-8.717309231464066"><ele>1818.5</ele><time>2026-04-15T09:48:42Z</time></trkpt><trkpt lat="29.71971485661091" lon="-8.717367571279752"><ele>1818.0</ele><time>2026-04-15T09:48:43Z</time></trkpt><trkpt lat="29.719827545939964" lon="-8.71742103193919"><ele>1818.0</ele><time>2026-04-15T09:48:44Z</time></trkpt><trkpt lat="29.719941880554774" lon="-8.717472459881357"><ele>1818.0</ele><time>2026-04-15T09:48:45Z</time></trkpt><trkpt lat="29.72005663376514" lon="-8.717516812653283"><ele>1818.0</ele><time>2026-04-15T09:48:46Z</time></trkpt><trkpt lat="29.720174096169355" lon="-8.71755292788605"><ele>1818.0</ele><time>2026-04-15T09:48:47Z</time></trkpt><trkpt lat="29.720292388721813" lon="-8.717585943200898"><ele>1817.5</ele><time>2026-04-15T09:48:48Z</time></trkpt><trkpt lat="29.720413590007517" lon="-8.717620473319654"><ele>1817.0</ele><time>2026-04-15T09:48:49Z</time></trkpt><trkpt lat="29.720540004431733" lon="-8.717651103167283"><ele>1816.5</ele><time>2026-04-15T09:48:50Z</time></trkpt><trkpt lat="29.72067026577215" lon="-8.717672970388781"><ele>1816.0</ele><time>2026-04-15T09:48:51Z</time></trkpt><trkpt lat="29.720800929525737" lon="-8.717694044361643"><ele>1816.0</ele><time>2026-04-15T09:48:52Z</time></trkpt><trkpt lat="29.720926531872816" lon="-8.717723698623239"><ele>1816.0</ele><time>2026-04-15T09:48:53Z</time></trkpt><trkpt lat="29.721052622334984" lon="-8.717752844984723"><ele>1816.0</ele><time>2026-04-15T09:48:54Z</time></trkpt><trkpt lat="29.721172644609645" lon="-8.717774991544074"><ele>1816.0</ele><time>2026-04-15T09:48:55Z</time></trkpt><trkpt lat="29.72128870498771" lon="-8.717794273307627"><ele>1816.0</ele><time>2026-04-15T09:48:56Z</time></trkpt><trkpt lat="29.72140050593219" lon="-8.71781565513661"><ele>1816.0</ele><time>2026-04-15T09:48:57Z</time></trkpt><trkpt lat="29.721510150056503" lon="-8.717831445587876"><ele>1816.0</ele><time>2026-04-15T09:48:58Z</time></trkpt><trkpt lat="29.72161822665115" lon="-8.717847419433811"><ele>1816.0</ele><time>2026-04-15T09:48:59Z</time></trkpt><trkpt lat="29.721718681892998" lon="-8.717865998328257"><ele>1816.0</ele><time>2026-04-15T09:49:00Z</time></trkpt><trkpt lat="29.721818139612733" lon="-8.717888411465495"><ele>1815.5</ele><time>2026-04-15T09:49:01Z</time></trkpt><trkpt lat="29.721927037527937" lon="-8.717914715136489"><ele>1815.0</ele><time>2026-04-15T09:49:02Z</time></trkpt><trkpt lat="29.722043533941388" lon="-8.717941050822894"><ele>1814.5</ele><time>2026-04-15T09:49:03Z</time></trkpt><trkpt lat="29.72216245189603" lon="-8.717965777203604"><ele>1814.0</ele><time>2026-04-15T09:49:04Z</time></trkpt><trkpt lat="29.72228895616262" lon="-8.71798588592288"><ele>1814.0</ele><time>2026-04-15T09:49:05Z</time></trkpt><trkpt lat="29.722430833730332" lon="-8.718010184220722"><ele>1814.0</ele><time>2026-04-15T09:49:06Z</time></trkpt><trkpt lat="29.722582393159783" lon="-8.718049537976045"><ele>1814.0</ele><time>2026-04-15T09:49:07Z</time></trkpt><trkpt lat="29.722745142409536" lon="-8.718097538284365"><ele>1813.3333333333333</ele><time>2026-04-15T09:49:08Z</time></trkpt><trkpt lat="29.722914659313705" lon="-8.718149716404186"><ele>1812.6666666666665</ele><time>2026-04-15T09:49:09Z</time></trkpt><trkpt lat="29.723097577920853" lon="-8.718201226200195"><ele>1812.0</ele><time>2026-04-15T09:49:10Z</time></trkpt><trkpt lat="29.72327916640151" lon="-8.718264319122095"><ele>1812.0</ele><time>2026-04-15T09:49:11Z</time></trkpt><trkpt lat="29.723462494825853" lon="-8.718330257191194"><ele>1812.0</ele><time>2026-04-15T09:49:12Z</time></trkpt><trkpt lat="29.72365535277017" lon="-8.718411380063884"><ele>1812.0</ele><time>2026-04-15T09:49:13Z</time></trkpt><trkpt lat="29.723852974401364" lon="-8.718498938136062"><ele>1812.0</ele><time>2026-04-15T09:49:14Z</time></trkpt><trkpt lat="29.72404177756087" lon="-8.718589032423262"><ele>1812.0</ele><time>2026-04-15T09:49:15Z</time></trkpt><trkpt lat="29.724227219664137" lon="-8.718686035927858"><ele>1812.0</ele><time>2026-04-15T09:49:16Z</time></trkpt><trkpt lat="29.724416612709607" lon="-8.718790646118885"><ele>1810.6666666666665</ele><time>2026-04-15T09:49:17Z</time></trkpt><trkpt lat="29.724615336778566" lon="-8.718898130624485"><ele>1809.3333333333333</ele><time>2026-04-15T09:49:18Z</time></trkpt><trkpt lat="29.724819468933944" lon="-8.719012281403591"><ele>1808.0</ele><time>2026-04-15T09:49:19Z</time></trkpt><trkpt lat="29.725012865105928" lon="-8.71912017494662"><ele>1808.0</ele><time>2026-04-15T09:49:20Z</time></trkpt><trkpt lat="29.72519679016297" lon="-8.719216656161754"><ele>1808.0</ele><time>2026-04-15T09:49:21Z</time></trkpt><trkpt lat="29.725360970345264" lon="-8.719307678287114"><ele>1808.0</ele><time>2026-04-15T09:49:22Z</time></trkpt><trkpt lat="29.72551523544372" lon="-8.719390126443757"><ele>1808.3333333333333</ele><time>2026-04-15T09:49:23Z</time></trkpt><trkpt lat="29.72566285539974" lon="-8.719468887304997"><ele>1808.6666666666665</ele><time>2026-04-15T09:49:24Z</time></trkpt><trkpt lat="29.725799963144613" lon="-8.719540225124517"><ele>1809.0</ele><time>2026-04-15T09:49:25Z</time></trkpt><trkpt lat="29.725935929485598" lon="-8.7195959111595"><ele>1808.25</ele><time>2026-04-15T09:49:26Z</time></trkpt><trkpt lat="29.726064581447808" lon="-8.719649487216223"><ele>1807.5</ele><time>2026-04-15T09:49:27Z</time></trkpt><trkpt lat="29.726185952746476" lon="-8.719692119958413"><ele>1806.75</ele><time>2026-04-15T09:49:28Z</time></trkpt><trkpt lat="29.726302325146296" lon="-8.71972630045919"><ele>1806.0</ele><time>2026-04-15T09:49:29Z</time></trkpt><trkpt lat="29.726412972041924" lon="-8.719755897763946"><ele>1806.0</ele><time>2026-04-15T09:49:30Z</time></trkpt><trkpt lat="29.726518873596543" lon="-8.719778670492051"><ele>1806.0</ele><time>2026-04-15T09:49:31Z</time></trkpt><trkpt lat="29.726619451397912" lon="-8.71979928375926"><ele>1806.0</ele><time>2026-04-15T09:49:32Z</time></trkpt><trkpt lat="29.726715358090853" lon="-8.71982121764362"><ele>1806.0</ele><time>2026-04-15T09:49:33Z</time></trkpt><trkpt lat="29.72680673650522" lon="-8.719841047189407"><ele>1806.0</ele><time>2026-04-15T09:49:34Z</time></trkpt><trkpt lat="29.726893792304605" lon="-8.719858925533028"><ele>1806.6</ele><time>2026-04-15T09:49:35Z</time></trkpt><trkpt lat="29.726981931219125" lon="-8.719880524591037"><ele>1807.1999999999998</ele><time>2026-04-15T09:49:36Z</time></trkpt><trkpt lat="29.727071215020004" lon="-8.719907061035906"><ele>1807.8000000000002</ele><time>2026-04-15T09:49:37Z</time></trkpt><trkpt lat="29.727161804561316" lon="-8.719929177480173"><ele>1808.4</ele><time>2026-04-15T09:49:38Z</time></trkpt><trkpt lat="29.727252606246935" lon="-8.719944986989912"><ele>1809.0</ele><time>2026-04-15T09:49:39Z</time></trkpt><trkpt lat="29.72734638517358" lon="-8.719960851844808"><ele>1809.0</ele><time>2026-04-15T09:49:40Z</time></trkpt><trkpt lat="29.727440606259222" lon="-8.719981422825736"><ele>1809.0</ele><time>2026-04-15T09:49:41Z</time></trkpt><trkpt lat="29.727535909144198" lon="-8.720001153078938"><ele>1809.0</ele><time>2026-04-15T09:49:42Z</time></trkpt><trkpt lat="29.72763145842676" lon="-8.72001745289794"><ele>1809.0</ele><time>2026-04-15T09:49:43Z</time></trkpt><trkpt lat="29.727724122805782" lon="-8.72003288077428"><ele>1809.0</ele><time>2026-04-15T09:49:44Z</time></trkpt><trkpt lat="29.727820626368917" lon="-8.720045741027047"><ele>1809.5</ele><time>2026-04-15T09:49:45Z</time></trkpt><trkpt lat="29.72791407526348" lon="-8.720063004377943"><ele>1810.0</ele><time>2026-04-15T09:49:46Z</time></trkpt><trkpt lat="29.72800501904299" lon="-8.720079979452386"><ele>1810.5</ele><time>2026-04-15T09:49:47Z</time></trkpt><trkpt lat="29.728086655647072" lon="-8.720095735419294"><ele>1811.0</ele><time>2026-04-15T09:49:48Z</time></trkpt><trkpt lat="29.728167451907787" lon="-8.720109767581329"><ele>1811.5</ele><time>2026-04-15T09:49:49Z</time></trkpt><trkpt lat="29.728246564382157" lon="-8.720118963555358"><ele>1812.0</ele><time>2026-04-15T09:49:50Z</time></trkpt><trkpt lat="29.728327137465286" lon="-8.72012814055864"><ele>1812.0</ele><time>2026-04-15T09:49:51Z</time></trkpt><trkpt lat="29.72840286089072" lon="-8.720143156242301"><ele>1812.0</ele><time>2026-04-15T09:49:52Z</time></trkpt><trkpt lat="29.728482047069416" lon="-8.720154892782428"><ele>1812.0</ele><time>2026-04-15T09:49:53Z</time></trkpt><trkpt lat="29.728563443559985" lon="-8.720164068229272"><ele>1812.0</ele><time>2026-04-15T09:49:54Z</time></trkpt><trkpt lat="29.728645148591895" lon="-8.720169299962116"><ele>1812.0</ele><time>2026-04-15T09:49:55Z</time></trkpt><trkpt lat="29.728729484736075" lon="-8.720166926647432"><ele>1812.0</ele><time>2026-04-15T09:49:56Z</time></trkpt><trkpt lat="29.728819870773496" lon="-8.720162510183236"><ele>1811.8</ele><time>2026-04-15T09:49:57Z</time></trkpt><trkpt lat="29.728912897865293" lon="-8.720163106050338"><ele>1811.6</ele><time>2026-04-15T09:49:58Z</time></trkpt><trkpt lat="29.72901020043334" lon="-8.720160964716172"><ele>1811.3999999999999</ele><time>2026-04-15T09:49:59Z</time></trkpt><trkpt lat="29.72910521172119" lon="-8.720148971286644"><ele>1811.1999999999998</ele><time>2026-04-15T09:50:00Z</time></trkpt><trkpt lat="29.729202627451055" lon="-8.720126284173615"><ele>1811.0</ele><time>2026-04-15T09:50:01Z</time></trkpt><trkpt lat="29.72930156223327" lon="-8.720100115874368"><ele>1811.0</ele><time>2026-04-15T09:50:02Z</time></trkpt><trkpt lat="29.729401969594715" lon="-8.720072669319912"><ele>1811.0</ele><time>2026-04-15T09:50:03Z</time></trkpt><trkpt lat="29.72949967466882" lon="-8.720043048587835"><ele>1811.0</ele><time>2026-04-15T09:50:04Z</time></trkpt><trkpt lat="29.729592492295673" lon="-8.72001318158208"><ele>1811.0</ele><time>2026-04-15T09:50:05Z</time></trkpt><trkpt lat="29.72968266181226" lon="-8.719981796909337"><ele>1811.0</ele><time>2026-04-15T09:50:06Z</time></trkpt><trkpt lat="29.729776798645354" lon="-8.719949270420656"><ele>1811.0</ele><time>2026-04-15T09:50:07Z</time></trkpt><trkpt lat="29.72987652331688" lon="-8.719918099604786"><ele>1811.0</ele><time>2026-04-15T09:50:08Z</time></trkpt><trkpt lat="29.729983596222198" lon="-8.719888624617349"><ele>1811.0</ele><time>2026-04-15T09:50:09Z</time></trkpt><trkpt lat="29.73009189281002" lon="-8.71986211738263"><ele>1811.0</ele><time>2026-04-15T09:50:10Z</time></trkpt><trkpt lat="29.730191164798317" lon="-8.719838552741383"><ele>1811.0</ele><time>2026-04-15T09:50:11Z</time></trkpt><trkpt lat="29.730283571620618" lon="-8.719814824617162"><ele>1811.0</ele><time>2026-04-15T09:50:12Z</time></trkpt><trkpt lat="29.730375860100867" lon="-8.719788604323401"><ele>1811.0</ele><time>2026-04-15T09:50:13Z</time></trkpt><trkpt lat="29.730476375028083" lon="-8.719767361369069"><ele>1811.0</ele><time>2026-04-15T09:50:14Z</time></trkpt><trkpt lat="29.73058253416347" lon="-8.719746569220854"><ele>1811.0</ele><time>2026-04-15T09:50:15Z</time></trkpt><trkpt lat="29.730687228833755" lon="-8.719728828939779"><ele>1811.0</ele><time>2026-04-15T09:50:16Z</time></trkpt><trkpt lat="29.730795799757086" lon="-8.719715968999141"><ele>1811.0</ele><time>2026-04-15T09:50:17Z</time></trkpt><trkpt lat="29.730907773276467" lon="-8.719704634397978"><ele>1811.0</ele><time>2026-04-15T09:50:18Z</time></trkpt><trkpt lat="29.73101956306575" lon="-8.719692785231922"><ele>1811.0</ele><time>2026-04-15T09:50:19Z</time></trkpt><trkpt lat="29.731133096139178" lon="-8.719688289291877"><ele>1811.0</ele><time>2026-04-15T09:50:20Z</time></trkpt><trkpt lat="29.731250109360367" lon="-8.719691530518473"><ele>1810.8</ele><time>2026-04-15T09:50:21Z</time></trkpt><trkpt lat="29.731357928783975" lon="-8.719689733995235"><ele>1810.6</ele><time>2026-04-15T09:50:22Z</time></trkpt><trkpt lat="29.731462821135462" lon="-8.719684179392026"><ele>1810.4</ele><time>2026-04-15T09:50:23Z</time></trkpt><trkpt lat="29.731563506582297" lon="-8.719676902630498"><ele>1810.2</ele><time>2026-04-15T09:50:24Z</time></trkpt><trkpt lat="29.731662745623474" lon="-8.71966945769245"><ele>1810.0</ele><time>2026-04-15T09:50:25Z</time></trkpt><trkpt lat="29.731763322043363" lon="-8.719654698039008"><ele>1810.0</ele><time>2026-04-15T09:50:26Z</time></trkpt><trkpt lat="29.73186541069419" lon="-8.719641154214045"><ele>1810.0</ele><time>2026-04-15T09:50:27Z</time></trkpt><trkpt lat="29.731969091929088" lon="-8.71962556198919"><ele>1810.0</ele><time>2026-04-15T09:50:28Z</time></trkpt><trkpt lat="29.73207615208696" lon="-8.71959894357062"><ele>1810.0</ele><time>2026-04-15T09:50:29Z</time></trkpt><trkpt lat="29.732190496070316" lon="-8.719567235953628"><ele>1810.0</ele><time>2026-04-15T09:50:30Z</time></trkpt><trkpt lat="29.732298754744953" lon="-8.71950957098451"><ele>1810.75</ele><time>2026-04-15T09:50:31Z</time></trkpt><trkpt lat="29.732407514065265" lon="-8.719461190819159"><ele>1811.5</ele><time>2026-04-15T09:50:32Z</time></trkpt><trkpt lat="29.732522436425707" lon="-8.719421066226506"><ele>1812.25</ele><time>2026-04-15T09:50:33Z</time></trkpt><trkpt lat="29.732635792445837" lon="-8.719370365237806"><ele>1813.0</ele><time>2026-04-15T09:50:34Z</time></trkpt><trkpt lat="29.73275745223919" lon="-8.719315181440658"><ele>1813.75</ele><time>2026-04-15T09:50:35Z</time></trkpt><trkpt lat="29.732877146003524" lon="-8.719258927823132"><ele>1814.5</ele><time>2026-04-15T09:50:36Z</time></trkpt><trkpt lat="29.732993937027437" lon="-8.719205049758722"><ele>1815.25</ele><time>2026-04-15T09:50:37Z</time></trkpt><trkpt lat="29.733112848199276" lon="-8.719162339173527"><ele>1816.0</ele><time>2026-04-15T09:50:38Z</time></trkpt><trkpt lat="29.733237375411615" lon="-8.719127004412643"><ele>1816.0</ele><time>2026-04-15T09:50:39Z</time></trkpt><trkpt lat="29.73335907530403" lon="-8.719093623398201"><ele>1816.0</ele><time>2026-04-15T09:50:40Z</time></trkpt><trkpt lat="29.73348618869095" lon="-8.719062769352508"><ele>1816.0</ele><time>2026-04-15T09:50:41Z</time></trkpt><trkpt lat="29.733614105712725" lon="-8.719050801083716"><ele>1816.0</ele><time>2026-04-15T09:50:42Z</time></trkpt><trkpt lat="29.73374698423618" lon="-8.719044191290704"><ele>1816.75</ele><time>2026-04-15T09:50:43Z</time></trkpt><trkpt lat="29.733878532129932" lon="-8.719037580605978"><ele>1817.5</ele><time>2026-04-15T09:50:44Z</time></trkpt><trkpt lat="29.734005647504546" lon="-8.719029511626237"><ele>1818.25</ele><time>2026-04-15T09:50:45Z</time></trkpt><trkpt lat="29.734128386251385" lon="-8.71902214126698"><ele>1819.0</ele><time>2026-04-15T09:50:46Z</time></trkpt><trkpt lat="29.734241005389542" lon="-8.71901827279569"><ele>1819.0</ele><time>2026-04-15T09:50:47Z</time></trkpt><trkpt lat="29.73435249964723" lon="-8.719016753080593"><ele>1819.0</ele><time>2026-04-15T09:50:48Z</time></trkpt><trkpt lat="29.734466531401345" lon="-8.719014548939349"><ele>1819.0</ele><time>2026-04-15T09:50:49Z</time></trkpt><trkpt lat="29.73458424440555" lon="-8.719026871858222"><ele>1819.0</ele><time>2026-04-15T09:50:50Z</time></trkpt><trkpt lat="29.734699516983884" lon="-8.719009790475903"><ele>1819.2</ele><time>2026-04-15T09:50:51Z</time></trkpt><trkpt lat="29.734815627219238" lon="-8.7190166361286"><ele>1819.4</ele><time>2026-04-15T09:50:52Z</time></trkpt><trkpt lat="29.73492557221933" lon="-8.719021792606439"><ele>1819.6</ele><time>2026-04-15T09:50:53Z</time></trkpt><trkpt lat="29.735029240177465" lon="-8.71902191191722"><ele>1819.8</ele><time>2026-04-15T09:50:54Z</time></trkpt><trkpt lat="29.735136133669005" lon="-8.719010956353774"><ele>1820.0</ele><time>2026-04-15T09:50:55Z</time></trkpt><trkpt lat="29.735245466213538" lon="-8.719000662369444"><ele>1820.0</ele><time>2026-04-15T09:50:56Z</time></trkpt><trkpt lat="29.735355282282498" lon="-8.718979573021175"><ele>1820.0</ele><time>2026-04-15T09:50:57Z</time></trkpt><trkpt lat="29.73546302450603" lon="-8.718947980976766"><ele>1820.0</ele><time>2026-04-15T09:50:58Z</time></trkpt><trkpt lat="29.735566866747288" lon="-8.718917756678161"><ele>1820.0</ele><time>2026-04-15T09:50:59Z</time></trkpt><trkpt lat="29.735676167490155" lon="-8.71888048513589"><ele>1820.0</ele><time>2026-04-15T09:51:00Z</time></trkpt><trkpt lat="29.735785497039675" lon="-8.718833412269381"><ele>1820.0</ele><time>2026-04-15T09:51:01Z</time></trkpt><trkpt lat="29.73588576056274" lon="-8.718777651614172"><ele>1820.0</ele><time>2026-04-15T09:51:02Z</time></trkpt><trkpt lat="29.73599635239233" lon="-8.7187227112984"><ele>1820.0</ele><time>2026-04-15T09:51:03Z</time></trkpt><trkpt lat="29.7360935054516" lon="-8.718659236762567"><ele>1820.0</ele><time>2026-04-15T09:51:04Z</time></trkpt><trkpt lat="29.73618850299494" lon="-8.7185900653342"><ele>1820.0</ele><time>2026-04-15T09:51:05Z</time></trkpt><trkpt lat="29.736282706361465" lon="-8.718505546567139"><ele>1820.0</ele><time>2026-04-15T09:51:06Z</time></trkpt><trkpt lat="29.73637849356843" lon="-8.718418334414428"><ele>1820.0</ele><time>2026-04-15T09:51:07Z</time></trkpt><trkpt lat="29.736479407651327" lon="-8.718325261729753"><ele>1820.0</ele><time>2026-04-15T09:51:08Z</time></trkpt><trkpt lat="29.73658021834654" lon="-8.718226750189274"><ele>1820.0</ele><time>2026-04-15T09:51:09Z</time></trkpt><trkpt lat="29.736680868247433" lon="-8.718123744587988"><ele>1820.0</ele><time>2026-04-15T09:51:10Z</time></trkpt><trkpt lat="29.736781343502102" lon="-8.718022546154579"><ele>1820.0</ele><time>2026-04-15T09:51:11Z</time></trkpt><trkpt lat="29.736874650031307" lon="-8.717919095680285"><ele>1820.0</ele><time>2026-04-15T09:51:12Z</time></trkpt><trkpt lat="29.736962838573245" lon="-8.717819517243312"><ele>1820.8</ele><time>2026-04-15T09:51:13Z</time></trkpt><trkpt lat="29.737056729924273" lon="-8.717728404265012"><ele>1821.6</ele><time>2026-04-15T09:51:14Z</time></trkpt><trkpt lat="29.73713821434748" lon="-8.71763724351028"><ele>1822.4</ele><time>2026-04-15T09:51:15Z</time></trkpt><trkpt lat="29.737210499436426" lon="-8.717554881001332"><ele>1823.2</ele><time>2026-04-15T09:51:16Z</time></trkpt><trkpt lat="29.737274603182804" lon="-8.717484407077519"><ele>1824.0</ele><time>2026-04-15T09:51:17Z</time></trkpt><trkpt lat="29.7373411430676" lon="-8.717416815980286"><ele>1824.0</ele><time>2026-04-15T09:51:18Z</time></trkpt><trkpt lat="29.73741151240232" lon="-8.71735252865457"><ele>1824.0</ele><time>2026-04-15T09:51:19Z</time></trkpt><trkpt lat="29.73746442605457" lon="-8.717281010138532"><ele>1824.0</ele><time>2026-04-15T09:51:20Z</time></trkpt><trkpt lat="29.737523821132424" lon="-8.717239756750356"><ele>1824.0</ele><time>2026-04-15T09:51:21Z</time></trkpt><trkpt lat="29.737594485218054" lon="-8.717144179744128"><ele>1824.0</ele><time>2026-04-15T09:51:23Z</time></trkpt><trkpt lat="29.73765916687907" lon="-8.717075980014677"><ele>1824.0</ele><time>2026-04-15T09:51:25Z</time></trkpt><trkpt lat="29.73769936844487" lon="-8.717005335112844"><ele>1824.0</ele><time>2026-04-15T09:51:28Z</time></trkpt><trkpt lat="29.73763153402865" lon="-8.716971638018999"><ele>1824.0</ele><time>2026-04-15T09:53:30Z</time></trkpt><trkpt lat="29.73753034562047" lon="-8.716886175178267"><ele>1824.0</ele><time>2026-04-15T09:53:32Z</time></trkpt><trkpt lat="29.737472766160664" lon="-8.716837878525375"><ele>1824.0</ele><time>2026-04-15T09:53:33Z</time></trkpt><trkpt lat="29.73740486437398" lon="-8.716780994067477"><ele>1824.0</ele><time>2026-04-15T09:53:34Z</time></trkpt><trkpt lat="29.737335444519555" lon="-8.716722837856093"><ele>1824.0</ele><time>2026-04-15T09:53:35Z</time></trkpt><trkpt lat="29.737260839532265" lon="-8.71666033781548"><ele>1824.8000000000002</ele><time>2026-04-15T09:53:36Z</time></trkpt><trkpt lat="29.737178429182144" lon="-8.716592345067262"><ele>1825.6000000000001</ele><time>2026-04-15T09:53:37Z</time></trkpt><trkpt lat="29.737087483293735" lon="-8.716518109010135"><ele>1826.4</ele><time>2026-04-15T09:53:38Z</time></trkpt><trkpt lat="29.73700048513105" lon="-8.716447095341898"><ele>1827.2</ele><time>2026-04-15T09:53:39Z</time></trkpt><trkpt lat="29.73691843241256" lon="-8.716380118474834"><ele>1828.0</ele><time>2026-04-15T09:53:40Z</time></trkpt><trkpt lat="29.736831990721505" lon="-8.716309559037889"><ele>1828.0</ele><time>2026-04-15T09:53:41Z</time></trkpt><trkpt lat="29.736745903671586" lon="-8.716239289081459"><ele>1828.0000000000002</ele><time>2026-04-15T09:53:42Z</time></trkpt><trkpt lat="29.7366578150081" lon="-8.71616734969602"><ele>1828.0000000000002</ele><time>2026-04-15T09:53:43Z</time></trkpt><trkpt lat="29.736567800512436" lon="-8.716093821907645"><ele>1828.0</ele><time>2026-04-15T09:53:44Z</time></trkpt><trkpt lat="29.736477224598318" lon="-8.716019835527364"><ele>1828.0</ele><time>2026-04-15T09:53:45Z</time></trkpt><trkpt lat="29.736386498764467" lon="-8.715945271672233"><ele>1829.8000000000002</ele><time>2026-04-15T09:53:46Z</time></trkpt><trkpt lat="29.73629836337053" lon="-8.715872824627667"><ele>1831.6000000000001</ele><time>2026-04-15T09:53:47Z</time></trkpt><trkpt lat="29.736214475061498" lon="-8.715802177923695"><ele>1833.3999999999999</ele><time>2026-04-15T09:53:48Z</time></trkpt><trkpt lat="29.736131862455316" lon="-8.715731629000532"><ele>1835.1999999999998</ele><time>2026-04-15T09:53:49Z</time></trkpt><trkpt lat="29.736049892954778" lon="-8.715660757053243"><ele>1837.0</ele><time>2026-04-15T09:53:50Z</time></trkpt><trkpt lat="29.7359671058617" lon="-8.715589128536516"><ele>1837.1999999999998</ele><time>2026-04-15T09:53:51Z</time></trkpt><trkpt lat="29.735886427680228" lon="-8.715519324693611"><ele>1837.3999999999999</ele><time>2026-04-15T09:53:52Z</time></trkpt><trkpt lat="29.735813214081958" lon="-8.71543326436794"><ele>1837.6000000000001</ele><time>2026-04-15T09:53:53Z</time></trkpt><trkpt lat="29.73574309199006" lon="-8.715355604726932"><ele>1837.8000000000002</ele><time>2026-04-15T09:53:54Z</time></trkpt><trkpt lat="29.73568156008942" lon="-8.715250153678205"><ele>1838.0</ele><time>2026-04-15T09:53:55Z</time></trkpt><trkpt lat="29.735624367789253" lon="-8.715143249994616"><ele>1840.75</ele><time>2026-04-15T09:53:56Z</time></trkpt><trkpt lat="29.73557167799189" lon="-8.715032257296226"><ele>1843.5</ele><time>2026-04-15T09:53:57Z</time></trkpt><trkpt lat="29.735516161423988" lon="-8.714915835827888"><ele>1846.25</ele><time>2026-04-15T09:53:58Z</time></trkpt><trkpt lat="29.735460741910714" lon="-8.714798885681315"><ele>1849.0</ele><time>2026-04-15T09:53:59Z</time></trkpt><trkpt lat="29.7354092661055" lon="-8.714678433706794"><ele>1849.0</ele><time>2026-04-15T09:54:00Z</time></trkpt><trkpt lat="29.735357263445497" lon="-8.714556748907416"><ele>1849.0</ele><time>2026-04-15T09:54:01Z</time></trkpt><trkpt lat="29.73530841568866" lon="-8.714442446522096"><ele>1849.0</ele><time>2026-04-15T09:54:02Z</time></trkpt><trkpt lat="29.735262229723496" lon="-8.714365460873719"><ele>1849.0</ele><time>2026-04-15T09:54:03Z</time></trkpt><trkpt lat="29.73519822641332" lon="-8.714271964697184"><ele>1849.0</ele><time>2026-04-15T09:54:04Z</time></trkpt><trkpt lat="29.735121152636058" lon="-8.714176491371738"><ele>1850.0</ele><time>2026-04-15T09:54:05Z</time></trkpt><trkpt lat="29.735039620121448" lon="-8.714084705512098"><ele>1851.0</ele><time>2026-04-15T09:54:06Z</time></trkpt><trkpt lat="29.734958279700358" lon="-8.714003437192156"><ele>1852.0</ele><time>2026-04-15T09:54:07Z</time></trkpt><trkpt lat="29.73488064770119" lon="-8.713924036401231"><ele>1853.0</ele><time>2026-04-15T09:54:08Z</time></trkpt><trkpt lat="29.734805146246817" lon="-8.713833780667207"><ele>1854.0</ele><time>2026-04-15T09:54:09Z</time></trkpt><trkpt lat="29.734739736546302" lon="-8.713711341160998"><ele>1854.0</ele><time>2026-04-15T09:54:10Z</time></trkpt><trkpt lat="29.73467843225276" lon="-8.713590601129706"><ele>1854.0</ele><time>2026-04-15T09:54:11Z</time></trkpt><trkpt lat="29.734620266284267" lon="-8.713456825874776"><ele>1854.0</ele><time>2026-04-15T09:54:12Z</time></trkpt><trkpt lat="29.734567007728906" lon="-8.71331653661285"><ele>1854.0</ele><time>2026-04-15T09:54:13Z</time></trkpt><trkpt lat="29.734520768293915" lon="-8.713179469721931"><ele>1854.25</ele><time>2026-04-15T09:54:14Z</time></trkpt><trkpt lat="29.734476818423754" lon="-8.713044415325266"><ele>1854.5</ele><time>2026-04-15T09:54:15Z</time></trkpt><trkpt lat="29.734432521737975" lon="-8.712904241455275"><ele>1854.75</ele><time>2026-04-15T09:54:16Z</time></trkpt><trkpt lat="29.734388067258497" lon="-8.712763568258001"><ele>1855.0</ele><time>2026-04-15T09:54:17Z</time></trkpt><trkpt lat="29.734344096640626" lon="-8.71262101005245"><ele>1853.5</ele><time>2026-04-15T09:54:18Z</time></trkpt><trkpt lat="29.73430128890019" lon="-8.712482268522734"><ele>1852.0</ele><time>2026-04-15T09:54:19Z</time></trkpt><trkpt lat="29.734256119469674" lon="-8.712335872673666"><ele>1850.5</ele><time>2026-04-15T09:54:20Z</time></trkpt><trkpt lat="29.734210755268187" lon="-8.712182409763635"><ele>1849.0</ele><time>2026-04-15T09:54:21Z</time></trkpt><trkpt lat="29.734167724323513" lon="-8.712028500287541"><ele>1849.25</ele><time>2026-04-15T09:54:22Z</time></trkpt><trkpt lat="29.734123495759892" lon="-8.711870696765088"><ele>1849.5</ele><time>2026-04-15T09:54:23Z</time></trkpt><trkpt lat="29.73407959640133" lon="-8.711714067812265"><ele>1849.75</ele><time>2026-04-15T09:54:24Z</time></trkpt><trkpt lat="29.734035065737284" lon="-8.711556574874592"><ele>1850.0</ele><time>2026-04-15T09:54:25Z</time></trkpt><trkpt lat="29.733990156671908" lon="-8.71139852673965"><ele>1850.0</ele><time>2026-04-15T09:54:26Z</time></trkpt><trkpt lat="29.733943795999814" lon="-8.71123536997244"><ele>1850.0</ele><time>2026-04-15T09:54:27Z</time></trkpt><trkpt lat="29.73389687016639" lon="-8.711070224232197"><ele>1850.0</ele><time>2026-04-15T09:54:28Z</time></trkpt><trkpt lat="29.73384956032114" lon="-8.710903727047885"><ele>1849.75</ele><time>2026-04-15T09:54:29Z</time></trkpt><trkpt lat="29.73380273972369" lon="-8.710738951669585"><ele>1849.5</ele><time>2026-04-15T09:54:30Z</time></trkpt><trkpt lat="29.73375696094944" lon="-8.71057784276909"><ele>1849.25</ele><time>2026-04-15T09:54:31Z</time></trkpt><trkpt lat="29.733714227471587" lon="-8.710427013220837"><ele>1849.0</ele><time>2026-04-15T09:54:32Z</time></trkpt><trkpt lat="29.733672084761878" lon="-8.710277288605404"><ele>1848.75</ele><time>2026-04-15T09:54:33Z</time></trkpt><trkpt lat="29.73363461821686" lon="-8.71013158875102"><ele>1848.5</ele><time>2026-04-15T09:54:34Z</time></trkpt><trkpt lat="29.73360587424544" lon="-8.709984959247715"><ele>1848.25</ele><time>2026-04-15T09:54:35Z</time></trkpt><trkpt lat="29.73358047855278" lon="-8.709840886100775"><ele>1848.0</ele><time>2026-04-15T09:54:36Z</time></trkpt><trkpt lat="29.733574799152617" lon="-8.709687623183724"><ele>1848.0</ele><time>2026-04-15T09:54:37Z</time></trkpt><trkpt lat="29.733582574156483" lon="-8.70953500811203"><ele>1848.0</ele><time>2026-04-15T09:54:38Z</time></trkpt><trkpt lat="29.733613767058987" lon="-8.709381486355488"><ele>1848.0</ele><time>2026-04-15T09:54:39Z</time></trkpt><trkpt lat="29.733672111733124" lon="-8.709232191962169"><ele>1848.0</ele><time>2026-04-15T09:54:40Z</time></trkpt><trkpt lat="29.733755913489244" lon="-8.709094959290512"><ele>1847.25</ele><time>2026-04-15T09:54:41Z</time></trkpt><trkpt lat="29.73383231936566" lon="-8.708955212255647"><ele>1846.5</ele><time>2026-04-15T09:54:42Z</time></trkpt><trkpt lat="29.733925844234825" lon="-8.70882311465655"><ele>1845.75</ele><time>2026-04-15T09:54:43Z</time></trkpt><trkpt lat="29.734024170397223" lon="-8.708688051048181"><ele>1845.0</ele><time>2026-04-15T09:54:44Z</time></trkpt><trkpt lat="29.734135475898494" lon="-8.708560763350958"><ele>1845.0</ele><time>2026-04-15T09:54:45Z</time></trkpt><trkpt lat="29.734251321971097" lon="-8.708433858738456"><ele>1845.0</ele><time>2026-04-15T09:54:46Z</time></trkpt><trkpt lat="29.734368747980977" lon="-8.708307101105477"><ele>1845.0</ele><time>2026-04-15T09:54:47Z</time></trkpt><trkpt lat="29.73448670035683" lon="-8.708181342617978"><ele>1845.0</ele><time>2026-04-15T09:54:48Z</time></trkpt><trkpt lat="29.73460780959604" lon="-8.70805647147942"><ele>1845.0</ele><time>2026-04-15T09:54:49Z</time></trkpt><trkpt lat="29.734722271286387" lon="-8.707935862333468"><ele>1845.0</ele><time>2026-04-15T09:54:50Z</time></trkpt><trkpt lat="29.734836184285044" lon="-8.70781777280989"><ele>1844.75</ele><time>2026-04-15T09:54:51Z</time></trkpt><trkpt lat="29.734948666338024" lon="-8.707704351332145"><ele>1844.5</ele><time>2026-04-15T09:54:52Z</time></trkpt><trkpt lat="29.735056624299908" lon="-8.707589433578999"><ele>1844.25</ele><time>2026-04-15T09:54:53Z</time></trkpt><trkpt lat="29.735158541537253" lon="-8.707477938401944"><ele>1844.0</ele><time>2026-04-15T09:54:54Z</time></trkpt><trkpt lat="29.73526369523289" lon="-8.707365531271941"><ele>1844.5</ele><time>2026-04-15T09:54:55Z</time></trkpt><trkpt lat="29.735370583869283" lon="-8.707253495021682"><ele>1845.0</ele><time>2026-04-15T09:54:56Z</time></trkpt><trkpt lat="29.73547895947119" lon="-8.707142940489115"><ele>1845.5</ele><time>2026-04-15T09:54:57Z</time></trkpt><trkpt lat="29.735591461149863" lon="-8.707033076299576"><ele>1846.0</ele><time>2026-04-15T09:54:58Z</time></trkpt><trkpt lat="29.735708955175483" lon="-8.706920882344305"><ele>1846.3333333333335</ele><time>2026-04-15T09:54:59Z</time></trkpt><trkpt lat="29.735826739454165" lon="-8.70680945325285"><ele>1846.6666666666665</ele><time>2026-04-15T09:55:00Z</time></trkpt><trkpt lat="29.73594124492488" lon="-8.706697994578974"><ele>1847.0</ele><time>2026-04-15T09:55:01Z</time></trkpt><trkpt lat="29.736056223767445" lon="-8.706585030322438"><ele>1847.0</ele><time>2026-04-15T09:55:02Z</time></trkpt><trkpt lat="29.736170760126086" lon="-8.706477773301543"><ele>1847.0</ele><time>2026-04-15T09:55:03Z</time></trkpt><trkpt lat="29.73628491206319" lon="-8.70636696275202"><ele>1847.0</ele><time>2026-04-15T09:55:04Z</time></trkpt><trkpt lat="29.736401869701286" lon="-8.70625740180827"><ele>1847.0</ele><time>2026-04-15T09:55:05Z</time></trkpt><trkpt lat="29.73652074155392" lon="-8.706150737689999"><ele>1847.3333333333333</ele><time>2026-04-15T09:55:06Z</time></trkpt><trkpt lat="29.736643087657114" lon="-8.706048513077027"><ele>1847.6666666666665</ele><time>2026-04-15T09:55:07Z</time></trkpt><trkpt lat="29.736763138275887" lon="-8.705943982772956"><ele>1848.0</ele><time>2026-04-15T09:55:08Z</time></trkpt><trkpt lat="29.736880711072047" lon="-8.7058396400509"><ele>1848.3333333333335</ele><time>2026-04-15T09:55:09Z</time></trkpt><trkpt lat="29.73699893734932" lon="-8.705732293408296"><ele>1848.6666666666667</ele><time>2026-04-15T09:55:10Z</time></trkpt><trkpt lat="29.737121683908583" lon="-8.705627509561586"><ele>1849.0</ele><time>2026-04-15T09:55:11Z</time></trkpt><trkpt lat="29.737246107221214" lon="-8.705522090146307"><ele>1849.0</ele><time>2026-04-15T09:55:12Z</time></trkpt><trkpt lat="29.737367745335035" lon="-8.705415729325544"><ele>1849.0</ele><time>2026-04-15T09:55:13Z</time></trkpt><trkpt lat="29.737493140277593" lon="-8.705309313707623"><ele>1849.0</ele><time>2026-04-15T09:55:14Z</time></trkpt><trkpt lat="29.737622672356334" lon="-8.705202362852297"><ele>1849.6666666666667</ele><time>2026-04-15T09:55:15Z</time></trkpt><trkpt lat="29.737752329778928" lon="-8.70509305609029"><ele>1850.3333333333335</ele><time>2026-04-15T09:55:16Z</time></trkpt><trkpt lat="29.737881958559292" lon="-8.70498251940765"><ele>1851.0</ele><time>2026-04-15T09:55:17Z</time></trkpt><trkpt lat="29.73800904245557" lon="-8.704874224349188"><ele>1851.0</ele><time>2026-04-15T09:55:18Z</time></trkpt><trkpt lat="29.73813232549394" lon="-8.70476921216242"><ele>1851.0</ele><time>2026-04-15T09:55:19Z</time></trkpt><trkpt lat="29.738256084138197" lon="-8.70466986545611"><ele>1851.0</ele><time>2026-04-15T09:55:20Z</time></trkpt><trkpt lat="29.7383815223034" lon="-8.704574186736481"><ele>1851.0</ele><time>2026-04-15T09:55:21Z</time></trkpt><trkpt lat="29.73849935922103" lon="-8.704474750164128"><ele>1851.0</ele><time>2026-04-15T09:55:22Z</time></trkpt><trkpt lat="29.73861278981597" lon="-8.704378332905234"><ele>1851.0</ele><time>2026-04-15T09:55:23Z</time></trkpt><trkpt lat="29.73871597821322" lon="-8.704284596081019"><ele>1851.0</ele><time>2026-04-15T09:55:24Z</time></trkpt><trkpt lat="29.738818281206996" lon="-8.704177401089261"><ele>1850.0</ele><time>2026-04-15T09:55:25Z</time></trkpt><trkpt lat="29.738906022117863" lon="-8.704067541920772"><ele>1849.0</ele><time>2026-04-15T09:55:26Z</time></trkpt><trkpt lat="29.73898446882599" lon="-8.703951076773494"><ele>1848.0</ele><time>2026-04-15T09:55:27Z</time></trkpt><trkpt lat="29.739052353767917" lon="-8.703828547570547"><ele>1847.0</ele><time>2026-04-15T09:55:28Z</time></trkpt><trkpt lat="29.739114867620696" lon="-8.703693752236857"><ele>1846.75</ele><time>2026-04-15T09:55:29Z</time></trkpt><trkpt lat="29.739153503606623" lon="-8.703544766745434"><ele>1846.5</ele><time>2026-04-15T09:55:30Z</time></trkpt><trkpt lat="29.739214080154976" lon="-8.703404855788076"><ele>1846.25</ele><time>2026-04-15T09:55:31Z</time></trkpt><trkpt lat="29.739250337311844" lon="-8.703258763928133"><ele>1846.0</ele><time>2026-04-15T09:55:32Z</time></trkpt><trkpt lat="29.739262358008478" lon="-8.703106796092731"><ele>1846.0</ele><time>2026-04-15T09:55:33Z</time></trkpt><trkpt lat="29.739277456263" lon="-8.70296110126982"><ele>1846.0</ele><time>2026-04-15T09:55:34Z</time></trkpt><trkpt lat="29.739285401463768" lon="-8.702806930588135"><ele>1846.0</ele><time>2026-04-15T09:55:35Z</time></trkpt><trkpt lat="29.739283915315585" lon="-8.70264407817769"><ele>1846.0</ele><time>2026-04-15T09:55:36Z</time></trkpt><trkpt lat="29.739274260606983" lon="-8.702480893073695"><ele>1844.0</ele><time>2026-04-15T09:55:37Z</time></trkpt><trkpt lat="29.739261055037684" lon="-8.70230760716305"><ele>1842.0</ele><time>2026-04-15T09:55:38Z</time></trkpt><trkpt lat="29.73924786798783" lon="-8.702134121107902"><ele>1840.0</ele><time>2026-04-15T09:55:39Z</time></trkpt><trkpt lat="29.73922942482979" lon="-8.701960953549499"><ele>1838.0</ele><time>2026-04-15T09:55:40Z</time></trkpt><trkpt lat="29.739212558638464" lon="-8.701789161867762"><ele>1836.0</ele><time>2026-04-15T09:55:41Z</time></trkpt><trkpt lat="29.739199448195905" lon="-8.701620980225517"><ele>1834.0</ele><time>2026-04-15T09:55:42Z</time></trkpt><trkpt lat="29.739186100138657" lon="-8.701451966292883"><ele>1832.0</ele><time>2026-04-15T09:55:43Z</time></trkpt><trkpt lat="29.73917196229995" lon="-8.701284907874497"><ele>1832.0</ele><time>2026-04-15T09:55:44Z</time></trkpt><trkpt lat="29.73915843827677" lon="-8.7011127378407"><ele>1832.0</ele><time>2026-04-15T09:55:45Z</time></trkpt><trkpt lat="29.739143670925582" lon="-8.700939536374"><ele>1832.0</ele><time>2026-04-15T09:55:46Z</time></trkpt><trkpt lat="29.7391273513185" lon="-8.700763849755516"><ele>1830.0</ele><time>2026-04-15T09:55:47Z</time></trkpt><trkpt lat="29.739111119090197" lon="-8.700589103800903"><ele>1828.0</ele><time>2026-04-15T09:55:48Z</time></trkpt><trkpt lat="29.739094580321762" lon="-8.700411057838735"><ele>1826.0</ele><time>2026-04-15T09:55:49Z</time></trkpt><trkpt lat="29.739078511528618" lon="-8.700239663522025"><ele>1824.75</ele><time>2026-04-15T09:55:50Z</time></trkpt><trkpt lat="29.73906545217236" lon="-8.70007296465446"><ele>1823.5</ele><time>2026-04-15T09:55:51Z</time></trkpt><trkpt lat="29.739069209669236" lon="-8.699906028187948"><ele>1822.25</ele><time>2026-04-15T09:55:52Z</time></trkpt><trkpt lat="29.739063660941937" lon="-8.699749557520157"><ele>1821.0</ele><time>2026-04-15T09:55:53Z</time></trkpt><trkpt lat="29.73907267293442" lon="-8.699600011306515"><ele>1821.0</ele><time>2026-04-15T09:55:54Z</time></trkpt><trkpt lat="29.73909284369359" lon="-8.69947080555849"><ele>1821.0</ele><time>2026-04-15T09:55:55Z</time></trkpt><trkpt lat="29.7391036086224" lon="-8.699355350087128"><ele>1821.0</ele><time>2026-04-15T09:55:56Z</time></trkpt><trkpt lat="29.739191039348306" lon="-8.69926758141847"><ele>1821.0</ele><time>2026-04-15T09:55:57Z</time></trkpt><trkpt lat="29.739270419403447" lon="-8.699177838648671"><ele>1821.0</ele><time>2026-04-15T09:55:58Z</time></trkpt><trkpt lat="29.739353862396232" lon="-8.699075847384382"><ele>1822.75</ele><time>2026-04-15T09:55:59Z</time></trkpt><trkpt lat="29.73943730707262" lon="-8.698965650806409"><ele>1824.5</ele><time>2026-04-15T09:56:00Z</time></trkpt><trkpt lat="29.73952387607364" lon="-8.698852916559266"><ele>1826.25</ele><time>2026-04-15T09:56:01Z</time></trkpt><trkpt lat="29.739616763384042" lon="-8.698733917377966"><ele>1828.0</ele><time>2026-04-15T09:56:02Z</time></trkpt><trkpt lat="29.739712994655243" lon="-8.698607978771841"><ele>1826.6666666666667</ele><time>2026-04-15T09:56:03Z</time></trkpt><trkpt lat="29.739816585387494" lon="-8.698476774925474"><ele>1825.3333333333335</ele><time>2026-04-15T09:56:04Z</time></trkpt><trkpt lat="29.73992335444375" lon="-8.698342914702847"><ele>1824.0</ele><time>2026-04-15T09:56:05Z</time></trkpt><trkpt lat="29.74002822142596" lon="-8.69821437727038"><ele>1824.0</ele><time>2026-04-15T09:56:06Z</time></trkpt><trkpt lat="29.74013481803737" lon="-8.698080743069587"><ele>1824.0</ele><time>2026-04-15T09:56:07Z</time></trkpt><trkpt lat="29.740245038198083" lon="-8.697941839557492"><ele>1824.0</ele><time>2026-04-15T09:56:08Z</time></trkpt><trkpt lat="29.740358076386705" lon="-8.697799517616096"><ele>1826.3333333333335</ele><time>2026-04-15T09:56:09Z</time></trkpt><trkpt lat="29.740471822322075" lon="-8.697659319207615"><ele>1828.6666666666667</ele><time>2026-04-15T09:56:10Z</time></trkpt><trkpt lat="29.74057295496626" lon="-8.697504777161177"><ele>1831.0</ele><time>2026-04-15T09:56:11Z</time></trkpt><trkpt lat="29.74067685352768" lon="-8.697373146111406"><ele>1831.0</ele><time>2026-04-15T09:56:12Z</time></trkpt><trkpt lat="29.740771819081438" lon="-8.697252496295512"><ele>1831.0</ele><time>2026-04-15T09:56:13Z</time></trkpt><trkpt lat="29.740861530290434" lon="-8.697138521475301"><ele>1831.0</ele><time>2026-04-15T09:56:14Z</time></trkpt><trkpt lat="29.740952800717622" lon="-8.697022566026012"><ele>1831.0</ele><time>2026-04-15T09:56:15Z</time></trkpt><trkpt lat="29.741048771437235" lon="-8.696900610059005"><ele>1830.6666666666667</ele><time>2026-04-15T09:56:16Z</time></trkpt><trkpt lat="29.741161556736127" lon="-8.69678353293612"><ele>1830.3333333333335</ele><time>2026-04-15T09:56:17Z</time></trkpt><trkpt lat="29.741252093157172" lon="-8.696641666612452"><ele>1830.0</ele><time>2026-04-15T09:56:18Z</time></trkpt><trkpt lat="29.741360604574282" lon="-8.696508731903752"><ele>1830.0</ele><time>2026-04-15T09:56:19Z</time></trkpt><trkpt lat="29.7414863677619" lon="-8.69639231791555"><ele>1830.0</ele><time>2026-04-15T09:56:20Z</time></trkpt><trkpt lat="29.741630250438575" lon="-8.69630961247906"><ele>1830.0</ele><time>2026-04-15T09:56:21Z</time></trkpt><trkpt lat="29.741770230600693" lon="-8.696226903425273"><ele>1831.0</ele><time>2026-04-15T09:56:22Z</time></trkpt><trkpt lat="29.741918912067216" lon="-8.696158259162072"><ele>1832.0</ele><time>2026-04-15T09:56:23Z</time></trkpt><trkpt lat="29.74206110919639" lon="-8.696090741503106"><ele>1833.0</ele><time>2026-04-15T09:56:24Z</time></trkpt><trkpt lat="29.742177081042463" lon="-8.695985028398795"><ele>1831.0</ele><time>2026-04-15T09:56:25Z</time></trkpt><trkpt lat="29.74228496998894" lon="-8.695877914714472"><ele>1829.0</ele><time>2026-04-15T09:56:26Z</time></trkpt><trkpt lat="29.742378962492804" lon="-8.695751590498425"><ele>1827.0</ele><time>2026-04-15T09:56:27Z</time></trkpt><trkpt lat="29.742451414990445" lon="-8.695609668969366"><ele>1825.0</ele><time>2026-04-15T09:56:28Z</time></trkpt><trkpt lat="29.74251775098606" lon="-8.695454075876105"><ele>1825.0</ele><time>2026-04-15T09:56:29Z</time></trkpt><trkpt lat="29.742586446639308" lon="-8.695297966066274"><ele>1825.0</ele><time>2026-04-15T09:56:30Z</time></trkpt><trkpt lat="29.74265989240405" lon="-8.695137731795375"><ele>1825.0</ele><time>2026-04-15T09:56:31Z</time></trkpt><trkpt lat="29.74274233772784" lon="-8.694989476526827"><ele>1826.0</ele><time>2026-04-15T09:56:32Z</time></trkpt><trkpt lat="29.742828199633976" lon="-8.694844436144628"><ele>1827.0</ele><time>2026-04-15T09:56:33Z</time></trkpt><trkpt lat="29.74293371119337" lon="-8.694715969580068"><ele>1828.0</ele><time>2026-04-15T09:56:34Z</time></trkpt><trkpt lat="29.74302605309973" lon="-8.694576804542704"><ele>1828.0</ele><time>2026-04-15T09:56:35Z</time></trkpt><trkpt lat="29.743115657587776" lon="-8.694441094075918"><ele>1828.0</ele><time>2026-04-15T09:56:36Z</time></trkpt><trkpt lat="29.743225592649317" lon="-8.694325016368426"><ele>1828.0</ele><time>2026-04-15T09:56:37Z</time></trkpt><trkpt lat="29.74332134390155" lon="-8.694205791464743"><ele>1828.0</ele><time>2026-04-15T09:56:38Z</time></trkpt><trkpt lat="29.74341165396665" lon="-8.694085736742586"><ele>1828.5</ele><time>2026-04-15T09:56:39Z</time></trkpt><trkpt lat="29.743493180790644" lon="-8.69396703152867"><ele>1829.0</ele><time>2026-04-15T09:56:40Z</time></trkpt><trkpt lat="29.743574686110538" lon="-8.693850594653266"><ele>1829.5</ele><time>2026-04-15T09:56:41Z</time></trkpt><trkpt lat="29.743661855153782" lon="-8.693733554988668"><ele>1830.0</ele><time>2026-04-15T09:56:42Z</time></trkpt><trkpt lat="29.743752380158117" lon="-8.693608304604018"><ele>1828.75</ele><time>2026-04-15T09:56:43Z</time></trkpt><trkpt lat="29.7438388436598" lon="-8.69347805286339"><ele>1827.5</ele><time>2026-04-15T09:56:44Z</time></trkpt><trkpt lat="29.74392392971908" lon="-8.693361889997897"><ele>1826.25</ele><time>2026-04-15T09:56:45Z</time></trkpt><trkpt lat="29.74401418335485" lon="-8.693246464072429"><ele>1825.0</ele><time>2026-04-15T09:56:46Z</time></trkpt><trkpt lat="29.744115684493234" lon="-8.693135729743004"><ele>1825.0</ele><time>2026-04-15T09:56:47Z</time></trkpt><trkpt lat="29.74421568337936" lon="-8.69301381792641"><ele>1825.0</ele><time>2026-04-15T09:56:48Z</time></trkpt><trkpt lat="29.74431732065715" lon="-8.69290694460821"><ele>1825.0</ele><time>2026-04-15T09:56:49Z</time></trkpt><trkpt lat="29.74441267588522" lon="-8.69279937341466"><ele>1825.0</ele><time>2026-04-15T09:56:50Z</time></trkpt><trkpt lat="29.744491153136753" lon="-8.692684431082236"><ele>1824.75</ele><time>2026-04-15T09:56:51Z</time></trkpt><trkpt lat="29.744560760654803" lon="-8.692556412103048"><ele>1824.5</ele><time>2026-04-15T09:56:52Z</time></trkpt><trkpt lat="29.74461508157489" lon="-8.692417605097932"><ele>1824.25</ele><time>2026-04-15T09:56:53Z</time></trkpt><trkpt lat="29.744646058533835" lon="-8.692260469649504"><ele>1824.0</ele><time>2026-04-15T09:56:54Z</time></trkpt><trkpt lat="29.744658311399025" lon="-8.692092583841523"><ele>1823.0</ele><time>2026-04-15T09:56:55Z</time></trkpt><trkpt lat="29.744662370189438" lon="-8.69192218059689"><ele>1822.0</ele><time>2026-04-15T09:56:56Z</time></trkpt><trkpt lat="29.744656994369336" lon="-8.691749826524138"><ele>1821.0</ele><time>2026-04-15T09:56:57Z</time></trkpt><trkpt lat="29.744649760340025" lon="-8.691588671660805"><ele>1820.0</ele><time>2026-04-15T09:56:58Z</time></trkpt><trkpt lat="29.74465049414323" lon="-8.691423981755195"><ele>1820.0</ele><time>2026-04-15T09:56:59Z</time></trkpt><trkpt lat="29.744668320383084" lon="-8.691264206469324"><ele>1820.0</ele><time>2026-04-15T09:57:00Z</time></trkpt><trkpt lat="29.74469494824954" lon="-8.691110810404485"><ele>1820.0</ele><time>2026-04-15T09:57:01Z</time></trkpt><trkpt lat="29.744745831862417" lon="-8.69095408377004"><ele>1820.0</ele><time>2026-04-15T09:57:02Z</time></trkpt><trkpt lat="29.744800349967203" lon="-8.690799550629592"><ele>1818.75</ele><time>2026-04-15T09:57:03Z</time></trkpt><trkpt lat="29.744856917989832" lon="-8.690655969794767"><ele>1817.5</ele><time>2026-04-15T09:57:04Z</time></trkpt><trkpt lat="29.744915635834992" lon="-8.690527597539319"><ele>1816.25</ele><time>2026-04-15T09:57:05Z</time></trkpt><trkpt lat="29.744980659983018" lon="-8.690403674351154"><ele>1815.0</ele><time>2026-04-15T09:57:06Z</time></trkpt><trkpt lat="29.74504949657996" lon="-8.69027324034788"><ele>1814.0</ele><time>2026-04-15T09:57:07Z</time></trkpt><trkpt lat="29.745120932820207" lon="-8.690137492802288"><ele>1813.0</ele><time>2026-04-15T09:57:08Z</time></trkpt><trkpt lat="29.745181183718476" lon="-8.690003088020394"><ele>1812.0</ele><time>2026-04-15T09:57:09Z</time></trkpt><trkpt lat="29.745234653895906" lon="-8.689864190990644"><ele>1811.0</ele><time>2026-04-15T09:57:10Z</time></trkpt><trkpt lat="29.74526942493679" lon="-8.689723133994583"><ele>1811.0</ele><time>2026-04-15T09:57:11Z</time></trkpt><trkpt lat="29.745294681827495" lon="-8.689564260400683"><ele>1811.0</ele><time>2026-04-15T09:57:12Z</time></trkpt><trkpt lat="29.745303167324106" lon="-8.68940269834169"><ele>1811.0</ele><time>2026-04-15T09:57:13Z</time></trkpt><trkpt lat="29.745293247936548" lon="-8.689250051768344"><ele>1811.0</ele><time>2026-04-15T09:57:14Z</time></trkpt><trkpt lat="29.74524500236977" lon="-8.689114131874346"><ele>1809.1999999999998</ele><time>2026-04-15T09:57:15Z</time></trkpt><trkpt lat="29.745190994935182" lon="-8.688988120299419"><ele>1807.3999999999999</ele><time>2026-04-15T09:57:16Z</time></trkpt><trkpt lat="29.745146071402885" lon="-8.688869317191799"><ele>1805.6</ele><time>2026-04-15T09:57:17Z</time></trkpt><trkpt lat="29.74511200654992" lon="-8.68876731767608"><ele>1803.8</ele><time>2026-04-15T09:57:18Z</time></trkpt><trkpt lat="29.74508968804182" lon="-8.688656033457233"><ele>1802.0</ele><time>2026-04-15T09:57:19Z</time></trkpt><trkpt lat="29.745112238607728" lon="-8.688524883098223"><ele>1801.5</ele><time>2026-04-15T09:57:20Z</time></trkpt><trkpt lat="29.745174272139888" lon="-8.68840000022765"><ele>1801.0</ele><time>2026-04-15T09:57:21Z</time></trkpt><trkpt lat="29.745271961034362" lon="-8.688289693278364"><ele>1800.5</ele><time>2026-04-15T09:57:22Z</time></trkpt><trkpt lat="29.745399881966918" lon="-8.688211664471595"><ele>1800.0</ele><time>2026-04-15T09:57:23Z</time></trkpt><trkpt lat="29.745529131512374" lon="-8.68812730102892"><ele>1802.6666666666665</ele><time>2026-04-15T09:57:24Z</time></trkpt><trkpt lat="29.7456663426389" lon="-8.688048576188264"><ele>1805.3333333333333</ele><time>2026-04-15T09:57:25Z</time></trkpt><trkpt lat="29.74582082051922" lon="-8.687979379059998"><ele>1808.0</ele><time>2026-04-15T09:57:26Z</time></trkpt><trkpt lat="29.745978922480525" lon="-8.687910750097315"><ele>1809.6666666666665</ele><time>2026-04-15T09:57:27Z</time></trkpt><trkpt lat="29.746128730077082" lon="-8.687844224702687"><ele>1811.3333333333335</ele><time>2026-04-15T09:57:28Z</time></trkpt><trkpt lat="29.746278800425863" lon="-8.687775296223142"><ele>1813.0</ele><time>2026-04-15T09:57:29Z</time></trkpt><trkpt lat="29.74643015872822" lon="-8.687708992916146"><ele>1813.0</ele><time>2026-04-15T09:57:30Z</time></trkpt><trkpt lat="29.746574448313048" lon="-8.687643460157187"><ele>1813.0</ele><time>2026-04-15T09:57:31Z</time></trkpt><trkpt lat="29.746703406365214" lon="-8.687581307741606"><ele>1813.0</ele><time>2026-04-15T09:57:32Z</time></trkpt><trkpt lat="29.746823702119503" lon="-8.687518561090464"><ele>1813.0</ele><time>2026-04-15T09:57:33Z</time></trkpt><trkpt lat="29.746944218493443" lon="-8.687456574120866"><ele>1813.6000000000001</ele><time>2026-04-15T09:57:34Z</time></trkpt><trkpt lat="29.747063383518043" lon="-8.68740129332272"><ele>1814.2000000000003</ele><time>2026-04-15T09:57:35Z</time></trkpt><trkpt lat="29.74717692179375" lon="-8.687356293584855"><ele>1814.8</ele><time>2026-04-15T09:57:36Z</time></trkpt><trkpt lat="29.74727462546256" lon="-8.68731798802945"><ele>1815.4</ele><time>2026-04-15T09:57:37Z</time></trkpt><trkpt lat="29.74735979696023" lon="-8.68728581140844"><ele>1816.0</ele><time>2026-04-15T09:57:38Z</time></trkpt><trkpt lat="29.747433031765546" lon="-8.687255754570607"><ele>1816.0000000000002</ele><time>2026-04-15T09:57:39Z</time></trkpt><trkpt lat="29.747504729112407" lon="-8.687231751762173"><ele>1816.0</ele><time>2026-04-15T09:57:40Z</time></trkpt><trkpt lat="29.74757150596144" lon="-8.687218866080116"><ele>1816.0</ele><time>2026-04-15T09:57:41Z</time></trkpt><trkpt lat="29.747681264754725" lon="-8.687208062144052"><ele>1816.0</ele><time>2026-04-15T09:57:43Z</time></trkpt><trkpt lat="29.747771723330235" lon="-8.68719028458161"><ele>1816.0000000000002</ele><time>2026-04-15T09:57:45Z</time></trkpt><trkpt lat="29.74786607476629" lon="-8.687181296241445"><ele>1816.0</ele><time>2026-04-15T09:57:47Z</time></trkpt><trkpt lat="29.747939274516277" lon="-8.687171180084352"><ele>1815.4</ele><time>2026-04-15T09:57:49Z</time></trkpt><trkpt lat="29.74802690566016" lon="-8.687142459886982"><ele>1814.8</ele><time>2026-04-15T09:57:51Z</time></trkpt><trkpt lat="29.748133733564497" lon="-8.687097675042443"><ele>1814.2000000000003</ele><time>2026-04-15T09:57:53Z</time></trkpt><trkpt lat="29.74823520546356" lon="-8.687065107319121"><ele>1813.6000000000001</ele><time>2026-04-15T09:57:55Z</time></trkpt><trkpt lat="29.74832214736415" lon="-8.687017081904516"><ele>1813.0</ele><time>2026-04-15T09:57:57Z</time></trkpt><trkpt lat="29.74840168001828" lon="-8.686960516814903"><ele>1813.0000000000002</ele><time>2026-04-15T09:57:59Z</time></trkpt><trkpt lat="29.748476834817335" lon="-8.686907798836698"><ele>1813.0</ele><time>2026-04-15T09:58:01Z</time></trkpt><trkpt lat="29.74855516359503" lon="-8.686852083528063"><ele>1813.0</ele><time>2026-04-15T09:58:03Z</time></trkpt><trkpt lat="29.74864643899833" lon="-8.686795577516643"><ele>1813.0</ele><time>2026-04-15T09:58:05Z</time></trkpt><trkpt lat="29.748717992413525" lon="-8.68675382788583"><ele>1813.0000000000002</ele><time>2026-04-15T09:58:07Z</time></trkpt><trkpt lat="29.748786338966624" lon="-8.686705350988825"><ele>1813.0</ele><time>2026-04-15T09:58:09Z</time></trkpt><trkpt lat="29.748873281415385" lon="-8.686636351555544"><ele>1812.1666666666667</ele><time>2026-04-15T09:58:11Z</time></trkpt><trkpt lat="29.74892711953987" lon="-8.686598555440671"><ele>1811.3333333333335</ele><time>2026-04-15T09:58:12Z</time></trkpt><trkpt lat="29.748983305523527" lon="-8.686562270521614"><ele>1810.5</ele><time>2026-04-15T09:58:13Z</time></trkpt><trkpt lat="29.749058166482016" lon="-8.686508793373768"><ele>1809.6666666666665</ele><time>2026-04-15T09:58:15Z</time></trkpt><trkpt lat="29.749117748956433" lon="-8.686457654452518"><ele>1808.8333333333333</ele><time>2026-04-15T09:58:17Z</time></trkpt><trkpt lat="29.74918612010434" lon="-8.686398822847336"><ele>1808.0</ele><time>2026-04-15T09:58:19Z</time></trkpt><trkpt lat="29.74929859744312" lon="-8.68631613763391"><ele>1808.0</ele><time>2026-04-15T09:58:21Z</time></trkpt><trkpt lat="29.749369893549655" lon="-8.686260105053806"><ele>1808.0000000000002</ele><time>2026-04-15T09:58:22Z</time></trkpt><trkpt lat="29.749435841773757" lon="-8.68620348471833"><ele>1808.0000000000002</ele><time>2026-04-15T09:58:23Z</time></trkpt><trkpt lat="29.749505492404374" lon="-8.686138770122586"><ele>1808.0</ele><time>2026-04-15T09:58:24Z</time></trkpt><trkpt lat="29.74958117777896" lon="-8.686067732467407"><ele>1808.0</ele><time>2026-04-15T09:58:25Z</time></trkpt><trkpt lat="29.749666258198527" lon="-8.685999469589074"><ele>1807.2</ele><time>2026-04-15T09:58:26Z</time></trkpt><trkpt lat="29.74975015062251" lon="-8.685936127344926"><ele>1806.4</ele><time>2026-04-15T09:58:27Z</time></trkpt><trkpt lat="29.749835478146537" lon="-8.685868603613565"><ele>1805.6000000000001</ele><time>2026-04-15T09:58:28Z</time></trkpt><trkpt lat="29.74992153551457" lon="-8.68579533760119"><ele>1804.8000000000002</ele><time>2026-04-15T09:58:29Z</time></trkpt><trkpt lat="29.750004921959913" lon="-8.685724256663251"><ele>1804.0</ele><time>2026-04-15T09:58:30Z</time></trkpt><trkpt lat="29.750086620013597" lon="-8.68565374753193"><ele>1804.0</ele><time>2026-04-15T09:58:31Z</time></trkpt><trkpt lat="29.75016826282108" lon="-8.68558371367839"><ele>1804.0</ele><time>2026-04-15T09:58:32Z</time></trkpt><trkpt lat="29.750245933869685" lon="-8.685515099052152"><ele>1804.0</ele><time>2026-04-15T09:58:33Z</time></trkpt><trkpt lat="29.750321670419996" lon="-8.6854468348371"><ele>1804.0</ele><time>2026-04-15T09:58:34Z</time></trkpt><trkpt lat="29.750397499311266" lon="-8.685375429799398"><ele>1804.0</ele><time>2026-04-15T09:58:35Z</time></trkpt><trkpt lat="29.750475266976824" lon="-8.685298898794539"><ele>1802.2</ele><time>2026-04-15T09:58:36Z</time></trkpt><trkpt lat="29.75055439044539" lon="-8.685217555522597"><ele>1800.4</ele><time>2026-04-15T09:58:37Z</time></trkpt><trkpt lat="29.75062782936194" lon="-8.685126526041145"><ele>1798.6</ele><time>2026-04-15T09:58:38Z</time></trkpt><trkpt lat="29.750700434434375" lon="-8.685033746989859"><ele>1796.8</ele><time>2026-04-15T09:58:39Z</time></trkpt><trkpt lat="29.750778309934542" lon="-8.6849387358794"><ele>1795.0</ele><time>2026-04-15T09:58:40Z</time></trkpt><trkpt lat="29.75085150443031" lon="-8.684844825652132"><ele>1795.0</ele><time>2026-04-15T09:58:41Z</time></trkpt><trkpt lat="29.750922351965983" lon="-8.684746103761684"><ele>1795.0</ele><time>2026-04-15T09:58:42Z</time></trkpt><trkpt lat="29.750994969168673" lon="-8.684645377447284"><ele>1795.0</ele><time>2026-04-15T09:58:43Z</time></trkpt><trkpt lat="29.751063385796307" lon="-8.68454841019063"><ele>1795.0</ele><time>2026-04-15T09:58:44Z</time></trkpt><trkpt lat="29.751131453479918" lon="-8.684454473186502"><ele>1795.0</ele><time>2026-04-15T09:58:45Z</time></trkpt><trkpt lat="29.751195974397575" lon="-8.684368824856106"><ele>1794.4</ele><time>2026-04-15T09:58:46Z</time></trkpt><trkpt lat="29.75125672856153" lon="-8.6842848412436"><ele>1793.8</ele><time>2026-04-15T09:58:47Z</time></trkpt><trkpt lat="29.75131549665326" lon="-8.684210558315357"><ele>1793.1999999999998</ele><time>2026-04-15T09:58:48Z</time></trkpt><trkpt lat="29.751366148859667" lon="-8.684129505787357"><ele>1792.6</ele><time>2026-04-15T09:58:49Z</time></trkpt><trkpt lat="29.751411813531405" lon="-8.684043753627108"><ele>1792.0</ele><time>2026-04-15T09:58:50Z</time></trkpt><trkpt lat="29.751461231071968" lon="-8.683946124505411"><ele>1792.0</ele><time>2026-04-15T09:58:51Z</time></trkpt><trkpt lat="29.751511297837162" lon="-8.68383228302494"><ele>1792.0</ele><time>2026-04-15T09:58:52Z</time></trkpt><trkpt lat="29.751555392245752" lon="-8.683709509285514"><ele>1792.0</ele><time>2026-04-15T09:58:53Z</time></trkpt><trkpt lat="29.7515887406106" lon="-8.6835824390851"><ele>1792.0</ele><time>2026-04-15T09:58:54Z</time></trkpt><trkpt lat="29.751619500997517" lon="-8.683449803772824"><ele>1791.8</ele><time>2026-04-15T09:58:55Z</time></trkpt><trkpt lat="29.751653729474654" lon="-8.683322724409253"><ele>1791.6</ele><time>2026-04-15T09:58:56Z</time></trkpt><trkpt lat="29.751689924258102" lon="-8.683198985737517"><ele>1791.3999999999999</ele><time>2026-04-15T09:58:57Z</time></trkpt><trkpt lat="29.751719059913086" lon="-8.683079807770053"><ele>1791.1999999999998</ele><time>2026-04-15T09:58:58Z</time></trkpt><trkpt lat="29.7517508597763" lon="-8.682959408069978"><ele>1791.0</ele><time>2026-04-15T09:58:59Z</time></trkpt><trkpt lat="29.751768265643378" lon="-8.682831017674953"><ele>1791.0</ele><time>2026-04-15T09:59:00Z</time></trkpt><trkpt lat="29.751810943046912" lon="-8.682711832884923"><ele>1791.0</ele><time>2026-04-15T09:59:01Z</time></trkpt><trkpt lat="29.7518380422235" lon="-8.682588138659746"><ele>1791.0</ele><time>2026-04-15T09:59:02Z</time></trkpt><trkpt lat="29.751865832371276" lon="-8.682464363945234"><ele>1791.0</ele><time>2026-04-15T09:59:03Z</time></trkpt><trkpt lat="29.75189532683598" lon="-8.68234390705425"><ele>1791.0</ele><time>2026-04-15T09:59:04Z</time></trkpt><trkpt lat="29.751930143587558" lon="-8.682226189313289"><ele>1791.0</ele><time>2026-04-15T09:59:05Z</time></trkpt><trkpt lat="29.751951070823814" lon="-8.682100362772022"><ele>1791.0</ele><time>2026-04-15T09:59:06Z</time></trkpt><trkpt lat="29.75198187130871" lon="-8.681977917950482"><ele>1791.0</ele><time>2026-04-15T09:59:07Z</time></trkpt><trkpt lat="29.752012824747737" lon="-8.6818548650673"><ele>1791.0</ele><time>2026-04-15T09:59:08Z</time></trkpt><trkpt lat="29.75209987561309" lon="-8.681748484332134"><ele>1790.6</ele><time>2026-04-15T09:59:09Z</time></trkpt><trkpt lat="29.752158527720656" lon="-8.681640688315762"><ele>1790.1999999999998</ele><time>2026-04-15T09:59:10Z</time></trkpt><trkpt lat="29.752213992420167" lon="-8.681538100071666"><ele>1789.8000000000002</ele><time>2026-04-15T09:59:11Z</time></trkpt><trkpt lat="29.752262538360768" lon="-8.681447065488511"><ele>1789.4</ele><time>2026-04-15T09:59:12Z</time></trkpt><trkpt lat="29.75230985860792" lon="-8.681384791971107"><ele>1789.0</ele><time>2026-04-15T09:59:13Z</time></trkpt><trkpt lat="29.752419083889514" lon="-8.681329514628699"><ele>1789.0</ele><time>2026-04-15T09:59:15Z</time></trkpt><trkpt lat="29.75249397077953" lon="-8.681323199361634"><ele>1789.0</ele><time>2026-04-15T09:59:16Z</time></trkpt><trkpt lat="29.752579528430353" lon="-8.681328402665446"><ele>1789.0</ele><time>2026-04-15T09:59:17Z</time></trkpt><trkpt lat="29.752672543161427" lon="-8.681347766149099"><ele>1789.0</ele><time>2026-04-15T09:59:18Z</time></trkpt><trkpt lat="29.75277542216838" lon="-8.681376145988414"><ele>1789.0</ele><time>2026-04-15T09:59:19Z</time></trkpt><trkpt lat="29.752886462791928" lon="-8.681407922041737"><ele>1789.75</ele><time>2026-04-15T09:59:20Z</time></trkpt><trkpt lat="29.753005941740167" lon="-8.681437884853171"><ele>1790.5</ele><time>2026-04-15T09:59:21Z</time></trkpt><trkpt lat="29.75312576577889" lon="-8.68146581475935"><ele>1791.25</ele><time>2026-04-15T09:59:22Z</time></trkpt><trkpt lat="29.75325571978785" lon="-8.681502390464049"><ele>1792.0</ele><time>2026-04-15T09:59:23Z</time></trkpt><trkpt lat="29.753379946492522" lon="-8.681547999583671"><ele>1792.0</ele><time>2026-04-15T09:59:24Z</time></trkpt><trkpt lat="29.753503226275154" lon="-8.68160253880668"><ele>1792.0</ele><time>2026-04-15T09:59:25Z</time></trkpt><trkpt lat="29.753637708478543" lon="-8.681664209012274"><ele>1792.0</ele><time>2026-04-15T09:59:26Z</time></trkpt><trkpt lat="29.753774998292783" lon="-8.681735805097482"><ele>1792.0</ele><time>2026-04-15T09:59:27Z</time></trkpt><trkpt lat="29.753916988580308" lon="-8.681804957925038"><ele>1793.5</ele><time>2026-04-15T09:59:28Z</time></trkpt><trkpt lat="29.75405019107591" lon="-8.681869877210858"><ele>1795.0</ele><time>2026-04-15T09:59:29Z</time></trkpt><trkpt lat="29.754177387939706" lon="-8.681923961799699"><ele>1796.5</ele><time>2026-04-15T09:59:30Z</time></trkpt><trkpt lat="29.75430912121457" lon="-8.681973751717136"><ele>1798.0</ele><time>2026-04-15T09:59:31Z</time></trkpt><trkpt lat="29.754442942204804" lon="-8.682034570061175"><ele>1800.0</ele><time>2026-04-15T09:59:32Z</time></trkpt><trkpt lat="29.754578678102238" lon="-8.682110133496174"><ele>1802.0</ele><time>2026-04-15T09:59:33Z</time></trkpt><trkpt lat="29.754716115966982" lon="-8.682185584991075"><ele>1804.0</ele><time>2026-04-15T09:59:34Z</time></trkpt><trkpt lat="29.754863164418925" lon="-8.682247487872585"><ele>1804.0</ele><time>2026-04-15T09:59:35Z</time></trkpt><trkpt lat="29.755015999627187" lon="-8.682294862700264"><ele>1804.0</ele><time>2026-04-15T09:59:36Z</time></trkpt><trkpt lat="29.755165526541766" lon="-8.682340960103964"><ele>1804.0</ele><time>2026-04-15T09:59:37Z</time></trkpt><trkpt lat="29.755307956657624" lon="-8.682378610333359"><ele>1805.0</ele><time>2026-04-15T09:59:38Z</time></trkpt><trkpt lat="29.755448811476196" lon="-8.682418576465125"><ele>1806.0</ele><time>2026-04-15T09:59:39Z</time></trkpt><trkpt lat="29.75558218181614" lon="-8.682462306354365"><ele>1807.0</ele><time>2026-04-15T09:59:40Z</time></trkpt><trkpt lat="29.755711994168443" lon="-8.682512893319894"><ele>1808.0</ele><time>2026-04-15T09:59:41Z</time></trkpt><trkpt lat="29.755840832746255" lon="-8.68256522843786"><ele>1808.0</ele><time>2026-04-15T09:59:42Z</time></trkpt><trkpt lat="29.755967848029897" lon="-8.682611763611648"><ele>1808.0</ele><time>2026-04-15T09:59:43Z</time></trkpt><trkpt lat="29.756090990377906" lon="-8.682656045610907"><ele>1808.0</ele><time>2026-04-15T09:59:44Z</time></trkpt><trkpt lat="29.75620687516034" lon="-8.68271103513855"><ele>1808.0</ele><time>2026-04-15T09:59:45Z</time></trkpt><trkpt lat="29.756311473787523" lon="-8.682768254329611"><ele>1808.4</ele><time>2026-04-15T09:59:46Z</time></trkpt><trkpt lat="29.756398824800886" lon="-8.682812320712133"><ele>1808.8000000000002</ele><time>2026-04-15T09:59:47Z</time></trkpt><trkpt lat="29.75646484267923" lon="-8.682840342653627"><ele>1809.2</ele><time>2026-04-15T09:59:48Z</time></trkpt><trkpt lat="29.756591178135388" lon="-8.682856368569942"><ele>1809.6</ele><time>2026-04-15T09:59:50Z</time></trkpt><trkpt lat="29.756705452875376" lon="-8.68280141303362"><ele>1810.0</ele><time>2026-04-15T09:59:52Z</time></trkpt><trkpt lat="29.756755512424196" lon="-8.682754513716153"><ele>1810.0</ele><time>2026-04-15T09:59:53Z</time></trkpt><trkpt lat="29.756812014478967" lon="-8.682697446319706"><ele>1810.0</ele><time>2026-04-15T09:59:54Z</time></trkpt><trkpt lat="29.756869281071747" lon="-8.682630713005281"><ele>1810.0</ele><time>2026-04-15T09:59:55Z</time></trkpt><trkpt lat="29.756924245667168" lon="-8.68254723513398"><ele>1810.0</ele><time>2026-04-15T09:59:56Z</time></trkpt><trkpt lat="29.75698464044718" lon="-8.682456650786323"><ele>1810.0</ele><time>2026-04-15T09:59:57Z</time></trkpt><trkpt lat="29.757055327228496" lon="-8.682359280628134"><ele>1812.25</ele><time>2026-04-15T09:59:58Z</time></trkpt><trkpt lat="29.757129803297424" lon="-8.682268577179636"><ele>1814.5</ele><time>2026-04-15T09:59:59Z</time></trkpt><trkpt lat="29.75720715277018" lon="-8.682179519632257"><ele>1816.75</ele><time>2026-04-15T10:00:00Z</time></trkpt><trkpt lat="29.75729700111066" lon="-8.682098876600303"><ele>1819.0</ele><time>2026-04-15T10:00:01Z</time></trkpt><trkpt lat="29.757401585856705" lon="-8.682023110866744"><ele>1819.0</ele><time>2026-04-15T10:00:02Z</time></trkpt><trkpt lat="29.757518947761092" lon="-8.681953675913418"><ele>1819.0</ele><time>2026-04-15T10:00:03Z</time></trkpt><trkpt lat="29.757639281991008" lon="-8.681896985709049"><ele>1819.0</ele><time>2026-04-15T10:00:04Z</time></trkpt><trkpt lat="29.7577654171923" lon="-8.681858723459545"><ele>1819.0</ele><time>2026-04-15T10:00:05Z</time></trkpt><trkpt lat="29.75789863855256" lon="-8.681826570058067"><ele>1818.25</ele><time>2026-04-15T10:00:06Z</time></trkpt><trkpt lat="29.758034557821283" lon="-8.681799715532822"><ele>1817.5</ele><time>2026-04-15T10:00:07Z</time></trkpt><trkpt lat="29.758176307973798" lon="-8.681784229109896"><ele>1816.75</ele><time>2026-04-15T10:00:08Z</time></trkpt><trkpt lat="29.75832096701327" lon="-8.681783193078378"><ele>1816.0</ele><time>2026-04-15T10:00:09Z</time></trkpt><trkpt lat="29.758468682122892" lon="-8.681791064839162"><ele>1817.5</ele><time>2026-04-15T10:00:10Z</time></trkpt><trkpt lat="29.75861513646908" lon="-8.681800680125301"><ele>1819.0</ele><time>2026-04-15T10:00:11Z</time></trkpt><trkpt lat="29.758750446958796" lon="-8.681806694476839"><ele>1820.5</ele><time>2026-04-15T10:00:12Z</time></trkpt><trkpt lat="29.758875152647178" lon="-8.681813046705765"><ele>1822.0</ele><time>2026-04-15T10:00:13Z</time></trkpt><trkpt lat="29.758989461646397" lon="-8.681822864834997"><ele>1822.0</ele><time>2026-04-15T10:00:14Z</time></trkpt><trkpt lat="29.759091742666495" lon="-8.681840413505595"><ele>1821.9999999999998</ele><time>2026-04-15T10:00:15Z</time></trkpt><trkpt lat="29.759188773595113" lon="-8.68185742745684"><ele>1821.9999999999998</ele><time>2026-04-15T10:00:16Z</time></trkpt><trkpt lat="29.759276571586337" lon="-8.6818698501615"><ele>1822.0</ele><time>2026-04-15T10:00:17Z</time></trkpt><trkpt lat="29.75936460740786" lon="-8.681881155294006"><ele>1822.0</ele><time>2026-04-15T10:00:18Z</time></trkpt><trkpt lat="29.759450774344998" lon="-8.681884037949253"><ele>1823.1999999999998</ele><time>2026-04-15T10:00:19Z</time></trkpt><trkpt lat="29.75954395708826" lon="-8.68188707271432"><ele>1824.3999999999999</ele><time>2026-04-15T10:00:20Z</time></trkpt><trkpt lat="29.759643688441226" lon="-8.681894745556782"><ele>1825.6000000000001</ele><time>2026-04-15T10:00:21Z</time></trkpt><trkpt lat="29.7597526829788" lon="-8.681903514609882"><ele>1826.8000000000002</ele><time>2026-04-15T10:00:22Z</time></trkpt><trkpt lat="29.75986891160453" lon="-8.681918615583363"><ele>1828.0</ele><time>2026-04-15T10:00:23Z</time></trkpt><trkpt lat="29.759977033667806" lon="-8.68194067118045"><ele>1824.8000000000002</ele><time>2026-04-15T10:00:24Z</time></trkpt><trkpt lat="29.760079776168425" lon="-8.681965485426318"><ele>1821.6000000000001</ele><time>2026-04-15T10:00:25Z</time></trkpt><trkpt lat="29.76017689738614" lon="-8.681991881455865"><ele>1818.3999999999999</ele><time>2026-04-15T10:00:26Z</time></trkpt><trkpt lat="29.760268023599668" lon="-8.682014937660256"><ele>1815.1999999999998</ele><time>2026-04-15T10:00:27Z</time></trkpt><trkpt lat="29.760352196069018" lon="-8.68203475511335"><ele>1812.0</ele><time>2026-04-15T10:00:28Z</time></trkpt><trkpt lat="29.76043681071704" lon="-8.682055714860835"><ele>1812.5</ele><time>2026-04-15T10:00:29Z</time></trkpt><trkpt lat="29.760518243082537" lon="-8.682076605955203"><ele>1813.0</ele><time>2026-04-15T10:00:30Z</time></trkpt><trkpt lat="29.76060309628733" lon="-8.682087399054735"><ele>1813.5</ele><time>2026-04-15T10:00:31Z</time></trkpt><trkpt lat="29.76068885416267" lon="-8.682078593344588"><ele>1814.0</ele><time>2026-04-15T10:00:32Z</time></trkpt><trkpt lat="29.76077066963984" lon="-8.682048923516328"><ele>1814.5</ele><time>2026-04-15T10:00:33Z</time></trkpt><trkpt lat="29.760843174104625" lon="-8.68199349611612"><ele>1815.0</ele><time>2026-04-15T10:00:34Z</time></trkpt><trkpt lat="29.760906779858555" lon="-8.681917295887237"><ele>1815.0</ele><time>2026-04-15T10:00:35Z</time></trkpt><trkpt lat="29.760958396829235" lon="-8.681820717552213"><ele>1815.0</ele><time>2026-04-15T10:00:36Z</time></trkpt><trkpt lat="29.760995123549648" lon="-8.681722030575143"><ele>1815.0</ele><time>2026-04-15T10:00:37Z</time></trkpt><trkpt lat="29.761037339706213" lon="-8.681628518325446"><ele>1815.0</ele><time>2026-04-15T10:00:38Z</time></trkpt><trkpt lat="29.76109181370212" lon="-8.681547700054294"><ele>1815.0</ele><time>2026-04-15T10:00:39Z</time></trkpt><trkpt lat="29.761162709716753" lon="-8.68148121237113"><ele>1812.8</ele><time>2026-04-15T10:00:40Z</time></trkpt><trkpt lat="29.761247637001695" lon="-8.68143709412233"><ele>1810.6</ele><time>2026-04-15T10:00:41Z</time></trkpt><trkpt lat="29.761349376688646" lon="-8.681421068732517"><ele>1808.4</ele><time>2026-04-15T10:00:42Z</time></trkpt><trkpt lat="29.761466355096527" lon="-8.6814116922719"><ele>1806.2</ele><time>2026-04-15T10:00:43Z</time></trkpt><trkpt lat="29.761594737198344" lon="-8.681410304361806"><ele>1804.0</ele><time>2026-04-15T10:00:44Z</time></trkpt><trkpt lat="29.761718893630803" lon="-8.681406801268466"><ele>1804.0</ele><time>2026-04-15T10:00:45Z</time></trkpt><trkpt lat="29.76184210611406" lon="-8.681415767726556"><ele>1804.0</ele><time>2026-04-15T10:00:46Z</time></trkpt><trkpt lat="29.761962311539232" lon="-8.681444965179287"><ele>1804.0</ele><time>2026-04-15T10:00:47Z</time></trkpt><trkpt lat="29.76207585962259" lon="-8.681492143139085"><ele>1804.0</ele><time>2026-04-15T10:00:48Z</time></trkpt><trkpt lat="29.76218295035107" lon="-8.681542296925313"><ele>1803.25</ele><time>2026-04-15T10:00:49Z</time></trkpt><trkpt lat="29.76228692393508" lon="-8.681592003210179"><ele>1802.5</ele><time>2026-04-15T10:00:50Z</time></trkpt><trkpt lat="29.76239373661802" lon="-8.681644091415272"><ele>1801.75</ele><time>2026-04-15T10:00:51Z</time></trkpt><trkpt lat="29.76250562777634" lon="-8.681700329341972"><ele>1801.0</ele><time>2026-04-15T10:00:52Z</time></trkpt><trkpt lat="29.762623302749077" lon="-8.681753408004871"><ele>1799.75</ele><time>2026-04-15T10:00:53Z</time></trkpt><trkpt lat="29.76273899264969" lon="-8.681801857079316"><ele>1798.5</ele><time>2026-04-15T10:00:54Z</time></trkpt><trkpt lat="29.76284943760381" lon="-8.681846498746046"><ele>1797.25</ele><time>2026-04-15T10:00:55Z</time></trkpt><trkpt lat="29.7629503612385" lon="-8.68188625450479"><ele>1796.0</ele><time>2026-04-15T10:00:56Z</time></trkpt><trkpt lat="29.763048342038182" lon="-8.681922252669304"><ele>1796.0</ele><time>2026-04-15T10:00:57Z</time></trkpt><trkpt lat="29.763143169793896" lon="-8.681953156130978"><ele>1796.0</ele><time>2026-04-15T10:00:58Z</time></trkpt><trkpt lat="29.763234658951614" lon="-8.681960853816914"><ele>1796.0</ele><time>2026-04-15T10:00:59Z</time></trkpt><trkpt lat="29.763321755781867" lon="-8.681937229377969"><ele>1796.0</ele><time>2026-04-15T10:01:00Z</time></trkpt><trkpt lat="29.763408389420203" lon="-8.681893065029671"><ele>1796.0</ele><time>2026-04-15T10:01:01Z</time></trkpt><trkpt lat="29.763498577235982" lon="-8.681820055600053"><ele>1795.0</ele><time>2026-04-15T10:01:02Z</time></trkpt><trkpt lat="29.76359439300679" lon="-8.68173385602176"><ele>1794.0</ele><time>2026-04-15T10:01:03Z</time></trkpt><trkpt lat="29.763698727907364" lon="-8.68164223118214"><ele>1793.0</ele><time>2026-04-15T10:01:04Z</time></trkpt><trkpt lat="29.763812167854375" lon="-8.681558142732655"><ele>1792.0</ele><time>2026-04-15T10:01:05Z</time></trkpt><trkpt lat="29.76393252718991" lon="-8.6814788095057"><ele>1792.0</ele><time>2026-04-15T10:01:06Z</time></trkpt><trkpt lat="29.764053831941208" lon="-8.68140787650748"><ele>1792.0</ele><time>2026-04-15T10:01:07Z</time></trkpt><trkpt lat="29.764174710112236" lon="-8.681340222871896"><ele>1792.0</ele><time>2026-04-15T10:01:08Z</time></trkpt><trkpt lat="29.764285394289672" lon="-8.68127346297763"><ele>1792.0</ele><time>2026-04-15T10:01:09Z</time></trkpt><trkpt lat="29.76438982734816" lon="-8.681195077198575"><ele>1790.0</ele><time>2026-04-15T10:01:10Z</time></trkpt><trkpt lat="29.764484366049906" lon="-8.681094831786877"><ele>1788.0</ele><time>2026-04-15T10:01:11Z</time></trkpt><trkpt lat="29.764567857167563" lon="-8.680970842046875"><ele>1786.0</ele><time>2026-04-15T10:01:12Z</time></trkpt><trkpt lat="29.764635759653107" lon="-8.680849506443947"><ele>1784.0</ele><time>2026-04-15T10:01:13Z</time></trkpt><trkpt lat="29.764702621062057" lon="-8.680739719237984"><ele>1784.0</ele><time>2026-04-15T10:01:14Z</time></trkpt><trkpt lat="29.764786410443318" lon="-8.680657523058784"><ele>1784.0</ele><time>2026-04-15T10:01:15Z</time></trkpt><trkpt lat="29.76488653216618" lon="-8.680598547062074"><ele>1784.0</ele><time>2026-04-15T10:01:16Z</time></trkpt><trkpt lat="29.765000976670215" lon="-8.680547802563687"><ele>1784.0</ele><time>2026-04-15T10:01:17Z</time></trkpt><trkpt lat="29.76511886038892" lon="-8.680503345432621"><ele>1784.2</ele><time>2026-04-15T10:01:18Z</time></trkpt><trkpt lat="29.765231410233138" lon="-8.680455329651153"><ele>1784.4</ele><time>2026-04-15T10:01:19Z</time></trkpt><trkpt lat="29.76533677127573" lon="-8.6804060290061"><ele>1784.6</ele><time>2026-04-15T10:01:20Z</time></trkpt><trkpt lat="29.76543036321322" lon="-8.680348100156019"><ele>1784.8</ele><time>2026-04-15T10:01:21Z</time></trkpt><trkpt lat="29.76551058838431" lon="-8.680271389283758"><ele>1785.0</ele><time>2026-04-15T10:01:22Z</time></trkpt><trkpt lat="29.765575775297158" lon="-8.680176313880681"><ele>1784.5</ele><time>2026-04-15T10:01:23Z</time></trkpt><trkpt lat="29.76562852494295" lon="-8.68007192007348"><ele>1784.0</ele><time>2026-04-15T10:01:24Z</time></trkpt><trkpt lat="29.76566768881013" lon="-8.679944127926618"><ele>1783.5</ele><time>2026-04-15T10:01:25Z</time></trkpt><trkpt lat="29.76570084742" lon="-8.679805500988286"><ele>1783.0</ele><time>2026-04-15T10:01:26Z</time></trkpt><trkpt lat="29.765728158411683" lon="-8.679656887250326"><ele>1783.0</ele><time>2026-04-15T10:01:27Z</time></trkpt><trkpt lat="29.76574130788659" lon="-8.67950610773846"><ele>1783.0</ele><time>2026-04-15T10:01:28Z</time></trkpt><trkpt lat="29.765744865412966" lon="-8.679351297293993"><ele>1783.0</ele><time>2026-04-15T10:01:29Z</time></trkpt><trkpt lat="29.765739875703712" lon="-8.679202911859326"><ele>1783.0</ele><time>2026-04-15T10:01:30Z</time></trkpt><trkpt lat="29.765733009620913" lon="-8.679064829328345"><ele>1782.5</ele><time>2026-04-15T10:01:31Z</time></trkpt><trkpt lat="29.765725549727826" lon="-8.678924502539966"><ele>1782.0</ele><time>2026-04-15T10:01:32Z</time></trkpt><trkpt lat="29.765725886287207" lon="-8.678785009177798"><ele>1781.5</ele><time>2026-04-15T10:01:33Z</time></trkpt><trkpt lat="29.765732210136328" lon="-8.678638041954878"><ele>1781.0</ele><time>2026-04-15T10:01:34Z</time></trkpt><trkpt lat="29.765748022080544" lon="-8.678497772038675"><ele>1780.0</ele><time>2026-04-15T10:01:35Z</time></trkpt><trkpt lat="29.765763890605502" lon="-8.678365029107727"><ele>1779.0</ele><time>2026-04-15T10:01:36Z</time></trkpt><trkpt lat="29.765793898505436" lon="-8.678241933778121"><ele>1778.0</ele><time>2026-04-15T10:01:37Z</time></trkpt><trkpt lat="29.765843349203383" lon="-8.678120883394925"><ele>1777.0</ele><time>2026-04-15T10:01:38Z</time></trkpt><trkpt lat="29.765913007997458" lon="-8.67800601686864"><ele>1777.0</ele><time>2026-04-15T10:01:39Z</time></trkpt><trkpt lat="29.76599204310814" lon="-8.677889206604444"><ele>1777.0</ele><time>2026-04-15T10:01:40Z</time></trkpt><trkpt lat="29.766074381876273" lon="-8.677769947947214"><ele>1777.0</ele><time>2026-04-15T10:01:41Z</time></trkpt><trkpt lat="29.766159178637867" lon="-8.677653385459823"><ele>1777.0</ele><time>2026-04-15T10:01:42Z</time></trkpt><trkpt lat="29.766248646765817" lon="-8.677536841313282"><ele>1777.0</ele><time>2026-04-15T10:01:43Z</time></trkpt><trkpt lat="29.76634230739516" lon="-8.677421173696624"><ele>1777.0</ele><time>2026-04-15T10:01:44Z</time></trkpt><trkpt lat="29.76643487729501" lon="-8.677306014514548"><ele>1777.0</ele><time>2026-04-15T10:01:45Z</time></trkpt><trkpt lat="29.766528630001858" lon="-8.67718855947867"><ele>1777.0</ele><time>2026-04-15T10:01:46Z</time></trkpt><trkpt lat="29.766617000206526" lon="-8.67706306090211"><ele>1777.0</ele><time>2026-04-15T10:01:47Z</time></trkpt><trkpt lat="29.766707332266243" lon="-8.676936078338873"><ele>1777.0</ele><time>2026-04-15T10:01:48Z</time></trkpt><trkpt lat="29.766801410821184" lon="-8.676810079924994"><ele>1777.0</ele><time>2026-04-15T10:01:49Z</time></trkpt><trkpt lat="29.76689513060308" lon="-8.676689212729253"><ele>1777.0</ele><time>2026-04-15T10:01:50Z</time></trkpt><trkpt lat="29.766981965712088" lon="-8.676573595686392"><ele>1777.5</ele><time>2026-04-15T10:01:51Z</time></trkpt><trkpt lat="29.767064430964535" lon="-8.676466885625405"><ele>1778.0</ele><time>2026-04-15T10:01:52Z</time></trkpt><trkpt lat="29.767143000488883" lon="-8.676365455011338"><ele>1778.5</ele><time>2026-04-15T10:01:53Z</time></trkpt><trkpt lat="29.767226328946588" lon="-8.67628002600348"><ele>1779.0</ele><time>2026-04-15T10:01:54Z</time></trkpt><trkpt lat="29.767316383681738" lon="-8.676215554898935"><ele>1779.0</ele><time>2026-04-15T10:01:55Z</time></trkpt><trkpt lat="29.76741705151232" lon="-8.676167176229548"><ele>1779.0</ele><time>2026-04-15T10:01:56Z</time></trkpt><trkpt lat="29.767519868557535" lon="-8.67614004191571"><ele>1779.0</ele><time>2026-04-15T10:01:57Z</time></trkpt><trkpt lat="29.767623434178088" lon="-8.676147762809894"><ele>1779.0</ele><time>2026-04-15T10:01:58Z</time></trkpt><trkpt lat="29.76772872049689" lon="-8.676180049705149"><ele>1779.0</ele><time>2026-04-15T10:01:59Z</time></trkpt><trkpt lat="29.76783461379055" lon="-8.676224832428833"><ele>1779.8000000000002</ele><time>2026-04-15T10:02:00Z</time></trkpt><trkpt lat="29.767942513379015" lon="-8.676269567920663"><ele>1780.6000000000001</ele><time>2026-04-15T10:02:01Z</time></trkpt><trkpt lat="29.768055004904305" lon="-8.676299660089628"><ele>1781.4</ele><time>2026-04-15T10:02:02Z</time></trkpt><trkpt lat="29.768163355671696" lon="-8.676305878385168"><ele>1782.2</ele><time>2026-04-15T10:02:03Z</time></trkpt><trkpt lat="29.768272708442442" lon="-8.676290221341006"><ele>1783.0</ele><time>2026-04-15T10:02:04Z</time></trkpt><trkpt lat="29.768373862560637" lon="-8.676249371486472"><ele>1783.0</ele><time>2026-04-15T10:02:05Z</time></trkpt><trkpt lat="29.76847116639016" lon="-8.676193645185679"><ele>1783.0</ele><time>2026-04-15T10:02:06Z</time></trkpt><trkpt lat="29.768566350903438" lon="-8.676114837117616"><ele>1783.0</ele><time>2026-04-15T10:02:07Z</time></trkpt><trkpt lat="29.768660943170463" lon="-8.676039218626626"><ele>1783.0</ele><time>2026-04-15T10:02:08Z</time></trkpt><trkpt lat="29.76876534727298" lon="-8.67597030183257"><ele>1784.8000000000002</ele><time>2026-04-15T10:02:09Z</time></trkpt><trkpt lat="29.768864120589484" lon="-8.675900096398644"><ele>1786.6000000000001</ele><time>2026-04-15T10:02:10Z</time></trkpt><trkpt lat="29.768949014140656" lon="-8.675820973255274"><ele>1788.3999999999999</ele><time>2026-04-15T10:02:11Z</time></trkpt><trkpt lat="29.769014217553064" lon="-8.675735627875335"><ele>1790.1999999999998</ele><time>2026-04-15T10:02:12Z</time></trkpt><trkpt lat="29.7690623804024" lon="-8.675650201926203"><ele>1792.0</ele><time>2026-04-15T10:02:13Z</time></trkpt><trkpt lat="29.769093166099328" lon="-8.67556082484246"><ele>1792.0000000000002</ele><time>2026-04-15T10:02:14Z</time></trkpt><trkpt lat="29.769098705259506" lon="-8.675457242147854"><ele>1792.0</ele><time>2026-04-15T10:02:15Z</time></trkpt><trkpt lat="29.769092810989292" lon="-8.675353613069976"><ele>1792.0</ele><time>2026-04-15T10:02:16Z</time></trkpt><trkpt lat="29.769100998706076" lon="-8.67525541704415"><ele>1792.0</ele><time>2026-04-15T10:02:17Z</time></trkpt><trkpt lat="29.76912999623895" lon="-8.67516527162166"><ele>1792.0000000000002</ele><time>2026-04-15T10:02:18Z</time></trkpt><trkpt lat="29.76917920444538" lon="-8.675099848401393"><ele>1792.0</ele><time>2026-04-15T10:02:19Z</time></trkpt><trkpt lat="29.769243889431337" lon="-8.675050183915072"><ele>1793.6</ele><time>2026-04-15T10:02:20Z</time></trkpt><trkpt lat="29.769322720797508" lon="-8.675021100775135"><ele>1795.1999999999998</ele><time>2026-04-15T10:02:21Z</time></trkpt><trkpt lat="29.76941162285136" lon="-8.675010635344291"><ele>1796.8</ele><time>2026-04-15T10:02:22Z</time></trkpt><trkpt lat="29.769509788278974" lon="-8.67500546370072"><ele>1798.4</ele><time>2026-04-15T10:02:23Z</time></trkpt><trkpt lat="29.769614216397567" lon="-8.674995505473643"><ele>1800.0</ele><time>2026-04-15T10:02:24Z</time></trkpt><trkpt lat="29.769727021398907" lon="-8.674970300886368"><ele>1802.0</ele><time>2026-04-15T10:02:25Z</time></trkpt><trkpt lat="29.769845203112705" lon="-8.674931328877081"><ele>1804.0</ele><time>2026-04-15T10:02:26Z</time></trkpt><trkpt lat="29.76995974578911" lon="-8.67489017541175"><ele>1806.0</ele><time>2026-04-15T10:02:27Z</time></trkpt><trkpt lat="29.770069317828774" lon="-8.674844193828092"><ele>1808.0</ele><time>2026-04-15T10:02:28Z</time></trkpt><trkpt lat="29.77017619873661" lon="-8.674801934170262"><ele>1809.4</ele><time>2026-04-15T10:02:29Z</time></trkpt><trkpt lat="29.770278144327044" lon="-8.674779419931475"><ele>1810.8000000000002</ele><time>2026-04-15T10:02:30Z</time></trkpt><trkpt lat="29.770388130603976" lon="-8.674786797562584"><ele>1812.2</ele><time>2026-04-15T10:02:31Z</time></trkpt><trkpt lat="29.770493188113228" lon="-8.67481744469558"><ele>1813.6</ele><time>2026-04-15T10:02:32Z</time></trkpt><trkpt lat="29.77059758401317" lon="-8.674858992580553"><ele>1815.0</ele><time>2026-04-15T10:02:33Z</time></trkpt><trkpt lat="29.770698034874062" lon="-8.674913478654444"><ele>1815.0</ele><time>2026-04-15T10:02:34Z</time></trkpt><trkpt lat="29.770797121537704" lon="-8.674967293516945"><ele>1815.0</ele><time>2026-04-15T10:02:35Z</time></trkpt><trkpt lat="29.770898331861925" lon="-8.675012454886145"><ele>1815.0</ele><time>2026-04-15T10:02:36Z</time></trkpt><trkpt lat="29.77100526221477" lon="-8.675044796090056"><ele>1815.0</ele><time>2026-04-15T10:02:37Z</time></trkpt><trkpt lat="29.771114375743778" lon="-8.675070640424336"><ele>1815.0</ele><time>2026-04-15T10:02:38Z</time></trkpt><trkpt lat="29.77122720363069" lon="-8.67508145586543"><ele>1815.5</ele><time>2026-04-15T10:02:39Z</time></trkpt><trkpt lat="29.771343379941943" lon="-8.675078815783877"><ele>1816.0</ele><time>2026-04-15T10:02:40Z</time></trkpt><trkpt lat="29.771461223426876" lon="-8.675065611765016"><ele>1816.5</ele><time>2026-04-15T10:02:41Z</time></trkpt><trkpt lat="29.77157588410877" lon="-8.675038906452006"><ele>1817.0</ele><time>2026-04-15T10:02:42Z</time></trkpt><trkpt lat="29.77168417565637" lon="-8.675000268683174"><ele>1817.0</ele><time>2026-04-15T10:02:43Z</time></trkpt><trkpt lat="29.771790607464244" lon="-8.674961345819035"><ele>1816.9999999999998</ele><time>2026-04-15T10:02:44Z</time></trkpt><trkpt lat="29.771894549155444" lon="-8.67490704815086"><ele>1816.9999999999998</ele><time>2026-04-15T10:02:45Z</time></trkpt><trkpt lat="29.771994343828382" lon="-8.67485096358349"><ele>1817.0</ele><time>2026-04-15T10:02:46Z</time></trkpt><trkpt lat="29.77209429666861" lon="-8.674795921802323"><ele>1817.0</ele><time>2026-04-15T10:02:47Z</time></trkpt><trkpt lat="29.772203501107576" lon="-8.67475695045805"><ele>1816.3999999999999</ele><time>2026-04-15T10:02:48Z</time></trkpt><trkpt lat="29.77231902779572" lon="-8.674734991892041"><ele>1815.7999999999997</ele><time>2026-04-15T10:02:49Z</time></trkpt><trkpt lat="29.77242175620548" lon="-8.674727718979142"><ele>1815.2</ele><time>2026-04-15T10:02:50Z</time></trkpt><trkpt lat="29.772515987372756" lon="-8.6747211318322"><ele>1814.6</ele><time>2026-04-15T10:02:51Z</time></trkpt><trkpt lat="29.77259997719699" lon="-8.674709458679695"><ele>1814.0</ele><time>2026-04-15T10:02:52Z</time></trkpt><trkpt lat="29.772685989727236" lon="-8.674689123251733"><ele>1813.8000000000002</ele><time>2026-04-15T10:02:53Z</time></trkpt><trkpt lat="29.772769820159542" lon="-8.674649190118748"><ele>1813.6000000000001</ele><time>2026-04-15T10:02:54Z</time></trkpt><trkpt lat="29.772839425800534" lon="-8.674578113450329"><ele>1813.4</ele><time>2026-04-15T10:02:55Z</time></trkpt><trkpt lat="29.772901780319252" lon="-8.674491452910738"><ele>1813.2</ele><time>2026-04-15T10:02:56Z</time></trkpt><trkpt lat="29.772956065534657" lon="-8.674387171809297"><ele>1813.0</ele><time>2026-04-15T10:02:57Z</time></trkpt><trkpt lat="29.773018305588355" lon="-8.674278936914837"><ele>1813.0</ele><time>2026-04-15T10:02:58Z</time></trkpt><trkpt lat="29.773076696667488" lon="-8.674169943595889"><ele>1813.0000000000002</ele><time>2026-04-15T10:02:59Z</time></trkpt><trkpt lat="29.773138580632263" lon="-8.67406241594452"><ele>1813.0000000000002</ele><time>2026-04-15T10:03:00Z</time></trkpt><trkpt lat="29.77319781539896" lon="-8.673958573414959"><ele>1813.0</ele><time>2026-04-15T10:03:01Z</time></trkpt><trkpt lat="29.77325569858577" lon="-8.673859379278912"><ele>1813.0</ele><time>2026-04-15T10:03:02Z</time></trkpt><trkpt lat="29.773315961743403" lon="-8.67376390404347"><ele>1813.0</ele><time>2026-04-15T10:03:03Z</time></trkpt><trkpt lat="29.773381782005405" lon="-8.673676676114175"><ele>1813.0000000000002</ele><time>2026-04-15T10:03:04Z</time></trkpt><trkpt lat="29.77346065664034" lon="-8.673592049180886"><ele>1813.0000000000002</ele><time>2026-04-15T10:03:05Z</time></trkpt><trkpt lat="29.773545005381386" lon="-8.67351788493014"><ele>1813.0</ele><time>2026-04-15T10:03:06Z</time></trkpt><trkpt lat="29.773639778542307" lon="-8.6734527705488"><ele>1813.0</ele><time>2026-04-15T10:03:07Z</time></trkpt><trkpt lat="29.77373945606393" lon="-8.673402245306669"><ele>1812.2</ele><time>2026-04-15T10:03:08Z</time></trkpt><trkpt lat="29.77384377584744" lon="-8.6733602193872"><ele>1811.4</ele><time>2026-04-15T10:03:09Z</time></trkpt><trkpt lat="29.773954392575423" lon="-8.673326443921002"><ele>1810.6000000000001</ele><time>2026-04-15T10:03:10Z</time></trkpt><trkpt lat="29.774062737126936" lon="-8.673301413258498"><ele>1809.8000000000002</ele><time>2026-04-15T10:03:11Z</time></trkpt><trkpt lat="29.774168774885794" lon="-8.673287235868113"><ele>1809.0</ele><time>2026-04-15T10:03:12Z</time></trkpt><trkpt lat="29.77427630930145" lon="-8.673277136864142"><ele>1805.4</ele><time>2026-04-15T10:03:13Z</time></trkpt><trkpt lat="29.774382554784438" lon="-8.673261421274583"><ele>1801.8000000000002</ele><time>2026-04-15T10:03:14Z</time></trkpt><trkpt lat="29.774489486787953" lon="-8.673235883875334"><ele>1798.1999999999998</ele><time>2026-04-15T10:03:15Z</time></trkpt><trkpt lat="29.77460110334089" lon="-8.673208369025325"><ele>1794.6</ele><time>2026-04-15T10:03:16Z</time></trkpt><trkpt lat="29.774714899457965" lon="-8.67318085767711"><ele>1791.0</ele><time>2026-04-15T10:03:17Z</time></trkpt><trkpt lat="29.774832878614525" lon="-8.673150046376506"><ele>1791.0</ele><time>2026-04-15T10:03:18Z</time></trkpt><trkpt lat="29.774951155573337" lon="-8.673105834640323"><ele>1791.0</ele><time>2026-04-15T10:03:19Z</time></trkpt><trkpt lat="29.775075102962763" lon="-8.673055919255985"><ele>1791.0</ele><time>2026-04-15T10:03:20Z</time></trkpt><trkpt lat="29.775200774829315" lon="-8.672999371752312"><ele>1791.0</ele><time>2026-04-15T10:03:21Z</time></trkpt><trkpt lat="29.775325434292338" lon="-8.672937323360523"><ele>1791.0</ele><time>2026-04-15T10:03:22Z</time></trkpt><trkpt lat="29.77545045328919" lon="-8.67286936541892"><ele>1791.0</ele><time>2026-04-15T10:03:23Z</time></trkpt><trkpt lat="29.775574872238664" lon="-8.672797636123333"><ele>1791.0</ele><time>2026-04-15T10:03:24Z</time></trkpt><trkpt lat="29.77570173278532" lon="-8.672726409256189"><ele>1791.0</ele><time>2026-04-15T10:03:25Z</time></trkpt><trkpt lat="29.77582098529809" lon="-8.67265834593147"><ele>1791.0</ele><time>2026-04-15T10:03:26Z</time></trkpt><trkpt lat="29.7759363448476" lon="-8.672601275042382"><ele>1791.0</ele><time>2026-04-15T10:03:27Z</time></trkpt><trkpt lat="29.776038738893156" lon="-8.672540248643447"><ele>1791.0</ele><time>2026-04-15T10:03:28Z</time></trkpt><trkpt lat="29.77613409425306" lon="-8.67246600465285"><ele>1791.0</ele><time>2026-04-15T10:03:29Z</time></trkpt><trkpt lat="29.776218862441244" lon="-8.672385333471258"><ele>1790.4</ele><time>2026-04-15T10:03:30Z</time></trkpt><trkpt lat="29.776285391643444" lon="-8.672295376435413"><ele>1789.8</ele><time>2026-04-15T10:03:31Z</time></trkpt><trkpt lat="29.776336745543368" lon="-8.672192935324203"><ele>1789.2000000000003</ele><time>2026-04-15T10:03:32Z</time></trkpt><trkpt lat="29.776376437097785" lon="-8.672073730243005"><ele>1788.6000000000001</ele><time>2026-04-15T10:03:33Z</time></trkpt><trkpt lat="29.776413110452733" lon="-8.671944750393513"><ele>1788.0</ele><time>2026-04-15T10:03:34Z</time></trkpt><trkpt lat="29.776457418575273" lon="-8.671819915579922"><ele>1787.4</ele><time>2026-04-15T10:03:35Z</time></trkpt><trkpt lat="29.776503162634622" lon="-8.671702670706251"><ele>1786.8000000000002</ele><time>2026-04-15T10:03:36Z</time></trkpt><trkpt lat="29.776551797149036" lon="-8.671593983574365"><ele>1786.2</ele><time>2026-04-15T10:03:37Z</time></trkpt><trkpt lat="29.776613621723026" lon="-8.671500635648023"><ele>1785.6</ele><time>2026-04-15T10:03:38Z</time></trkpt><trkpt lat="29.776696600809807" lon="-8.671427078369554"><ele>1785.0</ele><time>2026-04-15T10:03:39Z</time></trkpt><trkpt lat="29.776803896317798" lon="-8.67137177620308"><ele>1787.5</ele><time>2026-04-15T10:03:40Z</time></trkpt><trkpt lat="29.776922884683806" lon="-8.671332015235919"><ele>1790.0</ele><time>2026-04-15T10:03:41Z</time></trkpt><trkpt lat="29.77703819506194" lon="-8.671303031492826"><ele>1792.5</ele><time>2026-04-15T10:03:42Z</time></trkpt><trkpt lat="29.77714149055344" lon="-8.671267575078971"><ele>1795.0</ele><time>2026-04-15T10:03:43Z</time></trkpt><trkpt lat="29.7772380927723" lon="-8.671212958947729"><ele>1795.0</ele><time>2026-04-15T10:03:44Z</time></trkpt><trkpt lat="29.77733443997154" lon="-8.671138953507054"><ele>1795.0</ele><time>2026-04-15T10:03:45Z</time></trkpt><trkpt lat="29.777436062236056" lon="-8.67104759464404"><ele>1795.0</ele><time>2026-04-15T10:03:46Z</time></trkpt><trkpt lat="29.77753922363987" lon="-8.670938802618657"><ele>1795.0</ele><time>2026-04-15T10:03:47Z</time></trkpt><trkpt lat="29.77763117302245" lon="-8.670821170645189"><ele>1795.0</ele><time>2026-04-15T10:03:48Z</time></trkpt><trkpt lat="29.7776897271639" lon="-8.670675226205589"><ele>1795.0</ele><time>2026-04-15T10:03:49Z</time></trkpt><trkpt lat="29.777776573494837" lon="-8.670545105823123"><ele>1795.0</ele><time>2026-04-15T10:03:50Z</time></trkpt><trkpt lat="29.77785202255739" lon="-8.67041197058358"><ele>1795.0</ele><time>2026-04-15T10:03:51Z</time></trkpt><trkpt lat="29.77792456076313" lon="-8.670285920982325"><ele>1794.0</ele><time>2026-04-15T10:03:52Z</time></trkpt><trkpt lat="29.777988242179337" lon="-8.670171095422454"><ele>1793.0</ele><time>2026-04-15T10:03:53Z</time></trkpt><trkpt lat="29.778024244110355" lon="-8.670070684493716"><ele>1792.0</ele><time>2026-04-15T10:03:54Z</time></trkpt><trkpt lat="29.778038889335427" lon="-8.669977339091234"><ele>1791.0</ele><time>2026-04-15T10:03:55Z</time></trkpt><trkpt lat="29.778033168281308" lon="-8.66988431247332"><ele>1790.0</ele><time>2026-04-15T10:03:56Z</time></trkpt><trkpt lat="29.778028300855848" lon="-8.669776924000054"><ele>1790.0</ele><time>2026-04-15T10:03:57Z</time></trkpt><trkpt lat="29.778024144941543" lon="-8.669678901414313"><ele>1790.0</ele><time>2026-04-15T10:03:58Z</time></trkpt><trkpt lat="29.778043244670446" lon="-8.669592757181734"><ele>1790.0</ele><time>2026-04-15T10:03:59Z</time></trkpt><trkpt lat="29.778109481519326" lon="-8.669510602411592"><ele>1790.0</ele><time>2026-04-15T10:04:00Z</time></trkpt><trkpt lat="29.7782075796244" lon="-8.669482218026792"><ele>1790.0</ele><time>2026-04-15T10:04:01Z</time></trkpt><trkpt lat="29.778297705446267" lon="-8.669438379020908"><ele>1789.6</ele><time>2026-04-15T10:04:02Z</time></trkpt><trkpt lat="29.77840801531805" lon="-8.669397070661182"><ele>1789.2</ele><time>2026-04-15T10:04:03Z</time></trkpt><trkpt lat="29.778511617097873" lon="-8.66935123259052"><ele>1788.8000000000002</ele><time>2026-04-15T10:04:04Z</time></trkpt><trkpt lat="29.77860775327458" lon="-8.66930197921966"><ele>1788.4</ele><time>2026-04-15T10:04:05Z</time></trkpt><trkpt lat="29.77871067891731" lon="-8.669246584472091"><ele>1788.0</ele><time>2026-04-15T10:04:06Z</time></trkpt><trkpt lat="29.778814964570124" lon="-8.669188047298421"><ele>1788.0</ele><time>2026-04-15T10:04:07Z</time></trkpt><trkpt lat="29.77892186705348" lon="-8.669126078782128"><ele>1788.0</ele><time>2026-04-15T10:04:08Z</time></trkpt><trkpt lat="29.779034981416313" lon="-8.66906180839515"><ele>1788.0</ele><time>2026-04-15T10:04:09Z</time></trkpt><trkpt lat="29.779149543328398" lon="-8.669000003101495"><ele>1788.0</ele><time>2026-04-15T10:04:10Z</time></trkpt><trkpt lat="29.77926780499334" lon="-8.66894696538387"><ele>1788.25</ele><time>2026-04-15T10:04:11Z</time></trkpt><trkpt lat="29.779391379601304" lon="-8.668897581407444"><ele>1788.5</ele><time>2026-04-15T10:04:12Z</time></trkpt><trkpt lat="29.77951455597608" lon="-8.66885057674974"><ele>1788.75</ele><time>2026-04-15T10:04:13Z</time></trkpt><trkpt lat="29.779643016965576" lon="-8.668800870277536"><ele>1789.0</ele><time>2026-04-15T10:04:14Z</time></trkpt><trkpt lat="29.779772186939322" lon="-8.668759637146046"><ele>1789.0</ele><time>2026-04-15T10:04:15Z</time></trkpt><trkpt lat="29.77990007721873" lon="-8.668730040187892"><ele>1789.0</ele><time>2026-04-15T10:04:16Z</time></trkpt><trkpt lat="29.78003239332627" lon="-8.668725673404268"><ele>1789.0</ele><time>2026-04-15T10:04:17Z</time></trkpt><trkpt lat="29.780163223535688" lon="-8.668715648090835"><ele>1789.0</ele><time>2026-04-15T10:04:18Z</time></trkpt><trkpt lat="29.78028772221777" lon="-8.668668377614067"><ele>1789.0</ele><time>2026-04-15T10:04:19Z</time></trkpt><trkpt lat="29.780406549164088" lon="-8.668616192770079"><ele>1789.0</ele><time>2026-04-15T10:04:20Z</time></trkpt><trkpt lat="29.78051424248182" lon="-8.668546274750003"><ele>1789.0</ele><time>2026-04-15T10:04:21Z</time></trkpt><trkpt lat="29.780601375215436" lon="-8.668448808132904"><ele>1789.0</ele><time>2026-04-15T10:04:22Z</time></trkpt><trkpt lat="29.780701721538954" lon="-8.668354044490812"><ele>1789.0</ele><time>2026-04-15T10:04:23Z</time></trkpt><trkpt lat="29.7808105501037" lon="-8.668268384268286"><ele>1789.0</ele><time>2026-04-15T10:04:24Z</time></trkpt><trkpt lat="29.78092388277921" lon="-8.668216452514866"><ele>1789.0</ele><time>2026-04-15T10:04:25Z</time></trkpt><trkpt lat="29.78103825909935" lon="-8.668159575234492"><ele>1789.0</ele><time>2026-04-15T10:04:26Z</time></trkpt><trkpt lat="29.781161060487207" lon="-8.668110822148048"><ele>1789.5</ele><time>2026-04-15T10:04:27Z</time></trkpt><trkpt lat="29.781288367893854" lon="-8.66805964367303"><ele>1790.0</ele><time>2026-04-15T10:04:28Z</time></trkpt><trkpt lat="29.78141047164032" lon="-8.6680159843302"><ele>1790.5</ele><time>2026-04-15T10:04:29Z</time></trkpt><trkpt lat="29.78153106740978" lon="-8.667960597317645"><ele>1791.0</ele><time>2026-04-15T10:04:30Z</time></trkpt><trkpt lat="29.78165128833124" lon="-8.667910745373815"><ele>1791.0</ele><time>2026-04-15T10:04:31Z</time></trkpt><trkpt lat="29.78177031354027" lon="-8.667856281692563"><ele>1791.0</ele><time>2026-04-15T10:04:32Z</time></trkpt><trkpt lat="29.781878099549218" lon="-8.667794570878026"><ele>1791.0</ele><time>2026-04-15T10:04:33Z</time></trkpt><trkpt lat="29.781973898565628" lon="-8.667715615902232"><ele>1791.0</ele><time>2026-04-15T10:04:34Z</time></trkpt><trkpt lat="29.78203915379568" lon="-8.667609785934914"><ele>1788.6</ele><time>2026-04-15T10:04:35Z</time></trkpt><trkpt lat="29.78211172103698" lon="-8.667511268957135"><ele>1786.1999999999998</ele><time>2026-04-15T10:04:36Z</time></trkpt><trkpt lat="29.78217449406316" lon="-8.66741156088025"><ele>1783.8000000000002</ele><time>2026-04-15T10:04:37Z</time></trkpt><trkpt lat="29.782239886546268" lon="-8.667310195567095"><ele>1781.4</ele><time>2026-04-15T10:04:38Z</time></trkpt><trkpt lat="29.782308114793164" lon="-8.667203343738414"><ele>1779.0</ele><time>2026-04-15T10:04:39Z</time></trkpt><trkpt lat="29.782379753166634" lon="-8.667091151317324"><ele>1779.0</ele><time>2026-04-15T10:04:40Z</time></trkpt><trkpt lat="29.78247230403614" lon="-8.666988171889402"><ele>1779.0</ele><time>2026-04-15T10:04:41Z</time></trkpt><trkpt lat="29.782546549980793" lon="-8.666868158075669"><ele>1779.0</ele><time>2026-04-15T10:04:42Z</time></trkpt><trkpt lat="29.782625708700706" lon="-8.666759012695195"><ele>1779.0</ele><time>2026-04-15T10:04:43Z</time></trkpt><trkpt lat="29.782698200182654" lon="-8.666650248756296"><ele>1775.6</ele><time>2026-04-15T10:04:44Z</time></trkpt><trkpt lat="29.782766363698055" lon="-8.66654224060962"><ele>1772.2</ele><time>2026-04-15T10:04:45Z</time></trkpt><trkpt lat="29.78282920844306" lon="-8.666438275434453"><ele>1768.7999999999997</ele><time>2026-04-15T10:04:46Z</time></trkpt><trkpt lat="29.78289036575613" lon="-8.666342803830979"><ele>1765.3999999999999</ele><time>2026-04-15T10:04:47Z</time></trkpt><trkpt lat="29.78294946022896" lon="-8.666250401746606"><ele>1762.0</ele><time>2026-04-15T10:04:48Z</time></trkpt><trkpt lat="29.78300885322211" lon="-8.666157958382854"><ele>1764.1999999999998</ele><time>2026-04-15T10:04:49Z</time></trkpt><trkpt lat="29.783067280094517" lon="-8.666064409110021"><ele>1766.3999999999999</ele><time>2026-04-15T10:04:50Z</time></trkpt><trkpt lat="29.783126884048354" lon="-8.665970388957547"><ele>1768.6000000000001</ele><time>2026-04-15T10:04:51Z</time></trkpt><trkpt lat="29.783186938047297" lon="-8.665874866995656"><ele>1770.8000000000002</ele><time>2026-04-15T10:04:52Z</time></trkpt><trkpt lat="29.78324485955465" lon="-8.665776969088668"><ele>1773.0</ele><time>2026-04-15T10:04:53Z</time></trkpt><trkpt lat="29.78330127993459" lon="-8.665690164045799"><ele>1773.0</ele><time>2026-04-15T10:04:54Z</time></trkpt><trkpt lat="29.783359682506735" lon="-8.665616459072071"><ele>1773.0</ele><time>2026-04-15T10:04:55Z</time></trkpt><trkpt lat="29.783424515012246" lon="-8.665555652095776"><ele>1773.0</ele><time>2026-04-15T10:04:56Z</time></trkpt><trkpt lat="29.783493989241556" lon="-8.665509939076472"><ele>1773.0</ele><time>2026-04-15T10:04:57Z</time></trkpt><trkpt lat="29.783569064292873" lon="-8.665468814877755"><ele>1773.0</ele><time>2026-04-15T10:04:58Z</time></trkpt><trkpt lat="29.783647796508134" lon="-8.665415383122424"><ele>1773.0</ele><time>2026-04-15T10:04:59Z</time></trkpt><trkpt lat="29.78372479810187" lon="-8.665353502112204"><ele>1774.4</ele><time>2026-04-15T10:05:00Z</time></trkpt><trkpt lat="29.78380376278034" lon="-8.665294845892008"><ele>1775.8000000000002</ele><time>2026-04-15T10:05:01Z</time></trkpt><trkpt lat="29.783885781014593" lon="-8.66523633331618"><ele>1777.2</ele><time>2026-04-15T10:05:02Z</time></trkpt><trkpt lat="29.783961135214742" lon="-8.66517870971872"><ele>1778.6</ele><time>2026-04-15T10:05:03Z</time></trkpt><trkpt lat="29.78403742347477" lon="-8.66512627751969"><ele>1780.0</ele><time>2026-04-15T10:05:04Z</time></trkpt><trkpt lat="29.784111399027545" lon="-8.665072992524685"><ele>1780.0</ele><time>2026-04-15T10:05:05Z</time></trkpt><trkpt lat="29.784169296846503" lon="-8.664996637245606"><ele>1780.0</ele><time>2026-04-15T10:05:06Z</time></trkpt><trkpt lat="29.784252320982233" lon="-8.664941244435166"><ele>1780.0</ele><time>2026-04-15T10:05:07Z</time></trkpt><trkpt lat="29.784330735256567" lon="-8.664870088296192"><ele>1780.0</ele><time>2026-04-15T10:05:08Z</time></trkpt><trkpt lat="29.784405663840367" lon="-8.664796066533258"><ele>1780.0</ele><time>2026-04-15T10:05:09Z</time></trkpt><trkpt lat="29.78448021954924" lon="-8.664726688726091"><ele>1779.8</ele><time>2026-04-15T10:05:10Z</time></trkpt><trkpt lat="29.78455680074303" lon="-8.66465787522966"><ele>1779.6</ele><time>2026-04-15T10:05:11Z</time></trkpt><trkpt lat="29.784640893839722" lon="-8.66458966524914"><ele>1779.4</ele><time>2026-04-15T10:05:12Z</time></trkpt><trkpt lat="29.7847286101349" lon="-8.664518685044653"><ele>1779.2</ele><time>2026-04-15T10:05:13Z</time></trkpt><trkpt lat="29.784819617708994" lon="-8.664441705963513"><ele>1779.0</ele><time>2026-04-15T10:05:14Z</time></trkpt><trkpt lat="29.78491096553754" lon="-8.664359533604596"><ele>1779.0</ele><time>2026-04-15T10:05:15Z</time></trkpt><trkpt lat="29.78500304970176" lon="-8.664270247663397"><ele>1779.0</ele><time>2026-04-15T10:05:16Z</time></trkpt><trkpt lat="29.785097818795744" lon="-8.664179687079454"><ele>1779.0</ele><time>2026-04-15T10:05:17Z</time></trkpt><trkpt lat="29.78519185391378" lon="-8.664077995887094"><ele>1779.0</ele><time>2026-04-15T10:05:18Z</time></trkpt><trkpt lat="29.78529003931843" lon="-8.663979242907931"><ele>1778.5</ele><time>2026-04-15T10:05:19Z</time></trkpt><trkpt lat="29.78537917322607" lon="-8.663871034697731"><ele>1778.0</ele><time>2026-04-15T10:05:20Z</time></trkpt><trkpt lat="29.78547625895471" lon="-8.663763597927685"><ele>1777.5</ele><time>2026-04-15T10:05:21Z</time></trkpt><trkpt lat="29.78556730893282" lon="-8.663640045389222"><ele>1777.0</ele><time>2026-04-15T10:05:22Z</time></trkpt><trkpt lat="29.785655059368807" lon="-8.66350916794411"><ele>1777.0</ele><time>2026-04-15T10:05:23Z</time></trkpt><trkpt lat="29.78575449735933" lon="-8.663376147532228"><ele>1777.0</ele><time>2026-04-15T10:05:24Z</time></trkpt><trkpt lat="29.78585331493657" lon="-8.663240253216033"><ele>1777.0</ele><time>2026-04-15T10:05:25Z</time></trkpt><trkpt lat="29.785947187077067" lon="-8.66311005593449"><ele>1777.25</ele><time>2026-04-15T10:05:26Z</time></trkpt><trkpt lat="29.786047613726712" lon="-8.662996829478642"><ele>1777.5</ele><time>2026-04-15T10:05:27Z</time></trkpt><trkpt lat="29.786138399090976" lon="-8.662881864691132"><ele>1777.75</ele><time>2026-04-15T10:05:28Z</time></trkpt><trkpt lat="29.786221680586646" lon="-8.66277432898287"><ele>1778.0</ele><time>2026-04-15T10:05:29Z</time></trkpt><trkpt lat="29.786304138582178" lon="-8.662672482357392"><ele>1778.0</ele><time>2026-04-15T10:05:30Z</time></trkpt><trkpt lat="29.78638217236906" lon="-8.662571774965253"><ele>1778.0</ele><time>2026-04-15T10:05:31Z</time></trkpt><trkpt lat="29.786464317667942" lon="-8.662474399955578"><ele>1778.0</ele><time>2026-04-15T10:05:32Z</time></trkpt><trkpt lat="29.78654991611036" lon="-8.662373295168502"><ele>1778.0</ele><time>2026-04-15T10:05:33Z</time></trkpt><trkpt lat="29.78663600462176" lon="-8.662265296424636"><ele>1778.0</ele><time>2026-04-15T10:05:34Z</time></trkpt><trkpt lat="29.786716982686563" lon="-8.662165617789707"><ele>1778.0000000000002</ele><time>2026-04-15T10:05:35Z</time></trkpt><trkpt lat="29.786790854728096" lon="-8.662075543290786"><ele>1778.0000000000002</ele><time>2026-04-15T10:05:36Z</time></trkpt><trkpt lat="29.786856123313814" lon="-8.661990541149056"><ele>1778.0</ele><time>2026-04-15T10:05:37Z</time></trkpt><trkpt lat="29.78690816628883" lon="-8.661901239342031"><ele>1778.0</ele><time>2026-04-15T10:05:38Z</time></trkpt><trkpt lat="29.786962287042176" lon="-8.66181985269346"><ele>1776.8000000000002</ele><time>2026-04-15T10:05:39Z</time></trkpt><trkpt lat="29.787029334815045" lon="-8.661742941856328"><ele>1775.6000000000001</ele><time>2026-04-15T10:05:40Z</time></trkpt><trkpt lat="29.787067612688915" lon="-8.661637384405298"><ele>1774.3999999999999</ele><time>2026-04-15T10:05:41Z</time></trkpt><trkpt lat="29.787121908016783" lon="-8.66153697021437"><ele>1773.1999999999998</ele><time>2026-04-15T10:05:42Z</time></trkpt><trkpt lat="29.787164576139432" lon="-8.66143384960774"><ele>1772.0</ele><time>2026-04-15T10:05:43Z</time></trkpt><trkpt lat="29.787209383169802" lon="-8.661331153434906"><ele>1772.0</ele><time>2026-04-15T10:05:44Z</time></trkpt><trkpt lat="29.787242839696095" lon="-8.661227246909231"><ele>1771.9999999999998</ele><time>2026-04-15T10:05:45Z</time></trkpt><trkpt lat="29.787293747344304" lon="-8.661128089339002"><ele>1771.9999999999998</ele><time>2026-04-15T10:05:46Z</time></trkpt><trkpt lat="29.7872991593842" lon="-8.66100100476646"><ele>1772.0</ele><time>2026-04-15T10:05:47Z</time></trkpt><trkpt lat="29.787325855995714" lon="-8.660862463836787"><ele>1772.0</ele><time>2026-04-15T10:05:48Z</time></trkpt><trkpt lat="29.787354900313918" lon="-8.660721905948549"><ele>1772.0</ele><time>2026-04-15T10:05:49Z</time></trkpt><trkpt lat="29.78740087199679" lon="-8.660578625086321"><ele>1772.0</ele><time>2026-04-15T10:05:50Z</time></trkpt><trkpt lat="29.787434269688248" lon="-8.66042560369944"><ele>1772.0</ele><time>2026-04-15T10:05:51Z</time></trkpt><trkpt lat="29.7874497519135" lon="-8.66026436390708"><ele>1772.0</ele><time>2026-04-15T10:05:52Z</time></trkpt><trkpt lat="29.787481031201853" lon="-8.660101682277453"><ele>1772.0</ele><time>2026-04-15T10:05:53Z</time></trkpt><trkpt lat="29.78751040908998" lon="-8.659948637477722"><ele>1772.0</ele><time>2026-04-15T10:05:54Z</time></trkpt><trkpt lat="29.78753920924221" lon="-8.659798381667233"><ele>1772.0</ele><time>2026-04-15T10:05:55Z</time></trkpt><trkpt lat="29.78756582519242" lon="-8.65965084086066"><ele>1772.0</ele><time>2026-04-15T10:05:56Z</time></trkpt><trkpt lat="29.78758969756854" lon="-8.659504656920602"><ele>1772.25</ele><time>2026-04-15T10:05:57Z</time></trkpt><trkpt lat="29.787614765078754" lon="-8.659351154511352"><ele>1772.5</ele><time>2026-04-15T10:05:58Z</time></trkpt><trkpt lat="29.78764086537938" lon="-8.659191327717982"><ele>1772.75</ele><time>2026-04-15T10:05:59Z</time></trkpt><trkpt lat="29.78766853605073" lon="-8.659021250734428"><ele>1773.0</ele><time>2026-04-15T10:06:00Z</time></trkpt><trkpt lat="29.78769302703262" lon="-8.658845100816212"><ele>1773.0</ele><time>2026-04-15T10:06:01Z</time></trkpt><trkpt lat="29.787725549875177" lon="-8.658667714039789"><ele>1773.0</ele><time>2026-04-15T10:06:02Z</time></trkpt><trkpt lat="29.787766942966147" lon="-8.658494169632208"><ele>1773.0</ele><time>2026-04-15T10:06:03Z</time></trkpt><trkpt lat="29.787826991982982" lon="-8.658319069088316"><ele>1774.0</ele><time>2026-04-15T10:06:04Z</time></trkpt><trkpt lat="29.78789401859923" lon="-8.658150422937707"><ele>1775.0</ele><time>2026-04-15T10:06:05Z</time></trkpt><trkpt lat="29.78795948254098" lon="-8.657992170398904"><ele>1776.0</ele><time>2026-04-15T10:06:06Z</time></trkpt><trkpt lat="29.788015677611725" lon="-8.657850374074329"><ele>1777.0</ele><time>2026-04-15T10:06:07Z</time></trkpt><trkpt lat="29.788068138862275" lon="-8.657717661015937"><ele>1777.0</ele><time>2026-04-15T10:06:08Z</time></trkpt><trkpt lat="29.788123288626775" lon="-8.657581091204227"><ele>1777.0</ele><time>2026-04-15T10:06:09Z</time></trkpt><trkpt lat="29.788181569515654" lon="-8.65744152085018"><ele>1777.0</ele><time>2026-04-15T10:06:10Z</time></trkpt><trkpt lat="29.788231707856607" lon="-8.657307506774261"><ele>1777.0</ele><time>2026-04-15T10:06:11Z</time></trkpt><trkpt lat="29.78826589197122" lon="-8.657182129737304"><ele>1777.0</ele><time>2026-04-15T10:06:12Z</time></trkpt><trkpt lat="29.788284120848836" lon="-8.657053928359309"><ele>1776.9999999999998</ele><time>2026-04-15T10:06:13Z</time></trkpt><trkpt lat="29.78826859671688" lon="-8.656936552138147"><ele>1776.9999999999998</ele><time>2026-04-15T10:06:14Z</time></trkpt><trkpt lat="29.788261339887956" lon="-8.65680310523435"><ele>1777.0</ele><time>2026-04-15T10:06:15Z</time></trkpt><trkpt lat="29.78825414619041" lon="-8.656670819192382"><ele>1777.0</ele><time>2026-04-15T10:06:16Z</time></trkpt><trkpt lat="29.788267044479554" lon="-8.656526733804899"><ele>1777.25</ele><time>2026-04-15T10:06:17Z</time></trkpt><trkpt lat="29.78827426092691" lon="-8.656388457092058"><ele>1777.5</ele><time>2026-04-15T10:06:18Z</time></trkpt><trkpt lat="29.788279554298303" lon="-8.656248528010334"><ele>1777.75</ele><time>2026-04-15T10:06:19Z</time></trkpt><trkpt lat="29.788272852946164" lon="-8.656111524106159"><ele>1778.0</ele><time>2026-04-15T10:06:20Z</time></trkpt><trkpt lat="29.78826598832638" lon="-8.655969237793228"><ele>1778.25</ele><time>2026-04-15T10:06:21Z</time></trkpt><trkpt lat="29.788249084297163" lon="-8.655828967054557"><ele>1778.5</ele><time>2026-04-15T10:06:22Z</time></trkpt><trkpt lat="29.788228204708524" lon="-8.655681719349102"><ele>1778.75</ele><time>2026-04-15T10:06:23Z</time></trkpt><trkpt lat="29.788207598627" lon="-8.655533336105663"><ele>1779.0</ele><time>2026-04-15T10:06:24Z</time></trkpt><trkpt lat="29.788184022980584" lon="-8.655386989572895"><ele>1780.25</ele><time>2026-04-15T10:06:25Z</time></trkpt><trkpt lat="29.78816774480032" lon="-8.655233749133469"><ele>1781.5</ele><time>2026-04-15T10:06:26Z</time></trkpt><trkpt lat="29.7881780856749" lon="-8.655085135344551"><ele>1782.75</ele><time>2026-04-15T10:06:27Z</time></trkpt><trkpt lat="29.788193374620352" lon="-8.654956183819214"><ele>1784.0</ele><time>2026-04-15T10:06:28Z</time></trkpt><trkpt lat="29.788246916297204" lon="-8.654850953030984"><ele>1783.9999999999998</ele><time>2026-04-15T10:06:29Z</time></trkpt><trkpt lat="29.78828847038915" lon="-8.65475969143149"><ele>1784.0</ele><time>2026-04-15T10:06:30Z</time></trkpt><trkpt lat="29.78832576622557" lon="-8.654676564126206"><ele>1784.0</ele><time>2026-04-15T10:06:31Z</time></trkpt><trkpt lat="29.78836162598418" lon="-8.6545950693732"><ele>1784.0</ele><time>2026-04-15T10:06:32Z</time></trkpt><trkpt lat="29.788400023669965" lon="-8.654504357694279"><ele>1783.9999999999998</ele><time>2026-04-15T10:06:33Z</time></trkpt><trkpt lat="29.788436611869205" lon="-8.654410698799758"><ele>1784.0</ele><time>2026-04-15T10:06:34Z</time></trkpt><trkpt lat="29.78847410942183" lon="-8.654303658813687"><ele>1781.4</ele><time>2026-04-15T10:06:35Z</time></trkpt><trkpt lat="29.788513225839765" lon="-8.654189597126956"><ele>1778.8000000000002</ele><time>2026-04-15T10:06:36Z</time></trkpt><trkpt lat="29.78855667407412" lon="-8.654080306143138"><ele>1776.1999999999998</ele><time>2026-04-15T10:06:37Z</time></trkpt><trkpt lat="29.788593715728236" lon="-8.65396425581014"><ele>1773.6</ele><time>2026-04-15T10:06:38Z</time></trkpt><trkpt lat="29.788630663497134" lon="-8.653841452908326"><ele>1771.0</ele><time>2026-04-15T10:06:39Z</time></trkpt><trkpt lat="29.78866957370858" lon="-8.65372167127633"><ele>1773.0</ele><time>2026-04-15T10:06:40Z</time></trkpt><trkpt lat="29.788716353515106" lon="-8.653613029910026"><ele>1775.0</ele><time>2026-04-15T10:06:41Z</time></trkpt><trkpt lat="29.78877377874444" lon="-8.65350668572421"><ele>1777.0</ele><time>2026-04-15T10:06:42Z</time></trkpt><trkpt lat="29.788839126337432" lon="-8.653410884630066"><ele>1779.0</ele><time>2026-04-15T10:06:43Z</time></trkpt><trkpt lat="29.788915821783178" lon="-8.653323722484544"><ele>1781.0</ele><time>2026-04-15T10:06:44Z</time></trkpt><trkpt lat="29.788993821691573" lon="-8.653245995961804"><ele>1781.0</ele><time>2026-04-15T10:06:45Z</time></trkpt><trkpt lat="29.78907456380473" lon="-8.653180748791653"><ele>1781.0</ele><time>2026-04-15T10:06:46Z</time></trkpt><trkpt lat="29.7891589135161" lon="-8.653123346542305"><ele>1781.0</ele><time>2026-04-15T10:06:47Z</time></trkpt><trkpt lat="29.789255515321194" lon="-8.65307619120547"><ele>1781.0</ele><time>2026-04-15T10:06:48Z</time></trkpt><trkpt lat="29.789355897557137" lon="-8.653027058771528"><ele>1781.0</ele><time>2026-04-15T10:06:49Z</time></trkpt><trkpt lat="29.78945602776778" lon="-8.652971106270614"><ele>1780.6</ele><time>2026-04-15T10:06:50Z</time></trkpt><trkpt lat="29.789554741279044" lon="-8.652922301221258"><ele>1780.1999999999998</ele><time>2026-04-15T10:06:51Z</time></trkpt><trkpt lat="29.78965744727022" lon="-8.652869779329828"><ele>1779.8000000000002</ele><time>2026-04-15T10:06:52Z</time></trkpt><trkpt lat="29.78975995854971" lon="-8.652815475105168"><ele>1779.4</ele><time>2026-04-15T10:06:53Z</time></trkpt><trkpt lat="29.78986468975956" lon="-8.652765049281562"><ele>1779.0</ele><time>2026-04-15T10:06:54Z</time></trkpt><trkpt lat="29.789971800342094" lon="-8.65272129767433"><ele>1779.0</ele><time>2026-04-15T10:06:55Z</time></trkpt><trkpt lat="29.79008192425764" lon="-8.652690868050907"><ele>1779.0</ele><time>2026-04-15T10:06:56Z</time></trkpt><trkpt lat="29.79019369497969" lon="-8.652670110702635"><ele>1779.0</ele><time>2026-04-15T10:06:57Z</time></trkpt><trkpt lat="29.790307925947058" lon="-8.652658263056189"><ele>1779.0</ele><time>2026-04-15T10:06:58Z</time></trkpt><trkpt lat="29.790424012313206" lon="-8.652645994378515"><ele>1778.75</ele><time>2026-04-15T10:06:59Z</time></trkpt><trkpt lat="29.79054012310253" lon="-8.652634469264745"><ele>1778.5</ele><time>2026-04-15T10:07:00Z</time></trkpt><trkpt lat="29.790661589505394" lon="-8.65262935419951"><ele>1778.25</ele><time>2026-04-15T10:07:01Z</time></trkpt><trkpt lat="29.790777651144463" lon="-8.65262424592705"><ele>1778.0</ele><time>2026-04-15T10:07:02Z</time></trkpt><trkpt lat="29.790885859501028" lon="-8.652624597841086"><ele>1778.0</ele><time>2026-04-15T10:07:03Z</time></trkpt><trkpt lat="29.790987112298122" lon="-8.65263102889129"><ele>1778.0000000000002</ele><time>2026-04-15T10:07:04Z</time></trkpt><trkpt lat="29.791083553782965" lon="-8.65263568529513"><ele>1778.0000000000002</ele><time>2026-04-15T10:07:05Z</time></trkpt><trkpt lat="29.791180018965978" lon="-8.652638592161075"><ele>1778.0</ele><time>2026-04-15T10:07:06Z</time></trkpt><trkpt lat="29.79127963247582" lon="-8.652632220124415"><ele>1778.0</ele><time>2026-04-15T10:07:07Z</time></trkpt><trkpt lat="29.791380940720625" lon="-8.65262522623166"><ele>1777.4</ele><time>2026-04-15T10:07:08Z</time></trkpt><trkpt lat="29.7914807142954" lon="-8.652619838901774"><ele>1776.8000000000002</ele><time>2026-04-15T10:07:09Z</time></trkpt><trkpt lat="29.79157664587603" lon="-8.652603351546052"><ele>1776.2</ele><time>2026-04-15T10:07:10Z</time></trkpt><trkpt lat="29.791675082255995" lon="-8.652585425526162"><ele>1775.6</ele><time>2026-04-15T10:07:11Z</time></trkpt><trkpt lat="29.791771594640977" lon="-8.65256471527289"><ele>1775.0</ele><time>2026-04-15T10:07:12Z</time></trkpt><trkpt lat="29.7918674236575" lon="-8.6525402808609"><ele>1773.4</ele><time>2026-04-15T10:07:13Z</time></trkpt><trkpt lat="29.79196431770539" lon="-8.652515770656443"><ele>1771.8</ele><time>2026-04-15T10:07:14Z</time></trkpt><trkpt lat="29.792059443116027" lon="-8.65248752783372"><ele>1770.1999999999998</ele><time>2026-04-15T10:07:15Z</time></trkpt><trkpt lat="29.79215454302368" lon="-8.652456683792337"><ele>1768.6</ele><time>2026-04-15T10:07:16Z</time></trkpt><trkpt lat="29.792248338876167" lon="-8.652419377129059"><ele>1767.0</ele><time>2026-04-15T10:07:17Z</time></trkpt><trkpt lat="29.79233348123183" lon="-8.65237480688333"><ele>1767.0</ele><time>2026-04-15T10:07:18Z</time></trkpt><trkpt lat="29.79241319122263" lon="-8.652323670773816"><ele>1767.0</ele><time>2026-04-15T10:07:19Z</time></trkpt><trkpt lat="29.792484904122595" lon="-8.652268479255673"><ele>1767.0</ele><time>2026-04-15T10:07:20Z</time></trkpt><trkpt lat="29.792548260404132" lon="-8.652210693745404"><ele>1767.0</ele><time>2026-04-15T10:07:21Z</time></trkpt><trkpt lat="29.792613806714044" lon="-8.65215214126035"><ele>1767.0</ele><time>2026-04-15T10:07:22Z</time></trkpt><trkpt lat="29.792674514953855" lon="-8.652086280680363"><ele>1767.0</ele><time>2026-04-15T10:07:23Z</time></trkpt><trkpt lat="29.79273478941486" lon="-8.652017729929957"><ele>1766.5</ele><time>2026-04-15T10:07:24Z</time></trkpt><trkpt lat="29.79279154110126" lon="-8.651946382452072"><ele>1766.0</ele><time>2026-04-15T10:07:25Z</time></trkpt><trkpt lat="29.792846118026745" lon="-8.651869033117023"><ele>1765.5</ele><time>2026-04-15T10:07:26Z</time></trkpt><trkpt lat="29.79290022291701" lon="-8.65179603362776"><ele>1765.0</ele><time>2026-04-15T10:07:27Z</time></trkpt><trkpt lat="29.79295185513731" lon="-8.651722497510093"><ele>1764.5</ele><time>2026-04-15T10:07:28Z</time></trkpt><trkpt lat="29.793001417523957" lon="-8.651641349146395"><ele>1764.0</ele><time>2026-04-15T10:07:29Z</time></trkpt><trkpt lat="29.793050859446645" lon="-8.651556257327185"><ele>1764.0</ele><time>2026-04-15T10:07:30Z</time></trkpt><trkpt lat="29.793104002660044" lon="-8.651475158107878"><ele>1764.0</ele><time>2026-04-15T10:07:31Z</time></trkpt><trkpt lat="29.79315835242148" lon="-8.65139052347104"><ele>1764.0</ele><time>2026-04-15T10:07:32Z</time></trkpt><trkpt lat="29.79320860075302" lon="-8.651308994719827"><ele>1764.0</ele><time>2026-04-15T10:07:33Z</time></trkpt><trkpt lat="29.79325560184533" lon="-8.651225122237888"><ele>1764.0</ele><time>2026-04-15T10:07:34Z</time></trkpt><trkpt lat="29.79330710786043" lon="-8.651143184295156"><ele>1764.0</ele><time>2026-04-15T10:07:35Z</time></trkpt><trkpt lat="29.793357492740107" lon="-8.651064758539903"><ele>1763.3333333333333</ele><time>2026-04-15T10:07:36Z</time></trkpt><trkpt lat="29.793405056546746" lon="-8.650982165533707"><ele>1762.6666666666665</ele><time>2026-04-15T10:07:37Z</time></trkpt><trkpt lat="29.79345140017805" lon="-8.65089981071966"><ele>1762.0</ele><time>2026-04-15T10:07:38Z</time></trkpt><trkpt lat="29.7935035957992" lon="-8.650820526050943"><ele>1761.3333333333333</ele><time>2026-04-15T10:07:39Z</time></trkpt><trkpt lat="29.79355960709026" lon="-8.650750424526882"><ele>1760.6666666666665</ele><time>2026-04-15T10:07:40Z</time></trkpt><trkpt lat="29.79362277436598" lon="-8.650689184167865"><ele>1760.0</ele><time>2026-04-15T10:07:41Z</time></trkpt><trkpt lat="29.793696549230116" lon="-8.650642370248931"><ele>1758.6666666666665</ele><time>2026-04-15T10:07:42Z</time></trkpt><trkpt lat="29.793770038669763" lon="-8.650606546530515"><ele>1757.3333333333333</ele><time>2026-04-15T10:07:43Z</time></trkpt><trkpt lat="29.79385172380646" lon="-8.6505823745457"><ele>1756.0</ele><time>2026-04-15T10:07:44Z</time></trkpt><trkpt lat="29.79392994751835" lon="-8.650568508796786"><ele>1754.6666666666665</ele><time>2026-04-15T10:07:45Z</time></trkpt><trkpt lat="29.794007114107675" lon="-8.65055404278468"><ele>1753.3333333333333</ele><time>2026-04-15T10:07:46Z</time></trkpt><trkpt lat="29.794086062239998" lon="-8.650533444362008"><ele>1752.0</ele><time>2026-04-15T10:07:47Z</time></trkpt><trkpt lat="29.794166189762734" lon="-8.650512058122425"><ele>1752.0</ele><time>2026-04-15T10:07:48Z</time></trkpt><trkpt lat="29.7942440981049" lon="-8.650493753385067"><ele>1752.0</ele><time>2026-04-15T10:07:49Z</time></trkpt><trkpt lat="29.79431936633645" lon="-8.650474221485585"><ele>1752.0</ele><time>2026-04-15T10:07:50Z</time></trkpt><trkpt lat="29.79439234565994" lon="-8.650452602652333"><ele>1752.0</ele><time>2026-04-15T10:07:51Z</time></trkpt><trkpt lat="29.794465672511585" lon="-8.650426404130254"><ele>1752.0</ele><time>2026-04-15T10:07:52Z</time></trkpt><trkpt lat="29.794532952736674" lon="-8.6503981985482"><ele>1752.0</ele><time>2026-04-15T10:07:53Z</time></trkpt><trkpt lat="29.794603865253666" lon="-8.65037156310516"><ele>1751.4285714285716</ele><time>2026-04-15T10:07:54Z</time></trkpt><trkpt lat="29.794673944616054" lon="-8.650338705140909"><ele>1750.8571428571427</ele><time>2026-04-15T10:07:55Z</time></trkpt><trkpt lat="29.79474568910705" lon="-8.65030817724875"><ele>1750.2857142857142</ele><time>2026-04-15T10:07:56Z</time></trkpt><trkpt lat="29.79481636465187" lon="-8.650273403039503"><ele>1749.7142857142858</ele><time>2026-04-15T10:07:57Z</time></trkpt><trkpt lat="29.794878912463233" lon="-8.650234210569963"><ele>1749.1428571428573</ele><time>2026-04-15T10:07:58Z</time></trkpt><trkpt lat="29.79493693000548" lon="-8.650191897447659"><ele>1748.5714285714284</ele><time>2026-04-15T10:07:59Z</time></trkpt><trkpt lat="29.7949969215662" lon="-8.650138106559584"><ele>1748.0</ele><time>2026-04-15T10:08:00Z</time></trkpt><trkpt lat="29.795053078484045" lon="-8.65007802670884"><ele>1748.0</ele><time>2026-04-15T10:08:01Z</time></trkpt><trkpt lat="29.795108160924716" lon="-8.650013951765889"><ele>1748.0</ele><time>2026-04-15T10:08:02Z</time></trkpt><trkpt lat="29.795150018429254" lon="-8.649933601198294"><ele>1748.0</ele><time>2026-04-15T10:08:03Z</time></trkpt><trkpt lat="29.79520706429776" lon="-8.649880706051956"><ele>1748.0</ele><time>2026-04-15T10:08:04Z</time></trkpt><trkpt lat="29.795278307745946" lon="-8.649852717167818"><ele>1748.0</ele><time>2026-04-15T10:08:05Z</time></trkpt><trkpt lat="29.7953314222181" lon="-8.649799802255735"><ele>1748.0</ele><time>2026-04-15T10:08:06Z</time></trkpt><trkpt lat="29.795390708578736" lon="-8.649763370558686"><ele>1748.0</ele><time>2026-04-15T10:08:07Z</time></trkpt><trkpt lat="29.795461360662998" lon="-8.649739992504413"><ele>1747.4999999999998</ele><time>2026-04-15T10:08:08Z</time></trkpt><trkpt lat="29.795527935204415" lon="-8.649717988789838"><ele>1747.0</ele><time>2026-04-15T10:08:09Z</time></trkpt><trkpt lat="29.795594605639835" lon="-8.649699535365489"><ele>1746.5</ele><time>2026-04-15T10:08:10Z</time></trkpt><trkpt lat="29.795658295270197" lon="-8.64968190698462"><ele>1746.0</ele><time>2026-04-15T10:08:11Z</time></trkpt><trkpt lat="29.79576819086317" lon="-8.649646273730799"><ele>1745.4999999999998</ele><time>2026-04-15T10:08:13Z</time></trkpt><trkpt lat="29.79583062698712" lon="-8.649618585612359"><ele>1745.0</ele><time>2026-04-15T10:08:14Z</time></trkpt><trkpt lat="29.795897944071484" lon="-8.649586358128694"><ele>1744.9999999999998</ele><time>2026-04-15T10:08:15Z</time></trkpt><trkpt lat="29.79595788823451" lon="-8.649553196876639"><ele>1745.0</ele><time>2026-04-15T10:08:16Z</time></trkpt><trkpt lat="29.796020878335803" lon="-8.649518536881194"><ele>1745.0</ele><time>2026-04-15T10:08:17Z</time></trkpt><trkpt lat="29.79607823033295" lon="-8.649487486058293"><ele>1745.0</ele><time>2026-04-15T10:08:18Z</time></trkpt><trkpt lat="29.796198752775485" lon="-8.649438527565911"><ele>1744.9999999999998</ele><time>2026-04-15T10:08:20Z</time></trkpt><trkpt lat="29.796257855721773" lon="-8.64939878436748"><ele>1745.0</ele><time>2026-04-15T10:08:21Z</time></trkpt><trkpt lat="29.79631734001442" lon="-8.649369277105238"><ele>1745.6</ele><time>2026-04-15T10:08:22Z</time></trkpt><trkpt lat="29.79637556947842" lon="-8.649338498383262"><ele>1746.2</ele><time>2026-04-15T10:08:23Z</time></trkpt><trkpt lat="29.796434285198142" lon="-8.649308921154372"><ele>1746.8000000000002</ele><time>2026-04-15T10:08:24Z</time></trkpt><trkpt lat="29.796543082767823" lon="-8.649248489069087"><ele>1747.4</ele><time>2026-04-15T10:08:26Z</time></trkpt><trkpt lat="29.79664001335546" lon="-8.64919722329748"><ele>1748.0</ele><time>2026-04-15T10:08:28Z</time></trkpt><trkpt lat="29.796726865178623" lon="-8.649145923396944"><ele>1748.0</ele><time>2026-04-15T10:08:30Z</time></trkpt><trkpt lat="29.796820787767633" lon="-8.649063650316373"><ele>1748.0000000000002</ele><time>2026-04-15T10:08:32Z</time></trkpt><trkpt lat="29.796841047637333" lon="-8.64898611483679"><ele>1748.0000000000002</ele><time>2026-04-15T10:08:33Z</time></trkpt><trkpt lat="29.796841864837102" lon="-8.64884495833241"><ele>1748.0</ele><time>2026-04-15T10:08:35Z</time></trkpt><trkpt lat="29.796840230719543" lon="-8.648688841918402"><ele>1748.0</ele><time>2026-04-15T10:08:37Z</time></trkpt><trkpt lat="29.79684176579375" lon="-8.648595528928512"><ele>1746.9999999999998</ele><time>2026-04-15T10:08:38Z</time></trkpt><trkpt lat="29.79684337660222" lon="-8.648497612284121"><ele>1746.0</ele><time>2026-04-15T10:08:39Z</time></trkpt><trkpt lat="29.796845201367102" lon="-8.648398301707395"><ele>1745.0</ele><time>2026-04-15T10:08:40Z</time></trkpt><trkpt lat="29.79684646362604" lon="-8.648306169882483"><ele>1744.0</ele><time>2026-04-15T10:08:41Z</time></trkpt><trkpt lat="29.796844556007645" lon="-8.648210498678925"><ele>1742.9999999999998</ele><time>2026-04-15T10:08:42Z</time></trkpt><trkpt lat="29.79684249282984" lon="-8.64810702586404"><ele>1742.0</ele><time>2026-04-15T10:08:43Z</time></trkpt><trkpt lat="29.796840974333264" lon="-8.648006655912566"><ele>1742.3333333333333</ele><time>2026-04-15T10:08:44Z</time></trkpt><trkpt lat="29.79683421127825" lon="-8.64790660936113"><ele>1742.6666666666665</ele><time>2026-04-15T10:08:45Z</time></trkpt><trkpt lat="29.796817209172712" lon="-8.647824677113165"><ele>1743.0</ele><time>2026-04-15T10:08:46Z</time></trkpt><trkpt lat="29.79680596049356" lon="-8.647742501919586"><ele>1743.3333333333335</ele><time>2026-04-15T10:08:47Z</time></trkpt><trkpt lat="29.79679344274361" lon="-8.647614595707287"><ele>1743.6666666666667</ele><time>2026-04-15T10:08:49Z</time></trkpt><trkpt lat="29.796786271773115" lon="-8.647498780688636"><ele>1744.0</ele><time>2026-04-15T10:08:51Z</time></trkpt><trkpt lat="29.796796606631165" lon="-8.647422698060701"><ele>1744.0</ele><time>2026-04-15T10:10:21Z</time></trkpt><trkpt lat="29.7967968827259" lon="-8.64729652985585"><ele>1744.0</ele><time>2026-04-15T10:10:24Z</time></trkpt><trkpt lat="29.796819323668757" lon="-8.64722612234967"><ele>1744.0</ele><time>2026-04-15T10:10:25Z</time></trkpt><trkpt lat="29.79685165082997" lon="-8.647133066644475"><ele>1744.0</ele><time>2026-04-15T10:10:26Z</time></trkpt><trkpt lat="29.796891678954157" lon="-8.647031965289317"><ele>1744.0</ele><time>2026-04-15T10:10:27Z</time></trkpt><trkpt lat="29.796932926223782" lon="-8.646929769163968"><ele>1744.25</ele><time>2026-04-15T10:10:28Z</time></trkpt><trkpt lat="29.796970834742233" lon="-8.646821149730672"><ele>1744.5</ele><time>2026-04-15T10:10:29Z</time></trkpt><trkpt lat="29.797012832976918" lon="-8.646688221828887"><ele>1744.75</ele><time>2026-04-15T10:10:30Z</time></trkpt><trkpt lat="29.797058230122484" lon="-8.646545904079066"><ele>1745.0</ele><time>2026-04-15T10:10:31Z</time></trkpt><trkpt lat="29.797101453953243" lon="-8.646410751770045"><ele>1745.0</ele><time>2026-04-15T10:10:32Z</time></trkpt><trkpt lat="29.797141911260827" lon="-8.646283215201462"><ele>1745.0</ele><time>2026-04-15T10:10:33Z</time></trkpt><trkpt lat="29.797181973490893" lon="-8.646163122024467"><ele>1745.0</ele><time>2026-04-15T10:10:34Z</time></trkpt><trkpt lat="29.797220897745053" lon="-8.646047835624213"><ele>1745.0</ele><time>2026-04-15T10:10:35Z</time></trkpt><trkpt lat="29.797257240423097" lon="-8.645940195377019"><ele>1745.0</ele><time>2026-04-15T10:10:36Z</time></trkpt><trkpt lat="29.797294211772382" lon="-8.645835450310786"><ele>1743.3333333333333</ele><time>2026-04-15T10:10:37Z</time></trkpt><trkpt lat="29.797327496230444" lon="-8.645740403971416"><ele>1741.6666666666665</ele><time>2026-04-15T10:10:38Z</time></trkpt><trkpt lat="29.797359091877542" lon="-8.645650260208615"><ele>1740.0</ele><time>2026-04-15T10:10:39Z</time></trkpt><trkpt lat="29.79738768055418" lon="-8.645569468859613"><ele>1738.3333333333335</ele><time>2026-04-15T10:10:40Z</time></trkpt><trkpt lat="29.79741391705093" lon="-8.645495324740322"><ele>1736.6666666666667</ele><time>2026-04-15T10:10:41Z</time></trkpt><trkpt lat="29.79743798713065" lon="-8.645427302899884"><ele>1735.0</ele><time>2026-04-15T10:10:42Z</time></trkpt><trkpt lat="29.797487892544414" lon="-8.645333171457583"><ele>1734.142857142857</ele><time>2026-04-15T10:10:44Z</time></trkpt><trkpt lat="29.797498177196644" lon="-8.64525779916185"><ele>1733.2857142857142</ele><time>2026-04-15T10:10:47Z</time></trkpt><trkpt lat="29.79752265579537" lon="-8.645189723378898"><ele>1732.4285714285716</ele><time>2026-04-15T10:19:08Z</time></trkpt><trkpt lat="29.797548095018143" lon="-8.645118601045086"><ele>1731.5714285714284</ele><time>2026-04-15T10:19:14Z</time></trkpt><trkpt lat="29.79757320808193" lon="-8.64504839057374"><ele>1730.7142857142858</ele><time>2026-04-15T10:19:17Z</time></trkpt><trkpt lat="29.797601233137573" lon="-8.644971267471549"><ele>1729.857142857143</ele><time>2026-04-15T10:19:19Z</time></trkpt><trkpt lat="29.797637372484342" lon="-8.644873717783879"><ele>1729.0</ele><time>2026-04-15T10:19:21Z</time></trkpt><trkpt lat="29.79767547594582" lon="-8.644770866443345"><ele>1727.8000000000002</ele><time>2026-04-15T10:19:23Z</time></trkpt><trkpt lat="29.79771363104655" lon="-8.64466787570874"><ele>1726.6000000000001</ele><time>2026-04-15T10:19:25Z</time></trkpt><trkpt lat="29.797757246665736" lon="-8.644550145594781"><ele>1725.4</ele><time>2026-04-15T10:19:27Z</time></trkpt><trkpt lat="29.797805118443595" lon="-8.644420473227486"><ele>1724.2</ele><time>2026-04-15T10:19:29Z</time></trkpt><trkpt lat="29.7978496871768" lon="-8.644297748944638"><ele>1723.0</ele><time>2026-04-15T10:19:31Z</time></trkpt><trkpt lat="29.797882805846488" lon="-8.6441811451196"><ele>1723.0</ele><time>2026-04-15T10:19:33Z</time></trkpt><trkpt lat="29.797900435656217" lon="-8.644059873883966"><ele>1723.0000000000002</ele><time>2026-04-15T10:19:35Z</time></trkpt><trkpt lat="29.79787786249992" lon="-8.643947277205882"><ele>1723.0000000000002</ele><time>2026-04-15T10:19:37Z</time></trkpt><trkpt lat="29.797831179474738" lon="-8.643828525964915"><ele>1723.0</ele><time>2026-04-15T10:19:39Z</time></trkpt><trkpt lat="29.79776580435016" lon="-8.643706439169417"><ele>1723.0</ele><time>2026-04-15T10:19:41Z</time></trkpt><trkpt lat="29.797731065976542" lon="-8.643639488128532"><ele>1722.5000000000002</ele><time>2026-04-15T10:19:42Z</time></trkpt><trkpt lat="29.79767908409789" lon="-8.643539233226672"><ele>1722.0</ele><time>2026-04-15T10:19:44Z</time></trkpt><trkpt lat="29.79764609972159" lon="-8.64347250089977"><ele>1721.5</ele><time>2026-04-15T10:20:08Z</time></trkpt><trkpt lat="29.79760850142226" lon="-8.64339547024187"><ele>1721.0</ele><time>2026-04-15T10:20:10Z</time></trkpt><trkpt lat="29.797549949055806" lon="-8.643274860212376"><ele>1720.5000000000002</ele><time>2026-04-15T10:20:12Z</time></trkpt><trkpt lat="29.79751920407668" lon="-8.643211417759884"><ele>1720.0</ele><time>2026-04-15T10:20:13Z</time></trkpt><trkpt lat="29.797459921060383" lon="-8.643089038941731"><ele>1720.0000000000002</ele><time>2026-04-15T10:20:15Z</time></trkpt><trkpt lat="29.79742853181381" lon="-8.643024009133612"><ele>1720.0</ele><time>2026-04-15T10:20:16Z</time></trkpt><trkpt lat="29.797393309142016" lon="-8.642950774473833"><ele>1720.0</ele><time>2026-04-15T10:20:17Z</time></trkpt><trkpt lat="29.797358729795818" lon="-8.642878877394958"><ele>1720.0</ele><time>2026-04-15T10:20:18Z</time></trkpt><trkpt lat="29.797323070165636" lon="-8.642804546747035"><ele>1720.0000000000002</ele><time>2026-04-15T10:20:19Z</time></trkpt><trkpt lat="29.79729505318643" lon="-8.642737305999354"><ele>1720.0</ele><time>2026-04-15T10:20:20Z</time></trkpt><trkpt lat="29.79724290619449" lon="-8.642608319418082"><ele>1718.8</ele><time>2026-04-15T10:20:22Z</time></trkpt><trkpt lat="29.797226105236327" lon="-8.642467966088276"><ele>1717.6</ele><time>2026-04-15T10:20:24Z</time></trkpt><trkpt lat="29.797240791667768" lon="-8.642393302766612"><ele>1716.4</ele><time>2026-04-15T10:20:25Z</time></trkpt><trkpt lat="29.79736070928467" lon="-8.642349916931806"><ele>1715.2</ele><time>2026-04-15T10:20:26Z</time></trkpt><trkpt lat="29.79743088296296" lon="-8.642300743589065"><ele>1714.0</ele><time>2026-04-15T10:20:27Z</time></trkpt><trkpt lat="29.797511452869447" lon="-8.64224805455114"><ele>1714.0</ele><time>2026-04-15T10:20:28Z</time></trkpt><trkpt lat="29.797587408700256" lon="-8.642182773727775"><ele>1714.0</ele><time>2026-04-15T10:20:29Z</time></trkpt><trkpt lat="29.797667465922363" lon="-8.64212794001541"><ele>1714.0</ele><time>2026-04-15T10:20:30Z</time></trkpt><trkpt lat="29.797755584530293" lon="-8.642086367708258"><ele>1714.0</ele><time>2026-04-15T10:20:31Z</time></trkpt><trkpt lat="29.797833535984317" lon="-8.642025416162205"><ele>1714.0</ele><time>2026-04-15T10:20:32Z</time></trkpt><trkpt lat="29.79791360447533" lon="-8.641968869920783"><ele>1711.4</ele><time>2026-04-15T10:20:33Z</time></trkpt><trkpt lat="29.797997237091604" lon="-8.641920984023544"><ele>1708.8000000000002</ele><time>2026-04-15T10:20:34Z</time></trkpt><trkpt lat="29.798075384101136" lon="-8.641862082852354"><ele>1706.1999999999998</ele><time>2026-04-15T10:20:35Z</time></trkpt><trkpt lat="29.79816078954887" lon="-8.641816013184622"><ele>1703.6</ele><time>2026-04-15T10:20:36Z</time></trkpt><trkpt lat="29.798249104457508" lon="-8.641761407591803"><ele>1701.0</ele><time>2026-04-15T10:20:37Z</time></trkpt><trkpt lat="29.798343151784305" lon="-8.641705721190675"><ele>1701.0</ele><time>2026-04-15T10:20:38Z</time></trkpt><trkpt lat="29.798435923301685" lon="-8.641648994719937"><ele>1701.0</ele><time>2026-04-15T10:20:39Z</time></trkpt><trkpt lat="29.798526107093007" lon="-8.641592044279813"><ele>1701.0</ele><time>2026-04-15T10:20:40Z</time></trkpt><trkpt lat="29.79861100820362" lon="-8.641535361626048"><ele>1701.0</ele><time>2026-04-15T10:20:41Z</time></trkpt><trkpt lat="29.79869226340144" lon="-8.641482025142558"><ele>1701.0</ele><time>2026-04-15T10:20:42Z</time></trkpt><trkpt lat="29.79876101733344" lon="-8.641420284150941"><ele>1700.5</ele><time>2026-04-15T10:20:43Z</time></trkpt><trkpt lat="29.798827994021714" lon="-8.641357760137915"><ele>1700.0</ele><time>2026-04-15T10:20:44Z</time></trkpt><trkpt lat="29.798896116611765" lon="-8.641291234921768"><ele>1699.5</ele><time>2026-04-15T10:20:45Z</time></trkpt><trkpt lat="29.79896609859353" lon="-8.641225695450183"><ele>1699.0</ele><time>2026-04-15T10:20:46Z</time></trkpt><trkpt lat="29.799034692737056" lon="-8.641161793008468"><ele>1698.5</ele><time>2026-04-15T10:20:47Z</time></trkpt><trkpt lat="29.799096775261614" lon="-8.641095253821247"><ele>1698.0</ele><time>2026-04-15T10:20:48Z</time></trkpt><trkpt lat="29.79915844525286" lon="-8.64103589527262"><ele>1698.0</ele><time>2026-04-15T10:20:49Z</time></trkpt><trkpt lat="29.799224665160306" lon="-8.640975882015532"><ele>1698.0</ele><time>2026-04-15T10:20:50Z</time></trkpt><trkpt lat="29.799292661515466" lon="-8.640918527129648"><ele>1698.0</ele><time>2026-04-15T10:20:51Z</time></trkpt><trkpt lat="29.799373557937514" lon="-8.640861558867558"><ele>1698.0</ele><time>2026-04-15T10:20:52Z</time></trkpt><trkpt lat="29.799456081107596" lon="-8.640809947049846"><ele>1698.0</ele><time>2026-04-15T10:20:53Z</time></trkpt><trkpt lat="29.79952918169715" lon="-8.640770392488335"><ele>1698.0</ele><time>2026-04-15T10:20:54Z</time></trkpt><trkpt lat="29.79960051753845" lon="-8.640727666546157"><ele>1697.1666666666667</ele><time>2026-04-15T10:20:55Z</time></trkpt><trkpt lat="29.79967235085801" lon="-8.640684932185955"><ele>1696.3333333333335</ele><time>2026-04-15T10:20:56Z</time></trkpt><trkpt lat="29.799747082500353" lon="-8.640642724597475"><ele>1695.5</ele><time>2026-04-15T10:20:57Z</time></trkpt><trkpt lat="29.799827536069568" lon="-8.640601391279256"><ele>1694.6666666666667</ele><time>2026-04-15T10:20:58Z</time></trkpt><trkpt lat="29.799910846582634" lon="-8.64056609384113"><ele>1693.8333333333335</ele><time>2026-04-15T10:20:59Z</time></trkpt><trkpt lat="29.799997788539635" lon="-8.640529950772626"><ele>1693.0</ele><time>2026-04-15T10:21:00Z</time></trkpt><trkpt lat="29.80008539238621" lon="-8.640491706867584"><ele>1694.2</ele><time>2026-04-15T10:21:01Z</time></trkpt><trkpt lat="29.800170800341068" lon="-8.640452178631234"><ele>1695.4</ele><time>2026-04-15T10:21:02Z</time></trkpt><trkpt lat="29.80025668503969" lon="-8.640411853613282"><ele>1696.6000000000001</ele><time>2026-04-15T10:21:03Z</time></trkpt><trkpt lat="29.800341579095704" lon="-8.640371369371671"><ele>1697.8000000000002</ele><time>2026-04-15T10:21:04Z</time></trkpt><trkpt lat="29.800424921326897" lon="-8.640332369125392"><ele>1699.0</ele><time>2026-04-15T10:21:05Z</time></trkpt><trkpt lat="29.800509458668007" lon="-8.640297971719631"><ele>1699.0</ele><time>2026-04-15T10:21:06Z</time></trkpt><trkpt lat="29.800596643192726" lon="-8.640264804319239"><ele>1699.0</ele><time>2026-04-15T10:21:07Z</time></trkpt><trkpt lat="29.80068790823972" lon="-8.640225312101217"><ele>1699.0</ele><time>2026-04-15T10:21:08Z</time></trkpt><trkpt lat="29.80078033271377" lon="-8.640184748804012"><ele>1699.0</ele><time>2026-04-15T10:21:09Z</time></trkpt><trkpt lat="29.800877212470674" lon="-8.640141573289371"><ele>1699.0</ele><time>2026-04-15T10:21:10Z</time></trkpt><trkpt lat="29.800973258596052" lon="-8.640099799846023"><ele>1698.2</ele><time>2026-04-15T10:21:11Z</time></trkpt><trkpt lat="29.80106530546631" lon="-8.640056905490068"><ele>1697.4</ele><time>2026-04-15T10:21:12Z</time></trkpt><trkpt lat="29.801155159383278" lon="-8.640013680569533"><ele>1696.6</ele><time>2026-04-15T10:21:13Z</time></trkpt><trkpt lat="29.80124481052611" lon="-8.639975430695225"><ele>1695.8</ele><time>2026-04-15T10:21:14Z</time></trkpt><trkpt lat="29.801332962995208" lon="-8.639936282195054"><ele>1695.0</ele><time>2026-04-15T10:21:15Z</time></trkpt><trkpt lat="29.80141478050084" lon="-8.639897357923097"><ele>1695.0</ele><time>2026-04-15T10:21:16Z</time></trkpt><trkpt lat="29.801495081512126" lon="-8.639856550495429"><ele>1695.0</ele><time>2026-04-15T10:21:17Z</time></trkpt><trkpt lat="29.8015721800058" lon="-8.63981360393745"><ele>1695.0</ele><time>2026-04-15T10:21:18Z</time></trkpt><trkpt lat="29.801650491469864" lon="-8.639769567155575"><ele>1695.0</ele><time>2026-04-15T10:21:19Z</time></trkpt><trkpt lat="29.80172648784441" lon="-8.639726015847277"><ele>1695.0</ele><time>2026-04-15T10:21:20Z</time></trkpt><trkpt lat="29.801799551765157" lon="-8.639680419287052"><ele>1695.0</ele><time>2026-04-15T10:21:21Z</time></trkpt><trkpt lat="29.801871354994827" lon="-8.639638663216171"><ele>1693.6666666666667</ele><time>2026-04-15T10:21:22Z</time></trkpt><trkpt lat="29.801947925065296" lon="-8.639599958892838"><ele>1692.3333333333335</ele><time>2026-04-15T10:21:23Z</time></trkpt><trkpt lat="29.802026903577143" lon="-8.639562362377363"><ele>1691.0</ele><time>2026-04-15T10:21:24Z</time></trkpt><trkpt lat="29.802106885379988" lon="-8.639525698509306"><ele>1689.6666666666667</ele><time>2026-04-15T10:21:25Z</time></trkpt><trkpt lat="29.802183790616525" lon="-8.639488702319671"><ele>1688.3333333333335</ele><time>2026-04-15T10:21:26Z</time></trkpt><trkpt lat="29.802257024234482" lon="-8.639451970568734"><ele>1687.0</ele><time>2026-04-15T10:21:27Z</time></trkpt><trkpt lat="29.802332151874648" lon="-8.639414303595386"><ele>1686.857142857143</ele><time>2026-04-15T10:21:28Z</time></trkpt><trkpt lat="29.802407952276766" lon="-8.639380472313801"><ele>1686.7142857142858</ele><time>2026-04-15T10:21:29Z</time></trkpt><trkpt lat="29.802476445259714" lon="-8.63935009144275"><ele>1686.5714285714284</ele><time>2026-04-15T10:21:30Z</time></trkpt><trkpt lat="29.80254280645533" lon="-8.639315160808396"><ele>1686.4285714285716</ele><time>2026-04-15T10:21:31Z</time></trkpt><trkpt lat="29.80260084907152" lon="-8.639269138402963"><ele>1686.2857142857142</ele><time>2026-04-15T10:21:32Z</time></trkpt><trkpt lat="29.802645186375578" lon="-8.639206545598226"><ele>1686.142857142857</ele><time>2026-04-15T10:21:33Z</time></trkpt><trkpt lat="29.802670325665996" lon="-8.639129957270217"><ele>1686.0</ele><time>2026-04-15T10:21:34Z</time></trkpt><trkpt lat="29.80264713057738" lon="-8.639035624030534"><ele>1686.0</ele><time>2026-04-15T10:21:35Z</time></trkpt><trkpt lat="29.802634128613164" lon="-8.638944441943615"><ele>1686.0</ele><time>2026-04-15T10:21:36Z</time></trkpt><trkpt lat="29.802606171411135" lon="-8.638854675146334"><ele>1686.0</ele><time>2026-04-15T10:21:37Z</time></trkpt><trkpt lat="29.802585472569618" lon="-8.638760429959502"><ele>1686.0</ele><time>2026-04-15T10:21:38Z</time></trkpt><trkpt lat="29.8025321354708" lon="-8.638688932777395"><ele>1686.0</ele><time>2026-04-15T10:21:39Z</time></trkpt><trkpt lat="29.80248374033858" lon="-8.638619347692156"><ele>1686.0</ele><time>2026-04-15T10:21:40Z</time></trkpt><trkpt lat="29.802428700929003" lon="-8.638553283107752"><ele>1684.3333333333333</ele><time>2026-04-15T10:21:41Z</time></trkpt><trkpt lat="29.802368731039117" lon="-8.638484908755089"><ele>1682.6666666666665</ele><time>2026-04-15T10:21:42Z</time></trkpt><trkpt lat="29.802303938888368" lon="-8.638419056496963"><ele>1681.0</ele><time>2026-04-15T10:21:43Z</time></trkpt><trkpt lat="29.80223565523852" lon="-8.638353703611573"><ele>1679.3333333333333</ele><time>2026-04-15T10:21:44Z</time></trkpt><trkpt lat="29.80216727179751" lon="-8.638301302844704"><ele>1677.6666666666665</ele><time>2026-04-15T10:21:45Z</time></trkpt><trkpt lat="29.802098211474785" lon="-8.638252869710405"><ele>1676.0</ele><time>2026-04-15T10:21:46Z</time></trkpt><trkpt lat="29.802027332314857" lon="-8.63820496749693"><ele>1675.9999999999998</ele><time>2026-04-15T10:21:47Z</time></trkpt><trkpt lat="29.801948397664862" lon="-8.638187757500617"><ele>1676.0</ele><time>2026-04-15T10:21:48Z</time></trkpt><trkpt lat="29.801868873873648" lon="-8.638165029718989"><ele>1676.0</ele><time>2026-04-15T10:21:49Z</time></trkpt><trkpt lat="29.801793843027426" lon="-8.63814587280144"><ele>1676.0</ele><time>2026-04-15T10:21:50Z</time></trkpt><trkpt lat="29.801722613115864" lon="-8.638127458569306"><ele>1675.9999999999998</ele><time>2026-04-15T10:21:51Z</time></trkpt><trkpt lat="29.801653837949104" lon="-8.638108520600072"><ele>1676.0</ele><time>2026-04-15T10:21:52Z</time></trkpt><trkpt lat="29.801533611418375" lon="-8.63805628527822"><ele>1676.3333333333333</ele><time>2026-04-15T10:21:54Z</time></trkpt><trkpt lat="29.80148407513861" lon="-8.63796708489412"><ele>1676.6666666666665</ele><time>2026-04-15T10:21:55Z</time></trkpt><trkpt lat="29.801473260486624" lon="-8.637886106108478"><ele>1677.0</ele><time>2026-04-15T10:21:56Z</time></trkpt><trkpt lat="29.801546931805664" lon="-8.637798795983981"><ele>1677.3333333333335</ele><time>2026-04-15T10:21:57Z</time></trkpt><trkpt lat="29.80158730248158" lon="-8.637741516435868"><ele>1677.6666666666667</ele><time>2026-04-15T10:21:58Z</time></trkpt><trkpt lat="29.80163692136553" lon="-8.637686107728916"><ele>1678.0</ele><time>2026-04-15T10:21:59Z</time></trkpt><trkpt lat="29.80168309818791" lon="-8.63762561696414"><ele>1676.8333333333335</ele><time>2026-04-15T10:22:00Z</time></trkpt><trkpt lat="29.801723081177823" lon="-8.63756070684757"><ele>1675.6666666666667</ele><time>2026-04-15T10:22:01Z</time></trkpt><trkpt lat="29.801755782624273" lon="-8.637492367928017"><ele>1674.5</ele><time>2026-04-15T10:22:02Z</time></trkpt><trkpt lat="29.801785283154523" lon="-8.63742337200895"><ele>1673.3333333333335</ele><time>2026-04-15T10:22:03Z</time></trkpt><trkpt lat="29.801817089844334" lon="-8.63734867917806"><ele>1672.1666666666667</ele><time>2026-04-15T10:22:04Z</time></trkpt><trkpt lat="29.801855474973934" lon="-8.637261389610083"><ele>1671.0</ele><time>2026-04-15T10:22:05Z</time></trkpt><trkpt lat="29.801892341593874" lon="-8.637166169173955"><ele>1671.0</ele><time>2026-04-15T10:22:06Z</time></trkpt><trkpt lat="29.801928876305993" lon="-8.637075317911938"><ele>1671.0</ele><time>2026-04-15T10:22:07Z</time></trkpt><trkpt lat="29.80196050070704" lon="-8.636983662621617"><ele>1671.0</ele><time>2026-04-15T10:22:08Z</time></trkpt><trkpt lat="29.801991417806583" lon="-8.636891552937636"><ele>1671.0</ele><time>2026-04-15T10:22:09Z</time></trkpt><trkpt lat="29.802020515082575" lon="-8.636800632932166"><ele>1671.0</ele><time>2026-04-15T10:22:10Z</time></trkpt><trkpt lat="29.802048918395766" lon="-8.636712721583025"><ele>1671.0</ele><time>2026-04-15T10:22:11Z</time></trkpt><trkpt lat="29.802073193374934" lon="-8.636628605779741"><ele>1670.0</ele><time>2026-04-15T10:22:12Z</time></trkpt><trkpt lat="29.802096280114952" lon="-8.636540601727182"><ele>1669.0</ele><time>2026-04-15T10:22:13Z</time></trkpt><trkpt lat="29.802127045767765" lon="-8.636453515004185"><ele>1668.0</ele><time>2026-04-15T10:22:14Z</time></trkpt><trkpt lat="29.802178613119143" lon="-8.636380014781707"><ele>1667.0</ele><time>2026-04-15T10:22:15Z</time></trkpt><trkpt lat="29.80223257852413" lon="-8.636298932144149"><ele>1666.0</ele><time>2026-04-15T10:22:16Z</time></trkpt><trkpt lat="29.80228884366642" lon="-8.636223710651429"><ele>1665.0</ele><time>2026-04-15T10:22:17Z</time></trkpt><trkpt lat="29.802343311361494" lon="-8.636144485701816"><ele>1664.6666666666667</ele><time>2026-04-15T10:22:18Z</time></trkpt><trkpt lat="29.802399114720945" lon="-8.636064361588558"><ele>1664.3333333333335</ele><time>2026-04-15T10:22:19Z</time></trkpt><trkpt lat="29.80245174496654" lon="-8.635983130652022"><ele>1664.0</ele><time>2026-04-15T10:22:20Z</time></trkpt><trkpt lat="29.802499687673638" lon="-8.635904807769405"><ele>1663.6666666666667</ele><time>2026-04-15T10:22:21Z</time></trkpt><trkpt lat="29.802545177428698" lon="-8.635829493670474"><ele>1663.3333333333335</ele><time>2026-04-15T10:22:22Z</time></trkpt><trkpt lat="29.802591607489763" lon="-8.635754190575971"><ele>1663.0</ele><time>2026-04-15T10:22:23Z</time></trkpt><trkpt lat="29.8026364420552" lon="-8.63567750572013"><ele>1663.0000000000002</ele><time>2026-04-15T10:22:24Z</time></trkpt><trkpt lat="29.80268873219956" lon="-8.635597505226206"><ele>1663.0</ele><time>2026-04-15T10:22:25Z</time></trkpt><trkpt lat="29.802742067274316" lon="-8.635517670044962"><ele>1663.0</ele><time>2026-04-15T10:22:26Z</time></trkpt><trkpt lat="29.802796493196762" lon="-8.635428611247223"><ele>1663.0</ele><time>2026-04-15T10:22:27Z</time></trkpt><trkpt lat="29.802848553273865" lon="-8.635339337326583"><ele>1663.0000000000002</ele><time>2026-04-15T10:22:28Z</time></trkpt><trkpt lat="29.802905383859468" lon="-8.635264370906768"><ele>1663.0</ele><time>2026-04-15T10:22:29Z</time></trkpt><trkpt lat="29.802969443783653" lon="-8.635198623374418"><ele>1663.0</ele><time>2026-04-15T10:22:30Z</time></trkpt><trkpt lat="29.803039315217838" lon="-8.635135142199866"><ele>1663.0</ele><time>2026-04-15T10:22:31Z</time></trkpt><trkpt lat="29.803113005374346" lon="-8.635073431475524"><ele>1663.0</ele><time>2026-04-15T10:22:32Z</time></trkpt><trkpt lat="29.803197043922975" lon="-8.635020911999206"><ele>1663.0</ele><time>2026-04-15T10:22:33Z</time></trkpt><trkpt lat="29.803275159356733" lon="-8.634963183768045"><ele>1663.0</ele><time>2026-04-15T10:22:34Z</time></trkpt><trkpt lat="29.80334870931939" lon="-8.634907232250397"><ele>1663.0000000000002</ele><time>2026-04-15T10:22:35Z</time></trkpt><trkpt lat="29.80342151885678" lon="-8.634856352602196"><ele>1663.0</ele><time>2026-04-15T10:22:36Z</time></trkpt><trkpt lat="29.803488128077817" lon="-8.634808478911147"><ele>1663.0</ele><time>2026-04-15T10:22:37Z</time></trkpt><trkpt lat="29.803545003158572" lon="-8.634760250569316"><ele>1663.0</ele><time>2026-04-15T10:22:38Z</time></trkpt><trkpt lat="29.803593889458433" lon="-8.63464880693319"><ele>1663.0000000000002</ele><time>2026-04-15T10:22:40Z</time></trkpt><trkpt lat="29.80353900209936" lon="-8.634560154312153"><ele>1663.0</ele><time>2026-04-15T10:22:42Z</time></trkpt><trkpt lat="29.803459958035287" lon="-8.634576020216814"><ele>1663.0000000000002</ele><time>2026-04-15T10:22:43Z</time></trkpt><trkpt lat="29.803389673774323" lon="-8.634586567820463"><ele>1663.0</ele><time>2026-04-15T10:22:44Z</time></trkpt><trkpt lat="29.80330639942315" lon="-8.63457477541888"><ele>1663.0</ele><time>2026-04-15T10:22:45Z</time></trkpt><trkpt lat="29.80323057981835" lon="-8.634564038685147"><ele>1663.0</ele><time>2026-04-15T10:22:46Z</time></trkpt><trkpt lat="29.803151814050818" lon="-8.634539726247073"><ele>1663.0000000000002</ele><time>2026-04-15T10:22:47Z</time></trkpt><trkpt lat="29.803072539517682" lon="-8.634502943192334"><ele>1663.0</ele><time>2026-04-15T10:22:48Z</time></trkpt><trkpt lat="29.80299884371575" lon="-8.634438854791528"><ele>1664.4</ele><time>2026-04-15T10:22:49Z</time></trkpt><trkpt lat="29.80293914714955" lon="-8.634376402528172"><ele>1665.8000000000002</ele><time>2026-04-15T10:22:50Z</time></trkpt><trkpt lat="29.8029139728725" lon="-8.634257695665529"><ele>1667.2</ele><time>2026-04-15T10:22:51Z</time></trkpt><trkpt lat="29.802895136073598" lon="-8.634151835386506"><ele>1668.6</ele><time>2026-04-15T10:22:52Z</time></trkpt><trkpt lat="29.802887813453548" lon="-8.63404053472919"><ele>1670.0</ele><time>2026-04-15T10:22:53Z</time></trkpt><trkpt lat="29.80288595836684" lon="-8.633922651967508"><ele>1670.0</ele><time>2026-04-15T10:22:54Z</time></trkpt><trkpt lat="29.802889734779416" lon="-8.633817649306755"><ele>1670.0</ele><time>2026-04-15T10:22:55Z</time></trkpt><trkpt lat="29.80289355937768" lon="-8.633712520109208"><ele>1670.0</ele><time>2026-04-15T10:22:56Z</time></trkpt><trkpt lat="29.80291639995725" lon="-8.633601895884672"><ele>1670.0</ele><time>2026-04-15T10:22:57Z</time></trkpt><trkpt lat="29.802937387629765" lon="-8.633498991604474"><ele>1670.0</ele><time>2026-04-15T10:22:58Z</time></trkpt><trkpt lat="29.802984607609456" lon="-8.633392516006568"><ele>1670.8</ele><time>2026-04-15T10:22:59Z</time></trkpt><trkpt lat="29.803044140493267" lon="-8.633297551207956"><ele>1671.6</ele><time>2026-04-15T10:23:00Z</time></trkpt><trkpt lat="29.803122714806502" lon="-8.6332079010158"><ele>1672.4</ele><time>2026-04-15T10:23:01Z</time></trkpt><trkpt lat="29.803201467126932" lon="-8.633130501689797"><ele>1673.2</ele><time>2026-04-15T10:23:02Z</time></trkpt><trkpt lat="29.803272337470176" lon="-8.633057431731741"><ele>1674.0</ele><time>2026-04-15T10:23:03Z</time></trkpt><trkpt lat="29.80333256497229" lon="-8.63297352787623"><ele>1674.0</ele><time>2026-04-15T10:23:04Z</time></trkpt><trkpt lat="29.80339039728766" lon="-8.632881079218784"><ele>1674.0</ele><time>2026-04-15T10:23:05Z</time></trkpt><trkpt lat="29.80341940481232" lon="-8.63277896676843"><ele>1674.0</ele><time>2026-04-15T10:23:06Z</time></trkpt><trkpt lat="29.803450748014697" lon="-8.632670921436084"><ele>1674.0</ele><time>2026-04-15T10:23:07Z</time></trkpt><trkpt lat="29.803473691423193" lon="-8.632564256813565"><ele>1674.0</ele><time>2026-04-15T10:23:08Z</time></trkpt><trkpt lat="29.803487933090608" lon="-8.632458076769238"><ele>1673.3333333333333</ele><time>2026-04-15T10:23:09Z</time></trkpt><trkpt lat="29.8034884416097" lon="-8.632363272145854"><ele>1672.6666666666665</ele><time>2026-04-15T10:23:10Z</time></trkpt><trkpt lat="29.803471597485732" lon="-8.632266829366046"><ele>1672.0</ele><time>2026-04-15T10:23:11Z</time></trkpt><trkpt lat="29.803453017598475" lon="-8.632179009824549"><ele>1671.3333333333333</ele><time>2026-04-15T10:23:12Z</time></trkpt><trkpt lat="29.8034066040051" lon="-8.632117357512707"><ele>1670.6666666666665</ele><time>2026-04-15T10:23:13Z</time></trkpt><trkpt lat="29.803350890950682" lon="-8.632065565416378"><ele>1670.0</ele><time>2026-04-15T10:23:14Z</time></trkpt><trkpt lat="29.803286699814553" lon="-8.632019447514137"><ele>1670.0</ele><time>2026-04-15T10:23:15Z</time></trkpt><trkpt lat="29.80320320779683" lon="-8.632006945188639"><ele>1670.0</ele><time>2026-04-15T10:23:16Z</time></trkpt><trkpt lat="29.803110241081768" lon="-8.631964186229338"><ele>1670.0</ele><time>2026-04-15T10:23:17Z</time></trkpt><trkpt lat="29.803017039264425" lon="-8.631921319267938"><ele>1670.0</ele><time>2026-04-15T10:23:18Z</time></trkpt><trkpt lat="29.802930686310106" lon="-8.63186061261437"><ele>1670.0</ele><time>2026-04-15T10:23:19Z</time></trkpt><trkpt lat="29.80284326085674" lon="-8.631800012877603"><ele>1668.0</ele><time>2026-04-15T10:23:20Z</time></trkpt><trkpt lat="29.802754831540515" lon="-8.631732056779624"><ele>1666.0</ele><time>2026-04-15T10:23:21Z</time></trkpt><trkpt lat="29.802682586148997" lon="-8.63162871005835"><ele>1664.0</ele><time>2026-04-15T10:23:22Z</time></trkpt><trkpt lat="29.802615922195827" lon="-8.63151576011789"><ele>1662.0</ele><time>2026-04-15T10:23:23Z</time></trkpt><trkpt lat="29.802549533266845" lon="-8.631401910775462"><ele>1662.0</ele><time>2026-04-15T10:23:24Z</time></trkpt><trkpt lat="29.802490786821707" lon="-8.63129550158685"><ele>1662.0</ele><time>2026-04-15T10:23:25Z</time></trkpt><trkpt lat="29.802440820512956" lon="-8.63120586297779"><ele>1662.0</ele><time>2026-04-15T10:23:26Z</time></trkpt><trkpt lat="29.802392846636476" lon="-8.631127570189918"><ele>1662.0</ele><time>2026-04-15T10:23:27Z</time></trkpt><trkpt lat="29.802352870003716" lon="-8.631052887073256"><ele>1662.0</ele><time>2026-04-15T10:23:28Z</time></trkpt><trkpt lat="29.802319641862812" lon="-8.630979963446423"><ele>1662.0</ele><time>2026-04-15T10:23:29Z</time></trkpt><trkpt lat="29.80230440509735" lon="-8.63089160218275"><ele>1664.6</ele><time>2026-04-15T10:23:30Z</time></trkpt><trkpt lat="29.80232767784485" lon="-8.630801442833842"><ele>1667.1999999999998</ele><time>2026-04-15T10:23:31Z</time></trkpt><trkpt lat="29.802343400881867" lon="-8.630726716603757"><ele>1669.8</ele><time>2026-04-15T10:23:32Z</time></trkpt><trkpt lat="29.80244740758058" lon="-8.63065551324805"><ele>1672.4</ele><time>2026-04-15T10:23:33Z</time></trkpt><trkpt lat="29.802517940173" lon="-8.630581819080176"><ele>1675.0</ele><time>2026-04-15T10:23:34Z</time></trkpt><trkpt lat="29.802595627896487" lon="-8.630500258855252"><ele>1676.4</ele><time>2026-04-15T10:23:35Z</time></trkpt><trkpt lat="29.802675062181777" lon="-8.63042000396923"><ele>1677.8</ele><time>2026-04-15T10:23:36Z</time></trkpt><trkpt lat="29.802753339398024" lon="-8.630344159530093"><ele>1679.1999999999998</ele><time>2026-04-15T10:23:37Z</time></trkpt><trkpt lat="29.802832234708028" lon="-8.630268574488255"><ele>1680.6</ele><time>2026-04-15T10:23:38Z</time></trkpt><trkpt lat="29.802912062363777" lon="-8.630192195957342"><ele>1682.0</ele><time>2026-04-15T10:23:39Z</time></trkpt><trkpt lat="29.802998355407087" lon="-8.630108408627606"><ele>1682.0</ele><time>2026-04-15T10:23:40Z</time></trkpt><trkpt lat="29.803087489729243" lon="-8.630021862546453"><ele>1682.0</ele><time>2026-04-15T10:23:41Z</time></trkpt><trkpt lat="29.803172543700082" lon="-8.629932736059596"><ele>1682.0</ele><time>2026-04-15T10:23:42Z</time></trkpt><trkpt lat="29.803255937571038" lon="-8.629834878932012"><ele>1682.0</ele><time>2026-04-15T10:23:43Z</time></trkpt><trkpt lat="29.80332789979052" lon="-8.629737133214697"><ele>1682.0</ele><time>2026-04-15T10:23:44Z</time></trkpt><trkpt lat="29.803400439764562" lon="-8.629631626717442"><ele>1682.0</ele><time>2026-04-15T10:23:45Z</time></trkpt><trkpt lat="29.803477454923133" lon="-8.629531096824767"><ele>1682.0</ele><time>2026-04-15T10:23:46Z</time></trkpt><trkpt lat="29.803542390495902" lon="-8.629421477681129"><ele>1682.0</ele><time>2026-04-15T10:23:47Z</time></trkpt><trkpt lat="29.803620096452697" lon="-8.629339302751847"><ele>1680.9999999999998</ele><time>2026-04-15T10:23:48Z</time></trkpt><trkpt lat="29.803703437850828" lon="-8.629290476760964"><ele>1680.0</ele><time>2026-04-15T10:23:49Z</time></trkpt><trkpt lat="29.803781659143006" lon="-8.62927382535279"><ele>1679.0</ele><time>2026-04-15T10:23:50Z</time></trkpt><trkpt lat="29.803854124456112" lon="-8.62927799512066"><ele>1678.0</ele><time>2026-04-15T10:23:51Z</time></trkpt><trkpt lat="29.803932974002226" lon="-8.629299446899864"><ele>1676.9999999999998</ele><time>2026-04-15T10:23:52Z</time></trkpt><trkpt lat="29.804015379327836" lon="-8.629340372257866"><ele>1676.0</ele><time>2026-04-15T10:23:53Z</time></trkpt><trkpt lat="29.804097446608974" lon="-8.629396649681388"><ele>1676.0</ele><time>2026-04-15T10:23:54Z</time></trkpt><trkpt lat="29.804185376291308" lon="-8.629466788227912"><ele>1676.0</ele><time>2026-04-15T10:23:55Z</time></trkpt><trkpt lat="29.80427897859209" lon="-8.629542101687498"><ele>1676.0</ele><time>2026-04-15T10:23:56Z</time></trkpt><trkpt lat="29.804369161808978" lon="-8.629610765814586"><ele>1676.0</ele><time>2026-04-15T10:23:57Z</time></trkpt><trkpt lat="29.804462002932116" lon="-8.629678515233396"><ele>1676.0</ele><time>2026-04-15T10:23:58Z</time></trkpt><trkpt lat="29.804551679311402" lon="-8.629748419678375"><ele>1676.8</ele><time>2026-04-15T10:23:59Z</time></trkpt><trkpt lat="29.80463474299636" lon="-8.629817995688802"><ele>1677.6</ele><time>2026-04-15T10:24:00Z</time></trkpt><trkpt lat="29.804705488686185" lon="-8.629889344754488"><ele>1678.4</ele><time>2026-04-15T10:24:01Z</time></trkpt><trkpt lat="29.804775818407506" lon="-8.629950142146086"><ele>1679.2</ele><time>2026-04-15T10:24:02Z</time></trkpt><trkpt lat="29.8048561146259" lon="-8.629992283727963"><ele>1680.0</ele><time>2026-04-15T10:24:03Z</time></trkpt><trkpt lat="29.80494984811156" lon="-8.63000515387405"><ele>1680.0</ele><time>2026-04-15T10:24:04Z</time></trkpt><trkpt lat="29.805051237208506" lon="-8.629994563182615"><ele>1680.0</ele><time>2026-04-15T10:24:05Z</time></trkpt><trkpt lat="29.805156304115826" lon="-8.629969433658392"><ele>1680.0</ele><time>2026-04-15T10:24:06Z</time></trkpt><trkpt lat="29.805249598438476" lon="-8.629946106357595"><ele>1680.0</ele><time>2026-04-15T10:24:07Z</time></trkpt><trkpt lat="29.805337199881375" lon="-8.629936068714992"><ele>1680.0</ele><time>2026-04-15T10:24:08Z</time></trkpt><trkpt lat="29.805412779792434" lon="-8.629940255703941"><ele>1679.1666666666667</ele><time>2026-04-15T10:24:09Z</time></trkpt><trkpt lat="29.805476469111525" lon="-8.62994605051798"><ele>1678.3333333333335</ele><time>2026-04-15T10:24:10Z</time></trkpt><trkpt lat="29.80558383278904" lon="-8.62989889441842"><ele>1677.5</ele><time>2026-04-15T10:24:12Z</time></trkpt><trkpt lat="29.805625961255256" lon="-8.629784464830907"><ele>1676.6666666666667</ele><time>2026-04-15T10:24:14Z</time></trkpt><trkpt lat="29.80557188229266" lon="-8.629721942383634"><ele>1675.8333333333335</ele><time>2026-04-15T10:24:15Z</time></trkpt><trkpt lat="29.805505919534152" lon="-8.629681437544996"><ele>1675.0</ele><time>2026-04-15T10:24:16Z</time></trkpt><trkpt lat="29.80542984903283" lon="-8.6296524812136"><ele>1675.0</ele><time>2026-04-15T10:24:17Z</time></trkpt><trkpt lat="29.805332418063507" lon="-8.629628896346164"><ele>1675.0</ele><time>2026-04-15T10:24:18Z</time></trkpt><trkpt lat="29.805221979378146" lon="-8.62962633078547"><ele>1675.0</ele><time>2026-04-15T10:24:19Z</time></trkpt><trkpt lat="29.805106650391643" lon="-8.629626330787207"><ele>1675.0</ele><time>2026-04-15T10:24:20Z</time></trkpt><trkpt lat="29.804999034849676" lon="-8.629627365224954"><ele>1675.0</ele><time>2026-04-15T10:24:21Z</time></trkpt><trkpt lat="29.8049051825371" lon="-8.629628731837634"><ele>1676.0</ele><time>2026-04-15T10:24:22Z</time></trkpt><trkpt lat="29.804812524939845" lon="-8.62961445422563"><ele>1677.0</ele><time>2026-04-15T10:24:23Z</time></trkpt><trkpt lat="29.804726421560108" lon="-8.629575175502636"><ele>1678.0</ele><time>2026-04-15T10:24:24Z</time></trkpt><trkpt lat="29.804656874781923" lon="-8.629473047906085"><ele>1679.0</ele><time>2026-04-15T10:24:25Z</time></trkpt><trkpt lat="29.804621339630984" lon="-8.629365221063098"><ele>1680.0</ele><time>2026-04-15T10:24:26Z</time></trkpt><trkpt lat="29.804602731325964" lon="-8.629258698215562"><ele>1676.8</ele><time>2026-04-15T10:24:27Z</time></trkpt><trkpt lat="29.8046149439916" lon="-8.629143086334665"><ele>1673.6</ele><time>2026-04-15T10:24:28Z</time></trkpt><trkpt lat="29.804611285563354" lon="-8.62903092732148"><ele>1670.4</ele><time>2026-04-15T10:24:29Z</time></trkpt><trkpt lat="29.80461116332219" lon="-8.628920819030803"><ele>1667.2</ele><time>2026-04-15T10:24:30Z</time></trkpt><trkpt lat="29.804598856921736" lon="-8.628813877433368"><ele>1664.0</ele><time>2026-04-15T10:24:31Z</time></trkpt><trkpt lat="29.804591405045347" lon="-8.628708614230842"><ele>1663.2</ele><time>2026-04-15T10:24:32Z</time></trkpt><trkpt lat="29.804572390866625" lon="-8.628598520678135"><ele>1662.4</ele><time>2026-04-15T10:24:33Z</time></trkpt><trkpt lat="29.80454940225757" lon="-8.628482617439381"><ele>1661.6</ele><time>2026-04-15T10:24:34Z</time></trkpt><trkpt lat="29.804526732314713" lon="-8.628366982519012"><ele>1660.8</ele><time>2026-04-15T10:24:35Z</time></trkpt><trkpt lat="29.80452319528368" lon="-8.628250062703433"><ele>1660.0</ele><time>2026-04-15T10:24:36Z</time></trkpt><trkpt lat="29.804497124397372" lon="-8.62814017435484"><ele>1660.0</ele><time>2026-04-15T10:24:37Z</time></trkpt><trkpt lat="29.804463360948084" lon="-8.62802234519915"><ele>1660.0</ele><time>2026-04-15T10:24:38Z</time></trkpt><trkpt lat="29.80440448280746" lon="-8.627913294568197"><ele>1660.0</ele><time>2026-04-15T10:24:39Z</time></trkpt><trkpt lat="29.804328198407333" lon="-8.62782082957501"><ele>1660.0</ele><time>2026-04-15T10:24:40Z</time></trkpt><trkpt lat="29.80426057600357" lon="-8.627723795709464"><ele>1660.0</ele><time>2026-04-15T10:24:41Z</time></trkpt><trkpt lat="29.804198904953765" lon="-8.627637552905512"><ele>1660.5000000000002</ele><time>2026-04-15T10:24:42Z</time></trkpt><trkpt lat="29.80413974576048" lon="-8.627558342743754"><ele>1661.0</ele><time>2026-04-15T10:24:43Z</time></trkpt><trkpt lat="29.80408342854626" lon="-8.62748211222613"><ele>1661.5</ele><time>2026-04-15T10:24:44Z</time></trkpt><trkpt lat="29.80402969453065" lon="-8.62740913579605"><ele>1662.0</ele><time>2026-04-15T10:24:45Z</time></trkpt><trkpt lat="29.803975286511704" lon="-8.627335243988242"><ele>1662.5000000000002</ele><time>2026-04-15T10:24:46Z</time></trkpt><trkpt lat="29.80391937734481" lon="-8.627259313474735"><ele>1663.0</ele><time>2026-04-15T10:24:47Z</time></trkpt><trkpt lat="29.803856825723138" lon="-8.62717412250525"><ele>1663.0</ele><time>2026-04-15T10:24:48Z</time></trkpt><trkpt lat="29.803789508666462" lon="-8.62708240234045"><ele>1663.0</ele><time>2026-04-15T10:24:49Z</time></trkpt><trkpt lat="29.80371658328869" lon="-8.6269892733683"><ele>1663.0</ele><time>2026-04-15T10:24:50Z</time></trkpt><trkpt lat="29.803644254143887" lon="-8.626894659440001"><ele>1663.0</ele><time>2026-04-15T10:24:51Z</time></trkpt><trkpt lat="29.803575245410915" lon="-8.626804366575687"><ele>1663.0</ele><time>2026-04-15T10:24:52Z</time></trkpt><trkpt lat="29.80350810878567" lon="-8.626716523224545"><ele>1663.4</ele><time>2026-04-15T10:24:53Z</time></trkpt><trkpt lat="29.80344065731892" lon="-8.626628179300809"><ele>1663.8000000000002</ele><time>2026-04-15T10:24:54Z</time></trkpt><trkpt lat="29.80337570737013" lon="-8.626543028673787"><ele>1664.2</ele><time>2026-04-15T10:24:55Z</time></trkpt><trkpt lat="29.803314173527667" lon="-8.626462356659099"><ele>1664.6</ele><time>2026-04-15T10:24:56Z</time></trkpt><trkpt lat="29.80325511739322" lon="-8.626385534356007"><ele>1665.0</ele><time>2026-04-15T10:24:57Z</time></trkpt><trkpt lat="29.803199141322132" lon="-8.626302838309357"><ele>1665.0</ele><time>2026-04-15T10:24:58Z</time></trkpt><trkpt lat="29.80311470980588" lon="-8.626264681036565"><ele>1665.0</ele><time>2026-04-15T10:24:59Z</time></trkpt><trkpt lat="29.803040890177442" lon="-8.62621520482679"><ele>1665.0</ele><time>2026-04-15T10:25:00Z</time></trkpt><trkpt lat="29.80296682118246" lon="-8.626187454886486"><ele>1665.0</ele><time>2026-04-15T10:25:01Z</time></trkpt><trkpt lat="29.802887316768494" lon="-8.626163363934925"><ele>1665.0</ele><time>2026-04-15T10:25:02Z</time></trkpt><trkpt lat="29.80280420747761" lon="-8.626147428587442"><ele>1665.0</ele><time>2026-04-15T10:25:03Z</time></trkpt><trkpt lat="29.802723567889394" lon="-8.62612213120391"><ele>1665.6</ele><time>2026-04-15T10:25:04Z</time></trkpt><trkpt lat="29.80262802719777" lon="-8.626131956475165"><ele>1666.2</ele><time>2026-04-15T10:25:05Z</time></trkpt><trkpt lat="29.80253698805555" lon="-8.626179447573776"><ele>1666.8000000000002</ele><time>2026-04-15T10:25:06Z</time></trkpt><trkpt lat="29.802440845725823" lon="-8.626218037512702"><ele>1667.4</ele><time>2026-04-15T10:25:07Z</time></trkpt><trkpt lat="29.80235527342454" lon="-8.626270159054112"><ele>1668.0</ele><time>2026-04-15T10:25:08Z</time></trkpt><trkpt lat="29.80227205417514" lon="-8.626316374079114"><ele>1668.0</ele><time>2026-04-15T10:25:09Z</time></trkpt><trkpt lat="29.80219508704805" lon="-8.626359274419531"><ele>1668.0</ele><time>2026-04-15T10:25:10Z</time></trkpt><trkpt lat="29.80212083283326" lon="-8.626396214408716"><ele>1668.0</ele><time>2026-04-15T10:25:11Z</time></trkpt><trkpt lat="29.802053190909866" lon="-8.626419853159085"><ele>1668.0</ele><time>2026-04-15T10:25:12Z</time></trkpt><trkpt lat="29.80195968591731" lon="-8.626415673321937"><ele>1668.0</ele><time>2026-04-15T10:25:13Z</time></trkpt><trkpt lat="29.801884736096728" lon="-8.626373929649427"><ele>1668.0</ele><time>2026-04-15T10:25:14Z</time></trkpt><trkpt lat="29.801829604289296" lon="-8.626301265617414"><ele>1664.2</ele><time>2026-04-15T10:25:15Z</time></trkpt><trkpt lat="29.80187766816222" lon="-8.626134302180992"><ele>1660.4</ele><time>2026-04-15T10:25:16Z</time></trkpt><trkpt lat="29.801889334330408" lon="-8.62604370097384"><ele>1656.6000000000001</ele><time>2026-04-15T10:25:17Z</time></trkpt><trkpt lat="29.80190752931048" lon="-8.625943320429496"><ele>1652.8000000000002</ele><time>2026-04-15T10:25:18Z</time></trkpt><trkpt lat="29.80192585210784" lon="-8.625832091624686"><ele>1649.0</ele><time>2026-04-15T10:25:19Z</time></trkpt><trkpt lat="29.801938246541148" lon="-8.625722897957539"><ele>1649.0</ele><time>2026-04-15T10:25:20Z</time></trkpt><trkpt lat="29.80194237760743" lon="-8.625612607111542"><ele>1649.0</ele><time>2026-04-15T10:25:21Z</time></trkpt><trkpt lat="29.801949281172604" lon="-8.625507521883765"><ele>1649.0</ele><time>2026-04-15T10:25:22Z</time></trkpt><trkpt lat="29.801940217689555" lon="-8.625401852546702"><ele>1649.0</ele><time>2026-04-15T10:25:23Z</time></trkpt><trkpt lat="29.801893268381196" lon="-8.625308027305415"><ele>1649.0</ele><time>2026-04-15T10:25:24Z</time></trkpt><trkpt lat="29.80184582905885" lon="-8.625225437399026"><ele>1647.4</ele><time>2026-04-15T10:25:25Z</time></trkpt><trkpt lat="29.80179266385134" lon="-8.62513505873447"><ele>1645.8000000000002</ele><time>2026-04-15T10:25:26Z</time></trkpt><trkpt lat="29.8017233165188" lon="-8.625050516081913"><ele>1644.1999999999998</ele><time>2026-04-15T10:25:27Z</time></trkpt><trkpt lat="29.801646873550716" lon="-8.624973857413147"><ele>1642.6</ele><time>2026-04-15T10:25:28Z</time></trkpt><trkpt lat="29.801572075139198" lon="-8.624909855050293"><ele>1641.0</ele><time>2026-04-15T10:25:29Z</time></trkpt><trkpt lat="29.801483641135153" lon="-8.624885939569866"><ele>1641.0</ele><time>2026-04-15T10:25:30Z</time></trkpt><trkpt lat="29.801395902243073" lon="-8.624891198688426"><ele>1641.0</ele><time>2026-04-15T10:25:31Z</time></trkpt><trkpt lat="29.801311056364433" lon="-8.624920495918591"><ele>1641.0</ele><time>2026-04-15T10:25:32Z</time></trkpt><trkpt lat="29.80122931141908" lon="-8.624959212138448"><ele>1641.0</ele><time>2026-04-15T10:25:33Z</time></trkpt><trkpt lat="29.801145458123212" lon="-8.625015537620884"><ele>1641.0</ele><time>2026-04-15T10:25:34Z</time></trkpt><trkpt lat="29.801066944411282" lon="-8.62508176547489"><ele>1641.0</ele><time>2026-04-15T10:25:35Z</time></trkpt><trkpt lat="29.80099710572438" lon="-8.625162355222582"><ele>1641.0</ele><time>2026-04-15T10:25:36Z</time></trkpt><trkpt lat="29.800916432237702" lon="-8.625223645410507"><ele>1641.0</ele><time>2026-04-15T10:25:37Z</time></trkpt><trkpt lat="29.800839144960847" lon="-8.62526807821522"><ele>1641.0</ele><time>2026-04-15T10:25:38Z</time></trkpt><trkpt lat="29.800750088571103" lon="-8.625286404950401"><ele>1641.0</ele><time>2026-04-15T10:25:39Z</time></trkpt><trkpt lat="29.800651874590105" lon="-8.625275539809339"><ele>1641.0</ele><time>2026-04-15T10:25:40Z</time></trkpt><trkpt lat="29.800554656973723" lon="-8.625250027995715"><ele>1641.0</ele><time>2026-04-15T10:25:41Z</time></trkpt><trkpt lat="29.800452955989332" lon="-8.625220464860721"><ele>1641.0</ele><time>2026-04-15T10:25:42Z</time></trkpt><trkpt lat="29.800352008495818" lon="-8.625189088774196"><ele>1641.0</ele><time>2026-04-15T10:25:43Z</time></trkpt><trkpt lat="29.80025444182936" lon="-8.625140868713956"><ele>1641.0</ele><time>2026-04-15T10:25:44Z</time></trkpt><trkpt lat="29.800159371092384" lon="-8.625106530147635"><ele>1640.4</ele><time>2026-04-15T10:25:45Z</time></trkpt><trkpt lat="29.800060579773145" lon="-8.625087831668798"><ele>1639.8</ele><time>2026-04-15T10:25:46Z</time></trkpt><trkpt lat="29.79997000574106" lon="-8.625048912290584"><ele>1639.2</ele><time>2026-04-15T10:25:47Z</time></trkpt><trkpt lat="29.799886247970704" lon="-8.624998545955352"><ele>1638.6000000000001</ele><time>2026-04-15T10:25:48Z</time></trkpt><trkpt lat="29.79980406557982" lon="-8.624945733458812"><ele>1638.0</ele><time>2026-04-15T10:25:49Z</time></trkpt><trkpt lat="29.79972016908114" lon="-8.624887826258343"><ele>1638.0</ele><time>2026-04-15T10:25:50Z</time></trkpt><trkpt lat="29.799638197109417" lon="-8.624815850068913"><ele>1638.0</ele><time>2026-04-15T10:25:51Z</time></trkpt><trkpt lat="29.79955902839566" lon="-8.62472633420855"><ele>1638.0</ele><time>2026-04-15T10:25:52Z</time></trkpt><trkpt lat="29.799489412461227" lon="-8.624628527559006"><ele>1638.0</ele><time>2026-04-15T10:25:53Z</time></trkpt><trkpt lat="29.79941935969336" lon="-8.624527853511308"><ele>1638.0</ele><time>2026-04-15T10:25:54Z</time></trkpt><trkpt lat="29.799352921780923" lon="-8.62442812319537"><ele>1635.8000000000002</ele><time>2026-04-15T10:25:55Z</time></trkpt><trkpt lat="29.799282388023062" lon="-8.624331395493986"><ele>1633.6</ele><time>2026-04-15T10:25:56Z</time></trkpt><trkpt lat="29.799208951070217" lon="-8.624233328853911"><ele>1631.4</ele><time>2026-04-15T10:25:57Z</time></trkpt><trkpt lat="29.799135048450434" lon="-8.62413738793643"><ele>1629.1999999999998</ele><time>2026-04-15T10:25:58Z</time></trkpt><trkpt lat="29.799053185498614" lon="-8.624044944169807"><ele>1627.0</ele><time>2026-04-15T10:25:59Z</time></trkpt><trkpt lat="29.798971123952974" lon="-8.62396035993542"><ele>1627.0</ele><time>2026-04-15T10:26:00Z</time></trkpt><trkpt lat="29.79890884009836" lon="-8.623857769558423"><ele>1627.0</ele><time>2026-04-15T10:26:01Z</time></trkpt><trkpt lat="29.798836205866575" lon="-8.623768804618445"><ele>1627.0</ele><time>2026-04-15T10:26:02Z</time></trkpt><trkpt lat="29.79876367320564" lon="-8.623674695648603"><ele>1627.0</ele><time>2026-04-15T10:26:03Z</time></trkpt><trkpt lat="29.79869414176729" lon="-8.623564393450586"><ele>1627.0</ele><time>2026-04-15T10:26:04Z</time></trkpt><trkpt lat="29.798624256665725" lon="-8.623450687586725"><ele>1624.25</ele><time>2026-04-15T10:26:05Z</time></trkpt><trkpt lat="29.798553068992778" lon="-8.623336177505905"><ele>1621.5</ele><time>2026-04-15T10:26:06Z</time></trkpt><trkpt lat="29.798477640786636" lon="-8.623227114175535"><ele>1618.75</ele><time>2026-04-15T10:26:07Z</time></trkpt><trkpt lat="29.798402433260083" lon="-8.623113417087623"><ele>1616.0</ele><time>2026-04-15T10:26:08Z</time></trkpt><trkpt lat="29.7983290867652" lon="-8.623003174275798"><ele>1615.25</ele><time>2026-04-15T10:26:09Z</time></trkpt><trkpt lat="29.798253654589747" lon="-8.622897636440786"><ele>1614.5</ele><time>2026-04-15T10:26:10Z</time></trkpt><trkpt lat="29.798171199903752" lon="-8.622799644607126"><ele>1613.75</ele><time>2026-04-15T10:26:11Z</time></trkpt><trkpt lat="29.798112542459453" lon="-8.622685195561738"><ele>1613.0</ele><time>2026-04-15T10:26:12Z</time></trkpt><trkpt lat="29.798039827316835" lon="-8.622600930169886"><ele>1611.8000000000002</ele><time>2026-04-15T10:26:13Z</time></trkpt><trkpt lat="29.79799726466766" lon="-8.622504449248702"><ele>1610.6</ele><time>2026-04-15T10:26:14Z</time></trkpt><trkpt lat="29.797975471461882" lon="-8.622402235690615"><ele>1609.4</ele><time>2026-04-15T10:26:15Z</time></trkpt><trkpt lat="29.7979783148674" lon="-8.622293395632395"><ele>1608.1999999999998</ele><time>2026-04-15T10:26:16Z</time></trkpt><trkpt lat="29.79800554877893" lon="-8.622180978051261"><ele>1607.0</ele><time>2026-04-15T10:26:17Z</time></trkpt><trkpt lat="29.798024965259813" lon="-8.622070840799294"><ele>1606.8</ele><time>2026-04-15T10:26:18Z</time></trkpt><trkpt lat="29.79801798310408" lon="-8.621960014327417"><ele>1606.6</ele><time>2026-04-15T10:26:19Z</time></trkpt><trkpt lat="29.797998258842263" lon="-8.621860574067687"><ele>1606.3999999999999</ele><time>2026-04-15T10:26:20Z</time></trkpt><trkpt lat="29.797959234080942" lon="-8.621761184940297"><ele>1606.1999999999998</ele><time>2026-04-15T10:26:21Z</time></trkpt><trkpt lat="29.797916315310903" lon="-8.621657420505791"><ele>1606.0</ele><time>2026-04-15T10:26:22Z</time></trkpt><trkpt lat="29.797866024400662" lon="-8.621563206183094"><ele>1606.0</ele><time>2026-04-15T10:26:23Z</time></trkpt><trkpt lat="29.797806951459805" lon="-8.621476239652273"><ele>1606.0</ele><time>2026-04-15T10:26:24Z</time></trkpt><trkpt lat="29.797736625631504" lon="-8.62139361284367"><ele>1606.0</ele><time>2026-04-15T10:26:25Z</time></trkpt><trkpt lat="29.797662366529206" lon="-8.621310539580323"><ele>1606.0</ele><time>2026-04-15T10:26:26Z</time></trkpt><trkpt lat="29.797588210819285" lon="-8.621232748173362"><ele>1606.0</ele><time>2026-04-15T10:26:27Z</time></trkpt><trkpt lat="29.797515575723676" lon="-8.621156551835956"><ele>1605.0</ele><time>2026-04-15T10:26:28Z</time></trkpt><trkpt lat="29.79744255440916" lon="-8.621079950587024"><ele>1604.0</ele><time>2026-04-15T10:26:29Z</time></trkpt><trkpt lat="29.797373664404855" lon="-8.620992363551284"><ele>1603.0</ele><time>2026-04-15T10:26:30Z</time></trkpt><trkpt lat="29.79732272819899" lon="-8.620870831624293"><ele>1602.0</ele><time>2026-04-15T10:26:31Z</time></trkpt><trkpt lat="29.797299977776845" lon="-8.6207352254982"><ele>1601.0</ele><time>2026-04-15T10:26:32Z</time></trkpt><trkpt lat="29.79728012609717" lon="-8.620603974305897"><ele>1601.0</ele><time>2026-04-15T10:26:33Z</time></trkpt><trkpt lat="29.79726073543152" lon="-8.620468838151966"><ele>1601.0</ele><time>2026-04-15T10:26:34Z</time></trkpt><trkpt lat="29.79724070465705" lon="-8.620334534608826"><ele>1601.0</ele><time>2026-04-15T10:26:35Z</time></trkpt><trkpt lat="29.797218161807834" lon="-8.620202230053309"><ele>1601.0</ele><time>2026-04-15T10:26:36Z</time></trkpt><trkpt lat="29.797189510786097" lon="-8.620072873071132"><ele>1602.0</ele><time>2026-04-15T10:26:37Z</time></trkpt><trkpt lat="29.7971465539951" lon="-8.619956220992004"><ele>1603.0</ele><time>2026-04-15T10:26:38Z</time></trkpt><trkpt lat="29.797089923035525" lon="-8.6198431428227"><ele>1604.0</ele><time>2026-04-15T10:26:39Z</time></trkpt><trkpt lat="29.797032949074328" lon="-8.61972261898252"><ele>1605.0</ele><time>2026-04-15T10:26:40Z</time></trkpt><trkpt lat="29.796966411783647" lon="-8.619600550688096"><ele>1605.0</ele><time>2026-04-15T10:26:41Z</time></trkpt><trkpt lat="29.796904043810365" lon="-8.61948578879029"><ele>1605.0</ele><time>2026-04-15T10:26:42Z</time></trkpt><trkpt lat="29.796841355201746" lon="-8.61939470559063"><ele>1605.0</ele><time>2026-04-15T10:26:43Z</time></trkpt><trkpt lat="29.796789068036052" lon="-8.619314422767058"><ele>1605.0</ele><time>2026-04-15T10:26:44Z</time></trkpt><trkpt lat="29.79673350765517" lon="-8.619255930941424"><ele>1605.0</ele><time>2026-04-15T10:26:45Z</time></trkpt><trkpt lat="29.796671237709496" lon="-8.619214735409257"><ele>1603.8333333333333</ele><time>2026-04-15T10:26:46Z</time></trkpt><trkpt lat="29.796596132403053" lon="-8.619169327709448"><ele>1602.6666666666665</ele><time>2026-04-15T10:26:47Z</time></trkpt><trkpt lat="29.79651459879887" lon="-8.619152065104801"><ele>1601.5</ele><time>2026-04-15T10:26:48Z</time></trkpt><trkpt lat="29.796428613574193" lon="-8.619150583989082"><ele>1600.3333333333333</ele><time>2026-04-15T10:26:49Z</time></trkpt><trkpt lat="29.796336833216742" lon="-8.61915744944457"><ele>1599.1666666666665</ele><time>2026-04-15T10:26:50Z</time></trkpt><trkpt lat="29.796239139851586" lon="-8.619160200329546"><ele>1598.0</ele><time>2026-04-15T10:26:51Z</time></trkpt><trkpt lat="29.79613508773177" lon="-8.6191705357111"><ele>1598.0</ele><time>2026-04-15T10:26:52Z</time></trkpt><trkpt lat="29.796029470070557" lon="-8.619179455869823"><ele>1598.0</ele><time>2026-04-15T10:26:53Z</time></trkpt><trkpt lat="29.79592653736591" lon="-8.6191857054642"><ele>1598.0</ele><time>2026-04-15T10:26:54Z</time></trkpt><trkpt lat="29.795825525098973" lon="-8.619191580311181"><ele>1598.0</ele><time>2026-04-15T10:26:55Z</time></trkpt><trkpt lat="29.79572763882689" lon="-8.619196900018304"><ele>1598.0</ele><time>2026-04-15T10:26:56Z</time></trkpt><trkpt lat="29.795631283063397" lon="-8.619200730703312"><ele>1596.6666666666665</ele><time>2026-04-15T10:26:57Z</time></trkpt><trkpt lat="29.795538477324772" lon="-8.61920288082872"><ele>1595.3333333333333</ele><time>2026-04-15T10:26:58Z</time></trkpt><trkpt lat="29.795469385590433" lon="-8.619192180216912"><ele>1594.0</ele><time>2026-04-15T10:26:59Z</time></trkpt><trkpt lat="29.795405557392268" lon="-8.619147778115217"><ele>1592.6666666666665</ele><time>2026-04-15T10:27:00Z</time></trkpt><trkpt lat="29.7953518185712" lon="-8.619083394311247"><ele>1591.3333333333333</ele><time>2026-04-15T10:27:01Z</time></trkpt><trkpt lat="29.795317507537142" lon="-8.618965927592617"><ele>1590.0</ele><time>2026-04-15T10:27:02Z</time></trkpt><trkpt lat="29.795292214850267" lon="-8.61885408683833"><ele>1590.0</ele><time>2026-04-15T10:27:03Z</time></trkpt><trkpt lat="29.795262362693737" lon="-8.618738037404135"><ele>1590.0</ele><time>2026-04-15T10:27:04Z</time></trkpt><trkpt lat="29.79522960201957" lon="-8.61861504131678"><ele>1590.0</ele><time>2026-04-15T10:27:05Z</time></trkpt><trkpt lat="29.79519440372369" lon="-8.618489949012883"><ele>1590.0</ele><time>2026-04-15T10:27:06Z</time></trkpt><trkpt lat="29.79515969091081" lon="-8.618366465048258"><ele>1590.0</ele><time>2026-04-15T10:27:07Z</time></trkpt><trkpt lat="29.79512326178607" lon="-8.618236853579972"><ele>1589.8</ele><time>2026-04-15T10:27:08Z</time></trkpt><trkpt lat="29.795086858276854" lon="-8.618109339687297"><ele>1589.6</ele><time>2026-04-15T10:27:09Z</time></trkpt><trkpt lat="29.7950469497667" lon="-8.617986074351666"><ele>1589.4</ele><time>2026-04-15T10:27:10Z</time></trkpt><trkpt lat="29.795009530092372" lon="-8.617870686856179"><ele>1589.2</ele><time>2026-04-15T10:27:11Z</time></trkpt><trkpt lat="29.794964944275794" lon="-8.617778547337863"><ele>1589.0</ele><time>2026-04-15T10:27:12Z</time></trkpt><trkpt lat="29.79490995484979" lon="-8.617695383980616"><ele>1588.9999999999998</ele><time>2026-04-15T10:27:13Z</time></trkpt><trkpt lat="29.79484878569097" lon="-8.617610349876323"><ele>1589.0</ele><time>2026-04-15T10:27:14Z</time></trkpt><trkpt lat="29.79478987121245" lon="-8.617535532100135"><ele>1589.0</ele><time>2026-04-15T10:27:15Z</time></trkpt><trkpt lat="29.794739561209546" lon="-8.617473127861341"><ele>1589.0</ele><time>2026-04-15T10:27:16Z</time></trkpt><trkpt lat="29.794692776862803" lon="-8.617415816403309"><ele>1588.9999999999998</ele><time>2026-04-15T10:27:17Z</time></trkpt><trkpt lat="29.79465681391134" lon="-8.617344030477467"><ele>1589.0</ele><time>2026-04-15T10:27:18Z</time></trkpt><trkpt lat="29.794633978565862" lon="-8.617258882692585"><ele>1588.9999999999998</ele><time>2026-04-15T10:27:19Z</time></trkpt><trkpt lat="29.79466962965903" lon="-8.617149674598515"><ele>1589.0</ele><time>2026-04-15T10:27:20Z</time></trkpt><trkpt lat="29.794701634339155" lon="-8.61706902392526"><ele>1589.0</ele><time>2026-04-15T10:27:21Z</time></trkpt><trkpt lat="29.79472620613358" lon="-8.616993266550821"><ele>1589.0</ele><time>2026-04-15T10:27:22Z</time></trkpt><trkpt lat="29.79477894107917" lon="-8.616892933915665"><ele>1588.9999999999998</ele><time>2026-04-15T10:27:24Z</time></trkpt><trkpt lat="29.79473835142892" lon="-8.61680129162785"><ele>1589.0</ele><time>2026-04-15T10:27:26Z</time></trkpt><trkpt lat="29.794660483754004" lon="-8.616759932942337"><ele>1588.0</ele><time>2026-04-15T10:27:28Z</time></trkpt><trkpt lat="29.794553183838616" lon="-8.61680065618264"><ele>1587.0</ele><time>2026-04-15T10:27:30Z</time></trkpt><trkpt lat="29.794496057693184" lon="-8.616843165039182"><ele>1586.0</ele><time>2026-04-15T10:27:31Z</time></trkpt><trkpt lat="29.794395209113716" lon="-8.616892127639856"><ele>1585.0</ele><time>2026-04-15T10:27:33Z</time></trkpt><trkpt lat="29.794325000801283" lon="-8.616881289298075"><ele>1584.0</ele><time>2026-04-15T10:27:34Z</time></trkpt><trkpt lat="29.794256826064245" lon="-8.616766645143626"><ele>1584.0</ele><time>2026-04-15T10:27:35Z</time></trkpt><trkpt lat="29.794283437011227" lon="-8.616664935488577"><ele>1584.0</ele><time>2026-04-15T10:27:36Z</time></trkpt><trkpt lat="29.794331539292937" lon="-8.616585941480603"><ele>1584.0</ele><time>2026-04-15T10:27:37Z</time></trkpt><trkpt lat="29.79436798177093" lon="-8.616498601043439"><ele>1584.0</ele><time>2026-04-15T10:27:38Z</time></trkpt><trkpt lat="29.79441787114192" lon="-8.616402639685612"><ele>1584.0</ele><time>2026-04-15T10:27:39Z</time></trkpt><trkpt lat="29.79448504875385" lon="-8.616303899496142"><ele>1584.0</ele><time>2026-04-15T10:27:40Z</time></trkpt><trkpt lat="29.79455341009233" lon="-8.616211435378494"><ele>1584.0</ele><time>2026-04-15T10:27:41Z</time></trkpt><trkpt lat="29.794626250374492" lon="-8.61612328052418"><ele>1584.0</ele><time>2026-04-15T10:27:42Z</time></trkpt><trkpt lat="29.794696331405646" lon="-8.616043316759452"><ele>1584.0</ele><time>2026-04-15T10:27:43Z</time></trkpt><trkpt lat="29.79476020069485" lon="-8.615961363741517"><ele>1584.0</ele><time>2026-04-15T10:27:44Z</time></trkpt><trkpt lat="29.794817126030065" lon="-8.615874947872767"><ele>1582.8000000000002</ele><time>2026-04-15T10:27:45Z</time></trkpt><trkpt lat="29.794867952631137" lon="-8.615780656126281"><ele>1581.6000000000001</ele><time>2026-04-15T10:27:46Z</time></trkpt><trkpt lat="29.794911930287572" lon="-8.615679125832653"><ele>1580.4</ele><time>2026-04-15T10:27:47Z</time></trkpt><trkpt lat="29.794951240741693" lon="-8.615572296933776"><ele>1579.2</ele><time>2026-04-15T10:27:48Z</time></trkpt><trkpt lat="29.794982525639988" lon="-8.61545581620483"><ele>1578.0</ele><time>2026-04-15T10:27:49Z</time></trkpt><trkpt lat="29.795004659597538" lon="-8.615332325253583"><ele>1577.8000000000002</ele><time>2026-04-15T10:27:50Z</time></trkpt><trkpt lat="29.795010742488348" lon="-8.615212300282732"><ele>1577.6</ele><time>2026-04-15T10:27:51Z</time></trkpt><trkpt lat="29.795008441682864" lon="-8.61509470854597"><ele>1577.4</ele><time>2026-04-15T10:27:52Z</time></trkpt><trkpt lat="29.795003520721046" lon="-8.614989549405088"><ele>1577.1999999999998</ele><time>2026-04-15T10:27:53Z</time></trkpt><trkpt lat="29.79497865185434" lon="-8.614900232811179"><ele>1577.0</ele><time>2026-04-15T10:27:54Z</time></trkpt><trkpt lat="29.794945110962246" lon="-8.614820147645052"><ele>1577.0</ele><time>2026-04-15T10:27:55Z</time></trkpt><trkpt lat="29.794888398465982" lon="-8.614752634773799"><ele>1577.0</ele><time>2026-04-15T10:27:56Z</time></trkpt><trkpt lat="29.794822511074678" lon="-8.61466251272262"><ele>1577.0</ele><time>2026-04-15T10:27:57Z</time></trkpt><trkpt lat="29.79473019480207" lon="-8.614603385544678"><ele>1577.0</ele><time>2026-04-15T10:27:58Z</time></trkpt><trkpt lat="29.794633713797307" lon="-8.61453214502488"><ele>1577.0</ele><time>2026-04-15T10:27:59Z</time></trkpt><trkpt lat="29.794535588250767" lon="-8.614469225770701"><ele>1577.6666666666665</ele><time>2026-04-15T10:28:00Z</time></trkpt><trkpt lat="29.794437489431697" lon="-8.614411573439588"><ele>1578.3333333333333</ele><time>2026-04-15T10:28:01Z</time></trkpt><trkpt lat="29.794350928806047" lon="-8.614366761456038"><ele>1579.0</ele><time>2026-04-15T10:28:02Z</time></trkpt><trkpt lat="29.79427379229992" lon="-8.61432740919109"><ele>1579.6666666666665</ele><time>2026-04-15T10:28:03Z</time></trkpt><trkpt lat="29.794200899673278" lon="-8.614274955902724"><ele>1580.3333333333333</ele><time>2026-04-15T10:28:04Z</time></trkpt><trkpt lat="29.794143298816696" lon="-8.614225811785692"><ele>1581.0</ele><time>2026-04-15T10:28:05Z</time></trkpt><trkpt lat="29.794105617278376" lon="-8.614133148362352"><ele>1577.75</ele><time>2026-04-15T10:28:06Z</time></trkpt><trkpt lat="29.79415570203022" lon="-8.613941299688564"><ele>1574.5</ele><time>2026-04-15T10:28:08Z</time></trkpt><trkpt lat="29.79421539950231" lon="-8.613868429196799"><ele>1571.25</ele><time>2026-04-15T10:28:09Z</time></trkpt><trkpt lat="29.794254229512138" lon="-8.613764162148229"><ele>1568.0</ele><time>2026-04-15T10:28:10Z</time></trkpt><trkpt lat="29.79430248785502" lon="-8.613666208178582"><ele>1569.4</ele><time>2026-04-15T10:28:11Z</time></trkpt><trkpt lat="29.794349702466796" lon="-8.613569331674775"><ele>1570.8000000000002</ele><time>2026-04-15T10:28:12Z</time></trkpt><trkpt lat="29.794401376893546" lon="-8.613463658941985"><ele>1572.2</ele><time>2026-04-15T10:28:13Z</time></trkpt><trkpt lat="29.794458886490464" lon="-8.613360818605235"><ele>1573.6</ele><time>2026-04-15T10:28:14Z</time></trkpt><trkpt lat="29.79450917907625" lon="-8.613252788017238"><ele>1575.0</ele><time>2026-04-15T10:28:15Z</time></trkpt><trkpt lat="29.794554617470126" lon="-8.613146741119655"><ele>1575.0</ele><time>2026-04-15T10:28:16Z</time></trkpt><trkpt lat="29.79460100942758" lon="-8.613045618122293"><ele>1575.0</ele><time>2026-04-15T10:28:17Z</time></trkpt><trkpt lat="29.794648735406764" lon="-8.612942754329362"><ele>1575.0</ele><time>2026-04-15T10:28:18Z</time></trkpt><trkpt lat="29.794689224742264" lon="-8.612839991855806"><ele>1575.0</ele><time>2026-04-15T10:28:19Z</time></trkpt><trkpt lat="29.79472118716894" lon="-8.61273066661105"><ele>1575.0</ele><time>2026-04-15T10:28:20Z</time></trkpt><trkpt lat="29.79475107956951" lon="-8.612610323344791"><ele>1574.3333333333333</ele><time>2026-04-15T10:28:21Z</time></trkpt><trkpt lat="29.794749945889112" lon="-8.612494025612666"><ele>1573.6666666666665</ele><time>2026-04-15T10:28:22Z</time></trkpt><trkpt lat="29.794747397612845" lon="-8.612398536549517"><ele>1573.0</ele><time>2026-04-15T10:28:23Z</time></trkpt><trkpt lat="29.794741162128627" lon="-8.612296987452979"><ele>1572.3333333333333</ele><time>2026-04-15T10:28:24Z</time></trkpt><trkpt lat="29.794714702323027" lon="-8.61220421974778"><ele>1571.6666666666665</ele><time>2026-04-15T10:28:25Z</time></trkpt><trkpt lat="29.794669723242748" lon="-8.612130395252402"><ele>1571.0</ele><time>2026-04-15T10:28:26Z</time></trkpt><trkpt lat="29.794618650437204" lon="-8.612080311878453"><ele>1569.4</ele><time>2026-04-15T10:28:27Z</time></trkpt><trkpt lat="29.79451730453828" lon="-8.611979466439829"><ele>1567.8</ele><time>2026-04-15T10:28:29Z</time></trkpt><trkpt lat="29.794457299587556" lon="-8.6119207071115"><ele>1566.2</ele><time>2026-04-15T10:28:30Z</time></trkpt><trkpt lat="29.794389212278237" lon="-8.61185337888107"><ele>1564.6000000000001</ele><time>2026-04-15T10:28:31Z</time></trkpt><trkpt lat="29.79431301215106" lon="-8.61177735585303"><ele>1563.0</ele><time>2026-04-15T10:28:32Z</time></trkpt><trkpt lat="29.794229535806558" lon="-8.611708106631497"><ele>1563.0</ele><time>2026-04-15T10:28:33Z</time></trkpt><trkpt lat="29.794144732575862" lon="-8.611676227771905"><ele>1563.0</ele><time>2026-04-15T10:28:34Z</time></trkpt><trkpt lat="29.794050314273964" lon="-8.611631657642976"><ele>1563.0</ele><time>2026-04-15T10:28:35Z</time></trkpt><trkpt lat="29.793969529027272" lon="-8.611610090649899"><ele>1563.0</ele><time>2026-04-15T10:28:36Z</time></trkpt><trkpt lat="29.793883235607584" lon="-8.611590940224286"><ele>1563.0</ele><time>2026-04-15T10:28:37Z</time></trkpt><trkpt lat="29.793792911239322" lon="-8.611570796236819"><ele>1563.0</ele><time>2026-04-15T10:28:38Z</time></trkpt><trkpt lat="29.793710940557418" lon="-8.611550709474216"><ele>1563.0</ele><time>2026-04-15T10:28:39Z</time></trkpt><trkpt lat="29.793635371066262" lon="-8.611532011866014"><ele>1563.0</ele><time>2026-04-15T10:28:40Z</time></trkpt><trkpt lat="29.79356267373331" lon="-8.611514024901231"><ele>1563.0</ele><time>2026-04-15T10:28:41Z</time></trkpt><trkpt lat="29.79348303842866" lon="-8.611486102131579"><ele>1563.0</ele><time>2026-04-15T10:28:42Z</time></trkpt><trkpt lat="29.793404679954456" lon="-8.611455986985108"><ele>1563.0</ele><time>2026-04-15T10:28:43Z</time></trkpt><trkpt lat="29.79333301302972" lon="-8.611419047364647"><ele>1562.2</ele><time>2026-04-15T10:28:44Z</time></trkpt><trkpt lat="29.79326733577159" lon="-8.611354513452993"><ele>1561.4</ele><time>2026-04-15T10:28:45Z</time></trkpt><trkpt lat="29.793217177208682" lon="-8.6112816381896"><ele>1560.6000000000001</ele><time>2026-04-15T10:28:46Z</time></trkpt><trkpt lat="29.793185116949793" lon="-8.611183701464048"><ele>1559.8000000000002</ele><time>2026-04-15T10:28:47Z</time></trkpt><trkpt lat="29.793183766865088" lon="-8.611075869087431"><ele>1559.0</ele><time>2026-04-15T10:28:48Z</time></trkpt><trkpt lat="29.793210900622977" lon="-8.610963058320422"><ele>1558.0</ele><time>2026-04-15T10:28:49Z</time></trkpt><trkpt lat="29.79324848934259" lon="-8.610850146800448"><ele>1557.0</ele><time>2026-04-15T10:28:50Z</time></trkpt><trkpt lat="29.793276758530943" lon="-8.610736693147244"><ele>1556.0</ele><time>2026-04-15T10:28:51Z</time></trkpt><trkpt lat="29.793303766771402" lon="-8.61062830009051"><ele>1555.0</ele><time>2026-04-15T10:28:52Z</time></trkpt><trkpt lat="29.793329234824988" lon="-8.610527888762142"><ele>1554.0</ele><time>2026-04-15T10:28:53Z</time></trkpt><trkpt lat="29.793362288149485" lon="-8.610437660128651"><ele>1554.0</ele><time>2026-04-15T10:28:54Z</time></trkpt><trkpt lat="29.793369822619457" lon="-8.610345454584559"><ele>1554.0</ele><time>2026-04-15T10:28:55Z</time></trkpt><trkpt lat="29.793348091963352" lon="-8.610263116397828"><ele>1554.0</ele><time>2026-04-15T10:28:56Z</time></trkpt><trkpt lat="29.793319283306207" lon="-8.610189780707282"><ele>1554.0</ele><time>2026-04-15T10:28:57Z</time></trkpt><trkpt lat="29.79329737567048" lon="-8.610104191038614"><ele>1554.0</ele><time>2026-04-15T10:28:58Z</time></trkpt><trkpt lat="29.793269833573166" lon="-8.610021199570987"><ele>1554.0</ele><time>2026-04-15T10:28:59Z</time></trkpt><trkpt lat="29.793240728063335" lon="-8.609947687630713"><ele>1553.8333333333333</ele><time>2026-04-15T10:29:00Z</time></trkpt><trkpt lat="29.793180358694265" lon="-8.609919167091146"><ele>1553.6666666666665</ele><time>2026-04-15T10:29:01Z</time></trkpt><trkpt lat="29.793121942548247" lon="-8.60987672158008"><ele>1553.5</ele><time>2026-04-15T10:29:02Z</time></trkpt><trkpt lat="29.793058161774564" lon="-8.609849546148354"><ele>1553.3333333333333</ele><time>2026-04-15T10:29:03Z</time></trkpt><trkpt lat="29.7929740835428" lon="-8.609861907423522"><ele>1553.1666666666665</ele><time>2026-04-15T10:29:04Z</time></trkpt><trkpt lat="29.792891973399815" lon="-8.609915345874324"><ele>1553.0</ele><time>2026-04-15T10:29:05Z</time></trkpt><trkpt lat="29.79279432985352" lon="-8.60994884010766"><ele>1553.0</ele><time>2026-04-15T10:29:06Z</time></trkpt><trkpt lat="29.792692200833702" lon="-8.609983750699381"><ele>1553.0</ele><time>2026-04-15T10:29:07Z</time></trkpt><trkpt lat="29.79260034396042" lon="-8.610007655018187"><ele>1553.0</ele><time>2026-04-15T10:29:08Z</time></trkpt><trkpt lat="29.792507973420328" lon="-8.610020345842166"><ele>1553.0</ele><time>2026-04-15T10:29:09Z</time></trkpt><trkpt lat="29.79240242723154" lon="-8.610015767911968"><ele>1553.0</ele><time>2026-04-15T10:29:10Z</time></trkpt><trkpt lat="29.7922930812718" lon="-8.609972429798578"><ele>1553.4</ele><time>2026-04-15T10:29:11Z</time></trkpt><trkpt lat="29.792197436320393" lon="-8.609893929097868"><ele>1553.8000000000002</ele><time>2026-04-15T10:29:12Z</time></trkpt><trkpt lat="29.79211232702829" lon="-8.609812916146149"><ele>1554.2</ele><time>2026-04-15T10:29:13Z</time></trkpt><trkpt lat="29.792040793314136" lon="-8.609743268351352"><ele>1554.6</ele><time>2026-04-15T10:29:14Z</time></trkpt><trkpt lat="29.79197588506636" lon="-8.609669753236675"><ele>1555.0</ele><time>2026-04-15T10:29:15Z</time></trkpt><trkpt lat="29.79191438778398" lon="-8.60959431512588"><ele>1554.2</ele><time>2026-04-15T10:29:16Z</time></trkpt><trkpt lat="29.7918778543481" lon="-8.60947900450024"><ele>1553.4</ele><time>2026-04-15T10:29:17Z</time></trkpt><trkpt lat="29.791865358534807" lon="-8.609361154962912"><ele>1552.6</ele><time>2026-04-15T10:29:18Z</time></trkpt><trkpt lat="29.7918517800144" lon="-8.609240397575203"><ele>1551.8</ele><time>2026-04-15T10:29:19Z</time></trkpt><trkpt lat="29.791849233217274" lon="-8.609119082043241"><ele>1551.0</ele><time>2026-04-15T10:29:20Z</time></trkpt><trkpt lat="29.791848814714427" lon="-8.608999586465492"><ele>1551.0</ele><time>2026-04-15T10:29:21Z</time></trkpt><trkpt lat="29.79187003868042" lon="-8.608884048000972"><ele>1551.0</ele><time>2026-04-15T10:29:22Z</time></trkpt><trkpt lat="29.791878154975404" lon="-8.608768766626198"><ele>1551.0</ele><time>2026-04-15T10:29:23Z</time></trkpt><trkpt lat="29.791899033853944" lon="-8.608658110057842"><ele>1551.0</ele><time>2026-04-15T10:29:24Z</time></trkpt><trkpt lat="29.791913088267375" lon="-8.608551321882361"><ele>1551.0</ele><time>2026-04-15T10:29:25Z</time></trkpt><trkpt lat="29.792002663987677" lon="-8.608469345660462"><ele>1551.1999999999998</ele><time>2026-04-15T10:29:26Z</time></trkpt><trkpt lat="29.792082913148057" lon="-8.608388845646255"><ele>1551.3999999999999</ele><time>2026-04-15T10:29:27Z</time></trkpt><trkpt lat="29.792172046463367" lon="-8.608314086372124"><ele>1551.6</ele><time>2026-04-15T10:29:28Z</time></trkpt><trkpt lat="29.792259962055294" lon="-8.608243865691678"><ele>1551.8</ele><time>2026-04-15T10:29:29Z</time></trkpt><trkpt lat="29.792345601805266" lon="-8.608174957632766"><ele>1552.0</ele><time>2026-04-15T10:29:30Z</time></trkpt><trkpt lat="29.792427045634103" lon="-8.608099305371628"><ele>1552.0</ele><time>2026-04-15T10:29:31Z</time></trkpt><trkpt lat="29.792496785219203" lon="-8.608008313815489"><ele>1552.0</ele><time>2026-04-15T10:29:32Z</time></trkpt><trkpt lat="29.792561312071225" lon="-8.607900464422297"><ele>1552.0</ele><time>2026-04-15T10:29:33Z</time></trkpt><trkpt lat="29.79258651911821" lon="-8.60776901319201"><ele>1552.0</ele><time>2026-04-15T10:29:34Z</time></trkpt><trkpt lat="29.792614460927393" lon="-8.60763596051057"><ele>1550.8</ele><time>2026-04-15T10:29:35Z</time></trkpt><trkpt lat="29.792640596136522" lon="-8.6075067805804"><ele>1549.6</ele><time>2026-04-15T10:29:36Z</time></trkpt><trkpt lat="29.792662681304265" lon="-8.60738686358547"><ele>1548.3999999999999</ele><time>2026-04-15T10:29:37Z</time></trkpt><trkpt lat="29.792681237814456" lon="-8.607259831326335"><ele>1547.1999999999998</ele><time>2026-04-15T10:29:38Z</time></trkpt><trkpt lat="29.792698418795567" lon="-8.607134091337358"><ele>1546.0</ele><time>2026-04-15T10:29:39Z</time></trkpt><trkpt lat="29.792709074217264" lon="-8.607010046861724"><ele>1544.8</ele><time>2026-04-15T10:29:40Z</time></trkpt><trkpt lat="29.792714172684107" lon="-8.60689095881297"><ele>1543.6</ele><time>2026-04-15T10:29:41Z</time></trkpt><trkpt lat="29.792719073887376" lon="-8.606776478393197"><ele>1542.4</ele><time>2026-04-15T10:29:42Z</time></trkpt><trkpt lat="29.79272366622738" lon="-8.606664881685766"><ele>1541.2</ele><time>2026-04-15T10:29:43Z</time></trkpt><trkpt lat="29.79272620420747" lon="-8.606557978705872"><ele>1540.0</ele><time>2026-04-15T10:29:44Z</time></trkpt><trkpt lat="29.792731871842648" lon="-8.606452934176742"><ele>1540.0</ele><time>2026-04-15T10:29:45Z</time></trkpt><trkpt lat="29.792758280385502" lon="-8.606346412880859"><ele>1540.0</ele><time>2026-04-15T10:29:46Z</time></trkpt><trkpt lat="29.7928071077877" lon="-8.606253055726018"><ele>1540.0</ele><time>2026-04-15T10:29:47Z</time></trkpt><trkpt lat="29.79286361071178" lon="-8.606173060949372"><ele>1540.0</ele><time>2026-04-15T10:29:48Z</time></trkpt><trkpt lat="29.792961664992767" lon="-8.606128097741154"><ele>1540.0</ele><time>2026-04-15T10:29:49Z</time></trkpt><trkpt lat="29.79304470360992" lon="-8.606070785014538"><ele>1538.8</ele><time>2026-04-15T10:29:50Z</time></trkpt><trkpt lat="29.79313721412585" lon="-8.606034376791573"><ele>1537.6</ele><time>2026-04-15T10:29:51Z</time></trkpt><trkpt lat="29.793237553334475" lon="-8.606020902319031"><ele>1536.4</ele><time>2026-04-15T10:29:52Z</time></trkpt><trkpt lat="29.793339688643286" lon="-8.606018150119207"><ele>1535.2</ele><time>2026-04-15T10:29:53Z</time></trkpt><trkpt lat="29.793435787220464" lon="-8.606017939885094"><ele>1534.0</ele><time>2026-04-15T10:29:54Z</time></trkpt><trkpt lat="29.79352217339168" lon="-8.606016350191577"><ele>1533.5</ele><time>2026-04-15T10:29:55Z</time></trkpt><trkpt lat="29.793606158092736" lon="-8.606022182361535"><ele>1533.0</ele><time>2026-04-15T10:29:56Z</time></trkpt><trkpt lat="29.793693828888802" lon="-8.606037365059278"><ele>1532.5</ele><time>2026-04-15T10:29:57Z</time></trkpt><trkpt lat="29.793778929961842" lon="-8.606061106715181"><ele>1532.0</ele><time>2026-04-15T10:29:58Z</time></trkpt><trkpt lat="29.793857340206568" lon="-8.606092297926924"><ele>1531.5</ele><time>2026-04-15T10:29:59Z</time></trkpt><trkpt lat="29.79392697283495" lon="-8.606126853864735"><ele>1531.0</ele><time>2026-04-15T10:30:00Z</time></trkpt><trkpt lat="29.793992499922968" lon="-8.606159891491465"><ele>1531.0</ele><time>2026-04-15T10:30:01Z</time></trkpt><trkpt lat="29.794058672952765" lon="-8.606182559305402"><ele>1531.0</ele><time>2026-04-15T10:30:02Z</time></trkpt><trkpt lat="29.79412944655117" lon="-8.606186343526343"><ele>1531.0</ele><time>2026-04-15T10:30:03Z</time></trkpt><trkpt lat="29.794201086931285" lon="-8.606165353510987"><ele>1531.0</ele><time>2026-04-15T10:30:04Z</time></trkpt><trkpt lat="29.79426387840263" lon="-8.606118566499157"><ele>1531.0</ele><time>2026-04-15T10:30:05Z</time></trkpt><trkpt lat="29.794308319770618" lon="-8.606054067148431"><ele>1531.0</ele><time>2026-04-15T10:30:06Z</time></trkpt><trkpt lat="29.79432994761243" lon="-8.60597760586626"><ele>1531.0</ele><time>2026-04-15T10:30:07Z</time></trkpt><trkpt lat="29.794338287014927" lon="-8.605901488098887"><ele>1532.6666666666665</ele><time>2026-04-15T10:30:08Z</time></trkpt><trkpt lat="29.794349089130034" lon="-8.605817597212674"><ele>1534.3333333333333</ele><time>2026-04-15T10:30:09Z</time></trkpt><trkpt lat="29.794340032675507" lon="-8.605723434175044"><ele>1536.0</ele><time>2026-04-15T10:30:10Z</time></trkpt><trkpt lat="29.794366082297373" lon="-8.60563120828896"><ele>1537.6666666666665</ele><time>2026-04-15T10:30:11Z</time></trkpt><trkpt lat="29.794377118127972" lon="-8.605535443124866"><ele>1539.3333333333333</ele><time>2026-04-15T10:30:12Z</time></trkpt><trkpt lat="29.794399239475222" lon="-8.605446007619165"><ele>1541.0</ele><time>2026-04-15T10:30:13Z</time></trkpt><trkpt lat="29.794420613516614" lon="-8.605365238046712"><ele>1538.0</ele><time>2026-04-15T10:30:14Z</time></trkpt><trkpt lat="29.794489068767543" lon="-8.605311833779776"><ele>1535.0</ele><time>2026-04-15T10:30:15Z</time></trkpt><trkpt lat="29.79456053973847" lon="-8.60526700252183"><ele>1532.0</ele><time>2026-04-15T10:30:16Z</time></trkpt><trkpt lat="29.794653431818954" lon="-8.605237378617177"><ele>1529.0</ele><time>2026-04-15T10:30:17Z</time></trkpt><trkpt lat="29.79475991009312" lon="-8.605224578950642"><ele>1526.0</ele><time>2026-04-15T10:30:18Z</time></trkpt><trkpt lat="29.794864313142707" lon="-8.605213925177381"><ele>1526.0</ele><time>2026-04-15T10:30:19Z</time></trkpt><trkpt lat="29.794959320408882" lon="-8.605200652017235"><ele>1526.0</ele><time>2026-04-15T10:30:20Z</time></trkpt><trkpt lat="29.795048401806834" lon="-8.605178223780769"><ele>1526.0</ele><time>2026-04-15T10:30:21Z</time></trkpt><trkpt lat="29.795137697918825" lon="-8.60515289787095"><ele>1526.0</ele><time>2026-04-15T10:30:22Z</time></trkpt><trkpt lat="29.795231100061308" lon="-8.605120179589944"><ele>1526.0</ele><time>2026-04-15T10:30:23Z</time></trkpt><trkpt lat="29.795326214149725" lon="-8.605074193100654"><ele>1527.1999999999998</ele><time>2026-04-15T10:30:24Z</time></trkpt><trkpt lat="29.795418586467505" lon="-8.605013727784314"><ele>1528.3999999999999</ele><time>2026-04-15T10:30:25Z</time></trkpt><trkpt lat="29.795498602217986" lon="-8.604948022733375"><ele>1529.6</ele><time>2026-04-15T10:30:26Z</time></trkpt><trkpt lat="29.79556814861833" lon="-8.604878607203444"><ele>1530.8</ele><time>2026-04-15T10:30:27Z</time></trkpt><trkpt lat="29.795610665887146" lon="-8.60479279170156"><ele>1532.0</ele><time>2026-04-15T10:30:28Z</time></trkpt><trkpt lat="29.795670865229436" lon="-8.604711479795649"><ele>1532.0</ele><time>2026-04-15T10:30:29Z</time></trkpt><trkpt lat="29.795735789267308" lon="-8.604627552782562"><ele>1532.0</ele><time>2026-04-15T10:30:30Z</time></trkpt><trkpt lat="29.795800753117852" lon="-8.604549099074896"><ele>1532.0</ele><time>2026-04-15T10:30:31Z</time></trkpt><trkpt lat="29.795863252700588" lon="-8.604475369134446"><ele>1532.0</ele><time>2026-04-15T10:30:32Z</time></trkpt><trkpt lat="29.79594937454995" lon="-8.604421483562334"><ele>1532.0</ele><time>2026-04-15T10:30:33Z</time></trkpt><trkpt lat="29.796043198007627" lon="-8.60436388460517"><ele>1531.3999999999999</ele><time>2026-04-15T10:30:34Z</time></trkpt><trkpt lat="29.796148299266356" lon="-8.604320160657698"><ele>1530.8</ele><time>2026-04-15T10:30:35Z</time></trkpt><trkpt lat="29.79624262412908" lon="-8.604286466855742"><ele>1530.2</ele><time>2026-04-15T10:30:36Z</time></trkpt><trkpt lat="29.79633058708664" lon="-8.604249390786515"><ele>1529.6</ele><time>2026-04-15T10:30:37Z</time></trkpt><trkpt lat="29.79641160839294" lon="-8.604203329611641"><ele>1529.0</ele><time>2026-04-15T10:30:38Z</time></trkpt><trkpt lat="29.796487190048612" lon="-8.604148273878803"><ele>1529.0</ele><time>2026-04-15T10:30:39Z</time></trkpt><trkpt lat="29.79655655300359" lon="-8.604087721617708"><ele>1529.0</ele><time>2026-04-15T10:30:40Z</time></trkpt><trkpt lat="29.796620204627597" lon="-8.604023273362502"><ele>1529.0</ele><time>2026-04-15T10:30:41Z</time></trkpt><trkpt lat="29.796673304968976" lon="-8.603954346032332"><ele>1529.0</ele><time>2026-04-15T10:30:42Z</time></trkpt><trkpt lat="29.796716595727386" lon="-8.603884975345206"><ele>1529.0</ele><time>2026-04-15T10:30:43Z</time></trkpt><trkpt lat="29.79675939969719" lon="-8.60382454163328"><ele>1529.0</ele><time>2026-04-15T10:30:44Z</time></trkpt><trkpt lat="29.79679500627291" lon="-8.603763087447266"><ele>1528.9999999999998</ele><time>2026-04-15T10:30:45Z</time></trkpt><trkpt lat="29.796795379937276" lon="-8.6036873573091"><ele>1529.0</ele><time>2026-04-15T10:30:46Z</time></trkpt><trkpt lat="29.796808667050904" lon="-8.603610649180432"><ele>1529.0</ele><time>2026-04-15T10:30:47Z</time></trkpt><trkpt lat="29.79679443319699" lon="-8.603534622661256"><ele>1529.0</ele><time>2026-04-15T10:30:48Z</time></trkpt><trkpt lat="29.796764035673586" lon="-8.603457023494105"><ele>1529.0</ele><time>2026-04-15T10:30:49Z</time></trkpt><trkpt lat="29.79671419056621" lon="-8.60338785991177"><ele>1528.9999999999998</ele><time>2026-04-15T10:30:50Z</time></trkpt><trkpt lat="29.796659195575213" lon="-8.603302730368377"><ele>1529.0</ele><time>2026-04-15T10:30:51Z</time></trkpt><trkpt lat="29.796612545273025" lon="-8.603223486063843"><ele>1526.6</ele><time>2026-04-15T10:30:52Z</time></trkpt><trkpt lat="29.79657521061905" lon="-8.603155656712625"><ele>1524.2</ele><time>2026-04-15T10:30:53Z</time></trkpt><trkpt lat="29.79656213438867" lon="-8.6030593959481"><ele>1521.8</ele><time>2026-04-15T10:30:54Z</time></trkpt><trkpt lat="29.796587036670598" lon="-8.602906473578539"><ele>1519.3999999999999</ele><time>2026-04-15T10:30:56Z</time></trkpt><trkpt lat="29.796667127045005" lon="-8.602852104682793"><ele>1517.0</ele><time>2026-04-15T10:30:57Z</time></trkpt><trkpt lat="29.796728617248053" lon="-8.602812329368923"><ele>1516.3333333333335</ele><time>2026-04-15T10:30:58Z</time></trkpt><trkpt lat="29.796811866098356" lon="-8.602802642938801"><ele>1515.6666666666667</ele><time>2026-04-15T10:30:59Z</time></trkpt><trkpt lat="29.79688152016905" lon="-8.60278035133888"><ele>1515.0</ele><time>2026-04-15T10:31:00Z</time></trkpt><trkpt lat="29.796965655220166" lon="-8.602759148566951"><ele>1514.3333333333333</ele><time>2026-04-15T10:31:01Z</time></trkpt><trkpt lat="29.797057211575723" lon="-8.602740839870918"><ele>1513.6666666666665</ele><time>2026-04-15T10:31:02Z</time></trkpt><trkpt lat="29.79714586569196" lon="-8.602722721023882"><ele>1513.0</ele><time>2026-04-15T10:31:03Z</time></trkpt><trkpt lat="29.797233587475304" lon="-8.602708129502329"><ele>1513.0</ele><time>2026-04-15T10:31:04Z</time></trkpt><trkpt lat="29.797320480809105" lon="-8.60269661463781"><ele>1513.0</ele><time>2026-04-15T10:31:05Z</time></trkpt><trkpt lat="29.79740796079954" lon="-8.602688203169716"><ele>1513.0</ele><time>2026-04-15T10:31:06Z</time></trkpt><trkpt lat="29.797498337687102" lon="-8.602683740936474"><ele>1513.0</ele><time>2026-04-15T10:31:07Z</time></trkpt><trkpt lat="29.797592197637165" lon="-8.602680072408022"><ele>1513.0</ele><time>2026-04-15T10:31:08Z</time></trkpt><trkpt lat="29.797688440540718" lon="-8.602683217489728"><ele>1512.2</ele><time>2026-04-15T10:31:09Z</time></trkpt><trkpt lat="29.797788264062376" lon="-8.602685129043406"><ele>1511.4</ele><time>2026-04-15T10:31:10Z</time></trkpt><trkpt lat="29.797887380830517" lon="-8.60268890786892"><ele>1510.6000000000001</ele><time>2026-04-15T10:31:11Z</time></trkpt><trkpt lat="29.797987472630776" lon="-8.602694858674068"><ele>1509.8000000000002</ele><time>2026-04-15T10:31:12Z</time></trkpt><trkpt lat="29.79808600561352" lon="-8.602699797978973"><ele>1509.0</ele><time>2026-04-15T10:31:13Z</time></trkpt><trkpt lat="29.798186507651984" lon="-8.60270066269715"><ele>1509.0</ele><time>2026-04-15T10:31:14Z</time></trkpt><trkpt lat="29.798286049958506" lon="-8.602696527284515"><ele>1509.0</ele><time>2026-04-15T10:31:15Z</time></trkpt><trkpt lat="29.79838799725964" lon="-8.60267837231461"><ele>1509.0</ele><time>2026-04-15T10:31:16Z</time></trkpt><trkpt lat="29.79848755843982" lon="-8.602645424555382"><ele>1509.0</ele><time>2026-04-15T10:31:17Z</time></trkpt><trkpt lat="29.798586188992875" lon="-8.60261120894307"><ele>1509.0</ele><time>2026-04-15T10:31:18Z</time></trkpt><trkpt lat="29.79868301700324" lon="-8.602577073634167"><ele>1508.0</ele><time>2026-04-15T10:31:19Z</time></trkpt><trkpt lat="29.798779855895212" lon="-8.602545622349615"><ele>1507.0</ele><time>2026-04-15T10:31:20Z</time></trkpt><trkpt lat="29.79887804341802" lon="-8.602516423543053"><ele>1506.0</ele><time>2026-04-15T10:31:21Z</time></trkpt><trkpt lat="29.79897528620424" lon="-8.602480475766649"><ele>1505.0</ele><time>2026-04-15T10:31:22Z</time></trkpt><trkpt lat="29.799067939418343" lon="-8.60244121555364"><ele>1504.0</ele><time>2026-04-15T10:31:23Z</time></trkpt><trkpt lat="29.799160317810856" lon="-8.602407805833616"><ele>1504.0</ele><time>2026-04-15T10:31:24Z</time></trkpt><trkpt lat="29.799240870703994" lon="-8.602369026316738"><ele>1504.0</ele><time>2026-04-15T10:31:25Z</time></trkpt><trkpt lat="29.799312369009417" lon="-8.602323903934026"><ele>1504.0</ele><time>2026-04-15T10:31:26Z</time></trkpt><trkpt lat="29.799377662487018" lon="-8.60225753121679"><ele>1504.0</ele><time>2026-04-15T10:31:27Z</time></trkpt><trkpt lat="29.799435484419014" lon="-8.602174777718723"><ele>1504.0</ele><time>2026-04-15T10:31:28Z</time></trkpt><trkpt lat="29.799485789816526" lon="-8.6020802952809"><ele>1504.0</ele><time>2026-04-15T10:31:29Z</time></trkpt><trkpt lat="29.79952184452" lon="-8.601984491273132"><ele>1505.8333333333333</ele><time>2026-04-15T10:31:30Z</time></trkpt><trkpt lat="29.79954633804162" lon="-8.60189414623044"><ele>1507.6666666666665</ele><time>2026-04-15T10:31:31Z</time></trkpt><trkpt lat="29.79956741955365" lon="-8.601810046776052"><ele>1509.5</ele><time>2026-04-15T10:31:32Z</time></trkpt><trkpt lat="29.799586071083535" lon="-8.601732432676604"><ele>1511.3333333333333</ele><time>2026-04-15T10:31:33Z</time></trkpt><trkpt lat="29.799599149669355" lon="-8.601646537446145"><ele>1513.1666666666667</ele><time>2026-04-15T10:31:34Z</time></trkpt><trkpt lat="29.799606333361318" lon="-8.60155034731249"><ele>1515.0</ele><time>2026-04-15T10:31:35Z</time></trkpt><trkpt lat="29.799608782669406" lon="-8.60145367190425"><ele>1515.0</ele><time>2026-04-15T10:31:36Z</time></trkpt><trkpt lat="29.799597173092618" lon="-8.601358617834336"><ele>1515.0</ele><time>2026-04-15T10:31:37Z</time></trkpt><trkpt lat="29.79957739514778" lon="-8.601261606508608"><ele>1515.0</ele><time>2026-04-15T10:31:38Z</time></trkpt><trkpt lat="29.799548908525747" lon="-8.601161435471512"><ele>1515.0</ele><time>2026-04-15T10:31:39Z</time></trkpt><trkpt lat="29.799520822280833" lon="-8.601056904332093"><ele>1515.0</ele><time>2026-04-15T10:31:40Z</time></trkpt><trkpt lat="29.799497535712696" lon="-8.600962801274438"><ele>1515.0</ele><time>2026-04-15T10:31:41Z</time></trkpt><trkpt lat="29.79947412141625" lon="-8.600875259156222"><ele>1514.5</ele><time>2026-04-15T10:31:42Z</time></trkpt><trkpt lat="29.799452231955843" lon="-8.600770983025598"><ele>1514.0</ele><time>2026-04-15T10:31:43Z</time></trkpt><trkpt lat="29.799434280926274" lon="-8.600663578323122"><ele>1513.5</ele><time>2026-04-15T10:31:44Z</time></trkpt><trkpt lat="29.799413898808886" lon="-8.60057684573431"><ele>1513.0</ele><time>2026-04-15T10:31:45Z</time></trkpt><trkpt lat="29.799396230039566" lon="-8.60050175524965"><ele>1512.5</ele><time>2026-04-15T10:31:46Z</time></trkpt><trkpt lat="29.79937728574562" lon="-8.600431654083064"><ele>1512.0</ele><time>2026-04-15T10:31:47Z</time></trkpt><trkpt lat="29.799354222617787" lon="-8.6002967233225"><ele>1512.0</ele><time>2026-04-15T10:31:49Z</time></trkpt><trkpt lat="29.799334925103206" lon="-8.600172778957289"><ele>1512.0</ele><time>2026-04-15T10:31:51Z</time></trkpt><trkpt lat="29.799322968105784" lon="-8.600014979021989"><ele>1512.0</ele><time>2026-04-15T10:31:53Z</time></trkpt><trkpt lat="29.79932653418226" lon="-8.599925860207334"><ele>1512.0</ele><time>2026-04-15T10:31:54Z</time></trkpt><trkpt lat="29.799343458851585" lon="-8.599843822533355"><ele>1512.0</ele><time>2026-04-15T10:31:55Z</time></trkpt><trkpt lat="29.79937366641245" lon="-8.599762011515931"><ele>1512.0</ele><time>2026-04-15T10:31:56Z</time></trkpt><trkpt lat="29.799410135873543" lon="-8.599679353602838"><ele>1512.0</ele><time>2026-04-15T10:31:57Z</time></trkpt><trkpt lat="29.79946217058071" lon="-8.599600600120011"><ele>1512.0</ele><time>2026-04-15T10:31:58Z</time></trkpt><trkpt lat="29.799534691457257" lon="-8.599537677960107"><ele>1512.0</ele><time>2026-04-15T10:31:59Z</time></trkpt><trkpt lat="29.79962206283059" lon="-8.599493027136356"><ele>1512.0</ele><time>2026-04-15T10:32:00Z</time></trkpt><trkpt lat="29.799720698084887" lon="-8.599461377075908"><ele>1508.6</ele><time>2026-04-15T10:32:01Z</time></trkpt><trkpt lat="29.7998240773348" lon="-8.599429104075162"><ele>1505.1999999999998</ele><time>2026-04-15T10:32:02Z</time></trkpt><trkpt lat="29.799921331271253" lon="-8.599392074053268"><ele>1501.8</ele><time>2026-04-15T10:32:03Z</time></trkpt><trkpt lat="29.80001146028279" lon="-8.59935626782629"><ele>1498.4</ele><time>2026-04-15T10:32:04Z</time></trkpt><trkpt lat="29.800091897721508" lon="-8.599320777495235"><ele>1495.0</ele><time>2026-04-15T10:32:05Z</time></trkpt><trkpt lat="29.800152959094167" lon="-8.599286822453513"><ele>1498.6</ele><time>2026-04-15T10:32:06Z</time></trkpt><trkpt lat="29.800248624511877" lon="-8.599221283520787"><ele>1502.2</ele><time>2026-04-15T10:32:08Z</time></trkpt><trkpt lat="29.80032975499538" lon="-8.599136677320304"><ele>1505.8000000000002</ele><time>2026-04-15T10:32:10Z</time></trkpt><trkpt lat="29.800392222753864" lon="-8.599035066314089"><ele>1509.4</ele><time>2026-04-15T10:32:12Z</time></trkpt><trkpt lat="29.80042332650181" lon="-8.598971833096261"><ele>1513.0</ele><time>2026-04-15T10:32:13Z</time></trkpt><trkpt lat="29.80045091889578" lon="-8.598900109724555"><ele>1513.0</ele><time>2026-04-15T10:32:14Z</time></trkpt><trkpt lat="29.800472729043136" lon="-8.598824968430588"><ele>1513.0</ele><time>2026-04-15T10:32:15Z</time></trkpt><trkpt lat="29.80048853827254" lon="-8.598751526149258"><ele>1513.0</ele><time>2026-04-15T10:32:16Z</time></trkpt><trkpt lat="29.800498193847957" lon="-8.598658175750844"><ele>1513.0</ele><time>2026-04-15T10:32:17Z</time></trkpt><trkpt lat="29.80050139234534" lon="-8.598564680948646"><ele>1513.0</ele><time>2026-04-15T10:32:18Z</time></trkpt><trkpt lat="29.80049872928186" lon="-8.59846892452483"><ele>1513.0</ele><time>2026-04-15T10:32:19Z</time></trkpt><trkpt lat="29.800502794031377" lon="-8.598366011167109"><ele>1509.8000000000002</ele><time>2026-04-15T10:32:20Z</time></trkpt><trkpt lat="29.800510245434726" lon="-8.598261546528173"><ele>1506.6</ele><time>2026-04-15T10:32:21Z</time></trkpt><trkpt lat="29.80053350348035" lon="-8.598153929185337"><ele>1503.4</ele><time>2026-04-15T10:32:22Z</time></trkpt><trkpt lat="29.800559998243823" lon="-8.598039186348299"><ele>1500.1999999999998</ele><time>2026-04-15T10:32:23Z</time></trkpt><trkpt lat="29.800585232858822" lon="-8.597931212262921"><ele>1497.0</ele><time>2026-04-15T10:32:24Z</time></trkpt><trkpt lat="29.80061460617773" lon="-8.597826325702819"><ele>1495.3999999999999</ele><time>2026-04-15T10:32:25Z</time></trkpt><trkpt lat="29.800652979010287" lon="-8.597725600867156"><ele>1493.8</ele><time>2026-04-15T10:32:26Z</time></trkpt><trkpt lat="29.800696539221992" lon="-8.597625705457263"><ele>1492.2</ele><time>2026-04-15T10:32:27Z</time></trkpt><trkpt lat="29.800742637328955" lon="-8.597529031207282"><ele>1490.6</ele><time>2026-04-15T10:32:28Z</time></trkpt><trkpt lat="29.80079212105977" lon="-8.597436315483318"><ele>1489.0</ele><time>2026-04-15T10:32:29Z</time></trkpt><trkpt lat="29.800836715887105" lon="-8.597345587213383"><ele>1489.0</ele><time>2026-04-15T10:32:30Z</time></trkpt><trkpt lat="29.80087703649839" lon="-8.597258854439396"><ele>1489.0</ele><time>2026-04-15T10:32:31Z</time></trkpt><trkpt lat="29.800916702419368" lon="-8.597169034932394"><ele>1489.0</ele><time>2026-04-15T10:32:32Z</time></trkpt><trkpt lat="29.80096172073332" lon="-8.597073232354946"><ele>1489.0</ele><time>2026-04-15T10:32:33Z</time></trkpt><trkpt lat="29.801008885305954" lon="-8.596975376215585"><ele>1489.0</ele><time>2026-04-15T10:32:34Z</time></trkpt><trkpt lat="29.80106211838183" lon="-8.596872402487298"><ele>1491.2</ele><time>2026-04-15T10:32:35Z</time></trkpt><trkpt lat="29.801119866046225" lon="-8.596765152630114"><ele>1493.4</ele><time>2026-04-15T10:32:36Z</time></trkpt><trkpt lat="29.801175520808464" lon="-8.596663233393599"><ele>1495.6</ele><time>2026-04-15T10:32:37Z</time></trkpt><trkpt lat="29.801229757274022" lon="-8.596565811044302"><ele>1497.8</ele><time>2026-04-15T10:32:38Z</time></trkpt><trkpt lat="29.801285233326293" lon="-8.596473851680901"><ele>1500.0</ele><time>2026-04-15T10:32:39Z</time></trkpt><trkpt lat="29.801340312224" lon="-8.596377183234148"><ele>1500.0</ele><time>2026-04-15T10:32:40Z</time></trkpt><trkpt lat="29.80138082786362" lon="-8.596266692172142"><ele>1500.0</ele><time>2026-04-15T10:32:41Z</time></trkpt><trkpt lat="29.80140077418899" lon="-8.596150385778518"><ele>1500.0</ele><time>2026-04-15T10:32:42Z</time></trkpt><trkpt lat="29.801405802907723" lon="-8.596032011664777"><ele>1500.0</ele><time>2026-04-15T10:32:43Z</time></trkpt><trkpt lat="29.80139736481457" lon="-8.59591367456098"><ele>1500.0</ele><time>2026-04-15T10:32:44Z</time></trkpt><trkpt lat="29.801379874002524" lon="-8.595811744928055"><ele>1499.3333333333333</ele><time>2026-04-15T10:32:45Z</time></trkpt><trkpt lat="29.801354599406338" lon="-8.59571775946001"><ele>1498.6666666666667</ele><time>2026-04-15T10:32:46Z</time></trkpt><trkpt lat="29.801316435543242" lon="-8.595643958383183"><ele>1498.0</ele><time>2026-04-15T10:32:47Z</time></trkpt><trkpt lat="29.801261052771615" lon="-8.595594117733494"><ele>1497.3333333333335</ele><time>2026-04-15T10:32:48Z</time></trkpt><trkpt lat="29.801200470226355" lon="-8.595553625559617"><ele>1496.6666666666667</ele><time>2026-04-15T10:32:49Z</time></trkpt><trkpt lat="29.80112792350068" lon="-8.59552948155242"><ele>1496.0</ele><time>2026-04-15T10:32:50Z</time></trkpt><trkpt lat="29.801047197755206" lon="-8.595522458808068"><ele>1492.8</ele><time>2026-04-15T10:32:51Z</time></trkpt><trkpt lat="29.80096459000737" lon="-8.595530288510112"><ele>1489.6</ele><time>2026-04-15T10:32:52Z</time></trkpt><trkpt lat="29.800863781334733" lon="-8.5955573054387"><ele>1486.4</ele><time>2026-04-15T10:32:53Z</time></trkpt><trkpt lat="29.800759004726192" lon="-8.595592599161577"><ele>1483.2</ele><time>2026-04-15T10:32:54Z</time></trkpt><trkpt lat="29.800666764622306" lon="-8.595626877655095"><ele>1480.0</ele><time>2026-04-15T10:32:55Z</time></trkpt><trkpt lat="29.8005723911519" lon="-8.595662095802018"><ele>1480.0</ele><time>2026-04-15T10:32:56Z</time></trkpt><trkpt lat="29.800480195345248" lon="-8.595697489854627"><ele>1480.0</ele><time>2026-04-15T10:32:57Z</time></trkpt><trkpt lat="29.800388041803853" lon="-8.595732155841697"><ele>1480.0</ele><time>2026-04-15T10:32:58Z</time></trkpt><trkpt lat="29.800303328563245" lon="-8.59576138359755"><ele>1480.0</ele><time>2026-04-15T10:32:59Z</time></trkpt><trkpt lat="29.800226306948165" lon="-8.59578495951373"><ele>1480.0</ele><time>2026-04-15T10:33:00Z</time></trkpt><trkpt lat="29.800148421007265" lon="-8.59579958292907"><ele>1480.0</ele><time>2026-04-15T10:33:01Z</time></trkpt><trkpt lat="29.80007068113226" lon="-8.595795747320901"><ele>1479.5</ele><time>2026-04-15T10:33:02Z</time></trkpt><trkpt lat="29.799992637883108" lon="-8.595769103297023"><ele>1479.0</ele><time>2026-04-15T10:33:03Z</time></trkpt><trkpt lat="29.7999073148206" lon="-8.595734466326732"><ele>1478.5</ele><time>2026-04-15T10:33:04Z</time></trkpt><trkpt lat="29.799819158028562" lon="-8.59569057944704"><ele>1478.0</ele><time>2026-04-15T10:33:05Z</time></trkpt><trkpt lat="29.79974180329333" lon="-8.595636030460199"><ele>1477.5</ele><time>2026-04-15T10:33:06Z</time></trkpt><trkpt lat="29.799665796507487" lon="-8.595583599062206"><ele>1477.0</ele><time>2026-04-15T10:33:07Z</time></trkpt><trkpt lat="29.799589153818197" lon="-8.595537254514362"><ele>1477.0</ele><time>2026-04-15T10:33:08Z</time></trkpt><trkpt lat="29.79951035789418" lon="-8.595489697287338"><ele>1477.0</ele><time>2026-04-15T10:33:09Z</time></trkpt><trkpt lat="29.799428444989427" lon="-8.595432785159366"><ele>1477.0</ele><time>2026-04-15T10:33:10Z</time></trkpt><trkpt lat="29.79935722466214" lon="-8.59536666338459"><ele>1477.0</ele><time>2026-04-15T10:33:11Z</time></trkpt><trkpt lat="29.799296597505855" lon="-8.59529639066594"><ele>1477.0</ele><time>2026-04-15T10:33:12Z</time></trkpt><trkpt lat="29.799253336180744" lon="-8.595213169676915"><ele>1477.0</ele><time>2026-04-15T10:33:13Z</time></trkpt><trkpt lat="29.799235584092436" lon="-8.595116400520672"><ele>1478.3999999999999</ele><time>2026-04-15T10:33:14Z</time></trkpt><trkpt lat="29.799238505183897" lon="-8.595017022023523"><ele>1479.8</ele><time>2026-04-15T10:33:15Z</time></trkpt><trkpt lat="29.799268712522203" lon="-8.594914670219692"><ele>1481.2</ele><time>2026-04-15T10:33:16Z</time></trkpt><trkpt lat="29.799326389452016" lon="-8.594818777419148"><ele>1482.6</ele><time>2026-04-15T10:33:17Z</time></trkpt><trkpt lat="29.799404892707607" lon="-8.594727975976415"><ele>1484.0</ele><time>2026-04-15T10:33:18Z</time></trkpt><trkpt lat="29.799495169788297" lon="-8.594648191716136"><ele>1484.0</ele><time>2026-04-15T10:33:19Z</time></trkpt><trkpt lat="29.799590083333573" lon="-8.594580886293764"><ele>1484.0</ele><time>2026-04-15T10:33:20Z</time></trkpt><trkpt lat="29.799676678660244" lon="-8.594512485836765"><ele>1484.0</ele><time>2026-04-15T10:33:21Z</time></trkpt><trkpt lat="29.799756096879243" lon="-8.59444082814054"><ele>1484.0</ele><time>2026-04-15T10:33:22Z</time></trkpt><trkpt lat="29.79983056470937" lon="-8.594364486200426"><ele>1484.0</ele><time>2026-04-15T10:33:23Z</time></trkpt><trkpt lat="29.79990077612194" lon="-8.59428491882555"><ele>1481.4</ele><time>2026-04-15T10:33:24Z</time></trkpt><trkpt lat="29.799963673139448" lon="-8.594196217509642"><ele>1478.8000000000002</ele><time>2026-04-15T10:33:25Z</time></trkpt><trkpt lat="29.8000169019675" lon="-8.5941009783304"><ele>1476.1999999999998</ele><time>2026-04-15T10:33:26Z</time></trkpt><trkpt lat="29.80006283226314" lon="-8.594002046583617"><ele>1473.6</ele><time>2026-04-15T10:33:27Z</time></trkpt><trkpt lat="29.800104494086927" lon="-8.593901027375702"><ele>1471.0</ele><time>2026-04-15T10:33:28Z</time></trkpt><trkpt lat="29.800137121982516" lon="-8.593799331278058"><ele>1471.0</ele><time>2026-04-15T10:33:29Z</time></trkpt><trkpt lat="29.80016562016938" lon="-8.593702943337847"><ele>1471.0</ele><time>2026-04-15T10:33:30Z</time></trkpt><trkpt lat="29.800187372509974" lon="-8.593615040892178"><ele>1471.0</ele><time>2026-04-15T10:33:31Z</time></trkpt><trkpt lat="29.80020917505212" lon="-8.5935286240205"><ele>1471.0</ele><time>2026-04-15T10:33:32Z</time></trkpt><trkpt lat="29.800233552492873" lon="-8.593438335859435"><ele>1471.0</ele><time>2026-04-15T10:33:33Z</time></trkpt><trkpt lat="29.800255425853603" lon="-8.593352693087343"><ele>1471.0</ele><time>2026-04-15T10:33:34Z</time></trkpt><trkpt lat="29.80026956344474" lon="-8.593264619264081"><ele>1472.3333333333333</ele><time>2026-04-15T10:33:35Z</time></trkpt><trkpt lat="29.80027765278174" lon="-8.59318649025326"><ele>1473.6666666666665</ele><time>2026-04-15T10:33:36Z</time></trkpt><trkpt lat="29.80028242757605" lon="-8.593109565384982"><ele>1475.0</ele><time>2026-04-15T10:33:37Z</time></trkpt><trkpt lat="29.800289258549473" lon="-8.59302578728913"><ele>1476.3333333333333</ele><time>2026-04-15T10:33:38Z</time></trkpt><trkpt lat="29.8003008636467" lon="-8.592949083302587"><ele>1477.6666666666667</ele><time>2026-04-15T10:33:39Z</time></trkpt><trkpt lat="29.800298086490866" lon="-8.592807655066947"><ele>1479.0</ele><time>2026-04-15T10:33:41Z</time></trkpt><trkpt lat="29.800274961069487" lon="-8.59273366408338"><ele>1479.0</ele><time>2026-04-15T10:33:42Z</time></trkpt><trkpt lat="29.800247538501335" lon="-8.59265755820115"><ele>1479.0</ele><time>2026-04-15T10:33:43Z</time></trkpt><trkpt lat="29.800220828999233" lon="-8.592584074655662"><ele>1479.0</ele><time>2026-04-15T10:33:44Z</time></trkpt><trkpt lat="29.800189393237453" lon="-8.592506073004474"><ele>1479.0</ele><time>2026-04-15T10:33:45Z</time></trkpt><trkpt lat="29.800158366304252" lon="-8.59243251954615"><ele>1479.0</ele><time>2026-04-15T10:33:46Z</time></trkpt><trkpt lat="29.800135271917497" lon="-8.592358764930813"><ele>1479.0</ele><time>2026-04-15T10:33:47Z</time></trkpt><trkpt lat="29.800122996134302" lon="-8.592286653773751"><ele>1479.0</ele><time>2026-04-15T10:33:48Z</time></trkpt><trkpt lat="29.800102608575838" lon="-8.592208638366722"><ele>1476.5</ele><time>2026-04-15T10:33:49Z</time></trkpt><trkpt lat="29.800091276480014" lon="-8.592125057739384"><ele>1474.0</ele><time>2026-04-15T10:33:50Z</time></trkpt><trkpt lat="29.800092055109953" lon="-8.592033941244033"><ele>1471.5</ele><time>2026-04-15T10:33:51Z</time></trkpt><trkpt lat="29.800101458938883" lon="-8.591942039915034"><ele>1469.0</ele><time>2026-04-15T10:33:52Z</time></trkpt><trkpt lat="29.800115572195732" lon="-8.591855631210603"><ele>1466.5</ele><time>2026-04-15T10:33:53Z</time></trkpt><trkpt lat="29.80012362831122" lon="-8.591770800122111"><ele>1464.0</ele><time>2026-04-15T10:33:54Z</time></trkpt><trkpt lat="29.800130147349083" lon="-8.59168323892683"><ele>1463.0</ele><time>2026-04-15T10:33:55Z</time></trkpt><trkpt lat="29.800140198576777" lon="-8.591585863764326"><ele>1462.0</ele><time>2026-04-15T10:33:56Z</time></trkpt><trkpt lat="29.80014488750881" lon="-8.591484347202698"><ele>1461.0</ele><time>2026-04-15T10:33:57Z</time></trkpt><trkpt lat="29.800144150364318" lon="-8.591373660143134"><ele>1460.0</ele><time>2026-04-15T10:33:58Z</time></trkpt><trkpt lat="29.80013879488329" lon="-8.591267873898001"><ele>1459.0</ele><time>2026-04-15T10:33:59Z</time></trkpt><trkpt lat="29.800133855402823" lon="-8.591162191476398"><ele>1457.6666666666665</ele><time>2026-04-15T10:34:00Z</time></trkpt><trkpt lat="29.80014051288879" lon="-8.591063308258498"><ele>1456.3333333333333</ele><time>2026-04-15T10:34:01Z</time></trkpt><trkpt lat="29.800150449109122" lon="-8.590971155487406"><ele>1455.0</ele><time>2026-04-15T10:34:02Z</time></trkpt><trkpt lat="29.800168852585415" lon="-8.590884379048884"><ele>1453.6666666666667</ele><time>2026-04-15T10:34:03Z</time></trkpt><trkpt lat="29.800199180414612" lon="-8.590806802315388"><ele>1452.3333333333335</ele><time>2026-04-15T10:34:04Z</time></trkpt><trkpt lat="29.800249740702785" lon="-8.590746973973104"><ele>1451.0</ele><time>2026-04-15T10:34:05Z</time></trkpt><trkpt lat="29.800320895829362" lon="-8.590709992744063"><ele>1451.0</ele><time>2026-04-15T10:34:06Z</time></trkpt><trkpt lat="29.800411113306684" lon="-8.590693343037419"><ele>1451.0</ele><time>2026-04-15T10:34:07Z</time></trkpt><trkpt lat="29.800508168913726" lon="-8.590677881276294"><ele>1451.0</ele><time>2026-04-15T10:34:08Z</time></trkpt><trkpt lat="29.80061260535702" lon="-8.590666934417028"><ele>1451.0</ele><time>2026-04-15T10:34:09Z</time></trkpt><trkpt lat="29.80071750113122" lon="-8.590656571547553"><ele>1451.0</ele><time>2026-04-15T10:34:10Z</time></trkpt><trkpt lat="29.800818727634297" lon="-8.590638658193155"><ele>1451.0</ele><time>2026-04-15T10:34:11Z</time></trkpt><trkpt lat="29.800918490248257" lon="-8.59060634554419"><ele>1451.0</ele><time>2026-04-15T10:34:12Z</time></trkpt><trkpt lat="29.80101745105758" lon="-8.590568929929974"><ele>1451.0</ele><time>2026-04-15T10:34:13Z</time></trkpt><trkpt lat="29.801115594660477" lon="-8.590523133913289"><ele>1451.0</ele><time>2026-04-15T10:34:14Z</time></trkpt><trkpt lat="29.80120691513578" lon="-8.590465879840371"><ele>1451.0</ele><time>2026-04-15T10:34:15Z</time></trkpt><trkpt lat="29.80129181707084" lon="-8.590394974073321"><ele>1449.6666666666667</ele><time>2026-04-15T10:34:16Z</time></trkpt><trkpt lat="29.801375105254863" lon="-8.590331698376806"><ele>1448.3333333333335</ele><time>2026-04-15T10:34:17Z</time></trkpt><trkpt lat="29.80145747511495" lon="-8.590272879742143"><ele>1447.0</ele><time>2026-04-15T10:34:18Z</time></trkpt><trkpt lat="29.80151227869475" lon="-8.590226159920578"><ele>1445.6666666666667</ele><time>2026-04-15T10:34:19Z</time></trkpt><trkpt lat="29.801580471882044" lon="-8.590157942623764"><ele>1444.3333333333333</ele><time>2026-04-15T10:34:20Z</time></trkpt><trkpt lat="29.801618376734066" lon="-8.590076254699458"><ele>1443.0</ele><time>2026-04-15T10:34:21Z</time></trkpt><trkpt lat="29.801631589984602" lon="-8.589974941002879"><ele>1443.0</ele><time>2026-04-15T10:34:22Z</time></trkpt><trkpt lat="29.801623854507223" lon="-8.58986431874113"><ele>1443.0</ele><time>2026-04-15T10:34:23Z</time></trkpt><trkpt lat="29.80160213940304" lon="-8.589744342137989"><ele>1443.0</ele><time>2026-04-15T10:34:24Z</time></trkpt><trkpt lat="29.801560719749528" lon="-8.589628140797107"><ele>1443.0</ele><time>2026-04-15T10:34:25Z</time></trkpt><trkpt lat="29.80150028823848" lon="-8.589519695884302"><ele>1443.0</ele><time>2026-04-15T10:34:26Z</time></trkpt><trkpt lat="29.801441348758196" lon="-8.589410357270104"><ele>1443.6000000000001</ele><time>2026-04-15T10:34:27Z</time></trkpt><trkpt lat="29.80138805252554" lon="-8.589303930879293"><ele>1444.2</ele><time>2026-04-15T10:34:28Z</time></trkpt><trkpt lat="29.801345391492255" lon="-8.589194340778457"><ele>1444.8</ele><time>2026-04-15T10:34:29Z</time></trkpt><trkpt lat="29.80130936768036" lon="-8.589081322715927"><ele>1445.4</ele><time>2026-04-15T10:34:30Z</time></trkpt><trkpt lat="29.80127859507904" lon="-8.588959606015495"><ele>1446.0</ele><time>2026-04-15T10:34:31Z</time></trkpt><trkpt lat="29.80125777355846" lon="-8.588826658858093"><ele>1446.0</ele><time>2026-04-15T10:34:32Z</time></trkpt><trkpt lat="29.80125139469631" lon="-8.588687404302089"><ele>1446.0</ele><time>2026-04-15T10:34:33Z</time></trkpt><trkpt lat="29.801253492073705" lon="-8.58854981844655"><ele>1446.0</ele><time>2026-04-15T10:34:34Z</time></trkpt><trkpt lat="29.801262683196008" lon="-8.588413290155705"><ele>1446.0</ele><time>2026-04-15T10:34:35Z</time></trkpt><trkpt lat="29.801275155307568" lon="-8.588299081859793"><ele>1445.5</ele><time>2026-04-15T10:34:36Z</time></trkpt><trkpt lat="29.80129216776315" lon="-8.588199444270867"><ele>1445.0</ele><time>2026-04-15T10:34:37Z</time></trkpt><trkpt lat="29.801320741984505" lon="-8.588114733897445"><ele>1444.5</ele><time>2026-04-15T10:34:38Z</time></trkpt><trkpt lat="29.80135905188833" lon="-8.588047035892163"><ele>1444.0</ele><time>2026-04-15T10:34:39Z</time></trkpt><trkpt lat="29.801411916910535" lon="-8.587999004639196"><ele>1443.5</ele><time>2026-04-15T10:34:40Z</time></trkpt><trkpt lat="29.801534865080914" lon="-8.58799309519875"><ele>1443.0</ele><time>2026-04-15T10:34:42Z</time></trkpt><trkpt lat="29.801596053113574" lon="-8.588028868863365"><ele>1443.0</ele><time>2026-04-15T10:34:43Z</time></trkpt><trkpt lat="29.801652987952977" lon="-8.588067994751732"><ele>1443.0</ele><time>2026-04-15T10:34:44Z</time></trkpt><trkpt lat="29.801763733664252" lon="-8.588068386113944"><ele>1443.0</ele><time>2026-04-15T10:34:46Z</time></trkpt><trkpt lat="29.801826464255903" lon="-8.587955190856865"><ele>1443.0</ele><time>2026-04-15T10:34:48Z</time></trkpt><trkpt lat="29.80183428353355" lon="-8.58787556354041"><ele>1443.0</ele><time>2026-04-15T10:34:49Z</time></trkpt><trkpt lat="29.801835557434792" lon="-8.587780271134907"><ele>1443.0</ele><time>2026-04-15T10:34:50Z</time></trkpt><trkpt lat="29.80184806244911" lon="-8.587676373368284"><ele>1443.8333333333333</ele><time>2026-04-15T10:34:51Z</time></trkpt><trkpt lat="29.801875452078743" lon="-8.58758603772858"><ele>1444.6666666666667</ele><time>2026-04-15T10:34:52Z</time></trkpt><trkpt lat="29.801902743311842" lon="-8.58750035474754"><ele>1445.5</ele><time>2026-04-15T10:34:53Z</time></trkpt><trkpt lat="29.80193756293551" lon="-8.587427809313594"><ele>1446.3333333333335</ele><time>2026-04-15T10:34:54Z</time></trkpt><trkpt lat="29.801990984908734" lon="-8.58737773750341"><ele>1447.1666666666667</ele><time>2026-04-15T10:34:55Z</time></trkpt><trkpt lat="29.802071516558623" lon="-8.587360535675769"><ele>1448.0</ele><time>2026-04-15T10:34:56Z</time></trkpt><trkpt lat="29.802156440363937" lon="-8.587368589935984"><ele>1448.0</ele><time>2026-04-15T10:34:57Z</time></trkpt><trkpt lat="29.802243641743164" lon="-8.587389524596901"><ele>1448.0</ele><time>2026-04-15T10:34:58Z</time></trkpt><trkpt lat="29.802326218135253" lon="-8.58741378530711"><ele>1448.0</ele><time>2026-04-15T10:34:59Z</time></trkpt><trkpt lat="29.80241298324333" lon="-8.587445182591107"><ele>1448.0</ele><time>2026-04-15T10:35:00Z</time></trkpt><trkpt lat="29.802506097388815" lon="-8.587471978724025"><ele>1448.0</ele><time>2026-04-15T10:35:01Z</time></trkpt><trkpt lat="29.802612128245947" lon="-8.587500957906462"><ele>1448.0</ele><time>2026-04-15T10:35:02Z</time></trkpt><trkpt lat="29.802723432075936" lon="-8.587536066243208"><ele>1448.0</ele><time>2026-04-15T10:35:03Z</time></trkpt><trkpt lat="29.80282801682737" lon="-8.587568604889933"><ele>1448.0</ele><time>2026-04-15T10:35:04Z</time></trkpt><trkpt lat="29.802934616409335" lon="-8.587594727419072"><ele>1448.0</ele><time>2026-04-15T10:35:05Z</time></trkpt><trkpt lat="29.803038310941695" lon="-8.587619060370107"><ele>1448.0</ele><time>2026-04-15T10:35:06Z</time></trkpt><trkpt lat="29.803133770560393" lon="-8.587645219933755"><ele>1448.0</ele><time>2026-04-15T10:35:07Z</time></trkpt><trkpt lat="29.80323169758275" lon="-8.587667388173893"><ele>1448.0</ele><time>2026-04-15T10:35:08Z</time></trkpt><trkpt lat="29.80332491948673" lon="-8.587680007980467"><ele>1448.0</ele><time>2026-04-15T10:35:09Z</time></trkpt><trkpt lat="29.803413981042112" lon="-8.587681398441452"><ele>1448.0</ele><time>2026-04-15T10:35:10Z</time></trkpt><trkpt lat="29.803499851304192" lon="-8.587663309661687"><ele>1448.0</ele><time>2026-04-15T10:35:11Z</time></trkpt><trkpt lat="29.80357255762188" lon="-8.58762745736031"><ele>1448.0</ele><time>2026-04-15T10:35:12Z</time></trkpt><trkpt lat="29.80362853409535" lon="-8.587566179645625"><ele>1448.3333333333335</ele><time>2026-04-15T10:35:13Z</time></trkpt><trkpt lat="29.803652082143184" lon="-8.587481128860082"><ele>1448.6666666666667</ele><time>2026-04-15T10:35:14Z</time></trkpt><trkpt lat="29.80365875303526" lon="-8.58738903154247"><ele>1449.0</ele><time>2026-04-15T10:35:15Z</time></trkpt><trkpt lat="29.80364281347933" lon="-8.58728921362023"><ele>1449.3333333333333</ele><time>2026-04-15T10:35:16Z</time></trkpt><trkpt lat="29.803622395615076" lon="-8.587192966091159"><ele>1449.6666666666665</ele><time>2026-04-15T10:35:17Z</time></trkpt><trkpt lat="29.803601078403613" lon="-8.587087372477827"><ele>1450.0</ele><time>2026-04-15T10:35:18Z</time></trkpt><trkpt lat="29.803583571251586" lon="-8.586972071046642"><ele>1450.0</ele><time>2026-04-15T10:35:19Z</time></trkpt><trkpt lat="29.803574159862126" lon="-8.586848110484087"><ele>1450.0</ele><time>2026-04-15T10:35:20Z</time></trkpt><trkpt lat="29.80357774876467" lon="-8.586744742333178"><ele>1450.0</ele><time>2026-04-15T10:35:21Z</time></trkpt><trkpt lat="29.803593388711533" lon="-8.58663199778939"><ele>1450.0</ele><time>2026-04-15T10:35:22Z</time></trkpt><trkpt lat="29.80361039369733" lon="-8.586517004174755"><ele>1450.0</ele><time>2026-04-15T10:35:23Z</time></trkpt><trkpt lat="29.80362783011044" lon="-8.586408895861608"><ele>1450.0</ele><time>2026-04-15T10:35:24Z</time></trkpt><trkpt lat="29.80364507561007" lon="-8.58630196614544"><ele>1450.0</ele><time>2026-04-15T10:35:25Z</time></trkpt><trkpt lat="29.803658081791248" lon="-8.586203055474163"><ele>1450.0</ele><time>2026-04-15T10:35:26Z</time></trkpt><trkpt lat="29.803660137454308" lon="-8.586103416679242"><ele>1450.0</ele><time>2026-04-15T10:35:27Z</time></trkpt><trkpt lat="29.80364902778631" lon="-8.58600691747827"><ele>1450.0</ele><time>2026-04-15T10:35:28Z</time></trkpt><trkpt lat="29.80361212905525" lon="-8.585916819242664"><ele>1450.0</ele><time>2026-04-15T10:35:29Z</time></trkpt><trkpt lat="29.80355768769161" lon="-8.585844030723502"><ele>1448.8333333333333</ele><time>2026-04-15T10:35:30Z</time></trkpt><trkpt lat="29.803475940439725" lon="-8.585792261944876"><ele>1447.6666666666665</ele><time>2026-04-15T10:35:31Z</time></trkpt><trkpt lat="29.803387194308165" lon="-8.585746206027993"><ele>1446.5</ele><time>2026-04-15T10:35:32Z</time></trkpt><trkpt lat="29.803295960124917" lon="-8.585720751494506"><ele>1445.3333333333333</ele><time>2026-04-15T10:35:33Z</time></trkpt><trkpt lat="29.803214406104324" lon="-8.585700010699352"><ele>1444.1666666666667</ele><time>2026-04-15T10:35:34Z</time></trkpt><trkpt lat="29.803149724482534" lon="-8.585676479802972"><ele>1443.0</ele><time>2026-04-15T10:35:35Z</time></trkpt><trkpt lat="29.80306134673568" lon="-8.585603858967191"><ele>1443.0</ele><time>2026-04-15T10:35:37Z</time></trkpt><trkpt lat="29.80302369086716" lon="-8.585492026543358"><ele>1443.0</ele><time>2026-04-15T10:35:39Z</time></trkpt><trkpt lat="29.803032528766174" lon="-8.585419874496337"><ele>1443.0</ele><time>2026-04-15T10:35:40Z</time></trkpt><trkpt lat="29.803060433838233" lon="-8.585345448648905"><ele>1443.0</ele><time>2026-04-15T10:35:41Z</time></trkpt><trkpt lat="29.80310994602653" lon="-8.585273774401537"><ele>1443.0</ele><time>2026-04-15T10:35:42Z</time></trkpt><trkpt lat="29.803179262565905" lon="-8.585209432393885"><ele>1443.0</ele><time>2026-04-15T10:35:43Z</time></trkpt><trkpt lat="29.803253891372233" lon="-8.585147698375403"><ele>1442.6666666666667</ele><time>2026-04-15T10:35:44Z</time></trkpt><trkpt lat="29.8033274077825" lon="-8.5850850922871"><ele>1442.3333333333333</ele><time>2026-04-15T10:35:45Z</time></trkpt><trkpt lat="29.803394734884318" lon="-8.58502807005268"><ele>1442.0</ele><time>2026-04-15T10:35:46Z</time></trkpt><trkpt lat="29.80346369170219" lon="-8.584974350527899"><ele>1441.6666666666665</ele><time>2026-04-15T10:35:47Z</time></trkpt><trkpt lat="29.803537739837367" lon="-8.584923508578779"><ele>1441.3333333333333</ele><time>2026-04-15T10:35:48Z</time></trkpt><trkpt lat="29.80361660439442" lon="-8.584865238606797"><ele>1441.0</ele><time>2026-04-15T10:35:49Z</time></trkpt><trkpt lat="29.803696894324293" lon="-8.584795735887168"><ele>1441.0</ele><time>2026-04-15T10:35:50Z</time></trkpt><trkpt lat="29.80377924506738" lon="-8.584725615689555"><ele>1441.0</ele><time>2026-04-15T10:35:51Z</time></trkpt><trkpt lat="29.803852972288652" lon="-8.584655765830762"><ele>1441.0</ele><time>2026-04-15T10:35:52Z</time></trkpt><trkpt lat="29.803930121332872" lon="-8.584586931848802"><ele>1441.0</ele><time>2026-04-15T10:35:53Z</time></trkpt><trkpt lat="29.804013360391927" lon="-8.584519212067152"><ele>1441.0</ele><time>2026-04-15T10:35:54Z</time></trkpt><trkpt lat="29.804097917861544" lon="-8.584454711200705"><ele>1439.4</ele><time>2026-04-15T10:35:55Z</time></trkpt><trkpt lat="29.80418226698175" lon="-8.58439499560094"><ele>1437.8</ele><time>2026-04-15T10:35:56Z</time></trkpt><trkpt lat="29.804263839887245" lon="-8.584336888242714"><ele>1436.2</ele><time>2026-04-15T10:35:57Z</time></trkpt><trkpt lat="29.80434776896367" lon="-8.584276519575587"><ele>1434.6000000000001</ele><time>2026-04-15T10:35:58Z</time></trkpt><trkpt lat="29.80443258765229" lon="-8.584222902149811"><ele>1433.0</ele><time>2026-04-15T10:35:59Z</time></trkpt><trkpt lat="29.804518373531128" lon="-8.584165888187618"><ele>1433.0</ele><time>2026-04-15T10:36:00Z</time></trkpt><trkpt lat="29.804603714996368" lon="-8.584098803899272"><ele>1433.0</ele><time>2026-04-15T10:36:01Z</time></trkpt><trkpt lat="29.80467168445001" lon="-8.584015714630203"><ele>1433.0</ele><time>2026-04-15T10:36:02Z</time></trkpt><trkpt lat="29.804711643285657" lon="-8.583913641241015"><ele>1433.0</ele><time>2026-04-15T10:36:03Z</time></trkpt><trkpt lat="29.80473263711393" lon="-8.583803305466787"><ele>1433.0</ele><time>2026-04-15T10:36:04Z</time></trkpt><trkpt lat="29.80475194319046" lon="-8.583678013028573"><ele>1431.75</ele><time>2026-04-15T10:36:05Z</time></trkpt><trkpt lat="29.80477464061338" lon="-8.583550297804429"><ele>1430.5</ele><time>2026-04-15T10:36:06Z</time></trkpt><trkpt lat="29.804797816429904" lon="-8.583424991798353"><ele>1429.25</ele><time>2026-04-15T10:36:07Z</time></trkpt><trkpt lat="29.80482732120397" lon="-8.583300004778778"><ele>1428.0</ele><time>2026-04-15T10:36:08Z</time></trkpt><trkpt lat="29.804858877793134" lon="-8.583169804418445"><ele>1428.0</ele><time>2026-04-15T10:36:09Z</time></trkpt><trkpt lat="29.804889994997072" lon="-8.583039847121103"><ele>1428.0</ele><time>2026-04-15T10:36:10Z</time></trkpt><trkpt lat="29.80491595652809" lon="-8.58290977459636"><ele>1428.0</ele><time>2026-04-15T10:36:11Z</time></trkpt><trkpt lat="29.80493780768019" lon="-8.582781455486593"><ele>1428.0</ele><time>2026-04-15T10:36:12Z</time></trkpt><trkpt lat="29.804957877465217" lon="-8.582656972460573"><ele>1426.6000000000001</ele><time>2026-04-15T10:36:13Z</time></trkpt><trkpt lat="29.804986746024735" lon="-8.582540609298238"><ele>1425.2</ele><time>2026-04-15T10:36:14Z</time></trkpt><trkpt lat="29.805036536883133" lon="-8.582438341802392"><ele>1423.8</ele><time>2026-04-15T10:36:15Z</time></trkpt><trkpt lat="29.805110308402636" lon="-8.58235737373026"><ele>1422.4</ele><time>2026-04-15T10:36:16Z</time></trkpt><trkpt lat="29.805200547606034" lon="-8.582297551023538"><ele>1421.0</ele><time>2026-04-15T10:36:17Z</time></trkpt><trkpt lat="29.80530160859015" lon="-8.582260954729149"><ele>1420.5</ele><time>2026-04-15T10:36:18Z</time></trkpt><trkpt lat="29.80541061706879" lon="-8.582236687461243"><ele>1420.0</ele><time>2026-04-15T10:36:19Z</time></trkpt><trkpt lat="29.805523370959882" lon="-8.582218910146391"><ele>1419.5</ele><time>2026-04-15T10:36:20Z</time></trkpt><trkpt lat="29.80564517837588" lon="-8.582195651432514"><ele>1419.0</ele><time>2026-04-15T10:36:21Z</time></trkpt><trkpt lat="29.80577128553172" lon="-8.58216827058167"><ele>1419.0</ele><time>2026-04-15T10:36:22Z</time></trkpt><trkpt lat="29.805896738485004" lon="-8.58213563045665"><ele>1419.0</ele><time>2026-04-15T10:36:23Z</time></trkpt><trkpt lat="29.806013151073792" lon="-8.582102365653082"><ele>1419.0</ele><time>2026-04-15T10:36:24Z</time></trkpt><trkpt lat="29.806129725171118" lon="-8.582068559447023"><ele>1419.0</ele><time>2026-04-15T10:36:25Z</time></trkpt><trkpt lat="29.806249213871222" lon="-8.582035638200306"><ele>1417.25</ele><time>2026-04-15T10:36:26Z</time></trkpt><trkpt lat="29.80637628186353" lon="-8.581999189932773"><ele>1415.5</ele><time>2026-04-15T10:36:27Z</time></trkpt><trkpt lat="29.806505207220486" lon="-8.581956955536414"><ele>1413.75</ele><time>2026-04-15T10:36:28Z</time></trkpt><trkpt lat="29.80662617262275" lon="-8.581911516742265"><ele>1412.0</ele><time>2026-04-15T10:36:29Z</time></trkpt><trkpt lat="29.80677758803421" lon="-8.581869676401341"><ele>1411.6666666666667</ele><time>2026-04-15T10:36:30Z</time></trkpt><trkpt lat="29.806936998704902" lon="-8.581843387573866"><ele>1411.3333333333333</ele><time>2026-04-15T10:36:31Z</time></trkpt><trkpt lat="29.807098475924835" lon="-8.581828485780266"><ele>1411.0</ele><time>2026-04-15T10:36:32Z</time></trkpt><trkpt lat="29.80725326724813" lon="-8.58182595513033"><ele>1411.0</ele><time>2026-04-15T10:36:33Z</time></trkpt><trkpt lat="29.807397771161934" lon="-8.581830628050287"><ele>1411.0</ele><time>2026-04-15T10:36:34Z</time></trkpt><trkpt lat="29.807528475435628" lon="-8.581837384010193"><ele>1411.0</ele><time>2026-04-15T10:36:35Z</time></trkpt><trkpt lat="29.80765024966709" lon="-8.581846703806008"><ele>1411.0</ele><time>2026-04-15T10:36:36Z</time></trkpt><trkpt lat="29.807763757475744" lon="-8.581851827341234"><ele>1411.1999999999998</ele><time>2026-04-15T10:36:37Z</time></trkpt><trkpt lat="29.80787120873521" lon="-8.581853398208434"><ele>1411.3999999999999</ele><time>2026-04-15T10:36:38Z</time></trkpt><trkpt lat="29.80797223656355" lon="-8.581852377468163"><ele>1411.6</ele><time>2026-04-15T10:36:39Z</time></trkpt><trkpt lat="29.808073928508875" lon="-8.581852929254573"><ele>1411.8</ele><time>2026-04-15T10:36:40Z</time></trkpt><trkpt lat="29.808170751007626" lon="-8.581857214676647"><ele>1412.0</ele><time>2026-04-15T10:36:41Z</time></trkpt><trkpt lat="29.80826390563862" lon="-8.581857380214858"><ele>1412.0</ele><time>2026-04-15T10:36:42Z</time></trkpt><trkpt lat="29.80835781118366" lon="-8.58186068720615"><ele>1412.0</ele><time>2026-04-15T10:36:43Z</time></trkpt><trkpt lat="29.808454803818243" lon="-8.581869775390777"><ele>1412.0</ele><time>2026-04-15T10:36:44Z</time></trkpt><trkpt lat="29.808555851830043" lon="-8.581881043204836"><ele>1412.0</ele><time>2026-04-15T10:36:45Z</time></trkpt><trkpt lat="29.808657434816315" lon="-8.581887627144955"><ele>1412.0</ele><time>2026-04-15T10:36:46Z</time></trkpt><trkpt lat="29.808763586756573" lon="-8.581891563017178"><ele>1412.0</ele><time>2026-04-15T10:36:47Z</time></trkpt><trkpt lat="29.80887519750977" lon="-8.581900307908539"><ele>1412.0</ele><time>2026-04-15T10:36:48Z</time></trkpt><trkpt lat="29.808995607649234" lon="-8.581910245016068"><ele>1412.0</ele><time>2026-04-15T10:36:49Z</time></trkpt><trkpt lat="29.80911882463396" lon="-8.581916467406534"><ele>1412.0</ele><time>2026-04-15T10:36:50Z</time></trkpt><trkpt lat="29.809245458251336" lon="-8.581924229385406"><ele>1410.75</ele><time>2026-04-15T10:36:51Z</time></trkpt><trkpt lat="29.809371539805937" lon="-8.581929893906256"><ele>1409.5</ele><time>2026-04-15T10:36:52Z</time></trkpt><trkpt lat="29.80949722095303" lon="-8.581940012008845"><ele>1408.25</ele><time>2026-04-15T10:36:53Z</time></trkpt><trkpt lat="29.809622697754357" lon="-8.581951800722319"><ele>1407.0</ele><time>2026-04-15T10:36:54Z</time></trkpt><trkpt lat="29.809745301278976" lon="-8.581959963939477"><ele>1407.0</ele><time>2026-04-15T10:36:55Z</time></trkpt><trkpt lat="29.809869927608055" lon="-8.58197033763089"><ele>1407.0</ele><time>2026-04-15T10:36:56Z</time></trkpt><trkpt lat="29.810002333244544" lon="-8.581981087236235"><ele>1407.0</ele><time>2026-04-15T10:36:57Z</time></trkpt><trkpt lat="29.810135268654314" lon="-8.581985739552865"><ele>1407.0</ele><time>2026-04-15T10:36:58Z</time></trkpt><trkpt lat="29.810265598808904" lon="-8.581991600808559"><ele>1406.5</ele><time>2026-04-15T10:36:59Z</time></trkpt><trkpt lat="29.810401350373915" lon="-8.581985680422706"><ele>1406.0</ele><time>2026-04-15T10:37:00Z</time></trkpt><trkpt lat="29.810541068044085" lon="-8.581969847337051"><ele>1405.5</ele><time>2026-04-15T10:37:01Z</time></trkpt><trkpt lat="29.810684804711787" lon="-8.581948893464801"><ele>1405.0</ele><time>2026-04-15T10:37:02Z</time></trkpt><trkpt lat="29.810830974595714" lon="-8.581928924451358"><ele>1405.0</ele><time>2026-04-15T10:37:03Z</time></trkpt><trkpt lat="29.810968405872256" lon="-8.58190695784956"><ele>1405.0</ele><time>2026-04-15T10:37:04Z</time></trkpt><trkpt lat="29.81109991412119" lon="-8.581870847837058"><ele>1405.0</ele><time>2026-04-15T10:37:05Z</time></trkpt><trkpt lat="29.811231770130547" lon="-8.581824013855636"><ele>1405.0</ele><time>2026-04-15T10:37:06Z</time></trkpt><trkpt lat="29.81136514799266" lon="-8.581769137211497"><ele>1403.75</ele><time>2026-04-15T10:37:07Z</time></trkpt><trkpt lat="29.811491142689107" lon="-8.581703113219227"><ele>1402.5</ele><time>2026-04-15T10:37:08Z</time></trkpt><trkpt lat="29.81161624776528" lon="-8.581629155668416"><ele>1401.25</ele><time>2026-04-15T10:37:09Z</time></trkpt><trkpt lat="29.811734567844052" lon="-8.581553745546117"><ele>1400.0</ele><time>2026-04-15T10:37:10Z</time></trkpt><trkpt lat="29.811850539310097" lon="-8.581481509457946"><ele>1399.0</ele><time>2026-04-15T10:37:11Z</time></trkpt><trkpt lat="29.811969552445895" lon="-8.581414905628558"><ele>1398.0</ele><time>2026-04-15T10:37:12Z</time></trkpt><trkpt lat="29.81210281416178" lon="-8.581357510305716"><ele>1397.0</ele><time>2026-04-15T10:37:13Z</time></trkpt><trkpt lat="29.812239912848284" lon="-8.581311050554676"><ele>1396.0</ele><time>2026-04-15T10:37:14Z</time></trkpt><trkpt lat="29.812381935838385" lon="-8.581270926831712"><ele>1396.0</ele><time>2026-04-15T10:37:15Z</time></trkpt><trkpt lat="29.812522218266604" lon="-8.581240103673528"><ele>1396.0</ele><time>2026-04-15T10:37:16Z</time></trkpt><trkpt lat="29.812661347925314" lon="-8.581220899820634"><ele>1396.0</ele><time>2026-04-15T10:37:17Z</time></trkpt><trkpt lat="29.812793234633105" lon="-8.581218467071945"><ele>1396.0</ele><time>2026-04-15T10:37:18Z</time></trkpt><trkpt lat="29.812909302665673" lon="-8.581220826146861"><ele>1396.1666666666665</ele><time>2026-04-15T10:37:19Z</time></trkpt><trkpt lat="29.813008958136844" lon="-8.581218337610146"><ele>1396.3333333333333</ele><time>2026-04-15T10:37:20Z</time></trkpt><trkpt lat="29.813100767663414" lon="-8.581211344161568"><ele>1396.5</ele><time>2026-04-15T10:37:21Z</time></trkpt><trkpt lat="29.81318274974263" lon="-8.581207665829668"><ele>1396.6666666666667</ele><time>2026-04-15T10:37:22Z</time></trkpt><trkpt lat="29.81325243511126" lon="-8.581203076742838"><ele>1396.8333333333335</ele><time>2026-04-15T10:37:23Z</time></trkpt><trkpt lat="29.81335600923398" lon="-8.581195700335552"><ele>1397.0</ele><time>2026-04-15T10:37:25Z</time></trkpt><trkpt lat="29.813437796967303" lon="-8.58120074969659"><ele>1396.5</ele><time>2026-04-15T10:37:27Z</time></trkpt><trkpt lat="29.813503385374503" lon="-8.58120941248298"><ele>1396.0</ele><time>2026-04-15T10:37:29Z</time></trkpt><trkpt lat="29.813586917863116" lon="-8.581215518908614"><ele>1395.5</ele><time>2026-04-15T10:37:32Z</time></trkpt><trkpt lat="29.81365241435133" lon="-8.581236912826048"><ele>1395.0</ele><time>2026-04-15T10:37:35Z</time></trkpt><trkpt lat="29.81375184990258" lon="-8.581263508547146"><ele>1394.5</ele><time>2026-04-15T10:37:37Z</time></trkpt><trkpt lat="29.813872898176882" lon="-8.581305847235207"><ele>1394.0</ele><time>2026-04-15T10:37:39Z</time></trkpt><trkpt lat="29.81398477874163" lon="-8.581337097325578"><ele>1394.0</ele><time>2026-04-15T10:37:41Z</time></trkpt><trkpt lat="29.814105102161676" lon="-8.58135716048718"><ele>1394.0</ele><time>2026-04-15T10:37:43Z</time></trkpt><trkpt lat="29.814174130673752" lon="-8.581360731341691"><ele>1394.0</ele><time>2026-04-15T10:37:44Z</time></trkpt><trkpt lat="29.814251123951227" lon="-8.581360836368534"><ele>1394.0</ele><time>2026-04-15T10:37:45Z</time></trkpt><trkpt lat="29.814336621968202" lon="-8.581361696853719"><ele>1394.0</ele><time>2026-04-15T10:37:46Z</time></trkpt><trkpt lat="29.814422846205524" lon="-8.581358352209826"><ele>1394.0</ele><time>2026-04-15T10:37:47Z</time></trkpt><trkpt lat="29.814506557575047" lon="-8.581352148453412"><ele>1393.0</ele><time>2026-04-15T10:37:48Z</time></trkpt><trkpt lat="29.814591793027752" lon="-8.581346120884904"><ele>1392.0</ele><time>2026-04-15T10:37:49Z</time></trkpt><trkpt lat="29.814674595867537" lon="-8.581341132831401"><ele>1391.0</ele><time>2026-04-15T10:37:50Z</time></trkpt><trkpt lat="29.81475257721914" lon="-8.581337526947781"><ele>1390.0</ele><time>2026-04-15T10:37:51Z</time></trkpt><trkpt lat="29.814830053710676" lon="-8.581333653619858"><ele>1389.0</ele><time>2026-04-15T10:37:52Z</time></trkpt><trkpt lat="29.81490503594828" lon="-8.581324273987784"><ele>1388.0</ele><time>2026-04-15T10:37:53Z</time></trkpt><trkpt lat="29.814977673690322" lon="-8.58131559300036"><ele>1388.0</ele><time>2026-04-15T10:37:54Z</time></trkpt><trkpt lat="29.815047091619366" lon="-8.581309131146925"><ele>1388.0</ele><time>2026-04-15T10:37:55Z</time></trkpt><trkpt lat="29.815111236974737" lon="-8.581301252157418"><ele>1388.0</ele><time>2026-04-15T10:37:56Z</time></trkpt><trkpt lat="29.81522693344499" lon="-8.581276472401905"><ele>1388.0</ele><time>2026-04-15T10:37:58Z</time></trkpt><trkpt lat="29.815324033835445" lon="-8.581258801121303"><ele>1388.0</ele><time>2026-04-15T10:38:00Z</time></trkpt><trkpt lat="29.8153976243219" lon="-8.581245266507002"><ele>1388.0</ele><time>2026-04-15T10:38:03Z</time></trkpt><trkpt lat="29.81546393843565" lon="-8.581242562822363"><ele>1386.6666666666667</ele><time>2026-04-15T10:38:53Z</time></trkpt><trkpt lat="29.81553795258004" lon="-8.581242050985999"><ele>1385.3333333333335</ele><time>2026-04-15T10:38:55Z</time></trkpt><trkpt lat="29.81563021215708" lon="-8.58123767269314"><ele>1384.0</ele><time>2026-04-15T10:38:57Z</time></trkpt><trkpt lat="29.815752436278256" lon="-8.581221286202616"><ele>1382.6666666666667</ele><time>2026-04-15T10:38:59Z</time></trkpt><trkpt lat="29.815822090707538" lon="-8.581213128384425"><ele>1381.3333333333333</ele><time>2026-04-15T10:39:00Z</time></trkpt><trkpt lat="29.81588841590726" lon="-8.581206651802201"><ele>1380.0</ele><time>2026-04-15T10:39:01Z</time></trkpt><trkpt lat="29.81596791437466" lon="-8.581202660493483"><ele>1379.8</ele><time>2026-04-15T10:39:02Z</time></trkpt><trkpt lat="29.81606430362503" lon="-8.5812003447149"><ele>1379.6</ele><time>2026-04-15T10:39:03Z</time></trkpt><trkpt lat="29.81616988234041" lon="-8.581186729052954"><ele>1379.4</ele><time>2026-04-15T10:39:04Z</time></trkpt><trkpt lat="29.81627253374808" lon="-8.581169648693221"><ele>1379.2</ele><time>2026-04-15T10:39:05Z</time></trkpt><trkpt lat="29.816373765393536" lon="-8.5811549390142"><ele>1379.0</ele><time>2026-04-15T10:39:06Z</time></trkpt><trkpt lat="29.816473091376146" lon="-8.58114055779897"><ele>1377.8000000000002</ele><time>2026-04-15T10:39:07Z</time></trkpt><trkpt lat="29.81656916960531" lon="-8.581127345433545"><ele>1376.6000000000001</ele><time>2026-04-15T10:39:08Z</time></trkpt><trkpt lat="29.816664576775818" lon="-8.58112229753468"><ele>1375.4</ele><time>2026-04-15T10:39:09Z</time></trkpt><trkpt lat="29.81676073062773" lon="-8.581127127935163"><ele>1374.2</ele><time>2026-04-15T10:39:10Z</time></trkpt><trkpt lat="29.816865703486773" lon="-8.581138411821879"><ele>1373.0</ele><time>2026-04-15T10:39:11Z</time></trkpt><trkpt lat="29.816977108405748" lon="-8.581158544071487"><ele>1373.75</ele><time>2026-04-15T10:39:12Z</time></trkpt><trkpt lat="29.817089383412217" lon="-8.581189409709948"><ele>1374.5</ele><time>2026-04-15T10:39:13Z</time></trkpt><trkpt lat="29.817201194558464" lon="-8.581229759798699"><ele>1375.25</ele><time>2026-04-15T10:39:14Z</time></trkpt><trkpt lat="29.817309303917302" lon="-8.581277574692244"><ele>1376.0</ele><time>2026-04-15T10:39:15Z</time></trkpt><trkpt lat="29.817410955150617" lon="-8.58132088831151"><ele>1376.0</ele><time>2026-04-15T10:39:16Z</time></trkpt><trkpt lat="29.817509020690252" lon="-8.581349486146237"><ele>1376.0</ele><time>2026-04-15T10:39:17Z</time></trkpt><trkpt lat="29.817608120759203" lon="-8.58135286979889"><ele>1376.0</ele><time>2026-04-15T10:39:18Z</time></trkpt><trkpt lat="29.817707094629913" lon="-8.581339164969021"><ele>1376.0</ele><time>2026-04-15T10:39:19Z</time></trkpt><trkpt lat="29.81780621708568" lon="-8.581316063207268"><ele>1376.0</ele><time>2026-04-15T10:39:20Z</time></trkpt><trkpt lat="29.817906977631868" lon="-8.581287740951781"><ele>1374.0</ele><time>2026-04-15T10:39:21Z</time></trkpt><trkpt lat="29.818012207920713" lon="-8.581261716796055"><ele>1372.0</ele><time>2026-04-15T10:39:22Z</time></trkpt><trkpt lat="29.818111442209847" lon="-8.581242390452957"><ele>1370.0</ele><time>2026-04-15T10:39:23Z</time></trkpt><trkpt lat="29.818204695331108" lon="-8.581213617418879"><ele>1368.0</ele><time>2026-04-15T10:39:24Z</time></trkpt><trkpt lat="29.8182983305687" lon="-8.581161784734364"><ele>1366.0</ele><time>2026-04-15T10:39:25Z</time></trkpt><trkpt lat="29.818391256633767" lon="-8.581087852074742"><ele>1364.4</ele><time>2026-04-15T10:39:26Z</time></trkpt><trkpt lat="29.81848479010023" lon="-8.58100890427296"><ele>1362.8</ele><time>2026-04-15T10:39:27Z</time></trkpt><trkpt lat="29.81857714869577" lon="-8.580937751390062"><ele>1361.2</ele><time>2026-04-15T10:39:28Z</time></trkpt><trkpt lat="29.818665104413327" lon="-8.580875872692477"><ele>1359.6000000000001</ele><time>2026-04-15T10:39:29Z</time></trkpt><trkpt lat="29.81875384781033" lon="-8.580820066087101"><ele>1358.0</ele><time>2026-04-15T10:39:30Z</time></trkpt><trkpt lat="29.818842896825917" lon="-8.580762742084666"><ele>1358.0</ele><time>2026-04-15T10:39:31Z</time></trkpt><trkpt lat="29.81893084158905" lon="-8.580709362359396"><ele>1358.0</ele><time>2026-04-15T10:39:32Z</time></trkpt><trkpt lat="29.81902167290117" lon="-8.58067402482381"><ele>1358.0</ele><time>2026-04-15T10:39:33Z</time></trkpt><trkpt lat="29.819117029561077" lon="-8.580653390268164"><ele>1358.0</ele><time>2026-04-15T10:39:34Z</time></trkpt><trkpt lat="29.81921415059493" lon="-8.580650777083205"><ele>1358.0</ele><time>2026-04-15T10:39:35Z</time></trkpt><trkpt lat="29.819308901742144" lon="-8.580678444646265"><ele>1356.8000000000002</ele><time>2026-04-15T10:39:36Z</time></trkpt><trkpt lat="29.819396317613823" lon="-8.580740272544707"><ele>1355.6</ele><time>2026-04-15T10:39:37Z</time></trkpt><trkpt lat="29.81947180666963" lon="-8.580831329155352"><ele>1354.4</ele><time>2026-04-15T10:39:38Z</time></trkpt><trkpt lat="29.8195343642776" lon="-8.580929086806115"><ele>1353.1999999999998</ele><time>2026-04-15T10:39:39Z</time></trkpt><trkpt lat="29.819599342096335" lon="-8.581021870397578"><ele>1352.0</ele><time>2026-04-15T10:39:40Z</time></trkpt><trkpt lat="29.8196811534062" lon="-8.581098070434853"><ele>1352.0</ele><time>2026-04-15T10:39:41Z</time></trkpt><trkpt lat="29.81978168205293" lon="-8.581164665120852"><ele>1352.0</ele><time>2026-04-15T10:39:42Z</time></trkpt><trkpt lat="29.819888651319197" lon="-8.581221547177105"><ele>1352.0</ele><time>2026-04-15T10:39:43Z</time></trkpt><trkpt lat="29.819999293441047" lon="-8.581263953808199"><ele>1352.0</ele><time>2026-04-15T10:39:44Z</time></trkpt><trkpt lat="29.820111830903787" lon="-8.58129153061892"><ele>1350.25</ele><time>2026-04-15T10:39:45Z</time></trkpt><trkpt lat="29.820229099262125" lon="-8.581294795345551"><ele>1348.5</ele><time>2026-04-15T10:39:46Z</time></trkpt><trkpt lat="29.820351199893945" lon="-8.581276478018363"><ele>1346.75</ele><time>2026-04-15T10:39:47Z</time></trkpt><trkpt lat="29.820479176609467" lon="-8.581238418980229"><ele>1345.0</ele><time>2026-04-15T10:39:48Z</time></trkpt><trkpt lat="29.820613431428583" lon="-8.581187649977903"><ele>1344.75</ele><time>2026-04-15T10:39:49Z</time></trkpt><trkpt lat="29.820742285967732" lon="-8.581143930980334"><ele>1344.5</ele><time>2026-04-15T10:39:50Z</time></trkpt><trkpt lat="29.82087015760583" lon="-8.581120350062035"><ele>1344.25</ele><time>2026-04-15T10:39:51Z</time></trkpt><trkpt lat="29.82099577043611" lon="-8.581109861519884"><ele>1344.0</ele><time>2026-04-15T10:39:52Z</time></trkpt><trkpt lat="29.821120711340313" lon="-8.581101721669162"><ele>1342.75</ele><time>2026-04-15T10:39:53Z</time></trkpt><trkpt lat="29.821246006684508" lon="-8.581098880817823"><ele>1341.5</ele><time>2026-04-15T10:39:54Z</time></trkpt><trkpt lat="29.821371192512103" lon="-8.581098600569044"><ele>1340.25</ele><time>2026-04-15T10:39:55Z</time></trkpt><trkpt lat="29.8214960991452" lon="-8.581102199483789"><ele>1339.0</ele><time>2026-04-15T10:39:56Z</time></trkpt><trkpt lat="29.82161927243317" lon="-8.581105907075159"><ele>1339.0</ele><time>2026-04-15T10:39:57Z</time></trkpt><trkpt lat="29.821734017268504" lon="-8.581086722369625"><ele>1339.0</ele><time>2026-04-15T10:39:58Z</time></trkpt><trkpt lat="29.821846506073555" lon="-8.58102976590879"><ele>1339.0</ele><time>2026-04-15T10:39:59Z</time></trkpt><trkpt lat="29.821955914623477" lon="-8.58094860327976"><ele>1339.0</ele><time>2026-04-15T10:40:00Z</time></trkpt><trkpt lat="29.822058705642668" lon="-8.580871777595537"><ele>1338.8000000000002</ele><time>2026-04-15T10:40:01Z</time></trkpt><trkpt lat="29.82215523686717" lon="-8.580815489044385"><ele>1338.6000000000001</ele><time>2026-04-15T10:40:02Z</time></trkpt><trkpt lat="29.822252281955613" lon="-8.580788435892154"><ele>1338.4</ele><time>2026-04-15T10:40:03Z</time></trkpt><trkpt lat="29.822358224628672" lon="-8.580782558405655"><ele>1338.2</ele><time>2026-04-15T10:40:04Z</time></trkpt><trkpt lat="29.822475728552305" lon="-8.580792888576543"><ele>1338.0</ele><time>2026-04-15T10:40:05Z</time></trkpt><trkpt lat="29.822592760215294" lon="-8.580810857473825"><ele>1337.5</ele><time>2026-04-15T10:40:06Z</time></trkpt><trkpt lat="29.822708173105383" lon="-8.580830588840211"><ele>1337.0</ele><time>2026-04-15T10:40:07Z</time></trkpt><trkpt lat="29.822823243913376" lon="-8.580845988281867"><ele>1336.5</ele><time>2026-04-15T10:40:08Z</time></trkpt><trkpt lat="29.82293814229239" lon="-8.580860466211645"><ele>1336.0</ele><time>2026-04-15T10:40:09Z</time></trkpt><trkpt lat="29.823058018525245" lon="-8.580861552225459"><ele>1336.0</ele><time>2026-04-15T10:40:10Z</time></trkpt><trkpt lat="29.82318039817132" lon="-8.580850863135913"><ele>1336.0</ele><time>2026-04-15T10:40:11Z</time></trkpt><trkpt lat="29.823302483421838" lon="-8.580842659527178"><ele>1336.0</ele><time>2026-04-15T10:40:12Z</time></trkpt><trkpt lat="29.82341895170526" lon="-8.580842556094382"><ele>1336.0</ele><time>2026-04-15T10:40:13Z</time></trkpt><trkpt lat="29.82353607996302" lon="-8.580844830875844"><ele>1336.75</ele><time>2026-04-15T10:40:14Z</time></trkpt><trkpt lat="29.823656536769224" lon="-8.580850768267949"><ele>1337.5</ele><time>2026-04-15T10:40:15Z</time></trkpt><trkpt lat="29.82377300458064" lon="-8.580866271355061"><ele>1338.25</ele><time>2026-04-15T10:40:16Z</time></trkpt><trkpt lat="29.823886124467062" lon="-8.580898190472787"><ele>1339.0</ele><time>2026-04-15T10:40:17Z</time></trkpt><trkpt lat="29.823993137683296" lon="-8.580941523422668"><ele>1339.0</ele><time>2026-04-15T10:40:18Z</time></trkpt><trkpt lat="29.824095482825694" lon="-8.580977973118811"><ele>1339.0</ele><time>2026-04-15T10:40:19Z</time></trkpt><trkpt lat="29.82419843965262" lon="-8.581001736804376"><ele>1339.0</ele><time>2026-04-15T10:40:20Z</time></trkpt><trkpt lat="29.824297698792357" lon="-8.581013577651216"><ele>1339.0</ele><time>2026-04-15T10:40:21Z</time></trkpt><trkpt lat="29.824398842529305" lon="-8.581005824950719"><ele>1339.0</ele><time>2026-04-15T10:40:22Z</time></trkpt><trkpt lat="29.824499566765805" lon="-8.580980793008619"><ele>1337.6</ele><time>2026-04-15T10:40:23Z</time></trkpt><trkpt lat="29.824596681074453" lon="-8.580955576691672"><ele>1336.2</ele><time>2026-04-15T10:40:24Z</time></trkpt><trkpt lat="29.824700639402014" lon="-8.580934503649635"><ele>1334.8</ele><time>2026-04-15T10:40:25Z</time></trkpt><trkpt lat="29.82480964391906" lon="-8.580918442838371"><ele>1333.3999999999999</ele><time>2026-04-15T10:40:26Z</time></trkpt><trkpt lat="29.824921418755952" lon="-8.580904219510003"><ele>1332.0</ele><time>2026-04-15T10:40:27Z</time></trkpt><trkpt lat="29.82503675433802" lon="-8.58088697880692"><ele>1330.1999999999998</ele><time>2026-04-15T10:40:28Z</time></trkpt><trkpt lat="29.825149256396198" lon="-8.580866450647633"><ele>1328.4</ele><time>2026-04-15T10:40:29Z</time></trkpt><trkpt lat="29.825257504846842" lon="-8.580844893056794"><ele>1326.6</ele><time>2026-04-15T10:40:30Z</time></trkpt><trkpt lat="29.82536770623813" lon="-8.580831824706722"><ele>1324.8000000000002</ele><time>2026-04-15T10:40:31Z</time></trkpt><trkpt lat="29.825479446706414" lon="-8.580831437808275"><ele>1323.0</ele><time>2026-04-15T10:40:32Z</time></trkpt><trkpt lat="29.825585299957076" lon="-8.580835858631518"><ele>1323.0</ele><time>2026-04-15T10:40:33Z</time></trkpt><trkpt lat="29.825692801705017" lon="-8.580849851947454"><ele>1323.0</ele><time>2026-04-15T10:40:34Z</time></trkpt><trkpt lat="29.825801896973616" lon="-8.580861914670951"><ele>1323.0</ele><time>2026-04-15T10:40:35Z</time></trkpt><trkpt lat="29.82591490383829" lon="-8.58087085794233"><ele>1323.0</ele><time>2026-04-15T10:40:36Z</time></trkpt><trkpt lat="29.826030354010772" lon="-8.580874297544053"><ele>1323.0</ele><time>2026-04-15T10:40:37Z</time></trkpt><trkpt lat="29.826150700468748" lon="-8.580878306515235"><ele>1320.75</ele><time>2026-04-15T10:40:38Z</time></trkpt><trkpt lat="29.826272313427285" lon="-8.580883667352749"><ele>1318.5</ele><time>2026-04-15T10:40:39Z</time></trkpt><trkpt lat="29.826394634947672" lon="-8.580887090160243"><ele>1316.25</ele><time>2026-04-15T10:40:40Z</time></trkpt><trkpt lat="29.826514438833694" lon="-8.58088193863998"><ele>1314.0</ele><time>2026-04-15T10:40:41Z</time></trkpt><trkpt lat="29.82663571739013" lon="-8.580864875782453"><ele>1314.0</ele><time>2026-04-15T10:40:42Z</time></trkpt><trkpt lat="29.826772712921937" lon="-8.580836901531502"><ele>1314.0</ele><time>2026-04-15T10:40:43Z</time></trkpt><trkpt lat="29.8269113191844" lon="-8.580803980543061"><ele>1314.0</ele><time>2026-04-15T10:40:44Z</time></trkpt><trkpt lat="29.827046461641075" lon="-8.580770423813199"><ele>1314.0</ele><time>2026-04-15T10:40:45Z</time></trkpt><trkpt lat="29.82718134339412" lon="-8.580745878339282"><ele>1310.75</ele><time>2026-04-15T10:40:46Z</time></trkpt><trkpt lat="29.827310953750327" lon="-8.580724585998855"><ele>1307.5</ele><time>2026-04-15T10:40:47Z</time></trkpt><trkpt lat="29.827436353513146" lon="-8.580712699737562"><ele>1304.25</ele><time>2026-04-15T10:40:48Z</time></trkpt><trkpt lat="29.82756136049089" lon="-8.58071314000309"><ele>1301.0</ele><time>2026-04-15T10:40:49Z</time></trkpt><trkpt lat="29.827682935741652" lon="-8.580727931283533"><ele>1299.25</ele><time>2026-04-15T10:40:50Z</time></trkpt><trkpt lat="29.827800762678056" lon="-8.580752975406973"><ele>1297.5</ele><time>2026-04-15T10:40:51Z</time></trkpt><trkpt lat="29.827918877751976" lon="-8.58076888207231"><ele>1295.75</ele><time>2026-04-15T10:40:52Z</time></trkpt><trkpt lat="29.828045836960484" lon="-8.580768810723445"><ele>1294.0</ele><time>2026-04-15T10:40:53Z</time></trkpt><trkpt lat="29.828183748298095" lon="-8.580759343090905"><ele>1294.0</ele><time>2026-04-15T10:40:54Z</time></trkpt><trkpt lat="29.82832149106369" lon="-8.580737285660897"><ele>1294.0</ele><time>2026-04-15T10:40:55Z</time></trkpt><trkpt lat="29.82845239236047" lon="-8.580709319532115"><ele>1294.0</ele><time>2026-04-15T10:40:56Z</time></trkpt><trkpt lat="29.828581971103546" lon="-8.580674972070849"><ele>1294.0</ele><time>2026-04-15T10:40:57Z</time></trkpt><trkpt lat="29.82871848709207" lon="-8.580640530884567"><ele>1290.75</ele><time>2026-04-15T10:40:58Z</time></trkpt><trkpt lat="29.82884946720431" lon="-8.580608815750534"><ele>1287.5</ele><time>2026-04-15T10:40:59Z</time></trkpt><trkpt lat="29.828975915642108" lon="-8.580572005027697"><ele>1284.25</ele><time>2026-04-15T10:41:00Z</time></trkpt><trkpt lat="29.829101860312246" lon="-8.58053601804897"><ele>1281.0</ele><time>2026-04-15T10:41:01Z</time></trkpt><trkpt lat="29.82922754219444" lon="-8.580503655254308"><ele>1283.25</ele><time>2026-04-15T10:41:02Z</time></trkpt><trkpt lat="29.829357055396706" lon="-8.580460998561955"><ele>1285.5</ele><time>2026-04-15T10:41:03Z</time></trkpt><trkpt lat="29.829486392977262" lon="-8.580405698758925"><ele>1287.75</ele><time>2026-04-15T10:41:04Z</time></trkpt><trkpt lat="29.82961327652947" lon="-8.580340375211165"><ele>1290.0</ele><time>2026-04-15T10:41:05Z</time></trkpt><trkpt lat="29.82973885617666" lon="-8.580263594330518"><ele>1290.0</ele><time>2026-04-15T10:41:06Z</time></trkpt><trkpt lat="29.829862448008942" lon="-8.58018083259292"><ele>1290.0</ele><time>2026-04-15T10:41:07Z</time></trkpt><trkpt lat="29.829976799397105" lon="-8.580097944537956"><ele>1290.0</ele><time>2026-04-15T10:41:08Z</time></trkpt><trkpt lat="29.830083445354454" lon="-8.580014837110529"><ele>1290.0</ele><time>2026-04-15T10:41:09Z</time></trkpt><trkpt lat="29.83017961010672" lon="-8.579929432994222"><ele>1291.6</ele><time>2026-04-15T10:41:10Z</time></trkpt><trkpt lat="29.830268594185476" lon="-8.57983702988703"><ele>1293.2</ele><time>2026-04-15T10:41:11Z</time></trkpt><trkpt lat="29.830343987503685" lon="-8.579740031443079"><ele>1294.8000000000002</ele><time>2026-04-15T10:41:12Z</time></trkpt><trkpt lat="29.830410866925355" lon="-8.579642550785044"><ele>1296.4</ele><time>2026-04-15T10:41:13Z</time></trkpt><trkpt lat="29.83047142448911" lon="-8.579557191692578"><ele>1298.0</ele><time>2026-04-15T10:41:14Z</time></trkpt><trkpt lat="29.830525914305056" lon="-8.579480666289626"><ele>1298.0</ele><time>2026-04-15T10:41:15Z</time></trkpt><trkpt lat="29.830586699068526" lon="-8.579421624968216"><ele>1298.0</ele><time>2026-04-15T10:41:16Z</time></trkpt><trkpt lat="29.830668015826646" lon="-8.579384967265133"><ele>1298.0</ele><time>2026-04-15T10:41:17Z</time></trkpt><trkpt lat="29.830765098229943" lon="-8.579375896080645"><ele>1298.0</ele><time>2026-04-15T10:41:18Z</time></trkpt><trkpt lat="29.83086660354227" lon="-8.579394553525095"><ele>1298.0</ele><time>2026-04-15T10:41:19Z</time></trkpt><trkpt lat="29.830969140382106" lon="-8.579433526384625"><ele>1297.25</ele><time>2026-04-15T10:41:20Z</time></trkpt><trkpt lat="29.83107896956332" lon="-8.579497780216508"><ele>1296.5</ele><time>2026-04-15T10:41:21Z</time></trkpt><trkpt lat="29.831193224443773" lon="-8.579576173458905"><ele>1295.75</ele><time>2026-04-15T10:41:22Z</time></trkpt><trkpt lat="29.831312135948885" lon="-8.579665165664942"><ele>1295.0</ele><time>2026-04-15T10:41:23Z</time></trkpt><trkpt lat="29.831423067237136" lon="-8.579754199494989"><ele>1293.25</ele><time>2026-04-15T10:41:24Z</time></trkpt><trkpt lat="29.83152342384452" lon="-8.579848246648808"><ele>1291.5</ele><time>2026-04-15T10:41:25Z</time></trkpt><trkpt lat="29.8316171128821" lon="-8.579951766201262"><ele>1289.75</ele><time>2026-04-15T10:41:26Z</time></trkpt><trkpt lat="29.831711393940825" lon="-8.580061203656623"><ele>1288.0</ele><time>2026-04-15T10:41:27Z</time></trkpt><trkpt lat="29.83181350696498" lon="-8.580163767617893"><ele>1288.0</ele><time>2026-04-15T10:41:28Z</time></trkpt><trkpt lat="29.831918827184097" lon="-8.58026260779196"><ele>1288.0</ele><time>2026-04-15T10:41:29Z</time></trkpt><trkpt lat="29.832017596042366" lon="-8.580359542811978"><ele>1288.0</ele><time>2026-04-15T10:41:30Z</time></trkpt><trkpt lat="29.83210727777466" lon="-8.580458160246568"><ele>1288.0</ele><time>2026-04-15T10:41:31Z</time></trkpt><trkpt lat="29.832185705070003" lon="-8.580551705066291"><ele>1285.0</ele><time>2026-04-15T10:41:32Z</time></trkpt><trkpt lat="29.83225690315383" lon="-8.580641320532449"><ele>1282.0</ele><time>2026-04-15T10:41:33Z</time></trkpt><trkpt lat="29.83232224079158" lon="-8.580724297110502"><ele>1279.0</ele><time>2026-04-15T10:41:34Z</time></trkpt><trkpt lat="29.832392744601872" lon="-8.580802807032136"><ele>1276.0</ele><time>2026-04-15T10:41:35Z</time></trkpt><trkpt lat="29.83247134096209" lon="-8.580882733126781"><ele>1273.0</ele><time>2026-04-15T10:41:36Z</time></trkpt><trkpt lat="29.83255834249404" lon="-8.58096499222398"><ele>1272.75</ele><time>2026-04-15T10:41:37Z</time></trkpt><trkpt lat="29.832652624380884" lon="-8.581046986109412"><ele>1272.5</ele><time>2026-04-15T10:41:38Z</time></trkpt><trkpt lat="29.832748607425135" lon="-8.581127401740455"><ele>1272.25</ele><time>2026-04-15T10:41:39Z</time></trkpt><trkpt lat="29.83283730881851" lon="-8.581225552208398"><ele>1272.0</ele><time>2026-04-15T10:41:40Z</time></trkpt><trkpt lat="29.832907953996546" lon="-8.58134399402888"><ele>1269.4</ele><time>2026-04-15T10:41:41Z</time></trkpt><trkpt lat="29.832967469437158" lon="-8.58145786634577"><ele>1266.8000000000002</ele><time>2026-04-15T10:41:42Z</time></trkpt><trkpt lat="29.83302471237053" lon="-8.581564311429444"><ele>1264.2</ele><time>2026-04-15T10:41:43Z</time></trkpt><trkpt lat="29.83308888130889" lon="-8.581653694226372"><ele>1261.6000000000001</ele><time>2026-04-15T10:41:44Z</time></trkpt><trkpt lat="29.833156525919378" lon="-8.581727214860669"><ele>1259.0</ele><time>2026-04-15T10:41:45Z</time></trkpt><trkpt lat="29.83322817693676" lon="-8.581782771639816"><ele>1259.0</ele><time>2026-04-15T10:41:46Z</time></trkpt><trkpt lat="29.833299891854924" lon="-8.581809750762744"><ele>1259.0</ele><time>2026-04-15T10:41:47Z</time></trkpt><trkpt lat="29.83336711579942" lon="-8.581799930936699"><ele>1259.0</ele><time>2026-04-15T10:41:48Z</time></trkpt><trkpt lat="29.83343667218438" lon="-8.581762949830344"><ele>1259.0</ele><time>2026-04-15T10:41:49Z</time></trkpt><trkpt lat="29.83349329386865" lon="-8.58169480926715"><ele>1259.0</ele><time>2026-04-15T10:41:50Z</time></trkpt><trkpt lat="29.833548439748935" lon="-8.58160004484747"><ele>1259.0</ele><time>2026-04-15T10:41:51Z</time></trkpt><trkpt lat="29.833597667593384" lon="-8.581485440235095"><ele>1254.0</ele><time>2026-04-15T10:41:52Z</time></trkpt><trkpt lat="29.83365445183511" lon="-8.581361327897529"><ele>1249.0</ele><time>2026-04-15T10:41:53Z</time></trkpt><trkpt lat="29.83371977359615" lon="-8.581232746740206"><ele>1244.0</ele><time>2026-04-15T10:41:54Z</time></trkpt><trkpt lat="29.833787657092458" lon="-8.581110059232776"><ele>1239.0</ele><time>2026-04-15T10:41:55Z</time></trkpt><trkpt lat="29.833853772784238" lon="-8.580991368264602"><ele>1239.0</ele><time>2026-04-15T10:41:56Z</time></trkpt><trkpt lat="29.833909893102955" lon="-8.580871746213251"><ele>1239.0</ele><time>2026-04-15T10:41:57Z</time></trkpt><trkpt lat="29.83394812397866" lon="-8.580740761212175"><ele>1239.0</ele><time>2026-04-15T10:41:58Z</time></trkpt><trkpt lat="29.83397420880832" lon="-8.580582078563895"><ele>1239.0</ele><time>2026-04-15T10:41:59Z</time></trkpt><trkpt lat="29.83399451597064" lon="-8.58041087002627"><ele>1239.25</ele><time>2026-04-15T10:42:00Z</time></trkpt><trkpt lat="29.8340268852816" lon="-8.580239103642032"><ele>1239.5</ele><time>2026-04-15T10:42:01Z</time></trkpt><trkpt lat="29.834073426762387" lon="-8.580086723953949"><ele>1239.75</ele><time>2026-04-15T10:42:02Z</time></trkpt><trkpt lat="29.834117108290823" lon="-8.579945862545525"><ele>1240.0</ele><time>2026-04-15T10:42:03Z</time></trkpt><trkpt lat="29.834141844654603" lon="-8.579806924645297"><ele>1240.0</ele><time>2026-04-15T10:42:04Z</time></trkpt><trkpt lat="29.834140370053596" lon="-8.579675961538468"><ele>1240.0</ele><time>2026-04-15T10:42:05Z</time></trkpt><trkpt lat="29.834133107744194" lon="-8.579550897230293"><ele>1240.0</ele><time>2026-04-15T10:42:06Z</time></trkpt><trkpt lat="29.834110488656517" lon="-8.579438509569675"><ele>1240.0</ele><time>2026-04-15T10:42:07Z</time></trkpt><trkpt lat="29.834081754319552" lon="-8.579337410354926"><ele>1240.0</ele><time>2026-04-15T10:42:08Z</time></trkpt><trkpt lat="29.83405345291433" lon="-8.579233923261961"><ele>1238.5</ele><time>2026-04-15T10:42:09Z</time></trkpt><trkpt lat="29.83402802661478" lon="-8.57911998862618"><ele>1237.0</ele><time>2026-04-15T10:42:10Z</time></trkpt><trkpt lat="29.83399713688354" lon="-8.578995255490797"><ele>1235.5</ele><time>2026-04-15T10:42:11Z</time></trkpt><trkpt lat="29.83396039085505" lon="-8.578865977033715"><ele>1234.0</ele><time>2026-04-15T10:42:12Z</time></trkpt><trkpt lat="29.833923379901442" lon="-8.57872030599997"><ele>1234.0</ele><time>2026-04-15T10:42:13Z</time></trkpt><trkpt lat="29.833893098944944" lon="-8.578567569255418"><ele>1234.0</ele><time>2026-04-15T10:42:14Z</time></trkpt><trkpt lat="29.83387867312256" lon="-8.578421995606758"><ele>1234.0</ele><time>2026-04-15T10:42:15Z</time></trkpt><trkpt lat="29.833868554608113" lon="-8.578285576704557"><ele>1234.0</ele><time>2026-04-15T10:42:16Z</time></trkpt><trkpt lat="29.833859706036705" lon="-8.578152098255204"><ele>1234.0</ele><time>2026-04-15T10:42:17Z</time></trkpt><trkpt lat="29.833859958572344" lon="-8.578013902112458"><ele>1234.0</ele><time>2026-04-15T10:42:18Z</time></trkpt><trkpt lat="29.833873991493693" lon="-8.577881476866319"><ele>1234.0</ele><time>2026-04-15T10:42:19Z</time></trkpt><trkpt lat="29.833893422614047" lon="-8.577758564962965"><ele>1234.0</ele><time>2026-04-15T10:42:20Z</time></trkpt><trkpt lat="29.833903954632916" lon="-8.577643291693526"><ele>1234.0</ele><time>2026-04-15T10:42:21Z</time></trkpt><trkpt lat="29.833894231325488" lon="-8.577536144197277"><ele>1233.6000000000001</ele><time>2026-04-15T10:42:22Z</time></trkpt><trkpt lat="29.83387682594091" lon="-8.577434258861507"><ele>1233.2</ele><time>2026-04-15T10:42:23Z</time></trkpt><trkpt lat="29.833865280131953" lon="-8.577328542672019"><ele>1232.8000000000002</ele><time>2026-04-15T10:42:24Z</time></trkpt><trkpt lat="29.833871407636106" lon="-8.577218327953737"><ele>1232.4</ele><time>2026-04-15T10:42:25Z</time></trkpt><trkpt lat="29.833897140465442" lon="-8.577101073803131"><ele>1232.0</ele><time>2026-04-15T10:42:26Z</time></trkpt><trkpt lat="29.833916221593082" lon="-8.576981523893782"><ele>1229.75</ele><time>2026-04-15T10:42:27Z</time></trkpt><trkpt lat="29.83391423949955" lon="-8.576860474938973"><ele>1227.5</ele><time>2026-04-15T10:42:28Z</time></trkpt><trkpt lat="29.83388268228982" lon="-8.57675242864184"><ele>1225.25</ele><time>2026-04-15T10:42:29Z</time></trkpt><trkpt lat="29.83381956943197" lon="-8.576637715762551"><ele>1223.0</ele><time>2026-04-15T10:42:30Z</time></trkpt><trkpt lat="29.833741161207705" lon="-8.576520376850826"><ele>1223.0</ele><time>2026-04-15T10:42:31Z</time></trkpt><trkpt lat="29.83365097373952" lon="-8.576402154505063"><ele>1223.0</ele><time>2026-04-15T10:42:32Z</time></trkpt><trkpt lat="29.8335577874826" lon="-8.576295873152587"><ele>1223.0</ele><time>2026-04-15T10:42:33Z</time></trkpt><trkpt lat="29.83346226807795" lon="-8.576200259352598"><ele>1223.0</ele><time>2026-04-15T10:42:34Z</time></trkpt><trkpt lat="29.833373303867212" lon="-8.57610168602374"><ele>1223.75</ele><time>2026-04-15T10:42:35Z</time></trkpt><trkpt lat="29.833292097004474" lon="-8.57598893973073"><ele>1224.5</ele><time>2026-04-15T10:42:36Z</time></trkpt><trkpt lat="29.83322073377673" lon="-8.575857203918781"><ele>1225.25</ele><time>2026-04-15T10:42:37Z</time></trkpt><trkpt lat="29.833154064268264" lon="-8.57571232836785"><ele>1226.0</ele><time>2026-04-15T10:42:38Z</time></trkpt><trkpt lat="29.833090482477804" lon="-8.575562998879608"><ele>1226.0</ele><time>2026-04-15T10:42:39Z</time></trkpt><trkpt lat="29.833024939257772" lon="-8.5754071403073"><ele>1226.0</ele><time>2026-04-15T10:42:40Z</time></trkpt><trkpt lat="29.832963398008328" lon="-8.575253690999526"><ele>1226.0</ele><time>2026-04-15T10:42:41Z</time></trkpt><trkpt lat="29.832908448777747" lon="-8.57510619415916"><ele>1226.0</ele><time>2026-04-15T10:42:42Z</time></trkpt><trkpt lat="29.832866033563242" lon="-8.574964794193004"><ele>1222.5</ele><time>2026-04-15T10:42:43Z</time></trkpt><trkpt lat="29.832836126793616" lon="-8.574826033441811"><ele>1219.0</ele><time>2026-04-15T10:42:44Z</time></trkpt><trkpt lat="29.832814495789574" lon="-8.57468230575848"><ele>1215.5</ele><time>2026-04-15T10:42:45Z</time></trkpt><trkpt lat="29.832809702432716" lon="-8.574537049996845"><ele>1212.0</ele><time>2026-04-15T10:42:46Z</time></trkpt><trkpt lat="29.83282777375915" lon="-8.57439635505537"><ele>1212.0</ele><time>2026-04-15T10:42:47Z</time></trkpt><trkpt lat="29.83285546032977" lon="-8.574269472207899"><ele>1212.0</ele><time>2026-04-15T10:42:48Z</time></trkpt><trkpt lat="29.832874758225426" lon="-8.574137449132575"><ele>1212.0</ele><time>2026-04-15T10:42:49Z</time></trkpt><trkpt lat="29.832869189184894" lon="-8.57400230115364"><ele>1212.0</ele><time>2026-04-15T10:42:50Z</time></trkpt><trkpt lat="29.832850582397462" lon="-8.573879466537136"><ele>1212.0</ele><time>2026-04-15T10:42:51Z</time></trkpt><trkpt lat="29.832811062400967" lon="-8.573762421334166"><ele>1212.0</ele><time>2026-04-15T10:42:52Z</time></trkpt><trkpt lat="29.832749364234125" lon="-8.573649942495589"><ele>1212.0</ele><time>2026-04-15T10:42:53Z</time></trkpt><trkpt lat="29.832675030418283" lon="-8.573536328763737"><ele>1212.0</ele><time>2026-04-15T10:42:54Z</time></trkpt><trkpt lat="29.832597428755875" lon="-8.573418142722808"><ele>1212.75</ele><time>2026-04-15T10:42:55Z</time></trkpt><trkpt lat="29.832517390843837" lon="-8.573299915996817"><ele>1213.5</ele><time>2026-04-15T10:42:56Z</time></trkpt><trkpt lat="29.832437697851955" lon="-8.573178496980228"><ele>1214.25</ele><time>2026-04-15T10:42:57Z</time></trkpt><trkpt lat="29.83236202373394" lon="-8.573052474131517"><ele>1215.0</ele><time>2026-04-15T10:42:58Z</time></trkpt><trkpt lat="29.83228266913931" lon="-8.572923361572414"><ele>1212.75</ele><time>2026-04-15T10:42:59Z</time></trkpt><trkpt lat="29.83219586633069" lon="-8.572794632437532"><ele>1210.5</ele><time>2026-04-15T10:43:00Z</time></trkpt><trkpt lat="29.83210956964693" lon="-8.572665604843797"><ele>1208.25</ele><time>2026-04-15T10:43:01Z</time></trkpt><trkpt lat="29.832029679008564" lon="-8.57254186453189"><ele>1206.0</ele><time>2026-04-15T10:43:02Z</time></trkpt><trkpt lat="29.831953242964723" lon="-8.572437733690892"><ele>1206.0</ele><time>2026-04-15T10:43:03Z</time></trkpt><trkpt lat="29.831881495560193" lon="-8.572342331288162"><ele>1206.0</ele><time>2026-04-15T10:43:04Z</time></trkpt><trkpt lat="29.831819748964904" lon="-8.572233874417753"><ele>1206.0</ele><time>2026-04-15T10:43:05Z</time></trkpt><trkpt lat="29.831767905350492" lon="-8.572114173364634"><ele>1206.0</ele><time>2026-04-15T10:43:06Z</time></trkpt><trkpt lat="29.831723882191433" lon="-8.571982577525484"><ele>1210.75</ele><time>2026-04-15T10:43:07Z</time></trkpt><trkpt lat="29.831687302658327" lon="-8.571845505371012"><ele>1215.5</ele><time>2026-04-15T10:43:08Z</time></trkpt><trkpt lat="29.831658505327443" lon="-8.571713184562428"><ele>1220.25</ele><time>2026-04-15T10:43:09Z</time></trkpt><trkpt lat="29.831625525714298" lon="-8.571594978561945"><ele>1225.0</ele><time>2026-04-15T10:43:10Z</time></trkpt><trkpt lat="29.831590546547176" lon="-8.571476985961372"><ele>1225.0</ele><time>2026-04-15T10:43:11Z</time></trkpt><trkpt lat="29.831565046773523" lon="-8.57135240358511"><ele>1225.0</ele><time>2026-04-15T10:43:12Z</time></trkpt><trkpt lat="29.831551697588573" lon="-8.571226275417894"><ele>1225.0</ele><time>2026-04-15T10:43:13Z</time></trkpt><trkpt lat="29.831552074539353" lon="-8.571096768197236"><ele>1225.0</ele><time>2026-04-15T10:43:14Z</time></trkpt><trkpt lat="29.831572196014765" lon="-8.570969968491974"><ele>1225.0</ele><time>2026-04-15T10:43:15Z</time></trkpt><trkpt lat="29.831616095915553" lon="-8.570849828886198"><ele>1222.5</ele><time>2026-04-15T10:43:16Z</time></trkpt><trkpt lat="29.831682164614843" lon="-8.570731883415487"><ele>1220.0</ele><time>2026-04-15T10:43:17Z</time></trkpt><trkpt lat="29.831760087652157" lon="-8.570618484081786"><ele>1217.5</ele><time>2026-04-15T10:43:18Z</time></trkpt><trkpt lat="29.831844137504778" lon="-8.570508688071214"><ele>1215.0</ele><time>2026-04-15T10:43:19Z</time></trkpt><trkpt lat="29.831929096088476" lon="-8.570402137269436"><ele>1211.0</ele><time>2026-04-15T10:43:20Z</time></trkpt><trkpt lat="29.832007028640774" lon="-8.570296681950014"><ele>1207.0</ele><time>2026-04-15T10:43:21Z</time></trkpt><trkpt lat="29.832078021287963" lon="-8.57019259524275"><ele>1203.0</ele><time>2026-04-15T10:43:22Z</time></trkpt><trkpt lat="29.832142329629168" lon="-8.570086789406862"><ele>1199.0</ele><time>2026-04-15T10:43:23Z</time></trkpt><trkpt lat="29.832189116393224" lon="-8.56997326453001"><ele>1199.0</ele><time>2026-04-15T10:43:24Z</time></trkpt><trkpt lat="29.832225558691587" lon="-8.569850345797946"><ele>1199.0</ele><time>2026-04-15T10:43:25Z</time></trkpt><trkpt lat="29.832242831268577" lon="-8.569718823969856"><ele>1199.0</ele><time>2026-04-15T10:43:26Z</time></trkpt><trkpt lat="29.83225237173825" lon="-8.569604565960868"><ele>1199.0</ele><time>2026-04-15T10:43:27Z</time></trkpt><trkpt lat="29.83224831011579" lon="-8.569484380879146"><ele>1199.0</ele><time>2026-04-15T10:43:28Z</time></trkpt><trkpt lat="29.832231106020348" lon="-8.569368650979218"><ele>1200.5</ele><time>2026-04-15T10:43:29Z</time></trkpt><trkpt lat="29.832199620472284" lon="-8.56924937374392"><ele>1202.0</ele><time>2026-04-15T10:43:30Z</time></trkpt><trkpt lat="29.832157228457454" lon="-8.569131496192018"><ele>1203.5</ele><time>2026-04-15T10:43:31Z</time></trkpt><trkpt lat="29.83211079905415" lon="-8.569010349235235"><ele>1205.0</ele><time>2026-04-15T10:43:32Z</time></trkpt><trkpt lat="29.83206568798002" lon="-8.568878898689738"><ele>1205.0</ele><time>2026-04-15T10:43:33Z</time></trkpt><trkpt lat="29.832015739797992" lon="-8.568745799046287"><ele>1205.0</ele><time>2026-04-15T10:43:34Z</time></trkpt><trkpt lat="29.83196495907376" lon="-8.5686107382037"><ele>1205.0</ele><time>2026-04-15T10:43:35Z</time></trkpt><trkpt lat="29.831906286824584" lon="-8.568477101770023"><ele>1205.0</ele><time>2026-04-15T10:43:36Z</time></trkpt><trkpt lat="29.83184620915889" lon="-8.568340347058864"><ele>1205.75</ele><time>2026-04-15T10:43:37Z</time></trkpt><trkpt lat="29.831784680130006" lon="-8.568202046956758"><ele>1206.5</ele><time>2026-04-15T10:43:38Z</time></trkpt><trkpt lat="29.83172315872972" lon="-8.56806005983268"><ele>1207.25</ele><time>2026-04-15T10:43:39Z</time></trkpt><trkpt lat="29.831659101317864" lon="-8.567918171826273"><ele>1208.0</ele><time>2026-04-15T10:43:40Z</time></trkpt><trkpt lat="29.831594277023484" lon="-8.567780462097911"><ele>1205.75</ele><time>2026-04-15T10:43:41Z</time></trkpt><trkpt lat="29.831528760773807" lon="-8.567642064266492"><ele>1203.5</ele><time>2026-04-15T10:43:42Z</time></trkpt><trkpt lat="29.831464241779642" lon="-8.567510858411138"><ele>1201.25</ele><time>2026-04-15T10:43:43Z</time></trkpt><trkpt lat="29.831400560234297" lon="-8.567384491432803"><ele>1199.0</ele><time>2026-04-15T10:43:44Z</time></trkpt><trkpt lat="29.83133858272955" lon="-8.567261339058039"><ele>1199.0</ele><time>2026-04-15T10:43:45Z</time></trkpt><trkpt lat="29.83126483608553" lon="-8.567149466419526"><ele>1199.0</ele><time>2026-04-15T10:43:46Z</time></trkpt><trkpt lat="29.831195396902018" lon="-8.567070791796024"><ele>1199.0</ele><time>2026-04-15T10:43:47Z</time></trkpt><trkpt lat="29.831141331266014" lon="-8.567024160201376"><ele>1199.0</ele><time>2026-04-15T10:43:48Z</time></trkpt><trkpt lat="29.831019399265035" lon="-8.566983165625286"><ele>1199.0</ele><time>2026-04-15T10:43:50Z</time></trkpt><trkpt lat="29.830953726493767" lon="-8.566969253895387"><ele>1198.3333333333335</ele><time>2026-04-15T10:43:51Z</time></trkpt><trkpt lat="29.830879611031744" lon="-8.566882876593105"><ele>1197.6666666666667</ele><time>2026-04-15T10:43:53Z</time></trkpt><trkpt lat="29.83085611671192" lon="-8.566814875243033"><ele>1197.0</ele><time>2026-04-15T10:43:54Z</time></trkpt><trkpt lat="29.830839424087596" lon="-8.566742031662871"><ele>1196.3333333333333</ele><time>2026-04-15T10:43:55Z</time></trkpt><trkpt lat="29.830809658832095" lon="-8.566668917907899"><ele>1195.6666666666665</ele><time>2026-04-15T10:43:56Z</time></trkpt><trkpt lat="29.83076390970448" lon="-8.566590355617047"><ele>1195.0</ele><time>2026-04-15T10:43:57Z</time></trkpt><trkpt lat="29.830719056179404" lon="-8.56651084366807"><ele>1195.0</ele><time>2026-04-15T10:43:58Z</time></trkpt><trkpt lat="29.83068372096272" lon="-8.566433345430449"><ele>1195.0</ele><time>2026-04-15T10:43:59Z</time></trkpt><trkpt lat="29.830662340018183" lon="-8.566347637259472"><ele>1195.0</ele><time>2026-04-15T10:44:00Z</time></trkpt><trkpt lat="29.83064701014731" lon="-8.566260594384593"><ele>1195.0</ele><time>2026-04-15T10:44:01Z</time></trkpt><trkpt lat="29.830635384251558" lon="-8.566169392854356"><ele>1195.0</ele><time>2026-04-15T10:44:02Z</time></trkpt><trkpt lat="29.830631116530814" lon="-8.566080023497522"><ele>1195.0</ele><time>2026-04-15T10:44:03Z</time></trkpt><trkpt lat="29.83063045855743" lon="-8.565997642058107"><ele>1193.4</ele><time>2026-04-15T10:44:04Z</time></trkpt><trkpt lat="29.830628091774987" lon="-8.565919579429579"><ele>1191.8</ele><time>2026-04-15T10:44:05Z</time></trkpt><trkpt lat="29.830622920053504" lon="-8.565791708079448"><ele>1190.2</ele><time>2026-04-15T10:44:07Z</time></trkpt><trkpt lat="29.83061291710697" lon="-8.565663455312265"><ele>1188.6</ele><time>2026-04-15T10:44:09Z</time></trkpt><trkpt lat="29.83058643734155" lon="-8.56554303406192"><ele>1187.0</ele><time>2026-04-15T10:44:11Z</time></trkpt><trkpt lat="29.830585671117188" lon="-8.56546438172339"><ele>1187.0</ele><time>2026-04-15T10:44:12Z</time></trkpt><trkpt lat="29.8305836067704" lon="-8.565380235911588"><ele>1187.0</ele><time>2026-04-15T10:44:13Z</time></trkpt><trkpt lat="29.830575988961396" lon="-8.565284125634463"><ele>1187.0</ele><time>2026-04-15T10:44:14Z</time></trkpt><trkpt lat="29.830561737791207" lon="-8.565173141490227"><ele>1187.0</ele><time>2026-04-15T10:44:15Z</time></trkpt><trkpt lat="29.830546692180107" lon="-8.565046716477308"><ele>1187.0</ele><time>2026-04-15T10:44:16Z</time></trkpt><trkpt lat="29.830537486380862" lon="-8.564925737867396"><ele>1187.0</ele><time>2026-04-15T10:44:17Z</time></trkpt><trkpt lat="29.83052375837656" lon="-8.564811550019582"><ele>1187.0</ele><time>2026-04-15T10:44:18Z</time></trkpt><trkpt lat="29.8304980825373" lon="-8.564698977364106"><ele>1187.0</ele><time>2026-04-15T10:44:19Z</time></trkpt><trkpt lat="29.83045242593266" lon="-8.56458538525609"><ele>1187.0</ele><time>2026-04-15T10:44:20Z</time></trkpt><trkpt lat="29.830391063862002" lon="-8.564472645597895"><ele>1187.0</ele><time>2026-04-15T10:44:21Z</time></trkpt><trkpt lat="29.83032057330504" lon="-8.5643625428564"><ele>1186.2</ele><time>2026-04-15T10:44:22Z</time></trkpt><trkpt lat="29.83025923617939" lon="-8.56425493189228"><ele>1185.4</ele><time>2026-04-15T10:44:23Z</time></trkpt><trkpt lat="29.830207050755767" lon="-8.56414972873201"><ele>1184.6</ele><time>2026-04-15T10:44:24Z</time></trkpt><trkpt lat="29.830163600017116" lon="-8.564037341543736"><ele>1183.8</ele><time>2026-04-15T10:44:25Z</time></trkpt><trkpt lat="29.830131342447107" lon="-8.56392380998537"><ele>1183.0</ele><time>2026-04-15T10:44:26Z</time></trkpt><trkpt lat="29.830102933722422" lon="-8.563807670038146"><ele>1184.8</ele><time>2026-04-15T10:44:27Z</time></trkpt><trkpt lat="29.830076447752237" lon="-8.563685864881"><ele>1186.6</ele><time>2026-04-15T10:44:28Z</time></trkpt><trkpt lat="29.83005289191382" lon="-8.563571806645639"><ele>1188.4</ele><time>2026-04-15T10:44:29Z</time></trkpt><trkpt lat="29.830035042902526" lon="-8.563465526738446"><ele>1190.2</ele><time>2026-04-15T10:44:30Z</time></trkpt><trkpt lat="29.830008670932454" lon="-8.563367450087581"><ele>1192.0</ele><time>2026-04-15T10:44:31Z</time></trkpt><trkpt lat="29.82995765862009" lon="-8.56327849554281"><ele>1192.0</ele><time>2026-04-15T10:44:32Z</time></trkpt><trkpt lat="29.829880621862234" lon="-8.563202523007476"><ele>1192.0</ele><time>2026-04-15T10:44:33Z</time></trkpt><trkpt lat="29.829788279054675" lon="-8.563144871616316"><ele>1192.0</ele><time>2026-04-15T10:44:34Z</time></trkpt><trkpt lat="29.829682512589983" lon="-8.563113022573734"><ele>1192.0</ele><time>2026-04-15T10:44:35Z</time></trkpt><trkpt lat="29.829575556456867" lon="-8.563081635806325"><ele>1192.0</ele><time>2026-04-15T10:44:36Z</time></trkpt><trkpt lat="29.829474302285867" lon="-8.563021849463459"><ele>1192.0</ele><time>2026-04-15T10:44:37Z</time></trkpt><trkpt lat="29.82938376628434" lon="-8.562945269493353"><ele>1192.0</ele><time>2026-04-15T10:44:38Z</time></trkpt><trkpt lat="29.8293037336381" lon="-8.562857407881808"><ele>1192.0</ele><time>2026-04-15T10:44:39Z</time></trkpt><trkpt lat="29.829239104039093" lon="-8.562752049005379"><ele>1192.0</ele><time>2026-04-15T10:44:40Z</time></trkpt><trkpt lat="29.829192676082105" lon="-8.562631703205994"><ele>1192.0</ele><time>2026-04-15T10:44:41Z</time></trkpt><trkpt lat="29.829163176057175" lon="-8.562494347167943"><ele>1190.4</ele><time>2026-04-15T10:44:42Z</time></trkpt><trkpt lat="29.829148360280733" lon="-8.5623477471912"><ele>1188.8000000000002</ele><time>2026-04-15T10:44:43Z</time></trkpt><trkpt lat="29.829143862060445" lon="-8.562218840181867"><ele>1187.2</ele><time>2026-04-15T10:44:44Z</time></trkpt><trkpt lat="29.829152384754646" lon="-8.562103935170255"><ele>1185.6000000000001</ele><time>2026-04-15T10:44:45Z</time></trkpt><trkpt lat="29.829173407653954" lon="-8.561992285475212"><ele>1184.0</ele><time>2026-04-15T10:44:46Z</time></trkpt><trkpt lat="29.829208637482054" lon="-8.561873999397116"><ele>1183.25</ele><time>2026-04-15T10:44:47Z</time></trkpt><trkpt lat="29.829264523360997" lon="-8.561759868742406"><ele>1182.5</ele><time>2026-04-15T10:44:48Z</time></trkpt><trkpt lat="29.829341069730187" lon="-8.561652307355024"><ele>1181.75</ele><time>2026-04-15T10:44:49Z</time></trkpt><trkpt lat="29.82943279253411" lon="-8.561552406190158"><ele>1181.0</ele><time>2026-04-15T10:44:50Z</time></trkpt><trkpt lat="29.829525263543676" lon="-8.561452854780535"><ele>1180.5</ele><time>2026-04-15T10:44:51Z</time></trkpt><trkpt lat="29.829620024475844" lon="-8.561351136178022"><ele>1180.0</ele><time>2026-04-15T10:44:52Z</time></trkpt><trkpt lat="29.829719151943664" lon="-8.561244901656286"><ele>1179.5</ele><time>2026-04-15T10:44:53Z</time></trkpt><trkpt lat="29.82982614364908" lon="-8.561136083325053"><ele>1179.0</ele><time>2026-04-15T10:44:54Z</time></trkpt><trkpt lat="29.829937182407146" lon="-8.561024803897935"><ele>1179.0</ele><time>2026-04-15T10:44:55Z</time></trkpt><trkpt lat="29.83004879133686" lon="-8.560910918036752"><ele>1179.0</ele><time>2026-04-15T10:44:56Z</time></trkpt><trkpt lat="29.830159507668466" lon="-8.560800415352624"><ele>1179.0</ele><time>2026-04-15T10:44:57Z</time></trkpt><trkpt lat="29.830267290045718" lon="-8.560692767069751"><ele>1179.0</ele><time>2026-04-15T10:44:58Z</time></trkpt><trkpt lat="29.830372392227087" lon="-8.560582551599905"><ele>1178.5</ele><time>2026-04-15T10:44:59Z</time></trkpt><trkpt lat="29.830473869301994" lon="-8.560470016605287"><ele>1178.0</ele><time>2026-04-15T10:45:00Z</time></trkpt><trkpt lat="29.830568368995642" lon="-8.560350251621795"><ele>1177.5</ele><time>2026-04-15T10:45:01Z</time></trkpt><trkpt lat="29.830651933959814" lon="-8.560216514145853"><ele>1177.0</ele><time>2026-04-15T10:45:02Z</time></trkpt><trkpt lat="29.830727548058018" lon="-8.560065402118468"><ele>1177.0</ele><time>2026-04-15T10:45:03Z</time></trkpt><trkpt lat="29.830797724411084" lon="-8.559913693034371"><ele>1177.0</ele><time>2026-04-15T10:45:04Z</time></trkpt><trkpt lat="29.830874773044467" lon="-8.559760934810331"><ele>1177.0</ele><time>2026-04-15T10:45:05Z</time></trkpt><trkpt lat="29.83095368286757" lon="-8.559610923515153"><ele>1181.0</ele><time>2026-04-15T10:45:06Z</time></trkpt><trkpt lat="29.83102901000958" lon="-8.559467510717905"><ele>1185.0</ele><time>2026-04-15T10:45:07Z</time></trkpt><trkpt lat="29.831099571282323" lon="-8.55933823274655"><ele>1189.0</ele><time>2026-04-15T10:45:08Z</time></trkpt><trkpt lat="29.831174516070895" lon="-8.559202811778642"><ele>1193.0</ele><time>2026-04-15T10:45:09Z</time></trkpt><trkpt lat="29.831241828377895" lon="-8.559062976025912"><ele>1193.0</ele><time>2026-04-15T10:45:10Z</time></trkpt><trkpt lat="29.831304452418898" lon="-8.558912966811887"><ele>1193.0</ele><time>2026-04-15T10:45:11Z</time></trkpt><trkpt lat="29.831357065765186" lon="-8.558761709800738"><ele>1193.0</ele><time>2026-04-15T10:45:12Z</time></trkpt><trkpt lat="29.83139534118155" lon="-8.558613187926532"><ele>1193.0</ele><time>2026-04-15T10:45:13Z</time></trkpt><trkpt lat="29.831418322416287" lon="-8.55846259413575"><ele>1192.5</ele><time>2026-04-15T10:45:14Z</time></trkpt><trkpt lat="29.831436922777645" lon="-8.55830812304328"><ele>1192.0</ele><time>2026-04-15T10:45:15Z</time></trkpt><trkpt lat="29.831444211935363" lon="-8.558148040182445"><ele>1191.5</ele><time>2026-04-15T10:45:16Z</time></trkpt><trkpt lat="29.831448353519413" lon="-8.557999123949708"><ele>1191.0</ele><time>2026-04-15T10:45:17Z</time></trkpt><trkpt lat="29.83145448563417" lon="-8.557861601042742"><ele>1190.6</ele><time>2026-04-15T10:45:18Z</time></trkpt><trkpt lat="29.831469814101382" lon="-8.557737963232256"><ele>1190.1999999999998</ele><time>2026-04-15T10:45:19Z</time></trkpt><trkpt lat="29.831495446686937" lon="-8.557619416865519"><ele>1189.8000000000002</ele><time>2026-04-15T10:45:20Z</time></trkpt><trkpt lat="29.83153682305485" lon="-8.557518566025525"><ele>1189.4</ele><time>2026-04-15T10:45:21Z</time></trkpt><trkpt lat="29.831591357064475" lon="-8.5574292743013"><ele>1189.0</ele><time>2026-04-15T10:45:22Z</time></trkpt><trkpt lat="29.831658654333168" lon="-8.557358872579776"><ele>1189.0</ele><time>2026-04-15T10:45:23Z</time></trkpt><trkpt lat="29.831719006423636" lon="-8.55731210716447"><ele>1189.0</ele><time>2026-04-15T10:45:24Z</time></trkpt><trkpt lat="29.831776726956754" lon="-8.557271699916527"><ele>1189.0</ele><time>2026-04-15T10:45:25Z</time></trkpt><trkpt lat="29.831834268832406" lon="-8.55723574309109"><ele>1189.0</ele><time>2026-04-15T10:45:26Z</time></trkpt><trkpt lat="29.831904276836514" lon="-8.557206228119403"><ele>1189.0</ele><time>2026-04-15T10:45:27Z</time></trkpt><trkpt lat="29.83199098032817" lon="-8.55718842138831"><ele>1189.0</ele><time>2026-04-15T10:45:28Z</time></trkpt><trkpt lat="29.832086959774525" lon="-8.55717448359818"><ele>1191.8</ele><time>2026-04-15T10:45:29Z</time></trkpt><trkpt lat="29.832193059621257" lon="-8.557161256559073"><ele>1194.6000000000001</ele><time>2026-04-15T10:45:30Z</time></trkpt><trkpt lat="29.832290515909293" lon="-8.557146072578917"><ele>1197.4</ele><time>2026-04-15T10:45:31Z</time></trkpt><trkpt lat="29.83238226672826" lon="-8.557131522112867"><ele>1200.2</ele><time>2026-04-15T10:45:32Z</time></trkpt><trkpt lat="29.83247395080771" lon="-8.557122611833488"><ele>1203.0</ele><time>2026-04-15T10:45:33Z</time></trkpt><trkpt lat="29.832566381082174" lon="-8.55710925969126"><ele>1202.0</ele><time>2026-04-15T10:45:34Z</time></trkpt><trkpt lat="29.832667024293197" lon="-8.557096031850437"><ele>1201.0</ele><time>2026-04-15T10:45:35Z</time></trkpt><trkpt lat="29.83277217396839" lon="-8.55708603511349"><ele>1200.0</ele><time>2026-04-15T10:45:36Z</time></trkpt><trkpt lat="29.832875777577744" lon="-8.557083410820354"><ele>1199.0</ele><time>2026-04-15T10:45:37Z</time></trkpt><trkpt lat="29.8329880116385" lon="-8.55708787834852"><ele>1198.0</ele><time>2026-04-15T10:45:38Z</time></trkpt><trkpt lat="29.833105710697968" lon="-8.557095881659908"><ele>1198.0</ele><time>2026-04-15T10:45:39Z</time></trkpt><trkpt lat="29.833223259451742" lon="-8.557102775539505"><ele>1198.0</ele><time>2026-04-15T10:45:40Z</time></trkpt><trkpt lat="29.833340494686276" lon="-8.557109867691837"><ele>1198.0</ele><time>2026-04-15T10:45:41Z</time></trkpt><trkpt lat="29.833460002342537" lon="-8.557113592257787"><ele>1198.0</ele><time>2026-04-15T10:45:42Z</time></trkpt><trkpt lat="29.833585146622475" lon="-8.557111472857294"><ele>1194.5</ele><time>2026-04-15T10:45:43Z</time></trkpt><trkpt lat="29.83371198656164" lon="-8.557117179639556"><ele>1191.0</ele><time>2026-04-15T10:45:44Z</time></trkpt><trkpt lat="29.83384136827194" lon="-8.557134047052518"><ele>1187.5</ele><time>2026-04-15T10:45:45Z</time></trkpt><trkpt lat="29.83397080785311" lon="-8.557164222442044"><ele>1184.0</ele><time>2026-04-15T10:45:46Z</time></trkpt><trkpt lat="29.834099249376486" lon="-8.557204756745188"><ele>1184.0</ele><time>2026-04-15T10:45:47Z</time></trkpt><trkpt lat="29.834220957435566" lon="-8.557247338056502"><ele>1184.0</ele><time>2026-04-15T10:45:48Z</time></trkpt><trkpt lat="29.83433332018404" lon="-8.557289047148661"><ele>1184.0</ele><time>2026-04-15T10:45:49Z</time></trkpt><trkpt lat="29.834438885069083" lon="-8.557314600968668"><ele>1184.0</ele><time>2026-04-15T10:45:50Z</time></trkpt><trkpt lat="29.834542445280587" lon="-8.55732555641351"><ele>1182.6000000000001</ele><time>2026-04-15T10:45:51Z</time></trkpt><trkpt lat="29.83464450572655" lon="-8.557325244752375"><ele>1181.2</ele><time>2026-04-15T10:45:52Z</time></trkpt><trkpt lat="29.83474302920084" lon="-8.557303399886337"><ele>1179.8000000000002</ele><time>2026-04-15T10:45:53Z</time></trkpt><trkpt lat="29.8348328379065" lon="-8.55725543771462"><ele>1178.4</ele><time>2026-04-15T10:45:54Z</time></trkpt><trkpt lat="29.83492123383827" lon="-8.55718112929039"><ele>1177.0</ele><time>2026-04-15T10:45:55Z</time></trkpt><trkpt lat="29.83500893621786" lon="-8.557101825776318"><ele>1173.75</ele><time>2026-04-15T10:45:56Z</time></trkpt><trkpt lat="29.835095766852913" lon="-8.557014469244441"><ele>1170.5</ele><time>2026-04-15T10:45:57Z</time></trkpt><trkpt lat="29.83517684874013" lon="-8.556912622771916"><ele>1167.25</ele><time>2026-04-15T10:45:58Z</time></trkpt><trkpt lat="29.83526175807568" lon="-8.556816348217822"><ele>1164.0</ele><time>2026-04-15T10:45:59Z</time></trkpt><trkpt lat="29.835351257775297" lon="-8.556725934708743"><ele>1163.5</ele><time>2026-04-15T10:46:00Z</time></trkpt><trkpt lat="29.835445365593056" lon="-8.556635940870457"><ele>1163.0</ele><time>2026-04-15T10:46:01Z</time></trkpt><trkpt lat="29.8355418758712" lon="-8.556553570825542"><ele>1162.5</ele><time>2026-04-15T10:46:02Z</time></trkpt><trkpt lat="29.83564153204059" lon="-8.556482478744659"><ele>1162.0</ele><time>2026-04-15T10:46:03Z</time></trkpt><trkpt lat="29.835749104435134" lon="-8.556429902998534"><ele>1162.0</ele><time>2026-04-15T10:46:04Z</time></trkpt><trkpt lat="29.835861333862937" lon="-8.556397752971218"><ele>1162.0</ele><time>2026-04-15T10:46:05Z</time></trkpt><trkpt lat="29.835976160837202" lon="-8.556400212373601"><ele>1162.0</ele><time>2026-04-15T10:46:06Z</time></trkpt><trkpt lat="29.836096250000374" lon="-8.556421750691758"><ele>1162.0</ele><time>2026-04-15T10:46:07Z</time></trkpt><trkpt lat="29.83621644038245" lon="-8.5564672446076"><ele>1160.4</ele><time>2026-04-15T10:46:08Z</time></trkpt><trkpt lat="29.836319717802898" lon="-8.556531271454917"><ele>1158.8000000000002</ele><time>2026-04-15T10:46:09Z</time></trkpt><trkpt lat="29.83641005092036" lon="-8.556597495144427"><ele>1157.2</ele><time>2026-04-15T10:46:10Z</time></trkpt><trkpt lat="29.836494085177886" lon="-8.556663846366465"><ele>1155.6000000000001</ele><time>2026-04-15T10:46:11Z</time></trkpt><trkpt lat="29.836577274399637" lon="-8.556729327710013"><ele>1154.0</ele><time>2026-04-15T10:46:12Z</time></trkpt><trkpt lat="29.83665831548624" lon="-8.55679077696682"><ele>1154.0</ele><time>2026-04-15T10:46:13Z</time></trkpt><trkpt lat="29.836732021760643" lon="-8.556834161379198"><ele>1154.0</ele><time>2026-04-15T10:46:14Z</time></trkpt><trkpt lat="29.83680581025623" lon="-8.556863595180232"><ele>1154.0</ele><time>2026-04-15T10:46:15Z</time></trkpt><trkpt lat="29.83687320423112" lon="-8.556867593485112"><ele>1154.0</ele><time>2026-04-15T10:46:16Z</time></trkpt><trkpt lat="29.836937766456508" lon="-8.556843964952332"><ele>1154.0</ele><time>2026-04-15T10:46:17Z</time></trkpt><trkpt lat="29.83698684744006" lon="-8.556782429176218"><ele>1154.0</ele><time>2026-04-15T10:46:18Z</time></trkpt><trkpt lat="29.83700823919597" lon="-8.55670511999867"><ele>1154.0</ele><time>2026-04-15T10:46:19Z</time></trkpt><trkpt lat="29.837002137042706" lon="-8.556622892365375"><ele>1153.1666666666667</ele><time>2026-04-15T10:46:20Z</time></trkpt><trkpt lat="29.836995166641213" lon="-8.5565408611926"><ele>1152.3333333333335</ele><time>2026-04-15T10:46:21Z</time></trkpt><trkpt lat="29.836989085835025" lon="-8.556449977967665"><ele>1151.5</ele><time>2026-04-15T10:46:22Z</time></trkpt><trkpt lat="29.836974721274757" lon="-8.556343452466265"><ele>1150.6666666666667</ele><time>2026-04-15T10:46:23Z</time></trkpt><trkpt lat="29.836951305940158" lon="-8.556232861820037"><ele>1149.8333333333333</ele><time>2026-04-15T10:46:24Z</time></trkpt><trkpt lat="29.83692506741917" lon="-8.556127160479752"><ele>1149.0</ele><time>2026-04-15T10:46:25Z</time></trkpt><trkpt lat="29.83690061255759" lon="-8.5560179021436"><ele>1149.0</ele><time>2026-04-15T10:46:26Z</time></trkpt><trkpt lat="29.836872943800678" lon="-8.555903544726041"><ele>1149.0</ele><time>2026-04-15T10:46:27Z</time></trkpt><trkpt lat="29.8368469419203" lon="-8.555783382813692"><ele>1149.0</ele><time>2026-04-15T10:46:28Z</time></trkpt><trkpt lat="29.836823484582126" lon="-8.55565736159315"><ele>1149.0</ele><time>2026-04-15T10:46:29Z</time></trkpt><trkpt lat="29.83680280026186" lon="-8.555531365561036"><ele>1149.0</ele><time>2026-04-15T10:46:30Z</time></trkpt><trkpt lat="29.836779526716878" lon="-8.555406654095545"><ele>1148.25</ele><time>2026-04-15T10:46:31Z</time></trkpt><trkpt lat="29.836754002770025" lon="-8.555281439579769"><ele>1147.5</ele><time>2026-04-15T10:46:32Z</time></trkpt><trkpt lat="29.836726916607933" lon="-8.555155507599897"><ele>1146.75</ele><time>2026-04-15T10:46:33Z</time></trkpt><trkpt lat="29.836702980070534" lon="-8.555025009581513"><ele>1146.0</ele><time>2026-04-15T10:46:34Z</time></trkpt><trkpt lat="29.836677873832816" lon="-8.554892735929878"><ele>1146.0</ele><time>2026-04-15T10:46:35Z</time></trkpt><trkpt lat="29.836638279906563" lon="-8.55476779811736"><ele>1146.0</ele><time>2026-04-15T10:46:36Z</time></trkpt><trkpt lat="29.836586940153033" lon="-8.554644902842032"><ele>1146.0</ele><time>2026-04-15T10:46:37Z</time></trkpt><trkpt lat="29.836529485982513" lon="-8.554534470332342"><ele>1146.0</ele><time>2026-04-15T10:46:38Z</time></trkpt><trkpt lat="29.836468508880273" lon="-8.554440165234684"><ele>1146.0</ele><time>2026-04-15T10:46:39Z</time></trkpt><trkpt lat="29.836402173378605" lon="-8.554355629770374"><ele>1148.2</ele><time>2026-04-15T10:46:40Z</time></trkpt><trkpt lat="29.836333795365356" lon="-8.55427514383625"><ele>1150.3999999999999</ele><time>2026-04-15T10:46:41Z</time></trkpt><trkpt lat="29.83626444022904" lon="-8.55419492793931"><ele>1152.6</ele><time>2026-04-15T10:46:42Z</time></trkpt><trkpt lat="29.83620410523552" lon="-8.554111179019552"><ele>1154.8</ele><time>2026-04-15T10:46:43Z</time></trkpt><trkpt lat="29.836142077916637" lon="-8.554018815567986"><ele>1157.0</ele><time>2026-04-15T10:46:44Z</time></trkpt><trkpt lat="29.836083081683263" lon="-8.553915591171817"><ele>1157.0</ele><time>2026-04-15T10:46:45Z</time></trkpt><trkpt lat="29.836030674626457" lon="-8.553804501391065"><ele>1157.0</ele><time>2026-04-15T10:46:46Z</time></trkpt><trkpt lat="29.835991654859132" lon="-8.553690613820688"><ele>1157.0</ele><time>2026-04-15T10:46:47Z</time></trkpt><trkpt lat="29.835978868296003" lon="-8.553572820751732"><ele>1157.0</ele><time>2026-04-15T10:46:48Z</time></trkpt><trkpt lat="29.835979802447614" lon="-8.553447258498917"><ele>1157.0</ele><time>2026-04-15T10:46:49Z</time></trkpt><trkpt lat="29.835997517361886" lon="-8.553309763894005"><ele>1159.25</ele><time>2026-04-15T10:46:50Z</time></trkpt><trkpt lat="29.836018949766036" lon="-8.55316775971199"><ele>1161.5</ele><time>2026-04-15T10:46:51Z</time></trkpt><trkpt lat="29.836044361147607" lon="-8.553015684602325"><ele>1163.75</ele><time>2026-04-15T10:46:52Z</time></trkpt><trkpt lat="29.836063598854402" lon="-8.552868815110976"><ele>1166.0</ele><time>2026-04-15T10:46:53Z</time></trkpt><trkpt lat="29.836072465929192" lon="-8.552737085013792"><ele>1166.75</ele><time>2026-04-15T10:46:54Z</time></trkpt><trkpt lat="29.836081089897966" lon="-8.552614482678846"><ele>1167.5</ele><time>2026-04-15T10:46:55Z</time></trkpt><trkpt lat="29.83609780236886" lon="-8.552489334377098"><ele>1168.25</ele><time>2026-04-15T10:46:56Z</time></trkpt><trkpt lat="29.83611178597779" lon="-8.552353668082068"><ele>1169.0</ele><time>2026-04-15T10:46:57Z</time></trkpt><trkpt lat="29.836125763914858" lon="-8.552213915085568"><ele>1169.0</ele><time>2026-04-15T10:46:58Z</time></trkpt><trkpt lat="29.836141815610283" lon="-8.552072560641227"><ele>1169.0</ele><time>2026-04-15T10:46:59Z</time></trkpt><trkpt lat="29.83615949823872" lon="-8.551930116005131"><ele>1169.0</ele><time>2026-04-15T10:47:00Z</time></trkpt><trkpt lat="29.836182146803896" lon="-8.551788141364808"><ele>1169.0</ele><time>2026-04-15T10:47:01Z</time></trkpt><trkpt lat="29.836212952534687" lon="-8.551638232633604"><ele>1167.0</ele><time>2026-04-15T10:47:02Z</time></trkpt><trkpt lat="29.83624893577117" lon="-8.551488986547678"><ele>1165.0</ele><time>2026-04-15T10:47:03Z</time></trkpt><trkpt lat="29.83628722167608" lon="-8.551339557399467"><ele>1163.0</ele><time>2026-04-15T10:47:04Z</time></trkpt><trkpt lat="29.836328763817527" lon="-8.551188257987546"><ele>1161.0</ele><time>2026-04-15T10:47:05Z</time></trkpt><trkpt lat="29.83637694817764" lon="-8.551035950687057"><ele>1158.75</ele><time>2026-04-15T10:47:06Z</time></trkpt><trkpt lat="29.83642422593073" lon="-8.550881695018166"><ele>1156.5</ele><time>2026-04-15T10:47:07Z</time></trkpt><trkpt lat="29.836465656124677" lon="-8.5507377290973"><ele>1154.25</ele><time>2026-04-15T10:47:08Z</time></trkpt><trkpt lat="29.836505806259606" lon="-8.550592914982719"><ele>1152.0</ele><time>2026-04-15T10:47:09Z</time></trkpt><trkpt lat="29.836539503515823" lon="-8.550442434207705"><ele>1150.5</ele><time>2026-04-15T10:47:10Z</time></trkpt><trkpt lat="29.8365700434114" lon="-8.550286782279926"><ele>1149.0</ele><time>2026-04-15T10:47:11Z</time></trkpt><trkpt lat="29.836595051389455" lon="-8.550124770065569"><ele>1147.5</ele><time>2026-04-15T10:47:12Z</time></trkpt><trkpt lat="29.83662067012894" lon="-8.549957879003129"><ele>1146.0</ele><time>2026-04-15T10:47:13Z</time></trkpt><trkpt lat="29.836640697298243" lon="-8.549788393087827"><ele>1146.0</ele><time>2026-04-15T10:47:14Z</time></trkpt><trkpt lat="29.836650521952908" lon="-8.549618624740136"><ele>1146.0</ele><time>2026-04-15T10:47:15Z</time></trkpt><trkpt lat="29.836655633520444" lon="-8.549459011412802"><ele>1146.0</ele><time>2026-04-15T10:47:16Z</time></trkpt><trkpt lat="29.83666360193931" lon="-8.549302331098454"><ele>1146.0</ele><time>2026-04-15T10:47:17Z</time></trkpt><trkpt lat="29.836670407669196" lon="-8.54914893058146"><ele>1145.25</ele><time>2026-04-15T10:47:18Z</time></trkpt><trkpt lat="29.836674275887926" lon="-8.548996245423265"><ele>1144.5</ele><time>2026-04-15T10:47:19Z</time></trkpt><trkpt lat="29.836674730283132" lon="-8.548842799247524"><ele>1143.75</ele><time>2026-04-15T10:47:20Z</time></trkpt><trkpt lat="29.83667576259973" lon="-8.548687631878806"><ele>1143.0</ele><time>2026-04-15T10:47:21Z</time></trkpt><trkpt lat="29.836684715168214" lon="-8.548531365278789"><ele>1142.5</ele><time>2026-04-15T10:47:22Z</time></trkpt><trkpt lat="29.83670368475316" lon="-8.548370477170659"><ele>1142.0</ele><time>2026-04-15T10:47:23Z</time></trkpt><trkpt lat="29.836728169987936" lon="-8.548203684750122"><ele>1141.5</ele><time>2026-04-15T10:47:24Z</time></trkpt><trkpt lat="29.83675596058061" lon="-8.548037831138256"><ele>1141.0</ele><time>2026-04-15T10:47:25Z</time></trkpt><trkpt lat="29.83677998291893" lon="-8.547868997494325"><ele>1140.3333333333333</ele><time>2026-04-15T10:47:26Z</time></trkpt><trkpt lat="29.83680249882991" lon="-8.547696453577018"><ele>1139.6666666666667</ele><time>2026-04-15T10:47:27Z</time></trkpt><trkpt lat="29.83682928883843" lon="-8.547520823282163"><ele>1139.0</ele><time>2026-04-15T10:47:28Z</time></trkpt><trkpt lat="29.836859570096934" lon="-8.547344243953514"><ele>1141.6666666666667</ele><time>2026-04-15T10:47:29Z</time></trkpt><trkpt lat="29.8368934130735" lon="-8.547171009866162"><ele>1144.3333333333333</ele><time>2026-04-15T10:47:30Z</time></trkpt><trkpt lat="29.836924774871" lon="-8.546998952038113"><ele>1147.0</ele><time>2026-04-15T10:47:31Z</time></trkpt><trkpt lat="29.83695414162391" lon="-8.546827498588776"><ele>1147.0</ele><time>2026-04-15T10:47:32Z</time></trkpt><trkpt lat="29.836982896815236" lon="-8.546653387667346"><ele>1147.0</ele><time>2026-04-15T10:47:33Z</time></trkpt><trkpt lat="29.83701505110318" lon="-8.546479707119513"><ele>1147.0</ele><time>2026-04-15T10:47:34Z</time></trkpt><trkpt lat="29.837046915300384" lon="-8.546318569898574"><ele>1146.25</ele><time>2026-04-15T10:47:35Z</time></trkpt><trkpt lat="29.837077504233182" lon="-8.54616375076926"><ele>1145.5</ele><time>2026-04-15T10:47:36Z</time></trkpt><trkpt lat="29.8371064264449" lon="-8.546016667005881"><ele>1144.75</ele><time>2026-04-15T10:47:37Z</time></trkpt><trkpt lat="29.837134745626827" lon="-8.545870195819855"><ele>1144.0</ele><time>2026-04-15T10:47:38Z</time></trkpt><trkpt lat="29.837160902393766" lon="-8.545715666932988"><ele>1144.0</ele><time>2026-04-15T10:47:39Z</time></trkpt><trkpt lat="29.83718798826027" lon="-8.54555890235265"><ele>1144.0</ele><time>2026-04-15T10:47:40Z</time></trkpt><trkpt lat="29.837215695493864" lon="-8.545407761139723"><ele>1144.0</ele><time>2026-04-15T10:47:41Z</time></trkpt><trkpt lat="29.837252798103417" lon="-8.545247472977133"><ele>1144.0</ele><time>2026-04-15T10:47:42Z</time></trkpt><trkpt lat="29.837294644891557" lon="-8.545076429998788"><ele>1142.6666666666665</ele><time>2026-04-15T10:47:43Z</time></trkpt><trkpt lat="29.837341723444652" lon="-8.544896392274921"><ele>1141.3333333333333</ele><time>2026-04-15T10:47:44Z</time></trkpt><trkpt lat="29.83739386992595" lon="-8.544723165399054"><ele>1140.0</ele><time>2026-04-15T10:47:45Z</time></trkpt><trkpt lat="29.837447841033715" lon="-8.544557003212203"><ele>1137.3333333333333</ele><time>2026-04-15T10:47:46Z</time></trkpt><trkpt lat="29.837505428084476" lon="-8.544389025189167"><ele>1134.6666666666665</ele><time>2026-04-15T10:47:47Z</time></trkpt><trkpt lat="29.837569870278564" lon="-8.54422561111429"><ele>1132.0</ele><time>2026-04-15T10:47:48Z</time></trkpt><trkpt lat="29.837641453326285" lon="-8.544059674787976"><ele>1136.0</ele><time>2026-04-15T10:47:49Z</time></trkpt><trkpt lat="29.837713398194406" lon="-8.543892404864485"><ele>1140.0</ele><time>2026-04-15T10:47:50Z</time></trkpt><trkpt lat="29.837785641236746" lon="-8.543720203518738"><ele>1144.0</ele><time>2026-04-15T10:47:51Z</time></trkpt><trkpt lat="29.837855332380634" lon="-8.543551310652763"><ele>1144.0</ele><time>2026-04-15T10:47:52Z</time></trkpt><trkpt lat="29.83792760044252" lon="-8.54338614569876"><ele>1144.0</ele><time>2026-04-15T10:47:53Z</time></trkpt><trkpt lat="29.83800229276471" lon="-8.543225473006268"><ele>1144.0</ele><time>2026-04-15T10:47:54Z</time></trkpt><trkpt lat="29.838075293956283" lon="-8.543061413239815"><ele>1144.0</ele><time>2026-04-15T10:47:55Z</time></trkpt><trkpt lat="29.838148957548867" lon="-8.542892143695248"><ele>1144.0</ele><time>2026-04-15T10:47:56Z</time></trkpt><trkpt lat="29.838217853558728" lon="-8.542740055400605"><ele>1144.0</ele><time>2026-04-15T10:47:57Z</time></trkpt><trkpt lat="29.838283948439727" lon="-8.542602655890803"><ele>1144.0</ele><time>2026-04-15T10:47:58Z</time></trkpt><trkpt lat="29.838346845945665" lon="-8.542465136867731"><ele>1143.5</ele><time>2026-04-15T10:47:59Z</time></trkpt><trkpt lat="29.838409675689473" lon="-8.542325697357558"><ele>1143.0</ele><time>2026-04-15T10:48:00Z</time></trkpt><trkpt lat="29.838475106146866" lon="-8.542185770921808"><ele>1142.5</ele><time>2026-04-15T10:48:01Z</time></trkpt><trkpt lat="29.838536857327522" lon="-8.542043295565955"><ele>1142.0</ele><time>2026-04-15T10:48:02Z</time></trkpt><trkpt lat="29.838597437420027" lon="-8.541891661403698"><ele>1142.0</ele><time>2026-04-15T10:48:03Z</time></trkpt><trkpt lat="29.83866424966255" lon="-8.541740160071464"><ele>1142.0</ele><time>2026-04-15T10:48:04Z</time></trkpt><trkpt lat="29.838738486341267" lon="-8.541589629028966"><ele>1142.0</ele><time>2026-04-15T10:48:05Z</time></trkpt><trkpt lat="29.838818864270255" lon="-8.541440692604429"><ele>1142.0</ele><time>2026-04-15T10:48:06Z</time></trkpt><trkpt lat="29.838900916045805" lon="-8.541286246749738"><ele>1142.0</ele><time>2026-04-15T10:48:07Z</time></trkpt><trkpt lat="29.838982745246554" lon="-8.541141370337451"><ele>1142.0</ele><time>2026-04-15T10:48:08Z</time></trkpt><trkpt lat="29.83906339048076" lon="-8.541008810741868"><ele>1142.0</ele><time>2026-04-15T10:48:09Z</time></trkpt><trkpt lat="29.839135941929854" lon="-8.54088799758761"><ele>1142.4</ele><time>2026-04-15T10:48:10Z</time></trkpt><trkpt lat="29.83920250255633" lon="-8.540781343530288"><ele>1142.8000000000002</ele><time>2026-04-15T10:48:11Z</time></trkpt><trkpt lat="29.839263626704206" lon="-8.54068515833893"><ele>1143.2</ele><time>2026-04-15T10:48:12Z</time></trkpt><trkpt lat="29.839317317344147" lon="-8.540590886636556"><ele>1143.6000000000001</ele><time>2026-04-15T10:48:13Z</time></trkpt><trkpt lat="29.839367292466708" lon="-8.540500243726557"><ele>1144.0</ele><time>2026-04-15T10:48:14Z</time></trkpt><trkpt lat="29.83941957397684" lon="-8.54040583124791"><ele>1143.0</ele><time>2026-04-15T10:48:15Z</time></trkpt><trkpt lat="29.83947690747705" lon="-8.540311667980903"><ele>1142.0</ele><time>2026-04-15T10:48:16Z</time></trkpt><trkpt lat="29.839535253760893" lon="-8.540216414202048"><ele>1141.0</ele><time>2026-04-15T10:48:17Z</time></trkpt><trkpt lat="29.83959392194617" lon="-8.540121431177239"><ele>1140.0</ele><time>2026-04-15T10:48:18Z</time></trkpt><trkpt lat="29.8396515903385" lon="-8.540026653609761"><ele>1139.0</ele><time>2026-04-15T10:48:19Z</time></trkpt><trkpt lat="29.839708033382305" lon="-8.539930525417033"><ele>1139.0</ele><time>2026-04-15T10:48:20Z</time></trkpt><trkpt lat="29.839764346230044" lon="-8.539835380515559"><ele>1139.0</ele><time>2026-04-15T10:48:21Z</time></trkpt><trkpt lat="29.839817459983983" lon="-8.539742576449527"><ele>1139.0</ele><time>2026-04-15T10:48:22Z</time></trkpt><trkpt lat="29.839862973475416" lon="-8.539644094608532"><ele>1139.0</ele><time>2026-04-15T10:48:23Z</time></trkpt><trkpt lat="29.83990085507125" lon="-8.539548005552414"><ele>1139.0</ele><time>2026-04-15T10:48:24Z</time></trkpt><trkpt lat="29.839937592559107" lon="-8.539446404527851"><ele>1137.0</ele><time>2026-04-15T10:48:25Z</time></trkpt><trkpt lat="29.839969415170568" lon="-8.539341679231486"><ele>1135.0</ele><time>2026-04-15T10:48:26Z</time></trkpt><trkpt lat="29.840000237054724" lon="-8.539235993058178"><ele>1133.0</ele><time>2026-04-15T10:48:27Z</time></trkpt><trkpt lat="29.840027448991734" lon="-8.539126043981009"><ele>1131.0</ele><time>2026-04-15T10:48:28Z</time></trkpt><trkpt lat="29.840059308757084" lon="-8.539014010447648"><ele>1129.0</ele><time>2026-04-15T10:48:29Z</time></trkpt><trkpt lat="29.84009162411025" lon="-8.538898784954235"><ele>1129.0</ele><time>2026-04-15T10:48:30Z</time></trkpt><trkpt lat="29.84012128463975" lon="-8.538783612754216"><ele>1129.0</ele><time>2026-04-15T10:48:31Z</time></trkpt><trkpt lat="29.84014908727779" lon="-8.538668857697978"><ele>1129.0</ele><time>2026-04-15T10:48:32Z</time></trkpt><trkpt lat="29.84018168538587" lon="-8.53855358692552"><ele>1129.0</ele><time>2026-04-15T10:48:33Z</time></trkpt><trkpt lat="29.840215047324968" lon="-8.538434847332821"><ele>1129.0</ele><time>2026-04-15T10:48:34Z</time></trkpt><trkpt lat="29.840248358828088" lon="-8.538313992040079"><ele>1131.25</ele><time>2026-04-15T10:48:35Z</time></trkpt><trkpt lat="29.84028015639227" lon="-8.53818946192095"><ele>1133.5</ele><time>2026-04-15T10:48:36Z</time></trkpt><trkpt lat="29.84031347912011" lon="-8.538060230403488"><ele>1135.75</ele><time>2026-04-15T10:48:37Z</time></trkpt><trkpt lat="29.840349226181043" lon="-8.537928293501167"><ele>1138.0</ele><time>2026-04-15T10:48:38Z</time></trkpt><trkpt lat="29.840384570304014" lon="-8.537790334129253"><ele>1138.0</ele><time>2026-04-15T10:48:39Z</time></trkpt><trkpt lat="29.840408601467296" lon="-8.53765236895227"><ele>1138.0</ele><time>2026-04-15T10:48:40Z</time></trkpt><trkpt lat="29.840413773428374" lon="-8.537496993781074"><ele>1138.0</ele><time>2026-04-15T10:48:41Z</time></trkpt><trkpt lat="29.840412113755452" lon="-8.537368525813532"><ele>1138.0</ele><time>2026-04-15T10:48:42Z</time></trkpt><trkpt lat="29.840391946691454" lon="-8.537238863433414"><ele>1138.0</ele><time>2026-04-15T10:48:43Z</time></trkpt><trkpt lat="29.840353876064448" lon="-8.537113112834332"><ele>1138.0</ele><time>2026-04-15T10:48:44Z</time></trkpt><trkpt lat="29.84031631400263" lon="-8.536989312908288"><ele>1138.0</ele><time>2026-04-15T10:48:45Z</time></trkpt><trkpt lat="29.84028379074575" lon="-8.536870791889251"><ele>1138.0</ele><time>2026-04-15T10:48:46Z</time></trkpt><trkpt lat="29.840250256021882" lon="-8.536756912396212"><ele>1138.0</ele><time>2026-04-15T10:48:47Z</time></trkpt><trkpt lat="29.840215883192073" lon="-8.536646576245799"><ele>1136.6</ele><time>2026-04-15T10:48:48Z</time></trkpt><trkpt lat="29.84018746019607" lon="-8.5365326838147"><ele>1135.1999999999998</ele><time>2026-04-15T10:48:49Z</time></trkpt><trkpt lat="29.840162143165767" lon="-8.536415060761108"><ele>1133.8</ele><time>2026-04-15T10:48:50Z</time></trkpt><trkpt lat="29.840141089085172" lon="-8.536286452019755"><ele>1132.3999999999999</ele><time>2026-04-15T10:48:51Z</time></trkpt><trkpt lat="29.840126868327545" lon="-8.536149145490455"><ele>1131.0</ele><time>2026-04-15T10:48:52Z</time></trkpt><trkpt lat="29.8401171523341" lon="-8.536012221980291"><ele>1127.6</ele><time>2026-04-15T10:48:53Z</time></trkpt><trkpt lat="29.84010773143179" lon="-8.535884525026983"><ele>1124.1999999999998</ele><time>2026-04-15T10:48:54Z</time></trkpt><trkpt lat="29.840096479228468" lon="-8.535761409594842"><ele>1120.8000000000002</ele><time>2026-04-15T10:48:55Z</time></trkpt><trkpt lat="29.840089071560442" lon="-8.535644295327433"><ele>1117.4</ele><time>2026-04-15T10:48:56Z</time></trkpt><trkpt lat="29.84008977019008" lon="-8.535528109178603"><ele>1114.0</ele><time>2026-04-15T10:48:57Z</time></trkpt><trkpt lat="29.84010118523478" lon="-8.53541566166093"><ele>1113.5</ele><time>2026-04-15T10:48:58Z</time></trkpt><trkpt lat="29.84011709047477" lon="-8.535311641759433"><ele>1113.0</ele><time>2026-04-15T10:48:59Z</time></trkpt><trkpt lat="29.840134387973567" lon="-8.535227904251503"><ele>1112.5</ele><time>2026-04-15T10:49:00Z</time></trkpt><trkpt lat="29.84018288046693" lon="-8.535100436790131"><ele>1112.0</ele><time>2026-04-15T10:49:02Z</time></trkpt><trkpt lat="29.84023253496535" lon="-8.535045049546943"><ele>1111.5</ele><time>2026-04-15T10:49:03Z</time></trkpt><trkpt lat="29.840305989989428" lon="-8.534993012217742"><ele>1111.0</ele><time>2026-04-15T10:49:04Z</time></trkpt><trkpt lat="29.840388433355564" lon="-8.534937105657455"><ele>1110.8</ele><time>2026-04-15T10:49:05Z</time></trkpt><trkpt lat="29.840476326102088" lon="-8.534875213060023"><ele>1110.6</ele><time>2026-04-15T10:49:06Z</time></trkpt><trkpt lat="29.840567041755396" lon="-8.53480537769403"><ele>1110.4</ele><time>2026-04-15T10:49:07Z</time></trkpt><trkpt lat="29.840651602790814" lon="-8.534736090882877"><ele>1110.2</ele><time>2026-04-15T10:49:08Z</time></trkpt><trkpt lat="29.84073810754433" lon="-8.534665100288935"><ele>1110.0</ele><time>2026-04-15T10:49:09Z</time></trkpt><trkpt lat="29.84083296846564" lon="-8.534588771686714"><ele>1110.25</ele><time>2026-04-15T10:49:10Z</time></trkpt><trkpt lat="29.840935266956073" lon="-8.534510194255684"><ele>1110.5</ele><time>2026-04-15T10:49:11Z</time></trkpt><trkpt lat="29.841037930503756" lon="-8.534431093313234"><ele>1110.75</ele><time>2026-04-15T10:49:12Z</time></trkpt><trkpt lat="29.841140121478848" lon="-8.534352737404827"><ele>1111.0</ele><time>2026-04-15T10:49:13Z</time></trkpt><trkpt lat="29.841238437101147" lon="-8.534279681204787"><ele>1112.2</ele><time>2026-04-15T10:49:14Z</time></trkpt><trkpt lat="29.841332609029113" lon="-8.534207623847513"><ele>1113.3999999999999</ele><time>2026-04-15T10:49:15Z</time></trkpt><trkpt lat="29.84142238760679" lon="-8.534136148483755"><ele>1114.6</ele><time>2026-04-15T10:49:16Z</time></trkpt><trkpt lat="29.84150859487742" lon="-8.534081451531192"><ele>1115.8</ele><time>2026-04-15T10:49:17Z</time></trkpt><trkpt lat="29.84159865513583" lon="-8.53404064170806"><ele>1117.0</ele><time>2026-04-15T10:49:18Z</time></trkpt><trkpt lat="29.8416944393597" lon="-8.53400462377821"><ele>1117.0</ele><time>2026-04-15T10:49:19Z</time></trkpt><trkpt lat="29.84178745327272" lon="-8.533966645285593"><ele>1117.0</ele><time>2026-04-15T10:49:20Z</time></trkpt><trkpt lat="29.84188274954267" lon="-8.533932274577992"><ele>1117.0</ele><time>2026-04-15T10:49:21Z</time></trkpt><trkpt lat="29.841983941372856" lon="-8.533915521197615"><ele>1117.0</ele><time>2026-04-15T10:49:22Z</time></trkpt><trkpt lat="29.84208867556614" lon="-8.533903130561908"><ele>1117.0</ele><time>2026-04-15T10:49:23Z</time></trkpt><trkpt lat="29.84219486795929" lon="-8.533887927717547"><ele>1118.0</ele><time>2026-04-15T10:49:24Z</time></trkpt><trkpt lat="29.842303398331197" lon="-8.533877485569823"><ele>1119.0</ele><time>2026-04-15T10:49:25Z</time></trkpt><trkpt lat="29.842416669543596" lon="-8.53387583729691"><ele>1120.0</ele><time>2026-04-15T10:49:26Z</time></trkpt><trkpt lat="29.842534680523205" lon="-8.533887869923545"><ele>1121.0</ele><time>2026-04-15T10:49:27Z</time></trkpt><trkpt lat="29.842664102630717" lon="-8.533923922331246"><ele>1122.25</ele><time>2026-04-15T10:49:28Z</time></trkpt><trkpt lat="29.842792959794828" lon="-8.533969422304223"><ele>1123.5</ele><time>2026-04-15T10:49:29Z</time></trkpt><trkpt lat="29.84291544254372" lon="-8.534016092081407"><ele>1124.75</ele><time>2026-04-15T10:49:30Z</time></trkpt><trkpt lat="29.843041124631082" lon="-8.534048370921003"><ele>1126.0</ele><time>2026-04-15T10:49:31Z</time></trkpt><trkpt lat="29.843169286202347" lon="-8.534052703363747"><ele>1126.0</ele><time>2026-04-15T10:49:32Z</time></trkpt><trkpt lat="29.843297616554626" lon="-8.534036423420979"><ele>1126.0</ele><time>2026-04-15T10:49:33Z</time></trkpt><trkpt lat="29.84342737104829" lon="-8.533999772109944"><ele>1126.0</ele><time>2026-04-15T10:49:34Z</time></trkpt><trkpt lat="29.843548896541723" lon="-8.533949888997041"><ele>1126.0</ele><time>2026-04-15T10:49:35Z</time></trkpt><trkpt lat="29.84366209995906" lon="-8.533880038871576"><ele>1127.75</ele><time>2026-04-15T10:49:36Z</time></trkpt><trkpt lat="29.843770655337043" lon="-8.533794603669461"><ele>1129.5</ele><time>2026-04-15T10:49:37Z</time></trkpt><trkpt lat="29.84387237484162" lon="-8.533694330700797"><ele>1131.25</ele><time>2026-04-15T10:49:38Z</time></trkpt><trkpt lat="29.84396425310977" lon="-8.533582599249904"><ele>1133.0</ele><time>2026-04-15T10:49:39Z</time></trkpt><trkpt lat="29.844053002442784" lon="-8.533463348939641"><ele>1133.0</ele><time>2026-04-15T10:49:40Z</time></trkpt><trkpt lat="29.844139955259962" lon="-8.533343886614684"><ele>1133.0</ele><time>2026-04-15T10:49:41Z</time></trkpt><trkpt lat="29.844227881237995" lon="-8.533216626748061"><ele>1133.0</ele><time>2026-04-15T10:49:42Z</time></trkpt><trkpt lat="29.8443064215268" lon="-8.53308334127636"><ele>1133.0</ele><time>2026-04-15T10:49:43Z</time></trkpt><trkpt lat="29.844374396697553" lon="-8.532936492697042"><ele>1135.0</ele><time>2026-04-15T10:49:44Z</time></trkpt><trkpt lat="29.844448237205984" lon="-8.53279349238712"><ele>1137.0</ele><time>2026-04-15T10:49:45Z</time></trkpt><trkpt lat="29.844523551732816" lon="-8.532661278879118"><ele>1139.0</ele><time>2026-04-15T10:49:46Z</time></trkpt><trkpt lat="29.844600356634206" lon="-8.532533412554248"><ele>1141.0</ele><time>2026-04-15T10:49:47Z</time></trkpt><trkpt lat="29.844684274421983" lon="-8.532414605023035"><ele>1141.0</ele><time>2026-04-15T10:49:48Z</time></trkpt><trkpt lat="29.844776953379146" lon="-8.532302798890548"><ele>1141.0</ele><time>2026-04-15T10:49:49Z</time></trkpt><trkpt lat="29.844882773169097" lon="-8.532208274497426"><ele>1141.0</ele><time>2026-04-15T10:49:50Z</time></trkpt><trkpt lat="29.845002238444717" lon="-8.532130716806831"><ele>1141.0</ele><time>2026-04-15T10:49:51Z</time></trkpt><trkpt lat="29.84513178520927" lon="-8.532076088065454"><ele>1139.25</ele><time>2026-04-15T10:49:52Z</time></trkpt><trkpt lat="29.845267088543856" lon="-8.532035857338686"><ele>1137.5</ele><time>2026-04-15T10:49:53Z</time></trkpt><trkpt lat="29.845403536640372" lon="-8.532008689285059"><ele>1135.75</ele><time>2026-04-15T10:49:54Z</time></trkpt><trkpt lat="29.84552720884494" lon="-8.531969058324153"><ele>1134.0</ele><time>2026-04-15T10:49:55Z</time></trkpt><trkpt lat="29.84564951374299" lon="-8.53190518516354"><ele>1134.0</ele><time>2026-04-15T10:49:56Z</time></trkpt><trkpt lat="29.845768126184186" lon="-8.531821381545525"><ele>1134.0</ele><time>2026-04-15T10:49:57Z</time></trkpt><trkpt lat="29.845874544366314" lon="-8.531711767572151"><ele>1134.0</ele><time>2026-04-15T10:49:58Z</time></trkpt><trkpt lat="29.845971769429458" lon="-8.531589949848641"><ele>1134.0</ele><time>2026-04-15T10:49:59Z</time></trkpt><trkpt lat="29.846050257597227" lon="-8.53147123085141"><ele>1134.5</ele><time>2026-04-15T10:50:00Z</time></trkpt><trkpt lat="29.846141004437346" lon="-8.53136445076433"><ele>1135.0</ele><time>2026-04-15T10:50:01Z</time></trkpt><trkpt lat="29.846256381649933" lon="-8.531275301089256"><ele>1135.5</ele><time>2026-04-15T10:50:02Z</time></trkpt><trkpt lat="29.84638406803619" lon="-8.531195151793668"><ele>1136.0</ele><time>2026-04-15T10:50:03Z</time></trkpt><trkpt lat="29.846516385058347" lon="-8.531115397302411"><ele>1136.0</ele><time>2026-04-15T10:50:04Z</time></trkpt><trkpt lat="29.846644315665007" lon="-8.531035060567886"><ele>1136.0</ele><time>2026-04-15T10:50:05Z</time></trkpt><trkpt lat="29.84676074197665" lon="-8.530958069915346"><ele>1136.0</ele><time>2026-04-15T10:50:06Z</time></trkpt><trkpt lat="29.846875363387728" lon="-8.53088594827297"><ele>1136.0</ele><time>2026-04-15T10:50:07Z</time></trkpt><trkpt lat="29.84698376899208" lon="-8.530821921917195"><ele>1136.8</ele><time>2026-04-15T10:50:08Z</time></trkpt><trkpt lat="29.84708634741001" lon="-8.530769718107326"><ele>1137.6</ele><time>2026-04-15T10:50:09Z</time></trkpt><trkpt lat="29.847187833178825" lon="-8.53073899415307"><ele>1138.4</ele><time>2026-04-15T10:50:10Z</time></trkpt><trkpt lat="29.847281022170993" lon="-8.530746884322172"><ele>1139.2</ele><time>2026-04-15T10:50:11Z</time></trkpt><trkpt lat="29.847366787020356" lon="-8.530787731413895"><ele>1140.0</ele><time>2026-04-15T10:50:12Z</time></trkpt><trkpt lat="29.847434455091225" lon="-8.530853763235843"><ele>1140.0</ele><time>2026-04-15T10:50:13Z</time></trkpt><trkpt lat="29.84747779132997" lon="-8.530937972627715"><ele>1140.0</ele><time>2026-04-15T10:50:14Z</time></trkpt><trkpt lat="29.847515267255886" lon="-8.531021027561636"><ele>1140.0</ele><time>2026-04-15T10:50:15Z</time></trkpt><trkpt lat="29.84756018838594" lon="-8.531103414989168"><ele>1140.0</ele><time>2026-04-15T10:50:16Z</time></trkpt><trkpt lat="29.847615817368403" lon="-8.531182775178856"><ele>1140.0</ele><time>2026-04-15T10:50:17Z</time></trkpt><trkpt lat="29.847676626418117" lon="-8.531253493317296"><ele>1140.0</ele><time>2026-04-15T10:50:18Z</time></trkpt><trkpt lat="29.847740339374365" lon="-8.531322964839132"><ele>1140.2</ele><time>2026-04-15T10:50:19Z</time></trkpt><trkpt lat="29.847813946317174" lon="-8.531390509890013"><ele>1140.4</ele><time>2026-04-15T10:50:20Z</time></trkpt><trkpt lat="29.84790167880977" lon="-8.531449905786227"><ele>1140.6</ele><time>2026-04-15T10:50:21Z</time></trkpt><trkpt lat="29.84800625409147" lon="-8.531488229306433"><ele>1140.8</ele><time>2026-04-15T10:50:22Z</time></trkpt><trkpt lat="29.84811656417925" lon="-8.53150756850804"><ele>1141.0</ele><time>2026-04-15T10:50:23Z</time></trkpt><trkpt lat="29.848239896664804" lon="-8.531504502521013"><ele>1141.0</ele><time>2026-04-15T10:50:24Z</time></trkpt><trkpt lat="29.848370961890787" lon="-8.5314889334433"><ele>1141.0</ele><time>2026-04-15T10:50:25Z</time></trkpt><trkpt lat="29.848504563061567" lon="-8.531462758365898"><ele>1141.0</ele><time>2026-04-15T10:50:26Z</time></trkpt><trkpt lat="29.848639959786738" lon="-8.531433627457448"><ele>1141.0</ele><time>2026-04-15T10:50:27Z</time></trkpt><trkpt lat="29.84876873114364" lon="-8.531406123847052"><ele>1141.0</ele><time>2026-04-15T10:50:28Z</time></trkpt><trkpt lat="29.848901573284156" lon="-8.531381422732398"><ele>1141.0</ele><time>2026-04-15T10:50:29Z</time></trkpt><trkpt lat="29.849030502859176" lon="-8.531359746324924"><ele>1141.0</ele><time>2026-04-15T10:50:30Z</time></trkpt><trkpt lat="29.849155637853226" lon="-8.531334583863918"><ele>1141.0</ele><time>2026-04-15T10:50:31Z</time></trkpt><trkpt lat="29.849282782723915" lon="-8.531308478267572"><ele>1140.8</ele><time>2026-04-15T10:50:32Z</time></trkpt><trkpt lat="29.849407372170187" lon="-8.531279681186255"><ele>1140.6</ele><time>2026-04-15T10:50:33Z</time></trkpt><trkpt lat="29.8495202802893" lon="-8.531242066274412"><ele>1140.4</ele><time>2026-04-15T10:50:34Z</time></trkpt><trkpt lat="29.849612159806068" lon="-8.53119215317132"><ele>1140.2</ele><time>2026-04-15T10:50:35Z</time></trkpt><trkpt lat="29.84967792223327" lon="-8.531124611906911"><ele>1140.0</ele><time>2026-04-15T10:50:36Z</time></trkpt><trkpt lat="29.849733580521278" lon="-8.531032276791471"><ele>1140.6</ele><time>2026-04-15T10:50:37Z</time></trkpt><trkpt lat="29.849777032879967" lon="-8.530923500037952"><ele>1141.2</ele><time>2026-04-15T10:50:38Z</time></trkpt><trkpt lat="29.84981154477167" lon="-8.53080981552244"><ele>1141.8</ele><time>2026-04-15T10:50:39Z</time></trkpt><trkpt lat="29.849843843693765" lon="-8.530697035884215"><ele>1142.4</ele><time>2026-04-15T10:50:40Z</time></trkpt><trkpt lat="29.849876993173815" lon="-8.530592501843252"><ele>1143.0</ele><time>2026-04-15T10:50:41Z</time></trkpt><trkpt lat="29.84991532753701" lon="-8.530498832259704"><ele>1143.0</ele><time>2026-04-15T10:50:42Z</time></trkpt><trkpt lat="29.849946177636998" lon="-8.530414058673328"><ele>1143.0</ele><time>2026-04-15T10:50:43Z</time></trkpt><trkpt lat="29.849968387528275" lon="-8.530333801402545"><ele>1143.0</ele><time>2026-04-15T10:50:44Z</time></trkpt><trkpt lat="29.849990518627745" lon="-8.53026236813057"><ele>1143.0</ele><time>2026-04-15T10:50:45Z</time></trkpt><trkpt lat="29.850022844396854" lon="-8.530131841551599"><ele>1143.0</ele><time>2026-04-15T10:50:47Z</time></trkpt><trkpt lat="29.849995767626446" lon="-8.530038022147549"><ele>1143.0</ele><time>2026-04-15T10:50:49Z</time></trkpt><trkpt lat="29.849922519859827" lon="-8.530018873804014"><ele>1144.6</ele><time>2026-04-15T10:50:51Z</time></trkpt><trkpt lat="29.84982598153793" lon="-8.530050532628724"><ele>1146.1999999999998</ele><time>2026-04-15T10:50:53Z</time></trkpt><trkpt lat="29.849713270267294" lon="-8.53010965530737"><ele>1147.8</ele><time>2026-04-15T10:50:55Z</time></trkpt><trkpt lat="29.849648219846422" lon="-8.530123794696335"><ele>1149.3999999999999</ele><time>2026-04-15T10:50:56Z</time></trkpt><trkpt lat="29.84951845287047" lon="-8.53014924950861"><ele>1151.0</ele><time>2026-04-15T10:50:58Z</time></trkpt><trkpt lat="29.849439178622582" lon="-8.530176838953244"><ele>1151.0</ele><time>2026-04-15T10:50:59Z</time></trkpt><trkpt lat="29.849354992324898" lon="-8.53021059509247"><ele>1151.0</ele><time>2026-04-15T10:51:00Z</time></trkpt><trkpt lat="29.849258628443653" lon="-8.53023882220309"><ele>1151.0</ele><time>2026-04-15T10:51:01Z</time></trkpt><trkpt lat="29.849154827387466" lon="-8.53026764696957"><ele>1151.0</ele><time>2026-04-15T10:51:02Z</time></trkpt><trkpt lat="29.849035869816532" lon="-8.530299670137612"><ele>1151.0</ele><time>2026-04-15T10:51:03Z</time></trkpt><trkpt lat="29.84889927136199" lon="-8.530320907329065"><ele>1151.5</ele><time>2026-04-15T10:51:04Z</time></trkpt><trkpt lat="29.84874757859015" lon="-8.530321894442041"><ele>1152.0</ele><time>2026-04-15T10:51:05Z</time></trkpt><trkpt lat="29.848606016237753" lon="-8.530306908198835"><ele>1152.5</ele><time>2026-04-15T10:51:06Z</time></trkpt><trkpt lat="29.848477588622416" lon="-8.530276506717978"><ele>1153.0</ele><time>2026-04-15T10:51:07Z</time></trkpt><trkpt lat="29.848363683242855" lon="-8.530237744595121"><ele>1152.0</ele><time>2026-04-15T10:51:08Z</time></trkpt><trkpt lat="29.848252225631967" lon="-8.530192077488719"><ele>1151.0</ele><time>2026-04-15T10:51:09Z</time></trkpt><trkpt lat="29.84814487205819" lon="-8.530134753670968"><ele>1150.0</ele><time>2026-04-15T10:51:10Z</time></trkpt><trkpt lat="29.848036372813407" lon="-8.530067035000892"><ele>1149.0</ele><time>2026-04-15T10:51:11Z</time></trkpt><trkpt lat="29.84792445168305" lon="-8.530000400861939"><ele>1149.0</ele><time>2026-04-15T10:51:12Z</time></trkpt><trkpt lat="29.84782266211612" lon="-8.529915156574692"><ele>1149.0</ele><time>2026-04-15T10:51:13Z</time></trkpt><trkpt lat="29.847733383455175" lon="-8.529787050780627"><ele>1149.0</ele><time>2026-04-15T10:51:14Z</time></trkpt><trkpt lat="29.847644955780634" lon="-8.529662258363594"><ele>1149.0</ele><time>2026-04-15T10:51:15Z</time></trkpt><trkpt lat="29.84755844471378" lon="-8.529527893245183"><ele>1147.0</ele><time>2026-04-15T10:51:16Z</time></trkpt><trkpt lat="29.84747514937879" lon="-8.52937769943108"><ele>1145.0</ele><time>2026-04-15T10:51:17Z</time></trkpt><trkpt lat="29.84740534390838" lon="-8.529223657578923"><ele>1143.0</ele><time>2026-04-15T10:51:18Z</time></trkpt><trkpt lat="29.847334773104777" lon="-8.529070267229589"><ele>1143.0</ele><time>2026-04-15T10:51:19Z</time></trkpt><trkpt lat="29.84727463849631" lon="-8.528906602699456"><ele>1143.0</ele><time>2026-04-15T10:51:20Z</time></trkpt><trkpt lat="29.84722046860199" lon="-8.528742414813253"><ele>1143.0</ele><time>2026-04-15T10:51:21Z</time></trkpt><trkpt lat="29.84717084813986" lon="-8.528580408107306"><ele>1144.6666666666667</ele><time>2026-04-15T10:51:22Z</time></trkpt><trkpt lat="29.847130324849942" lon="-8.528410806421734"><ele>1146.3333333333335</ele><time>2026-04-15T10:51:23Z</time></trkpt><trkpt lat="29.84709065828693" lon="-8.528238444794777"><ele>1148.0</ele><time>2026-04-15T10:51:24Z</time></trkpt><trkpt lat="29.84705617954083" lon="-8.528063780279341"><ele>1148.0</ele><time>2026-04-15T10:51:25Z</time></trkpt><trkpt lat="29.84702274557457" lon="-8.527894408428118"><ele>1148.0</ele><time>2026-04-15T10:51:26Z</time></trkpt><trkpt lat="29.847002230804748" lon="-8.52771717152058"><ele>1148.0</ele><time>2026-04-15T10:51:27Z</time></trkpt><trkpt lat="29.846979173529405" lon="-8.527546936865516"><ele>1149.5</ele><time>2026-04-15T10:51:28Z</time></trkpt><trkpt lat="29.846961577739954" lon="-8.527375055739318"><ele>1151.0</ele><time>2026-04-15T10:51:29Z</time></trkpt><trkpt lat="29.846914197683127" lon="-8.52721307067707"><ele>1152.5</ele><time>2026-04-15T10:51:30Z</time></trkpt><trkpt lat="29.84685607324951" lon="-8.527065276512173"><ele>1154.0</ele><time>2026-04-15T10:51:31Z</time></trkpt><trkpt lat="29.84678976919798" lon="-8.526918093424346"><ele>1155.3333333333335</ele><time>2026-04-15T10:51:32Z</time></trkpt><trkpt lat="29.84671021860755" lon="-8.526774284943434"><ele>1156.6666666666667</ele><time>2026-04-15T10:51:33Z</time></trkpt><trkpt lat="29.846614935979513" lon="-8.52663094470493"><ele>1158.0</ele><time>2026-04-15T10:51:34Z</time></trkpt><trkpt lat="29.846507608754578" lon="-8.526493159397411"><ele>1158.0</ele><time>2026-04-15T10:51:35Z</time></trkpt><trkpt lat="29.84639441671241" lon="-8.526348910350714"><ele>1158.0</ele><time>2026-04-15T10:51:36Z</time></trkpt><trkpt lat="29.84628070017087" lon="-8.52620981002812"><ele>1158.0</ele><time>2026-04-15T10:51:37Z</time></trkpt><trkpt lat="29.84617345503906" lon="-8.526074939328879"><ele>1159.0</ele><time>2026-04-15T10:51:38Z</time></trkpt><trkpt lat="29.84606859315187" lon="-8.52594158613148"><ele>1160.0</ele><time>2026-04-15T10:51:39Z</time></trkpt><trkpt lat="29.845961935840453" lon="-8.525805864800153"><ele>1161.0</ele><time>2026-04-15T10:51:40Z</time></trkpt><trkpt lat="29.84584468339619" lon="-8.525688974843277"><ele>1161.0</ele><time>2026-04-15T10:51:41Z</time></trkpt><trkpt lat="29.845738632622552" lon="-8.525561448549219"><ele>1161.0</ele><time>2026-04-15T10:51:42Z</time></trkpt><trkpt lat="29.845635445063387" lon="-8.525434156804419"><ele>1161.0</ele><time>2026-04-15T10:51:43Z</time></trkpt><trkpt lat="29.845541868616802" lon="-8.525308214290163"><ele>1161.0</ele><time>2026-04-15T10:51:44Z</time></trkpt><trkpt lat="29.845453143081404" lon="-8.525187761809695"><ele>1161.25</ele><time>2026-04-15T10:51:45Z</time></trkpt><trkpt lat="29.845366162547084" lon="-8.525069112129275"><ele>1161.5</ele><time>2026-04-15T10:51:46Z</time></trkpt><trkpt lat="29.84527481704784" lon="-8.524955262844164"><ele>1161.75</ele><time>2026-04-15T10:51:47Z</time></trkpt><trkpt lat="29.845177624136397" lon="-8.524835067768386"><ele>1162.0</ele><time>2026-04-15T10:51:48Z</time></trkpt><trkpt lat="29.845078035129337" lon="-8.524730676874682"><ele>1162.0</ele><time>2026-04-15T10:51:49Z</time></trkpt><trkpt lat="29.84498649624496" lon="-8.524622489277329"><ele>1162.0</ele><time>2026-04-15T10:51:50Z</time></trkpt><trkpt lat="29.84487929516688" lon="-8.524544046669236"><ele>1162.0</ele><time>2026-04-15T10:51:51Z</time></trkpt><trkpt lat="29.844766298246736" lon="-8.524491449513597"><ele>1162.0</ele><time>2026-04-15T10:51:52Z</time></trkpt><trkpt lat="29.844643557452677" lon="-8.524457073520265"><ele>1162.75</ele><time>2026-04-15T10:51:53Z</time></trkpt><trkpt lat="29.844515693546782" lon="-8.524438727154527"><ele>1163.5</ele><time>2026-04-15T10:51:54Z</time></trkpt><trkpt lat="29.844384888471662" lon="-8.524438018751539"><ele>1164.25</ele><time>2026-04-15T10:51:55Z</time></trkpt><trkpt lat="29.844248531911187" lon="-8.52445071525532"><ele>1165.0</ele><time>2026-04-15T10:51:56Z</time></trkpt><trkpt lat="29.844120581260036" lon="-8.524504077730912"><ele>1165.0</ele><time>2026-04-15T10:51:57Z</time></trkpt><trkpt lat="29.843992278045093" lon="-8.524562132212328"><ele>1165.0</ele><time>2026-04-15T10:51:58Z</time></trkpt><trkpt lat="29.843859291415306" lon="-8.524622165099569"><ele>1165.0</ele><time>2026-04-15T10:51:59Z</time></trkpt><trkpt lat="29.843726243178605" lon="-8.524687624479942"><ele>1165.0</ele><time>2026-04-15T10:52:00Z</time></trkpt><trkpt lat="29.8436068964088" lon="-8.524783381035597"><ele>1164.0</ele><time>2026-04-15T10:52:01Z</time></trkpt><trkpt lat="29.843491890658235" lon="-8.524885143342102"><ele>1163.0</ele><time>2026-04-15T10:52:02Z</time></trkpt><trkpt lat="29.843376410319" lon="-8.524984050267395"><ele>1162.0</ele><time>2026-04-15T10:52:03Z</time></trkpt><trkpt lat="29.843260168476995" lon="-8.525076462436282"><ele>1161.0</ele><time>2026-04-15T10:52:04Z</time></trkpt><trkpt lat="29.843146864814216" lon="-8.5251632947552"><ele>1160.25</ele><time>2026-04-15T10:52:05Z</time></trkpt><trkpt lat="29.843048021588228" lon="-8.525262218622109"><ele>1159.5</ele><time>2026-04-15T10:52:06Z</time></trkpt><trkpt lat="29.842930338756666" lon="-8.52533916253029"><ele>1158.75</ele><time>2026-04-15T10:52:07Z</time></trkpt><trkpt lat="29.842823595582672" lon="-8.525437931596477"><ele>1158.0</ele><time>2026-04-15T10:52:08Z</time></trkpt><trkpt lat="29.84271284227009" lon="-8.525543645317654"><ele>1156.0</ele><time>2026-04-15T10:52:09Z</time></trkpt><trkpt lat="29.842604837947192" lon="-8.525656413805063"><ele>1154.0</ele><time>2026-04-15T10:52:10Z</time></trkpt><trkpt lat="29.842491997318813" lon="-8.525776452850947"><ele>1152.0</ele><time>2026-04-15T10:52:11Z</time></trkpt><trkpt lat="29.842380505025524" lon="-8.52590357466573"><ele>1152.0</ele><time>2026-04-15T10:52:12Z</time></trkpt><trkpt lat="29.842269836234667" lon="-8.526034549652527"><ele>1152.0</ele><time>2026-04-15T10:52:13Z</time></trkpt><trkpt lat="29.84215404769079" lon="-8.526168203207948"><ele>1152.0</ele><time>2026-04-15T10:52:14Z</time></trkpt><trkpt lat="29.842033801384694" lon="-8.52630561032875"><ele>1150.3333333333333</ele><time>2026-04-15T10:52:15Z</time></trkpt><trkpt lat="29.841914224509438" lon="-8.526441802075942"><ele>1148.6666666666665</ele><time>2026-04-15T10:52:16Z</time></trkpt><trkpt lat="29.84179849881798" lon="-8.5265812544415"><ele>1147.0</ele><time>2026-04-15T10:52:17Z</time></trkpt><trkpt lat="29.841681950404656" lon="-8.526715493297607"><ele>1145.6666666666665</ele><time>2026-04-15T10:52:18Z</time></trkpt><trkpt lat="29.841564091486106" lon="-8.526849343418629"><ele>1144.3333333333333</ele><time>2026-04-15T10:52:19Z</time></trkpt><trkpt lat="29.841454945048888" lon="-8.526981038266321"><ele>1143.0</ele><time>2026-04-15T10:52:20Z</time></trkpt><trkpt lat="29.841345930636383" lon="-8.527115122459147"><ele>1141.3333333333333</ele><time>2026-04-15T10:52:21Z</time></trkpt><trkpt lat="29.841232482042884" lon="-8.527249005166452"><ele>1139.6666666666665</ele><time>2026-04-15T10:52:22Z</time></trkpt><trkpt lat="29.84112511066913" lon="-8.527376243978095"><ele>1138.0</ele><time>2026-04-15T10:52:23Z</time></trkpt><trkpt lat="29.841023585838027" lon="-8.52749601031072"><ele>1137.5</ele><time>2026-04-15T10:52:24Z</time></trkpt><trkpt lat="29.84092294804415" lon="-8.527616811780916"><ele>1137.0</ele><time>2026-04-15T10:52:25Z</time></trkpt><trkpt lat="29.84082315361819" lon="-8.527730809173804"><ele>1136.5</ele><time>2026-04-15T10:52:26Z</time></trkpt><trkpt lat="29.84072439527196" lon="-8.527835306152369"><ele>1136.0</ele><time>2026-04-15T10:52:27Z</time></trkpt><trkpt lat="29.840619020406578" lon="-8.527930958948085"><ele>1134.25</ele><time>2026-04-15T10:52:28Z</time></trkpt><trkpt lat="29.840507773842848" lon="-8.528012668588914"><ele>1132.5</ele><time>2026-04-15T10:52:29Z</time></trkpt><trkpt lat="29.8403836761737" lon="-8.528080765863296"><ele>1130.75</ele><time>2026-04-15T10:52:30Z</time></trkpt><trkpt lat="29.840264510567025" lon="-8.528165503455433"><ele>1129.0</ele><time>2026-04-15T10:52:31Z</time></trkpt><trkpt lat="29.840112266616426" lon="-8.528172243290742"><ele>1128.0</ele><time>2026-04-15T10:52:32Z</time></trkpt><trkpt lat="29.83997256930406" lon="-8.528202331240957"><ele>1127.0</ele><time>2026-04-15T10:52:33Z</time></trkpt><trkpt lat="29.839818039558494" lon="-8.5281886918777"><ele>1126.0</ele><time>2026-04-15T10:52:34Z</time></trkpt><trkpt lat="29.839660437313306" lon="-8.528153936194173"><ele>1126.0</ele><time>2026-04-15T10:52:35Z</time></trkpt><trkpt lat="29.83950252927976" lon="-8.528073910784142"><ele>1126.0</ele><time>2026-04-15T10:52:36Z</time></trkpt><trkpt lat="29.83935497379312" lon="-8.527969737862007"><ele>1126.0</ele><time>2026-04-15T10:52:37Z</time></trkpt><trkpt lat="29.839213813066596" lon="-8.527845425340205"><ele>1127.3333333333333</ele><time>2026-04-15T10:52:38Z</time></trkpt><trkpt lat="29.839085248996877" lon="-8.527730041784357"><ele>1128.6666666666667</ele><time>2026-04-15T10:52:39Z</time></trkpt><trkpt lat="29.838965640755607" lon="-8.527622957658611"><ele>1130.0</ele><time>2026-04-15T10:52:40Z</time></trkpt><trkpt lat="29.83885040667731" lon="-8.52751998272372"><ele>1130.0</ele><time>2026-04-15T10:52:41Z</time></trkpt><trkpt lat="29.83874036810234" lon="-8.527419544164495"><ele>1130.0</ele><time>2026-04-15T10:52:42Z</time></trkpt><trkpt lat="29.83863608242664" lon="-8.527336328298846"><ele>1130.0</ele><time>2026-04-15T10:52:43Z</time></trkpt><trkpt lat="29.838523088539386" lon="-8.527250808116147"><ele>1130.0</ele><time>2026-04-15T10:52:44Z</time></trkpt><trkpt lat="29.838397062205814" lon="-8.527188222933606"><ele>1128.0</ele><time>2026-04-15T10:52:45Z</time></trkpt><trkpt lat="29.838255315791912" lon="-8.527132135432161"><ele>1126.0</ele><time>2026-04-15T10:52:46Z</time></trkpt><trkpt lat="29.838107299790067" lon="-8.527090339573567"><ele>1124.0</ele><time>2026-04-15T10:52:47Z</time></trkpt><trkpt lat="29.837953672188004" lon="-8.52706542831029"><ele>1124.0</ele><time>2026-04-15T10:52:48Z</time></trkpt><trkpt lat="29.837790805620383" lon="-8.527054518546612"><ele>1124.0</ele><time>2026-04-15T10:52:49Z</time></trkpt><trkpt lat="29.83762539884164" lon="-8.527062169194954"><ele>1124.0</ele><time>2026-04-15T10:52:50Z</time></trkpt><trkpt lat="29.837462245230462" lon="-8.527082103679414"><ele>1124.0</ele><time>2026-04-15T10:52:51Z</time></trkpt><trkpt lat="29.83729741304215" lon="-8.527102291985315"><ele>1124.0</ele><time>2026-04-15T10:52:52Z</time></trkpt><trkpt lat="29.83713327825701" lon="-8.527114231442933"><ele>1124.0</ele><time>2026-04-15T10:52:53Z</time></trkpt><trkpt lat="29.83698385005907" lon="-8.52713748406959"><ele>1124.0</ele><time>2026-04-15T10:52:54Z</time></trkpt><trkpt lat="29.83684904937964" lon="-8.527158864311518"><ele>1124.0</ele><time>2026-04-15T10:52:55Z</time></trkpt><trkpt lat="29.83671254732931" lon="-8.527174042316815"><ele>1124.0</ele><time>2026-04-15T10:52:56Z</time></trkpt><trkpt lat="29.836571457445757" lon="-8.527178346240355"><ele>1124.0</ele><time>2026-04-15T10:52:57Z</time></trkpt><trkpt lat="29.836430413223994" lon="-8.527168045262053"><ele>1126.0</ele><time>2026-04-15T10:52:58Z</time></trkpt><trkpt lat="29.83628712100492" lon="-8.52715076091652"><ele>1128.0</ele><time>2026-04-15T10:52:59Z</time></trkpt><trkpt lat="29.83614073920548" lon="-8.527153585703925"><ele>1130.0</ele><time>2026-04-15T10:53:00Z</time></trkpt><trkpt lat="29.835996134447182" lon="-8.527134190769766"><ele>1132.0</ele><time>2026-04-15T10:53:01Z</time></trkpt><trkpt lat="29.835851004316332" lon="-8.527115123422426"><ele>1132.25</ele><time>2026-04-15T10:53:02Z</time></trkpt><trkpt lat="29.835704552241477" lon="-8.527095191777358"><ele>1132.5</ele><time>2026-04-15T10:53:03Z</time></trkpt><trkpt lat="29.835561149501764" lon="-8.52705900416643"><ele>1132.75</ele><time>2026-04-15T10:53:04Z</time></trkpt><trkpt lat="29.835417271872927" lon="-8.527040926681966"><ele>1133.0</ele><time>2026-04-15T10:53:05Z</time></trkpt><trkpt lat="29.83527104796137" lon="-8.52701700625122"><ele>1140.75</ele><time>2026-04-15T10:53:06Z</time></trkpt><trkpt lat="29.835127840737368" lon="-8.526999126724819"><ele>1148.5</ele><time>2026-04-15T10:53:07Z</time></trkpt><trkpt lat="29.834983022383426" lon="-8.526984128822862"><ele>1156.25</ele><time>2026-04-15T10:53:08Z</time></trkpt><trkpt lat="29.834836976404926" lon="-8.526975521692918"><ele>1164.0</ele><time>2026-04-15T10:53:09Z</time></trkpt><trkpt lat="29.83468995073415" lon="-8.526973597976276"><ele>1164.0</ele><time>2026-04-15T10:53:10Z</time></trkpt><trkpt lat="29.834540173925994" lon="-8.52698326921527"><ele>1164.0</ele><time>2026-04-15T10:53:11Z</time></trkpt><trkpt lat="29.834389405018648" lon="-8.527009177657314"><ele>1164.0</ele><time>2026-04-15T10:53:12Z</time></trkpt><trkpt lat="29.83424332464446" lon="-8.527045249335929"><ele>1161.75</ele><time>2026-04-15T10:53:13Z</time></trkpt><trkpt lat="29.83409876514991" lon="-8.52708457263385"><ele>1159.5</ele><time>2026-04-15T10:53:14Z</time></trkpt><trkpt lat="29.83395481304539" lon="-8.527131224317474"><ele>1157.25</ele><time>2026-04-15T10:53:15Z</time></trkpt><trkpt lat="29.83381719643145" lon="-8.527184192113122"><ele>1155.0</ele><time>2026-04-15T10:53:16Z</time></trkpt><trkpt lat="29.833680526531076" lon="-8.527242929893115"><ele>1155.0</ele><time>2026-04-15T10:53:17Z</time></trkpt><trkpt lat="29.83355178309182" lon="-8.527302101045045"><ele>1155.0</ele><time>2026-04-15T10:53:18Z</time></trkpt><trkpt lat="29.833426598436006" lon="-8.527365682455065"><ele>1155.0</ele><time>2026-04-15T10:53:19Z</time></trkpt><trkpt lat="29.833305380309326" lon="-8.527432529687058"><ele>1155.0</ele><time>2026-04-15T10:53:20Z</time></trkpt><trkpt lat="29.83317586087974" lon="-8.527498141963095"><ele>1153.75</ele><time>2026-04-15T10:53:21Z</time></trkpt><trkpt lat="29.83304026309006" lon="-8.52755954088873"><ele>1152.5</ele><time>2026-04-15T10:53:22Z</time></trkpt><trkpt lat="29.832905919062597" lon="-8.527619275682614"><ele>1151.25</ele><time>2026-04-15T10:53:23Z</time></trkpt><trkpt lat="29.83277522973316" lon="-8.527673724048029"><ele>1150.0</ele><time>2026-04-15T10:53:24Z</time></trkpt><trkpt lat="29.832644415814517" lon="-8.52772358309095"><ele>1147.0</ele><time>2026-04-15T10:53:25Z</time></trkpt><trkpt lat="29.832513429665052" lon="-8.527763771370381"><ele>1144.0</ele><time>2026-04-15T10:53:26Z</time></trkpt><trkpt lat="29.83238105861471" lon="-8.52779001909456"><ele>1141.0</ele><time>2026-04-15T10:53:27Z</time></trkpt><trkpt lat="29.83224417815251" lon="-8.527808822776127"><ele>1138.0</ele><time>2026-04-15T10:53:28Z</time></trkpt><trkpt lat="29.83210174279848" lon="-8.52782795186875"><ele>1138.0</ele><time>2026-04-15T10:53:29Z</time></trkpt><trkpt lat="29.831951778583484" lon="-8.527849067897211"><ele>1138.0</ele><time>2026-04-15T10:53:30Z</time></trkpt><trkpt lat="29.831799656936887" lon="-8.527871058230398"><ele>1138.0</ele><time>2026-04-15T10:53:31Z</time></trkpt><trkpt lat="29.83164820617622" lon="-8.527876560095496"><ele>1137.0</ele><time>2026-04-15T10:53:32Z</time></trkpt><trkpt lat="29.831497898547095" lon="-8.527878648702028"><ele>1136.0</ele><time>2026-04-15T10:53:33Z</time></trkpt><trkpt lat="29.831352854037693" lon="-8.527882771016372"><ele>1135.0</ele><time>2026-04-15T10:53:34Z</time></trkpt><trkpt lat="29.831211258618243" lon="-8.52789825928589"><ele>1134.0</ele><time>2026-04-15T10:53:35Z</time></trkpt><trkpt lat="29.831071518027194" lon="-8.527917346024934"><ele>1131.0</ele><time>2026-04-15T10:53:36Z</time></trkpt><trkpt lat="29.83092733588056" lon="-8.527926690884208"><ele>1128.0</ele><time>2026-04-15T10:53:37Z</time></trkpt><trkpt lat="29.830781428541034" lon="-8.52793181263429"><ele>1125.0</ele><time>2026-04-15T10:53:38Z</time></trkpt><trkpt lat="29.83063602227944" lon="-8.527930889582265"><ele>1122.0</ele><time>2026-04-15T10:53:39Z</time></trkpt><trkpt lat="29.830493536133538" lon="-8.527924998821835"><ele>1122.0</ele><time>2026-04-15T10:53:40Z</time></trkpt><trkpt lat="29.830349649702146" lon="-8.527910307958333"><ele>1122.0</ele><time>2026-04-15T10:53:41Z</time></trkpt><trkpt lat="29.83020308066442" lon="-8.52788135407127"><ele>1122.0</ele><time>2026-04-15T10:53:42Z</time></trkpt><trkpt lat="29.830054443991113" lon="-8.527872847210675"><ele>1122.0</ele><time>2026-04-15T10:53:43Z</time></trkpt><trkpt lat="29.82990572847384" lon="-8.527816108394822"><ele>1122.0</ele><time>2026-04-15T10:53:44Z</time></trkpt><trkpt lat="29.829761548102866" lon="-8.52773987137922"><ele>1122.0</ele><time>2026-04-15T10:53:45Z</time></trkpt><trkpt lat="29.829622343355723" lon="-8.52764029212888"><ele>1122.0</ele><time>2026-04-15T10:53:46Z</time></trkpt><trkpt lat="29.8294883570884" lon="-8.527530028641507"><ele>1122.0</ele><time>2026-04-15T10:53:47Z</time></trkpt><trkpt lat="29.829359422137106" lon="-8.527391408462009"><ele>1122.0</ele><time>2026-04-15T10:53:48Z</time></trkpt><trkpt lat="29.82923838897703" lon="-8.527245667563683"><ele>1122.0</ele><time>2026-04-15T10:53:49Z</time></trkpt><trkpt lat="29.82912456797858" lon="-8.527096071367179"><ele>1120.6666666666667</ele><time>2026-04-15T10:53:50Z</time></trkpt><trkpt lat="29.82901356056201" lon="-8.526947908168031"><ele>1119.3333333333335</ele><time>2026-04-15T10:53:51Z</time></trkpt><trkpt lat="29.828903715768636" lon="-8.526799819559871"><ele>1118.0</ele><time>2026-04-15T10:53:52Z</time></trkpt><trkpt lat="29.828799337797626" lon="-8.526657527075399"><ele>1118.0</ele><time>2026-04-15T10:53:53Z</time></trkpt><trkpt lat="29.828692238912964" lon="-8.526517961787263"><ele>1118.0</ele><time>2026-04-15T10:53:54Z</time></trkpt><trkpt lat="29.82858607053157" lon="-8.526384385644883"><ele>1118.0</ele><time>2026-04-15T10:53:55Z</time></trkpt><trkpt lat="29.828479262280723" lon="-8.526254168119483"><ele>1117.3333333333335</ele><time>2026-04-15T10:53:56Z</time></trkpt><trkpt lat="29.828368370437293" lon="-8.526135170996481"><ele>1116.6666666666667</ele><time>2026-04-15T10:53:57Z</time></trkpt><trkpt lat="29.828255159830597" lon="-8.526026790268798"><ele>1116.0</ele><time>2026-04-15T10:53:58Z</time></trkpt><trkpt lat="29.828130501447035" lon="-8.525926538727001"><ele>1116.0</ele><time>2026-04-15T10:53:59Z</time></trkpt><trkpt lat="29.827987639134804" lon="-8.525858482337277"><ele>1116.0</ele><time>2026-04-15T10:54:00Z</time></trkpt><trkpt lat="29.827825609831553" lon="-8.525785836375881"><ele>1116.0</ele><time>2026-04-15T10:54:01Z</time></trkpt><trkpt lat="29.82765711977933" lon="-8.525727959641316"><ele>1115.0</ele><time>2026-04-15T10:54:02Z</time></trkpt><trkpt lat="29.8274831941232" lon="-8.525671811938878"><ele>1114.0</ele><time>2026-04-15T10:54:03Z</time></trkpt><trkpt lat="29.827308357410118" lon="-8.525619833486639"><ele>1113.0</ele><time>2026-04-15T10:54:04Z</time></trkpt><trkpt lat="29.827135025975974" lon="-8.525568302489194"><ele>1113.0</ele><time>2026-04-15T10:54:05Z</time></trkpt><trkpt lat="29.826960588841995" lon="-8.525515779798187"><ele>1113.0</ele><time>2026-04-15T10:54:06Z</time></trkpt><trkpt lat="29.826789500615245" lon="-8.525463264164884"><ele>1113.0</ele><time>2026-04-15T10:54:07Z</time></trkpt><trkpt lat="29.82661733862621" lon="-8.525414475009592"><ele>1113.0</ele><time>2026-04-15T10:54:08Z</time></trkpt><trkpt lat="29.826449025133982" lon="-8.525369967244236"><ele>1113.0</ele><time>2026-04-15T10:54:09Z</time></trkpt><trkpt lat="29.826282963095725" lon="-8.525328838627148"><ele>1113.0</ele><time>2026-04-15T10:54:10Z</time></trkpt><trkpt lat="29.826116788631815" lon="-8.525296289101385"><ele>1112.3333333333333</ele><time>2026-04-15T10:54:11Z</time></trkpt><trkpt lat="29.825949084727345" lon="-8.525265356901189"><ele>1111.6666666666665</ele><time>2026-04-15T10:54:12Z</time></trkpt><trkpt lat="29.82577859093248" lon="-8.525239359056409"><ele>1111.0</ele><time>2026-04-15T10:54:13Z</time></trkpt><trkpt lat="29.82560401250168" lon="-8.525214655642738"><ele>1111.0</ele><time>2026-04-15T10:54:14Z</time></trkpt><trkpt lat="29.82542013255765" lon="-8.525194401041517"><ele>1111.0</ele><time>2026-04-15T10:54:15Z</time></trkpt><trkpt lat="29.82524369973527" lon="-8.525174639628526"><ele>1111.0</ele><time>2026-04-15T10:54:16Z</time></trkpt><trkpt lat="29.825061687956108" lon="-8.525154182971677"><ele>1110.6666666666665</ele><time>2026-04-15T10:54:17Z</time></trkpt><trkpt lat="29.824879496400843" lon="-8.525133699400055"><ele>1110.3333333333333</ele><time>2026-04-15T10:54:18Z</time></trkpt><trkpt lat="29.824694944173828" lon="-8.52511294757424"><ele>1110.0</ele><time>2026-04-15T10:54:19Z</time></trkpt><trkpt lat="29.824509399901874" lon="-8.525091571844639"><ele>1110.0</ele><time>2026-04-15T10:54:20Z</time></trkpt><trkpt lat="29.824326607041357" lon="-8.525070836110345"><ele>1110.0</ele><time>2026-04-15T10:54:21Z</time></trkpt><trkpt lat="29.824141807717226" lon="-8.525057254880219"><ele>1110.0</ele><time>2026-04-15T10:54:22Z</time></trkpt><trkpt lat="29.823958538888323" lon="-8.52504200342969"><ele>1109.6666666666667</ele><time>2026-04-15T10:54:23Z</time></trkpt><trkpt lat="29.823780012887156" lon="-8.525017322818766"><ele>1109.3333333333335</ele><time>2026-04-15T10:54:24Z</time></trkpt><trkpt lat="29.82359926002203" lon="-8.524998034361886"><ele>1109.0</ele><time>2026-04-15T10:54:25Z</time></trkpt><trkpt lat="29.823419790220587" lon="-8.524978882826636"><ele>1108.6666666666667</ele><time>2026-04-15T10:54:26Z</time></trkpt><trkpt lat="29.823240177076936" lon="-8.524959251077574"><ele>1108.3333333333333</ele><time>2026-04-15T10:54:27Z</time></trkpt><trkpt lat="29.823062210196834" lon="-8.524939385620726"><ele>1108.0</ele><time>2026-04-15T10:54:28Z</time></trkpt><trkpt lat="29.822881964033932" lon="-8.524919265734985"><ele>1108.0</ele><time>2026-04-15T10:54:29Z</time></trkpt><trkpt lat="29.822703365597455" lon="-8.524899596425842"><ele>1108.0</ele><time>2026-04-15T10:54:30Z</time></trkpt><trkpt lat="29.822526822405997" lon="-8.52488147050061"><ele>1108.0</ele><time>2026-04-15T10:54:31Z</time></trkpt><trkpt lat="29.822346621616994" lon="-8.524862969048929"><ele>1108.0</ele><time>2026-04-15T10:54:32Z</time></trkpt><trkpt lat="29.822168574715775" lon="-8.524842007831635"><ele>1108.0</ele><time>2026-04-15T10:54:33Z</time></trkpt><trkpt lat="29.821994231777104" lon="-8.524820019299792"><ele>1108.0</ele><time>2026-04-15T10:54:34Z</time></trkpt><trkpt lat="29.821818943548536" lon="-8.52480379440531"><ele>1108.6666666666665</ele><time>2026-04-15T10:54:35Z</time></trkpt><trkpt lat="29.82164209558342" lon="-8.524789563592059"><ele>1109.3333333333333</ele><time>2026-04-15T10:54:36Z</time></trkpt><trkpt lat="29.821465040026798" lon="-8.524775483766115"><ele>1110.0</ele><time>2026-04-15T10:54:37Z</time></trkpt><trkpt lat="29.821287992964727" lon="-8.524761492066547"><ele>1110.0</ele><time>2026-04-15T10:54:38Z</time></trkpt><trkpt lat="29.82111562564151" lon="-8.524748097579002"><ele>1110.0</ele><time>2026-04-15T10:54:39Z</time></trkpt><trkpt lat="29.820940843225994" lon="-8.524742742781774"><ele>1110.0</ele><time>2026-04-15T10:54:40Z</time></trkpt><trkpt lat="29.820764195186175" lon="-8.524742110158527"><ele>1110.3333333333333</ele><time>2026-04-15T10:54:41Z</time></trkpt><trkpt lat="29.820589600696973" lon="-8.524745422356064"><ele>1110.6666666666665</ele><time>2026-04-15T10:54:42Z</time></trkpt><trkpt lat="29.820415576517643" lon="-8.524751779385587"><ele>1111.0</ele><time>2026-04-15T10:54:43Z</time></trkpt><trkpt lat="29.820244893505677" lon="-8.524758817395247"><ele>1110.3333333333333</ele><time>2026-04-15T10:54:44Z</time></trkpt><trkpt lat="29.82007777902256" lon="-8.524765941438787"><ele>1109.6666666666667</ele><time>2026-04-15T10:54:45Z</time></trkpt><trkpt lat="29.819911259568734" lon="-8.524772935008109"><ele>1109.0</ele><time>2026-04-15T10:54:46Z</time></trkpt><trkpt lat="29.819741137972883" lon="-8.524780002107242"><ele>1109.0</ele><time>2026-04-15T10:54:47Z</time></trkpt><trkpt lat="29.819570455019893" lon="-8.52478689943131"><ele>1109.0</ele><time>2026-04-15T10:54:48Z</time></trkpt><trkpt lat="29.81940024737805" lon="-8.524794079153505"><ele>1109.0</ele><time>2026-04-15T10:54:49Z</time></trkpt><trkpt lat="29.819231523809144" lon="-8.52480177051098"><ele>1108.3333333333335</ele><time>2026-04-15T10:54:50Z</time></trkpt><trkpt lat="29.819064072667203" lon="-8.524809429904995"><ele>1107.6666666666667</ele><time>2026-04-15T10:54:51Z</time></trkpt><trkpt lat="29.818893630523547" lon="-8.524819826760885"><ele>1107.0</ele><time>2026-04-15T10:54:52Z</time></trkpt><trkpt lat="29.818721046009863" lon="-8.524833112152622"><ele>1107.0</ele><time>2026-04-15T10:54:53Z</time></trkpt><trkpt lat="29.818545551606714" lon="-8.524846683144087"><ele>1107.0</ele><time>2026-04-15T10:54:54Z</time></trkpt><trkpt lat="29.81836745550245" lon="-8.524864060480567"><ele>1107.0</ele><time>2026-04-15T10:54:55Z</time></trkpt><trkpt lat="29.818186015596762" lon="-8.524880579225036"><ele>1104.6666666666667</ele><time>2026-04-15T10:54:56Z</time></trkpt><trkpt lat="29.817999988298766" lon="-8.524899525181779"><ele>1102.3333333333335</ele><time>2026-04-15T10:54:57Z</time></trkpt><trkpt lat="29.817813597900745" lon="-8.524924068303187"><ele>1100.0</ele><time>2026-04-15T10:54:58Z</time></trkpt><trkpt lat="29.81762892377371" lon="-8.524953684156236"><ele>1099.3333333333335</ele><time>2026-04-15T10:54:59Z</time></trkpt><trkpt lat="29.817445922981715" lon="-8.524993251922753"><ele>1098.6666666666667</ele><time>2026-04-15T10:55:00Z</time></trkpt><trkpt lat="29.817268515261585" lon="-8.525039049252868"><ele>1098.0</ele><time>2026-04-15T10:55:01Z</time></trkpt><trkpt lat="29.817095251393393" lon="-8.525086423206377"><ele>1098.0</ele><time>2026-04-15T10:55:02Z</time></trkpt><trkpt lat="29.81692571855739" lon="-8.525136573970556"><ele>1098.0</ele><time>2026-04-15T10:55:03Z</time></trkpt><trkpt lat="29.81675870124908" lon="-8.525168169295373"><ele>1098.0</ele><time>2026-04-15T10:55:04Z</time></trkpt><trkpt lat="29.816608792419874" lon="-8.525237063544765"><ele>1097.0</ele><time>2026-04-15T10:55:05Z</time></trkpt><trkpt lat="29.81645466534977" lon="-8.525290194915014"><ele>1096.0</ele><time>2026-04-15T10:55:06Z</time></trkpt><trkpt lat="29.816299633461963" lon="-8.525343169894214"><ele>1095.0</ele><time>2026-04-15T10:55:07Z</time></trkpt><trkpt lat="29.81614209493118" lon="-8.525396835790081"><ele>1093.6666666666667</ele><time>2026-04-15T10:55:08Z</time></trkpt><trkpt lat="29.81598598939656" lon="-8.525449009704317"><ele>1092.3333333333335</ele><time>2026-04-15T10:55:09Z</time></trkpt><trkpt lat="29.815827919651333" lon="-8.52550153983462"><ele>1091.0</ele><time>2026-04-15T10:55:10Z</time></trkpt><trkpt lat="29.81567215448465" lon="-8.525552257982396"><ele>1091.0</ele><time>2026-04-15T10:55:11Z</time></trkpt><trkpt lat="29.815508065617138" lon="-8.525602319869368"><ele>1091.0</ele><time>2026-04-15T10:55:12Z</time></trkpt><trkpt lat="29.815338803587277" lon="-8.525636305631286"><ele>1091.0</ele><time>2026-04-15T10:55:13Z</time></trkpt><trkpt lat="29.81517399969621" lon="-8.525692503356337"><ele>1090.3333333333335</ele><time>2026-04-15T10:55:14Z</time></trkpt><trkpt lat="29.815008544393162" lon="-8.525748362797716"><ele>1089.6666666666667</ele><time>2026-04-15T10:55:15Z</time></trkpt><trkpt lat="29.814846383435107" lon="-8.52579533913685"><ele>1089.0</ele><time>2026-04-15T10:55:16Z</time></trkpt><trkpt lat="29.81468932826348" lon="-8.52584321363807"><ele>1089.0</ele><time>2026-04-15T10:55:17Z</time></trkpt><trkpt lat="29.8145359422242" lon="-8.525893390069482"><ele>1089.0</ele><time>2026-04-15T10:55:18Z</time></trkpt><trkpt lat="29.814387148481757" lon="-8.525942735434583"><ele>1089.0</ele><time>2026-04-15T10:55:19Z</time></trkpt><trkpt lat="29.814246869561053" lon="-8.525990558216444"><ele>1089.0</ele><time>2026-04-15T10:55:20Z</time></trkpt><trkpt lat="29.81410398251204" lon="-8.526039345829929"><ele>1089.0</ele><time>2026-04-15T10:55:21Z</time></trkpt><trkpt lat="29.81396487840181" lon="-8.526089775405792"><ele>1089.0</ele><time>2026-04-15T10:55:22Z</time></trkpt><trkpt lat="29.813827997540827" lon="-8.526136474160959"><ele>1089.0</ele><time>2026-04-15T10:55:23Z</time></trkpt><trkpt lat="29.813697009129722" lon="-8.52617988828014"><ele>1089.0</ele><time>2026-04-15T10:55:24Z</time></trkpt><trkpt lat="29.81356079332696" lon="-8.526223949408935"><ele>1089.0</ele><time>2026-04-15T10:55:25Z</time></trkpt><trkpt lat="29.813425335465304" lon="-8.526272900108216"><ele>1089.0</ele><time>2026-04-15T10:55:26Z</time></trkpt><trkpt lat="29.81328937520426" lon="-8.526321126053437"><ele>1089.0</ele><time>2026-04-15T10:55:27Z</time></trkpt><trkpt lat="29.813153727878777" lon="-8.526369449702804"><ele>1087.25</ele><time>2026-04-15T10:55:28Z</time></trkpt><trkpt lat="29.81301828371992" lon="-8.526418693765528"><ele>1085.5</ele><time>2026-04-15T10:55:29Z</time></trkpt><trkpt lat="29.812885669588926" lon="-8.526461777813806"><ele>1083.75</ele><time>2026-04-15T10:55:30Z</time></trkpt><trkpt lat="29.812751174550083" lon="-8.526500533721535"><ele>1082.0</ele><time>2026-04-15T10:55:31Z</time></trkpt><trkpt lat="29.812617736742645" lon="-8.526541657721998"><ele>1081.5</ele><time>2026-04-15T10:55:32Z</time></trkpt><trkpt lat="29.812481638115276" lon="-8.5265898681206"><ele>1081.0</ele><time>2026-04-15T10:55:33Z</time></trkpt><trkpt lat="29.812347200507602" lon="-8.526636583008358"><ele>1080.5</ele><time>2026-04-15T10:55:34Z</time></trkpt><trkpt lat="29.812208890688595" lon="-8.526679357879988"><ele>1080.0</ele><time>2026-04-15T10:55:35Z</time></trkpt><trkpt lat="29.812074884856663" lon="-8.52672027583891"><ele>1080.0</ele><time>2026-04-15T10:55:36Z</time></trkpt><trkpt lat="29.81194693667913" lon="-8.526757645964055"><ele>1080.0</ele><time>2026-04-15T10:55:37Z</time></trkpt><trkpt lat="29.811816242254512" lon="-8.526794134934816"><ele>1080.0</ele><time>2026-04-15T10:55:38Z</time></trkpt><trkpt lat="29.811680171420797" lon="-8.526819818317007"><ele>1080.0</ele><time>2026-04-15T10:55:39Z</time></trkpt><trkpt lat="29.811538126379215" lon="-8.526825241441205"><ele>1079.5</ele><time>2026-04-15T10:55:40Z</time></trkpt><trkpt lat="29.811393143480817" lon="-8.526824555976289"><ele>1079.0</ele><time>2026-04-15T10:55:41Z</time></trkpt><trkpt lat="29.811244706690317" lon="-8.52681999840289"><ele>1078.5</ele><time>2026-04-15T10:55:42Z</time></trkpt><trkpt lat="29.811095908652764" lon="-8.52681807627122"><ele>1078.0</ele><time>2026-04-15T10:55:43Z</time></trkpt><trkpt lat="29.810952780048364" lon="-8.526827884858465"><ele>1077.0</ele><time>2026-04-15T10:55:44Z</time></trkpt><trkpt lat="29.810813849469096" lon="-8.526848415885544"><ele>1076.0</ele><time>2026-04-15T10:55:45Z</time></trkpt><trkpt lat="29.81067348693939" lon="-8.526881374206381"><ele>1075.0</ele><time>2026-04-15T10:55:46Z</time></trkpt><trkpt lat="29.810536611896673" lon="-8.526926853427002"><ele>1074.0</ele><time>2026-04-15T10:55:47Z</time></trkpt><trkpt lat="29.81040761146046" lon="-8.5269893648146"><ele>1072.75</ele><time>2026-04-15T10:55:48Z</time></trkpt><trkpt lat="29.81027840088579" lon="-8.527070599360254"><ele>1071.5</ele><time>2026-04-15T10:55:49Z</time></trkpt><trkpt lat="29.81014776238579" lon="-8.527166349890448"><ele>1070.25</ele><time>2026-04-15T10:55:50Z</time></trkpt><trkpt lat="29.810031210016877" lon="-8.5272656075194"><ele>1069.0</ele><time>2026-04-15T10:55:51Z</time></trkpt><trkpt lat="29.809918284224167" lon="-8.527379923272212"><ele>1068.3333333333333</ele><time>2026-04-15T10:55:52Z</time></trkpt><trkpt lat="29.80981788705088" lon="-8.527512502219745"><ele>1067.6666666666667</ele><time>2026-04-15T10:55:53Z</time></trkpt><trkpt lat="29.8097446912569" lon="-8.52767072510827"><ele>1067.0</ele><time>2026-04-15T10:55:54Z</time></trkpt><trkpt lat="29.80966076387665" lon="-8.527821538767274"><ele>1067.0</ele><time>2026-04-15T10:55:55Z</time></trkpt><trkpt lat="29.80958096820502" lon="-8.527978488171554"><ele>1067.0</ele><time>2026-04-15T10:55:56Z</time></trkpt><trkpt lat="29.80950129877468" lon="-8.528135189078842"><ele>1067.0</ele><time>2026-04-15T10:55:57Z</time></trkpt><trkpt lat="29.80942177982817" lon="-8.528291593929367"><ele>1067.0</ele><time>2026-04-15T10:55:58Z</time></trkpt><trkpt lat="29.80932707615872" lon="-8.528441269695673"><ele>1067.0</ele><time>2026-04-15T10:55:59Z</time></trkpt><trkpt lat="29.80924781044999" lon="-8.528600364926515"><ele>1067.0</ele><time>2026-04-15T10:56:00Z</time></trkpt><trkpt lat="29.809167294181414" lon="-8.528758123154905"><ele>1068.6666666666667</ele><time>2026-04-15T10:56:01Z</time></trkpt><trkpt lat="29.80908894676591" lon="-8.528922052515014"><ele>1070.3333333333333</ele><time>2026-04-15T10:56:02Z</time></trkpt><trkpt lat="29.80901969454088" lon="-8.529098618547662"><ele>1072.0</ele><time>2026-04-15T10:56:03Z</time></trkpt><trkpt lat="29.80892961726215" lon="-8.529270621821318"><ele>1072.0</ele><time>2026-04-15T10:56:04Z</time></trkpt><trkpt lat="29.808819649910912" lon="-8.529428950604967"><ele>1072.0</ele><time>2026-04-15T10:56:05Z</time></trkpt><trkpt lat="29.80872456021134" lon="-8.529598306178112"><ele>1072.0</ele><time>2026-04-15T10:56:06Z</time></trkpt><trkpt lat="29.808626633881975" lon="-8.529759568311249"><ele>1072.0</ele><time>2026-04-15T10:56:07Z</time></trkpt><trkpt lat="29.80852334428048" lon="-8.52990955028545"><ele>1072.0</ele><time>2026-04-15T10:56:08Z</time></trkpt><trkpt lat="29.80841465897624" lon="-8.530036597686092"><ele>1072.0</ele><time>2026-04-15T10:56:09Z</time></trkpt><trkpt lat="29.808298702204105" lon="-8.53015039336478"><ele>1072.6666666666665</ele><time>2026-04-15T10:56:10Z</time></trkpt><trkpt lat="29.808177025240713" lon="-8.530249946282867"><ele>1073.3333333333333</ele><time>2026-04-15T10:56:11Z</time></trkpt><trkpt lat="29.80804093793863" lon="-8.5303363337004"><ele>1074.0</ele><time>2026-04-15T10:56:12Z</time></trkpt><trkpt lat="29.807894526307862" lon="-8.530408466067314"><ele>1074.0</ele><time>2026-04-15T10:56:13Z</time></trkpt><trkpt lat="29.80774337821074" lon="-8.530472979758324"><ele>1074.0</ele><time>2026-04-15T10:56:14Z</time></trkpt><trkpt lat="29.8075794225686" lon="-8.530521082032207"><ele>1074.0</ele><time>2026-04-15T10:56:15Z</time></trkpt><trkpt lat="29.807410628696424" lon="-8.530547620578213"><ele>1076.3333333333333</ele><time>2026-04-15T10:56:16Z</time></trkpt><trkpt lat="29.80723737637143" lon="-8.530549064343731"><ele>1078.6666666666665</ele><time>2026-04-15T10:56:17Z</time></trkpt><trkpt lat="29.807062322824933" lon="-8.530542700120296"><ele>1081.0</ele><time>2026-04-15T10:56:18Z</time></trkpt><trkpt lat="29.806888805753072" lon="-8.53053430449196"><ele>1080.3333333333333</ele><time>2026-04-15T10:56:19Z</time></trkpt><trkpt lat="29.806718933103497" lon="-8.530526375455665"><ele>1079.6666666666667</ele><time>2026-04-15T10:56:20Z</time></trkpt><trkpt lat="29.806548572097423" lon="-8.530521712995116"><ele>1079.0</ele><time>2026-04-15T10:56:21Z</time></trkpt><trkpt lat="29.806379235256298" lon="-8.530520855495242"><ele>1079.0</ele><time>2026-04-15T10:56:22Z</time></trkpt><trkpt lat="29.8062123912236" lon="-8.530514205849252"><ele>1079.0</ele><time>2026-04-15T10:56:23Z</time></trkpt><trkpt lat="29.806044292556056" lon="-8.530505977577876"><ele>1079.0</ele><time>2026-04-15T10:56:24Z</time></trkpt><trkpt lat="29.805882594196277" lon="-8.530499523723186"><ele>1078.6666666666667</ele><time>2026-04-15T10:56:25Z</time></trkpt><trkpt lat="29.805719732310568" lon="-8.530490054334777"><ele>1078.3333333333333</ele><time>2026-04-15T10:56:26Z</time></trkpt><trkpt lat="29.80555901534582" lon="-8.530480695960838"><ele>1078.0</ele><time>2026-04-15T10:56:27Z</time></trkpt><trkpt lat="29.805397796543065" lon="-8.530469580179098"><ele>1078.0</ele><time>2026-04-15T10:56:28Z</time></trkpt><trkpt lat="29.80523552010604" lon="-8.530455193356794"><ele>1078.0</ele><time>2026-04-15T10:56:29Z</time></trkpt><trkpt lat="29.80507395734997" lon="-8.530430106436071"><ele>1078.0</ele><time>2026-04-15T10:56:30Z</time></trkpt><trkpt lat="29.80491756093173" lon="-8.530393484227735"><ele>1076.3333333333333</ele><time>2026-04-15T10:56:31Z</time></trkpt><trkpt lat="29.80476067760534" lon="-8.530345899463478"><ele>1074.6666666666667</ele><time>2026-04-15T10:56:32Z</time></trkpt><trkpt lat="29.804603935089823" lon="-8.530293824303662"><ele>1073.0</ele><time>2026-04-15T10:56:33Z</time></trkpt><trkpt lat="29.8044522891324" lon="-8.53023532044315"><ele>1072.0</ele><time>2026-04-15T10:56:34Z</time></trkpt><trkpt lat="29.804295002215518" lon="-8.530171176709997"><ele>1071.0</ele><time>2026-04-15T10:56:35Z</time></trkpt><trkpt lat="29.80413770342781" lon="-8.530113749488963"><ele>1070.0</ele><time>2026-04-15T10:56:36Z</time></trkpt><trkpt lat="29.803980454051754" lon="-8.53005445980461"><ele>1070.0</ele><time>2026-04-15T10:56:37Z</time></trkpt><trkpt lat="29.803822637668684" lon="-8.529996294662118"><ele>1070.0</ele><time>2026-04-15T10:56:38Z</time></trkpt><trkpt lat="29.803664698879967" lon="-8.529937202269506"><ele>1070.0</ele><time>2026-04-15T10:56:39Z</time></trkpt><trkpt lat="29.803504337047595" lon="-8.529875270194095"><ele>1070.3333333333335</ele><time>2026-04-15T10:56:40Z</time></trkpt><trkpt lat="29.803343801692247" lon="-8.529815015908175"><ele>1070.6666666666667</ele><time>2026-04-15T10:56:41Z</time></trkpt><trkpt lat="29.803184478172618" lon="-8.529748987661796"><ele>1071.0</ele><time>2026-04-15T10:56:42Z</time></trkpt><trkpt lat="29.80302031771201" lon="-8.529685168918853"><ele>1071.0</ele><time>2026-04-15T10:56:43Z</time></trkpt><trkpt lat="29.80285391028389" lon="-8.529628319733757"><ele>1071.0</ele><time>2026-04-15T10:56:44Z</time></trkpt><trkpt lat="29.802689757016363" lon="-8.529570058065358"><ele>1071.0</ele><time>2026-04-15T10:56:45Z</time></trkpt><trkpt lat="29.802527826608124" lon="-8.529507457137575"><ele>1069.6666666666667</ele><time>2026-04-15T10:56:46Z</time></trkpt><trkpt lat="29.802367562407056" lon="-8.529444201546724"><ele>1068.3333333333335</ele><time>2026-04-15T10:56:47Z</time></trkpt><trkpt lat="29.80220807643635" lon="-8.529385870921828"><ele>1067.0</ele><time>2026-04-15T10:56:48Z</time></trkpt><trkpt lat="29.802050208056333" lon="-8.529324967708078"><ele>1067.0</ele><time>2026-04-15T10:56:49Z</time></trkpt><trkpt lat="29.80188957556207" lon="-8.52926106134662"><ele>1067.0</ele><time>2026-04-15T10:56:50Z</time></trkpt><trkpt lat="29.801728141941698" lon="-8.529198254364493"><ele>1067.0</ele><time>2026-04-15T10:56:51Z</time></trkpt><trkpt lat="29.801569546567087" lon="-8.529137164044016"><ele>1067.3333333333335</ele><time>2026-04-15T10:56:52Z</time></trkpt><trkpt lat="29.80140837310487" lon="-8.529082689940678"><ele>1067.6666666666667</ele><time>2026-04-15T10:56:53Z</time></trkpt><trkpt lat="29.801249016913196" lon="-8.529024427952285"><ele>1068.0</ele><time>2026-04-15T10:56:54Z</time></trkpt><trkpt lat="29.801088216004946" lon="-8.5289641400909"><ele>1067.6666666666667</ele><time>2026-04-15T10:56:55Z</time></trkpt><trkpt lat="29.800931395634663" lon="-8.528904413692242"><ele>1067.3333333333335</ele><time>2026-04-15T10:56:56Z</time></trkpt><trkpt lat="29.800779595601362" lon="-8.528843728889596"><ele>1067.0</ele><time>2026-04-15T10:56:57Z</time></trkpt><trkpt lat="29.800631279174247" lon="-8.52878616241373"><ele>1067.0</ele><time>2026-04-15T10:56:58Z</time></trkpt><trkpt lat="29.800482917879634" lon="-8.528726733917077"><ele>1067.0</ele><time>2026-04-15T10:56:59Z</time></trkpt><trkpt lat="29.80034182192893" lon="-8.52867493622444"><ele>1067.0</ele><time>2026-04-15T10:57:00Z</time></trkpt><trkpt lat="29.800206187247305" lon="-8.528623215290297"><ele>1067.0</ele><time>2026-04-15T10:57:01Z</time></trkpt><trkpt lat="29.80007299929745" lon="-8.52857251600271"><ele>1066.25</ele><time>2026-04-15T10:57:02Z</time></trkpt><trkpt lat="29.799933173423867" lon="-8.528527153399255"><ele>1065.5</ele><time>2026-04-15T10:57:03Z</time></trkpt><trkpt lat="29.79979162476101" lon="-8.52848824978979"><ele>1064.75</ele><time>2026-04-15T10:57:04Z</time></trkpt><trkpt lat="29.799645671880885" lon="-8.5284668178528"><ele>1064.0</ele><time>2026-04-15T10:57:05Z</time></trkpt><trkpt lat="29.79949422220647" lon="-8.528468499903806"><ele>1064.0</ele><time>2026-04-15T10:57:06Z</time></trkpt><trkpt lat="29.79933746818548" lon="-8.528481259921817"><ele>1064.0</ele><time>2026-04-15T10:57:07Z</time></trkpt><trkpt lat="29.79919196855661" lon="-8.528532452667513"><ele>1064.0</ele><time>2026-04-15T10:57:08Z</time></trkpt><trkpt lat="29.79904525796976" lon="-8.528567868827668"><ele>1063.6666666666667</ele><time>2026-04-15T10:57:09Z</time></trkpt><trkpt lat="29.79891518609938" lon="-8.52868034226537"><ele>1063.3333333333333</ele><time>2026-04-15T10:57:10Z</time></trkpt><trkpt lat="29.798769671710456" lon="-8.52876938525292"><ele>1063.0</ele><time>2026-04-15T10:57:11Z</time></trkpt><trkpt lat="29.798628292791836" lon="-8.528859276640778"><ele>1061.0</ele><time>2026-04-15T10:57:12Z</time></trkpt><trkpt lat="29.798495141623867" lon="-8.528961836156405"><ele>1059.0</ele><time>2026-04-15T10:57:13Z</time></trkpt><trkpt lat="29.798379507073566" lon="-8.529075029041502"><ele>1057.0</ele><time>2026-04-15T10:57:14Z</time></trkpt><trkpt lat="29.798253154373697" lon="-8.529152506034569"><ele>1057.0</ele><time>2026-04-15T10:57:15Z</time></trkpt><trkpt lat="29.798137023616405" lon="-8.529244730012383"><ele>1057.0</ele><time>2026-04-15T10:57:16Z</time></trkpt><trkpt lat="29.798028395040507" lon="-8.529349660580182"><ele>1057.0</ele><time>2026-04-15T10:57:17Z</time></trkpt><trkpt lat="29.797910699296768" lon="-8.529440508277338"><ele>1057.0</ele><time>2026-04-15T10:57:18Z</time></trkpt><trkpt lat="29.797788978030976" lon="-8.52951202077842"><ele>1057.0</ele><time>2026-04-15T10:57:19Z</time></trkpt><trkpt lat="29.797683358538098" lon="-8.529593899086757"><ele>1057.0</ele><time>2026-04-15T10:57:20Z</time></trkpt><trkpt lat="29.797578533884597" lon="-8.529673217519639"><ele>1057.0</ele><time>2026-04-15T10:57:21Z</time></trkpt><trkpt lat="29.797472037450014" lon="-8.529746722171769"><ele>1057.0</ele><time>2026-04-15T10:57:22Z</time></trkpt><trkpt lat="29.797362501100643" lon="-8.529808753407124"><ele>1057.0</ele><time>2026-04-15T10:57:23Z</time></trkpt><trkpt lat="29.797244985768366" lon="-8.529858726087028"><ele>1057.0</ele><time>2026-04-15T10:57:24Z</time></trkpt><trkpt lat="29.79712447218755" lon="-8.529897856823903"><ele>1057.0</ele><time>2026-04-15T10:57:25Z</time></trkpt><trkpt lat="29.797003729115392" lon="-8.529953456908437"><ele>1057.0</ele><time>2026-04-15T10:57:26Z</time></trkpt><trkpt lat="29.796869140258615" lon="-8.529947764039191"><ele>1058.5</ele><time>2026-04-15T10:57:27Z</time></trkpt><trkpt lat="29.796745101269906" lon="-8.529941324367313"><ele>1060.0</ele><time>2026-04-15T10:57:28Z</time></trkpt><trkpt lat="29.796619082050753" lon="-8.529907977871183"><ele>1061.5</ele><time>2026-04-15T10:57:29Z</time></trkpt><trkpt lat="29.79649065670834" lon="-8.529860601634828"><ele>1063.0</ele><time>2026-04-15T10:57:30Z</time></trkpt><trkpt lat="29.79636903413084" lon="-8.529812099550753"><ele>1063.0</ele><time>2026-04-15T10:57:31Z</time></trkpt><trkpt lat="29.79625505904681" lon="-8.529769578763709"><ele>1063.0</ele><time>2026-04-15T10:57:32Z</time></trkpt><trkpt lat="29.796151432330138" lon="-8.529720352258586"><ele>1063.0</ele><time>2026-04-15T10:57:33Z</time></trkpt><trkpt lat="29.79604969494523" lon="-8.529670237756365"><ele>1063.0</ele><time>2026-04-15T10:57:34Z</time></trkpt><trkpt lat="29.79594866390955" lon="-8.529619290899282"><ele>1062.8</ele><time>2026-04-15T10:57:35Z</time></trkpt><trkpt lat="29.79584665370549" lon="-8.529568129130892"><ele>1062.6</ele><time>2026-04-15T10:57:36Z</time></trkpt><trkpt lat="29.79574804831789" lon="-8.529515400883525"><ele>1062.4</ele><time>2026-04-15T10:57:37Z</time></trkpt><trkpt lat="29.79565153805288" lon="-8.529454943407957"><ele>1062.2</ele><time>2026-04-15T10:57:38Z</time></trkpt><trkpt lat="29.795550175022818" lon="-8.529389034109117"><ele>1062.0</ele><time>2026-04-15T10:57:39Z</time></trkpt><trkpt lat="29.79544407234625" lon="-8.52932441840561"><ele>1062.0</ele><time>2026-04-15T10:57:40Z</time></trkpt><trkpt lat="29.795332056765613" lon="-8.529265422387935"><ele>1062.0</ele><time>2026-04-15T10:57:41Z</time></trkpt><trkpt lat="29.795222999418023" lon="-8.529205062139477"><ele>1062.0</ele><time>2026-04-15T10:57:42Z</time></trkpt><trkpt lat="29.79512944226329" lon="-8.529150636702639"><ele>1062.0</ele><time>2026-04-15T10:57:43Z</time></trkpt><trkpt lat="29.79504647371783" lon="-8.529099298464413"><ele>1062.0</ele><time>2026-04-15T10:57:44Z</time></trkpt><trkpt lat="29.794957607911883" lon="-8.529050050868662"><ele>1061.75</ele><time>2026-04-15T10:57:45Z</time></trkpt><trkpt lat="29.794860447570077" lon="-8.528997601920016"><ele>1061.5</ele><time>2026-04-15T10:57:46Z</time></trkpt><trkpt lat="29.794758263841153" lon="-8.528949202559835"><ele>1061.25</ele><time>2026-04-15T10:57:47Z</time></trkpt><trkpt lat="29.794654009759594" lon="-8.528892478291546"><ele>1061.0</ele><time>2026-04-15T10:57:48Z</time></trkpt><trkpt lat="29.79454971904204" lon="-8.52883021707863"><ele>1061.0</ele><time>2026-04-15T10:57:49Z</time></trkpt><trkpt lat="29.79443394193532" lon="-8.528783132514482"><ele>1061.0</ele><time>2026-04-15T10:57:50Z</time></trkpt><trkpt lat="29.794328105325746" lon="-8.528705420721295"><ele>1061.0</ele><time>2026-04-15T10:57:51Z</time></trkpt><trkpt lat="29.794212488392272" lon="-8.528645380227411"><ele>1061.0</ele><time>2026-04-15T10:57:52Z</time></trkpt><trkpt lat="29.7940955521576" lon="-8.528585126488492"><ele>1059.75</ele><time>2026-04-15T10:57:53Z</time></trkpt><trkpt lat="29.793976196691013" lon="-8.528524888643682"><ele>1058.5</ele><time>2026-04-15T10:57:54Z</time></trkpt><trkpt lat="29.79385489278151" lon="-8.528459710776726"><ele>1057.25</ele><time>2026-04-15T10:57:55Z</time></trkpt><trkpt lat="29.793733299042973" lon="-8.528394724670108"><ele>1056.0</ele><time>2026-04-15T10:57:56Z</time></trkpt><trkpt lat="29.793609304302425" lon="-8.528335354713326"><ele>1055.75</ele><time>2026-04-15T10:57:57Z</time></trkpt><trkpt lat="29.79348860405086" lon="-8.528283430132761"><ele>1055.5</ele><time>2026-04-15T10:57:58Z</time></trkpt><trkpt lat="29.79336369214675" lon="-8.528238424222792"><ele>1055.25</ele><time>2026-04-15T10:57:59Z</time></trkpt><trkpt lat="29.793237213439888" lon="-8.528196081005683"><ele>1055.0</ele><time>2026-04-15T10:58:00Z</time></trkpt><trkpt lat="29.793105411217432" lon="-8.528161723603077"><ele>1055.0</ele><time>2026-04-15T10:58:01Z</time></trkpt><trkpt lat="29.792968761821534" lon="-8.528163625132164"><ele>1055.0</ele><time>2026-04-15T10:58:02Z</time></trkpt><trkpt lat="29.792831534016447" lon="-8.528153363673592"><ele>1055.0</ele><time>2026-04-15T10:58:03Z</time></trkpt><trkpt lat="29.792695709400803" lon="-8.528152586379951"><ele>1055.0</ele><time>2026-04-15T10:58:04Z</time></trkpt><trkpt lat="29.792558112985404" lon="-8.528154607606815"><ele>1054.5</ele><time>2026-04-15T10:58:05Z</time></trkpt><trkpt lat="29.79242014713562" lon="-8.52816121268555"><ele>1054.0</ele><time>2026-04-15T10:58:06Z</time></trkpt><trkpt lat="29.79228769115093" lon="-8.528175957859373"><ele>1053.5</ele><time>2026-04-15T10:58:07Z</time></trkpt><trkpt lat="29.79215186297163" lon="-8.528201787270442"><ele>1053.0</ele><time>2026-04-15T10:58:08Z</time></trkpt><trkpt lat="29.79201802512878" lon="-8.528231688126818"><ele>1053.0</ele><time>2026-04-15T10:58:09Z</time></trkpt><trkpt lat="29.791880009419312" lon="-8.528267028841038"><ele>1053.0</ele><time>2026-04-15T10:58:10Z</time></trkpt><trkpt lat="29.791740319310453" lon="-8.528302798340254"><ele>1053.0</ele><time>2026-04-15T10:58:11Z</time></trkpt><trkpt lat="29.79160136587378" lon="-8.528338379164211"><ele>1053.0</ele><time>2026-04-15T10:58:12Z</time></trkpt><trkpt lat="29.79146083088092" lon="-8.528374364927814"><ele>1053.25</ele><time>2026-04-15T10:58:13Z</time></trkpt><trkpt lat="29.791317384023372" lon="-8.528411096355217"><ele>1053.5</ele><time>2026-04-15T10:58:14Z</time></trkpt><trkpt lat="29.791174497798096" lon="-8.52844768426928"><ele>1053.75</ele><time>2026-04-15T10:58:15Z</time></trkpt><trkpt lat="29.791030676463837" lon="-8.528484511566955"><ele>1054.0</ele><time>2026-04-15T10:58:16Z</time></trkpt><trkpt lat="29.790892267271744" lon="-8.528519953019112"><ele>1053.25</ele><time>2026-04-15T10:58:17Z</time></trkpt><trkpt lat="29.790752564139108" lon="-8.528555724911712"><ele>1052.5</ele><time>2026-04-15T10:58:18Z</time></trkpt><trkpt lat="29.790612497013342" lon="-8.528591590913269"><ele>1051.75</ele><time>2026-04-15T10:58:19Z</time></trkpt><trkpt lat="29.79047120058173" lon="-8.528627961918232"><ele>1051.0</ele><time>2026-04-15T10:58:20Z</time></trkpt><trkpt lat="29.790330207712728" lon="-8.528664507858668"><ele>1051.0</ele><time>2026-04-15T10:58:21Z</time></trkpt><trkpt lat="29.790190550368518" lon="-8.528706124166277"><ele>1051.0</ele><time>2026-04-15T10:58:22Z</time></trkpt><trkpt lat="29.790051264201985" lon="-8.528753473283322"><ele>1051.0</ele><time>2026-04-15T10:58:23Z</time></trkpt><trkpt lat="29.789910133819046" lon="-8.528801523871442"><ele>1051.0</ele><time>2026-04-15T10:58:24Z</time></trkpt><trkpt lat="29.789767474093107" lon="-8.528850527867135"><ele>1051.0</ele><time>2026-04-15T10:58:25Z</time></trkpt><trkpt lat="29.78962193372062" lon="-8.528900521377391"><ele>1051.0</ele><time>2026-04-15T10:58:26Z</time></trkpt><trkpt lat="29.789476376728896" lon="-8.528950520583455"><ele>1051.0</ele><time>2026-04-15T10:58:27Z</time></trkpt><trkpt lat="29.78932698017479" lon="-8.529001838706122"><ele>1051.0</ele><time>2026-04-15T10:58:28Z</time></trkpt><trkpt lat="29.78917037686777" lon="-8.529055417091277"><ele>1051.0</ele><time>2026-04-15T10:58:29Z</time></trkpt><trkpt lat="29.78900933474026" lon="-8.529111626117619"><ele>1051.0</ele><time>2026-04-15T10:58:30Z</time></trkpt><trkpt lat="29.788851232408913" lon="-8.52916640678615"><ele>1051.0</ele><time>2026-04-15T10:58:31Z</time></trkpt><trkpt lat="29.788686520214668" lon="-8.529223477688225"><ele>1051.0</ele><time>2026-04-15T10:58:32Z</time></trkpt><trkpt lat="29.78851648553432" lon="-8.529262395977735"><ele>1051.0</ele><time>2026-04-15T10:58:33Z</time></trkpt><trkpt lat="29.788352547536167" lon="-8.529319695429413"><ele>1050.6666666666665</ele><time>2026-04-15T10:58:34Z</time></trkpt><trkpt lat="29.788179847588342" lon="-8.529375303970001"><ele>1050.3333333333333</ele><time>2026-04-15T10:58:35Z</time></trkpt><trkpt lat="29.788005979345364" lon="-8.529433139243126"><ele>1050.0</ele><time>2026-04-15T10:58:36Z</time></trkpt><trkpt lat="29.78783376254985" lon="-8.529490461652863"><ele>1048.0</ele><time>2026-04-15T10:58:37Z</time></trkpt><trkpt lat="29.78766367589598" lon="-8.529551072786628"><ele>1046.0</ele><time>2026-04-15T10:58:38Z</time></trkpt><trkpt lat="29.78749499896539" lon="-8.5296110010983"><ele>1044.0</ele><time>2026-04-15T10:58:39Z</time></trkpt><trkpt lat="29.787326582478798" lon="-8.52966951540965"><ele>1043.3333333333333</ele><time>2026-04-15T10:58:40Z</time></trkpt><trkpt lat="29.787156429676017" lon="-8.529726663241817"><ele>1042.6666666666665</ele><time>2026-04-15T10:58:41Z</time></trkpt><trkpt lat="29.786990423089232" lon="-8.529784441749799"><ele>1042.0</ele><time>2026-04-15T10:58:42Z</time></trkpt><trkpt lat="29.786823461944525" lon="-8.529843027526828"><ele>1042.0</ele><time>2026-04-15T10:58:43Z</time></trkpt><trkpt lat="29.786655768332068" lon="-8.529901343377649"><ele>1042.0</ele><time>2026-04-15T10:58:44Z</time></trkpt><trkpt lat="29.78649045091762" lon="-8.529961062813747"><ele>1042.0</ele><time>2026-04-15T10:58:45Z</time></trkpt><trkpt lat="29.78632514431823" lon="-8.530019682429177"><ele>1042.0</ele><time>2026-04-15T10:58:46Z</time></trkpt><trkpt lat="29.786158823475958" lon="-8.53007782820077"><ele>1042.0</ele><time>2026-04-15T10:58:47Z</time></trkpt><trkpt lat="29.785995872155198" lon="-8.530137074135775"><ele>1042.0</ele><time>2026-04-15T10:58:48Z</time></trkpt><trkpt lat="29.7858306202695" lon="-8.53019008055246"><ele>1042.0</ele><time>2026-04-15T10:58:49Z</time></trkpt><trkpt lat="29.78567251691074" lon="-8.530244965529972"><ele>1042.0</ele><time>2026-04-15T10:58:50Z</time></trkpt><trkpt lat="29.785514564136804" lon="-8.53029960030603"><ele>1042.0</ele><time>2026-04-15T10:58:51Z</time></trkpt><trkpt lat="29.78535931363047" lon="-8.530354755117159"><ele>1042.3333333333333</ele><time>2026-04-15T10:58:52Z</time></trkpt><trkpt lat="29.785204773745665" lon="-8.530407974051533"><ele>1042.6666666666667</ele><time>2026-04-15T10:58:53Z</time></trkpt><trkpt lat="29.78504950405322" lon="-8.530461136901568"><ele>1043.0</ele><time>2026-04-15T10:58:54Z</time></trkpt><trkpt lat="29.784890647739758" lon="-8.53051720387088"><ele>1043.0</ele><time>2026-04-15T10:58:55Z</time></trkpt><trkpt lat="29.78473102399135" lon="-8.530567851002305"><ele>1043.0</ele><time>2026-04-15T10:58:56Z</time></trkpt><trkpt lat="29.78457579219495" lon="-8.530623475858008"><ele>1043.0</ele><time>2026-04-15T10:58:57Z</time></trkpt><trkpt lat="29.78441966689291" lon="-8.530673844078807"><ele>1042.3333333333335</ele><time>2026-04-15T10:58:58Z</time></trkpt><trkpt lat="29.784265812997244" lon="-8.530728721666232"><ele>1041.6666666666667</ele><time>2026-04-15T10:58:59Z</time></trkpt><trkpt lat="29.78411045163922" lon="-8.530780694679802"><ele>1041.0</ele><time>2026-04-15T10:59:00Z</time></trkpt><trkpt lat="29.783955042346083" lon="-8.53083432494136"><ele>1041.0</ele><time>2026-04-15T10:59:01Z</time></trkpt><trkpt lat="29.783795399776434" lon="-8.530887418709446"><ele>1041.0</ele><time>2026-04-15T10:59:02Z</time></trkpt><trkpt lat="29.783641048763336" lon="-8.53096034421587"><ele>1041.0</ele><time>2026-04-15T10:59:03Z</time></trkpt><trkpt lat="29.78347536439582" lon="-8.531001004654621"><ele>1041.3333333333333</ele><time>2026-04-15T10:59:04Z</time></trkpt><trkpt lat="29.783313465129407" lon="-8.531058248530748"><ele>1041.6666666666665</ele><time>2026-04-15T10:59:05Z</time></trkpt><trkpt lat="29.783152203683745" lon="-8.531114231081366"><ele>1042.0</ele><time>2026-04-15T10:59:06Z</time></trkpt><trkpt lat="29.78299190605454" lon="-8.531166854987061"><ele>1042.0</ele><time>2026-04-15T10:59:07Z</time></trkpt><trkpt lat="29.782831906400418" lon="-8.531220227406099"><ele>1042.0</ele><time>2026-04-15T10:59:08Z</time></trkpt><trkpt lat="29.782676278605823" lon="-8.53126930166518"><ele>1042.0</ele><time>2026-04-15T10:59:09Z</time></trkpt><trkpt lat="29.78252414991603" lon="-8.531314628902319"><ele>1042.0</ele><time>2026-04-15T10:59:10Z</time></trkpt><trkpt lat="29.782370350520832" lon="-8.531361707595057"><ele>1042.0</ele><time>2026-04-15T10:59:11Z</time></trkpt><trkpt lat="29.782208855062244" lon="-8.531400831411196"><ele>1042.0</ele><time>2026-04-15T10:59:12Z</time></trkpt><trkpt lat="29.782040989469824" lon="-8.531426861254369"><ele>1042.0</ele><time>2026-04-15T10:59:13Z</time></trkpt><trkpt lat="29.781871289161458" lon="-8.531440038478248"><ele>1042.0</ele><time>2026-04-15T10:59:14Z</time></trkpt><trkpt lat="29.781698640115962" lon="-8.531438786849419"><ele>1042.0</ele><time>2026-04-15T10:59:15Z</time></trkpt><trkpt lat="29.7815232213582" lon="-8.53142384881251"><ele>1042.0</ele><time>2026-04-15T10:59:16Z</time></trkpt><trkpt lat="29.781343261015525" lon="-8.53139224711154"><ele>1042.0</ele><time>2026-04-15T10:59:17Z</time></trkpt><trkpt lat="29.781161705415226" lon="-8.531371118032224"><ele>1042.0</ele><time>2026-04-15T10:59:18Z</time></trkpt><trkpt lat="29.78099145653586" lon="-8.531296044147494"><ele>1042.3333333333333</ele><time>2026-04-15T10:59:19Z</time></trkpt><trkpt lat="29.780819903545694" lon="-8.531234549259809"><ele>1042.6666666666667</ele><time>2026-04-15T10:59:20Z</time></trkpt><trkpt lat="29.780646852931532" lon="-8.5311689903327"><ele>1043.0</ele><time>2026-04-15T10:59:21Z</time></trkpt><trkpt lat="29.780476022416757" lon="-8.531102315370674"><ele>1042.0</ele><time>2026-04-15T10:59:22Z</time></trkpt><trkpt lat="29.78030495251703" lon="-8.531033528175474"><ele>1041.0</ele><time>2026-04-15T10:59:23Z</time></trkpt><trkpt lat="29.780132914671153" lon="-8.530959351670786"><ele>1040.0</ele><time>2026-04-15T10:59:24Z</time></trkpt><trkpt lat="29.77995571801622" lon="-8.530888328941463"><ele>1040.0</ele><time>2026-04-15T10:59:25Z</time></trkpt><trkpt lat="29.77977595284126" lon="-8.530813469205615"><ele>1040.0</ele><time>2026-04-15T10:59:26Z</time></trkpt><trkpt lat="29.779598330808085" lon="-8.53073863901043"><ele>1040.0</ele><time>2026-04-15T10:59:27Z</time></trkpt><trkpt lat="29.779423493997577" lon="-8.530666724046428"><ele>1040.3333333333335</ele><time>2026-04-15T10:59:28Z</time></trkpt><trkpt lat="29.779251345423194" lon="-8.53059476155326"><ele>1040.6666666666667</ele><time>2026-04-15T10:59:29Z</time></trkpt><trkpt lat="29.7790814438948" lon="-8.530521105128402"><ele>1041.0</ele><time>2026-04-15T10:59:30Z</time></trkpt><trkpt lat="29.778909250808024" lon="-8.53045315024024"><ele>1040.3333333333333</ele><time>2026-04-15T10:59:31Z</time></trkpt><trkpt lat="29.77873594705638" lon="-8.530379336638921"><ele>1039.6666666666665</ele><time>2026-04-15T10:59:32Z</time></trkpt><trkpt lat="29.778559060399136" lon="-8.530309884575022"><ele>1039.0</ele><time>2026-04-15T10:59:33Z</time></trkpt><trkpt lat="29.77838520428267" lon="-8.530235333721764"><ele>1038.0</ele><time>2026-04-15T10:59:34Z</time></trkpt><trkpt lat="29.778224668654353" lon="-8.53016329108058"><ele>1037.0</ele><time>2026-04-15T10:59:35Z</time></trkpt><trkpt lat="29.778076669393908" lon="-8.530095052589258"><ele>1036.0</ele><time>2026-04-15T10:59:36Z</time></trkpt><trkpt lat="29.777933523915337" lon="-8.530031557016818"><ele>1036.0</ele><time>2026-04-15T10:59:37Z</time></trkpt><trkpt lat="29.77778623124731" lon="-8.52998978598204"><ele>1036.0</ele><time>2026-04-15T10:59:38Z</time></trkpt><trkpt lat="29.77764841731317" lon="-8.529932376621266"><ele>1036.0</ele><time>2026-04-15T10:59:39Z</time></trkpt><trkpt lat="29.77751885042735" lon="-8.529878293222115"><ele>1036.0</ele><time>2026-04-15T10:59:40Z</time></trkpt><trkpt lat="29.777398365971397" lon="-8.529828000983908"><ele>1036.0</ele><time>2026-04-15T10:59:41Z</time></trkpt><trkpt lat="29.777272861767777" lon="-8.529775613416241"><ele>1036.0</ele><time>2026-04-15T10:59:42Z</time></trkpt><trkpt lat="29.77713310229944" lon="-8.529727831884983"><ele>1036.0</ele><time>2026-04-15T10:59:43Z</time></trkpt><trkpt lat="29.776980910474766" lon="-8.529662873454495"><ele>1036.0</ele><time>2026-04-15T10:59:44Z</time></trkpt><trkpt lat="29.776819763753455" lon="-8.529617171548335"><ele>1036.0</ele><time>2026-04-15T10:59:45Z</time></trkpt><trkpt lat="29.77666069731933" lon="-8.529572735461436"><ele>1036.0</ele><time>2026-04-15T10:59:46Z</time></trkpt><trkpt lat="29.77649089623608" lon="-8.52954713785562"><ele>1036.0</ele><time>2026-04-15T10:59:47Z</time></trkpt><trkpt lat="29.77632438134148" lon="-8.529495655194307"><ele>1035.3333333333333</ele><time>2026-04-15T10:59:48Z</time></trkpt><trkpt lat="29.776153527348278" lon="-8.529474870996905"><ele>1034.6666666666667</ele><time>2026-04-15T10:59:49Z</time></trkpt><trkpt lat="29.775982210099837" lon="-8.529461105677322"><ele>1034.0</ele><time>2026-04-15T10:59:50Z</time></trkpt><trkpt lat="29.775813204753337" lon="-8.529448833422606"><ele>1034.0</ele><time>2026-04-15T10:59:51Z</time></trkpt><trkpt lat="29.775648059637756" lon="-8.529441495329106"><ele>1034.0</ele><time>2026-04-15T10:59:52Z</time></trkpt><trkpt lat="29.775486113791892" lon="-8.529443506025038"><ele>1034.0</ele><time>2026-04-15T10:59:53Z</time></trkpt><trkpt lat="29.775328277118497" lon="-8.529446988581338"><ele>1033.3333333333335</ele><time>2026-04-15T10:59:54Z</time></trkpt><trkpt lat="29.77516882597798" lon="-8.52945112126821"><ele>1032.6666666666667</ele><time>2026-04-15T10:59:55Z</time></trkpt><trkpt lat="29.775007636623947" lon="-8.529456908246472"><ele>1032.0</ele><time>2026-04-15T10:59:56Z</time></trkpt><trkpt lat="29.774841995840728" lon="-8.529465655090409"><ele>1032.0</ele><time>2026-04-15T10:59:57Z</time></trkpt><trkpt lat="29.774675021758707" lon="-8.529471781974086"><ele>1032.0</ele><time>2026-04-15T10:59:58Z</time></trkpt><trkpt lat="29.77450767018332" lon="-8.529478618689955"><ele>1032.0</ele><time>2026-04-15T10:59:59Z</time></trkpt><trkpt lat="29.77434401008726" lon="-8.529483742385716"><ele>1032.0</ele><time>2026-04-15T11:00:00Z</time></trkpt><trkpt lat="29.774182208995242" lon="-8.529494439677793"><ele>1032.0</ele><time>2026-04-15T11:00:01Z</time></trkpt><trkpt lat="29.774027490787095" lon="-8.529502154568878"><ele>1032.0</ele><time>2026-04-15T11:00:02Z</time></trkpt><trkpt lat="29.77386885122591" lon="-8.529506815428475"><ele>1032.0</ele><time>2026-04-15T11:00:03Z</time></trkpt><trkpt lat="29.773715572684978" lon="-8.52951338742236"><ele>1032.0</ele><time>2026-04-15T11:00:04Z</time></trkpt><trkpt lat="29.77356222375989" lon="-8.529517234322697"><ele>1032.0</ele><time>2026-04-15T11:00:05Z</time></trkpt><trkpt lat="29.77340863237857" lon="-8.529522153634439"><ele>1032.0</ele><time>2026-04-15T11:00:06Z</time></trkpt><trkpt lat="29.77325361612657" lon="-8.529528789101704"><ele>1032.0</ele><time>2026-04-15T11:00:07Z</time></trkpt><trkpt lat="29.773104276384263" lon="-8.529535532852481"><ele>1032.0</ele><time>2026-04-15T11:00:08Z</time></trkpt><trkpt lat="29.77295765365413" lon="-8.52954511508812"><ele>1032.0</ele><time>2026-04-15T11:00:09Z</time></trkpt><trkpt lat="29.772810990830024" lon="-8.529551169129256"><ele>1032.0</ele><time>2026-04-15T11:00:10Z</time></trkpt><trkpt lat="29.772667096350386" lon="-8.52955965413705"><ele>1032.0</ele><time>2026-04-15T11:00:11Z</time></trkpt><trkpt lat="29.772526717563753" lon="-8.529561117786075"><ele>1032.0</ele><time>2026-04-15T11:00:12Z</time></trkpt><trkpt lat="29.772383213228224" lon="-8.529555506430851"><ele>1032.0</ele><time>2026-04-15T11:00:13Z</time></trkpt><trkpt lat="29.772242423714083" lon="-8.529551612307428"><ele>1032.0</ele><time>2026-04-15T11:00:14Z</time></trkpt><trkpt lat="29.772089146641964" lon="-8.529533129047499"><ele>1032.0</ele><time>2026-04-15T11:00:15Z</time></trkpt><trkpt lat="29.771939604451372" lon="-8.529507708041558"><ele>1032.0</ele><time>2026-04-15T11:00:16Z</time></trkpt><trkpt lat="29.77178768308046" lon="-8.529477933010117"><ele>1032.0</ele><time>2026-04-15T11:00:17Z</time></trkpt><trkpt lat="29.771635129633907" lon="-8.529439482487204"><ele>1032.0</ele><time>2026-04-15T11:00:18Z</time></trkpt><trkpt lat="29.771483022097435" lon="-8.5293921145733"><ele>1032.0</ele><time>2026-04-15T11:00:19Z</time></trkpt><trkpt lat="29.771330837267683" lon="-8.529338601723554"><ele>1032.0</ele><time>2026-04-15T11:00:20Z</time></trkpt><trkpt lat="29.77117659846843" lon="-8.529277646044168"><ele>1032.0</ele><time>2026-04-15T11:00:21Z</time></trkpt><trkpt lat="29.771023468394077" lon="-8.529204650436682"><ele>1032.0</ele><time>2026-04-15T11:00:22Z</time></trkpt><trkpt lat="29.77087619930999" lon="-8.529114393444727"><ele>1031.3333333333333</ele><time>2026-04-15T11:00:23Z</time></trkpt><trkpt lat="29.770728752751726" lon="-8.529016623425019"><ele>1030.6666666666665</ele><time>2026-04-15T11:00:24Z</time></trkpt><trkpt lat="29.770581743016447" lon="-8.528918060390117"><ele>1030.0</ele><time>2026-04-15T11:00:25Z</time></trkpt><trkpt lat="29.770438343114524" lon="-8.528809919995185"><ele>1030.0</ele><time>2026-04-15T11:00:26Z</time></trkpt><trkpt lat="29.77029547732436" lon="-8.528696061101101"><ele>1030.0</ele><time>2026-04-15T11:00:27Z</time></trkpt><trkpt lat="29.77015964057819" lon="-8.52857315689213"><ele>1030.0</ele><time>2026-04-15T11:00:28Z</time></trkpt><trkpt lat="29.770031892298906" lon="-8.52844460033831"><ele>1030.0</ele><time>2026-04-15T11:00:29Z</time></trkpt><trkpt lat="29.769907457786008" lon="-8.528322535632432"><ele>1030.0</ele><time>2026-04-15T11:00:30Z</time></trkpt><trkpt lat="29.769783946629754" lon="-8.528201485138846"><ele>1030.0</ele><time>2026-04-15T11:00:31Z</time></trkpt><trkpt lat="29.76966212704623" lon="-8.528077402161594"><ele>1030.0</ele><time>2026-04-15T11:00:32Z</time></trkpt><trkpt lat="29.769539460092187" lon="-8.527956620220525"><ele>1030.0</ele><time>2026-04-15T11:00:33Z</time></trkpt><trkpt lat="29.769411382051413" lon="-8.52783193283132"><ele>1030.0</ele><time>2026-04-15T11:00:34Z</time></trkpt><trkpt lat="29.769283155757215" lon="-8.527709649568639"><ele>1029.6666666666665</ele><time>2026-04-15T11:00:35Z</time></trkpt><trkpt lat="29.769149400711086" lon="-8.527584415027848"><ele>1029.3333333333333</ele><time>2026-04-15T11:00:36Z</time></trkpt><trkpt lat="29.76901617193414" lon="-8.527455466459674"><ele>1029.0</ele><time>2026-04-15T11:00:37Z</time></trkpt><trkpt lat="29.768885676772317" lon="-8.527323766745797"><ele>1029.0</ele><time>2026-04-15T11:00:38Z</time></trkpt><trkpt lat="29.76875142597827" lon="-8.527188996243703"><ele>1029.0</ele><time>2026-04-15T11:00:39Z</time></trkpt><trkpt lat="29.76861632123998" lon="-8.527059902088848"><ele>1029.0</ele><time>2026-04-15T11:00:40Z</time></trkpt><trkpt lat="29.768481263269642" lon="-8.526930825944117"><ele>1029.0</ele><time>2026-04-15T11:00:41Z</time></trkpt><trkpt lat="29.768345008429776" lon="-8.526801928693017"><ele>1029.0</ele><time>2026-04-15T11:00:42Z</time></trkpt><trkpt lat="29.768212166910214" lon="-8.526672031987701"><ele>1029.0</ele><time>2026-04-15T11:00:43Z</time></trkpt><trkpt lat="29.76808327517452" lon="-8.526545622834737"><ele>1029.0</ele><time>2026-04-15T11:00:44Z</time></trkpt><trkpt lat="29.767955968417553" lon="-8.526422914074827"><ele>1029.0</ele><time>2026-04-15T11:00:45Z</time></trkpt><trkpt lat="29.767832308295663" lon="-8.526303203565588"><ele>1029.0</ele><time>2026-04-15T11:00:46Z</time></trkpt><trkpt lat="29.767707264058977" lon="-8.526183660846767"><ele>1027.3333333333333</ele><time>2026-04-15T11:00:47Z</time></trkpt><trkpt lat="29.767588403828675" lon="-8.526060680575268"><ele>1025.6666666666665</ele><time>2026-04-15T11:00:48Z</time></trkpt><trkpt lat="29.76746334995717" lon="-8.52593504761893"><ele>1024.0</ele><time>2026-04-15T11:00:49Z</time></trkpt><trkpt lat="29.767330470974454" lon="-8.525808515396378"><ele>1024.0</ele><time>2026-04-15T11:00:50Z</time></trkpt><trkpt lat="29.76719625176279" lon="-8.525680164238556"><ele>1024.0</ele><time>2026-04-15T11:00:51Z</time></trkpt><trkpt lat="29.767060410019894" lon="-8.525548195450485"><ele>1024.0</ele><time>2026-04-15T11:00:52Z</time></trkpt><trkpt lat="29.766925085628895" lon="-8.525416828076688"><ele>1023.3333333333333</ele><time>2026-04-15T11:00:53Z</time></trkpt><trkpt lat="29.76679115176221" lon="-8.525285827506968"><ele>1022.6666666666667</ele><time>2026-04-15T11:00:54Z</time></trkpt><trkpt lat="29.766659542725296" lon="-8.525156767784157"><ele>1022.0</ele><time>2026-04-15T11:00:55Z</time></trkpt><trkpt lat="29.766524701327047" lon="-8.525027008036716"><ele>1022.0</ele><time>2026-04-15T11:00:56Z</time></trkpt><trkpt lat="29.766388053515705" lon="-8.524901550019052"><ele>1022.0</ele><time>2026-04-15T11:00:57Z</time></trkpt><trkpt lat="29.766253870217806" lon="-8.524773816517067"><ele>1022.0</ele><time>2026-04-15T11:00:58Z</time></trkpt><trkpt lat="29.766120763859952" lon="-8.52464395799137"><ele>1020.6666666666667</ele><time>2026-04-15T11:00:59Z</time></trkpt><trkpt lat="29.765990262797207" lon="-8.524512829920662"><ele>1019.3333333333333</ele><time>2026-04-15T11:01:00Z</time></trkpt><trkpt lat="29.765850007038793" lon="-8.524395914667826"><ele>1018.0</ele><time>2026-04-15T11:01:01Z</time></trkpt><trkpt lat="29.765728023055182" lon="-8.524256188139857"><ele>1018.0</ele><time>2026-04-15T11:01:02Z</time></trkpt><trkpt lat="29.765591417987817" lon="-8.524134480232187"><ele>1018.0</ele><time>2026-04-15T11:01:03Z</time></trkpt><trkpt lat="29.76546113260675" lon="-8.524011537246333"><ele>1018.0</ele><time>2026-04-15T11:01:04Z</time></trkpt><trkpt lat="29.765331391802395" lon="-8.523888274274713"><ele>1018.0</ele><time>2026-04-15T11:01:05Z</time></trkpt><trkpt lat="29.765203747478804" lon="-8.523761914639568"><ele>1018.0</ele><time>2026-04-15T11:01:06Z</time></trkpt><trkpt lat="29.765075078004354" lon="-8.52363523980567"><ele>1018.0</ele><time>2026-04-15T11:01:07Z</time></trkpt><trkpt lat="29.764948945150337" lon="-8.523508382128831"><ele>1017.3333333333333</ele><time>2026-04-15T11:01:08Z</time></trkpt><trkpt lat="29.764824881772093" lon="-8.52338526480447"><ele>1016.6666666666667</ele><time>2026-04-15T11:01:09Z</time></trkpt><trkpt lat="29.764705176061465" lon="-8.52327159449542"><ele>1016.0</ele><time>2026-04-15T11:01:10Z</time></trkpt><trkpt lat="29.764591954669676" lon="-8.523166453530894"><ele>1016.0</ele><time>2026-04-15T11:01:11Z</time></trkpt><trkpt lat="29.764482148177933" lon="-8.523067437918316"><ele>1016.0</ele><time>2026-04-15T11:01:12Z</time></trkpt><trkpt lat="29.764377931798084" lon="-8.522969085521707"><ele>1016.0</ele><time>2026-04-15T11:01:13Z</time></trkpt><trkpt lat="29.764276388649165" lon="-8.522864313332372"><ele>1016.0</ele><time>2026-04-15T11:01:14Z</time></trkpt><trkpt lat="29.764170326092806" lon="-8.522754154626108"><ele>1015.3333333333334</ele><time>2026-04-15T11:01:15Z</time></trkpt><trkpt lat="29.764057118266162" lon="-8.522647643611803"><ele>1014.6666666666667</ele><time>2026-04-15T11:01:16Z</time></trkpt><trkpt lat="29.763937474820818" lon="-8.522538476679198"><ele>1014.0</ele><time>2026-04-15T11:01:17Z</time></trkpt><trkpt lat="29.763813928746355" lon="-8.522428196847857"><ele>1014.0</ele><time>2026-04-15T11:01:18Z</time></trkpt><trkpt lat="29.76369209150478" lon="-8.522310194256493"><ele>1014.0</ele><time>2026-04-15T11:01:19Z</time></trkpt><trkpt lat="29.76357077635015" lon="-8.522185624728097"><ele>1014.0</ele><time>2026-04-15T11:01:20Z</time></trkpt><trkpt lat="29.763442109225544" lon="-8.522060862225679"><ele>1014.0</ele><time>2026-04-15T11:01:21Z</time></trkpt><trkpt lat="29.763301239492144" lon="-8.521944568761555"><ele>1014.0</ele><time>2026-04-15T11:01:22Z</time></trkpt><trkpt lat="29.763167579312142" lon="-8.521818308995886"><ele>1014.0</ele><time>2026-04-15T11:01:23Z</time></trkpt><trkpt lat="29.76303292553639" lon="-8.521691251284187"><ele>1014.0</ele><time>2026-04-15T11:01:24Z</time></trkpt><trkpt lat="29.76289938117814" lon="-8.521565380930118"><ele>1014.0</ele><time>2026-04-15T11:01:25Z</time></trkpt><trkpt lat="29.762773216742005" lon="-8.521446466397324"><ele>1014.0</ele><time>2026-04-15T11:01:26Z</time></trkpt><trkpt lat="29.762651289358097" lon="-8.521331545468515"><ele>1014.0</ele><time>2026-04-15T11:01:27Z</time></trkpt><trkpt lat="29.762531105604484" lon="-8.521218268042778"><ele>1014.0</ele><time>2026-04-15T11:01:28Z</time></trkpt><trkpt lat="29.762407682140257" lon="-8.521101603419618"><ele>1014.0</ele><time>2026-04-15T11:01:29Z</time></trkpt><trkpt lat="29.762284411271846" lon="-8.520984624089795"><ele>1014.0</ele><time>2026-04-15T11:01:30Z</time></trkpt><trkpt lat="29.762160911335933" lon="-8.520867498436962"><ele>1014.0</ele><time>2026-04-15T11:01:31Z</time></trkpt><trkpt lat="29.76203690210108" lon="-8.520750423319496"><ele>1014.0</ele><time>2026-04-15T11:01:32Z</time></trkpt><trkpt lat="29.76191544352812" lon="-8.520635963288138"><ele>1013.5</ele><time>2026-04-15T11:01:33Z</time></trkpt><trkpt lat="29.761801392372004" lon="-8.520528781812459"><ele>1013.0</ele><time>2026-04-15T11:01:34Z</time></trkpt><trkpt lat="29.761693371241215" lon="-8.520427851271034"><ele>1012.5</ele><time>2026-04-15T11:01:35Z</time></trkpt><trkpt lat="29.76158226589862" lon="-8.520350880840361"><ele>1012.0</ele><time>2026-04-15T11:01:36Z</time></trkpt><trkpt lat="29.761466557044546" lon="-8.520270450521677"><ele>1012.0</ele><time>2026-04-15T11:01:37Z</time></trkpt><trkpt lat="29.76134556811591" lon="-8.520186350403295"><ele>1012.0</ele><time>2026-04-15T11:01:38Z</time></trkpt><trkpt lat="29.761228480228976" lon="-8.52009111790431"><ele>1012.0</ele><time>2026-04-15T11:01:39Z</time></trkpt><trkpt lat="29.76109532313468" lon="-8.520015397426217"><ele>1012.0</ele><time>2026-04-15T11:01:40Z</time></trkpt><trkpt lat="29.76095598151925" lon="-8.51994199660848"><ele>1012.0</ele><time>2026-04-15T11:01:41Z</time></trkpt><trkpt lat="29.76081238310664" lon="-8.519872310878872"><ele>1012.0</ele><time>2026-04-15T11:01:42Z</time></trkpt><trkpt lat="29.760660784602525" lon="-8.51981428595889"><ele>1012.0</ele><time>2026-04-15T11:01:43Z</time></trkpt><trkpt lat="29.760505512768802" lon="-8.51976117904338"><ele>1012.0</ele><time>2026-04-15T11:01:44Z</time></trkpt><trkpt lat="29.760344548043506" lon="-8.519729723293482"><ele>1012.0</ele><time>2026-04-15T11:01:45Z</time></trkpt><trkpt lat="29.760181651714152" lon="-8.519681704738945"><ele>1012.0</ele><time>2026-04-15T11:01:46Z</time></trkpt><trkpt lat="29.760024049489214" lon="-8.519620757133135"><ele>1012.3333333333333</ele><time>2026-04-15T11:01:47Z</time></trkpt><trkpt lat="29.759850445199195" lon="-8.519589050160384"><ele>1012.6666666666667</ele><time>2026-04-15T11:01:48Z</time></trkpt><trkpt lat="29.759669889888496" lon="-8.519561430204178"><ele>1013.0</ele><time>2026-04-15T11:01:49Z</time></trkpt><trkpt lat="29.75948602456594" lon="-8.519531250369281"><ele>1011.6666666666667</ele><time>2026-04-15T11:01:50Z</time></trkpt><trkpt lat="29.759304418643083" lon="-8.519499276609126"><ele>1010.3333333333333</ele><time>2026-04-15T11:01:51Z</time></trkpt><trkpt lat="29.759122936861516" lon="-8.519470352924555"><ele>1009.0</ele><time>2026-04-15T11:01:52Z</time></trkpt><trkpt lat="29.758941804690632" lon="-8.519442297031157"><ele>1009.0</ele><time>2026-04-15T11:01:53Z</time></trkpt><trkpt lat="29.758760674651487" lon="-8.519417141999947"><ele>1009.0</ele><time>2026-04-15T11:01:54Z</time></trkpt><trkpt lat="29.75857805149241" lon="-8.519389441747709"><ele>1009.0</ele><time>2026-04-15T11:01:55Z</time></trkpt><trkpt lat="29.75839573489663" lon="-8.51936038208619"><ele>1009.0</ele><time>2026-04-15T11:01:56Z</time></trkpt><trkpt lat="29.758210609310904" lon="-8.519330762223609"><ele>1009.0</ele><time>2026-04-15T11:01:57Z</time></trkpt><trkpt lat="29.75802214901869" lon="-8.519302427375859"><ele>1009.0</ele><time>2026-04-15T11:01:58Z</time></trkpt><trkpt lat="29.757832906150522" lon="-8.519272167594853"><ele>1008.0</ele><time>2026-04-15T11:01:59Z</time></trkpt><trkpt lat="29.757643440350872" lon="-8.519237492856547"><ele>1007.0</ele><time>2026-04-15T11:02:00Z</time></trkpt><trkpt lat="29.75745089793332" lon="-8.519199907786476"><ele>1006.0</ele><time>2026-04-15T11:02:01Z</time></trkpt><trkpt lat="29.757256641692578" lon="-8.519165865837131"><ele>1006.0</ele><time>2026-04-15T11:02:02Z</time></trkpt><trkpt lat="29.7570610055423" lon="-8.519138813082682"><ele>1006.0</ele><time>2026-04-15T11:02:03Z</time></trkpt><trkpt lat="29.756862994745845" lon="-8.51911328690438"><ele>1006.0</ele><time>2026-04-15T11:02:04Z</time></trkpt><trkpt lat="29.75666255616954" lon="-8.519080280599903"><ele>1006.6666666666666</ele><time>2026-04-15T11:02:05Z</time></trkpt><trkpt lat="29.75646086505343" lon="-8.51904814702469"><ele>1007.3333333333333</ele><time>2026-04-15T11:02:06Z</time></trkpt><trkpt lat="29.756263017648624" lon="-8.519017394837"><ele>1008.0</ele><time>2026-04-15T11:02:07Z</time></trkpt><trkpt lat="29.756063724677585" lon="-8.518988553414829"><ele>1007.6666666666667</ele><time>2026-04-15T11:02:08Z</time></trkpt><trkpt lat="29.755863367338687" lon="-8.518959136673562"><ele>1007.3333333333334</ele><time>2026-04-15T11:02:09Z</time></trkpt><trkpt lat="29.75566306287856" lon="-8.518927764513949"><ele>1007.0</ele><time>2026-04-15T11:02:10Z</time></trkpt><trkpt lat="29.755466513638364" lon="-8.51889539416035"><ele>1007.0</ele><time>2026-04-15T11:02:11Z</time></trkpt><trkpt lat="29.755274868623296" lon="-8.518862761732686"><ele>1007.0</ele><time>2026-04-15T11:02:12Z</time></trkpt><trkpt lat="29.75508508019163" lon="-8.51883162455196"><ele>1007.0</ele><time>2026-04-15T11:02:13Z</time></trkpt><trkpt lat="29.754898114108645" lon="-8.51880543149535"><ele>1006.6666666666667</ele><time>2026-04-15T11:02:14Z</time></trkpt><trkpt lat="29.75470755572496" lon="-8.518773809618493"><ele>1006.3333333333333</ele><time>2026-04-15T11:02:15Z</time></trkpt><trkpt lat="29.754516492808513" lon="-8.518745195079806"><ele>1006.0</ele><time>2026-04-15T11:02:16Z</time></trkpt><trkpt lat="29.754322801416098" lon="-8.518714419407141"><ele>1006.0</ele><time>2026-04-15T11:02:17Z</time></trkpt><trkpt lat="29.7541246284811" lon="-8.518681873158034"><ele>1006.0</ele><time>2026-04-15T11:02:18Z</time></trkpt><trkpt lat="29.753922019804786" lon="-8.518653136774041"><ele>1006.0</ele><time>2026-04-15T11:02:19Z</time></trkpt><trkpt lat="29.753721222763613" lon="-8.518624044785728"><ele>1006.0</ele><time>2026-04-15T11:02:20Z</time></trkpt><trkpt lat="29.75352433904941" lon="-8.518593735286984"><ele>1006.0</ele><time>2026-04-15T11:02:21Z</time></trkpt><trkpt lat="29.753327403947537" lon="-8.518562283251283"><ele>1006.0</ele><time>2026-04-15T11:02:22Z</time></trkpt><trkpt lat="29.753133817937393" lon="-8.51853069418283"><ele>1006.0</ele><time>2026-04-15T11:02:23Z</time></trkpt><trkpt lat="29.75294141081206" lon="-8.518500516508652"><ele>1006.0</ele><time>2026-04-15T11:02:24Z</time></trkpt><trkpt lat="29.752753515440904" lon="-8.518465435991404"><ele>1006.0</ele><time>2026-04-15T11:02:25Z</time></trkpt><trkpt lat="29.752562920984793" lon="-8.518450955915577"><ele>1005.6666666666666</ele><time>2026-04-15T11:02:26Z</time></trkpt><trkpt lat="29.752379704274713" lon="-8.518403905600959"><ele>1005.3333333333333</ele><time>2026-04-15T11:02:27Z</time></trkpt><trkpt lat="29.752192305914722" lon="-8.51837626383238"><ele>1005.0</ele><time>2026-04-15T11:02:28Z</time></trkpt><trkpt lat="29.752002650632047" lon="-8.51834971376674"><ele>1005.3333333333333</ele><time>2026-04-15T11:02:29Z</time></trkpt><trkpt lat="29.751812709741166" lon="-8.518320027246872"><ele>1005.6666666666666</ele><time>2026-04-15T11:02:30Z</time></trkpt><trkpt lat="29.751625637718938" lon="-8.51828830056504"><ele>1006.0</ele><time>2026-04-15T11:02:31Z</time></trkpt><trkpt lat="29.751437925312505" lon="-8.518255294289174"><ele>1006.0</ele><time>2026-04-15T11:02:32Z</time></trkpt><trkpt lat="29.751253219798915" lon="-8.51824508861545"><ele>1006.0</ele><time>2026-04-15T11:02:33Z</time></trkpt><trkpt lat="29.75107383383264" lon="-8.518216494621448"><ele>1006.0</ele><time>2026-04-15T11:02:34Z</time></trkpt><trkpt lat="29.750897367501512" lon="-8.518188084838794"><ele>1005.6666666666666</ele><time>2026-04-15T11:02:35Z</time></trkpt><trkpt lat="29.750719501792908" lon="-8.518159606805439"><ele>1005.3333333333333</ele><time>2026-04-15T11:02:36Z</time></trkpt><trkpt lat="29.75054436926105" lon="-8.518115072944735"><ele>1005.0</ele><time>2026-04-15T11:02:37Z</time></trkpt><trkpt lat="29.75037598427012" lon="-8.5180909843318"><ele>1005.0</ele><time>2026-04-15T11:02:38Z</time></trkpt><trkpt lat="29.750209648200002" lon="-8.518065481599466"><ele>1005.0</ele><time>2026-04-15T11:02:39Z</time></trkpt><trkpt lat="29.750047023024674" lon="-8.51804053068861"><ele>1005.0</ele><time>2026-04-15T11:02:40Z</time></trkpt><trkpt lat="29.74987864665816" lon="-8.518019408305449"><ele>1005.3333333333333</ele><time>2026-04-15T11:02:41Z</time></trkpt><trkpt lat="29.749707059841576" lon="-8.517993533355918"><ele>1005.6666666666666</ele><time>2026-04-15T11:02:42Z</time></trkpt><trkpt lat="29.749532780936164" lon="-8.517966010276577"><ele>1006.0</ele><time>2026-04-15T11:02:43Z</time></trkpt><trkpt lat="29.749359141917708" lon="-8.517937464916837"><ele>1006.3333333333333</ele><time>2026-04-15T11:02:44Z</time></trkpt><trkpt lat="29.749182016929844" lon="-8.517906267488737"><ele>1006.6666666666667</ele><time>2026-04-15T11:02:45Z</time></trkpt><trkpt lat="29.749005246952557" lon="-8.517873437441295"><ele>1007.0</ele><time>2026-04-15T11:02:46Z</time></trkpt><trkpt lat="29.74882936987921" lon="-8.517844247062001"><ele>1006.0</ele><time>2026-04-15T11:02:47Z</time></trkpt><trkpt lat="29.7486520317639" lon="-8.517834896446445"><ele>1005.0</ele><time>2026-04-15T11:02:48Z</time></trkpt><trkpt lat="29.74848201183928" lon="-8.51780821284301"><ele>1004.0</ele><time>2026-04-15T11:02:49Z</time></trkpt><trkpt lat="29.748312922500098" lon="-8.517781675281627"><ele>1004.0</ele><time>2026-04-15T11:02:50Z</time></trkpt><trkpt lat="29.74815095075951" lon="-8.51773762920982"><ele>1004.0</ele><time>2026-04-15T11:02:51Z</time></trkpt><trkpt lat="29.74798932776496" lon="-8.517713444049352"><ele>1004.0</ele><time>2026-04-15T11:02:52Z</time></trkpt><trkpt lat="29.747824576114127" lon="-8.51768735032106"><ele>1003.6666666666667</ele><time>2026-04-15T11:02:53Z</time></trkpt><trkpt lat="29.747661000247753" lon="-8.517662665331233"><ele>1003.3333333333333</ele><time>2026-04-15T11:02:54Z</time></trkpt><trkpt lat="29.747496072693664" lon="-8.517654779487124"><ele>1003.0</ele><time>2026-04-15T11:02:55Z</time></trkpt><trkpt lat="29.747338747451973" lon="-8.517611970187515"><ele>1003.0</ele><time>2026-04-15T11:02:56Z</time></trkpt><trkpt lat="29.747178540446583" lon="-8.517606572899053"><ele>1003.0</ele><time>2026-04-15T11:02:57Z</time></trkpt><trkpt lat="29.74702123838991" lon="-8.517565733521856"><ele>1003.0</ele><time>2026-04-15T11:02:58Z</time></trkpt><trkpt lat="29.746862092003287" lon="-8.517541315153604"><ele>1003.0</ele><time>2026-04-15T11:02:59Z</time></trkpt><trkpt lat="29.74670158586322" lon="-8.517515215265364"><ele>1003.0</ele><time>2026-04-15T11:03:00Z</time></trkpt><trkpt lat="29.746538281406583" lon="-8.51750747774197"><ele>1003.0</ele><time>2026-04-15T11:03:01Z</time></trkpt><trkpt lat="29.746379862653615" lon="-8.51748290988156"><ele>1003.0</ele><time>2026-04-15T11:03:02Z</time></trkpt><trkpt lat="29.746227239299326" lon="-8.517459240750805"><ele>1003.0</ele><time>2026-04-15T11:03:03Z</time></trkpt><trkpt lat="29.74607681309134" lon="-8.517436532121275"><ele>1003.0</ele><time>2026-04-15T11:03:04Z</time></trkpt><trkpt lat="29.745928214239285" lon="-8.517413164520525"><ele>1003.0</ele><time>2026-04-15T11:03:05Z</time></trkpt><trkpt lat="29.745780364126105" lon="-8.51738988298566"><ele>1003.0</ele><time>2026-04-15T11:03:06Z</time></trkpt><trkpt lat="29.745630327553386" lon="-8.517346794529617"><ele>1003.0</ele><time>2026-04-15T11:03:07Z</time></trkpt><trkpt lat="29.74547997116551" lon="-8.517323851685513"><ele>1003.0</ele><time>2026-04-15T11:03:08Z</time></trkpt><trkpt lat="29.745327418103138" lon="-8.517296970838956"><ele>1003.0</ele><time>2026-04-15T11:03:09Z</time></trkpt><trkpt lat="29.745175433023046" lon="-8.517266519457998"><ele>1003.0</ele><time>2026-04-15T11:03:10Z</time></trkpt><trkpt lat="29.745023076486206" lon="-8.517236096263911"><ele>1003.0</ele><time>2026-04-15T11:03:11Z</time></trkpt><trkpt lat="29.744880302397075" lon="-8.51719115038856"><ele>1003.0</ele><time>2026-04-15T11:03:12Z</time></trkpt><trkpt lat="29.744740185282662" lon="-8.517133631406237"><ele>1003.0</ele><time>2026-04-15T11:03:13Z</time></trkpt><trkpt lat="29.744598548098246" lon="-8.51706041687888"><ele>1003.0</ele><time>2026-04-15T11:03:14Z</time></trkpt><trkpt lat="29.744455427833053" lon="-8.516981198498526"><ele>1003.0</ele><time>2026-04-15T11:03:15Z</time></trkpt><trkpt lat="29.74431463316936" lon="-8.516891048702485"><ele>1003.0</ele><time>2026-04-15T11:03:16Z</time></trkpt><trkpt lat="29.74417658254839" lon="-8.516793145761975"><ele>1002.0</ele><time>2026-04-15T11:03:17Z</time></trkpt><trkpt lat="29.744034994871594" lon="-8.516686012815864"><ele>1001.0</ele><time>2026-04-15T11:03:18Z</time></trkpt><trkpt lat="29.74389334026261" lon="-8.516591975707605"><ele>1000.0</ele><time>2026-04-15T11:03:19Z</time></trkpt><trkpt lat="29.743750143224098" lon="-8.516493441618412"><ele>1000.0</ele><time>2026-04-15T11:03:20Z</time></trkpt><trkpt lat="29.74361023918366" lon="-8.516385157752302"><ele>1000.0</ele><time>2026-04-15T11:03:21Z</time></trkpt><trkpt lat="29.743469064362923" lon="-8.516273714677565"><ele>1000.0</ele><time>2026-04-15T11:03:22Z</time></trkpt><trkpt lat="29.743324053573925" lon="-8.516171655968375"><ele>1001.0</ele><time>2026-04-15T11:03:23Z</time></trkpt><trkpt lat="29.743180886896788" lon="-8.516073072359712"><ele>1002.0</ele><time>2026-04-15T11:03:24Z</time></trkpt><trkpt lat="29.743036052012165" lon="-8.515971248885046"><ele>1003.0</ele><time>2026-04-15T11:03:25Z</time></trkpt><trkpt lat="29.74289863281518" lon="-8.515862936901213"><ele>1003.0</ele><time>2026-04-15T11:03:26Z</time></trkpt><trkpt lat="29.74276045397575" lon="-8.515759079080905"><ele>1003.0</ele><time>2026-04-15T11:03:27Z</time></trkpt><trkpt lat="29.742614125035796" lon="-8.515654030264656"><ele>1003.0</ele><time>2026-04-15T11:03:28Z</time></trkpt><trkpt lat="29.742468747193872" lon="-8.515545877033675"><ele>1002.6666666666666</ele><time>2026-04-15T11:03:29Z</time></trkpt><trkpt lat="29.742326962883734" lon="-8.515443293860276"><ele>1002.3333333333333</ele><time>2026-04-15T11:03:30Z</time></trkpt><trkpt lat="29.742198562807168" lon="-8.515342232449434"><ele>1002.0</ele><time>2026-04-15T11:03:31Z</time></trkpt><trkpt lat="29.742074303077906" lon="-8.51524892031866"><ele>1001.75</ele><time>2026-04-15T11:03:32Z</time></trkpt><trkpt lat="29.741949756667562" lon="-8.51515569906174"><ele>1001.5</ele><time>2026-04-15T11:03:33Z</time></trkpt><trkpt lat="29.74182511969414" lon="-8.515061299593155"><ele>1001.25</ele><time>2026-04-15T11:03:34Z</time></trkpt><trkpt lat="29.74170011086751" lon="-8.514967830643236"><ele>1001.0</ele><time>2026-04-15T11:03:35Z</time></trkpt><trkpt lat="29.741576206492333" lon="-8.514871573075235"><ele>1000.6666666666667</ele><time>2026-04-15T11:03:36Z</time></trkpt><trkpt lat="29.741458196925578" lon="-8.514760616805184"><ele>1000.3333333333333</ele><time>2026-04-15T11:03:37Z</time></trkpt><trkpt lat="29.74134066157996" lon="-8.514644166534431"><ele>1000.0</ele><time>2026-04-15T11:03:38Z</time></trkpt><trkpt lat="29.741226983021186" lon="-8.514520923948037"><ele>999.6666666666666</ele><time>2026-04-15T11:03:39Z</time></trkpt><trkpt lat="29.74112221772824" lon="-8.514378896310204"><ele>999.3333333333333</ele><time>2026-04-15T11:03:40Z</time></trkpt><trkpt lat="29.741024088306585" lon="-8.51422623085365"><ele>999.0</ele><time>2026-04-15T11:03:41Z</time></trkpt><trkpt lat="29.740934137230933" lon="-8.514068361318351"><ele>999.0</ele><time>2026-04-15T11:03:42Z</time></trkpt><trkpt lat="29.740850050886074" lon="-8.51390850280076"><ele>999.0</ele><time>2026-04-15T11:03:43Z</time></trkpt><trkpt lat="29.74077922522393" lon="-8.51373725767171"><ele>999.0</ele><time>2026-04-15T11:03:44Z</time></trkpt><trkpt lat="29.740721374955733" lon="-8.513562739311281"><ele>999.0</ele><time>2026-04-15T11:03:45Z</time></trkpt><trkpt lat="29.74068054238525" lon="-8.513379905602157"><ele>999.0</ele><time>2026-04-15T11:03:46Z</time></trkpt><trkpt lat="29.74065313762089" lon="-8.513193141209515"><ele>999.0</ele><time>2026-04-15T11:03:47Z</time></trkpt><trkpt lat="29.74063409419153" lon="-8.512998478745374"><ele>996.6666666666667</ele><time>2026-04-15T11:03:48Z</time></trkpt><trkpt lat="29.74061828557757" lon="-8.512807651008362"><ele>994.3333333333334</ele><time>2026-04-15T11:03:49Z</time></trkpt><trkpt lat="29.74060706469355" lon="-8.512620449937708"><ele>992.0</ele><time>2026-04-15T11:03:50Z</time></trkpt><trkpt lat="29.74059939463328" lon="-8.512432898245676"><ele>992.0</ele><time>2026-04-15T11:03:51Z</time></trkpt><trkpt lat="29.740588779567336" lon="-8.512247526800298"><ele>992.0</ele><time>2026-04-15T11:03:52Z</time></trkpt><trkpt lat="29.740576558618567" lon="-8.512057599311547"><ele>992.0</ele><time>2026-04-15T11:03:53Z</time></trkpt><trkpt lat="29.740567034178067" lon="-8.511869736766046"><ele>991.6666666666667</ele><time>2026-04-15T11:03:54Z</time></trkpt><trkpt lat="29.740555291425913" lon="-8.511680676932341"><ele>991.3333333333333</ele><time>2026-04-15T11:03:55Z</time></trkpt><trkpt lat="29.740540660822727" lon="-8.511493142787996"><ele>991.0</ele><time>2026-04-15T11:03:56Z</time></trkpt><trkpt lat="29.7405287023921" lon="-8.511314859611254"><ele>990.25</ele><time>2026-04-15T11:03:57Z</time></trkpt><trkpt lat="29.74051776834797" lon="-8.511147264254687"><ele>989.5</ele><time>2026-04-15T11:03:58Z</time></trkpt><trkpt lat="29.74050956293263" lon="-8.510987053486106"><ele>988.75</ele><time>2026-04-15T11:03:59Z</time></trkpt><trkpt lat="29.740498190510245" lon="-8.510832556355101"><ele>988.0</ele><time>2026-04-15T11:04:00Z</time></trkpt><trkpt lat="29.74048213351165" lon="-8.510682516110673"><ele>988.0</ele><time>2026-04-15T11:04:01Z</time></trkpt><trkpt lat="29.74045326004998" lon="-8.510529913191602"><ele>988.0</ele><time>2026-04-15T11:04:02Z</time></trkpt><trkpt lat="29.740416498467884" lon="-8.510378576918438"><ele>988.0</ele><time>2026-04-15T11:04:03Z</time></trkpt><trkpt lat="29.740368368483054" lon="-8.510223894863412"><ele>988.0</ele><time>2026-04-15T11:04:04Z</time></trkpt><trkpt lat="29.740314918380065" lon="-8.510070793499892"><ele>987.75</ele><time>2026-04-15T11:04:05Z</time></trkpt><trkpt lat="29.740252114282004" lon="-8.509917480115607"><ele>987.5</ele><time>2026-04-15T11:04:06Z</time></trkpt><trkpt lat="29.740179101411996" lon="-8.509776692144394"><ele>987.25</ele><time>2026-04-15T11:04:07Z</time></trkpt><trkpt lat="29.74010150049136" lon="-8.509637755273916"><ele>987.0</ele><time>2026-04-15T11:04:08Z</time></trkpt><trkpt lat="29.740025442793105" lon="-8.509495671378598"><ele>987.0</ele><time>2026-04-15T11:04:09Z</time></trkpt><trkpt lat="29.739945226754955" lon="-8.50934871851758"><ele>987.0</ele><time>2026-04-15T11:04:10Z</time></trkpt><trkpt lat="29.739859733473285" lon="-8.50919824889812"><ele>987.0</ele><time>2026-04-15T11:04:11Z</time></trkpt><trkpt lat="29.739775639921994" lon="-8.509040060832616"><ele>987.0</ele><time>2026-04-15T11:04:12Z</time></trkpt><trkpt lat="29.739692847571472" lon="-8.508876407971936"><ele>987.0</ele><time>2026-04-15T11:04:13Z</time></trkpt><trkpt lat="29.739610034896728" lon="-8.508723265912753"><ele>987.0</ele><time>2026-04-15T11:04:14Z</time></trkpt><trkpt lat="29.73952569196561" lon="-8.508573692671854"><ele>986.0</ele><time>2026-04-15T11:04:15Z</time></trkpt><trkpt lat="29.739443689072342" lon="-8.508423828606931"><ele>985.0</ele><time>2026-04-15T11:04:16Z</time></trkpt><trkpt lat="29.739363228767782" lon="-8.508270076845676"><ele>984.0</ele><time>2026-04-15T11:04:17Z</time></trkpt><trkpt lat="29.739284617447275" lon="-8.508127719432085"><ele>984.25</ele><time>2026-04-15T11:04:18Z</time></trkpt><trkpt lat="29.739207011248556" lon="-8.507985851969844"><ele>984.5</ele><time>2026-04-15T11:04:19Z</time></trkpt><trkpt lat="29.739125663628265" lon="-8.507843900191038"><ele>984.75</ele><time>2026-04-15T11:04:20Z</time></trkpt><trkpt lat="29.739043471444234" lon="-8.507697376549613"><ele>985.0</ele><time>2026-04-15T11:04:21Z</time></trkpt><trkpt lat="29.73896026286346" lon="-8.507547867116683"><ele>985.0</ele><time>2026-04-15T11:04:22Z</time></trkpt><trkpt lat="29.738877294582302" lon="-8.50739339100268"><ele>985.0</ele><time>2026-04-15T11:04:23Z</time></trkpt><trkpt lat="29.738793430335722" lon="-8.507238020949913"><ele>985.0</ele><time>2026-04-15T11:04:24Z</time></trkpt><trkpt lat="29.73871074392944" lon="-8.50708465417329"><ele>985.0</ele><time>2026-04-15T11:04:25Z</time></trkpt><trkpt lat="29.73862776450738" lon="-8.506931229349943"><ele>985.0</ele><time>2026-04-15T11:04:26Z</time></trkpt><trkpt lat="29.738545091539084" lon="-8.506775385036711"><ele>985.0</ele><time>2026-04-15T11:04:27Z</time></trkpt><trkpt lat="29.73845567449582" lon="-8.506623783017728"><ele>986.25</ele><time>2026-04-15T11:04:28Z</time></trkpt><trkpt lat="29.73836926962698" lon="-8.506476236406485"><ele>987.5</ele><time>2026-04-15T11:04:29Z</time></trkpt><trkpt lat="29.738289347615375" lon="-8.506328297899275"><ele>988.75</ele><time>2026-04-15T11:04:30Z</time></trkpt><trkpt lat="29.738220579722334" lon="-8.506187832194831"><ele>990.0</ele><time>2026-04-15T11:04:31Z</time></trkpt><trkpt lat="29.738153204415575" lon="-8.506051930577705"><ele>990.0</ele><time>2026-04-15T11:04:32Z</time></trkpt><trkpt lat="29.738083385418907" lon="-8.505922096143214"><ele>990.0</ele><time>2026-04-15T11:04:33Z</time></trkpt><trkpt lat="29.73801312090447" lon="-8.505792096780663"><ele>990.0</ele><time>2026-04-15T11:04:34Z</time></trkpt><trkpt lat="29.737957016341348" lon="-8.505662208280109"><ele>990.0</ele><time>2026-04-15T11:04:35Z</time></trkpt><trkpt lat="29.737910625042904" lon="-8.505532417344602"><ele>990.25</ele><time>2026-04-15T11:04:36Z</time></trkpt><trkpt lat="29.737870645594867" lon="-8.505401395456097"><ele>990.5</ele><time>2026-04-15T11:04:37Z</time></trkpt><trkpt lat="29.737834648548827" lon="-8.505264950108124"><ele>990.75</ele><time>2026-04-15T11:04:38Z</time></trkpt><trkpt lat="29.73780002729691" lon="-8.50511923245978"><ele>991.0</ele><time>2026-04-15T11:04:39Z</time></trkpt><trkpt lat="29.73777909706727" lon="-8.504956277312683"><ele>991.0</ele><time>2026-04-15T11:04:40Z</time></trkpt><trkpt lat="29.73777468504487" lon="-8.504779851246246"><ele>991.0</ele><time>2026-04-15T11:04:41Z</time></trkpt><trkpt lat="29.737779409470207" lon="-8.50459804950968"><ele>991.0</ele><time>2026-04-15T11:04:42Z</time></trkpt><trkpt lat="29.737790750898995" lon="-8.504422670265518"><ele>990.0</ele><time>2026-04-15T11:04:43Z</time></trkpt><trkpt lat="29.737804060802677" lon="-8.504249736683848"><ele>989.0</ele><time>2026-04-15T11:04:44Z</time></trkpt><trkpt lat="29.737829111637033" lon="-8.504086761440467"><ele>988.0</ele><time>2026-04-15T11:04:45Z</time></trkpt><trkpt lat="29.737861377161252" lon="-8.503936379422703"><ele>987.0</ele><time>2026-04-15T11:04:46Z</time></trkpt><trkpt lat="29.73789485156823" lon="-8.503796970530582"><ele>986.5</ele><time>2026-04-15T11:04:47Z</time></trkpt><trkpt lat="29.7379219404538" lon="-8.503662147438265"><ele>986.0</ele><time>2026-04-15T11:04:48Z</time></trkpt><trkpt lat="29.73794076502082" lon="-8.5035340636755"><ele>985.5</ele><time>2026-04-15T11:04:49Z</time></trkpt><trkpt lat="29.737961725796293" lon="-8.503410241777773"><ele>985.0</ele><time>2026-04-15T11:04:50Z</time></trkpt><trkpt lat="29.737982221318934" lon="-8.503288442608957"><ele>985.0</ele><time>2026-04-15T11:04:51Z</time></trkpt><trkpt lat="29.738001298332552" lon="-8.503161816497306"><ele>985.0</ele><time>2026-04-15T11:04:52Z</time></trkpt><trkpt lat="29.738014669438346" lon="-8.503034302728276"><ele>985.0</ele><time>2026-04-15T11:04:53Z</time></trkpt><trkpt lat="29.738034767991824" lon="-8.5029023427255"><ele>985.0</ele><time>2026-04-15T11:04:54Z</time></trkpt><trkpt lat="29.73804319075209" lon="-8.502766778177975"><ele>985.5</ele><time>2026-04-15T11:04:55Z</time></trkpt><trkpt lat="29.738056486169704" lon="-8.502633815486575"><ele>986.0</ele><time>2026-04-15T11:04:56Z</time></trkpt><trkpt lat="29.738073022758112" lon="-8.502497584580983"><ele>986.5</ele><time>2026-04-15T11:04:57Z</time></trkpt><trkpt lat="29.738091198338275" lon="-8.502360900882278"><ele>987.0</ele><time>2026-04-15T11:04:58Z</time></trkpt><trkpt lat="29.738110036112676" lon="-8.502217790543293"><ele>988.0</ele><time>2026-04-15T11:04:59Z</time></trkpt><trkpt lat="29.738128476038153" lon="-8.502071474121971"><ele>989.0</ele><time>2026-04-15T11:05:00Z</time></trkpt><trkpt lat="29.738147766245408" lon="-8.501920969423672"><ele>990.0</ele><time>2026-04-15T11:05:01Z</time></trkpt><trkpt lat="29.738169229753264" lon="-8.501768955448169"><ele>991.0</ele><time>2026-04-15T11:05:02Z</time></trkpt><trkpt lat="29.738191127604946" lon="-8.501620986945666"><ele>991.0</ele><time>2026-04-15T11:05:03Z</time></trkpt><trkpt lat="29.738212368298537" lon="-8.501484487101127"><ele>991.0</ele><time>2026-04-15T11:05:04Z</time></trkpt><trkpt lat="29.738230640063207" lon="-8.501344246675636"><ele>991.0</ele><time>2026-04-15T11:05:05Z</time></trkpt><trkpt lat="29.73824265734791" lon="-8.501201839167082"><ele>991.0</ele><time>2026-04-15T11:05:06Z</time></trkpt><trkpt lat="29.73824630756182" lon="-8.501054537714632"><ele>991.0</ele><time>2026-04-15T11:05:07Z</time></trkpt><trkpt lat="29.738237565653485" lon="-8.500903602140948"><ele>991.0</ele><time>2026-04-15T11:05:08Z</time></trkpt><trkpt lat="29.738212071570697" lon="-8.500754445533122"><ele>991.0</ele><time>2026-04-15T11:05:09Z</time></trkpt><trkpt lat="29.73816905400216" lon="-8.50060233605503"><ele>991.0</ele><time>2026-04-15T11:05:10Z</time></trkpt><trkpt lat="29.738121940212103" lon="-8.500446078037287"><ele>989.0</ele><time>2026-04-15T11:05:11Z</time></trkpt><trkpt lat="29.73807056126641" lon="-8.50029158843711"><ele>987.0</ele><time>2026-04-15T11:05:12Z</time></trkpt><trkpt lat="29.738017315808015" lon="-8.500138792992223"><ele>985.0</ele><time>2026-04-15T11:05:13Z</time></trkpt><trkpt lat="29.737963039637986" lon="-8.499985085775508"><ele>983.0</ele><time>2026-04-15T11:05:14Z</time></trkpt><trkpt lat="29.73790679512524" lon="-8.499827917734537"><ele>983.0</ele><time>2026-04-15T11:05:15Z</time></trkpt><trkpt lat="29.737850750155214" lon="-8.499666125113686"><ele>983.0</ele><time>2026-04-15T11:05:16Z</time></trkpt><trkpt lat="29.737782063999123" lon="-8.499511644278085"><ele>983.0</ele><time>2026-04-15T11:05:17Z</time></trkpt><trkpt lat="29.737725190296715" lon="-8.499351781535754"><ele>988.0</ele><time>2026-04-15T11:05:18Z</time></trkpt><trkpt lat="29.73767410065135" lon="-8.499204399977799"><ele>993.0</ele><time>2026-04-15T11:05:19Z</time></trkpt><trkpt lat="29.737626971693473" lon="-8.499062851197577"><ele>998.0</ele><time>2026-04-15T11:05:20Z</time></trkpt><trkpt lat="29.73757992529224" lon="-8.498919553382974"><ele>1003.0</ele><time>2026-04-15T11:05:21Z</time></trkpt><trkpt lat="29.737530927742924" lon="-8.498772812935043"><ele>999.75</ele><time>2026-04-15T11:05:22Z</time></trkpt><trkpt lat="29.737481581817157" lon="-8.498626041369114"><ele>996.5</ele><time>2026-04-15T11:05:23Z</time></trkpt><trkpt lat="29.737429740432585" lon="-8.498471259714545"><ele>993.25</ele><time>2026-04-15T11:05:24Z</time></trkpt><trkpt lat="29.737376016828165" lon="-8.498318653094032"><ele>990.0</ele><time>2026-04-15T11:05:25Z</time></trkpt><trkpt lat="29.737312546000545" lon="-8.498167238742457"><ele>990.0</ele><time>2026-04-15T11:05:26Z</time></trkpt><trkpt lat="29.737249712139533" lon="-8.498016768233986"><ele>990.0</ele><time>2026-04-15T11:05:27Z</time></trkpt><trkpt lat="29.737178920147002" lon="-8.497871541424262"><ele>990.0</ele><time>2026-04-15T11:05:28Z</time></trkpt><trkpt lat="29.737107054490888" lon="-8.49772181929214"><ele>990.0</ele><time>2026-04-15T11:05:29Z</time></trkpt><trkpt lat="29.7370363307184" lon="-8.497570568577567"><ele>988.75</ele><time>2026-04-15T11:05:30Z</time></trkpt><trkpt lat="29.736968455379515" lon="-8.497423995885336"><ele>987.5</ele><time>2026-04-15T11:05:31Z</time></trkpt><trkpt lat="29.736902717560262" lon="-8.49728247003382"><ele>986.25</ele><time>2026-04-15T11:05:32Z</time></trkpt><trkpt lat="29.736838034122698" lon="-8.497143923041122"><ele>985.0</ele><time>2026-04-15T11:05:33Z</time></trkpt><trkpt lat="29.73678530227856" lon="-8.49699901841915"><ele>985.0</ele><time>2026-04-15T11:05:34Z</time></trkpt><trkpt lat="29.736711667583343" lon="-8.496854605778331"><ele>985.0</ele><time>2026-04-15T11:05:35Z</time></trkpt><trkpt lat="29.736621219920547" lon="-8.496710723249883"><ele>985.0</ele><time>2026-04-15T11:05:36Z</time></trkpt><trkpt lat="29.73654102099818" lon="-8.49655296985018"><ele>985.0</ele><time>2026-04-15T11:05:37Z</time></trkpt><trkpt lat="29.736472114469652" lon="-8.496381595449204"><ele>985.0</ele><time>2026-04-15T11:05:38Z</time></trkpt><trkpt lat="29.736386715668274" lon="-8.496218534255041"><ele>985.0</ele><time>2026-04-15T11:05:39Z</time></trkpt><trkpt lat="29.736304258145484" lon="-8.496051845422187"><ele>982.0</ele><time>2026-04-15T11:05:40Z</time></trkpt><trkpt lat="29.736210451831713" lon="-8.495892324961183"><ele>979.0</ele><time>2026-04-15T11:05:41Z</time></trkpt><trkpt lat="29.73613685184883" lon="-8.495716827030595"><ele>976.0</ele><time>2026-04-15T11:05:42Z</time></trkpt><trkpt lat="29.736066759457856" lon="-8.495540672487076"><ele>979.3333333333333</ele><time>2026-04-15T11:05:43Z</time></trkpt><trkpt lat="29.736015054588087" lon="-8.495356560190238"><ele>982.6666666666667</ele><time>2026-04-15T11:05:44Z</time></trkpt><trkpt lat="29.735977668071342" lon="-8.495179397647183"><ele>986.0</ele><time>2026-04-15T11:05:45Z</time></trkpt><trkpt lat="29.7359246286502" lon="-8.495013241418286"><ele>986.0</ele><time>2026-04-15T11:05:46Z</time></trkpt><trkpt lat="29.735875679002916" lon="-8.494842018915904"><ele>986.0</ele><time>2026-04-15T11:05:47Z</time></trkpt><trkpt lat="29.73581971569061" lon="-8.494668518296304"><ele>986.0</ele><time>2026-04-15T11:05:48Z</time></trkpt><trkpt lat="29.735765859626788" lon="-8.494495485640957"><ele>982.6666666666667</ele><time>2026-04-15T11:05:49Z</time></trkpt><trkpt lat="29.73569475045499" lon="-8.494327123113163"><ele>979.3333333333333</ele><time>2026-04-15T11:05:50Z</time></trkpt><trkpt lat="29.735638019902566" lon="-8.494149318855074"><ele>976.0</ele><time>2026-04-15T11:05:51Z</time></trkpt><trkpt lat="29.73558471786337" lon="-8.493966564794992"><ele>976.0</ele><time>2026-04-15T11:05:52Z</time></trkpt><trkpt lat="29.73553472455933" lon="-8.493782193079598"><ele>976.0</ele><time>2026-04-15T11:05:53Z</time></trkpt><trkpt lat="29.73548518468766" lon="-8.49359859535153"><ele>976.0</ele><time>2026-04-15T11:05:54Z</time></trkpt><trkpt lat="29.735434055694498" lon="-8.49341418764167"><ele>975.0</ele><time>2026-04-15T11:05:55Z</time></trkpt><trkpt lat="29.73538235161723" lon="-8.493228383329825"><ele>974.0</ele><time>2026-04-15T11:05:56Z</time></trkpt><trkpt lat="29.73533098520847" lon="-8.493046009839867"><ele>973.0</ele><time>2026-04-15T11:05:57Z</time></trkpt><trkpt lat="29.73528081023956" lon="-8.492867528756104"><ele>972.0</ele><time>2026-04-15T11:05:58Z</time></trkpt><trkpt lat="29.73523086698906" lon="-8.49269447622834"><ele>971.0</ele><time>2026-04-15T11:05:59Z</time></trkpt><trkpt lat="29.73518036391562" lon="-8.492520573766516"><ele>970.0</ele><time>2026-04-15T11:06:00Z</time></trkpt><trkpt lat="29.735128878361554" lon="-8.492350845222642"><ele>970.6666666666666</ele><time>2026-04-15T11:06:01Z</time></trkpt><trkpt lat="29.735070263565483" lon="-8.492177198923061"><ele>971.3333333333333</ele><time>2026-04-15T11:06:02Z</time></trkpt><trkpt lat="29.734991598236974" lon="-8.492008717949771"><ele>972.0</ele><time>2026-04-15T11:06:03Z</time></trkpt><trkpt lat="29.734899377460504" lon="-8.491839162227368"><ele>972.0</ele><time>2026-04-15T11:06:04Z</time></trkpt><trkpt lat="29.734785459707176" lon="-8.491685227534632"><ele>972.0</ele><time>2026-04-15T11:06:05Z</time></trkpt><trkpt lat="29.73467058432786" lon="-8.491532207342303"><ele>972.0</ele><time>2026-04-15T11:06:06Z</time></trkpt><trkpt lat="29.734562493020224" lon="-8.491388468757426"><ele>972.0</ele><time>2026-04-15T11:06:07Z</time></trkpt><trkpt lat="29.73445664037671" lon="-8.491247561572624"><ele>972.0</ele><time>2026-04-15T11:06:08Z</time></trkpt><trkpt lat="29.734349261346868" lon="-8.491104622531715"><ele>972.0</ele><time>2026-04-15T11:06:09Z</time></trkpt><trkpt lat="29.73424160170945" lon="-8.490961690161948"><ele>972.0</ele><time>2026-04-15T11:06:10Z</time></trkpt><trkpt lat="29.734134603684485" lon="-8.490819799698013"><ele>972.0</ele><time>2026-04-15T11:06:11Z</time></trkpt><trkpt lat="29.734037086627552" lon="-8.490668383269934"><ele>972.0</ele><time>2026-04-15T11:06:12Z</time></trkpt><trkpt lat="29.733941717971952" lon="-8.490523955404798"><ele>970.6666666666667</ele><time>2026-04-15T11:06:13Z</time></trkpt><trkpt lat="29.733843457216704" lon="-8.4903839157655"><ele>969.3333333333334</ele><time>2026-04-15T11:06:14Z</time></trkpt><trkpt lat="29.733748492639652" lon="-8.490249158522998"><ele>968.0</ele><time>2026-04-15T11:06:15Z</time></trkpt><trkpt lat="29.733658007485626" lon="-8.490120994152598"><ele>968.0</ele><time>2026-04-15T11:06:16Z</time></trkpt><trkpt lat="29.73358217628983" lon="-8.48998477366371"><ele>968.0</ele><time>2026-04-15T11:06:17Z</time></trkpt><trkpt lat="29.733485707556305" lon="-8.489877716883298"><ele>968.0</ele><time>2026-04-15T11:06:18Z</time></trkpt><trkpt lat="29.733404596603606" lon="-8.489763156696364"><ele>968.0</ele><time>2026-04-15T11:06:19Z</time></trkpt><trkpt lat="29.733326026236522" lon="-8.489651536212651"><ele>968.0</ele><time>2026-04-15T11:06:20Z</time></trkpt><trkpt lat="29.733250151916653" lon="-8.489545179957648"><ele>968.0</ele><time>2026-04-15T11:06:21Z</time></trkpt><trkpt lat="29.733177580775923" lon="-8.489439312731719"><ele>968.0</ele><time>2026-04-15T11:06:22Z</time></trkpt><trkpt lat="29.733098783835466" lon="-8.48932505569598"><ele>968.0</ele><time>2026-04-15T11:06:23Z</time></trkpt><trkpt lat="29.73302769691717" lon="-8.4891929208307"><ele>968.0</ele><time>2026-04-15T11:06:24Z</time></trkpt><trkpt lat="29.73293481516902" lon="-8.489074202970667"><ele>968.0</ele><time>2026-04-15T11:06:25Z</time></trkpt><trkpt lat="29.732840500441213" lon="-8.488946005300978"><ele>968.0</ele><time>2026-04-15T11:06:26Z</time></trkpt><trkpt lat="29.73273142372552" lon="-8.488822933802846"><ele>968.0</ele><time>2026-04-15T11:06:27Z</time></trkpt><trkpt lat="29.732612166621994" lon="-8.488694636294532"><ele>967.3333333333334</ele><time>2026-04-15T11:06:28Z</time></trkpt><trkpt lat="29.732478194896412" lon="-8.488578164357671"><ele>966.6666666666667</ele><time>2026-04-15T11:06:29Z</time></trkpt><trkpt lat="29.732345945774853" lon="-8.488450109050978"><ele>966.0</ele><time>2026-04-15T11:06:30Z</time></trkpt><trkpt lat="29.732215205118205" lon="-8.488308687182121"><ele>966.0</ele><time>2026-04-15T11:06:31Z</time></trkpt><trkpt lat="29.732087815029185" lon="-8.488168795301801"><ele>966.0</ele><time>2026-04-15T11:06:32Z</time></trkpt><trkpt lat="29.731954905444184" lon="-8.488029069571352"><ele>966.0</ele><time>2026-04-15T11:06:33Z</time></trkpt><trkpt lat="29.731821516117222" lon="-8.487887499757402"><ele>966.0</ele><time>2026-04-15T11:06:34Z</time></trkpt><trkpt lat="29.731690393961383" lon="-8.48774238897208"><ele>966.0</ele><time>2026-04-15T11:06:35Z</time></trkpt><trkpt lat="29.731568968654752" lon="-8.4875828001465"><ele>966.0</ele><time>2026-04-15T11:06:36Z</time></trkpt><trkpt lat="29.731436319690513" lon="-8.487439693726744"><ele>966.0</ele><time>2026-04-15T11:06:37Z</time></trkpt><trkpt lat="29.731300946243742" lon="-8.487291291356906"><ele>966.0</ele><time>2026-04-15T11:06:38Z</time></trkpt><trkpt lat="29.731162565377065" lon="-8.487145055640767"><ele>966.0</ele><time>2026-04-15T11:06:39Z</time></trkpt><trkpt lat="29.731018740056864" lon="-8.486994367515196"><ele>966.6666666666667</ele><time>2026-04-15T11:06:40Z</time></trkpt><trkpt lat="29.73088182275598" lon="-8.486842770587113"><ele>967.3333333333334</ele><time>2026-04-15T11:06:41Z</time></trkpt><trkpt lat="29.730746587858576" lon="-8.486690111559742"><ele>968.0</ele><time>2026-04-15T11:06:42Z</time></trkpt><trkpt lat="29.730607764586686" lon="-8.486537902127894"><ele>968.0</ele><time>2026-04-15T11:06:43Z</time></trkpt><trkpt lat="29.730465707026607" lon="-8.486392990949259"><ele>968.0</ele><time>2026-04-15T11:06:44Z</time></trkpt><trkpt lat="29.730329994271354" lon="-8.4862510030697"><ele>968.0</ele><time>2026-04-15T11:06:45Z</time></trkpt><trkpt lat="29.730201274535926" lon="-8.48611035764675"><ele>968.6666666666667</ele><time>2026-04-15T11:06:46Z</time></trkpt><trkpt lat="29.730075458542476" lon="-8.485977505172164"><ele>969.3333333333333</ele><time>2026-04-15T11:06:47Z</time></trkpt><trkpt lat="29.729950522507504" lon="-8.48584112254158"><ele>970.0</ele><time>2026-04-15T11:06:48Z</time></trkpt><trkpt lat="29.729826342876976" lon="-8.485706923143587"><ele>970.0</ele><time>2026-04-15T11:06:49Z</time></trkpt><trkpt lat="29.729707001351223" lon="-8.485568412346575"><ele>970.0</ele><time>2026-04-15T11:06:50Z</time></trkpt><trkpt lat="29.729589963977123" lon="-8.485426609583095"><ele>970.0</ele><time>2026-04-15T11:06:51Z</time></trkpt><trkpt lat="29.729472810995816" lon="-8.485275909460487"><ele>971.6666666666666</ele><time>2026-04-15T11:06:52Z</time></trkpt><trkpt lat="29.72936492317524" lon="-8.485135073670978"><ele>973.3333333333333</ele><time>2026-04-15T11:06:53Z</time></trkpt><trkpt lat="29.729258985395134" lon="-8.48496897796303"><ele>975.0</ele><time>2026-04-15T11:06:54Z</time></trkpt><trkpt lat="29.729164076256914" lon="-8.484826347155817"><ele>975.0</ele><time>2026-04-15T11:06:55Z</time></trkpt><trkpt lat="29.729078888192763" lon="-8.484686659486288"><ele>975.0</ele><time>2026-04-15T11:06:56Z</time></trkpt><trkpt lat="29.72900780826606" lon="-8.484533802088718"><ele>975.0</ele><time>2026-04-15T11:06:57Z</time></trkpt><trkpt lat="29.7289562352723" lon="-8.484371709813166"><ele>975.0</ele><time>2026-04-15T11:06:58Z</time></trkpt><trkpt lat="29.72892836000243" lon="-8.484199333350533"><ele>972.0</ele><time>2026-04-15T11:06:59Z</time></trkpt><trkpt lat="29.72891739621196" lon="-8.484018338514044"><ele>969.0</ele><time>2026-04-15T11:07:00Z</time></trkpt><trkpt lat="29.728918003318565" lon="-8.483827171978737"><ele>966.0</ele><time>2026-04-15T11:07:01Z</time></trkpt><trkpt lat="29.72889565226409" lon="-8.483642125315093"><ele>965.3333333333333</ele><time>2026-04-15T11:07:02Z</time></trkpt><trkpt lat="29.7288895118943" lon="-8.483468961036325"><ele>964.6666666666666</ele><time>2026-04-15T11:07:03Z</time></trkpt><trkpt lat="29.728883214566313" lon="-8.483293422980328"><ele>964.0</ele><time>2026-04-15T11:07:04Z</time></trkpt><trkpt lat="29.728894250919403" lon="-8.483123382239256"><ele>964.0</ele><time>2026-04-15T11:07:05Z</time></trkpt><trkpt lat="29.728894182321735" lon="-8.482944601174022"><ele>964.0</ele><time>2026-04-15T11:07:06Z</time></trkpt><trkpt lat="29.728891465663786" lon="-8.482761433155689"><ele>964.0</ele><time>2026-04-15T11:07:07Z</time></trkpt><trkpt lat="29.72890865030396" lon="-8.482579344747275"><ele>964.3333333333333</ele><time>2026-04-15T11:07:08Z</time></trkpt><trkpt lat="29.72892739205256" lon="-8.482393937536509"><ele>964.6666666666667</ele><time>2026-04-15T11:07:09Z</time></trkpt><trkpt lat="29.728947647075096" lon="-8.482207462869578"><ele>965.0</ele><time>2026-04-15T11:07:10Z</time></trkpt><trkpt lat="29.72897011577302" lon="-8.48201672379056"><ele>967.6666666666667</ele><time>2026-04-15T11:07:11Z</time></trkpt><trkpt lat="29.72899344087009" lon="-8.481838034567808"><ele>970.3333333333333</ele><time>2026-04-15T11:07:12Z</time></trkpt><trkpt lat="29.72901881055857" lon="-8.481666012487562"><ele>973.0</ele><time>2026-04-15T11:07:13Z</time></trkpt><trkpt lat="29.729057571556634" lon="-8.481493655787089"><ele>973.0</ele><time>2026-04-15T11:07:14Z</time></trkpt><trkpt lat="29.72911798507474" lon="-8.481325931589666"><ele>973.0</ele><time>2026-04-15T11:07:15Z</time></trkpt><trkpt lat="29.72918955906261" lon="-8.481167114780305"><ele>973.0</ele><time>2026-04-15T11:07:16Z</time></trkpt><trkpt lat="29.72927938868396" lon="-8.481019889816034"><ele>972.75</ele><time>2026-04-15T11:07:17Z</time></trkpt><trkpt lat="29.729350709905614" lon="-8.480868169649124"><ele>972.5</ele><time>2026-04-15T11:07:18Z</time></trkpt><trkpt lat="29.72939587913015" lon="-8.480711518465231"><ele>972.25</ele><time>2026-04-15T11:07:19Z</time></trkpt><trkpt lat="29.729445448375653" lon="-8.480562606114805"><ele>972.0</ele><time>2026-04-15T11:07:20Z</time></trkpt><trkpt lat="29.729491859084234" lon="-8.480391526283384"><ele>969.6666666666667</ele><time>2026-04-15T11:07:21Z</time></trkpt><trkpt lat="29.729517941384756" lon="-8.480214630006419"><ele>967.3333333333334</ele><time>2026-04-15T11:07:22Z</time></trkpt><trkpt lat="29.72953104333353" lon="-8.480023449001932"><ele>965.0</ele><time>2026-04-15T11:07:23Z</time></trkpt><trkpt lat="29.729518845178223" lon="-8.479823384878168"><ele>965.0</ele><time>2026-04-15T11:07:24Z</time></trkpt><trkpt lat="29.729504290873056" lon="-8.479620809456023"><ele>965.0</ele><time>2026-04-15T11:07:25Z</time></trkpt><trkpt lat="29.729492041049067" lon="-8.47941718457676"><ele>965.0</ele><time>2026-04-15T11:07:26Z</time></trkpt><trkpt lat="29.72948244370451" lon="-8.479224489012536"><ele>962.3333333333334</ele><time>2026-04-15T11:07:27Z</time></trkpt><trkpt lat="29.72947447158706" lon="-8.479032114570863"><ele>959.6666666666667</ele><time>2026-04-15T11:07:28Z</time></trkpt><trkpt lat="29.72946605631324" lon="-8.478844462620925"><ele>957.0</ele><time>2026-04-15T11:07:29Z</time></trkpt><trkpt lat="29.729457747697314" lon="-8.478660842209461"><ele>956.3333333333333</ele><time>2026-04-15T11:07:30Z</time></trkpt><trkpt lat="29.72946478480741" lon="-8.478477928373405"><ele>955.6666666666666</ele><time>2026-04-15T11:07:31Z</time></trkpt><trkpt lat="29.729434719783683" lon="-8.47831008011009"><ele>955.0</ele><time>2026-04-15T11:07:32Z</time></trkpt><trkpt lat="29.72942266810361" lon="-8.478144248973814"><ele>955.0</ele><time>2026-04-15T11:07:33Z</time></trkpt><trkpt lat="29.72941049149872" lon="-8.477976698904879"><ele>955.0</ele><time>2026-04-15T11:07:34Z</time></trkpt><trkpt lat="29.729397599873455" lon="-8.477800125285324"><ele>955.0</ele><time>2026-04-15T11:07:35Z</time></trkpt><trkpt lat="29.729383566609105" lon="-8.477610876714353"><ele>955.6666666666666</ele><time>2026-04-15T11:07:36Z</time></trkpt><trkpt lat="29.729371462016815" lon="-8.477414955526815"><ele>956.3333333333333</ele><time>2026-04-15T11:07:37Z</time></trkpt><trkpt lat="29.72935914243333" lon="-8.477207212182558"><ele>957.0</ele><time>2026-04-15T11:07:38Z</time></trkpt><trkpt lat="29.72934894061089" lon="-8.476992144648758"><ele>957.3333333333333</ele><time>2026-04-15T11:07:39Z</time></trkpt><trkpt lat="29.729338566625923" lon="-8.476772287429805"><ele>957.6666666666666</ele><time>2026-04-15T11:07:40Z</time></trkpt><trkpt lat="29.729329081610928" lon="-8.476546218856523"><ele>958.0</ele><time>2026-04-15T11:07:41Z</time></trkpt><trkpt lat="29.729318164595277" lon="-8.476316184375147"><ele>956.6666666666666</ele><time>2026-04-15T11:07:42Z</time></trkpt><trkpt lat="29.72930232111435" lon="-8.476088816489106"><ele>955.3333333333333</ele><time>2026-04-15T11:07:43Z</time></trkpt><trkpt lat="29.729286392044155" lon="-8.475859437886513"><ele>954.0</ele><time>2026-04-15T11:07:44Z</time></trkpt><trkpt lat="29.729273225658705" lon="-8.47562699049918"><ele>955.0</ele><time>2026-04-15T11:07:45Z</time></trkpt><trkpt lat="29.729263836667428" lon="-8.475397748984381"><ele>956.0</ele><time>2026-04-15T11:07:46Z</time></trkpt><trkpt lat="29.729253716877995" lon="-8.475173384474841"><ele>957.0</ele><time>2026-04-15T11:07:47Z</time></trkpt><trkpt lat="29.72924015336442" lon="-8.474957042733912"><ele>957.0</ele><time>2026-04-15T11:07:48Z</time></trkpt><trkpt lat="29.72922704853239" lon="-8.47473681776307"><ele>957.0</ele><time>2026-04-15T11:07:49Z</time></trkpt><trkpt lat="29.72921987587278" lon="-8.474516568023706"><ele>957.0</ele><time>2026-04-15T11:07:50Z</time></trkpt><trkpt lat="29.729209337907196" lon="-8.474298705831401"><ele>956.6666666666667</ele><time>2026-04-15T11:07:51Z</time></trkpt><trkpt lat="29.729195872904018" lon="-8.474085089239399"><ele>956.3333333333334</ele><time>2026-04-15T11:07:52Z</time></trkpt><trkpt lat="29.72916625461186" lon="-8.473868012491058"><ele>956.0</ele><time>2026-04-15T11:07:53Z</time></trkpt><trkpt lat="29.729125529447185" lon="-8.473660464837861"><ele>956.0</ele><time>2026-04-15T11:07:54Z</time></trkpt><trkpt lat="29.729060575294" lon="-8.47347439607003"><ele>956.0</ele><time>2026-04-15T11:07:55Z</time></trkpt><trkpt lat="29.72898160229636" lon="-8.473295418006762"><ele>956.0</ele><time>2026-04-15T11:07:56Z</time></trkpt><trkpt lat="29.728878302246134" lon="-8.473124765873315"><ele>956.0</ele><time>2026-04-15T11:07:57Z</time></trkpt><trkpt lat="29.72877031012339" lon="-8.472950305955898"><ele>956.0</ele><time>2026-04-15T11:07:58Z</time></trkpt><trkpt lat="29.728662348448406" lon="-8.472775859085012"><ele>956.0</ele><time>2026-04-15T11:07:59Z</time></trkpt><trkpt lat="29.728552593792482" lon="-8.47260883177318"><ele>957.3333333333334</ele><time>2026-04-15T11:08:00Z</time></trkpt><trkpt lat="29.72844236783345" lon="-8.472444756100215"><ele>958.6666666666667</ele><time>2026-04-15T11:08:01Z</time></trkpt><trkpt lat="29.728337218905825" lon="-8.472288706105362"><ele>960.0</ele><time>2026-04-15T11:08:02Z</time></trkpt><trkpt lat="29.728234485660973" lon="-8.47213712199057"><ele>960.6666666666667</ele><time>2026-04-15T11:08:03Z</time></trkpt><trkpt lat="29.728135687912353" lon="-8.471988570279366"><ele>961.3333333333334</ele><time>2026-04-15T11:08:04Z</time></trkpt><trkpt lat="29.728038340343844" lon="-8.471836556138333"><ele>962.0</ele><time>2026-04-15T11:08:05Z</time></trkpt><trkpt lat="29.727939258936082" lon="-8.471682652478215"><ele>962.0</ele><time>2026-04-15T11:08:06Z</time></trkpt><trkpt lat="29.727841908595465" lon="-8.471528054576082"><ele>962.0</ele><time>2026-04-15T11:08:07Z</time></trkpt><trkpt lat="29.727758511340998" lon="-8.471367202242988"><ele>962.0</ele><time>2026-04-15T11:08:08Z</time></trkpt><trkpt lat="29.727665368987495" lon="-8.471220005165904"><ele>959.6666666666667</ele><time>2026-04-15T11:08:09Z</time></trkpt><trkpt lat="29.727576075766425" lon="-8.471064348976803"><ele>957.3333333333333</ele><time>2026-04-15T11:08:10Z</time></trkpt><trkpt lat="29.727499773406556" lon="-8.470900298057376"><ele>955.0</ele><time>2026-04-15T11:08:11Z</time></trkpt><trkpt lat="29.727416985124545" lon="-8.470733531284548"><ele>955.0</ele><time>2026-04-15T11:08:12Z</time></trkpt><trkpt lat="29.727377839726515" lon="-8.470544918237618"><ele>955.0</ele><time>2026-04-15T11:08:13Z</time></trkpt><trkpt lat="29.72734689304871" lon="-8.470361486731095"><ele>955.0</ele><time>2026-04-15T11:08:14Z</time></trkpt><trkpt lat="29.72733033890317" lon="-8.470165985770675"><ele>955.0</ele><time>2026-04-15T11:08:15Z</time></trkpt><trkpt lat="29.727329936916565" lon="-8.46995908154542"><ele>955.0</ele><time>2026-04-15T11:08:16Z</time></trkpt><trkpt lat="29.72733744474177" lon="-8.469742986746475"><ele>955.0</ele><time>2026-04-15T11:08:17Z</time></trkpt><trkpt lat="29.72732872300681" lon="-8.469522335732256"><ele>953.3333333333333</ele><time>2026-04-15T11:08:18Z</time></trkpt><trkpt lat="29.727343970535035" lon="-8.469305168443924"><ele>951.6666666666667</ele><time>2026-04-15T11:08:19Z</time></trkpt><trkpt lat="29.727359330233124" lon="-8.469092967275703"><ele>950.0</ele><time>2026-04-15T11:08:20Z</time></trkpt><trkpt lat="29.72737533707341" lon="-8.468883587656965"><ele>948.6666666666667</ele><time>2026-04-15T11:08:21Z</time></trkpt><trkpt lat="29.72738934049674" lon="-8.468682013580906"><ele>947.3333333333333</ele><time>2026-04-15T11:08:22Z</time></trkpt><trkpt lat="29.72740325423618" lon="-8.468479750574657"><ele>946.0</ele><time>2026-04-15T11:08:23Z</time></trkpt><trkpt lat="29.727417121526784" lon="-8.468278162792123"><ele>946.0</ele><time>2026-04-15T11:08:24Z</time></trkpt><trkpt lat="29.727431516539696" lon="-8.468072544813698"><ele>946.0</ele><time>2026-04-15T11:08:25Z</time></trkpt><trkpt lat="29.72744501371403" lon="-8.467870791367426"><ele>946.0</ele><time>2026-04-15T11:08:26Z</time></trkpt><trkpt lat="29.727459039463454" lon="-8.467669327713546"><ele>945.3333333333333</ele><time>2026-04-15T11:08:27Z</time></trkpt><trkpt lat="29.72747264792802" lon="-8.46747385781877"><ele>944.6666666666667</ele><time>2026-04-15T11:08:28Z</time></trkpt><trkpt lat="29.72748648042914" lon="-8.467275169905564"><ele>944.0</ele><time>2026-04-15T11:08:29Z</time></trkpt><trkpt lat="29.72750023386087" lon="-8.467077617762163"><ele>944.0</ele><time>2026-04-15T11:08:30Z</time></trkpt><trkpt lat="29.727514153425613" lon="-8.466877679310102"><ele>944.0</ele><time>2026-04-15T11:08:31Z</time></trkpt><trkpt lat="29.7275283435448" lon="-8.466673854641869"><ele>944.0</ele><time>2026-04-15T11:08:32Z</time></trkpt><trkpt lat="29.72753841393259" lon="-8.46647162140285"><ele>944.3333333333334</ele><time>2026-04-15T11:08:33Z</time></trkpt><trkpt lat="29.727543481847505" lon="-8.466262655193082"><ele>944.6666666666667</ele><time>2026-04-15T11:08:34Z</time></trkpt><trkpt lat="29.727543323537827" lon="-8.4660541087594"><ele>945.0</ele><time>2026-04-15T11:08:35Z</time></trkpt><trkpt lat="29.72753753275817" lon="-8.465846094552868"><ele>945.0</ele><time>2026-04-15T11:08:36Z</time></trkpt><trkpt lat="29.727525631315633" lon="-8.465635519363563"><ele>945.0</ele><time>2026-04-15T11:08:37Z</time></trkpt><trkpt lat="29.727499321728537" lon="-8.46542675019266"><ele>945.0</ele><time>2026-04-15T11:08:38Z</time></trkpt><trkpt lat="29.727471027934595" lon="-8.465215080354449"><ele>945.0</ele><time>2026-04-15T11:08:39Z</time></trkpt><trkpt lat="29.727433770365906" lon="-8.465011122390859"><ele>945.0</ele><time>2026-04-15T11:08:40Z</time></trkpt><trkpt lat="29.72738321698244" lon="-8.464813258169624"><ele>945.0</ele><time>2026-04-15T11:08:41Z</time></trkpt><trkpt lat="29.72733221507458" lon="-8.464611848837675"><ele>945.0</ele><time>2026-04-15T11:08:42Z</time></trkpt><trkpt lat="29.72728140464263" lon="-8.464411501746179"><ele>945.0</ele><time>2026-04-15T11:08:43Z</time></trkpt><trkpt lat="29.72722997762498" lon="-8.464208723432163"><ele>945.0</ele><time>2026-04-15T11:08:44Z</time></trkpt><trkpt lat="29.727179058283394" lon="-8.464007946890762"><ele>945.0</ele><time>2026-04-15T11:08:45Z</time></trkpt><trkpt lat="29.727127830012908" lon="-8.463805952246915"><ele>945.0</ele><time>2026-04-15T11:08:46Z</time></trkpt><trkpt lat="29.72707727370515" lon="-8.463606607164762"><ele>945.0</ele><time>2026-04-15T11:08:47Z</time></trkpt><trkpt lat="29.727028664292526" lon="-8.463412997852569"><ele>944.3333333333333</ele><time>2026-04-15T11:08:48Z</time></trkpt><trkpt lat="29.72698208163226" lon="-8.463229586242063"><ele>943.6666666666666</ele><time>2026-04-15T11:08:49Z</time></trkpt><trkpt lat="29.726938558578656" lon="-8.463058566241664"><ele>943.0</ele><time>2026-04-15T11:08:50Z</time></trkpt><trkpt lat="29.72689421646868" lon="-8.462883954207935"><ele>943.0</ele><time>2026-04-15T11:08:51Z</time></trkpt><trkpt lat="29.726849424395642" lon="-8.46270951545212"><ele>943.0</ele><time>2026-04-15T11:08:52Z</time></trkpt><trkpt lat="29.726804005603825" lon="-8.462533092461657"><ele>943.0</ele><time>2026-04-15T11:08:53Z</time></trkpt><trkpt lat="29.726759577441214" lon="-8.462359972965496"><ele>943.0</ele><time>2026-04-15T11:08:54Z</time></trkpt><trkpt lat="29.726714395273397" lon="-8.462185046209841"><ele>943.0</ele><time>2026-04-15T11:08:55Z</time></trkpt><trkpt lat="29.726668783661786" lon="-8.462009581588992"><ele>943.0</ele><time>2026-04-15T11:08:56Z</time></trkpt><trkpt lat="29.726622574921233" lon="-8.461828508187507"><ele>943.0</ele><time>2026-04-15T11:08:57Z</time></trkpt><trkpt lat="29.726578769914212" lon="-8.461642996668875"><ele>943.0</ele><time>2026-04-15T11:08:58Z</time></trkpt><trkpt lat="29.726541756894466" lon="-8.461448740602044"><ele>943.0</ele><time>2026-04-15T11:08:59Z</time></trkpt><trkpt lat="29.726519323960908" lon="-8.461252825005964"><ele>943.3333333333333</ele><time>2026-04-15T11:09:00Z</time></trkpt><trkpt lat="29.726502255395587" lon="-8.46105466966553"><ele>943.6666666666667</ele><time>2026-04-15T11:09:01Z</time></trkpt><trkpt lat="29.72649545170467" lon="-8.460851858858124"><ele>944.0</ele><time>2026-04-15T11:09:02Z</time></trkpt><trkpt lat="29.726516697617054" lon="-8.460644829232798"><ele>944.3333333333334</ele><time>2026-04-15T11:09:03Z</time></trkpt><trkpt lat="29.72652991911428" lon="-8.460431498930731"><ele>944.6666666666667</ele><time>2026-04-15T11:09:04Z</time></trkpt><trkpt lat="29.726553310146812" lon="-8.460221010100634"><ele>945.0</ele><time>2026-04-15T11:09:05Z</time></trkpt><trkpt lat="29.72656466633858" lon="-8.460015921199577"><ele>945.0</ele><time>2026-04-15T11:09:06Z</time></trkpt><trkpt lat="29.726585933365712" lon="-8.459826661355027"><ele>945.0</ele><time>2026-04-15T11:09:07Z</time></trkpt><trkpt lat="29.726607146701248" lon="-8.459644423550296"><ele>945.0</ele><time>2026-04-15T11:09:08Z</time></trkpt><trkpt lat="29.726627344555858" lon="-8.459471157631857"><ele>944.3333333333333</ele><time>2026-04-15T11:09:09Z</time></trkpt><trkpt lat="29.72664972235095" lon="-8.459297215430244"><ele>943.6666666666666</ele><time>2026-04-15T11:09:10Z</time></trkpt><trkpt lat="29.72667462882382" lon="-8.459115858051032"><ele>943.0</ele><time>2026-04-15T11:09:11Z</time></trkpt><trkpt lat="29.726696246657234" lon="-8.458939499100898"><ele>939.6666666666666</ele><time>2026-04-15T11:09:12Z</time></trkpt><trkpt lat="29.726715444901345" lon="-8.458764794291106"><ele>936.3333333333333</ele><time>2026-04-15T11:09:13Z</time></trkpt><trkpt lat="29.72672089752071" lon="-8.458590220215848"><ele>933.0</ele><time>2026-04-15T11:09:14Z</time></trkpt><trkpt lat="29.726715522121268" lon="-8.458403929214535"><ele>933.0</ele><time>2026-04-15T11:09:15Z</time></trkpt><trkpt lat="29.7267036696146" lon="-8.458210426605401"><ele>933.0</ele><time>2026-04-15T11:09:16Z</time></trkpt><trkpt lat="29.72666061427422" lon="-8.45804430168864"><ele>933.0</ele><time>2026-04-15T11:09:17Z</time></trkpt><trkpt lat="29.726623474166615" lon="-8.457882511124078"><ele>932.75</ele><time>2026-04-15T11:09:18Z</time></trkpt><trkpt lat="29.72655114307871" lon="-8.457746503893874"><ele>932.5</ele><time>2026-04-15T11:09:19Z</time></trkpt><trkpt lat="29.72647413735924" lon="-8.457601680944068"><ele>932.25</ele><time>2026-04-15T11:09:20Z</time></trkpt><trkpt lat="29.726387613376524" lon="-8.457450484383543"><ele>932.0</ele><time>2026-04-15T11:09:21Z</time></trkpt><trkpt lat="29.72629392633459" lon="-8.457306594970044"><ele>932.0</ele><time>2026-04-15T11:09:22Z</time></trkpt><trkpt lat="29.726189298556115" lon="-8.457167379584813"><ele>932.0</ele><time>2026-04-15T11:09:23Z</time></trkpt><trkpt lat="29.72608363848644" lon="-8.457025792481865"><ele>932.0</ele><time>2026-04-15T11:09:24Z</time></trkpt><trkpt lat="29.72597391765206" lon="-8.456878763854144"><ele>932.3333333333334</ele><time>2026-04-15T11:09:25Z</time></trkpt><trkpt lat="29.725859607033627" lon="-8.456725584801903"><ele>932.6666666666667</ele><time>2026-04-15T11:09:26Z</time></trkpt><trkpt lat="29.725748170965385" lon="-8.45657625772023"><ele>933.0</ele><time>2026-04-15T11:09:27Z</time></trkpt><trkpt lat="29.72563773327432" lon="-8.456428268480822"><ele>937.3333333333333</ele><time>2026-04-15T11:09:28Z</time></trkpt><trkpt lat="29.72553987545916" lon="-8.45626385675664"><ele>941.6666666666666</ele><time>2026-04-15T11:09:29Z</time></trkpt><trkpt lat="29.725414519632253" lon="-8.45612611936768"><ele>946.0</ele><time>2026-04-15T11:09:30Z</time></trkpt><trkpt lat="29.72529573748108" lon="-8.4559721424779"><ele>942.6666666666666</ele><time>2026-04-15T11:09:31Z</time></trkpt><trkpt lat="29.72517800833787" lon="-8.455818942428968"><ele>939.3333333333333</ele><time>2026-04-15T11:09:32Z</time></trkpt><trkpt lat="29.72505790971872" lon="-8.455670415082098"><ele>936.0</ele><time>2026-04-15T11:09:33Z</time></trkpt><trkpt lat="29.724936918281973" lon="-8.45552687083507"><ele>940.3333333333333</ele><time>2026-04-15T11:09:34Z</time></trkpt><trkpt lat="29.724789708588553" lon="-8.4554111512564"><ele>944.6666666666666</ele><time>2026-04-15T11:09:35Z</time></trkpt><trkpt lat="29.724639077989522" lon="-8.455308199482069"><ele>949.0</ele><time>2026-04-15T11:09:36Z</time></trkpt><trkpt lat="29.724480802816434" lon="-8.455218966511076"><ele>945.3333333333333</ele><time>2026-04-15T11:09:37Z</time></trkpt><trkpt lat="29.724311089369994" lon="-8.455154233722245"><ele>941.6666666666667</ele><time>2026-04-15T11:09:38Z</time></trkpt><trkpt lat="29.724125795324966" lon="-8.455127770127184"><ele>938.0</ele><time>2026-04-15T11:09:39Z</time></trkpt><trkpt lat="29.723947277337302" lon="-8.455103062845259"><ele>938.0</ele><time>2026-04-15T11:09:40Z</time></trkpt><trkpt lat="29.723782705670864" lon="-8.455084788126506"><ele>938.0</ele><time>2026-04-15T11:09:41Z</time></trkpt><trkpt lat="29.723615960782134" lon="-8.455076426044016"><ele>938.0</ele><time>2026-04-15T11:09:42Z</time></trkpt><trkpt lat="29.723447077859515" lon="-8.455067191385023"><ele>936.3333333333334</ele><time>2026-04-15T11:09:43Z</time></trkpt><trkpt lat="29.723273821605794" lon="-8.455054083613609"><ele>934.6666666666667</ele><time>2026-04-15T11:09:44Z</time></trkpt><trkpt lat="29.72309605705065" lon="-8.4550353946258"><ele>933.0</ele><time>2026-04-15T11:09:45Z</time></trkpt><trkpt lat="29.72290886219394" lon="-8.455015714195174"><ele>933.6666666666667</ele><time>2026-04-15T11:09:46Z</time></trkpt><trkpt lat="29.722718132417274" lon="-8.454995861348188"><ele>934.3333333333334</ele><time>2026-04-15T11:09:47Z</time></trkpt><trkpt lat="29.722527461415524" lon="-8.454975946586599"><ele>935.0</ele><time>2026-04-15T11:09:48Z</time></trkpt><trkpt lat="29.72233893972494" lon="-8.454956801023277"><ele>935.0</ele><time>2026-04-15T11:09:49Z</time></trkpt><trkpt lat="29.72215018884371" lon="-8.454939096704226"><ele>935.0</ele><time>2026-04-15T11:09:50Z</time></trkpt><trkpt lat="29.72196302560422" lon="-8.454921541303943"><ele>935.0</ele><time>2026-04-15T11:09:51Z</time></trkpt><trkpt lat="29.72177640387872" lon="-8.45490414182751"><ele>934.6666666666667</ele><time>2026-04-15T11:09:52Z</time></trkpt><trkpt lat="29.721592665342538" lon="-8.454868105944344"><ele>934.3333333333333</ele><time>2026-04-15T11:09:53Z</time></trkpt><trkpt lat="29.721410044138437" lon="-8.454850247618426"><ele>934.0</ele><time>2026-04-15T11:09:54Z</time></trkpt><trkpt lat="29.721228761757292" lon="-8.454829894738486"><ele>934.6666666666666</ele><time>2026-04-15T11:09:55Z</time></trkpt><trkpt lat="29.721041376061347" lon="-8.454812055265375"><ele>935.3333333333333</ele><time>2026-04-15T11:09:56Z</time></trkpt><trkpt lat="29.720851755462093" lon="-8.454793628453828"><ele>936.0</ele><time>2026-04-15T11:09:57Z</time></trkpt><trkpt lat="29.720660527895806" lon="-8.454776436794711"><ele>936.0</ele><time>2026-04-15T11:09:58Z</time></trkpt><trkpt lat="29.72047064110768" lon="-8.454761334103603"><ele>936.0</ele><time>2026-04-15T11:09:59Z</time></trkpt><trkpt lat="29.720288372070982" lon="-8.454742489790505"><ele>936.0</ele><time>2026-04-15T11:10:00Z</time></trkpt><trkpt lat="29.720107698307096" lon="-8.454724917830914"><ele>935.6666666666667</ele><time>2026-04-15T11:10:01Z</time></trkpt><trkpt lat="29.719930521299254" lon="-8.454710088877324"><ele>935.3333333333334</ele><time>2026-04-15T11:10:02Z</time></trkpt><trkpt lat="29.71975226454779" lon="-8.454695559609554"><ele>935.0</ele><time>2026-04-15T11:10:03Z</time></trkpt><trkpt lat="29.719576333217063" lon="-8.454679046337429"><ele>935.0</ele><time>2026-04-15T11:10:04Z</time></trkpt><trkpt lat="29.71940177291752" lon="-8.45465810385283"><ele>935.0</ele><time>2026-04-15T11:10:05Z</time></trkpt><trkpt lat="29.719223472605787" lon="-8.454661414224267"><ele>935.0</ele><time>2026-04-15T11:10:06Z</time></trkpt><trkpt lat="29.719047317434583" lon="-8.454645755705908"><ele>934.6666666666667</ele><time>2026-04-15T11:10:07Z</time></trkpt><trkpt lat="29.71886946285289" lon="-8.454629611982556"><ele>934.3333333333333</ele><time>2026-04-15T11:10:08Z</time></trkpt><trkpt lat="29.718697154506565" lon="-8.454613971689074"><ele>934.0</ele><time>2026-04-15T11:10:09Z</time></trkpt><trkpt lat="29.718521095951616" lon="-8.454597990071425"><ele>933.6666666666666</ele><time>2026-04-15T11:10:10Z</time></trkpt><trkpt lat="29.718341305365186" lon="-8.454581436751846"><ele>933.3333333333333</ele><time>2026-04-15T11:10:11Z</time></trkpt><trkpt lat="29.71816952081314" lon="-8.45454847777443"><ele>933.0</ele><time>2026-04-15T11:10:12Z</time></trkpt><trkpt lat="29.717997525427414" lon="-8.4545555840943"><ele>933.0</ele><time>2026-04-15T11:10:13Z</time></trkpt><trkpt lat="29.71782508371749" lon="-8.454542561994302"><ele>933.0</ele><time>2026-04-15T11:10:14Z</time></trkpt><trkpt lat="29.71764601931933" lon="-8.454530157215814"><ele>933.0</ele><time>2026-04-15T11:10:15Z</time></trkpt><trkpt lat="29.717464945649766" lon="-8.45451724185305"><ele>931.6666666666667</ele><time>2026-04-15T11:10:16Z</time></trkpt><trkpt lat="29.717279128894702" lon="-8.454502243447973"><ele>930.3333333333334</ele><time>2026-04-15T11:10:17Z</time></trkpt><trkpt lat="29.717095762393267" lon="-8.454480140623371"><ele>929.0</ele><time>2026-04-15T11:10:18Z</time></trkpt><trkpt lat="29.716910038172614" lon="-8.454457753596422"><ele>928.6666666666667</ele><time>2026-04-15T11:10:19Z</time></trkpt><trkpt lat="29.716727806193134" lon="-8.4544254759943"><ele>928.3333333333333</ele><time>2026-04-15T11:10:20Z</time></trkpt><trkpt lat="29.716540708046114" lon="-8.45437844848544"><ele>928.0</ele><time>2026-04-15T11:10:21Z</time></trkpt><trkpt lat="29.716355847873064" lon="-8.454310479192705"><ele>928.0</ele><time>2026-04-15T11:10:22Z</time></trkpt><trkpt lat="29.716170429606635" lon="-8.454221203739824"><ele>928.0</ele><time>2026-04-15T11:10:23Z</time></trkpt><trkpt lat="29.71598575138535" lon="-8.45412177252001"><ele>928.0</ele><time>2026-04-15T11:10:24Z</time></trkpt><trkpt lat="29.715801933166837" lon="-8.454013776381395"><ele>927.6666666666666</ele><time>2026-04-15T11:10:25Z</time></trkpt><trkpt lat="29.715627376622376" lon="-8.453892144668755"><ele>927.3333333333333</ele><time>2026-04-15T11:10:26Z</time></trkpt><trkpt lat="29.715457306801127" lon="-8.453772835261189"><ele>927.0</ele><time>2026-04-15T11:10:27Z</time></trkpt><trkpt lat="29.715289377023797" lon="-8.453655027144897"><ele>927.6666666666667</ele><time>2026-04-15T11:10:28Z</time></trkpt><trkpt lat="29.715119987734415" lon="-8.453536364179982"><ele>928.3333333333334</ele><time>2026-04-15T11:10:29Z</time></trkpt><trkpt lat="29.71496253340699" lon="-8.453404657025262"><ele>929.0</ele><time>2026-04-15T11:10:30Z</time></trkpt><trkpt lat="29.7148059594263" lon="-8.453294525125147"><ele>929.0</ele><time>2026-04-15T11:10:31Z</time></trkpt><trkpt lat="29.714649496758323" lon="-8.453207234485427"><ele>929.0</ele><time>2026-04-15T11:10:32Z</time></trkpt><trkpt lat="29.714499453052756" lon="-8.453102178997574"><ele>929.0</ele><time>2026-04-15T11:10:33Z</time></trkpt><trkpt lat="29.714350131281503" lon="-8.452997218772106"><ele>928.6666666666667</ele><time>2026-04-15T11:10:34Z</time></trkpt><trkpt lat="29.714205487919898" lon="-8.452895906243313"><ele>928.3333333333333</ele><time>2026-04-15T11:10:35Z</time></trkpt><trkpt lat="29.71407003143998" lon="-8.452801362917373"><ele>928.0</ele><time>2026-04-15T11:10:36Z</time></trkpt><trkpt lat="29.713931898593074" lon="-8.452704693188922"><ele>928.0</ele><time>2026-04-15T11:10:37Z</time></trkpt><trkpt lat="29.71378975946209" lon="-8.452605288792633"><ele>928.0</ele><time>2026-04-15T11:10:38Z</time></trkpt><trkpt lat="29.713656426560913" lon="-8.452497019485806"><ele>928.0</ele><time>2026-04-15T11:10:39Z</time></trkpt><trkpt lat="29.71351568347403" lon="-8.452424417666222"><ele>927.3333333333333</ele><time>2026-04-15T11:10:40Z</time></trkpt><trkpt lat="29.71337895236578" lon="-8.452351230259428"><ele>926.6666666666667</ele><time>2026-04-15T11:10:41Z</time></trkpt><trkpt lat="29.71323266932895" lon="-8.452291381744157"><ele>926.0</ele><time>2026-04-15T11:10:42Z</time></trkpt><trkpt lat="29.713076620362397" lon="-8.45224284503639"><ele>926.0</ele><time>2026-04-15T11:10:43Z</time></trkpt><trkpt lat="29.71290694759887" lon="-8.452199143612425"><ele>926.0</ele><time>2026-04-15T11:10:44Z</time></trkpt><trkpt lat="29.71273609543469" lon="-8.452148078085857"><ele>926.0</ele><time>2026-04-15T11:10:45Z</time></trkpt><trkpt lat="29.71256033776588" lon="-8.45209606395472"><ele>925.0</ele><time>2026-04-15T11:10:46Z</time></trkpt><trkpt lat="29.712376802519945" lon="-8.452041781784116"><ele>924.0</ele><time>2026-04-15T11:10:47Z</time></trkpt><trkpt lat="29.712187403534372" lon="-8.45198576530647"><ele>923.0</ele><time>2026-04-15T11:10:48Z</time></trkpt><trkpt lat="29.711996951360966" lon="-8.451929437274591"><ele>923.0</ele><time>2026-04-15T11:10:49Z</time></trkpt><trkpt lat="29.71180569789197" lon="-8.451872872350107"><ele>923.0</ele><time>2026-04-15T11:10:50Z</time></trkpt><trkpt lat="29.71162085525536" lon="-8.451818203440434"><ele>923.0</ele><time>2026-04-15T11:10:51Z</time></trkpt><trkpt lat="29.711443142195147" lon="-8.45176668252179"><ele>923.0</ele><time>2026-04-15T11:10:52Z</time></trkpt><trkpt lat="29.711266301918457" lon="-8.451714839843405"><ele>923.0</ele><time>2026-04-15T11:10:53Z</time></trkpt><trkpt lat="29.711090152935125" lon="-8.4516640479775"><ele>923.0</ele><time>2026-04-15T11:10:54Z</time></trkpt><trkpt lat="29.710917699786716" lon="-8.451614321837802"><ele>923.6666666666667</ele><time>2026-04-15T11:10:55Z</time></trkpt><trkpt lat="29.710748991741912" lon="-8.451565675594987"><ele>924.3333333333333</ele><time>2026-04-15T11:10:56Z</time></trkpt><trkpt lat="29.7105826427408" lon="-8.451517716684371"><ele>925.0</ele><time>2026-04-15T11:10:57Z</time></trkpt><trkpt lat="29.710420986664182" lon="-8.451451601830813"><ele>925.0</ele><time>2026-04-15T11:10:58Z</time></trkpt><trkpt lat="29.71026019762972" lon="-8.451409548562417"><ele>925.0</ele><time>2026-04-15T11:10:59Z</time></trkpt><trkpt lat="29.71011166116899" lon="-8.451365898182452"><ele>925.0</ele><time>2026-04-15T11:11:00Z</time></trkpt><trkpt lat="29.70997039946314" lon="-8.451343264546157"><ele>925.0</ele><time>2026-04-15T11:11:01Z</time></trkpt><trkpt lat="29.709834760434866" lon="-8.451307870439486"><ele>925.0</ele><time>2026-04-15T11:11:02Z</time></trkpt><trkpt lat="29.709697453545594" lon="-8.451272041104442"><ele>925.0</ele><time>2026-04-15T11:11:03Z</time></trkpt><trkpt lat="29.70956553759561" lon="-8.451239822628768"><ele>925.0</ele><time>2026-04-15T11:11:04Z</time></trkpt><trkpt lat="29.709439789810684" lon="-8.451215727784007"><ele>925.25</ele><time>2026-04-15T11:11:05Z</time></trkpt><trkpt lat="29.70931645475304" lon="-8.451194953598433"><ele>925.5</ele><time>2026-04-15T11:11:06Z</time></trkpt><trkpt lat="29.709186519545394" lon="-8.451233520923166"><ele>925.75</ele><time>2026-04-15T11:11:07Z</time></trkpt><trkpt lat="29.709056332319317" lon="-8.451264467528413"><ele>926.0</ele><time>2026-04-15T11:11:08Z</time></trkpt><trkpt lat="29.708933081767157" lon="-8.451311405061238"><ele>925.5</ele><time>2026-04-15T11:11:09Z</time></trkpt><trkpt lat="29.708814823303765" lon="-8.451387067609998"><ele>925.0</ele><time>2026-04-15T11:11:10Z</time></trkpt><trkpt lat="29.70870169476386" lon="-8.451475832874557"><ele>924.5</ele><time>2026-04-15T11:11:11Z</time></trkpt><trkpt lat="29.708590335614268" lon="-8.451579910103554"><ele>924.0</ele><time>2026-04-15T11:11:12Z</time></trkpt><trkpt lat="29.708497177198847" lon="-8.451706777104157"><ele>924.0</ele><time>2026-04-15T11:11:13Z</time></trkpt><trkpt lat="29.708395119414064" lon="-8.451846461117542"><ele>924.0</ele><time>2026-04-15T11:11:14Z</time></trkpt><trkpt lat="29.708291357531678" lon="-8.451988406966423"><ele>924.0</ele><time>2026-04-15T11:11:15Z</time></trkpt><trkpt lat="29.708191458834364" lon="-8.452124260747727"><ele>923.3333333333333</ele><time>2026-04-15T11:11:16Z</time></trkpt><trkpt lat="29.708092249093113" lon="-8.452259740347495"><ele>922.6666666666666</ele><time>2026-04-15T11:11:17Z</time></trkpt><trkpt lat="29.707990639829802" lon="-8.452398267673148"><ele>922.0</ele><time>2026-04-15T11:11:18Z</time></trkpt><trkpt lat="29.707876231798018" lon="-8.452534243673634"><ele>922.0</ele><time>2026-04-15T11:11:19Z</time></trkpt><trkpt lat="29.707764452788258" lon="-8.452685848859764"><ele>922.0</ele><time>2026-04-15T11:11:20Z</time></trkpt><trkpt lat="29.707651369807625" lon="-8.452838472155005"><ele>922.0</ele><time>2026-04-15T11:11:21Z</time></trkpt><trkpt lat="29.70753030913062" lon="-8.453000519798882"><ele>922.6666666666666</ele><time>2026-04-15T11:11:22Z</time></trkpt><trkpt lat="29.70741296659909" lon="-8.453163640792898"><ele>923.3333333333333</ele><time>2026-04-15T11:11:23Z</time></trkpt><trkpt lat="29.707299530519393" lon="-8.453323097992516"><ele>924.0</ele><time>2026-04-15T11:11:24Z</time></trkpt><trkpt lat="29.70719187154227" lon="-8.453468961821835"><ele>924.0</ele><time>2026-04-15T11:11:25Z</time></trkpt><trkpt lat="29.7070933275364" lon="-8.453612492586796"><ele>924.0</ele><time>2026-04-15T11:11:26Z</time></trkpt><trkpt lat="29.706987795826024" lon="-8.453746397248272"><ele>924.0</ele><time>2026-04-15T11:11:27Z</time></trkpt><trkpt lat="29.706868905840146" lon="-8.453848945691364"><ele>923.3333333333333</ele><time>2026-04-15T11:11:28Z</time></trkpt><trkpt lat="29.706745512672057" lon="-8.453940029924587"><ele>922.6666666666666</ele><time>2026-04-15T11:11:29Z</time></trkpt><trkpt lat="29.706604186502133" lon="-8.454017104030267"><ele>922.0</ele><time>2026-04-15T11:11:30Z</time></trkpt><trkpt lat="29.706445328891732" lon="-8.454081844255237"><ele>922.0</ele><time>2026-04-15T11:11:31Z</time></trkpt><trkpt lat="29.706265822162297" lon="-8.45414033739071"><ele>922.0</ele><time>2026-04-15T11:11:32Z</time></trkpt><trkpt lat="29.706085332369295" lon="-8.45418578675344"><ele>922.0</ele><time>2026-04-15T11:11:33Z</time></trkpt><trkpt lat="29.705903424235707" lon="-8.454231693220638"><ele>923.3333333333333</ele><time>2026-04-15T11:11:34Z</time></trkpt><trkpt lat="29.705721599266834" lon="-8.454279501173898"><ele>924.6666666666667</ele><time>2026-04-15T11:11:35Z</time></trkpt><trkpt lat="29.705543271353566" lon="-8.454335039698694"><ele>926.0</ele><time>2026-04-15T11:11:36Z</time></trkpt><trkpt lat="29.705369855985907" lon="-8.454394544427108"><ele>922.6666666666667</ele><time>2026-04-15T11:11:37Z</time></trkpt><trkpt lat="29.70519618085393" lon="-8.45446716646066"><ele>919.3333333333333</ele><time>2026-04-15T11:11:38Z</time></trkpt><trkpt lat="29.705020726934976" lon="-8.45455847737647"><ele>916.0</ele><time>2026-04-15T11:11:39Z</time></trkpt><trkpt lat="29.70484883259303" lon="-8.454673302876968"><ele>916.0</ele><time>2026-04-15T11:11:40Z</time></trkpt><trkpt lat="29.704677927957018" lon="-8.454802436908889"><ele>916.0</ele><time>2026-04-15T11:11:41Z</time></trkpt><trkpt lat="29.704502382592842" lon="-8.454938002097814"><ele>916.0</ele><time>2026-04-15T11:11:42Z</time></trkpt><trkpt lat="29.70435566818781" lon="-8.455078726662444"><ele>919.3333333333333</ele><time>2026-04-15T11:11:43Z</time></trkpt><trkpt lat="29.704209645856086" lon="-8.455208087240498"><ele>922.6666666666667</ele><time>2026-04-15T11:11:44Z</time></trkpt><trkpt lat="29.704062050929085" lon="-8.455331135771829"><ele>926.0</ele><time>2026-04-15T11:11:45Z</time></trkpt><trkpt lat="29.703918072896162" lon="-8.455451186381437"><ele>924.3333333333334</ele><time>2026-04-15T11:11:46Z</time></trkpt><trkpt lat="29.703773709775586" lon="-8.455578236941106"><ele>922.6666666666667</ele><time>2026-04-15T11:11:47Z</time></trkpt><trkpt lat="29.7036305723972" lon="-8.455705443860206"><ele>921.0</ele><time>2026-04-15T11:11:48Z</time></trkpt><trkpt lat="29.70348396869316" lon="-8.455838346636897"><ele>921.0</ele><time>2026-04-15T11:11:49Z</time></trkpt><trkpt lat="29.703342978868136" lon="-8.455975294543824"><ele>921.0</ele><time>2026-04-15T11:11:50Z</time></trkpt><trkpt lat="29.703204202583155" lon="-8.45611867151226"><ele>921.0</ele><time>2026-04-15T11:11:51Z</time></trkpt><trkpt lat="29.703068844457324" lon="-8.456262637946883"><ele>922.3333333333333</ele><time>2026-04-15T11:11:52Z</time></trkpt><trkpt lat="29.702944833031136" lon="-8.456402438490821"><ele>923.6666666666666</ele><time>2026-04-15T11:11:53Z</time></trkpt><trkpt lat="29.7028274032416" lon="-8.456541358919395"><ele>925.0</ele><time>2026-04-15T11:11:54Z</time></trkpt><trkpt lat="29.702709895176316" lon="-8.456678828461886"><ele>925.0</ele><time>2026-04-15T11:11:55Z</time></trkpt><trkpt lat="29.702594813839713" lon="-8.456817467358714"><ele>925.0</ele><time>2026-04-15T11:11:56Z</time></trkpt><trkpt lat="29.702485218459874" lon="-8.45695311437128"><ele>925.0</ele><time>2026-04-15T11:11:57Z</time></trkpt><trkpt lat="29.702384194063104" lon="-8.45709775384156"><ele>920.0</ele><time>2026-04-15T11:11:58Z</time></trkpt><trkpt lat="29.70229385462677" lon="-8.457248038258975"><ele>915.0</ele><time>2026-04-15T11:11:59Z</time></trkpt><trkpt lat="29.702208034196943" lon="-8.45740748348271"><ele>910.0</ele><time>2026-04-15T11:12:00Z</time></trkpt><trkpt lat="29.7021351468053" lon="-8.457564868270572"><ele>910.0</ele><time>2026-04-15T11:12:01Z</time></trkpt><trkpt lat="29.702076902981688" lon="-8.45771242470988"><ele>910.0</ele><time>2026-04-15T11:12:02Z</time></trkpt><trkpt lat="29.702021446010665" lon="-8.457851202734426"><ele>910.0</ele><time>2026-04-15T11:12:03Z</time></trkpt><trkpt lat="29.701957280166823" lon="-8.457991795068565"><ele>910.0</ele><time>2026-04-15T11:12:04Z</time></trkpt><trkpt lat="29.701884529654265" lon="-8.458132282201062"><ele>914.0</ele><time>2026-04-15T11:12:05Z</time></trkpt><trkpt lat="29.701798267399138" lon="-8.458268294919058"><ele>918.0</ele><time>2026-04-15T11:12:06Z</time></trkpt><trkpt lat="29.701697147528105" lon="-8.458395637379091"><ele>922.0</ele><time>2026-04-15T11:12:07Z</time></trkpt><trkpt lat="29.70159349608875" lon="-8.458511862034735"><ele>926.0</ele><time>2026-04-15T11:12:08Z</time></trkpt><trkpt lat="29.70149327924745" lon="-8.458623495182366"><ele>926.0</ele><time>2026-04-15T11:12:09Z</time></trkpt><trkpt lat="29.7014050693753" lon="-8.458753700247875"><ele>926.0</ele><time>2026-04-15T11:12:10Z</time></trkpt><trkpt lat="29.701306018155442" lon="-8.458873890516692"><ele>926.0</ele><time>2026-04-15T11:12:11Z</time></trkpt><trkpt lat="29.70119544862587" lon="-8.458986017144829"><ele>926.0</ele><time>2026-04-15T11:12:12Z</time></trkpt><trkpt lat="29.70110609980802" lon="-8.45912170935271"><ele>930.3333333333334</ele><time>2026-04-15T11:12:13Z</time></trkpt><trkpt lat="29.701015354654917" lon="-8.459263900733195"><ele>934.6666666666667</ele><time>2026-04-15T11:12:14Z</time></trkpt><trkpt lat="29.70092625495657" lon="-8.459409594076504"><ele>939.0</ele><time>2026-04-15T11:12:15Z</time></trkpt><trkpt lat="29.700838211077425" lon="-8.45955248681546"><ele>933.75</ele><time>2026-04-15T11:12:16Z</time></trkpt><trkpt lat="29.700754826587392" lon="-8.459692184457282"><ele>928.5</ele><time>2026-04-15T11:12:17Z</time></trkpt><trkpt lat="29.70067629959383" lon="-8.459824244403123"><ele>923.25</ele><time>2026-04-15T11:12:18Z</time></trkpt><trkpt lat="29.700599204793498" lon="-8.459948326655109"><ele>918.0</ele><time>2026-04-15T11:12:19Z</time></trkpt><trkpt lat="29.700515547811715" lon="-8.460062048420903"><ele>918.0</ele><time>2026-04-15T11:12:20Z</time></trkpt><trkpt lat="29.700418995673633" lon="-8.460164681821265"><ele>918.0</ele><time>2026-04-15T11:12:21Z</time></trkpt><trkpt lat="29.700314092652157" lon="-8.460263308302807"><ele>918.0</ele><time>2026-04-15T11:12:22Z</time></trkpt><trkpt lat="29.70020446411812" lon="-8.460360385029269"><ele>918.0</ele><time>2026-04-15T11:12:23Z</time></trkpt><trkpt lat="29.70008674830651" lon="-8.460443947256367"><ele>917.0</ele><time>2026-04-15T11:12:24Z</time></trkpt><trkpt lat="29.699968168176838" lon="-8.46051600186011"><ele>916.0</ele><time>2026-04-15T11:12:25Z</time></trkpt><trkpt lat="29.699846431299665" lon="-8.460573138534176"><ele>915.0</ele><time>2026-04-15T11:12:26Z</time></trkpt><trkpt lat="29.699729459594725" lon="-8.460639441390642"><ele>914.0</ele><time>2026-04-15T11:12:27Z</time></trkpt><trkpt lat="29.699605729704615" lon="-8.460681545573758"><ele>914.0</ele><time>2026-04-15T11:12:28Z</time></trkpt><trkpt lat="29.6994749713801" lon="-8.460705879792577"><ele>914.0</ele><time>2026-04-15T11:12:29Z</time></trkpt><trkpt lat="29.699343486424617" lon="-8.460733834999841"><ele>914.0</ele><time>2026-04-15T11:12:30Z</time></trkpt><trkpt lat="29.699203233636787" lon="-8.46076164885329"><ele>914.0</ele><time>2026-04-15T11:12:31Z</time></trkpt><trkpt lat="29.69906715736654" lon="-8.460772216086198"><ele>913.75</ele><time>2026-04-15T11:12:32Z</time></trkpt><trkpt lat="29.698930350545044" lon="-8.460782840055893"><ele>913.5</ele><time>2026-04-15T11:12:33Z</time></trkpt><trkpt lat="29.698796266414444" lon="-8.460793305580829"><ele>913.25</ele><time>2026-04-15T11:12:34Z</time></trkpt><trkpt lat="29.698660848975965" lon="-8.460803878045168"><ele>913.0</ele><time>2026-04-15T11:12:35Z</time></trkpt><trkpt lat="29.69852128087767" lon="-8.460814709298248"><ele>912.0</ele><time>2026-04-15T11:12:36Z</time></trkpt><trkpt lat="29.698382644298487" lon="-8.460825312641358"><ele>911.0</ele><time>2026-04-15T11:12:37Z</time></trkpt><trkpt lat="29.698245580512786" lon="-8.46083579568727"><ele>910.0</ele><time>2026-04-15T11:12:38Z</time></trkpt><trkpt lat="29.698101529112982" lon="-8.460846454664024"><ele>909.0</ele><time>2026-04-15T11:12:39Z</time></trkpt><trkpt lat="29.69795690228567" lon="-8.460857133084726"><ele>909.0</ele><time>2026-04-15T11:12:40Z</time></trkpt><trkpt lat="29.697810032270436" lon="-8.460866763999501"><ele>909.0</ele><time>2026-04-15T11:12:41Z</time></trkpt><trkpt lat="29.697659574993246" lon="-8.46087692641089"><ele>909.0</ele><time>2026-04-15T11:12:42Z</time></trkpt><trkpt lat="29.697506804859014" lon="-8.460895845185242"><ele>909.6666666666667</ele><time>2026-04-15T11:12:43Z</time></trkpt><trkpt lat="29.697355793522636" lon="-8.460917739833155"><ele>910.3333333333334</ele><time>2026-04-15T11:12:44Z</time></trkpt><trkpt lat="29.697198742945123" lon="-8.460940580976407"><ele>911.0</ele><time>2026-04-15T11:12:45Z</time></trkpt><trkpt lat="29.697037721454947" lon="-8.460970650811623"><ele>912.3333333333334</ele><time>2026-04-15T11:12:46Z</time></trkpt><trkpt lat="29.69687025751118" lon="-8.461012428874321"><ele>913.6666666666667</ele><time>2026-04-15T11:12:47Z</time></trkpt><trkpt lat="29.696696836203365" lon="-8.46103584900545"><ele>915.0</ele><time>2026-04-15T11:12:48Z</time></trkpt><trkpt lat="29.69652810122356" lon="-8.4610900946721"><ele>915.0</ele><time>2026-04-15T11:12:49Z</time></trkpt><trkpt lat="29.696366455514923" lon="-8.46114089000292"><ele>915.0</ele><time>2026-04-15T11:12:50Z</time></trkpt><trkpt lat="29.696209109258376" lon="-8.461185828249246"><ele>915.0</ele><time>2026-04-15T11:12:51Z</time></trkpt><trkpt lat="29.696057351970847" lon="-8.461231091962567"><ele>911.3333333333333</ele><time>2026-04-15T11:12:52Z</time></trkpt><trkpt lat="29.695908187196196" lon="-8.461289232106198"><ele>907.6666666666666</ele><time>2026-04-15T11:12:53Z</time></trkpt><trkpt lat="29.695763975202535" lon="-8.461366533811269"><ele>904.0</ele><time>2026-04-15T11:12:54Z</time></trkpt><trkpt lat="29.69562182237632" lon="-8.461459431491948"><ele>904.0</ele><time>2026-04-15T11:12:55Z</time></trkpt><trkpt lat="29.695479290665915" lon="-8.461571995251477"><ele>904.0</ele><time>2026-04-15T11:12:56Z</time></trkpt><trkpt lat="29.695339947641614" lon="-8.461694020511175"><ele>904.0</ele><time>2026-04-15T11:12:57Z</time></trkpt><trkpt lat="29.695197002471325" lon="-8.461814204663575"><ele>902.3333333333333</ele><time>2026-04-15T11:12:58Z</time></trkpt><trkpt lat="29.695044947311622" lon="-8.46192995708378"><ele>900.6666666666667</ele><time>2026-04-15T11:12:59Z</time></trkpt><trkpt lat="29.694882226969586" lon="-8.462029395562334"><ele>899.0</ele><time>2026-04-15T11:13:00Z</time></trkpt><trkpt lat="29.694706829368187" lon="-8.4621226770722"><ele>899.0</ele><time>2026-04-15T11:13:01Z</time></trkpt><trkpt lat="29.694528279811532" lon="-8.462216051480281"><ele>899.0</ele><time>2026-04-15T11:13:02Z</time></trkpt><trkpt lat="29.694347872846357" lon="-8.462305156682595"><ele>899.0</ele><time>2026-04-15T11:13:03Z</time></trkpt><trkpt lat="29.694172203886684" lon="-8.462410601877274"><ele>898.6666666666667</ele><time>2026-04-15T11:13:04Z</time></trkpt><trkpt lat="29.693997384816857" lon="-8.46250199153804"><ele>898.3333333333333</ele><time>2026-04-15T11:13:05Z</time></trkpt><trkpt lat="29.693821229820415" lon="-8.462587745985589"><ele>898.0</ele><time>2026-04-15T11:13:06Z</time></trkpt><trkpt lat="29.693647662015497" lon="-8.462671626580827"><ele>898.3333333333333</ele><time>2026-04-15T11:13:07Z</time></trkpt><trkpt lat="29.693473462689855" lon="-8.46275584938065"><ele>898.6666666666667</ele><time>2026-04-15T11:13:08Z</time></trkpt><trkpt lat="29.693304807515503" lon="-8.462837566068169"><ele>899.0</ele><time>2026-04-15T11:13:09Z</time></trkpt><trkpt lat="29.69313612403153" lon="-8.462919296496576"><ele>898.6666666666667</ele><time>2026-04-15T11:13:10Z</time></trkpt><trkpt lat="29.692966676912242" lon="-8.463001397280303"><ele>898.3333333333333</ele><time>2026-04-15T11:13:11Z</time></trkpt><trkpt lat="29.69279896151582" lon="-8.463082719485493"><ele>898.0</ele><time>2026-04-15T11:13:12Z</time></trkpt><trkpt lat="29.692630566644844" lon="-8.463164515746186"><ele>898.0</ele><time>2026-04-15T11:13:13Z</time></trkpt><trkpt lat="29.692459563852335" lon="-8.46324757878267"><ele>898.0</ele><time>2026-04-15T11:13:14Z</time></trkpt><trkpt lat="29.69229500503164" lon="-8.46332751171664"><ele>898.0</ele><time>2026-04-15T11:13:15Z</time></trkpt><trkpt lat="29.692134005562203" lon="-8.463405715733582"><ele>898.0</ele><time>2026-04-15T11:13:16Z</time></trkpt><trkpt lat="29.69197656127047" lon="-8.46348222413863"><ele>898.0</ele><time>2026-04-15T11:13:17Z</time></trkpt><trkpt lat="29.691818359852864" lon="-8.463559126406471"><ele>898.0</ele><time>2026-04-15T11:13:18Z</time></trkpt><trkpt lat="29.691656634170894" lon="-8.463637741833372"><ele>897.6666666666666</ele><time>2026-04-15T11:13:19Z</time></trkpt><trkpt lat="29.691497248070167" lon="-8.463715219985843"><ele>897.3333333333333</ele><time>2026-04-15T11:13:20Z</time></trkpt><trkpt lat="29.691341208700205" lon="-8.463791071275933"><ele>897.0</ele><time>2026-04-15T11:13:21Z</time></trkpt><trkpt lat="29.691187239716168" lon="-8.463865674393398"><ele>897.0</ele><time>2026-04-15T11:13:22Z</time></trkpt><trkpt lat="29.691034918899955" lon="-8.463939457976814"><ele>897.0</ele><time>2026-04-15T11:13:23Z</time></trkpt><trkpt lat="29.690884713656136" lon="-8.464012216777128"><ele>897.0</ele><time>2026-04-15T11:13:24Z</time></trkpt><trkpt lat="29.69073495537549" lon="-8.46408519584638"><ele>897.0</ele><time>2026-04-15T11:13:25Z</time></trkpt><trkpt lat="29.69058164190451" lon="-8.464159921232092"><ele>897.0</ele><time>2026-04-15T11:13:26Z</time></trkpt><trkpt lat="29.690426099123478" lon="-8.464235733201988"><ele>897.0</ele><time>2026-04-15T11:13:27Z</time></trkpt><trkpt lat="29.69026850831941" lon="-8.46431254338643"><ele>897.3333333333333</ele><time>2026-04-15T11:13:28Z</time></trkpt><trkpt lat="29.690108753709858" lon="-8.464390135729166"><ele>897.6666666666666</ele><time>2026-04-15T11:13:29Z</time></trkpt><trkpt lat="29.68994953208789" lon="-8.464467233750849"><ele>898.0</ele><time>2026-04-15T11:13:30Z</time></trkpt><trkpt lat="29.689790895733204" lon="-8.464544555888502"><ele>898.0</ele><time>2026-04-15T11:13:31Z</time></trkpt><trkpt lat="29.689632742984703" lon="-8.46462144592981"><ele>898.0</ele><time>2026-04-15T11:13:32Z</time></trkpt><trkpt lat="29.689470747032065" lon="-8.464700018832753"><ele>898.0</ele><time>2026-04-15T11:13:33Z</time></trkpt><trkpt lat="29.689306948816526" lon="-8.464779474684216"><ele>898.0</ele><time>2026-04-15T11:13:34Z</time></trkpt><trkpt lat="29.68913407159758" lon="-8.464847989065303"><ele>898.0</ele><time>2026-04-15T11:13:35Z</time></trkpt><trkpt lat="29.688963883503163" lon="-8.464932840202858"><ele>898.0</ele><time>2026-04-15T11:13:36Z</time></trkpt><trkpt lat="29.688789998811508" lon="-8.465019959185964"><ele>898.0</ele><time>2026-04-15T11:13:37Z</time></trkpt><trkpt lat="29.68862285987397" lon="-8.465129068218415"><ele>898.0</ele><time>2026-04-15T11:13:38Z</time></trkpt><trkpt lat="29.688452441469597" lon="-8.465212162295083"><ele>898.0</ele><time>2026-04-15T11:13:39Z</time></trkpt><trkpt lat="29.688284606972783" lon="-8.465293996513532"><ele>896.6666666666666</ele><time>2026-04-15T11:13:40Z</time></trkpt><trkpt lat="29.68812273265116" lon="-8.465372924583935"><ele>895.3333333333333</ele><time>2026-04-15T11:13:41Z</time></trkpt><trkpt lat="29.68796674303549" lon="-8.465448622914286"><ele>894.0</ele><time>2026-04-15T11:13:42Z</time></trkpt><trkpt lat="29.6878117582365" lon="-8.465523587731655"><ele>893.0</ele><time>2026-04-15T11:13:43Z</time></trkpt><trkpt lat="29.687643634809184" lon="-8.465584507051787"><ele>892.0</ele><time>2026-04-15T11:13:44Z</time></trkpt><trkpt lat="29.687460092219215" lon="-8.465621317092875"><ele>891.0</ele><time>2026-04-15T11:13:45Z</time></trkpt><trkpt lat="29.687270218520396" lon="-8.465645616255902"><ele>891.0</ele><time>2026-04-15T11:13:46Z</time></trkpt><trkpt lat="29.687077162445885" lon="-8.46565075995454"><ele>891.0</ele><time>2026-04-15T11:13:47Z</time></trkpt><trkpt lat="29.68688351691051" lon="-8.465620771985623"><ele>891.0</ele><time>2026-04-15T11:13:48Z</time></trkpt><trkpt lat="29.686699400137755" lon="-8.465567532348166"><ele>891.6666666666667</ele><time>2026-04-15T11:13:49Z</time></trkpt><trkpt lat="29.686507792302184" lon="-8.465509952229855"><ele>892.3333333333334</ele><time>2026-04-15T11:13:50Z</time></trkpt><trkpt lat="29.68632076852443" lon="-8.465453509507638"><ele>893.0</ele><time>2026-04-15T11:13:51Z</time></trkpt><trkpt lat="29.686130023442622" lon="-8.46539591839041"><ele>894.0</ele><time>2026-04-15T11:13:52Z</time></trkpt><trkpt lat="29.685936984256493" lon="-8.465337631850508"><ele>895.0</ele><time>2026-04-15T11:13:53Z</time></trkpt><trkpt lat="29.685747925295143" lon="-8.46526556740859"><ele>896.0</ele><time>2026-04-15T11:13:54Z</time></trkpt><trkpt lat="29.68555425564208" lon="-8.465209056778562"><ele>896.0</ele><time>2026-04-15T11:13:55Z</time></trkpt><trkpt lat="29.685363661891216" lon="-8.465155826583265"><ele>896.0</ele><time>2026-04-15T11:13:56Z</time></trkpt><trkpt lat="29.68518271958605" lon="-8.465105815535809"><ele>896.0</ele><time>2026-04-15T11:13:57Z</time></trkpt><trkpt lat="29.68501436022074" lon="-8.465059815552749"><ele>899.3333333333334</ele><time>2026-04-15T11:13:58Z</time></trkpt><trkpt lat="29.68484777787805" lon="-8.465017334658828"><ele>902.6666666666667</ele><time>2026-04-15T11:13:59Z</time></trkpt><trkpt lat="29.684682707140325" lon="-8.464973801877951"><ele>906.0</ele><time>2026-04-15T11:14:00Z</time></trkpt><trkpt lat="29.68452526788821" lon="-8.464915089934317"><ele>903.0</ele><time>2026-04-15T11:14:01Z</time></trkpt><trkpt lat="29.6843599531657" lon="-8.464861897406463"><ele>900.0</ele><time>2026-04-15T11:14:02Z</time></trkpt><trkpt lat="29.6842107349148" lon="-8.464753287447829"><ele>897.0</ele><time>2026-04-15T11:14:03Z</time></trkpt><trkpt lat="29.684061751157813" lon="-8.464640349438035"><ele>903.0</ele><time>2026-04-15T11:14:04Z</time></trkpt><trkpt lat="29.683912193875994" lon="-8.464518978817438"><ele>909.0</ele><time>2026-04-15T11:14:05Z</time></trkpt><trkpt lat="29.683760004580005" lon="-8.46439430850869"><ele>915.0</ele><time>2026-04-15T11:14:06Z</time></trkpt><trkpt lat="29.68360540928201" lon="-8.464266871716669"><ele>909.6666666666667</ele><time>2026-04-15T11:14:07Z</time></trkpt><trkpt lat="29.683451287772254" lon="-8.464138188886814"><ele>904.3333333333334</ele><time>2026-04-15T11:14:08Z</time></trkpt><trkpt lat="29.683294565573505" lon="-8.464006726367739"><ele>899.0</ele><time>2026-04-15T11:14:09Z</time></trkpt><trkpt lat="29.683135702426554" lon="-8.463874241642575"><ele>901.0</ele><time>2026-04-15T11:14:10Z</time></trkpt><trkpt lat="29.682975287247558" lon="-8.463738381732513"><ele>903.0</ele><time>2026-04-15T11:14:11Z</time></trkpt><trkpt lat="29.682823904372192" lon="-8.463594894857689"><ele>905.0</ele><time>2026-04-15T11:14:12Z</time></trkpt><trkpt lat="29.682684975486954" lon="-8.46344269598174"><ele>905.0</ele><time>2026-04-15T11:14:13Z</time></trkpt><trkpt lat="29.682536447241578" lon="-8.463326401174049"><ele>905.0</ele><time>2026-04-15T11:14:14Z</time></trkpt><trkpt lat="29.6823995050326" lon="-8.463214118853012"><ele>905.0</ele><time>2026-04-15T11:14:15Z</time></trkpt><trkpt lat="29.68227085218205" lon="-8.463105065915222"><ele>905.0</ele><time>2026-04-15T11:14:16Z</time></trkpt><trkpt lat="29.682139617143687" lon="-8.4629949870802"><ele>905.0</ele><time>2026-04-15T11:14:17Z</time></trkpt><trkpt lat="29.682013858078818" lon="-8.462890959289423"><ele>905.0</ele><time>2026-04-15T11:14:18Z</time></trkpt><trkpt lat="29.68189193179537" lon="-8.462795626010955"><ele>905.75</ele><time>2026-04-15T11:14:19Z</time></trkpt><trkpt lat="29.68178016560265" lon="-8.462708690546453"><ele>906.5</ele><time>2026-04-15T11:14:20Z</time></trkpt><trkpt lat="29.681683294432425" lon="-8.462622643427755"><ele>907.25</ele><time>2026-04-15T11:14:21Z</time></trkpt><trkpt lat="29.681599658874312" lon="-8.462525938160196"><ele>908.0</ele><time>2026-04-15T11:14:22Z</time></trkpt><trkpt lat="29.681539422661377" lon="-8.462404974190035"><ele>908.0</ele><time>2026-04-15T11:14:23Z</time></trkpt><trkpt lat="29.681496552510858" lon="-8.462269666107954"><ele>908.0</ele><time>2026-04-15T11:14:24Z</time></trkpt><trkpt lat="29.681477447210057" lon="-8.462128531551349"><ele>908.0</ele><time>2026-04-15T11:14:25Z</time></trkpt><trkpt lat="29.681467873297862" lon="-8.46198140661354"><ele>908.0</ele><time>2026-04-15T11:14:26Z</time></trkpt><trkpt lat="29.68147929990997" lon="-8.461824825943612"><ele>908.3333333333334</ele><time>2026-04-15T11:14:27Z</time></trkpt><trkpt lat="29.68150995599604" lon="-8.46165437474971"><ele>908.6666666666667</ele><time>2026-04-15T11:14:28Z</time></trkpt><trkpt lat="29.681542027333084" lon="-8.46146248114103"><ele>909.0</ele><time>2026-04-15T11:14:29Z</time></trkpt><trkpt lat="29.681568691037057" lon="-8.461256963918485"><ele>905.3333333333333</ele><time>2026-04-15T11:14:30Z</time></trkpt><trkpt lat="29.681593914263242" lon="-8.46104953317177"><ele>901.6666666666666</ele><time>2026-04-15T11:14:31Z</time></trkpt><trkpt lat="29.68162600815103" lon="-8.460848457745916"><ele>898.0</ele><time>2026-04-15T11:14:32Z</time></trkpt><trkpt lat="29.681661113378436" lon="-8.460662424395734"><ele>898.0</ele><time>2026-04-15T11:14:33Z</time></trkpt><trkpt lat="29.681693841302984" lon="-8.460482647185392"><ele>898.0</ele><time>2026-04-15T11:14:34Z</time></trkpt><trkpt lat="29.681717639073685" lon="-8.460297885868444"><ele>898.0</ele><time>2026-04-15T11:14:35Z</time></trkpt><trkpt lat="29.681731645830393" lon="-8.46010222312832"><ele>896.6666666666666</ele><time>2026-04-15T11:14:36Z</time></trkpt><trkpt lat="29.681710483296737" lon="-8.459893900621356"><ele>895.3333333333333</ele><time>2026-04-15T11:14:37Z</time></trkpt><trkpt lat="29.681674486437533" lon="-8.459678450380693"><ele>894.0</ele><time>2026-04-15T11:14:38Z</time></trkpt><trkpt lat="29.681619460296446" lon="-8.459457570597916"><ele>894.0</ele><time>2026-04-15T11:14:39Z</time></trkpt><trkpt lat="29.681564469912757" lon="-8.45922856215532"><ele>894.0</ele><time>2026-04-15T11:14:40Z</time></trkpt><trkpt lat="29.681523416146728" lon="-8.458985582998654"><ele>894.0</ele><time>2026-04-15T11:14:41Z</time></trkpt><trkpt lat="29.681459380604412" lon="-8.45873912132247"><ele>894.6666666666667</ele><time>2026-04-15T11:14:42Z</time></trkpt><trkpt lat="29.68139848922628" lon="-8.458499095311772"><ele>895.3333333333334</ele><time>2026-04-15T11:14:43Z</time></trkpt><trkpt lat="29.68134286095165" lon="-8.458264354673446"><ele>896.0</ele><time>2026-04-15T11:14:44Z</time></trkpt><trkpt lat="29.681287903877305" lon="-8.458019645671252"><ele>895.0</ele><time>2026-04-15T11:14:45Z</time></trkpt><trkpt lat="29.68122938243497" lon="-8.457776224955715"><ele>894.0</ele><time>2026-04-15T11:14:46Z</time></trkpt><trkpt lat="29.681167731361363" lon="-8.457529237619994"><ele>893.0</ele><time>2026-04-15T11:14:47Z</time></trkpt><trkpt lat="29.681105241329877" lon="-8.457270639454796"><ele>888.0</ele><time>2026-04-15T11:14:48Z</time></trkpt><trkpt lat="29.681039790103018" lon="-8.45701236942057"><ele>883.0</ele><time>2026-04-15T11:14:49Z</time></trkpt><trkpt lat="29.680980120709002" lon="-8.456777064897102"><ele>878.0</ele><time>2026-04-15T11:14:50Z</time></trkpt><trkpt lat="29.680924873749635" lon="-8.456556100203192"><ele>878.0</ele><time>2026-04-15T11:14:51Z</time></trkpt><trkpt lat="29.680875850546464" lon="-8.456359616239613"><ele>878.0</ele><time>2026-04-15T11:14:52Z</time></trkpt><trkpt lat="29.680832874935543" lon="-8.456175486756942"><ele>878.0</ele><time>2026-04-15T11:14:53Z</time></trkpt><trkpt lat="29.680796549843087" lon="-8.456006413579406"><ele>878.0</ele><time>2026-04-15T11:14:54Z</time></trkpt><trkpt lat="29.680760892469575" lon="-8.455847720600694"><ele>878.0</ele><time>2026-04-15T11:14:55Z</time></trkpt><trkpt lat="29.680723394982643" lon="-8.455703862383196"><ele>878.0</ele><time>2026-04-15T11:14:56Z</time></trkpt><trkpt lat="29.68067839938337" lon="-8.455564975485702"><ele>878.0</ele><time>2026-04-15T11:14:57Z</time></trkpt><trkpt lat="29.680619873190384" lon="-8.455434439061747"><ele>878.75</ele><time>2026-04-15T11:14:58Z</time></trkpt><trkpt lat="29.680542696360806" lon="-8.455322152980111"><ele>879.5</ele><time>2026-04-15T11:14:59Z</time></trkpt><trkpt lat="29.680444450234077" lon="-8.455236982048213"><ele>880.25</ele><time>2026-04-15T11:15:00Z</time></trkpt><trkpt lat="29.680327456608318" lon="-8.455173949798768"><ele>881.0</ele><time>2026-04-15T11:15:01Z</time></trkpt><trkpt lat="29.680199546642243" lon="-8.455137986310227"><ele>878.0</ele><time>2026-04-15T11:15:02Z</time></trkpt><trkpt lat="29.680063793472716" lon="-8.455120952483675"><ele>875.0</ele><time>2026-04-15T11:15:03Z</time></trkpt><trkpt lat="29.679912198571614" lon="-8.455130014921698"><ele>872.0</ele><time>2026-04-15T11:15:04Z</time></trkpt><trkpt lat="29.67975213018732" lon="-8.455152471523455"><ele>872.0</ele><time>2026-04-15T11:15:05Z</time></trkpt><trkpt lat="29.67957074016242" lon="-8.45517809892595"><ele>872.0</ele><time>2026-04-15T11:15:06Z</time></trkpt><trkpt lat="29.679381780023675" lon="-8.455198590561785"><ele>872.0</ele><time>2026-04-15T11:15:07Z</time></trkpt><trkpt lat="29.679188157396975" lon="-8.455216234609045"><ele>871.6666666666667</ele><time>2026-04-15T11:15:08Z</time></trkpt><trkpt lat="29.678990070654233" lon="-8.455235646376803"><ele>871.3333333333333</ele><time>2026-04-15T11:15:09Z</time></trkpt><trkpt lat="29.678789153230245" lon="-8.45526076928963"><ele>871.0</ele><time>2026-04-15T11:15:10Z</time></trkpt><trkpt lat="29.678601676221117" lon="-8.45528072546773"><ele>870.0</ele><time>2026-04-15T11:15:11Z</time></trkpt><trkpt lat="29.678421663269244" lon="-8.455295048658117"><ele>869.0</ele><time>2026-04-15T11:15:12Z</time></trkpt><trkpt lat="29.678249461326043" lon="-8.455311711133064"><ele>868.0</ele><time>2026-04-15T11:15:13Z</time></trkpt><trkpt lat="29.678084807170244" lon="-8.455331115224869"><ele>868.0</ele><time>2026-04-15T11:15:14Z</time></trkpt><trkpt lat="29.677938962681978" lon="-8.455344844648858"><ele>868.0</ele><time>2026-04-15T11:15:15Z</time></trkpt><trkpt lat="29.677795907339753" lon="-8.455338503559425"><ele>868.0</ele><time>2026-04-15T11:15:16Z</time></trkpt><trkpt lat="29.677646434976822" lon="-8.455305577193894"><ele>868.0</ele><time>2026-04-15T11:15:17Z</time></trkpt><trkpt lat="29.677489471763145" lon="-8.455249809462142"><ele>869.3333333333333</ele><time>2026-04-15T11:15:18Z</time></trkpt><trkpt lat="29.677321493820543" lon="-8.455167313547088"><ele>870.6666666666667</ele><time>2026-04-15T11:15:19Z</time></trkpt><trkpt lat="29.67714577872784" lon="-8.4550672030561"><ele>872.0</ele><time>2026-04-15T11:15:20Z</time></trkpt><trkpt lat="29.67696975409759" lon="-8.454973863927673"><ele>874.6666666666667</ele><time>2026-04-15T11:15:21Z</time></trkpt><trkpt lat="29.67680196378104" lon="-8.454884239638222"><ele>877.3333333333333</ele><time>2026-04-15T11:15:22Z</time></trkpt><trkpt lat="29.676639043257328" lon="-8.454798931184625"><ele>880.0</ele><time>2026-04-15T11:15:23Z</time></trkpt><trkpt lat="29.676495193646215" lon="-8.45471695467421"><ele>880.0</ele><time>2026-04-15T11:15:24Z</time></trkpt><trkpt lat="29.676352171694663" lon="-8.45464542655437"><ele>880.0</ele><time>2026-04-15T11:15:25Z</time></trkpt><trkpt lat="29.676203556724595" lon="-8.454590782659576"><ele>880.0</ele><time>2026-04-15T11:15:26Z</time></trkpt><trkpt lat="29.67604823715207" lon="-8.45455677502292"><ele>877.0</ele><time>2026-04-15T11:15:27Z</time></trkpt><trkpt lat="29.67588760080363" lon="-8.454534574724661"><ele>874.0</ele><time>2026-04-15T11:15:28Z</time></trkpt><trkpt lat="29.675729003241635" lon="-8.454525954656184"><ele>871.0</ele><time>2026-04-15T11:15:29Z</time></trkpt><trkpt lat="29.675570148853936" lon="-8.454534859771906"><ele>871.0</ele><time>2026-04-15T11:15:30Z</time></trkpt><trkpt lat="29.675408927250174" lon="-8.454560742182272"><ele>871.0</ele><time>2026-04-15T11:15:31Z</time></trkpt><trkpt lat="29.675244938503468" lon="-8.454602698108227"><ele>871.0</ele><time>2026-04-15T11:15:32Z</time></trkpt><trkpt lat="29.67507926838746" lon="-8.454651900527079"><ele>874.6666666666666</ele><time>2026-04-15T11:15:33Z</time></trkpt><trkpt lat="29.674909838946995" lon="-8.45471792970406"><ele>878.3333333333333</ele><time>2026-04-15T11:15:34Z</time></trkpt><trkpt lat="29.674731833996262" lon="-8.454799438191941"><ele>882.0</ele><time>2026-04-15T11:15:35Z</time></trkpt><trkpt lat="29.67455383934782" lon="-8.454882864590514"><ele>879.3333333333333</ele><time>2026-04-15T11:15:36Z</time></trkpt><trkpt lat="29.67437903467421" lon="-8.45496573183999"><ele>876.6666666666666</ele><time>2026-04-15T11:15:37Z</time></trkpt><trkpt lat="29.67421317638244" lon="-8.455037649302133"><ele>874.0</ele><time>2026-04-15T11:15:38Z</time></trkpt><trkpt lat="29.67405528184378" lon="-8.455106204536206"><ele>874.0</ele><time>2026-04-15T11:15:39Z</time></trkpt><trkpt lat="29.673904687218638" lon="-8.45517434856383"><ele>874.0</ele><time>2026-04-15T11:15:40Z</time></trkpt><trkpt lat="29.673759020913213" lon="-8.455237056401275"><ele>874.0</ele><time>2026-04-15T11:15:41Z</time></trkpt><trkpt lat="29.67361182426257" lon="-8.455296806366732"><ele>872.0</ele><time>2026-04-15T11:15:42Z</time></trkpt><trkpt lat="29.673465278187003" lon="-8.455360300080878"><ele>870.0</ele><time>2026-04-15T11:15:43Z</time></trkpt><trkpt lat="29.673319346426613" lon="-8.455425323931673"><ele>868.0</ele><time>2026-04-15T11:15:44Z</time></trkpt><trkpt lat="29.673171586796023" lon="-8.45548726164499"><ele>871.3333333333333</ele><time>2026-04-15T11:15:45Z</time></trkpt><trkpt lat="29.673022146205653" lon="-8.455549527710343"><ele>874.6666666666667</ele><time>2026-04-15T11:15:46Z</time></trkpt><trkpt lat="29.67287163908874" lon="-8.455613917290572"><ele>878.0</ele><time>2026-04-15T11:15:47Z</time></trkpt><trkpt lat="29.67273499889585" lon="-8.45567800589487"><ele>878.0</ele><time>2026-04-15T11:15:48Z</time></trkpt><trkpt lat="29.67260364684385" lon="-8.455739392310484"><ele>878.0</ele><time>2026-04-15T11:15:49Z</time></trkpt><trkpt lat="29.672477100337463" lon="-8.45580137059785"><ele>878.0</ele><time>2026-04-15T11:15:50Z</time></trkpt><trkpt lat="29.672345583624242" lon="-8.455870949130608"><ele>878.0</ele><time>2026-04-15T11:15:51Z</time></trkpt><trkpt lat="29.672211658807687" lon="-8.455945093450728"><ele>878.0</ele><time>2026-04-15T11:15:52Z</time></trkpt><trkpt lat="29.672078749352018" lon="-8.456025051888256"><ele>878.0</ele><time>2026-04-15T11:15:53Z</time></trkpt><trkpt lat="29.671948828944455" lon="-8.456116593876612"><ele>878.0</ele><time>2026-04-15T11:15:54Z</time></trkpt><trkpt lat="29.671813298741938" lon="-8.45621071981996"><ele>880.3333333333334</ele><time>2026-04-15T11:15:55Z</time></trkpt><trkpt lat="29.671674884515433" lon="-8.456305912957513"><ele>882.6666666666667</ele><time>2026-04-15T11:15:56Z</time></trkpt><trkpt lat="29.671535168346956" lon="-8.456395679748123"><ele>885.0</ele><time>2026-04-15T11:15:57Z</time></trkpt><trkpt lat="29.67139214634346" lon="-8.456483622271803"><ele>885.0</ele><time>2026-04-15T11:15:58Z</time></trkpt><trkpt lat="29.671244450149953" lon="-8.456567332479105"><ele>885.0</ele><time>2026-04-15T11:15:59Z</time></trkpt><trkpt lat="29.671093172151583" lon="-8.456639142601986"><ele>885.0</ele><time>2026-04-15T11:16:00Z</time></trkpt><trkpt lat="29.67093438179647" lon="-8.45669902494865"><ele>883.6666666666667</ele><time>2026-04-15T11:16:01Z</time></trkpt><trkpt lat="29.670775190134137" lon="-8.45673785048146"><ele>882.3333333333334</ele><time>2026-04-15T11:16:02Z</time></trkpt><trkpt lat="29.670614248024975" lon="-8.456758729797308"><ele>881.0</ele><time>2026-04-15T11:16:03Z</time></trkpt><trkpt lat="29.670458174694392" lon="-8.456767119256137"><ele>881.0</ele><time>2026-04-15T11:16:04Z</time></trkpt><trkpt lat="29.670302677570184" lon="-8.456755975038787"><ele>881.0</ele><time>2026-04-15T11:16:05Z</time></trkpt><trkpt lat="29.6701454057628" lon="-8.456729652785437"><ele>881.0</ele><time>2026-04-15T11:16:06Z</time></trkpt><trkpt lat="29.669992998998257" lon="-8.456691699500123"><ele>881.5</ele><time>2026-04-15T11:16:07Z</time></trkpt><trkpt lat="29.66984458584174" lon="-8.456644654979138"><ele>882.0</ele><time>2026-04-15T11:16:08Z</time></trkpt><trkpt lat="29.669704110693843" lon="-8.456587624978589"><ele>882.5</ele><time>2026-04-15T11:16:09Z</time></trkpt><trkpt lat="29.6695725379728" lon="-8.456518655199222"><ele>883.0</ele><time>2026-04-15T11:16:10Z</time></trkpt><trkpt lat="29.669438487952025" lon="-8.456440652420287"><ele>885.25</ele><time>2026-04-15T11:16:11Z</time></trkpt><trkpt lat="29.66931233148346" lon="-8.45635328128237"><ele>887.5</ele><time>2026-04-15T11:16:12Z</time></trkpt><trkpt lat="29.669184715155524" lon="-8.45626432037624"><ele>889.75</ele><time>2026-04-15T11:16:13Z</time></trkpt><trkpt lat="29.669056228765466" lon="-8.456169597108591"><ele>892.0</ele><time>2026-04-15T11:16:14Z</time></trkpt><trkpt lat="29.668931250243514" lon="-8.456070902122425"><ele>890.25</ele><time>2026-04-15T11:16:15Z</time></trkpt><trkpt lat="29.66881573913696" lon="-8.455963511880267"><ele>888.5</ele><time>2026-04-15T11:16:16Z</time></trkpt><trkpt lat="29.668702560397954" lon="-8.455854554767866"><ele>886.75</ele><time>2026-04-15T11:16:17Z</time></trkpt><trkpt lat="29.668587482491006" lon="-8.455748812216349"><ele>885.0</ele><time>2026-04-15T11:16:18Z</time></trkpt><trkpt lat="29.66847087740091" lon="-8.455647147767749"><ele>885.0</ele><time>2026-04-15T11:16:19Z</time></trkpt><trkpt lat="29.668347309564034" lon="-8.455552303829359"><ele>885.0</ele><time>2026-04-15T11:16:20Z</time></trkpt><trkpt lat="29.66823079558787" lon="-8.45545305038874"><ele>885.0</ele><time>2026-04-15T11:16:21Z</time></trkpt><trkpt lat="29.668128647692992" lon="-8.455347227275926"><ele>885.0</ele><time>2026-04-15T11:16:22Z</time></trkpt><trkpt lat="29.668041792781004" lon="-8.455227969798948"><ele>880.0</ele><time>2026-04-15T11:16:23Z</time></trkpt><trkpt lat="29.667968740576953" lon="-8.455097469001416"><ele>875.0</ele><time>2026-04-15T11:16:24Z</time></trkpt><trkpt lat="29.66791180682584" lon="-8.454958443197517"><ele>870.0</ele><time>2026-04-15T11:16:25Z</time></trkpt><trkpt lat="29.667863509300954" lon="-8.454813737133188"><ele>865.0</ele><time>2026-04-15T11:16:26Z</time></trkpt><trkpt lat="29.667818815054094" lon="-8.4546592337545"><ele>862.6666666666666</ele><time>2026-04-15T11:16:27Z</time></trkpt><trkpt lat="29.667782626860028" lon="-8.454491067396162"><ele>860.3333333333333</ele><time>2026-04-15T11:16:28Z</time></trkpt><trkpt lat="29.667735890867277" lon="-8.454328226731132"><ele>858.0</ele><time>2026-04-15T11:16:29Z</time></trkpt><trkpt lat="29.667660005437963" lon="-8.454158511106064"><ele>861.0</ele><time>2026-04-15T11:16:30Z</time></trkpt><trkpt lat="29.667553094203683" lon="-8.454000584625229"><ele>864.0</ele><time>2026-04-15T11:16:31Z</time></trkpt><trkpt lat="29.667444465337045" lon="-8.453852044391645"><ele>867.0</ele><time>2026-04-15T11:16:32Z</time></trkpt><trkpt lat="29.66735026508019" lon="-8.453697884554748"><ele>867.0</ele><time>2026-04-15T11:16:33Z</time></trkpt><trkpt lat="29.667278189662863" lon="-8.453514312811285"><ele>867.0</ele><time>2026-04-15T11:16:34Z</time></trkpt><trkpt lat="29.667234624077654" lon="-8.453310958405568"><ele>867.0</ele><time>2026-04-15T11:16:35Z</time></trkpt><trkpt lat="29.667219123836507" lon="-8.453098856567673"><ele>863.3333333333333</ele><time>2026-04-15T11:16:36Z</time></trkpt><trkpt lat="29.667219399915727" lon="-8.45289155493605"><ele>859.6666666666666</ele><time>2026-04-15T11:16:37Z</time></trkpt><trkpt lat="29.667218496641695" lon="-8.45269765828591"><ele>856.0</ele><time>2026-04-15T11:16:38Z</time></trkpt><trkpt lat="29.667194491910315" lon="-8.452520350162697"><ele>856.0</ele><time>2026-04-15T11:16:39Z</time></trkpt><trkpt lat="29.66714474405057" lon="-8.45235835134415"><ele>856.0</ele><time>2026-04-15T11:16:40Z</time></trkpt><trkpt lat="29.667066869144758" lon="-8.452220472239462"><ele>856.0</ele><time>2026-04-15T11:16:41Z</time></trkpt><trkpt lat="29.66697303983364" lon="-8.452105497489724"><ele>856.0</ele><time>2026-04-15T11:16:42Z</time></trkpt><trkpt lat="29.66685276315156" lon="-8.452009650166186"><ele>856.3333333333333</ele><time>2026-04-15T11:16:43Z</time></trkpt><trkpt lat="29.66670653305659" lon="-8.451937070496014"><ele>856.6666666666667</ele><time>2026-04-15T11:16:44Z</time></trkpt><trkpt lat="29.66654536769064" lon="-8.451869370468014"><ele>857.0</ele><time>2026-04-15T11:16:45Z</time></trkpt><trkpt lat="29.666363740561486" lon="-8.451819071753004"><ele>857.0</ele><time>2026-04-15T11:16:46Z</time></trkpt><trkpt lat="29.66619215491885" lon="-8.451773263401952"><ele>857.0</ele><time>2026-04-15T11:16:47Z</time></trkpt><trkpt lat="29.666026626966847" lon="-8.451735755129924"><ele>857.0</ele><time>2026-04-15T11:16:48Z</time></trkpt><trkpt lat="29.665871109050656" lon="-8.451704984293084"><ele>856.75</ele><time>2026-04-15T11:16:49Z</time></trkpt><trkpt lat="29.665729961431847" lon="-8.45167941379055"><ele>856.5</ele><time>2026-04-15T11:16:50Z</time></trkpt><trkpt lat="29.665595024133015" lon="-8.451669740622872"><ele>856.25</ele><time>2026-04-15T11:16:51Z</time></trkpt><trkpt lat="29.66546647707282" lon="-8.451671028258042"><ele>856.0</ele><time>2026-04-15T11:16:52Z</time></trkpt><trkpt lat="29.665341639635212" lon="-8.45168703368651"><ele>856.25</ele><time>2026-04-15T11:16:53Z</time></trkpt><trkpt lat="29.665223227989205" lon="-8.451711618358459"><ele>856.5</ele><time>2026-04-15T11:16:54Z</time></trkpt><trkpt lat="29.665109754647364" lon="-8.451740492307621"><ele>856.75</ele><time>2026-04-15T11:16:55Z</time></trkpt><trkpt lat="29.664993878168595" lon="-8.451767426476113"><ele>857.0</ele><time>2026-04-15T11:16:56Z</time></trkpt><trkpt lat="29.664865827560856" lon="-8.451797851285606"><ele>857.0</ele><time>2026-04-15T11:16:57Z</time></trkpt><trkpt lat="29.66472730155341" lon="-8.451833488810875"><ele>857.0</ele><time>2026-04-15T11:16:58Z</time></trkpt><trkpt lat="29.664583353804755" lon="-8.451871835560674"><ele>857.0</ele><time>2026-04-15T11:16:59Z</time></trkpt><trkpt lat="29.664445209329255" lon="-8.451907573552747"><ele>857.0</ele><time>2026-04-15T11:17:00Z</time></trkpt><trkpt lat="29.664305691064254" lon="-8.451944782866152"><ele>856.5</ele><time>2026-04-15T11:17:01Z</time></trkpt><trkpt lat="29.664169598406264" lon="-8.451972785663402"><ele>856.0</ele><time>2026-04-15T11:17:02Z</time></trkpt><trkpt lat="29.66403992164806" lon="-8.45196986768595"><ele>855.5</ele><time>2026-04-15T11:17:03Z</time></trkpt><trkpt lat="29.663909868772212" lon="-8.451933209806063"><ele>855.0</ele><time>2026-04-15T11:17:04Z</time></trkpt><trkpt lat="29.66378312096063" lon="-8.451859277775878"><ele>855.0</ele><time>2026-04-15T11:17:05Z</time></trkpt><trkpt lat="29.663667021572138" lon="-8.451760403823709"><ele>855.0</ele><time>2026-04-15T11:17:06Z</time></trkpt><trkpt lat="29.66357652229439" lon="-8.451618741594547"><ele>855.0</ele><time>2026-04-15T11:17:07Z</time></trkpt><trkpt lat="29.663500334450983" lon="-8.451460618266863"><ele>852.6666666666667</ele><time>2026-04-15T11:17:08Z</time></trkpt><trkpt lat="29.663440793917843" lon="-8.451283088978137"><ele>850.3333333333334</ele><time>2026-04-15T11:17:09Z</time></trkpt><trkpt lat="29.66338602848516" lon="-8.451113249754874"><ele>848.0</ele><time>2026-04-15T11:17:10Z</time></trkpt><trkpt lat="29.663335434164154" lon="-8.450945799394617"><ele>848.0</ele><time>2026-04-15T11:17:11Z</time></trkpt><trkpt lat="29.66328324405735" lon="-8.450785133718696"><ele>848.0</ele><time>2026-04-15T11:17:12Z</time></trkpt><trkpt lat="29.66323493043455" lon="-8.45062746537768"><ele>848.0</ele><time>2026-04-15T11:17:13Z</time></trkpt><trkpt lat="29.663184739268583" lon="-8.450471531260655"><ele>848.0</ele><time>2026-04-15T11:17:14Z</time></trkpt><trkpt lat="29.663130299778203" lon="-8.450317249001886"><ele>848.5</ele><time>2026-04-15T11:17:15Z</time></trkpt><trkpt lat="29.66307757952444" lon="-8.450159748838697"><ele>849.0</ele><time>2026-04-15T11:17:16Z</time></trkpt><trkpt lat="29.663027964350754" lon="-8.450008849714004"><ele>849.5</ele><time>2026-04-15T11:17:17Z</time></trkpt><trkpt lat="29.66299190688415" lon="-8.449864991327324"><ele>850.0</ele><time>2026-04-15T11:17:18Z</time></trkpt><trkpt lat="29.66294608194056" lon="-8.449739452810382"><ele>850.6666666666666</ele><time>2026-04-15T11:17:19Z</time></trkpt><trkpt lat="29.662901204417814" lon="-8.449618670155289"><ele>851.3333333333333</ele><time>2026-04-15T11:17:20Z</time></trkpt><trkpt lat="29.66286811113136" lon="-8.44951316176767"><ele>852.0</ele><time>2026-04-15T11:17:21Z</time></trkpt><trkpt lat="29.662834744092923" lon="-8.449415081574267"><ele>852.6666666666667</ele><time>2026-04-15T11:17:22Z</time></trkpt><trkpt lat="29.662805446499902" lon="-8.449328911245708"><ele>853.3333333333334</ele><time>2026-04-15T11:17:23Z</time></trkpt><trkpt lat="29.662779814720356" lon="-8.449260206173431"><ele>854.0</ele><time>2026-04-15T11:17:24Z</time></trkpt><trkpt lat="29.66274141154742" lon="-8.44916021288957"><ele>854.0</ele><time>2026-04-15T11:17:26Z</time></trkpt><trkpt lat="29.662714909050802" lon="-8.449078140164005"><ele>854.0000000000001</ele><time>2026-04-15T11:17:28Z</time></trkpt><trkpt lat="29.662693601717194" lon="-8.44898927287987"><ele>854.0000000000001</ele><time>2026-04-15T11:17:30Z</time></trkpt><trkpt lat="29.662645881478948" lon="-8.448845309238443"><ele>854.0</ele><time>2026-04-15T11:17:32Z</time></trkpt><trkpt lat="29.66260313203618" lon="-8.448754742896154"><ele>854.0</ele><time>2026-04-15T11:17:33Z</time></trkpt><trkpt lat="29.662546495846144" lon="-8.44867046033097"><ele>858.0</ele><time>2026-04-15T11:17:34Z</time></trkpt><trkpt lat="29.66247910008182" lon="-8.448586047893235"><ele>862.0</ele><time>2026-04-15T11:17:35Z</time></trkpt><trkpt lat="29.662391607051443" lon="-8.448509297361042"><ele>866.0</ele><time>2026-04-15T11:17:36Z</time></trkpt><trkpt lat="29.662272344492585" lon="-8.448445614109527"><ele>870.0</ele><time>2026-04-15T11:17:37Z</time></trkpt><trkpt lat="29.662136438872945" lon="-8.44839932294163"><ele>870.0</ele><time>2026-04-15T11:17:38Z</time></trkpt><trkpt lat="29.661993891401355" lon="-8.448374882842486"><ele>870.0</ele><time>2026-04-15T11:17:39Z</time></trkpt><trkpt lat="29.661841401977636" lon="-8.448351262416692"><ele>870.0</ele><time>2026-04-15T11:17:40Z</time></trkpt><trkpt lat="29.661681906353202" lon="-8.448318292635895"><ele>867.0</ele><time>2026-04-15T11:17:41Z</time></trkpt><trkpt lat="29.66153270749093" lon="-8.448281954055263"><ele>864.0</ele><time>2026-04-15T11:17:42Z</time></trkpt><trkpt lat="29.66139490693029" lon="-8.448249709479171"><ele>861.0</ele><time>2026-04-15T11:17:43Z</time></trkpt><trkpt lat="29.661267295808546" lon="-8.448216159009037"><ele>858.0</ele><time>2026-04-15T11:17:44Z</time></trkpt><trkpt lat="29.661148729176432" lon="-8.44818078500834"><ele>858.75</ele><time>2026-04-15T11:17:45Z</time></trkpt><trkpt lat="29.66103642780155" lon="-8.448138757348293"><ele>859.5</ele><time>2026-04-15T11:17:46Z</time></trkpt><trkpt lat="29.6609202908303" lon="-8.44808537996966"><ele>860.25</ele><time>2026-04-15T11:17:47Z</time></trkpt><trkpt lat="29.660800351343227" lon="-8.448019424949683"><ele>861.0</ele><time>2026-04-15T11:17:48Z</time></trkpt><trkpt lat="29.66068249354206" lon="-8.447935176863998"><ele>861.0</ele><time>2026-04-15T11:17:49Z</time></trkpt><trkpt lat="29.660572453695263" lon="-8.447834835992747"><ele>861.0</ele><time>2026-04-15T11:17:50Z</time></trkpt><trkpt lat="29.660466150711446" lon="-8.447720089931199"><ele>861.0</ele><time>2026-04-15T11:17:51Z</time></trkpt><trkpt lat="29.660374480346626" lon="-8.447607638392713"><ele>861.0</ele><time>2026-04-15T11:17:52Z</time></trkpt><trkpt lat="29.660288301233603" lon="-8.447505378134352"><ele>860.8</ele><time>2026-04-15T11:17:53Z</time></trkpt><trkpt lat="29.660202918664968" lon="-8.447406385176873"><ele>860.5999999999999</ele><time>2026-04-15T11:17:54Z</time></trkpt><trkpt lat="29.66012247161596" lon="-8.447311987988154"><ele>860.4</ele><time>2026-04-15T11:17:55Z</time></trkpt><trkpt lat="29.660051902006526" lon="-8.447231970510837"><ele>860.2</ele><time>2026-04-15T11:17:56Z</time></trkpt><trkpt lat="29.659997998898845" lon="-8.447172940243322"><ele>860.0</ele><time>2026-04-15T11:17:57Z</time></trkpt><trkpt lat="29.659948721507206" lon="-8.447121490130746"><ele>860.0000000000001</ele><time>2026-04-15T11:17:58Z</time></trkpt><trkpt lat="29.65987923442448" lon="-8.447056103268"><ele>860.0</ele><time>2026-04-15T11:18:00Z</time></trkpt><trkpt lat="29.659827514445823" lon="-8.446955264449098"><ele>860.0</ele><time>2026-04-15T11:35:30Z</time></trkpt><trkpt lat="29.65977330922252" lon="-8.446898530575723"><ele>860.0</ele><time>2026-04-15T11:35:32Z</time></trkpt><trkpt lat="29.65969920985922" lon="-8.446813145750792"><ele>860.0000000000001</ele><time>2026-04-15T11:35:34Z</time></trkpt><trkpt lat="29.659650893612355" lon="-8.446755753682984"><ele>860.0</ele><time>2026-04-15T11:35:36Z</time></trkpt><trkpt lat="29.659579276313483" lon="-8.446668502066156"><ele>860.0000000000001</ele><time>2026-04-15T11:35:39Z</time></trkpt><trkpt lat="29.659512055619896" lon="-8.446592106544793"><ele>860.0</ele><time>2026-04-15T11:35:41Z</time></trkpt><trkpt lat="29.659459073922743" lon="-8.446534588281079"><ele>860.0</ele><time>2026-04-15T11:35:43Z</time></trkpt><trkpt lat="29.65940929144393" lon="-8.446472900023565"><ele>860.0</ele><time>2026-04-15T11:35:45Z</time></trkpt><trkpt lat="29.659349142350987" lon="-8.446412204640504"><ele>860.0000000000001</ele><time>2026-04-15T11:35:47Z</time></trkpt><trkpt lat="29.65928729405187" lon="-8.446339574081708"><ele>860.0</ele><time>2026-04-15T11:35:49Z</time></trkpt><trkpt lat="29.65922242721733" lon="-8.44626942662903"><ele>860.4</ele><time>2026-04-15T11:35:51Z</time></trkpt><trkpt lat="29.659145635482126" lon="-8.446183212758442"><ele>860.8</ele><time>2026-04-15T11:35:53Z</time></trkpt><trkpt lat="29.659082153495767" lon="-8.446113601729328"><ele>861.2</ele><time>2026-04-15T11:35:55Z</time></trkpt><trkpt lat="29.65901496332947" lon="-8.44605119414971"><ele>861.6</ele><time>2026-04-15T11:35:57Z</time></trkpt><trkpt lat="29.65891816467415" lon="-8.44596550596878"><ele>862.0</ele><time>2026-04-15T11:35:59Z</time></trkpt><trkpt lat="29.65885617382363" lon="-8.445923331154011"><ele>862.0</ele><time>2026-04-15T11:36:00Z</time></trkpt><trkpt lat="29.658792967874113" lon="-8.445882519103112"><ele>862.0</ele><time>2026-04-15T11:36:01Z</time></trkpt><trkpt lat="29.658731877525916" lon="-8.445847076017817"><ele>862.0</ele><time>2026-04-15T11:36:02Z</time></trkpt><trkpt lat="29.658670845065803" lon="-8.445817652454018"><ele>862.0</ele><time>2026-04-15T11:36:03Z</time></trkpt><trkpt lat="29.658607340361105" lon="-8.445791172210363"><ele>862.0</ele><time>2026-04-15T11:36:04Z</time></trkpt><trkpt lat="29.65853835233721" lon="-8.445762285982422"><ele>862.0</ele><time>2026-04-15T11:36:05Z</time></trkpt><trkpt lat="29.658464873257056" lon="-8.445728863261676"><ele>862.0</ele><time>2026-04-15T11:36:06Z</time></trkpt><trkpt lat="29.658396860510194" lon="-8.445698556019455"><ele>860.4999999999999</ele><time>2026-04-15T11:36:07Z</time></trkpt><trkpt lat="29.65832516225847" lon="-8.445666566961982"><ele>859.0</ele><time>2026-04-15T11:36:08Z</time></trkpt><trkpt lat="29.658245055128614" lon="-8.445632888065944"><ele>857.5</ele><time>2026-04-15T11:36:09Z</time></trkpt><trkpt lat="29.65815881953402" lon="-8.445593028464616"><ele>856.0</ele><time>2026-04-15T11:36:10Z</time></trkpt><trkpt lat="29.658068588401072" lon="-8.445551193222242"><ele>854.4999999999999</ele><time>2026-04-15T11:36:11Z</time></trkpt><trkpt lat="29.657978398867517" lon="-8.445514510180917"><ele>853.0</ele><time>2026-04-15T11:36:12Z</time></trkpt><trkpt lat="29.657886694405903" lon="-8.44548403925562"><ele>852.4</ele><time>2026-04-15T11:36:13Z</time></trkpt><trkpt lat="29.65780036488877" lon="-8.445451987193927"><ele>851.8</ele><time>2026-04-15T11:36:14Z</time></trkpt><trkpt lat="29.657716373944545" lon="-8.445415834996124"><ele>851.2</ele><time>2026-04-15T11:36:15Z</time></trkpt><trkpt lat="29.657631025044683" lon="-8.44537876692546"><ele>850.6</ele><time>2026-04-15T11:36:16Z</time></trkpt><trkpt lat="29.657540041895913" lon="-8.445339176558525"><ele>850.0</ele><time>2026-04-15T11:36:17Z</time></trkpt><trkpt lat="29.657445585812518" lon="-8.445297030541665"><ele>850.0</ele><time>2026-04-15T11:36:18Z</time></trkpt><trkpt lat="29.65734687300381" lon="-8.445251248153317"><ele>850.0</ele><time>2026-04-15T11:36:19Z</time></trkpt><trkpt lat="29.657249183986583" lon="-8.44520358994547"><ele>850.0</ele><time>2026-04-15T11:36:20Z</time></trkpt><trkpt lat="29.65715764665604" lon="-8.445153382893734"><ele>850.0</ele><time>2026-04-15T11:36:21Z</time></trkpt><trkpt lat="29.65706627612891" lon="-8.445095400348562"><ele>850.0</ele><time>2026-04-15T11:36:22Z</time></trkpt><trkpt lat="29.65697448719344" lon="-8.445033583420614"><ele>849.2</ele><time>2026-04-15T11:36:23Z</time></trkpt><trkpt lat="29.656881719212425" lon="-8.44496654841676"><ele>848.4</ele><time>2026-04-15T11:36:24Z</time></trkpt><trkpt lat="29.656795607492356" lon="-8.444895307278996"><ele>847.5999999999999</ele><time>2026-04-15T11:36:25Z</time></trkpt><trkpt lat="29.656722509202954" lon="-8.444823769707668"><ele>846.8</ele><time>2026-04-15T11:36:26Z</time></trkpt><trkpt lat="29.65665634974097" lon="-8.444751040293927"><ele>846.0</ele><time>2026-04-15T11:36:27Z</time></trkpt><trkpt lat="29.65659837606802" lon="-8.444675969454847"><ele>846.3333333333334</ele><time>2026-04-15T11:36:28Z</time></trkpt><trkpt lat="29.65654394975171" lon="-8.444595264187935"><ele>846.6666666666667</ele><time>2026-04-15T11:36:29Z</time></trkpt><trkpt lat="29.656491892909624" lon="-8.444511101935346"><ele>847.0</ele><time>2026-04-15T11:36:30Z</time></trkpt><trkpt lat="29.656439590002012" lon="-8.444425343219086"><ele>847.3333333333334</ele><time>2026-04-15T11:36:31Z</time></trkpt><trkpt lat="29.656396652170905" lon="-8.444337110292222"><ele>847.6666666666667</ele><time>2026-04-15T11:36:32Z</time></trkpt><trkpt lat="29.656362660265376" lon="-8.444242169684724"><ele>848.0</ele><time>2026-04-15T11:36:33Z</time></trkpt><trkpt lat="29.656330639124594" lon="-8.444143529347908"><ele>848.0</ele><time>2026-04-15T11:36:34Z</time></trkpt><trkpt lat="29.656298705896294" lon="-8.444040078574133"><ele>848.0</ele><time>2026-04-15T11:36:35Z</time></trkpt><trkpt lat="29.656266631318456" lon="-8.44393501295395"><ele>848.0</ele><time>2026-04-15T11:36:36Z</time></trkpt><trkpt lat="29.65623845147312" lon="-8.443827535471696"><ele>848.0</ele><time>2026-04-15T11:36:37Z</time></trkpt><trkpt lat="29.65621588509769" lon="-8.443714490962776"><ele>848.0</ele><time>2026-04-15T11:36:38Z</time></trkpt><trkpt lat="29.656198958501907" lon="-8.44360906899987"><ele>848.0000000000001</ele><time>2026-04-15T11:36:39Z</time></trkpt><trkpt lat="29.656185826352008" lon="-8.44351381411879"><ele>848.0</ele><time>2026-04-15T11:36:40Z</time></trkpt><trkpt lat="29.656174759215773" lon="-8.44342198332611"><ele>848.0</ele><time>2026-04-15T11:36:41Z</time></trkpt><trkpt lat="29.656157608877383" lon="-8.443335827079586"><ele>848.0</ele><time>2026-04-15T11:36:42Z</time></trkpt><trkpt lat="29.656150879353262" lon="-8.443241947630714"><ele>848.0000000000001</ele><time>2026-04-15T11:36:43Z</time></trkpt><trkpt lat="29.656137172240665" lon="-8.443140378459354"><ele>848.0</ele><time>2026-04-15T11:36:44Z</time></trkpt><trkpt lat="29.65612526283746" lon="-8.44303290654286"><ele>847.4</ele><time>2026-04-15T11:36:45Z</time></trkpt><trkpt lat="29.656111231129703" lon="-8.442937262938905"><ele>846.8</ele><time>2026-04-15T11:36:46Z</time></trkpt><trkpt lat="29.656099188428158" lon="-8.442844486894815"><ele>846.2</ele><time>2026-04-15T11:36:47Z</time></trkpt><trkpt lat="29.656090270325993" lon="-8.442738643136943"><ele>845.6</ele><time>2026-04-15T11:36:48Z</time></trkpt><trkpt lat="29.656082396218117" lon="-8.44262681634334"><ele>845.0</ele><time>2026-04-15T11:36:49Z</time></trkpt><trkpt lat="29.656066859637544" lon="-8.442505416152274"><ele>845.0</ele><time>2026-04-15T11:36:50Z</time></trkpt><trkpt lat="29.656051130085864" lon="-8.442376077632087"><ele>845.0</ele><time>2026-04-15T11:36:51Z</time></trkpt><trkpt lat="29.65603722496084" lon="-8.442239328729736"><ele>845.0</ele><time>2026-04-15T11:36:52Z</time></trkpt><trkpt lat="29.65602478470922" lon="-8.442081843747932"><ele>845.0</ele><time>2026-04-15T11:36:53Z</time></trkpt><trkpt lat="29.656007456399394" lon="-8.441914622927008"><ele>845.3333333333334</ele><time>2026-04-15T11:36:54Z</time></trkpt><trkpt lat="29.655978091315767" lon="-8.441735676535872"><ele>845.6666666666667</ele><time>2026-04-15T11:36:55Z</time></trkpt><trkpt lat="29.655954426429286" lon="-8.441552399326824"><ele>846.0</ele><time>2026-04-15T11:36:56Z</time></trkpt><trkpt lat="29.65593612565395" lon="-8.441367874614787"><ele>846.3333333333333</ele><time>2026-04-15T11:36:57Z</time></trkpt><trkpt lat="29.655919246424265" lon="-8.441178322441553"><ele>846.6666666666666</ele><time>2026-04-15T11:36:58Z</time></trkpt><trkpt lat="29.655896274897497" lon="-8.440982681965473"><ele>847.0</ele><time>2026-04-15T11:36:59Z</time></trkpt><trkpt lat="29.655874527003785" lon="-8.440788593625529"><ele>847.0</ele><time>2026-04-15T11:37:00Z</time></trkpt><trkpt lat="29.655850286065558" lon="-8.440605143445111"><ele>847.0</ele><time>2026-04-15T11:37:01Z</time></trkpt><trkpt lat="29.655825526591638" lon="-8.440422780754052"><ele>847.0</ele><time>2026-04-15T11:37:02Z</time></trkpt><trkpt lat="29.65579113706863" lon="-8.440245035706731"><ele>847.0</ele><time>2026-04-15T11:37:03Z</time></trkpt><trkpt lat="29.655761841487596" lon="-8.440070774425184"><ele>847.0</ele><time>2026-04-15T11:37:04Z</time></trkpt><trkpt lat="29.65573947332017" lon="-8.43990457981826"><ele>847.0</ele><time>2026-04-15T11:37:05Z</time></trkpt><trkpt lat="29.655705964315366" lon="-8.439749115610578"><ele>847.0</ele><time>2026-04-15T11:37:06Z</time></trkpt><trkpt lat="29.655659369435316" lon="-8.439595962409227"><ele>847.0</ele><time>2026-04-15T11:37:07Z</time></trkpt><trkpt lat="29.655605978959326" lon="-8.439443071705815"><ele>847.0</ele><time>2026-04-15T11:37:08Z</time></trkpt><trkpt lat="29.655547392696484" lon="-8.439293652870154"><ele>847.0</ele><time>2026-04-15T11:37:09Z</time></trkpt><trkpt lat="29.655477019238898" lon="-8.439149588635962"><ele>847.0</ele><time>2026-04-15T11:37:10Z</time></trkpt><trkpt lat="29.6554009427596" lon="-8.4390157690451"><ele>847.0</ele><time>2026-04-15T11:37:11Z</time></trkpt><trkpt lat="29.655324236140757" lon="-8.43888448716805"><ele>847.0</ele><time>2026-04-15T11:37:12Z</time></trkpt><trkpt lat="29.655253358496815" lon="-8.438757672628249"><ele>847.0</ele><time>2026-04-15T11:37:13Z</time></trkpt><trkpt lat="29.655186583930494" lon="-8.438638912824633"><ele>847.0</ele><time>2026-04-15T11:37:14Z</time></trkpt><trkpt lat="29.65511863292231" lon="-8.438524400841743"><ele>846.25</ele><time>2026-04-15T11:37:15Z</time></trkpt><trkpt lat="29.655052297902674" lon="-8.438406679636385"><ele>845.5</ele><time>2026-04-15T11:37:16Z</time></trkpt><trkpt lat="29.65498821409871" lon="-8.43828844013369"><ele>844.75</ele><time>2026-04-15T11:37:17Z</time></trkpt><trkpt lat="29.654921980803316" lon="-8.438177649450916"><ele>844.0</ele><time>2026-04-15T11:37:18Z</time></trkpt><trkpt lat="29.65485462785472" lon="-8.438067743793342"><ele>844.75</ele><time>2026-04-15T11:37:19Z</time></trkpt><trkpt lat="29.65478767917502" lon="-8.43795342109145"><ele>845.5</ele><time>2026-04-15T11:37:20Z</time></trkpt><trkpt lat="29.654720545331372" lon="-8.43782969235619"><ele>846.25</ele><time>2026-04-15T11:37:21Z</time></trkpt><trkpt lat="29.654652379072125" lon="-8.437707222717838"><ele>847.0</ele><time>2026-04-15T11:37:22Z</time></trkpt><trkpt lat="29.65458297938839" lon="-8.437585014779353"><ele>847.0</ele><time>2026-04-15T11:37:23Z</time></trkpt><trkpt lat="29.65451199693385" lon="-8.437460386623265"><ele>847.0</ele><time>2026-04-15T11:37:24Z</time></trkpt><trkpt lat="29.654437687732425" lon="-8.437328853922306"><ele>847.0</ele><time>2026-04-15T11:37:25Z</time></trkpt><trkpt lat="29.654365806923423" lon="-8.43719791425807"><ele>847.0</ele><time>2026-04-15T11:37:26Z</time></trkpt><trkpt lat="29.654292088925192" lon="-8.43706449976431"><ele>847.0</ele><time>2026-04-15T11:37:27Z</time></trkpt><trkpt lat="29.65421548347228" lon="-8.436926985355104"><ele>847.0</ele><time>2026-04-15T11:37:28Z</time></trkpt><trkpt lat="29.654137740593146" lon="-8.436783246225703"><ele>847.0</ele><time>2026-04-15T11:37:29Z</time></trkpt><trkpt lat="29.65405924546644" lon="-8.436642608036527"><ele>847.0</ele><time>2026-04-15T11:37:30Z</time></trkpt><trkpt lat="29.653987202077722" lon="-8.436514157173864"><ele>847.0</ele><time>2026-04-15T11:37:31Z</time></trkpt><trkpt lat="29.65391710919834" lon="-8.436394995443466"><ele>847.0</ele><time>2026-04-15T11:37:32Z</time></trkpt><trkpt lat="29.65384749075473" lon="-8.436275527355411"><ele>847.0</ele><time>2026-04-15T11:37:33Z</time></trkpt><trkpt lat="29.65377865920089" lon="-8.436160056130568"><ele>847.0</ele><time>2026-04-15T11:37:34Z</time></trkpt><trkpt lat="29.653706626691886" lon="-8.43604596294131"><ele>846.75</ele><time>2026-04-15T11:37:35Z</time></trkpt><trkpt lat="29.6536303819463" lon="-8.435929645654745"><ele>846.5</ele><time>2026-04-15T11:37:36Z</time></trkpt><trkpt lat="29.653552719735455" lon="-8.435810356453382"><ele>846.25</ele><time>2026-04-15T11:37:37Z</time></trkpt><trkpt lat="29.653472694713333" lon="-8.435687379314546"><ele>846.0</ele><time>2026-04-15T11:37:38Z</time></trkpt><trkpt lat="29.65339676995415" lon="-8.435566144298079"><ele>846.0</ele><time>2026-04-15T11:37:39Z</time></trkpt><trkpt lat="29.65332234724275" lon="-8.43544651739758"><ele>846.0</ele><time>2026-04-15T11:37:40Z</time></trkpt><trkpt lat="29.653243025281586" lon="-8.435326502147767"><ele>846.0</ele><time>2026-04-15T11:37:41Z</time></trkpt><trkpt lat="29.65315345724748" lon="-8.435198586912929"><ele>846.0</ele><time>2026-04-15T11:37:42Z</time></trkpt><trkpt lat="29.65305823258748" lon="-8.435063333830177"><ele>846.0</ele><time>2026-04-15T11:37:43Z</time></trkpt><trkpt lat="29.652965456826898" lon="-8.434934477562154"><ele>846.0</ele><time>2026-04-15T11:37:44Z</time></trkpt><trkpt lat="29.652874652547023" lon="-8.4348072144037"><ele>846.0</ele><time>2026-04-15T11:37:45Z</time></trkpt><trkpt lat="29.6527825082417" lon="-8.434678921296944"><ele>846.0</ele><time>2026-04-15T11:37:46Z</time></trkpt><trkpt lat="29.652683938295027" lon="-8.434540928502338"><ele>845.6666666666667</ele><time>2026-04-15T11:37:47Z</time></trkpt><trkpt lat="29.652579362079592" lon="-8.434391747764856"><ele>845.3333333333334</ele><time>2026-04-15T11:37:48Z</time></trkpt><trkpt lat="29.652461864451606" lon="-8.434250626221683"><ele>845.0</ele><time>2026-04-15T11:37:49Z</time></trkpt><trkpt lat="29.65234230474964" lon="-8.434116286401151"><ele>845.0</ele><time>2026-04-15T11:37:50Z</time></trkpt><trkpt lat="29.65223069107463" lon="-8.433974962076356"><ele>845.0</ele><time>2026-04-15T11:37:51Z</time></trkpt><trkpt lat="29.652127434349705" lon="-8.433832617898243"><ele>845.0</ele><time>2026-04-15T11:37:52Z</time></trkpt><trkpt lat="29.652025512033383" lon="-8.43369984464845"><ele>844.0</ele><time>2026-04-15T11:37:53Z</time></trkpt><trkpt lat="29.651924684507243" lon="-8.4335735746666"><ele>843.0</ele><time>2026-04-15T11:37:54Z</time></trkpt><trkpt lat="29.651827525614706" lon="-8.433451070457062"><ele>842.0</ele><time>2026-04-15T11:37:55Z</time></trkpt><trkpt lat="29.651731623334395" lon="-8.4333260997685"><ele>841.0</ele><time>2026-04-15T11:37:56Z</time></trkpt><trkpt lat="29.651632069987443" lon="-8.433198669132041"><ele>841.0</ele><time>2026-04-15T11:37:57Z</time></trkpt><trkpt lat="29.651524274721133" lon="-8.433061202103232"><ele>841.0</ele><time>2026-04-15T11:37:58Z</time></trkpt><trkpt lat="29.65141880694733" lon="-8.432916689939288"><ele>841.0</ele><time>2026-04-15T11:37:59Z</time></trkpt><trkpt lat="29.651314764234993" lon="-8.43276621410955"><ele>841.6666666666666</ele><time>2026-04-15T11:38:00Z</time></trkpt><trkpt lat="29.651214107498607" lon="-8.432613154392739"><ele>842.3333333333333</ele><time>2026-04-15T11:38:01Z</time></trkpt><trkpt lat="29.6511149790301" lon="-8.432450809311167"><ele>843.0</ele><time>2026-04-15T11:38:02Z</time></trkpt><trkpt lat="29.651014527811167" lon="-8.432272694392044"><ele>840.6666666666667</ele><time>2026-04-15T11:38:03Z</time></trkpt><trkpt lat="29.65091374052111" lon="-8.432094548236616"><ele>838.3333333333334</ele><time>2026-04-15T11:38:04Z</time></trkpt><trkpt lat="29.650816257024825" lon="-8.43192317550478"><ele>836.0</ele><time>2026-04-15T11:38:05Z</time></trkpt><trkpt lat="29.65072196292489" lon="-8.431743617562994"><ele>836.0</ele><time>2026-04-15T11:38:06Z</time></trkpt><trkpt lat="29.650632381525593" lon="-8.43155615654245"><ele>836.0</ele><time>2026-04-15T11:38:07Z</time></trkpt><trkpt lat="29.650545662753405" lon="-8.431353468441069"><ele>836.0</ele><time>2026-04-15T11:38:08Z</time></trkpt><trkpt lat="29.650457052501576" lon="-8.431136777664088"><ele>836.3333333333334</ele><time>2026-04-15T11:38:09Z</time></trkpt><trkpt lat="29.650369365458463" lon="-8.430918292224872"><ele>836.6666666666667</ele><time>2026-04-15T11:38:10Z</time></trkpt><trkpt lat="29.65027976794447" lon="-8.430699730171142"><ele>837.0</ele><time>2026-04-15T11:38:11Z</time></trkpt><trkpt lat="29.650193959209137" lon="-8.430477813770702"><ele>834.6666666666667</ele><time>2026-04-15T11:38:12Z</time></trkpt><trkpt lat="29.650108421805673" lon="-8.430260265219314"><ele>832.3333333333334</ele><time>2026-04-15T11:38:13Z</time></trkpt><trkpt lat="29.65002068348256" lon="-8.430043721073801"><ele>830.0</ele><time>2026-04-15T11:38:14Z</time></trkpt><trkpt lat="29.649933310276726" lon="-8.42982939794547"><ele>830.3333333333334</ele><time>2026-04-15T11:38:15Z</time></trkpt><trkpt lat="29.649847510365074" lon="-8.429614408709565"><ele>830.6666666666667</ele><time>2026-04-15T11:38:16Z</time></trkpt><trkpt lat="29.649759784577913" lon="-8.429397703026826"><ele>831.0</ele><time>2026-04-15T11:38:17Z</time></trkpt><trkpt lat="29.649675311748506" lon="-8.429181983964236"><ele>831.0</ele><time>2026-04-15T11:38:18Z</time></trkpt><trkpt lat="29.64958725657115" lon="-8.428968280137688"><ele>831.0</ele><time>2026-04-15T11:38:19Z</time></trkpt><trkpt lat="29.649494418436323" lon="-8.42874855037207"><ele>831.0</ele><time>2026-04-15T11:38:20Z</time></trkpt><trkpt lat="29.649398150460446" lon="-8.428518136545293"><ele>828.5</ele><time>2026-04-15T11:38:21Z</time></trkpt><trkpt lat="29.649294197571976" lon="-8.428280801914939"><ele>826.0</ele><time>2026-04-15T11:38:22Z</time></trkpt><trkpt lat="29.649181074668782" lon="-8.428042726155034"><ele>826.5</ele><time>2026-04-15T11:38:23Z</time></trkpt><trkpt lat="29.64906455140879" lon="-8.427809782219759"><ele>827.0</ele><time>2026-04-15T11:38:24Z</time></trkpt><trkpt lat="29.648954485643262" lon="-8.42759248101445"><ele>827.0</ele><time>2026-04-15T11:38:25Z</time></trkpt><trkpt lat="29.6488469830958" lon="-8.427387786703148"><ele>827.0</ele><time>2026-04-15T11:38:26Z</time></trkpt><trkpt lat="29.64874097075547" lon="-8.427189884216066"><ele>827.0</ele><time>2026-04-15T11:38:27Z</time></trkpt><trkpt lat="29.648628742041645" lon="-8.426989730321205"><ele>825.6666666666667</ele><time>2026-04-15T11:38:28Z</time></trkpt><trkpt lat="29.648508261605066" lon="-8.42677647578904"><ele>824.3333333333333</ele><time>2026-04-15T11:38:29Z</time></trkpt><trkpt lat="29.648390126122596" lon="-8.426566745957667"><ele>823.0</ele><time>2026-04-15T11:38:30Z</time></trkpt><trkpt lat="29.648266484521574" lon="-8.426346736956845"><ele>822.5</ele><time>2026-04-15T11:38:31Z</time></trkpt><trkpt lat="29.648142539845992" lon="-8.426121519313783"><ele>822.0</ele><time>2026-04-15T11:38:32Z</time></trkpt><trkpt lat="29.648015157932818" lon="-8.425893296289168"><ele>822.0</ele><time>2026-04-15T11:38:33Z</time></trkpt><trkpt lat="29.647885768203523" lon="-8.425668067858787"><ele>822.0</ele><time>2026-04-15T11:38:34Z</time></trkpt><trkpt lat="29.64775858871742" lon="-8.42545162893647"><ele>821.6666666666667</ele><time>2026-04-15T11:38:35Z</time></trkpt><trkpt lat="29.647637176094808" lon="-8.425249420219549"><ele>821.3333333333334</ele><time>2026-04-15T11:38:36Z</time></trkpt><trkpt lat="29.64752447010425" lon="-8.425066149500623"><ele>821.0</ele><time>2026-04-15T11:38:37Z</time></trkpt><trkpt lat="29.647414821680115" lon="-8.424884204829818"><ele>821.0</ele><time>2026-04-15T11:38:38Z</time></trkpt><trkpt lat="29.64731288600897" lon="-8.424708404430666"><ele>821.0</ele><time>2026-04-15T11:38:39Z</time></trkpt><trkpt lat="29.64721474081584" lon="-8.42453417600179"><ele>821.0</ele><time>2026-04-15T11:38:40Z</time></trkpt><trkpt lat="29.64711649050236" lon="-8.424354839112132"><ele>821.0</ele><time>2026-04-15T11:38:41Z</time></trkpt><trkpt lat="29.64701642758444" lon="-8.424173534420774"><ele>821.0</ele><time>2026-04-15T11:38:42Z</time></trkpt><trkpt lat="29.646912832640144" lon="-8.423993139630321"><ele>821.0</ele><time>2026-04-15T11:38:43Z</time></trkpt><trkpt lat="29.646804607358412" lon="-8.423807923998751"><ele>820.6666666666667</ele><time>2026-04-15T11:38:44Z</time></trkpt><trkpt lat="29.646699918409574" lon="-8.42362155653597"><ele>820.3333333333333</ele><time>2026-04-15T11:38:45Z</time></trkpt><trkpt lat="29.64659424142583" lon="-8.423437155774876"><ele>820.0</ele><time>2026-04-15T11:38:46Z</time></trkpt><trkpt lat="29.646489929509922" lon="-8.423254205575581"><ele>820.0</ele><time>2026-04-15T11:38:47Z</time></trkpt><trkpt lat="29.6463888901104" lon="-8.423072217369896"><ele>820.0</ele><time>2026-04-15T11:38:48Z</time></trkpt><trkpt lat="29.646295762358278" lon="-8.422893131369285"><ele>820.0</ele><time>2026-04-15T11:38:49Z</time></trkpt><trkpt lat="29.646209052577422" lon="-8.422717664812158"><ele>819.3333333333333</ele><time>2026-04-15T11:38:50Z</time></trkpt><trkpt lat="29.646127005758856" lon="-8.422545004782764"><ele>818.6666666666667</ele><time>2026-04-15T11:38:51Z</time></trkpt><trkpt lat="29.64604819646648" lon="-8.422373664534568"><ele>818.0</ele><time>2026-04-15T11:38:52Z</time></trkpt><trkpt lat="29.64596979335036" lon="-8.422210255050876"><ele>818.3333333333334</ele><time>2026-04-15T11:38:53Z</time></trkpt><trkpt lat="29.64590332075288" lon="-8.422044938701394"><ele>818.6666666666667</ele><time>2026-04-15T11:38:54Z</time></trkpt><trkpt lat="29.645842674342727" lon="-8.421880650451175"><ele>819.0</ele><time>2026-04-15T11:38:55Z</time></trkpt><trkpt lat="29.64578469278857" lon="-8.42171680896354"><ele>819.0</ele><time>2026-04-15T11:38:56Z</time></trkpt><trkpt lat="29.64572937069639" lon="-8.421554427108225"><ele>819.0</ele><time>2026-04-15T11:38:57Z</time></trkpt><trkpt lat="29.645676342546" lon="-8.421399872628248"><ele>819.0</ele><time>2026-04-15T11:38:58Z</time></trkpt><trkpt lat="29.645624497293625" lon="-8.421243809360323"><ele>819.0</ele><time>2026-04-15T11:38:59Z</time></trkpt><trkpt lat="29.645576203664454" lon="-8.421086381531003"><ele>819.25</ele><time>2026-04-15T11:39:00Z</time></trkpt><trkpt lat="29.645528257118162" lon="-8.420927059536016"><ele>819.5</ele><time>2026-04-15T11:39:01Z</time></trkpt><trkpt lat="29.64548386625096" lon="-8.420768986250406"><ele>819.75</ele><time>2026-04-15T11:39:02Z</time></trkpt><trkpt lat="29.645439673368976" lon="-8.42061461395005"><ele>820.0</ele><time>2026-04-15T11:39:03Z</time></trkpt><trkpt lat="29.64539328776417" lon="-8.420462090411869"><ele>820.0</ele><time>2026-04-15T11:39:04Z</time></trkpt><trkpt lat="29.645348075853203" lon="-8.420310920927534"><ele>820.0</ele><time>2026-04-15T11:39:05Z</time></trkpt><trkpt lat="29.645304654071797" lon="-8.42016267478803"><ele>820.0</ele><time>2026-04-15T11:39:06Z</time></trkpt><trkpt lat="29.645262469227227" lon="-8.420013708251417"><ele>820.0</ele><time>2026-04-15T11:39:07Z</time></trkpt><trkpt lat="29.64521308017546" lon="-8.419864706248493"><ele>820.0</ele><time>2026-04-15T11:39:08Z</time></trkpt><trkpt lat="29.645162843731455" lon="-8.419710500627188"><ele>820.0</ele><time>2026-04-15T11:39:09Z</time></trkpt><trkpt lat="29.64511509546813" lon="-8.41955137919379"><ele>820.0</ele><time>2026-04-15T11:39:10Z</time></trkpt><trkpt lat="29.645068144733294" lon="-8.419393529585419"><ele>820.0</ele><time>2026-04-15T11:39:11Z</time></trkpt><trkpt lat="29.645021540126027" lon="-8.419233405428502"><ele>820.25</ele><time>2026-04-15T11:39:12Z</time></trkpt><trkpt lat="29.644974173689437" lon="-8.41906908484792"><ele>820.5</ele><time>2026-04-15T11:39:13Z</time></trkpt><trkpt lat="29.6449266118455" lon="-8.418905282138217"><ele>820.75</ele><time>2026-04-15T11:39:14Z</time></trkpt><trkpt lat="29.644876840052135" lon="-8.418746460850212"><ele>821.0</ele><time>2026-04-15T11:39:15Z</time></trkpt><trkpt lat="29.644828345679237" lon="-8.41858862252303"><ele>821.5</ele><time>2026-04-15T11:39:16Z</time></trkpt><trkpt lat="29.644781863549742" lon="-8.41844526666232"><ele>822.0</ele><time>2026-04-15T11:39:17Z</time></trkpt><trkpt lat="29.644740854159007" lon="-8.418314034508503"><ele>822.5</ele><time>2026-04-15T11:39:18Z</time></trkpt><trkpt lat="29.644705431633604" lon="-8.418199890839915"><ele>823.0</ele><time>2026-04-15T11:39:19Z</time></trkpt><trkpt lat="29.644673879318244" lon="-8.418096371514986"><ele>822.9999999999999</ele><time>2026-04-15T11:39:20Z</time></trkpt><trkpt lat="29.644645387244374" lon="-8.418012302119298"><ele>823.0</ele><time>2026-04-15T11:39:21Z</time></trkpt><trkpt lat="29.644618902710135" lon="-8.417932527147594"><ele>823.0</ele><time>2026-04-15T11:39:23Z</time></trkpt><trkpt lat="29.64460256615768" lon="-8.417827511161383"><ele>823.0</ele><time>2026-04-15T11:40:00Z</time></trkpt><trkpt lat="29.644553924507633" lon="-8.417694755489897"><ele>822.9999999999999</ele><time>2026-04-15T11:40:02Z</time></trkpt><trkpt lat="29.644526610498772" lon="-8.417613257163996"><ele>823.0</ele><time>2026-04-15T11:40:03Z</time></trkpt><trkpt lat="29.644499644331777" lon="-8.417507046516285"><ele>823.5</ele><time>2026-04-15T11:40:04Z</time></trkpt><trkpt lat="29.64447079493984" lon="-8.417389154923901"><ele>824.0</ele><time>2026-04-15T11:40:05Z</time></trkpt><trkpt lat="29.644433646553562" lon="-8.41726105095145"><ele>824.5</ele><time>2026-04-15T11:40:06Z</time></trkpt><trkpt lat="29.644391666143715" lon="-8.417123313533578"><ele>825.0</ele><time>2026-04-15T11:40:07Z</time></trkpt><trkpt lat="29.64434413967015" lon="-8.416973014643801"><ele>825.6666666666667</ele><time>2026-04-15T11:40:08Z</time></trkpt><trkpt lat="29.64429268662626" lon="-8.41680979613751"><ele>826.3333333333334</ele><time>2026-04-15T11:40:09Z</time></trkpt><trkpt lat="29.644242608851496" lon="-8.416647552238079"><ele>827.0</ele><time>2026-04-15T11:40:10Z</time></trkpt><trkpt lat="29.64418910941515" lon="-8.416475237492916"><ele>827.6666666666667</ele><time>2026-04-15T11:40:11Z</time></trkpt><trkpt lat="29.644132066239184" lon="-8.416288747150194"><ele>828.3333333333333</ele><time>2026-04-15T11:40:12Z</time></trkpt><trkpt lat="29.644076796830106" lon="-8.416095445246583"><ele>829.0</ele><time>2026-04-15T11:40:13Z</time></trkpt><trkpt lat="29.64401838804043" lon="-8.415891219966866"><ele>829.0</ele><time>2026-04-15T11:40:14Z</time></trkpt><trkpt lat="29.643957939492264" lon="-8.415690272570767"><ele>829.0</ele><time>2026-04-15T11:40:15Z</time></trkpt><trkpt lat="29.64389660814842" lon="-8.415492123509354"><ele>829.0</ele><time>2026-04-15T11:40:16Z</time></trkpt><trkpt lat="29.643837270335457" lon="-8.415294120015085"><ele>829.6666666666666</ele><time>2026-04-15T11:40:17Z</time></trkpt><trkpt lat="29.643780595887012" lon="-8.41509586297279"><ele>830.3333333333333</ele><time>2026-04-15T11:40:18Z</time></trkpt><trkpt lat="29.643725997092623" lon="-8.414891989248916"><ele>831.0</ele><time>2026-04-15T11:40:19Z</time></trkpt><trkpt lat="29.643663527558758" lon="-8.414684797856419"><ele>830.3333333333333</ele><time>2026-04-15T11:40:20Z</time></trkpt><trkpt lat="29.64359791948825" lon="-8.414473576695713"><ele>829.6666666666666</ele><time>2026-04-15T11:40:21Z</time></trkpt><trkpt lat="29.643529681895274" lon="-8.414258945092598"><ele>829.0</ele><time>2026-04-15T11:40:22Z</time></trkpt><trkpt lat="29.643463604594082" lon="-8.414039293513438"><ele>829.3333333333333</ele><time>2026-04-15T11:40:23Z</time></trkpt><trkpt lat="29.643395360535315" lon="-8.413813127567229"><ele>829.6666666666667</ele><time>2026-04-15T11:40:24Z</time></trkpt><trkpt lat="29.64332592937694" lon="-8.413582762355974"><ele>830.0</ele><time>2026-04-15T11:40:25Z</time></trkpt><trkpt lat="29.643256532873835" lon="-8.41335030876792"><ele>830.0</ele><time>2026-04-15T11:40:26Z</time></trkpt><trkpt lat="29.643189035854675" lon="-8.413117397368403"><ele>830.0</ele><time>2026-04-15T11:40:27Z</time></trkpt><trkpt lat="29.64312081024034" lon="-8.412887431868201"><ele>830.0</ele><time>2026-04-15T11:40:28Z</time></trkpt><trkpt lat="29.64305227760363" lon="-8.412650390544414"><ele>831.0</ele><time>2026-04-15T11:40:29Z</time></trkpt><trkpt lat="29.642980278245613" lon="-8.412404998497056"><ele>832.0</ele><time>2026-04-15T11:40:30Z</time></trkpt><trkpt lat="29.642906347688477" lon="-8.41215939360183"><ele>831.0</ele><time>2026-04-15T11:40:31Z</time></trkpt><trkpt lat="29.642829829599215" lon="-8.411914115473778"><ele>830.0</ele><time>2026-04-15T11:40:32Z</time></trkpt><trkpt lat="29.642755685751357" lon="-8.411670743663255"><ele>830.0</ele><time>2026-04-15T11:40:33Z</time></trkpt><trkpt lat="29.64268622034525" lon="-8.411439284061315"><ele>830.0</ele><time>2026-04-15T11:40:34Z</time></trkpt><trkpt lat="29.64262322036428" lon="-8.41121850026066"><ele>830.0</ele><time>2026-04-15T11:40:35Z</time></trkpt><trkpt lat="29.64256167260776" lon="-8.41099375563032"><ele>829.0</ele><time>2026-04-15T11:40:36Z</time></trkpt><trkpt lat="29.642507484823376" lon="-8.410764251252559"><ele>828.0</ele><time>2026-04-15T11:40:37Z</time></trkpt><trkpt lat="29.64246733358275" lon="-8.410521723122066"><ele>827.0</ele><time>2026-04-15T11:40:38Z</time></trkpt><trkpt lat="29.642433061218252" lon="-8.410274956638322"><ele>825.0</ele><time>2026-04-15T11:40:39Z</time></trkpt><trkpt lat="29.642398330914336" lon="-8.410017328929127"><ele>823.0</ele><time>2026-04-15T11:40:40Z</time></trkpt><trkpt lat="29.64236654132637" lon="-8.409759844609958"><ele>821.5</ele><time>2026-04-15T11:40:41Z</time></trkpt><trkpt lat="29.642337746449382" lon="-8.409501212177132"><ele>820.0</ele><time>2026-04-15T11:40:42Z</time></trkpt><trkpt lat="29.64232051121862" lon="-8.40923911408971"><ele>820.0</ele><time>2026-04-15T11:40:43Z</time></trkpt><trkpt lat="29.642310899071443" lon="-8.408979153543298"><ele>820.0</ele><time>2026-04-15T11:40:44Z</time></trkpt><trkpt lat="29.642300415718317" lon="-8.408724814461072"><ele>820.0</ele><time>2026-04-15T11:40:45Z</time></trkpt><trkpt lat="29.642287032568962" lon="-8.408471161513173"><ele>819.0</ele><time>2026-04-15T11:40:46Z</time></trkpt><trkpt lat="29.64227121235903" lon="-8.408223031577911"><ele>818.0</ele><time>2026-04-15T11:40:47Z</time></trkpt><trkpt lat="29.642252781266695" lon="-8.407977427735497"><ele>817.0</ele><time>2026-04-15T11:40:48Z</time></trkpt><trkpt lat="29.642244276458623" lon="-8.407731348821907"><ele>816.3333333333333</ele><time>2026-04-15T11:40:49Z</time></trkpt><trkpt lat="29.64223088003642" lon="-8.407489100175551"><ele>815.6666666666667</ele><time>2026-04-15T11:40:50Z</time></trkpt><trkpt lat="29.64221459159307" lon="-8.407248004648146"><ele>815.0</ele><time>2026-04-15T11:40:51Z</time></trkpt><trkpt lat="29.64219879376734" lon="-8.407012554746215"><ele>813.3333333333334</ele><time>2026-04-15T11:40:52Z</time></trkpt><trkpt lat="29.642187677372696" lon="-8.406783053205913"><ele>811.6666666666667</ele><time>2026-04-15T11:40:53Z</time></trkpt><trkpt lat="29.642175364730218" lon="-8.40656082599197"><ele>810.0</ele><time>2026-04-15T11:40:54Z</time></trkpt><trkpt lat="29.64216409831875" lon="-8.406350850349272"><ele>809.6666666666667</ele><time>2026-04-15T11:40:55Z</time></trkpt><trkpt lat="29.642150208795627" lon="-8.40613289900569"><ele>809.3333333333334</ele><time>2026-04-15T11:40:56Z</time></trkpt><trkpt lat="29.642136244046306" lon="-8.405910620486424"><ele>809.0</ele><time>2026-04-15T11:40:57Z</time></trkpt><trkpt lat="29.642121090815984" lon="-8.405683791224895"><ele>808.3333333333334</ele><time>2026-04-15T11:40:58Z</time></trkpt><trkpt lat="29.642111052858084" lon="-8.405460920416528"><ele>807.6666666666667</ele><time>2026-04-15T11:40:59Z</time></trkpt><trkpt lat="29.64210113287418" lon="-8.405241701081428"><ele>807.0</ele><time>2026-04-15T11:41:00Z</time></trkpt><trkpt lat="29.64208686735166" lon="-8.405024539450768"><ele>807.0</ele><time>2026-04-15T11:41:01Z</time></trkpt><trkpt lat="29.642073141220845" lon="-8.40480860156012"><ele>807.0</ele><time>2026-04-15T11:41:02Z</time></trkpt><trkpt lat="29.642059363578632" lon="-8.404602055258493"><ele>807.0</ele><time>2026-04-15T11:41:03Z</time></trkpt><trkpt lat="29.64205012651215" lon="-8.404397704927288"><ele>808.0</ele><time>2026-04-15T11:41:04Z</time></trkpt><trkpt lat="29.642036661531392" lon="-8.404210137239474"><ele>809.0</ele><time>2026-04-15T11:41:05Z</time></trkpt><trkpt lat="29.642028111767825" lon="-8.40403326276341"><ele>810.0</ele><time>2026-04-15T11:41:06Z</time></trkpt><trkpt lat="29.642016067460272" lon="-8.403855297236202"><ele>810.3333333333333</ele><time>2026-04-15T11:41:07Z</time></trkpt><trkpt lat="29.642000846457286" lon="-8.403671051145805"><ele>810.6666666666666</ele><time>2026-04-15T11:41:08Z</time></trkpt><trkpt lat="29.641990531820156" lon="-8.403485295085016"><ele>811.0</ele><time>2026-04-15T11:41:09Z</time></trkpt><trkpt lat="29.641986331874733" lon="-8.403298084267607"><ele>811.0</ele><time>2026-04-15T11:41:10Z</time></trkpt><trkpt lat="29.641984966318066" lon="-8.403105360716225"><ele>811.0</ele><time>2026-04-15T11:41:11Z</time></trkpt><trkpt lat="29.641976789007302" lon="-8.402913902121703"><ele>811.0</ele><time>2026-04-15T11:41:12Z</time></trkpt><trkpt lat="29.641970556118974" lon="-8.402720439227549"><ele>812.0</ele><time>2026-04-15T11:41:13Z</time></trkpt><trkpt lat="29.641972116998804" lon="-8.402521024059439"><ele>813.0</ele><time>2026-04-15T11:41:14Z</time></trkpt><trkpt lat="29.64197981150631" lon="-8.40233338400428"><ele>814.0</ele><time>2026-04-15T11:41:15Z</time></trkpt><trkpt lat="29.64199552264276" lon="-8.402164828770227"><ele>814.25</ele><time>2026-04-15T11:41:16Z</time></trkpt><trkpt lat="29.64201470728742" lon="-8.402002805039375"><ele>814.5</ele><time>2026-04-15T11:41:17Z</time></trkpt><trkpt lat="29.642040302672786" lon="-8.401841902389947"><ele>814.75</ele><time>2026-04-15T11:41:18Z</time></trkpt><trkpt lat="29.642062282624508" lon="-8.401686544673295"><ele>815.0</ele><time>2026-04-15T11:41:19Z</time></trkpt><trkpt lat="29.642101882239796" lon="-8.401525898059289"><ele>815.0</ele><time>2026-04-15T11:41:20Z</time></trkpt><trkpt lat="29.64214054117029" lon="-8.401377990907093"><ele>815.0</ele><time>2026-04-15T11:41:21Z</time></trkpt><trkpt lat="29.6421761992525" lon="-8.401249173469907"><ele>815.0</ele><time>2026-04-15T11:41:22Z</time></trkpt><trkpt lat="29.6422065922194" lon="-8.401147881448766"><ele>815.0</ele><time>2026-04-15T11:41:23Z</time></trkpt><trkpt lat="29.64223267701528" lon="-8.401056656471678"><ele>815.0</ele><time>2026-04-15T11:41:24Z</time></trkpt><trkpt lat="29.642257852307296" lon="-8.400979155896529"><ele>815.0</ele><time>2026-04-15T11:41:25Z</time></trkpt><trkpt lat="29.642312149500658" lon="-8.40084275472829"><ele>815.0</ele><time>2026-04-15T11:41:27Z</time></trkpt><trkpt lat="29.642347253156608" lon="-8.400759353807178"><ele>815.0</ele><time>2026-04-15T11:41:28Z</time></trkpt><trkpt lat="29.642382181451236" lon="-8.400662479096233"><ele>815.0</ele><time>2026-04-15T11:41:29Z</time></trkpt><trkpt lat="29.642419307303577" lon="-8.400558466063798"><ele>815.0</ele><time>2026-04-15T11:41:30Z</time></trkpt><trkpt lat="29.64246556181495" lon="-8.400449567994979"><ele>815.0</ele><time>2026-04-15T11:41:31Z</time></trkpt><trkpt lat="29.64251513463345" lon="-8.400346458590171"><ele>815.0</ele><time>2026-04-15T11:41:32Z</time></trkpt><trkpt lat="29.642567434606313" lon="-8.400240561086123"><ele>815.0</ele><time>2026-04-15T11:41:33Z</time></trkpt><trkpt lat="29.64261918407599" lon="-8.40012533265729"><ele>815.0</ele><time>2026-04-15T11:41:34Z</time></trkpt><trkpt lat="29.64267246122751" lon="-8.4000072202133"><ele>815.0</ele><time>2026-04-15T11:41:35Z</time></trkpt><trkpt lat="29.64272579466882" lon="-8.399891464734278"><ele>815.0000000000001</ele><time>2026-04-15T11:41:36Z</time></trkpt><trkpt lat="29.64277955612408" lon="-8.399788581445533"><ele>815.0</ele><time>2026-04-15T11:41:37Z</time></trkpt><trkpt lat="29.642829837208996" lon="-8.399693865129738"><ele>815.0</ele><time>2026-04-15T11:41:38Z</time></trkpt><trkpt lat="29.642871249071597" lon="-8.399609941739548"><ele>815.0</ele><time>2026-04-15T11:41:39Z</time></trkpt><trkpt lat="29.6429085219696" lon="-8.399531423878843"><ele>815.0000000000001</ele><time>2026-04-15T11:41:40Z</time></trkpt><trkpt lat="29.642945216877887" lon="-8.399451321001251"><ele>815.0</ele><time>2026-04-15T11:41:41Z</time></trkpt><trkpt lat="29.642983688593684" lon="-8.399370283644727"><ele>816.2</ele><time>2026-04-15T11:41:42Z</time></trkpt><trkpt lat="29.643025457429" lon="-8.399285073862716"><ele>817.4</ele><time>2026-04-15T11:41:43Z</time></trkpt><trkpt lat="29.64306759803104" lon="-8.399192130590212"><ele>818.5999999999999</ele><time>2026-04-15T11:41:44Z</time></trkpt><trkpt lat="29.64310943170064" lon="-8.399097773744302"><ele>819.8</ele><time>2026-04-15T11:41:45Z</time></trkpt><trkpt lat="29.643153618311956" lon="-8.399005489378368"><ele>821.0</ele><time>2026-04-15T11:41:46Z</time></trkpt><trkpt lat="29.643201005889036" lon="-8.398912845494515"><ele>821.3333333333334</ele><time>2026-04-15T11:41:47Z</time></trkpt><trkpt lat="29.643250490518295" lon="-8.39881999378591"><ele>821.6666666666667</ele><time>2026-04-15T11:41:48Z</time></trkpt><trkpt lat="29.643291532465245" lon="-8.398733014638758"><ele>822.0</ele><time>2026-04-15T11:41:49Z</time></trkpt><trkpt lat="29.643327994167645" lon="-8.398648373962537"><ele>822.3333333333333</ele><time>2026-04-15T11:41:50Z</time></trkpt><trkpt lat="29.643367123447614" lon="-8.398561394200753"><ele>822.6666666666666</ele><time>2026-04-15T11:41:51Z</time></trkpt><trkpt lat="29.64340878096671" lon="-8.398471277994881"><ele>823.0</ele><time>2026-04-15T11:41:52Z</time></trkpt><trkpt lat="29.643454656974658" lon="-8.39837632514196"><ele>823.0</ele><time>2026-04-15T11:41:53Z</time></trkpt><trkpt lat="29.64350307899516" lon="-8.398277199541122"><ele>823.0</ele><time>2026-04-15T11:41:54Z</time></trkpt><trkpt lat="29.643554158853334" lon="-8.398176314380722"><ele>823.0</ele><time>2026-04-15T11:41:55Z</time></trkpt><trkpt lat="29.64360380400707" lon="-8.39807501223327"><ele>823.0</ele><time>2026-04-15T11:41:56Z</time></trkpt><trkpt lat="29.643653311135406" lon="-8.397972108184229"><ele>823.0</ele><time>2026-04-15T11:41:57Z</time></trkpt><trkpt lat="29.643702077597393" lon="-8.397866230797769"><ele>823.8</ele><time>2026-04-15T11:41:58Z</time></trkpt><trkpt lat="29.64375268256307" lon="-8.397759067797868"><ele>824.5999999999999</ele><time>2026-04-15T11:41:59Z</time></trkpt><trkpt lat="29.64380453930419" lon="-8.397649198473301"><ele>825.4000000000001</ele><time>2026-04-15T11:42:00Z</time></trkpt><trkpt lat="29.643857338365724" lon="-8.397536052606373"><ele>826.2</ele><time>2026-04-15T11:42:01.001Z</time></trkpt><trkpt lat="29.643911301468247" lon="-8.397418981271027"><ele>827.0</ele><time>2026-04-15T11:42:02Z</time></trkpt><trkpt lat="29.64396554783896" lon="-8.397303745427447"><ele>827.0</ele><time>2026-04-15T11:42:03Z</time></trkpt><trkpt lat="29.64402023992226" lon="-8.39718635257675"><ele>827.0</ele><time>2026-04-15T11:42:04Z</time></trkpt><trkpt lat="29.64407591255809" lon="-8.397069327318613"><ele>827.0</ele><time>2026-04-15T11:42:05Z</time></trkpt><trkpt lat="29.644132662889575" lon="-8.396950108285267"><ele>827.0</ele><time>2026-04-15T11:42:06Z</time></trkpt><trkpt lat="29.644193579346627" lon="-8.396831028009236"><ele>827.0</ele><time>2026-04-15T11:42:07Z</time></trkpt><trkpt lat="29.644254286830517" lon="-8.396710017334946"><ele>827.0</ele><time>2026-04-15T11:42:08Z</time></trkpt><trkpt lat="29.644316095414993" lon="-8.396587461154873"><ele>827.0</ele><time>2026-04-15T11:42:09Z</time></trkpt><trkpt lat="29.64435566897061" lon="-8.396449658585677"><ele>827.0</ele><time>2026-04-15T11:42:10Z</time></trkpt><trkpt lat="29.644427665921423" lon="-8.396331138891084"><ele>828.5</ele><time>2026-04-15T11:42:11Z</time></trkpt><trkpt lat="29.644483319041967" lon="-8.396204080872657"><ele>830.0</ele><time>2026-04-15T11:42:12Z</time></trkpt><trkpt lat="29.64454546468036" lon="-8.396076239389364"><ele>831.5</ele><time>2026-04-15T11:42:13Z</time></trkpt><trkpt lat="29.64460750019409" lon="-8.395942675249831"><ele>833.0</ele><time>2026-04-15T11:42:14Z</time></trkpt><trkpt lat="29.64466512194057" lon="-8.39580469071798"><ele>833.0</ele><time>2026-04-15T11:42:15Z</time></trkpt><trkpt lat="29.64471143145916" lon="-8.395667754098428"><ele>833.0</ele><time>2026-04-15T11:42:16Z</time></trkpt><trkpt lat="29.64475333255713" lon="-8.395527390543467"><ele>833.0</ele><time>2026-04-15T11:42:17Z</time></trkpt><trkpt lat="29.644793536133676" lon="-8.395384231876205"><ele>833.0</ele><time>2026-04-15T11:42:18Z</time></trkpt><trkpt lat="29.64483154414722" lon="-8.395238434541204"><ele>833.25</ele><time>2026-04-15T11:42:19Z</time></trkpt><trkpt lat="29.644867527771495" lon="-8.395093342156"><ele>833.5</ele><time>2026-04-15T11:42:20Z</time></trkpt><trkpt lat="29.6448970260768" lon="-8.394954279216012"><ele>833.75</ele><time>2026-04-15T11:42:21Z</time></trkpt><trkpt lat="29.64492020751475" lon="-8.394814449015279"><ele>834.0</ele><time>2026-04-15T11:42:22Z</time></trkpt><trkpt lat="29.644943289141153" lon="-8.39467077737291"><ele>834.5</ele><time>2026-04-15T11:42:23Z</time></trkpt><trkpt lat="29.644956798389952" lon="-8.394524369310073"><ele>835.0</ele><time>2026-04-15T11:42:24Z</time></trkpt><trkpt lat="29.644960900602683" lon="-8.394372585257363"><ele>835.5</ele><time>2026-04-15T11:42:25Z</time></trkpt><trkpt lat="29.644968075423765" lon="-8.39421907750933"><ele>836.0</ele><time>2026-04-15T11:42:26Z</time></trkpt><trkpt lat="29.64497225271569" lon="-8.394070700087383"><ele>836.0</ele><time>2026-04-15T11:42:27Z</time></trkpt><trkpt lat="29.64497444782841" lon="-8.393910713405072"><ele>836.0</ele><time>2026-04-15T11:42:28Z</time></trkpt><trkpt lat="29.644963786435834" lon="-8.393752598435537"><ele>836.0</ele><time>2026-04-15T11:42:29Z</time></trkpt><trkpt lat="29.644945728616015" lon="-8.393599326235673"><ele>836.0</ele><time>2026-04-15T11:42:30Z</time></trkpt><trkpt lat="29.644925687895356" lon="-8.39344838301532"><ele>836.75</ele><time>2026-04-15T11:42:31Z</time></trkpt><trkpt lat="29.64490314728351" lon="-8.393298329598064"><ele>837.5</ele><time>2026-04-15T11:42:32Z</time></trkpt><trkpt lat="29.64487842630603" lon="-8.393140972473669"><ele>838.25</ele><time>2026-04-15T11:42:33Z</time></trkpt><trkpt lat="29.64485043000418" lon="-8.392985216458335"><ele>839.0</ele><time>2026-04-15T11:42:34Z</time></trkpt><trkpt lat="29.644823148554035" lon="-8.392831434886347"><ele>839.5</ele><time>2026-04-15T11:42:35Z</time></trkpt><trkpt lat="29.644793559650136" lon="-8.392678049672657"><ele>840.0</ele><time>2026-04-15T11:42:36Z</time></trkpt><trkpt lat="29.64476748769683" lon="-8.392527759905226"><ele>840.5</ele><time>2026-04-15T11:42:37Z</time></trkpt><trkpt lat="29.644743988109433" lon="-8.392375928823903"><ele>841.0</ele><time>2026-04-15T11:42:38Z</time></trkpt><trkpt lat="29.64471679774882" lon="-8.39222457900641"><ele>841.75</ele><time>2026-04-15T11:42:39Z</time></trkpt><trkpt lat="29.64468679720736" lon="-8.39206987781675"><ele>842.5</ele><time>2026-04-15T11:42:40Z</time></trkpt><trkpt lat="29.64465624357908" lon="-8.391909695608707"><ele>843.25</ele><time>2026-04-15T11:42:41Z</time></trkpt><trkpt lat="29.644630614731096" lon="-8.391748800799368"><ele>844.0</ele><time>2026-04-15T11:42:42Z</time></trkpt><trkpt lat="29.64460452835181" lon="-8.39159078663985"><ele>844.0</ele><time>2026-04-15T11:42:43Z</time></trkpt><trkpt lat="29.64457497972331" lon="-8.391429804375145"><ele>844.0</ele><time>2026-04-15T11:42:44Z</time></trkpt><trkpt lat="29.644547734032873" lon="-8.39127215885972"><ele>844.0</ele><time>2026-04-15T11:42:45Z</time></trkpt><trkpt lat="29.64452407069896" lon="-8.391117811993634"><ele>844.0</ele><time>2026-04-15T11:42:46Z</time></trkpt><trkpt lat="29.644498827318525" lon="-8.390965485457478"><ele>844.0</ele><time>2026-04-15T11:42:47Z</time></trkpt><trkpt lat="29.64447225628425" lon="-8.390810855472612"><ele>844.0</ele><time>2026-04-15T11:42:48Z</time></trkpt><trkpt lat="29.64444181378301" lon="-8.390650378280398"><ele>844.0</ele><time>2026-04-15T11:42:49Z</time></trkpt><trkpt lat="29.644410247443428" lon="-8.390488035373023"><ele>844.0</ele><time>2026-04-15T11:42:50Z</time></trkpt><trkpt lat="29.644381235594157" lon="-8.390325413030046"><ele>844.0</ele><time>2026-04-15T11:42:51Z</time></trkpt><trkpt lat="29.644355877556894" lon="-8.390157743844432"><ele>844.0</ele><time>2026-04-15T11:42:52Z</time></trkpt><trkpt lat="29.64432841642454" lon="-8.389995742910175"><ele>844.0</ele><time>2026-04-15T11:42:53Z</time></trkpt><trkpt lat="29.644300632185573" lon="-8.389841120686944"><ele>844.0</ele><time>2026-04-15T11:42:54Z</time></trkpt><trkpt lat="29.64427310836753" lon="-8.389683754394378"><ele>844.5</ele><time>2026-04-15T11:42:55Z</time></trkpt><trkpt lat="29.64424871271929" lon="-8.389525234834903"><ele>845.0</ele><time>2026-04-15T11:42:56Z</time></trkpt><trkpt lat="29.644225749489735" lon="-8.389379846569376"><ele>845.5</ele><time>2026-04-15T11:42:57Z</time></trkpt><trkpt lat="29.644203265601696" lon="-8.389235755442044"><ele>846.0</ele><time>2026-04-15T11:42:58Z</time></trkpt><trkpt lat="29.64417732635473" lon="-8.389087187455784"><ele>846.0</ele><time>2026-04-15T11:42:59Z</time></trkpt><trkpt lat="29.64414848322317" lon="-8.38893830257043"><ele>846.0</ele><time>2026-04-15T11:43:00Z</time></trkpt><trkpt lat="29.644122072644553" lon="-8.388793543255671"><ele>846.0</ele><time>2026-04-15T11:43:01Z</time></trkpt><trkpt lat="29.644096832718414" lon="-8.38864558227107"><ele>846.0</ele><time>2026-04-15T11:43:02Z</time></trkpt><trkpt lat="29.64406985393708" lon="-8.388491708847283"><ele>846.75</ele><time>2026-04-15T11:43:03Z</time></trkpt><trkpt lat="29.644040639165453" lon="-8.388329452947936"><ele>847.5</ele><time>2026-04-15T11:43:04Z</time></trkpt><trkpt lat="29.64401131826127" lon="-8.388156755986534"><ele>848.25</ele><time>2026-04-15T11:43:05Z</time></trkpt><trkpt lat="29.64398305694227" lon="-8.387988425959273"><ele>849.0</ele><time>2026-04-15T11:43:06Z</time></trkpt><trkpt lat="29.643953281991696" lon="-8.387823874647665"><ele>849.75</ele><time>2026-04-15T11:43:07Z</time></trkpt><trkpt lat="29.643923983463598" lon="-8.38765558666899"><ele>850.5</ele><time>2026-04-15T11:43:08Z</time></trkpt><trkpt lat="29.643897342415517" lon="-8.387489364655494"><ele>851.25</ele><time>2026-04-15T11:43:09Z</time></trkpt><trkpt lat="29.6438707706865" lon="-8.38732629695249"><ele>852.0</ele><time>2026-04-15T11:43:10Z</time></trkpt><trkpt lat="29.64384404771303" lon="-8.3871728123762"><ele>852.25</ele><time>2026-04-15T11:43:11Z</time></trkpt><trkpt lat="29.643816130032487" lon="-8.387018589846189"><ele>852.5</ele><time>2026-04-15T11:43:12Z</time></trkpt><trkpt lat="29.643785730846506" lon="-8.386866544239117"><ele>852.75</ele><time>2026-04-15T11:43:13Z</time></trkpt><trkpt lat="29.643757245717286" lon="-8.38671503609743"><ele>853.0</ele><time>2026-04-15T11:43:14Z</time></trkpt><trkpt lat="29.64372944867865" lon="-8.386559624181038"><ele>853.0</ele><time>2026-04-15T11:43:15Z</time></trkpt><trkpt lat="29.643701172349676" lon="-8.386399967908325"><ele>853.0</ele><time>2026-04-15T11:43:16Z</time></trkpt><trkpt lat="29.643672253726553" lon="-8.38623794620853"><ele>853.0</ele><time>2026-04-15T11:43:17Z</time></trkpt><trkpt lat="29.643645565777046" lon="-8.386065578677162"><ele>853.0</ele><time>2026-04-15T11:43:18Z</time></trkpt><trkpt lat="29.64361860211993" lon="-8.385890303114044"><ele>851.3333333333333</ele><time>2026-04-15T11:43:19Z</time></trkpt><trkpt lat="29.643590602867306" lon="-8.385714037294317"><ele>849.6666666666667</ele><time>2026-04-15T11:43:20Z</time></trkpt><trkpt lat="29.64356158503438" lon="-8.385540370349736"><ele>848.0</ele><time>2026-04-15T11:43:21Z</time></trkpt><trkpt lat="29.643530614308485" lon="-8.385369488094046"><ele>847.3333333333334</ele><time>2026-04-15T11:43:22Z</time></trkpt><trkpt lat="29.6434972637696" lon="-8.385197051411414"><ele>846.6666666666667</ele><time>2026-04-15T11:43:23Z</time></trkpt><trkpt lat="29.64346265801745" lon="-8.385024660672675"><ele>846.0</ele><time>2026-04-15T11:43:24Z</time></trkpt><trkpt lat="29.64343076383575" lon="-8.384848396483145"><ele>844.6666666666667</ele><time>2026-04-15T11:43:25Z</time></trkpt><trkpt lat="29.643400771304286" lon="-8.384669713862316"><ele>843.3333333333334</ele><time>2026-04-15T11:43:26Z</time></trkpt><trkpt lat="29.643373785660692" lon="-8.384484960539918"><ele>842.0</ele><time>2026-04-15T11:43:27Z</time></trkpt><trkpt lat="29.643339857194313" lon="-8.384297535035545"><ele>842.0</ele><time>2026-04-15T11:43:28Z</time></trkpt><trkpt lat="29.643305451543537" lon="-8.384107389147555"><ele>842.0</ele><time>2026-04-15T11:43:29Z</time></trkpt><trkpt lat="29.643271049215052" lon="-8.383913282068802"><ele>842.0</ele><time>2026-04-15T11:43:30Z</time></trkpt><trkpt lat="29.64323832890153" lon="-8.383719281695454"><ele>840.6666666666667</ele><time>2026-04-15T11:43:31Z</time></trkpt><trkpt lat="29.64320859643997" lon="-8.383532582699328"><ele>839.3333333333333</ele><time>2026-04-15T11:43:32Z</time></trkpt><trkpt lat="29.643175401368282" lon="-8.383344106268826"><ele>838.0</ele><time>2026-04-15T11:43:33Z</time></trkpt><trkpt lat="29.64313950429028" lon="-8.383156224742857"><ele>838.0</ele><time>2026-04-15T11:43:34Z</time></trkpt><trkpt lat="29.64310631445156" lon="-8.382969877790185"><ele>838.0</ele><time>2026-04-15T11:43:35Z</time></trkpt><trkpt lat="29.64307746025731" lon="-8.382783185983948"><ele>838.0</ele><time>2026-04-15T11:43:36Z</time></trkpt><trkpt lat="29.643049757849226" lon="-8.382593229377207"><ele>838.0</ele><time>2026-04-15T11:43:37Z</time></trkpt><trkpt lat="29.643027906353097" lon="-8.382400399547302"><ele>838.0</ele><time>2026-04-15T11:43:38Z</time></trkpt><trkpt lat="29.643009169113103" lon="-8.382210666208879"><ele>838.0</ele><time>2026-04-15T11:43:39Z</time></trkpt><trkpt lat="29.642995918085905" lon="-8.382022618468554"><ele>839.0</ele><time>2026-04-15T11:43:40Z</time></trkpt><trkpt lat="29.64298817563922" lon="-8.381831857253378"><ele>840.0</ele><time>2026-04-15T11:43:41Z</time></trkpt><trkpt lat="29.642992658523994" lon="-8.381646389314895"><ele>841.0</ele><time>2026-04-15T11:43:42Z</time></trkpt><trkpt lat="29.643002707661775" lon="-8.38146421844816"><ele>842.0</ele><time>2026-04-15T11:43:43Z</time></trkpt><trkpt lat="29.643017468125077" lon="-8.381282064891328"><ele>843.0</ele><time>2026-04-15T11:43:44Z</time></trkpt><trkpt lat="29.643037546553998" lon="-8.381104821342818"><ele>844.0</ele><time>2026-04-15T11:43:45Z</time></trkpt><trkpt lat="29.643059661417233" lon="-8.380931994875052"><ele>844.0</ele><time>2026-04-15T11:43:46Z</time></trkpt><trkpt lat="29.64308486774596" lon="-8.38076259373978"><ele>844.0</ele><time>2026-04-15T11:43:47Z</time></trkpt><trkpt lat="29.643109104142496" lon="-8.38060509286207"><ele>844.0</ele><time>2026-04-15T11:43:48Z</time></trkpt><trkpt lat="29.643132884951175" lon="-8.380456467296181"><ele>844.0</ele><time>2026-04-15T11:43:49Z</time></trkpt><trkpt lat="29.64315790031212" lon="-8.380307330020731"><ele>844.0</ele><time>2026-04-15T11:43:50Z</time></trkpt><trkpt lat="29.643182369616337" lon="-8.380158962286568"><ele>844.0</ele><time>2026-04-15T11:43:51Z</time></trkpt><trkpt lat="29.6432010050546" lon="-8.380011723803683"><ele>844.0</ele><time>2026-04-15T11:43:52Z</time></trkpt><trkpt lat="29.643222786827817" lon="-8.379866427397879"><ele>844.0</ele><time>2026-04-15T11:43:53Z</time></trkpt><trkpt lat="29.643252179449743" lon="-8.379719197279286"><ele>844.25</ele><time>2026-04-15T11:43:54Z</time></trkpt><trkpt lat="29.64327968541166" lon="-8.37957377286206"><ele>844.5</ele><time>2026-04-15T11:43:55Z</time></trkpt><trkpt lat="29.64330649981606" lon="-8.379426586688698"><ele>844.75</ele><time>2026-04-15T11:43:56Z</time></trkpt><trkpt lat="29.643327780066112" lon="-8.379275807144458"><ele>845.0</ele><time>2026-04-15T11:43:57Z</time></trkpt><trkpt lat="29.64335293948967" lon="-8.379122864172492"><ele>845.0</ele><time>2026-04-15T11:43:58Z</time></trkpt><trkpt lat="29.64338137997561" lon="-8.378970057686976"><ele>845.0</ele><time>2026-04-15T11:43:59Z</time></trkpt><trkpt lat="29.6434106107158" lon="-8.378814893525666"><ele>845.0</ele><time>2026-04-15T11:44:00Z</time></trkpt><trkpt lat="29.643435430868045" lon="-8.378655959864723"><ele>845.0</ele><time>2026-04-15T11:44:01Z</time></trkpt><trkpt lat="29.643459800130827" lon="-8.378494640675333"><ele>844.75</ele><time>2026-04-15T11:44:02Z</time></trkpt><trkpt lat="29.643489362266216" lon="-8.378329957287235"><ele>844.5</ele><time>2026-04-15T11:44:03Z</time></trkpt><trkpt lat="29.6435191657364" lon="-8.37816401824792"><ele>844.25</ele><time>2026-04-15T11:44:04Z</time></trkpt><trkpt lat="29.64354812476195" lon="-8.377997796215407"><ele>844.0</ele><time>2026-04-15T11:44:05Z</time></trkpt><trkpt lat="29.64357789307735" lon="-8.377830877398138"><ele>843.75</ele><time>2026-04-15T11:44:06Z</time></trkpt><trkpt lat="29.64360413583052" lon="-8.377663934560617"><ele>843.5</ele><time>2026-04-15T11:44:07Z</time></trkpt><trkpt lat="29.643632580428505" lon="-8.37750043336791"><ele>843.25</ele><time>2026-04-15T11:44:08Z</time></trkpt><trkpt lat="29.643659943169563" lon="-8.377331137439695"><ele>843.0</ele><time>2026-04-15T11:44:09Z</time></trkpt><trkpt lat="29.64368688079465" lon="-8.377155060660913"><ele>844.0</ele><time>2026-04-15T11:44:10Z</time></trkpt><trkpt lat="29.643711275885014" lon="-8.37697814247249"><ele>845.0</ele><time>2026-04-15T11:44:11Z</time></trkpt><trkpt lat="29.643743394990977" lon="-8.376804981615837"><ele>846.0</ele><time>2026-04-15T11:44:12Z</time></trkpt><trkpt lat="29.64377825185131" lon="-8.37664097295787"><ele>846.0</ele><time>2026-04-15T11:44:13Z</time></trkpt><trkpt lat="29.64380549390842" lon="-8.376483338034417"><ele>846.0</ele><time>2026-04-15T11:44:14Z</time></trkpt><trkpt lat="29.64383007235412" lon="-8.37631947728336"><ele>846.0</ele><time>2026-04-15T11:44:15Z</time></trkpt><trkpt lat="29.643854426764168" lon="-8.376153475587962"><ele>846.0</ele><time>2026-04-15T11:44:16Z</time></trkpt><trkpt lat="29.643881862092027" lon="-8.375986877941878"><ele>845.25</ele><time>2026-04-15T11:44:17Z</time></trkpt><trkpt lat="29.643912145405196" lon="-8.375816652657681"><ele>844.5</ele><time>2026-04-15T11:44:18Z</time></trkpt><trkpt lat="29.643940782111592" lon="-8.375647578345367"><ele>843.75</ele><time>2026-04-15T11:44:19Z</time></trkpt><trkpt lat="29.643969376231926" lon="-8.375482033621202"><ele>843.0</ele><time>2026-04-15T11:44:20Z</time></trkpt><trkpt lat="29.643993004192215" lon="-8.375316976992758"><ele>843.0</ele><time>2026-04-15T11:44:21Z</time></trkpt><trkpt lat="29.64402061223643" lon="-8.375148162195348"><ele>843.0</ele><time>2026-04-15T11:44:22Z</time></trkpt><trkpt lat="29.64404902614688" lon="-8.374977178699087"><ele>843.0</ele><time>2026-04-15T11:44:23Z</time></trkpt><trkpt lat="29.644082377950152" lon="-8.374800177158479"><ele>843.5</ele><time>2026-04-15T11:44:24Z</time></trkpt><trkpt lat="29.644115659796807" lon="-8.374626043438063"><ele>844.0</ele><time>2026-04-15T11:44:25Z</time></trkpt><trkpt lat="29.64414475601014" lon="-8.374456781648577"><ele>844.5</ele><time>2026-04-15T11:44:26Z</time></trkpt><trkpt lat="29.64417229591041" lon="-8.37429386899255"><ele>845.0</ele><time>2026-04-15T11:44:27Z</time></trkpt><trkpt lat="29.644196668127545" lon="-8.374126811302489"><ele>845.0</ele><time>2026-04-15T11:44:28Z</time></trkpt><trkpt lat="29.644224211444826" lon="-8.373959264799705"><ele>845.0</ele><time>2026-04-15T11:44:29Z</time></trkpt><trkpt lat="29.644249425844805" lon="-8.373786303117503"><ele>845.0</ele><time>2026-04-15T11:44:30Z</time></trkpt><trkpt lat="29.644269888948234" lon="-8.373605733018282"><ele>844.3333333333334</ele><time>2026-04-15T11:44:31Z</time></trkpt><trkpt lat="29.644292562517137" lon="-8.373424634645946"><ele>843.6666666666667</ele><time>2026-04-15T11:44:32Z</time></trkpt><trkpt lat="29.644317412249762" lon="-8.373250567991525"><ele>843.0</ele><time>2026-04-15T11:44:33Z</time></trkpt><trkpt lat="29.644336713671443" lon="-8.373075076100058"><ele>843.0</ele><time>2026-04-15T11:44:34Z</time></trkpt><trkpt lat="29.644351717682245" lon="-8.37290114360565"><ele>843.0</ele><time>2026-04-15T11:44:35Z</time></trkpt><trkpt lat="29.6443596098404" lon="-8.372727943853171"><ele>843.0</ele><time>2026-04-15T11:44:36Z</time></trkpt><trkpt lat="29.644372532361075" lon="-8.372556740384853"><ele>843.0</ele><time>2026-04-15T11:44:37Z</time></trkpt><trkpt lat="29.64437940057264" lon="-8.372381830320885"><ele>843.0</ele><time>2026-04-15T11:44:38Z</time></trkpt><trkpt lat="29.644380368129642" lon="-8.372204726638486"><ele>843.0</ele><time>2026-04-15T11:44:39Z</time></trkpt><trkpt lat="29.644384156975033" lon="-8.37202078279353"><ele>843.0</ele><time>2026-04-15T11:44:40Z</time></trkpt><trkpt lat="29.64438798475128" lon="-8.371834160759995"><ele>843.0</ele><time>2026-04-15T11:44:41Z</time></trkpt><trkpt lat="29.64437968685542" lon="-8.371653889552293"><ele>843.0</ele><time>2026-04-15T11:44:42Z</time></trkpt><trkpt lat="29.64436369992205" lon="-8.371477206838755"><ele>844.0</ele><time>2026-04-15T11:44:43Z</time></trkpt><trkpt lat="29.644353808014834" lon="-8.371298467720507"><ele>845.0</ele><time>2026-04-15T11:44:44Z</time></trkpt><trkpt lat="29.644348115336467" lon="-8.37111700188916"><ele>846.0</ele><time>2026-04-15T11:44:45Z</time></trkpt><trkpt lat="29.64433507795095" lon="-8.370935554237885"><ele>846.0</ele><time>2026-04-15T11:44:46Z</time></trkpt><trkpt lat="29.64431412043144" lon="-8.370753318479935"><ele>846.0</ele><time>2026-04-15T11:44:47Z</time></trkpt><trkpt lat="29.644291016980635" lon="-8.37057078661845"><ele>846.0</ele><time>2026-04-15T11:44:48Z</time></trkpt><trkpt lat="29.64427164298534" lon="-8.37038883779025"><ele>846.0</ele><time>2026-04-15T11:44:49Z</time></trkpt><trkpt lat="29.64424935617251" lon="-8.370204282678566"><ele>846.0</ele><time>2026-04-15T11:44:50Z</time></trkpt><trkpt lat="29.644221727363682" lon="-8.370019720423041"><ele>846.0</ele><time>2026-04-15T11:44:51Z</time></trkpt><trkpt lat="29.6441867904043" lon="-8.369836102483198"><ele>846.0</ele><time>2026-04-15T11:44:52Z</time></trkpt><trkpt lat="29.644148939997557" lon="-8.369652772258405"><ele>846.0</ele><time>2026-04-15T11:44:53Z</time></trkpt><trkpt lat="29.64411325203902" lon="-8.36946523157389"><ele>846.0</ele><time>2026-04-15T11:44:54Z</time></trkpt><trkpt lat="29.64407369427676" lon="-8.369277870006362"><ele>846.0</ele><time>2026-04-15T11:44:55Z</time></trkpt><trkpt lat="29.6440289784513" lon="-8.369088841958659"><ele>846.0</ele><time>2026-04-15T11:44:56Z</time></trkpt><trkpt lat="29.643978482241845" lon="-8.368902633258338"><ele>846.0</ele><time>2026-04-15T11:44:57Z</time></trkpt><trkpt lat="29.643931803386828" lon="-8.368712755133526"><ele>845.6666666666667</ele><time>2026-04-15T11:44:58Z</time></trkpt><trkpt lat="29.643887559879612" lon="-8.368530827635995"><ele>845.3333333333334</ele><time>2026-04-15T11:44:59Z</time></trkpt><trkpt lat="29.643844542450104" lon="-8.368349612015283"><ele>845.0</ele><time>2026-04-15T11:45:00Z</time></trkpt><trkpt lat="29.643800576331554" lon="-8.36817110396347"><ele>845.0</ele><time>2026-04-15T11:45:01Z</time></trkpt><trkpt lat="29.64375977100764" lon="-8.367997760791694"><ele>845.0</ele><time>2026-04-15T11:45:02Z</time></trkpt><trkpt lat="29.643720324628354" lon="-8.367817718169976"><ele>845.0</ele><time>2026-04-15T11:45:03Z</time></trkpt><trkpt lat="29.643680271398072" lon="-8.367638173043982"><ele>845.0</ele><time>2026-04-15T11:45:04Z</time></trkpt><trkpt lat="29.64363315777361" lon="-8.367458990670023"><ele>845.0</ele><time>2026-04-15T11:45:05Z</time></trkpt><trkpt lat="29.643589678522297" lon="-8.367278443930093"><ele>845.0</ele><time>2026-04-15T11:45:06Z</time></trkpt><trkpt lat="29.64354883206121" lon="-8.367095861699244"><ele>843.3333333333334</ele><time>2026-04-15T11:45:07Z</time></trkpt><trkpt lat="29.643508701899034" lon="-8.366915635735936"><ele>841.6666666666667</ele><time>2026-04-15T11:45:08Z</time></trkpt><trkpt lat="29.64346461969634" lon="-8.366735569582557"><ele>840.0</ele><time>2026-04-15T11:45:09Z</time></trkpt><trkpt lat="29.64341734390002" lon="-8.366553938179663"><ele>840.0</ele><time>2026-04-15T11:45:10Z</time></trkpt><trkpt lat="29.643373916835444" lon="-8.366374092373006"><ele>840.0</ele><time>2026-04-15T11:45:11Z</time></trkpt><trkpt lat="29.64333024772326" lon="-8.366189655082756"><ele>840.0</ele><time>2026-04-15T11:45:12Z</time></trkpt><trkpt lat="29.643285320353414" lon="-8.36600001568902"><ele>840.0</ele><time>2026-04-15T11:45:13Z</time></trkpt><trkpt lat="29.64324011027069" lon="-8.36581434481558"><ele>840.0</ele><time>2026-04-15T11:45:14Z</time></trkpt><trkpt lat="29.64319809873683" lon="-8.365627012120953"><ele>840.0</ele><time>2026-04-15T11:45:15Z</time></trkpt><trkpt lat="29.64314896389611" lon="-8.365438248556618"><ele>841.6666666666667</ele><time>2026-04-15T11:45:16Z</time></trkpt><trkpt lat="29.643105098694065" lon="-8.365249258035721"><ele>843.3333333333334</ele><time>2026-04-15T11:45:17Z</time></trkpt><trkpt lat="29.643060467830882" lon="-8.36506253726241"><ele>845.0</ele><time>2026-04-15T11:45:18Z</time></trkpt><trkpt lat="29.64301328021674" lon="-8.364874689214945"><ele>847.3333333333334</ele><time>2026-04-15T11:45:19Z</time></trkpt><trkpt lat="29.642970527650352" lon="-8.36469466083599"><ele>849.6666666666667</ele><time>2026-04-15T11:45:20Z</time></trkpt><trkpt lat="29.64292593374819" lon="-8.364512582973944"><ele>852.0</ele><time>2026-04-15T11:45:21Z</time></trkpt><trkpt lat="29.642883112722423" lon="-8.364329524350307"><ele>852.0</ele><time>2026-04-15T11:45:22Z</time></trkpt><trkpt lat="29.642841230381883" lon="-8.364145417967796"><ele>852.0</ele><time>2026-04-15T11:45:23Z</time></trkpt><trkpt lat="29.64279893693922" lon="-8.363960484265212"><ele>852.0</ele><time>2026-04-15T11:45:24Z</time></trkpt><trkpt lat="29.642755464587495" lon="-8.363774553090188"><ele>845.6666666666667</ele><time>2026-04-15T11:45:25Z</time></trkpt><trkpt lat="29.642711704628102" lon="-8.363588536913799"><ele>839.3333333333334</ele><time>2026-04-15T11:45:26Z</time></trkpt><trkpt lat="29.642666722040303" lon="-8.363406117032671"><ele>833.0</ele><time>2026-04-15T11:45:27Z</time></trkpt><trkpt lat="29.642622487205628" lon="-8.363218209695896"><ele>832.6666666666667</ele><time>2026-04-15T11:45:28Z</time></trkpt><trkpt lat="29.6425760117046" lon="-8.363028136285399"><ele>832.3333333333333</ele><time>2026-04-15T11:45:29Z</time></trkpt><trkpt lat="29.642537172900138" lon="-8.362846501936941"><ele>832.0</ele><time>2026-04-15T11:45:30Z</time></trkpt><trkpt lat="29.642497811891168" lon="-8.362671125552188"><ele>832.0</ele><time>2026-04-15T11:45:31Z</time></trkpt><trkpt lat="29.642460082387565" lon="-8.362497150092974"><ele>832.0</ele><time>2026-04-15T11:45:32Z</time></trkpt><trkpt lat="29.642430552629918" lon="-8.362316653792277"><ele>832.0</ele><time>2026-04-15T11:45:33Z</time></trkpt><trkpt lat="29.642406713052974" lon="-8.362129406565465"><ele>830.6666666666666</ele><time>2026-04-15T11:45:34Z</time></trkpt><trkpt lat="29.64239189354742" lon="-8.361938900165699"><ele>829.3333333333333</ele><time>2026-04-15T11:45:35Z</time></trkpt><trkpt lat="29.64238500623616" lon="-8.361746565419976"><ele>828.0</ele><time>2026-04-15T11:45:36Z</time></trkpt><trkpt lat="29.642385811183892" lon="-8.361551665365306"><ele>826.6666666666667</ele><time>2026-04-15T11:45:37Z</time></trkpt><trkpt lat="29.642390780405933" lon="-8.361353571214561"><ele>825.3333333333334</ele><time>2026-04-15T11:45:38Z</time></trkpt><trkpt lat="29.642401087519136" lon="-8.361157212922382"><ele>824.0</ele><time>2026-04-15T11:45:39Z</time></trkpt><trkpt lat="29.64241838171384" lon="-8.36096040153872"><ele>824.0</ele><time>2026-04-15T11:45:40Z</time></trkpt><trkpt lat="29.642441737172888" lon="-8.36075978056428"><ele>824.0</ele><time>2026-04-15T11:45:41Z</time></trkpt><trkpt lat="29.642477121223862" lon="-8.360560689767865"><ele>824.0</ele><time>2026-04-15T11:45:42Z</time></trkpt><trkpt lat="29.642513926932054" lon="-8.360372398410638"><ele>823.3333333333334</ele><time>2026-04-15T11:45:43Z</time></trkpt><trkpt lat="29.642552100073694" lon="-8.360188971303252"><ele>822.6666666666667</ele><time>2026-04-15T11:45:44Z</time></trkpt><trkpt lat="29.642595878956293" lon="-8.360015914358895"><ele>822.0</ele><time>2026-04-15T11:45:45Z</time></trkpt><trkpt lat="29.64264653953199" lon="-8.359841260511933"><ele>822.6666666666667</ele><time>2026-04-15T11:45:46Z</time></trkpt><trkpt lat="29.64270882894868" lon="-8.359666974946439"><ele>823.3333333333334</ele><time>2026-04-15T11:45:47Z</time></trkpt><trkpt lat="29.64277103493318" lon="-8.359495741127995"><ele>824.0</ele><time>2026-04-15T11:45:48Z</time></trkpt><trkpt lat="29.642830590304055" lon="-8.359327878927564"><ele>824.3333333333334</ele><time>2026-04-15T11:45:49Z</time></trkpt><trkpt lat="29.64289116877327" lon="-8.359164054625097"><ele>824.6666666666667</ele><time>2026-04-15T11:45:50Z</time></trkpt><trkpt lat="29.64294915267842" lon="-8.359006309175376"><ele>825.0</ele><time>2026-04-15T11:45:51Z</time></trkpt><trkpt lat="29.643006561761112" lon="-8.358844251213275"><ele>826.0</ele><time>2026-04-15T11:45:52Z</time></trkpt><trkpt lat="29.64306346986288" lon="-8.35867730046067"><ele>827.0</ele><time>2026-04-15T11:45:53Z</time></trkpt><trkpt lat="29.64311685113422" lon="-8.358513600127289"><ele>828.0</ele><time>2026-04-15T11:45:54Z</time></trkpt><trkpt lat="29.643173089994804" lon="-8.358356516058485"><ele>828.0</ele><time>2026-04-15T11:45:55Z</time></trkpt><trkpt lat="29.64322905596825" lon="-8.35820539334445"><ele>828.0</ele><time>2026-04-15T11:45:56Z</time></trkpt><trkpt lat="29.643284495826613" lon="-8.358054560786815"><ele>828.0</ele><time>2026-04-15T11:45:57Z</time></trkpt><trkpt lat="29.64333671670632" lon="-8.35790094338688"><ele>828.0</ele><time>2026-04-15T11:45:58Z</time></trkpt><trkpt lat="29.64338477030305" lon="-8.357753259859333"><ele>829.0</ele><time>2026-04-15T11:45:59Z</time></trkpt><trkpt lat="29.643428909592878" lon="-8.35761377081302"><ele>830.0</ele><time>2026-04-15T11:46:00Z</time></trkpt><trkpt lat="29.64347722261818" lon="-8.357475418883846"><ele>831.0</ele><time>2026-04-15T11:46:01Z</time></trkpt><trkpt lat="29.64352776869838" lon="-8.35733370932899"><ele>832.0</ele><time>2026-04-15T11:46:02Z</time></trkpt><trkpt lat="29.643578448387977" lon="-8.357188451500877"><ele>832.0</ele><time>2026-04-15T11:46:03Z</time></trkpt><trkpt lat="29.643629286490853" lon="-8.357036141006468"><ele>832.0</ele><time>2026-04-15T11:46:04Z</time></trkpt><trkpt lat="29.64368487626707" lon="-8.356877147792723"><ele>832.0</ele><time>2026-04-15T11:46:05Z</time></trkpt><trkpt lat="29.643741403606132" lon="-8.356722127557164"><ele>832.0</ele><time>2026-04-15T11:46:06Z</time></trkpt><trkpt lat="29.64379868129268" lon="-8.356572380029872"><ele>833.0</ele><time>2026-04-15T11:46:07Z</time></trkpt><trkpt lat="29.643860810227125" lon="-8.356418256665885"><ele>834.0</ele><time>2026-04-15T11:46:08Z</time></trkpt><trkpt lat="29.643920045426533" lon="-8.356263657309217"><ele>835.0</ele><time>2026-04-15T11:46:09Z</time></trkpt><trkpt lat="29.64398058021244" lon="-8.356104730885939"><ele>836.0</ele><time>2026-04-15T11:46:10Z</time></trkpt><trkpt lat="29.644028601248525" lon="-8.355935169578254"><ele>836.0</ele><time>2026-04-15T11:46:11Z</time></trkpt><trkpt lat="29.644089302543744" lon="-8.355768861020477"><ele>836.0</ele><time>2026-04-15T11:46:12Z</time></trkpt><trkpt lat="29.644152440549856" lon="-8.355595876373911"><ele>836.0</ele><time>2026-04-15T11:46:13Z</time></trkpt><trkpt lat="29.644216811056268" lon="-8.355421670644423"><ele>834.3333333333334</ele><time>2026-04-15T11:46:14Z</time></trkpt><trkpt lat="29.644295747418372" lon="-8.355254864217928"><ele>832.6666666666667</ele><time>2026-04-15T11:46:15Z</time></trkpt><trkpt lat="29.644351705176604" lon="-8.355083231852818"><ele>831.0</ele><time>2026-04-15T11:46:16Z</time></trkpt><trkpt lat="29.644407789412682" lon="-8.354917644869857"><ele>831.0</ele><time>2026-04-15T11:46:17Z</time></trkpt><trkpt lat="29.64446144052697" lon="-8.354750255975832"><ele>831.0</ele><time>2026-04-15T11:46:18Z</time></trkpt><trkpt lat="29.64451402148825" lon="-8.35457812508479"><ele>831.0</ele><time>2026-04-15T11:46:19Z</time></trkpt><trkpt lat="29.644563184310496" lon="-8.354402073771775"><ele>831.0</ele><time>2026-04-15T11:46:20Z</time></trkpt><trkpt lat="29.644614271936707" lon="-8.354224378913118"><ele>831.0</ele><time>2026-04-15T11:46:21Z</time></trkpt><trkpt lat="29.644666328249542" lon="-8.354046087457832"><ele>831.0</ele><time>2026-04-15T11:46:22Z</time></trkpt><trkpt lat="29.64471898109399" lon="-8.353864882433292"><ele>830.0</ele><time>2026-04-15T11:46:23Z</time></trkpt><trkpt lat="29.644772830483134" lon="-8.353690143295308"><ele>829.0</ele><time>2026-04-15T11:46:24Z</time></trkpt><trkpt lat="29.64482280165594" lon="-8.353521484635401"><ele>828.0</ele><time>2026-04-15T11:46:25Z</time></trkpt><trkpt lat="29.64487092815346" lon="-8.353350987005017"><ele>828.0</ele><time>2026-04-15T11:46:26Z</time></trkpt><trkpt lat="29.644924260024148" lon="-8.353175880631749"><ele>828.0</ele><time>2026-04-15T11:46:27Z</time></trkpt><trkpt lat="29.644979343066446" lon="-8.352996526479924"><ele>828.0</ele><time>2026-04-15T11:46:28Z</time></trkpt><trkpt lat="29.645028565000068" lon="-8.352814845720298"><ele>826.6666666666667</ele><time>2026-04-15T11:46:29Z</time></trkpt><trkpt lat="29.64508458156395" lon="-8.352628605700811"><ele>825.3333333333334</ele><time>2026-04-15T11:46:30Z</time></trkpt><trkpt lat="29.64514130284396" lon="-8.352437557901768"><ele>824.0</ele><time>2026-04-15T11:46:31Z</time></trkpt><trkpt lat="29.64519503922586" lon="-8.352246650475106"><ele>823.0</ele><time>2026-04-15T11:46:32Z</time></trkpt><trkpt lat="29.64525386187598" lon="-8.352058981841846"><ele>822.0</ele><time>2026-04-15T11:46:33Z</time></trkpt><trkpt lat="29.645310885675347" lon="-8.351871656164278"><ele>821.0</ele><time>2026-04-15T11:46:34Z</time></trkpt><trkpt lat="29.645366725899176" lon="-8.351683662895327"><ele>820.6666666666667</ele><time>2026-04-15T11:46:35Z</time></trkpt><trkpt lat="29.645420980595564" lon="-8.351495473082835"><ele>820.3333333333333</ele><time>2026-04-15T11:46:36Z</time></trkpt><trkpt lat="29.645474968198535" lon="-8.35130496032205"><ele>820.0</ele><time>2026-04-15T11:46:37Z</time></trkpt><trkpt lat="29.6455309287104" lon="-8.35111464432435"><ele>819.6666666666666</ele><time>2026-04-15T11:46:38Z</time></trkpt><trkpt lat="29.645590529197754" lon="-8.350922241581628"><ele>819.3333333333333</ele><time>2026-04-15T11:46:39Z</time></trkpt><trkpt lat="29.645643927034268" lon="-8.350730970699264"><ele>819.0</ele><time>2026-04-15T11:46:40Z</time></trkpt><trkpt lat="29.64569897170913" lon="-8.350539171539008"><ele>817.3333333333333</ele><time>2026-04-15T11:46:41Z</time></trkpt><trkpt lat="29.645755586513122" lon="-8.350346613556377"><ele>815.6666666666666</ele><time>2026-04-15T11:46:42Z</time></trkpt><trkpt lat="29.64580677235414" lon="-8.350151606745433"><ele>814.0</ele><time>2026-04-15T11:46:43Z</time></trkpt><trkpt lat="29.645863631166982" lon="-8.349956718005172"><ele>814.0</ele><time>2026-04-15T11:46:44Z</time></trkpt><trkpt lat="29.64592502653212" lon="-8.349756564927807"><ele>814.0</ele><time>2026-04-15T11:46:45Z</time></trkpt><trkpt lat="29.645986554024287" lon="-8.349557429153716"><ele>814.0</ele><time>2026-04-15T11:46:46Z</time></trkpt><trkpt lat="29.646044131275545" lon="-8.349363057520195"><ele>813.0</ele><time>2026-04-15T11:46:47Z</time></trkpt><trkpt lat="29.64610158295333" lon="-8.349169611821447"><ele>812.0</ele><time>2026-04-15T11:46:48Z</time></trkpt><trkpt lat="29.646157759304494" lon="-8.348969670345333"><ele>811.0</ele><time>2026-04-15T11:46:49Z</time></trkpt><trkpt lat="29.646216440668358" lon="-8.348769831971135"><ele>809.6666666666666</ele><time>2026-04-15T11:46:50Z</time></trkpt><trkpt lat="29.646275660706735" lon="-8.34857217664143"><ele>808.3333333333333</ele><time>2026-04-15T11:46:51Z</time></trkpt><trkpt lat="29.646335411415944" lon="-8.34837617471641"><ele>807.0</ele><time>2026-04-15T11:46:52Z</time></trkpt><trkpt lat="29.646390418137315" lon="-8.348190252963988"><ele>806.6666666666667</ele><time>2026-04-15T11:46:53Z</time></trkpt><trkpt lat="29.646442538525683" lon="-8.3480030117653"><ele>806.3333333333334</ele><time>2026-04-15T11:46:54Z</time></trkpt><trkpt lat="29.646497531239174" lon="-8.347817620550071"><ele>806.0</ele><time>2026-04-15T11:46:55Z</time></trkpt><trkpt lat="29.6465528925871" lon="-8.347631694750433"><ele>806.0</ele><time>2026-04-15T11:46:56Z</time></trkpt><trkpt lat="29.646610815958535" lon="-8.347442992152562"><ele>806.0</ele><time>2026-04-15T11:46:57Z</time></trkpt><trkpt lat="29.64666806951045" lon="-8.347253943755808"><ele>806.0</ele><time>2026-04-15T11:46:58Z</time></trkpt><trkpt lat="29.646723879799367" lon="-8.347066694454151"><ele>805.0</ele><time>2026-04-15T11:46:59Z</time></trkpt><trkpt lat="29.64678089535479" lon="-8.346877989730897"><ele>804.0</ele><time>2026-04-15T11:47:00Z</time></trkpt><trkpt lat="29.646837221281324" lon="-8.346692139927768"><ele>803.0</ele><time>2026-04-15T11:47:01Z</time></trkpt><trkpt lat="29.646891274167036" lon="-8.346506896886735"><ele>803.0</ele><time>2026-04-15T11:47:02Z</time></trkpt><trkpt lat="29.646946525599425" lon="-8.346323046535051"><ele>803.0</ele><time>2026-04-15T11:47:03Z</time></trkpt><trkpt lat="29.647005623816955" lon="-8.346147153376785"><ele>803.0</ele><time>2026-04-15T11:47:04Z</time></trkpt><trkpt lat="29.647066771294163" lon="-8.345967956404424"><ele>803.0</ele><time>2026-04-15T11:47:05Z</time></trkpt><trkpt lat="29.647125357379533" lon="-8.345789310125893"><ele>803.0</ele><time>2026-04-15T11:47:06Z</time></trkpt><trkpt lat="29.647182404266708" lon="-8.345617506624006"><ele>803.0</ele><time>2026-04-15T11:47:07Z</time></trkpt><trkpt lat="29.647238795953996" lon="-8.345446647988794"><ele>803.0</ele><time>2026-04-15T11:47:08Z</time></trkpt><trkpt lat="29.647297629308397" lon="-8.345276533056733"><ele>803.0</ele><time>2026-04-15T11:47:09Z</time></trkpt><trkpt lat="29.64735775335322" lon="-8.345109635631077"><ele>803.0</ele><time>2026-04-15T11:47:10Z</time></trkpt><trkpt lat="29.647417863963224" lon="-8.344945228180208"><ele>803.0</ele><time>2026-04-15T11:47:11Z</time></trkpt><trkpt lat="29.64747465447722" lon="-8.344788932428209"><ele>803.0</ele><time>2026-04-15T11:47:12Z</time></trkpt><trkpt lat="29.647530097395645" lon="-8.344631092469493"><ele>803.0</ele><time>2026-04-15T11:47:13Z</time></trkpt><trkpt lat="29.64759171225153" lon="-8.344463887341181"><ele>802.6666666666667</ele><time>2026-04-15T11:47:14Z</time></trkpt><trkpt lat="29.64765894735299" lon="-8.344284825426218"><ele>802.3333333333333</ele><time>2026-04-15T11:47:15Z</time></trkpt><trkpt lat="29.647722723684627" lon="-8.34411240118449"><ele>802.0</ele><time>2026-04-15T11:47:16Z</time></trkpt><trkpt lat="29.647785422271987" lon="-8.343939178342302"><ele>803.6666666666666</ele><time>2026-04-15T11:47:17Z</time></trkpt><trkpt lat="29.647847628726247" lon="-8.343764240051843"><ele>805.3333333333333</ele><time>2026-04-15T11:47:18Z</time></trkpt><trkpt lat="29.647910309807436" lon="-8.343594767449563"><ele>807.0</ele><time>2026-04-15T11:47:19Z</time></trkpt><trkpt lat="29.647971810338312" lon="-8.34342479846184"><ele>807.0</ele><time>2026-04-15T11:47:20Z</time></trkpt><trkpt lat="29.64803111649186" lon="-8.34325626535136"><ele>807.0</ele><time>2026-04-15T11:47:21Z</time></trkpt><trkpt lat="29.648089913454054" lon="-8.34308453806765"><ele>807.0</ele><time>2026-04-15T11:47:22Z</time></trkpt><trkpt lat="29.64815040102424" lon="-8.342912986758098"><ele>807.3333333333333</ele><time>2026-04-15T11:47:23Z</time></trkpt><trkpt lat="29.64821371499829" lon="-8.342744204688378"><ele>807.6666666666666</ele><time>2026-04-15T11:47:24Z</time></trkpt><trkpt lat="29.648275844225097" lon="-8.34257795075596"><ele>808.0</ele><time>2026-04-15T11:47:25Z</time></trkpt><trkpt lat="29.648340656719405" lon="-8.342411987010022"><ele>808.0</ele><time>2026-04-15T11:47:26Z</time></trkpt><trkpt lat="29.64840064809691" lon="-8.34224375607315"><ele>808.0</ele><time>2026-04-15T11:47:27Z</time></trkpt><trkpt lat="29.648460642882853" lon="-8.342072140944357"><ele>808.0</ele><time>2026-04-15T11:47:28Z</time></trkpt><trkpt lat="29.648523574517238" lon="-8.341898046100255"><ele>808.0</ele><time>2026-04-15T11:47:29Z</time></trkpt><trkpt lat="29.64858648690905" lon="-8.341725950117263"><ele>808.0</ele><time>2026-04-15T11:47:30Z</time></trkpt><trkpt lat="29.648645257690703" lon="-8.341553570749836"><ele>808.0</ele><time>2026-04-15T11:47:31Z</time></trkpt><trkpt lat="29.648709001249568" lon="-8.341381115244218"><ele>809.0</ele><time>2026-04-15T11:47:32Z</time></trkpt><trkpt lat="29.648769249301715" lon="-8.341207431840857"><ele>810.0</ele><time>2026-04-15T11:47:33Z</time></trkpt><trkpt lat="29.64882589215074" lon="-8.34102907600432"><ele>811.0</ele><time>2026-04-15T11:47:34Z</time></trkpt><trkpt lat="29.648884128600248" lon="-8.340849501707641"><ele>811.0</ele><time>2026-04-15T11:47:35Z</time></trkpt><trkpt lat="29.648944851887027" lon="-8.340674482494137"><ele>811.0</ele><time>2026-04-15T11:47:36Z</time></trkpt><trkpt lat="29.649006813036415" lon="-8.340498564913684"><ele>811.0</ele><time>2026-04-15T11:47:37Z</time></trkpt><trkpt lat="29.649067805510118" lon="-8.34032284257104"><ele>810.0</ele><time>2026-04-15T11:47:38Z</time></trkpt><trkpt lat="29.649123460687257" lon="-8.34014524282584"><ele>809.0</ele><time>2026-04-15T11:47:39Z</time></trkpt><trkpt lat="29.649180702109383" lon="-8.3399642225143"><ele>808.0</ele><time>2026-04-15T11:47:40Z</time></trkpt><trkpt lat="29.649240737765087" lon="-8.339784125654177"><ele>807.0</ele><time>2026-04-15T11:47:41Z</time></trkpt><trkpt lat="29.649298474869568" lon="-8.339606273691405"><ele>806.0</ele><time>2026-04-15T11:47:42Z</time></trkpt><trkpt lat="29.649358036368454" lon="-8.339433414725606"><ele>805.0</ele><time>2026-04-15T11:47:43Z</time></trkpt><trkpt lat="29.649415135267684" lon="-8.339258306845931"><ele>805.0</ele><time>2026-04-15T11:47:44Z</time></trkpt><trkpt lat="29.649472184069303" lon="-8.33908112547662"><ele>805.0</ele><time>2026-04-15T11:47:45Z</time></trkpt><trkpt lat="29.649514376564163" lon="-8.338895513745562"><ele>805.0</ele><time>2026-04-15T11:47:46Z</time></trkpt><trkpt lat="29.64957115663304" lon="-8.338715550479114"><ele>805.0</ele><time>2026-04-15T11:47:47Z</time></trkpt><trkpt lat="29.649628164667853" lon="-8.338536319399399"><ele>805.0</ele><time>2026-04-15T11:47:48Z</time></trkpt><trkpt lat="29.649698907565003" lon="-8.338364613378568"><ele>805.0</ele><time>2026-04-15T11:47:49Z</time></trkpt><trkpt lat="29.64974178271325" lon="-8.338177876978978"><ele>804.3333333333333</ele><time>2026-04-15T11:47:50Z</time></trkpt><trkpt lat="29.649797290434105" lon="-8.338002201729562"><ele>803.6666666666667</ele><time>2026-04-15T11:47:51Z</time></trkpt><trkpt lat="29.649852522206075" lon="-8.337826743369227"><ele>803.0</ele><time>2026-04-15T11:47:52Z</time></trkpt><trkpt lat="29.649922485752075" lon="-8.337660196787212"><ele>803.0</ele><time>2026-04-15T11:47:53Z</time></trkpt><trkpt lat="29.649977600167244" lon="-8.337487170415596"><ele>803.0</ele><time>2026-04-15T11:47:54Z</time></trkpt><trkpt lat="29.650035077572202" lon="-8.337302326086057"><ele>803.0</ele><time>2026-04-15T11:47:55Z</time></trkpt><trkpt lat="29.650092963310723" lon="-8.337111146894534"><ele>801.3333333333334</ele><time>2026-04-15T11:47:56Z</time></trkpt><trkpt lat="29.650151735167423" lon="-8.336921563355387"><ele>799.6666666666667</ele><time>2026-04-15T11:47:57Z</time></trkpt><trkpt lat="29.650210487347067" lon="-8.336732933894394"><ele>798.0</ele><time>2026-04-15T11:47:58Z</time></trkpt><trkpt lat="29.65026938482374" lon="-8.33654221008331"><ele>798.0</ele><time>2026-04-15T11:47:59Z</time></trkpt><trkpt lat="29.65033104771867" lon="-8.336351837881377"><ele>798.0</ele><time>2026-04-15T11:48:00Z</time></trkpt><trkpt lat="29.650389999351844" lon="-8.336160219265782"><ele>798.0</ele><time>2026-04-15T11:48:01Z</time></trkpt><trkpt lat="29.65045104351075" lon="-8.335964640099363"><ele>798.0</ele><time>2026-04-15T11:48:02Z</time></trkpt><trkpt lat="29.650515630772407" lon="-8.335762515370297"><ele>798.0</ele><time>2026-04-15T11:48:03Z</time></trkpt><trkpt lat="29.650578295619457" lon="-8.335556557853597"><ele>798.0</ele><time>2026-04-15T11:48:04Z</time></trkpt><trkpt lat="29.65064516016515" lon="-8.335349259817953"><ele>798.0</ele><time>2026-04-15T11:48:05Z</time></trkpt><trkpt lat="29.65069511084244" lon="-8.335129956572683"><ele>798.0</ele><time>2026-04-15T11:48:06Z</time></trkpt><trkpt lat="29.650758613200765" lon="-8.334915764239131"><ele>798.0</ele><time>2026-04-15T11:48:07Z</time></trkpt><trkpt lat="29.650821964062157" lon="-8.334702082899813"><ele>798.6666666666667</ele><time>2026-04-15T11:48:08Z</time></trkpt><trkpt lat="29.65088278970128" lon="-8.334493189334413"><ele>799.3333333333334</ele><time>2026-04-15T11:48:09Z</time></trkpt><trkpt lat="29.650943975795194" lon="-8.334285913683331"><ele>800.0</ele><time>2026-04-15T11:48:10Z</time></trkpt><trkpt lat="29.651018986764843" lon="-8.3340872175679"><ele>799.3333333333334</ele><time>2026-04-15T11:48:11Z</time></trkpt><trkpt lat="29.651073761749092" lon="-8.33388133679901"><ele>798.6666666666667</ele><time>2026-04-15T11:48:12Z</time></trkpt><trkpt lat="29.651127081117295" lon="-8.333681687038256"><ele>798.0</ele><time>2026-04-15T11:48:13Z</time></trkpt><trkpt lat="29.651182071394782" lon="-8.33347964342629"><ele>798.0</ele><time>2026-04-15T11:48:14Z</time></trkpt><trkpt lat="29.651235116281597" lon="-8.333277764750797"><ele>798.0</ele><time>2026-04-15T11:48:15Z</time></trkpt><trkpt lat="29.651286758897893" lon="-8.333071186279302"><ele>798.0</ele><time>2026-04-15T11:48:16Z</time></trkpt><trkpt lat="29.651334464996676" lon="-8.332859076573754"><ele>798.6666666666667</ele><time>2026-04-15T11:48:17Z</time></trkpt><trkpt lat="29.651378178997227" lon="-8.332653049782957"><ele>799.3333333333334</ele><time>2026-04-15T11:48:18Z</time></trkpt><trkpt lat="29.65142107034805" lon="-8.332458382769072"><ele>800.0</ele><time>2026-04-15T11:48:19Z</time></trkpt><trkpt lat="29.651466284397696" lon="-8.332265229044701"><ele>800.6666666666667</ele><time>2026-04-15T11:48:20Z</time></trkpt><trkpt lat="29.65151479273488" lon="-8.332068467983225"><ele>801.3333333333333</ele><time>2026-04-15T11:48:21Z</time></trkpt><trkpt lat="29.651562318717335" lon="-8.331866827703966"><ele>802.0</ele><time>2026-04-15T11:48:22Z</time></trkpt><trkpt lat="29.65160518273252" lon="-8.331661358654783"><ele>802.0</ele><time>2026-04-15T11:48:23Z</time></trkpt><trkpt lat="29.651646434287734" lon="-8.33145392181016"><ele>802.0</ele><time>2026-04-15T11:48:24Z</time></trkpt><trkpt lat="29.651689899037926" lon="-8.331251760318526"><ele>802.0</ele><time>2026-04-15T11:48:25Z</time></trkpt><trkpt lat="29.651730147467106" lon="-8.33105215315045"><ele>801.3333333333333</ele><time>2026-04-15T11:48:26Z</time></trkpt><trkpt lat="29.651770077460096" lon="-8.330851380303866"><ele>800.6666666666667</ele><time>2026-04-15T11:48:27Z</time></trkpt><trkpt lat="29.651813326031217" lon="-8.330650498992508"><ele>800.0</ele><time>2026-04-15T11:48:28Z</time></trkpt><trkpt lat="29.651861115777532" lon="-8.330453561354526"><ele>800.0</ele><time>2026-04-15T11:48:29Z</time></trkpt><trkpt lat="29.651909107252692" lon="-8.330251605605307"><ele>800.0</ele><time>2026-04-15T11:48:30Z</time></trkpt><trkpt lat="29.651955867752434" lon="-8.330046763454627"><ele>800.0</ele><time>2026-04-15T11:48:31Z</time></trkpt><trkpt lat="29.651997923271765" lon="-8.329843125509413"><ele>801.0</ele><time>2026-04-15T11:48:32Z</time></trkpt><trkpt lat="29.652038113378968" lon="-8.329643092436482"><ele>802.0</ele><time>2026-04-15T11:48:33Z</time></trkpt><trkpt lat="29.6520789179317" lon="-8.329444141289787"><ele>803.0</ele><time>2026-04-15T11:48:34Z</time></trkpt><trkpt lat="29.652120212988656" lon="-8.329247907841118"><ele>803.0</ele><time>2026-04-15T11:48:35Z</time></trkpt><trkpt lat="29.652164495216628" lon="-8.329049912525905"><ele>803.0</ele><time>2026-04-15T11:48:36Z</time></trkpt><trkpt lat="29.652213564285905" lon="-8.328853165193078"><ele>803.0</ele><time>2026-04-15T11:48:37Z</time></trkpt><trkpt lat="29.652256159096282" lon="-8.328660235041562"><ele>803.0</ele><time>2026-04-15T11:48:38Z</time></trkpt><trkpt lat="29.652302107075897" lon="-8.328468102355595"><ele>803.0</ele><time>2026-04-15T11:48:39Z</time></trkpt><trkpt lat="29.652347244762122" lon="-8.32827819633556"><ele>803.0</ele><time>2026-04-15T11:48:40Z</time></trkpt><trkpt lat="29.652392886853182" lon="-8.328087954482982"><ele>802.6666666666667</ele><time>2026-04-15T11:48:41Z</time></trkpt><trkpt lat="29.652443887807387" lon="-8.327888082843144"><ele>802.3333333333333</ele><time>2026-04-15T11:48:42Z</time></trkpt><trkpt lat="29.65248882043129" lon="-8.327693008582246"><ele>802.0</ele><time>2026-04-15T11:48:43Z</time></trkpt><trkpt lat="29.652541724903344" lon="-8.327496125811296"><ele>802.0</ele><time>2026-04-15T11:48:44Z</time></trkpt><trkpt lat="29.65259825419214" lon="-8.327296964751909"><ele>802.0</ele><time>2026-04-15T11:48:45Z</time></trkpt><trkpt lat="29.652653781256976" lon="-8.327095863867541"><ele>802.0</ele><time>2026-04-15T11:48:46Z</time></trkpt><trkpt lat="29.652713027911055" lon="-8.326891796795936"><ele>802.0</ele><time>2026-04-15T11:48:47Z</time></trkpt><trkpt lat="29.652774235218725" lon="-8.32668471111973"><ele>802.0</ele><time>2026-04-15T11:48:48Z</time></trkpt><trkpt lat="29.652833062088334" lon="-8.32647795211199"><ele>802.0</ele><time>2026-04-15T11:48:49Z</time></trkpt><trkpt lat="29.652892181211662" lon="-8.32627156254729"><ele>801.3333333333333</ele><time>2026-04-15T11:48:50Z</time></trkpt><trkpt lat="29.652949466164486" lon="-8.326075522138746"><ele>800.6666666666667</ele><time>2026-04-15T11:48:51Z</time></trkpt><trkpt lat="29.65300668125693" lon="-8.325884521933547"><ele>800.0</ele><time>2026-04-15T11:48:52Z</time></trkpt><trkpt lat="29.653065306491172" lon="-8.32569217989976"><ele>799.3333333333334</ele><time>2026-04-15T11:48:53Z</time></trkpt><trkpt lat="29.653122154723263" lon="-8.325491898251025"><ele>798.6666666666667</ele><time>2026-04-15T11:48:54Z</time></trkpt><trkpt lat="29.653177209236905" lon="-8.325288106321455"><ele>798.0</ele><time>2026-04-15T11:48:55Z</time></trkpt><trkpt lat="29.65322872558299" lon="-8.32507884968426"><ele>798.0</ele><time>2026-04-15T11:48:56Z</time></trkpt><trkpt lat="29.65326759238236" lon="-8.324867312070678"><ele>798.0</ele><time>2026-04-15T11:48:57Z</time></trkpt><trkpt lat="29.65329572309586" lon="-8.324651729884556"><ele>798.0</ele><time>2026-04-15T11:48:58Z</time></trkpt><trkpt lat="29.653315298885893" lon="-8.324435869578295"><ele>797.3333333333333</ele><time>2026-04-15T11:48:59Z</time></trkpt><trkpt lat="29.653323925444745" lon="-8.324218450414902"><ele>796.6666666666666</ele><time>2026-04-15T11:49:00Z</time></trkpt><trkpt lat="29.65332241828621" lon="-8.324000131361196"><ele>796.0</ele><time>2026-04-15T11:49:01Z</time></trkpt><trkpt lat="29.653309772955204" lon="-8.323775599911228"><ele>795.3333333333333</ele><time>2026-04-15T11:49:02Z</time></trkpt><trkpt lat="29.653287162634186" lon="-8.323549245522806"><ele>794.6666666666667</ele><time>2026-04-15T11:49:03Z</time></trkpt><trkpt lat="29.653254213531618" lon="-8.323320504168704"><ele>794.0</ele><time>2026-04-15T11:49:04Z</time></trkpt><trkpt lat="29.653213669497728" lon="-8.323097860321049"><ele>793.3333333333334</ele><time>2026-04-15T11:49:05Z</time></trkpt><trkpt lat="29.653162275484995" lon="-8.322882547414673"><ele>792.6666666666667</ele><time>2026-04-15T11:49:06Z</time></trkpt><trkpt lat="29.653103643796822" lon="-8.322671194018286"><ele>792.0</ele><time>2026-04-15T11:49:07Z</time></trkpt><trkpt lat="29.653044034609405" lon="-8.322459319936737"><ele>792.0</ele><time>2026-04-15T11:49:08Z</time></trkpt><trkpt lat="29.652987920747922" lon="-8.32224691786044"><ele>792.0</ele><time>2026-04-15T11:49:09Z</time></trkpt><trkpt lat="29.65293190192757" lon="-8.322035733873507"><ele>792.0</ele><time>2026-04-15T11:49:10Z</time></trkpt><trkpt lat="29.652876198706927" lon="-8.321828691542606"><ele>792.0</ele><time>2026-04-15T11:49:11Z</time></trkpt><trkpt lat="29.652820589207582" lon="-8.321623367834954"><ele>792.0</ele><time>2026-04-15T11:49:12Z</time></trkpt><trkpt lat="29.65276828371055" lon="-8.321419530675884"><ele>792.0</ele><time>2026-04-15T11:49:13Z</time></trkpt><trkpt lat="29.65271781369095" lon="-8.321211450325649"><ele>791.6666666666667</ele><time>2026-04-15T11:49:14Z</time></trkpt><trkpt lat="29.652665659420563" lon="-8.32100498031611"><ele>791.3333333333334</ele><time>2026-04-15T11:49:15Z</time></trkpt><trkpt lat="29.652614057067616" lon="-8.320802639241265"><ele>791.0</ele><time>2026-04-15T11:49:16Z</time></trkpt><trkpt lat="29.652564635652794" lon="-8.32061024666439"><ele>790.3333333333334</ele><time>2026-04-15T11:49:17Z</time></trkpt><trkpt lat="29.65251519291035" lon="-8.320424385584868"><ele>789.6666666666667</ele><time>2026-04-15T11:49:18Z</time></trkpt><trkpt lat="29.652466807331734" lon="-8.32023977285747"><ele>789.0</ele><time>2026-04-15T11:49:19Z</time></trkpt><trkpt lat="29.652417468968235" lon="-8.320053528616201"><ele>789.0</ele><time>2026-04-15T11:49:20Z</time></trkpt><trkpt lat="29.652366999975072" lon="-8.31986977133355"><ele>789.0</ele><time>2026-04-15T11:49:21Z</time></trkpt><trkpt lat="29.652318171077965" lon="-8.319684865548318"><ele>789.0</ele><time>2026-04-15T11:49:22Z</time></trkpt><trkpt lat="29.652267203389044" lon="-8.319492691791806"><ele>789.0</ele><time>2026-04-15T11:49:23Z</time></trkpt><trkpt lat="29.652219785486167" lon="-8.319302940829855"><ele>789.0</ele><time>2026-04-15T11:49:24Z</time></trkpt><trkpt lat="29.65217407251263" lon="-8.319113569599061"><ele>789.0</ele><time>2026-04-15T11:49:25Z</time></trkpt><trkpt lat="29.652129006738548" lon="-8.318933138320252"><ele>788.6666666666667</ele><time>2026-04-15T11:49:26Z</time></trkpt><trkpt lat="29.652083453258964" lon="-8.318761713122797"><ele>788.3333333333334</ele><time>2026-04-15T11:49:27Z</time></trkpt><trkpt lat="29.65204093011196" lon="-8.31859945908561"><ele>788.0</ele><time>2026-04-15T11:49:28Z</time></trkpt><trkpt lat="29.651998914131656" lon="-8.31843755184649"><ele>788.0</ele><time>2026-04-15T11:49:29Z</time></trkpt><trkpt lat="29.651958775659814" lon="-8.318270195026482"><ele>788.0</ele><time>2026-04-15T11:49:30Z</time></trkpt><trkpt lat="29.65191644815015" lon="-8.31809982787311"><ele>788.0</ele><time>2026-04-15T11:49:31Z</time></trkpt><trkpt lat="29.651864219563592" lon="-8.31792636714247"><ele>786.6666666666667</ele><time>2026-04-15T11:49:32Z</time></trkpt><trkpt lat="29.65180727143649" lon="-8.317746354501026"><ele>785.3333333333333</ele><time>2026-04-15T11:49:33Z</time></trkpt><trkpt lat="29.651747412498555" lon="-8.317560895478753"><ele>784.0</ele><time>2026-04-15T11:49:34Z</time></trkpt><trkpt lat="29.651679597088677" lon="-8.317367690570839"><ele>784.0</ele><time>2026-04-15T11:49:35Z</time></trkpt><trkpt lat="29.65159904414103" lon="-8.317172280502422"><ele>784.0</ele><time>2026-04-15T11:49:36Z</time></trkpt><trkpt lat="29.65151152993988" lon="-8.3169796312591"><ele>784.0</ele><time>2026-04-15T11:49:37Z</time></trkpt><trkpt lat="29.651415325712136" lon="-8.316794378096885"><ele>784.0</ele><time>2026-04-15T11:49:38Z</time></trkpt><trkpt lat="29.651314231702905" lon="-8.316618813704544"><ele>784.0</ele><time>2026-04-15T11:49:39Z</time></trkpt><trkpt lat="29.65120433181574" lon="-8.316451469131659"><ele>784.0</ele><time>2026-04-15T11:49:40Z</time></trkpt><trkpt lat="29.651081401680305" lon="-8.316292786499101"><ele>783.0</ele><time>2026-04-15T11:49:41Z</time></trkpt><trkpt lat="29.650948972217517" lon="-8.316143998485954"><ele>782.0</ele><time>2026-04-15T11:49:42Z</time></trkpt><trkpt lat="29.650804677832213" lon="-8.315999974838864"><ele>781.0</ele><time>2026-04-15T11:49:43Z</time></trkpt><trkpt lat="29.65065681178717" lon="-8.315859957027735"><ele>781.0</ele><time>2026-04-15T11:49:44Z</time></trkpt><trkpt lat="29.650510731347627" lon="-8.315729869213552"><ele>781.0</ele><time>2026-04-15T11:49:45Z</time></trkpt><trkpt lat="29.650365124743573" lon="-8.315606711398974"><ele>781.0</ele><time>2026-04-15T11:49:46Z</time></trkpt><trkpt lat="29.650214973023665" lon="-8.315496911777917"><ele>779.6666666666666</ele><time>2026-04-15T11:49:47Z</time></trkpt><trkpt lat="29.65005661593068" lon="-8.315395123732364"><ele>778.3333333333333</ele><time>2026-04-15T11:49:48Z</time></trkpt><trkpt lat="29.649892648945556" lon="-8.315298778339223"><ele>777.0</ele><time>2026-04-15T11:49:49Z</time></trkpt><trkpt lat="29.649719072544663" lon="-8.31520946416723"><ele>777.0</ele><time>2026-04-15T11:49:50Z</time></trkpt><trkpt lat="29.649536740558624" lon="-8.315156327238604"><ele>777.0</ele><time>2026-04-15T11:49:51Z</time></trkpt><trkpt lat="29.649361765007953" lon="-8.315077803297942"><ele>777.0</ele><time>2026-04-15T11:49:52Z</time></trkpt><trkpt lat="29.649182966111205" lon="-8.315019492986604"><ele>777.0</ele><time>2026-04-15T11:49:53Z</time></trkpt><trkpt lat="29.64900398765614" lon="-8.314956803188473"><ele>777.0</ele><time>2026-04-15T11:49:54Z</time></trkpt><trkpt lat="29.64882615765813" lon="-8.314898613042162"><ele>777.0</ele><time>2026-04-15T11:49:55Z</time></trkpt><trkpt lat="29.648654100710967" lon="-8.314839882519808"><ele>778.0</ele><time>2026-04-15T11:49:56Z</time></trkpt><trkpt lat="29.648483000954958" lon="-8.31477713731785"><ele>779.0</ele><time>2026-04-15T11:49:57Z</time></trkpt><trkpt lat="29.648315476729827" lon="-8.314716646928364"><ele>780.0</ele><time>2026-04-15T11:49:58Z</time></trkpt><trkpt lat="29.648143838295194" lon="-8.314657079416602"><ele>778.0</ele><time>2026-04-15T11:49:59Z</time></trkpt><trkpt lat="29.647967635324427" lon="-8.314593013168944"><ele>776.0</ele><time>2026-04-15T11:50:00Z</time></trkpt><trkpt lat="29.647791473684034" lon="-8.314526522096186"><ele>774.0</ele><time>2026-04-15T11:50:01Z</time></trkpt><trkpt lat="29.64761746941884" lon="-8.314460643860977"><ele>773.3333333333333</ele><time>2026-04-15T11:50:02Z</time></trkpt><trkpt lat="29.64744792252902" lon="-8.314394923412646"><ele>772.6666666666666</ele><time>2026-04-15T11:50:03Z</time></trkpt><trkpt lat="29.647279556893793" lon="-8.314322624537699"><ele>772.0</ele><time>2026-04-15T11:50:04Z</time></trkpt><trkpt lat="29.647110079539253" lon="-8.314243074417123"><ele>774.0</ele><time>2026-04-15T11:50:05Z</time></trkpt><trkpt lat="29.646942366735157" lon="-8.314151460054937"><ele>776.0</ele><time>2026-04-15T11:50:06Z</time></trkpt><trkpt lat="29.64678362660455" lon="-8.3140511089478"><ele>778.0</ele><time>2026-04-15T11:50:07Z</time></trkpt><trkpt lat="29.646637212214515" lon="-8.313929221651746"><ele>775.6666666666666</ele><time>2026-04-15T11:50:08Z</time></trkpt><trkpt lat="29.646496400236423" lon="-8.313796923402318"><ele>773.3333333333333</ele><time>2026-04-15T11:50:09Z</time></trkpt><trkpt lat="29.646352588986513" lon="-8.3136616055939"><ele>771.0</ele><time>2026-04-15T11:50:10Z</time></trkpt><trkpt lat="29.646205439883307" lon="-8.31351742485592"><ele>770.6666666666667</ele><time>2026-04-15T11:50:11Z</time></trkpt><trkpt lat="29.646061389475783" lon="-8.313365490589346"><ele>770.3333333333334</ele><time>2026-04-15T11:50:12Z</time></trkpt><trkpt lat="29.645921149495774" lon="-8.313204604774498"><ele>770.0</ele><time>2026-04-15T11:50:13Z</time></trkpt><trkpt lat="29.645788576968624" lon="-8.313051351363521"><ele>769.3333333333334</ele><time>2026-04-15T11:50:14Z</time></trkpt><trkpt lat="29.645658256116775" lon="-8.312905143641386"><ele>768.6666666666667</ele><time>2026-04-15T11:50:15Z</time></trkpt><trkpt lat="29.64552519806009" lon="-8.31275717349924"><ele>768.0</ele><time>2026-04-15T11:50:16Z</time></trkpt><trkpt lat="29.645391944446313" lon="-8.312610277659683"><ele>768.0</ele><time>2026-04-15T11:50:17Z</time></trkpt><trkpt lat="29.64525937062181" lon="-8.312458430070684"><ele>768.0</ele><time>2026-04-15T11:50:18Z</time></trkpt><trkpt lat="29.645120364288328" lon="-8.312300935260179"><ele>768.0</ele><time>2026-04-15T11:50:19Z</time></trkpt><trkpt lat="29.644976900935866" lon="-8.31214353856428"><ele>768.0</ele><time>2026-04-15T11:50:20Z</time></trkpt><trkpt lat="29.644840080448866" lon="-8.311985388286717"><ele>768.0</ele><time>2026-04-15T11:50:21Z</time></trkpt><trkpt lat="29.644705627664404" lon="-8.311835223432967"><ele>768.0</ele><time>2026-04-15T11:50:22Z</time></trkpt><trkpt lat="29.64457295689976" lon="-8.311693263154728"><ele>767.6666666666666</ele><time>2026-04-15T11:50:23Z</time></trkpt><trkpt lat="29.644441640133813" lon="-8.311551367941387"><ele>767.3333333333333</ele><time>2026-04-15T11:50:24Z</time></trkpt><trkpt lat="29.644319973613257" lon="-8.311401535161522"><ele>767.0</ele><time>2026-04-15T11:50:25Z</time></trkpt><trkpt lat="29.64419900312501" lon="-8.311245020146247"><ele>768.3333333333333</ele><time>2026-04-15T11:50:26Z</time></trkpt><trkpt lat="29.644081930561885" lon="-8.311087643514755"><ele>769.6666666666666</ele><time>2026-04-15T11:50:27Z</time></trkpt><trkpt lat="29.643971130048914" lon="-8.310918073415385"><ele>771.0</ele><time>2026-04-15T11:50:28Z</time></trkpt><trkpt lat="29.643870084416932" lon="-8.310742435710257"><ele>770.6666666666667</ele><time>2026-04-15T11:50:29Z</time></trkpt><trkpt lat="29.64378104118613" lon="-8.310559103164534"><ele>770.3333333333334</ele><time>2026-04-15T11:50:30Z</time></trkpt><trkpt lat="29.643702624233544" lon="-8.3103684970816"><ele>770.0</ele><time>2026-04-15T11:50:31Z</time></trkpt><trkpt lat="29.643636342231915" lon="-8.31017672791272"><ele>768.0</ele><time>2026-04-15T11:50:32Z</time></trkpt><trkpt lat="29.643575627274593" lon="-8.309985410517235"><ele>766.0</ele><time>2026-04-15T11:50:33Z</time></trkpt><trkpt lat="29.643514298706954" lon="-8.309790841267306"><ele>764.0</ele><time>2026-04-15T11:50:34Z</time></trkpt><trkpt lat="29.643457426632608" lon="-8.30959353580297"><ele>764.0</ele><time>2026-04-15T11:50:35Z</time></trkpt><trkpt lat="29.643410526490484" lon="-8.309407185334855"><ele>764.0</ele><time>2026-04-15T11:50:36Z</time></trkpt><trkpt lat="29.643375655120998" lon="-8.309216230702448"><ele>764.0</ele><time>2026-04-15T11:50:37Z</time></trkpt><trkpt lat="29.64334900367518" lon="-8.30902179473296"><ele>764.3333333333333</ele><time>2026-04-15T11:50:38Z</time></trkpt><trkpt lat="29.643339775554796" lon="-8.308825446053103"><ele>764.6666666666666</ele><time>2026-04-15T11:50:39Z</time></trkpt><trkpt lat="29.643343152898506" lon="-8.30863024766171"><ele>765.0</ele><time>2026-04-15T11:50:40Z</time></trkpt><trkpt lat="29.643355580486418" lon="-8.308438477634146"><ele>765.0</ele><time>2026-04-15T11:50:41Z</time></trkpt><trkpt lat="29.64336934306678" lon="-8.308244829915958"><ele>765.0</ele><time>2026-04-15T11:50:42Z</time></trkpt><trkpt lat="29.643382919761464" lon="-8.308051356219325"><ele>765.0</ele><time>2026-04-15T11:50:43Z</time></trkpt><trkpt lat="29.643409051817674" lon="-8.30786461238234"><ele>764.6666666666666</ele><time>2026-04-15T11:50:44Z</time></trkpt><trkpt lat="29.6434443455413" lon="-8.307680385868538"><ele>764.3333333333333</ele><time>2026-04-15T11:50:45Z</time></trkpt><trkpt lat="29.643484340008424" lon="-8.307499970635195"><ele>764.0</ele><time>2026-04-15T11:50:46Z</time></trkpt><trkpt lat="29.643523789727478" lon="-8.30731549936"><ele>764.0</ele><time>2026-04-15T11:50:47Z</time></trkpt><trkpt lat="29.643560022012135" lon="-8.30713373493203"><ele>764.0</ele><time>2026-04-15T11:50:48Z</time></trkpt><trkpt lat="29.64360273149108" lon="-8.306953582642036"><ele>764.0</ele><time>2026-04-15T11:50:49Z</time></trkpt><trkpt lat="29.64364771944063" lon="-8.306771974885375"><ele>764.0</ele><time>2026-04-15T11:50:50Z</time></trkpt><trkpt lat="29.64368929826344" lon="-8.306592877951083"><ele>764.0</ele><time>2026-04-15T11:50:51Z</time></trkpt><trkpt lat="29.643730338047458" lon="-8.306408105364872"><ele>764.0</ele><time>2026-04-15T11:50:52Z</time></trkpt><trkpt lat="29.643771954223446" lon="-8.306216754328684"><ele>763.6666666666666</ele><time>2026-04-15T11:50:53Z</time></trkpt><trkpt lat="29.643813418337864" lon="-8.306027701027052"><ele>763.3333333333334</ele><time>2026-04-15T11:50:54Z</time></trkpt><trkpt lat="29.643856970742362" lon="-8.305830289929036"><ele>763.0</ele><time>2026-04-15T11:50:55Z</time></trkpt><trkpt lat="29.64390439029052" lon="-8.30563367057016"><ele>762.3333333333334</ele><time>2026-04-15T11:50:56Z</time></trkpt><trkpt lat="29.643946834813995" lon="-8.305440162359083"><ele>761.6666666666666</ele><time>2026-04-15T11:50:57Z</time></trkpt><trkpt lat="29.64398663138543" lon="-8.305243144628266"><ele>761.0</ele><time>2026-04-15T11:50:58Z</time></trkpt><trkpt lat="29.644028417408947" lon="-8.305050254095951"><ele>761.0</ele><time>2026-04-15T11:50:59Z</time></trkpt><trkpt lat="29.6440746905738" lon="-8.304851683019706"><ele>761.0</ele><time>2026-04-15T11:51:00Z</time></trkpt><trkpt lat="29.644119079793423" lon="-8.304656097532574"><ele>761.0</ele><time>2026-04-15T11:51:01Z</time></trkpt><trkpt lat="29.64415842958098" lon="-8.304461983658248"><ele>761.0</ele><time>2026-04-15T11:51:02Z</time></trkpt><trkpt lat="29.644196319130522" lon="-8.304279198958124"><ele>761.0</ele><time>2026-04-15T11:51:03Z</time></trkpt><trkpt lat="29.644231053924077" lon="-8.304092688784554"><ele>761.0</ele><time>2026-04-15T11:51:04Z</time></trkpt><trkpt lat="29.644269375005354" lon="-8.303903867887431"><ele>762.0</ele><time>2026-04-15T11:51:05Z</time></trkpt><trkpt lat="29.644309038833068" lon="-8.303720038795253"><ele>763.0</ele><time>2026-04-15T11:51:06Z</time></trkpt><trkpt lat="29.644358367208913" lon="-8.303532278062402"><ele>764.0</ele><time>2026-04-15T11:51:07Z</time></trkpt><trkpt lat="29.64440751339338" lon="-8.303345296911717"><ele>764.0</ele><time>2026-04-15T11:51:08Z</time></trkpt><trkpt lat="29.644458110396048" lon="-8.303164681884537"><ele>764.0</ele><time>2026-04-15T11:51:09Z</time></trkpt><trkpt lat="29.64451979598765" lon="-8.30299190370777"><ele>764.0</ele><time>2026-04-15T11:51:10Z</time></trkpt><trkpt lat="29.644594577706595" lon="-8.302827263102754"><ele>764.0</ele><time>2026-04-15T11:51:11Z</time></trkpt><trkpt lat="29.64468679408664" lon="-8.302671177547461"><ele>764.0</ele><time>2026-04-15T11:51:12Z</time></trkpt><trkpt lat="29.64478840500072" lon="-8.302520880353775"><ele>764.0</ele><time>2026-04-15T11:51:13Z</time></trkpt><trkpt lat="29.64488963692848" lon="-8.302369444697456"><ele>767.3333333333333</ele><time>2026-04-15T11:51:14Z</time></trkpt><trkpt lat="29.644987032736484" lon="-8.302217338134293"><ele>770.6666666666666</ele><time>2026-04-15T11:51:15Z</time></trkpt><trkpt lat="29.64508263274366" lon="-8.302061463521854"><ele>774.0</ele><time>2026-04-15T11:51:16Z</time></trkpt><trkpt lat="29.645186400488956" lon="-8.301907562961246"><ele>774.0</ele><time>2026-04-15T11:51:17Z</time></trkpt><trkpt lat="29.64529276650634" lon="-8.301759820177049"><ele>774.0</ele><time>2026-04-15T11:51:18Z</time></trkpt><trkpt lat="29.645396288850044" lon="-8.30161289905897"><ele>774.0</ele><time>2026-04-15T11:51:19Z</time></trkpt><trkpt lat="29.64550119474706" lon="-8.301469895369518"><ele>772.3333333333333</ele><time>2026-04-15T11:51:20Z</time></trkpt><trkpt lat="29.645608907515356" lon="-8.301313844534471"><ele>770.6666666666666</ele><time>2026-04-15T11:51:21Z</time></trkpt><trkpt lat="29.645715012095156" lon="-8.301152516215572"><ele>769.0</ele><time>2026-04-15T11:51:22Z</time></trkpt><trkpt lat="29.6458268503089" lon="-8.30098999822661"><ele>769.0</ele><time>2026-04-15T11:51:23Z</time></trkpt><trkpt lat="29.645943366323703" lon="-8.300828769909414"><ele>769.0</ele><time>2026-04-15T11:51:24Z</time></trkpt><trkpt lat="29.646056158128697" lon="-8.300672736695239"><ele>769.0</ele><time>2026-04-15T11:51:25Z</time></trkpt><trkpt lat="29.64616767214228" lon="-8.30051740430695"><ele>769.6666666666666</ele><time>2026-04-15T11:51:26Z</time></trkpt><trkpt lat="29.646281329889526" lon="-8.30036137730183"><ele>770.3333333333333</ele><time>2026-04-15T11:51:27Z</time></trkpt><trkpt lat="29.646394776557194" lon="-8.300203519811484"><ele>771.0</ele><time>2026-04-15T11:51:28Z</time></trkpt><trkpt lat="29.646506369357493" lon="-8.3000397721332"><ele>771.0</ele><time>2026-04-15T11:51:29Z</time></trkpt><trkpt lat="29.646615027344914" lon="-8.29987586481492"><ele>771.0</ele><time>2026-04-15T11:51:30Z</time></trkpt><trkpt lat="29.64672379980644" lon="-8.299712054147772"><ele>771.0</ele><time>2026-04-15T11:51:31Z</time></trkpt><trkpt lat="29.646838352851052" lon="-8.29954375089379"><ele>772.3333333333333</ele><time>2026-04-15T11:51:32Z</time></trkpt><trkpt lat="29.646944292360132" lon="-8.299371856596201"><ele>773.6666666666666</ele><time>2026-04-15T11:51:33Z</time></trkpt><trkpt lat="29.64704193370419" lon="-8.299200526819302"><ele>775.0</ele><time>2026-04-15T11:51:34Z</time></trkpt><trkpt lat="29.647129362966005" lon="-8.299029932334657"><ele>775.6666666666666</ele><time>2026-04-15T11:51:35Z</time></trkpt><trkpt lat="29.647211150215927" lon="-8.298853742274641"><ele>776.3333333333333</ele><time>2026-04-15T11:51:36Z</time></trkpt><trkpt lat="29.647295313966563" lon="-8.29867853168632"><ele>777.0</ele><time>2026-04-15T11:51:37Z</time></trkpt><trkpt lat="29.647384879087173" lon="-8.298499384580708"><ele>777.0</ele><time>2026-04-15T11:51:38Z</time></trkpt><trkpt lat="29.6474775232116" lon="-8.298325423955248"><ele>777.0</ele><time>2026-04-15T11:51:39Z</time></trkpt><trkpt lat="29.647571184784592" lon="-8.298157014096613"><ele>777.0</ele><time>2026-04-15T11:51:40Z</time></trkpt><trkpt lat="29.647664152400914" lon="-8.2979891371761"><ele>776.6666666666667</ele><time>2026-04-15T11:51:41Z</time></trkpt><trkpt lat="29.647757255932085" lon="-8.297815684265775"><ele>776.3333333333334</ele><time>2026-04-15T11:51:42Z</time></trkpt><trkpt lat="29.64784805586843" lon="-8.297644041400531"><ele>776.0</ele><time>2026-04-15T11:51:43Z</time></trkpt><trkpt lat="29.64793847233009" lon="-8.297473434181803"><ele>776.0</ele><time>2026-04-15T11:51:44Z</time></trkpt><trkpt lat="29.64803060830216" lon="-8.29729558542428"><ele>776.0</ele><time>2026-04-15T11:51:45Z</time></trkpt><trkpt lat="29.648117935194495" lon="-8.297121319755039"><ele>776.0</ele><time>2026-04-15T11:51:46Z</time></trkpt><trkpt lat="29.648208878359558" lon="-8.296948512744255"><ele>775.6666666666667</ele><time>2026-04-15T11:51:47Z</time></trkpt><trkpt lat="29.64829863995054" lon="-8.296775273136399"><ele>775.3333333333333</ele><time>2026-04-15T11:51:48Z</time></trkpt><trkpt lat="29.648390355692683" lon="-8.296596605517605"><ele>775.0</ele><time>2026-04-15T11:51:49Z</time></trkpt><trkpt lat="29.648483988116695" lon="-8.296413547231529"><ele>775.0</ele><time>2026-04-15T11:51:50Z</time></trkpt><trkpt lat="29.64857559940534" lon="-8.296234128071244"><ele>775.0</ele><time>2026-04-15T11:51:51Z</time></trkpt><trkpt lat="29.648666819498228" lon="-8.296058181559836"><ele>775.0</ele><time>2026-04-15T11:51:52Z</time></trkpt><trkpt lat="29.648760056084598" lon="-8.295884254854059"><ele>775.3333333333333</ele><time>2026-04-15T11:51:53Z</time></trkpt><trkpt lat="29.648850887429177" lon="-8.295710395886966"><ele>775.6666666666667</ele><time>2026-04-15T11:51:54Z</time></trkpt><trkpt lat="29.648939993846753" lon="-8.295535617871364"><ele>776.0</ele><time>2026-04-15T11:51:55Z</time></trkpt><trkpt lat="29.649032888431982" lon="-8.295357453537795"><ele>776.6666666666667</ele><time>2026-04-15T11:51:56Z</time></trkpt><trkpt lat="29.649128876074066" lon="-8.295178547266268"><ele>777.3333333333333</ele><time>2026-04-15T11:51:57Z</time></trkpt><trkpt lat="29.649218197189764" lon="-8.294998879538905"><ele>778.0</ele><time>2026-04-15T11:51:58Z</time></trkpt><trkpt lat="29.649307373503646" lon="-8.294823182207475"><ele>778.3333333333333</ele><time>2026-04-15T11:51:59Z</time></trkpt><trkpt lat="29.649394735468128" lon="-8.294656774866047"><ele>778.6666666666667</ele><time>2026-04-15T11:52:00Z</time></trkpt><trkpt lat="29.649475187904574" lon="-8.294503417165714"><ele>779.0</ele><time>2026-04-15T11:52:01Z</time></trkpt><trkpt lat="29.649547515737282" lon="-8.294354069375963"><ele>779.6666666666667</ele><time>2026-04-15T11:52:02Z</time></trkpt><trkpt lat="29.6496188945778" lon="-8.294207343315163"><ele>780.3333333333333</ele><time>2026-04-15T11:52:03Z</time></trkpt><trkpt lat="29.64969694481682" lon="-8.2940573998981"><ele>781.0</ele><time>2026-04-15T11:52:04Z</time></trkpt><trkpt lat="29.649777856458535" lon="-8.293903717893944"><ele>781.6666666666666</ele><time>2026-04-15T11:52:05Z</time></trkpt><trkpt lat="29.649859035580867" lon="-8.29374955089683"><ele>782.3333333333333</ele><time>2026-04-15T11:52:06Z</time></trkpt><trkpt lat="29.649936726465757" lon="-8.293598598465675"><ele>783.0</ele><time>2026-04-15T11:52:07Z</time></trkpt><trkpt lat="29.650012647980752" lon="-8.293449034062172"><ele>783.0</ele><time>2026-04-15T11:52:08Z</time></trkpt><trkpt lat="29.65008964586955" lon="-8.293300373514946"><ele>783.0</ele><time>2026-04-15T11:52:09Z</time></trkpt><trkpt lat="29.650162255490898" lon="-8.293156678108057"><ele>783.0</ele><time>2026-04-15T11:52:10Z</time></trkpt><trkpt lat="29.65023528409855" lon="-8.293015963008841"><ele>783.0</ele><time>2026-04-15T11:52:11Z</time></trkpt><trkpt lat="29.650303925065693" lon="-8.292876761476423"><ele>783.25</ele><time>2026-04-15T11:52:12Z</time></trkpt><trkpt lat="29.650375391763" lon="-8.292738439951034"><ele>783.5</ele><time>2026-04-15T11:52:13Z</time></trkpt><trkpt lat="29.650451876241004" lon="-8.292597840319301"><ele>783.75</ele><time>2026-04-15T11:52:14Z</time></trkpt><trkpt lat="29.650528442795718" lon="-8.292452534232567"><ele>784.0</ele><time>2026-04-15T11:52:15Z</time></trkpt><trkpt lat="29.65060537029221" lon="-8.29230334991129"><ele>784.3333333333333</ele><time>2026-04-15T11:52:16Z</time></trkpt><trkpt lat="29.650684322447077" lon="-8.292147733193232"><ele>784.6666666666667</ele><time>2026-04-15T11:52:17Z</time></trkpt><trkpt lat="29.650764946197263" lon="-8.291989885046238"><ele>785.0</ele><time>2026-04-15T11:52:18Z</time></trkpt><trkpt lat="29.650846475608997" lon="-8.291829684596523"><ele>785.0</ele><time>2026-04-15T11:52:19Z</time></trkpt><trkpt lat="29.65092855009736" lon="-8.291664493755372"><ele>785.0</ele><time>2026-04-15T11:52:20Z</time></trkpt><trkpt lat="29.651017749689593" lon="-8.291499245882145"><ele>785.0</ele><time>2026-04-15T11:52:21Z</time></trkpt><trkpt lat="29.651103929238932" lon="-8.291331957362114"><ele>785.3333333333334</ele><time>2026-04-15T11:52:22Z</time></trkpt><trkpt lat="29.651189767611505" lon="-8.29116899559104"><ele>785.6666666666667</ele><time>2026-04-15T11:52:23Z</time></trkpt><trkpt lat="29.651273270839788" lon="-8.29100692913169"><ele>786.0</ele><time>2026-04-15T11:52:24Z</time></trkpt><trkpt lat="29.651351699571524" lon="-8.290846903254277"><ele>786.0</ele><time>2026-04-15T11:52:25Z</time></trkpt><trkpt lat="29.651423757624197" lon="-8.290685232931471"><ele>786.0</ele><time>2026-04-15T11:52:26Z</time></trkpt><trkpt lat="29.65148815890308" lon="-8.290513925130968"><ele>786.0</ele><time>2026-04-15T11:52:27Z</time></trkpt><trkpt lat="29.651548976565685" lon="-8.290339615166113"><ele>786.25</ele><time>2026-04-15T11:52:28Z</time></trkpt><trkpt lat="29.651600103089642" lon="-8.290167960176186"><ele>786.5</ele><time>2026-04-15T11:52:29Z</time></trkpt><trkpt lat="29.651642532558657" lon="-8.29000543871181"><ele>786.75</ele><time>2026-04-15T11:52:30Z</time></trkpt><trkpt lat="29.651674248169368" lon="-8.289844432541086"><ele>787.0</ele><time>2026-04-15T11:52:31Z</time></trkpt><trkpt lat="29.65169898709553" lon="-8.289680623829367"><ele>787.0</ele><time>2026-04-15T11:52:32Z</time></trkpt><trkpt lat="29.65172168183272" lon="-8.289511482454513"><ele>787.0</ele><time>2026-04-15T11:52:33Z</time></trkpt><trkpt lat="29.651742986155813" lon="-8.289337669028376"><ele>787.0</ele><time>2026-04-15T11:52:34Z</time></trkpt><trkpt lat="29.651756514380814" lon="-8.289165256547685"><ele>787.0</ele><time>2026-04-15T11:52:35Z</time></trkpt><trkpt lat="29.651764621735595" lon="-8.289003653565391"><ele>787.0</ele><time>2026-04-15T11:52:36Z</time></trkpt><trkpt lat="29.651762259293093" lon="-8.28884746197016"><ele>787.0</ele><time>2026-04-15T11:52:37Z</time></trkpt><trkpt lat="29.651756151238736" lon="-8.288681312572699"><ele>787.0</ele><time>2026-04-15T11:52:38Z</time></trkpt><trkpt lat="29.651742634685736" lon="-8.288502776921698"><ele>787.6666666666666</ele><time>2026-04-15T11:52:39Z</time></trkpt><trkpt lat="29.651724894258773" lon="-8.288323219607326"><ele>788.3333333333333</ele><time>2026-04-15T11:52:40Z</time></trkpt><trkpt lat="29.65170062526871" lon="-8.288138497327134"><ele>789.0</ele><time>2026-04-15T11:52:41Z</time></trkpt><trkpt lat="29.651663260967673" lon="-8.287950687348289"><ele>790.0</ele><time>2026-04-15T11:52:42Z</time></trkpt><trkpt lat="29.651620102852515" lon="-8.287758774297417"><ele>791.0</ele><time>2026-04-15T11:52:43Z</time></trkpt><trkpt lat="29.651575180311855" lon="-8.287572264710468"><ele>792.0</ele><time>2026-04-15T11:52:44Z</time></trkpt><trkpt lat="29.651538970741612" lon="-8.287391070266946"><ele>793.6666666666667</ele><time>2026-04-15T11:52:45Z</time></trkpt><trkpt lat="29.65150019415178" lon="-8.287212242272412"><ele>795.3333333333334</ele><time>2026-04-15T11:52:46Z</time></trkpt><trkpt lat="29.651459971717895" lon="-8.287032920322616"><ele>797.0</ele><time>2026-04-15T11:52:47Z</time></trkpt><trkpt lat="29.651414748473222" lon="-8.286849325831108"><ele>797.0</ele><time>2026-04-15T11:52:48Z</time></trkpt><trkpt lat="29.651373635351774" lon="-8.286659030235981"><ele>797.0</ele><time>2026-04-15T11:52:49Z</time></trkpt><trkpt lat="29.6513302697446" lon="-8.286473412463927"><ele>797.0</ele><time>2026-04-15T11:52:50Z</time></trkpt><trkpt lat="29.651288335717258" lon="-8.286291570949343"><ele>795.0</ele><time>2026-04-15T11:52:51Z</time></trkpt><trkpt lat="29.651245039656917" lon="-8.286108512274184"><ele>793.0</ele><time>2026-04-15T11:52:52Z</time></trkpt><trkpt lat="29.651203895500124" lon="-8.28592341860023"><ele>791.0</ele><time>2026-04-15T11:52:53Z</time></trkpt><trkpt lat="29.651168380656966" lon="-8.285750162198738"><ele>790.0</ele><time>2026-04-15T11:52:54Z</time></trkpt><trkpt lat="29.6511361866446" lon="-8.285579164979211"><ele>789.0</ele><time>2026-04-15T11:52:55Z</time></trkpt><trkpt lat="29.651101027425717" lon="-8.285409434331092"><ele>788.0</ele><time>2026-04-15T11:52:56Z</time></trkpt><trkpt lat="29.651058137445066" lon="-8.285235321383094"><ele>786.3333333333334</ele><time>2026-04-15T11:52:57Z</time></trkpt><trkpt lat="29.651012272696708" lon="-8.28505895859456"><ele>784.6666666666667</ele><time>2026-04-15T11:52:58Z</time></trkpt><trkpt lat="29.65096906521794" lon="-8.284878147749739"><ele>783.0</ele><time>2026-04-15T11:52:59Z</time></trkpt><trkpt lat="29.650928322014202" lon="-8.284692220727253"><ele>783.0</ele><time>2026-04-15T11:53:00Z</time></trkpt><trkpt lat="29.65088768694956" lon="-8.28450358796818"><ele>783.0</ele><time>2026-04-15T11:53:01Z</time></trkpt><trkpt lat="29.650849739491562" lon="-8.28432357696806"><ele>783.0</ele><time>2026-04-15T11:53:02Z</time></trkpt><trkpt lat="29.650812694156254" lon="-8.284149631395616"><ele>783.0</ele><time>2026-04-15T11:53:03Z</time></trkpt><trkpt lat="29.6507757617693" lon="-8.283969866714141"><ele>783.0</ele><time>2026-04-15T11:53:04Z</time></trkpt><trkpt lat="29.6507332334002" lon="-8.283783956196087"><ele>783.0</ele><time>2026-04-15T11:53:05Z</time></trkpt><trkpt lat="29.650693539265152" lon="-8.283597335462721"><ele>783.0</ele><time>2026-04-15T11:53:06Z</time></trkpt><trkpt lat="29.650646170040226" lon="-8.283404769457688"><ele>783.0</ele><time>2026-04-15T11:53:07Z</time></trkpt><trkpt lat="29.650600715074937" lon="-8.283218770771672"><ele>783.0</ele><time>2026-04-15T11:53:08Z</time></trkpt><trkpt lat="29.65055626855358" lon="-8.283038982652496"><ele>784.0</ele><time>2026-04-15T11:53:09Z</time></trkpt><trkpt lat="29.650524448845168" lon="-8.282857280437458"><ele>785.0</ele><time>2026-04-15T11:53:10Z</time></trkpt><trkpt lat="29.650500533993014" lon="-8.28266765413364"><ele>786.0</ele><time>2026-04-15T11:53:11Z</time></trkpt><trkpt lat="29.6504772062705" lon="-8.282478534786783"><ele>786.0</ele><time>2026-04-15T11:53:12Z</time></trkpt><trkpt lat="29.650454114831383" lon="-8.282280329501122"><ele>786.0</ele><time>2026-04-15T11:53:13Z</time></trkpt><trkpt lat="29.65043190695828" lon="-8.28208064233194"><ele>786.0</ele><time>2026-04-15T11:53:14Z</time></trkpt><trkpt lat="29.65041412035476" lon="-8.28187575940201"><ele>784.0</ele><time>2026-04-15T11:53:15Z</time></trkpt><trkpt lat="29.650396816679653" lon="-8.281673868290575"><ele>782.0</ele><time>2026-04-15T11:53:16Z</time></trkpt><trkpt lat="29.650382604936343" lon="-8.281473408091511"><ele>780.0</ele><time>2026-04-15T11:53:17Z</time></trkpt><trkpt lat="29.650368919496685" lon="-8.281283169974435"><ele>779.3333333333333</ele><time>2026-04-15T11:53:18Z</time></trkpt><trkpt lat="29.650355415820712" lon="-8.281096151607926"><ele>778.6666666666666</ele><time>2026-04-15T11:53:19Z</time></trkpt><trkpt lat="29.650343895446298" lon="-8.28090579954492"><ele>778.0</ele><time>2026-04-15T11:53:20Z</time></trkpt><trkpt lat="29.65033698700135" lon="-8.280707977779953"><ele>777.3333333333333</ele><time>2026-04-15T11:53:21Z</time></trkpt><trkpt lat="29.650314956148343" lon="-8.28051254274315"><ele>776.6666666666667</ele><time>2026-04-15T11:53:22Z</time></trkpt><trkpt lat="29.650297386489477" lon="-8.280311608816795"><ele>776.0</ele><time>2026-04-15T11:53:23Z</time></trkpt><trkpt lat="29.650281414248813" lon="-8.280101053013599"><ele>775.3333333333334</ele><time>2026-04-15T11:53:24Z</time></trkpt><trkpt lat="29.650263542839557" lon="-8.27988810454937"><ele>774.6666666666667</ele><time>2026-04-15T11:53:25Z</time></trkpt><trkpt lat="29.650243558552773" lon="-8.279672061567663"><ele>774.0</ele><time>2026-04-15T11:53:26Z</time></trkpt><trkpt lat="29.65022673163885" lon="-8.279454572134247"><ele>773.6666666666667</ele><time>2026-04-15T11:53:27Z</time></trkpt><trkpt lat="29.650209748659087" lon="-8.279237339379415"><ele>773.3333333333334</ele><time>2026-04-15T11:53:28Z</time></trkpt><trkpt lat="29.65019259538991" lon="-8.279024127999088"><ele>773.0</ele><time>2026-04-15T11:53:29Z</time></trkpt><trkpt lat="29.650177012160025" lon="-8.278814620231799"><ele>772.0</ele><time>2026-04-15T11:53:30Z</time></trkpt><trkpt lat="29.650162091892554" lon="-8.27860866785493"><ele>771.0</ele><time>2026-04-15T11:53:31Z</time></trkpt><trkpt lat="29.650147590943845" lon="-8.27839897170385"><ele>770.0</ele><time>2026-04-15T11:53:32Z</time></trkpt><trkpt lat="29.650130622470606" lon="-8.278190391105479"><ele>770.3333333333334</ele><time>2026-04-15T11:53:33Z</time></trkpt><trkpt lat="29.65011396303256" lon="-8.27798036248499"><ele>770.6666666666667</ele><time>2026-04-15T11:53:34Z</time></trkpt><trkpt lat="29.650097531327" lon="-8.277770871752478"><ele>771.0</ele><time>2026-04-15T11:53:35Z</time></trkpt><trkpt lat="29.650080763325526" lon="-8.277557635527872"><ele>771.0</ele><time>2026-04-15T11:53:36Z</time></trkpt><trkpt lat="29.650062189901732" lon="-8.27734856187167"><ele>771.0</ele><time>2026-04-15T11:53:37Z</time></trkpt><trkpt lat="29.65004424189387" lon="-8.277150624134244"><ele>771.0</ele><time>2026-04-15T11:53:38Z</time></trkpt><trkpt lat="29.650022117602948" lon="-8.27695192769148"><ele>770.3333333333333</ele><time>2026-04-15T11:53:39Z</time></trkpt><trkpt lat="29.65000168787582" lon="-8.276753195994159"><ele>769.6666666666666</ele><time>2026-04-15T11:53:40Z</time></trkpt><trkpt lat="29.64998378225059" lon="-8.27655725226822"><ele>769.0</ele><time>2026-04-15T11:53:41Z</time></trkpt><trkpt lat="29.649969034164265" lon="-8.276359247562226"><ele>768.3333333333333</ele><time>2026-04-15T11:53:42Z</time></trkpt><trkpt lat="29.649953913840406" lon="-8.276161854265474"><ele>767.6666666666666</ele><time>2026-04-15T11:53:43Z</time></trkpt><trkpt lat="29.649935178900925" lon="-8.275959497958315"><ele>767.0</ele><time>2026-04-15T11:53:44Z</time></trkpt><trkpt lat="29.649916283258932" lon="-8.275753665758153"><ele>767.3333333333333</ele><time>2026-04-15T11:53:45Z</time></trkpt><trkpt lat="29.649899386264405" lon="-8.275550321326826"><ele>767.6666666666666</ele><time>2026-04-15T11:53:46Z</time></trkpt><trkpt lat="29.649885103476926" lon="-8.275351814652716"><ele>768.0</ele><time>2026-04-15T11:53:47Z</time></trkpt><trkpt lat="29.6498708404661" lon="-8.275153040746494"><ele>768.0</ele><time>2026-04-15T11:53:48Z</time></trkpt><trkpt lat="29.649854753713868" lon="-8.274954847368974"><ele>768.0</ele><time>2026-04-15T11:53:49Z</time></trkpt><trkpt lat="29.649838845757017" lon="-8.274758355035233"><ele>768.0</ele><time>2026-04-15T11:53:50Z</time></trkpt><trkpt lat="29.64982350784311" lon="-8.27455848264176"><ele>767.0</ele><time>2026-04-15T11:53:51Z</time></trkpt><trkpt lat="29.649808197455016" lon="-8.274355482869387"><ele>766.0</ele><time>2026-04-15T11:53:52Z</time></trkpt><trkpt lat="29.649791970350176" lon="-8.274152947991745"><ele>765.0</ele><time>2026-04-15T11:53:53Z</time></trkpt><trkpt lat="29.649776688961843" lon="-8.273949600215998"><ele>765.0</ele><time>2026-04-15T11:53:54Z</time></trkpt><trkpt lat="29.6497598073082" lon="-8.273745187282005"><ele>765.0</ele><time>2026-04-15T11:53:55Z</time></trkpt><trkpt lat="29.64974123977364" lon="-8.273541593040747"><ele>765.0</ele><time>2026-04-15T11:53:56Z</time></trkpt><trkpt lat="29.64972357064729" lon="-8.273337677100532"><ele>765.0</ele><time>2026-04-15T11:53:57Z</time></trkpt><trkpt lat="29.649707834404804" lon="-8.273139182669171"><ele>765.0</ele><time>2026-04-15T11:53:58Z</time></trkpt><trkpt lat="29.64969173693859" lon="-8.272944957894927"><ele>765.0</ele><time>2026-04-15T11:53:59Z</time></trkpt><trkpt lat="29.64967622275433" lon="-8.27274157541839"><ele>765.6666666666666</ele><time>2026-04-15T11:54:00Z</time></trkpt><trkpt lat="29.64966187582055" lon="-8.272536603008238"><ele>766.3333333333333</ele><time>2026-04-15T11:54:01Z</time></trkpt><trkpt lat="29.649643252745076" lon="-8.27233009315578"><ele>767.0</ele><time>2026-04-15T11:54:02Z</time></trkpt><trkpt lat="29.649625992575853" lon="-8.272114621062038"><ele>768.0</ele><time>2026-04-15T11:54:03Z</time></trkpt><trkpt lat="29.649603848307667" lon="-8.27190110400263"><ele>769.0</ele><time>2026-04-15T11:54:04Z</time></trkpt><trkpt lat="29.649587648522417" lon="-8.27168823825552"><ele>770.0</ele><time>2026-04-15T11:54:05Z</time></trkpt><trkpt lat="29.649575130107625" lon="-8.271476015373672"><ele>770.3333333333334</ele><time>2026-04-15T11:54:06Z</time></trkpt><trkpt lat="29.64956276759936" lon="-8.271260206598816"><ele>770.6666666666667</ele><time>2026-04-15T11:54:07Z</time></trkpt><trkpt lat="29.64954679706891" lon="-8.271049317073789"><ele>771.0</ele><time>2026-04-15T11:54:08Z</time></trkpt><trkpt lat="29.649528770806096" lon="-8.270838132982712"><ele>771.0</ele><time>2026-04-15T11:54:09Z</time></trkpt><trkpt lat="29.6495112949242" lon="-8.270628808796825"><ele>771.0</ele><time>2026-04-15T11:54:10Z</time></trkpt><trkpt lat="29.649499325487334" lon="-8.270417974906051"><ele>771.0</ele><time>2026-04-15T11:54:11Z</time></trkpt><trkpt lat="29.64949474189815" lon="-8.270210665469632"><ele>770.6666666666667</ele><time>2026-04-15T11:54:12Z</time></trkpt><trkpt lat="29.649506218915626" lon="-8.269995644071804"><ele>770.3333333333334</ele><time>2026-04-15T11:54:13Z</time></trkpt><trkpt lat="29.649534724953565" lon="-8.269775305430873"><ele>770.0</ele><time>2026-04-15T11:54:14Z</time></trkpt><trkpt lat="29.64957908150533" lon="-8.269552991925764"><ele>770.0</ele><time>2026-04-15T11:54:15Z</time></trkpt><trkpt lat="29.649631866397076" lon="-8.269338327298316"><ele>770.0</ele><time>2026-04-15T11:54:16Z</time></trkpt><trkpt lat="29.64968730044785" lon="-8.269139454758099"><ele>770.0</ele><time>2026-04-15T11:54:17Z</time></trkpt><trkpt lat="29.649742982115114" lon="-8.268944890746019"><ele>769.3333333333334</ele><time>2026-04-15T11:54:18Z</time></trkpt><trkpt lat="29.649801932220203" lon="-8.268751405190594"><ele>768.6666666666667</ele><time>2026-04-15T11:54:19Z</time></trkpt><trkpt lat="29.649864591760675" lon="-8.268558295317321"><ele>768.0</ele><time>2026-04-15T11:54:20Z</time></trkpt><trkpt lat="29.64992751104472" lon="-8.268366503533958"><ele>768.0</ele><time>2026-04-15T11:54:21Z</time></trkpt><trkpt lat="29.649993858700267" lon="-8.268176426699167"><ele>768.0</ele><time>2026-04-15T11:54:22Z</time></trkpt><trkpt lat="29.650061275541418" lon="-8.26798802216517"><ele>768.0</ele><time>2026-04-15T11:54:23Z</time></trkpt><trkpt lat="29.65012479086585" lon="-8.267797088135353"><ele>768.0</ele><time>2026-04-15T11:54:24Z</time></trkpt><trkpt lat="29.65018477843825" lon="-8.267604427349152"><ele>768.0</ele><time>2026-04-15T11:54:25Z</time></trkpt><trkpt lat="29.650245152784116" lon="-8.267412114899505"><ele>768.0</ele><time>2026-04-15T11:54:26Z</time></trkpt><trkpt lat="29.650303639922726" lon="-8.267225819156572"><ele>769.3333333333333</ele><time>2026-04-15T11:54:27Z</time></trkpt><trkpt lat="29.650360330390264" lon="-8.267043003283874"><ele>770.6666666666666</ele><time>2026-04-15T11:54:28Z</time></trkpt><trkpt lat="29.650419011895718" lon="-8.266869515037572"><ele>772.0</ele><time>2026-04-15T11:54:29Z</time></trkpt><trkpt lat="29.650480404622694" lon="-8.26669600317117"><ele>772.0</ele><time>2026-04-15T11:54:30Z</time></trkpt><trkpt lat="29.650541912811498" lon="-8.266520868953064"><ele>772.0</ele><time>2026-04-15T11:54:31Z</time></trkpt><trkpt lat="29.650595675129445" lon="-8.266355777231388"><ele>772.0</ele><time>2026-04-15T11:54:32Z</time></trkpt><trkpt lat="29.650646064069907" lon="-8.266190746489162"><ele>772.0</ele><time>2026-04-15T11:54:33Z</time></trkpt><trkpt lat="29.65069668088429" lon="-8.266022069118307"><ele>772.0</ele><time>2026-04-15T11:54:34Z</time></trkpt><trkpt lat="29.65075132105507" lon="-8.265853250577733"><ele>772.0</ele><time>2026-04-15T11:54:35Z</time></trkpt><trkpt lat="29.650805722688073" lon="-8.265689281956506"><ele>771.6666666666666</ele><time>2026-04-15T11:54:36Z</time></trkpt><trkpt lat="29.650861740239424" lon="-8.265530725346382"><ele>771.3333333333333</ele><time>2026-04-15T11:54:37Z</time></trkpt><trkpt lat="29.650917128832358" lon="-8.26537410727395"><ele>771.0</ele><time>2026-04-15T11:54:38Z</time></trkpt><trkpt lat="29.65097348809296" lon="-8.265209352284007"><ele>771.0</ele><time>2026-04-15T11:54:39Z</time></trkpt><trkpt lat="29.651032204734808" lon="-8.265047943834432"><ele>771.0</ele><time>2026-04-15T11:54:40Z</time></trkpt><trkpt lat="29.651102988840584" lon="-8.264890022190036"><ele>771.0</ele><time>2026-04-15T11:54:41Z</time></trkpt><trkpt lat="29.651186643813677" lon="-8.264735688855872"><ele>771.6666666666667</ele><time>2026-04-15T11:54:42Z</time></trkpt><trkpt lat="29.651280034016605" lon="-8.264587276995037"><ele>772.3333333333334</ele><time>2026-04-15T11:54:43Z</time></trkpt><trkpt lat="29.65138195379127" lon="-8.264445252257076"><ele>773.0</ele><time>2026-04-15T11:54:44Z</time></trkpt><trkpt lat="29.651492313547894" lon="-8.264322696128458"><ele>773.0</ele><time>2026-04-15T11:54:45Z</time></trkpt><trkpt lat="29.651603731494973" lon="-8.26422178785701"><ele>773.0</ele><time>2026-04-15T11:54:46Z</time></trkpt><trkpt lat="29.6517172914858" lon="-8.264131122279354"><ele>773.0</ele><time>2026-04-15T11:54:47Z</time></trkpt><trkpt lat="29.651835829447368" lon="-8.264036611422545"><ele>773.0</ele><time>2026-04-15T11:54:48Z</time></trkpt><trkpt lat="29.651962396070687" lon="-8.263948299867911"><ele>773.0</ele><time>2026-04-15T11:54:49Z</time></trkpt><trkpt lat="29.652098881629296" lon="-8.263873055727794"><ele>773.0</ele><time>2026-04-15T11:54:50Z</time></trkpt><trkpt lat="29.652245386403784" lon="-8.26381417069261"><ele>773.0</ele><time>2026-04-15T11:54:51Z</time></trkpt><trkpt lat="29.652389982003967" lon="-8.263761943824225"><ele>773.0</ele><time>2026-04-15T11:54:52Z</time></trkpt><trkpt lat="29.652530296872996" lon="-8.263713924750242"><ele>773.0</ele><time>2026-04-15T11:54:53Z</time></trkpt><trkpt lat="29.65266165732526" lon="-8.263666130322155"><ele>773.0</ele><time>2026-04-15T11:54:54Z</time></trkpt><trkpt lat="29.652779408828362" lon="-8.263627337411759"><ele>773.0</ele><time>2026-04-15T11:54:55Z</time></trkpt><trkpt lat="29.652875489794774" lon="-8.263588973426444"><ele>773.5000000000001</ele><time>2026-04-15T11:54:56Z</time></trkpt><trkpt lat="29.65295857593117" lon="-8.263556118487164"><ele>774.0</ele><time>2026-04-15T11:54:57Z</time></trkpt><trkpt lat="29.653032795930812" lon="-8.263530851539546"><ele>774.5</ele><time>2026-04-15T11:54:58Z</time></trkpt><trkpt lat="29.65310383080852" lon="-8.263507262373889"><ele>775.0</ele><time>2026-04-15T11:54:59Z</time></trkpt><trkpt lat="29.653169855109777" lon="-8.263486115802339"><ele>775.5000000000001</ele><time>2026-04-15T11:55:00Z</time></trkpt><trkpt lat="29.653286433311553" lon="-8.263452320123838"><ele>776.0</ele><time>2026-04-15T11:55:02Z</time></trkpt><trkpt lat="29.653413117000042" lon="-8.263417025675688"><ele>776.0</ele><time>2026-04-15T11:55:04Z</time></trkpt><trkpt lat="29.653486314620984" lon="-8.263393449481772"><ele>776.0</ele><time>2026-04-15T11:55:05Z</time></trkpt><trkpt lat="29.653551820759432" lon="-8.263373327737725"><ele>776.0</ele><time>2026-04-15T11:55:06Z</time></trkpt><trkpt lat="29.653618372696247" lon="-8.263353838772506"><ele>776.0</ele><time>2026-04-15T11:55:07Z</time></trkpt><trkpt lat="29.653692467725392" lon="-8.263331959721633"><ele>776.0</ele><time>2026-04-15T11:55:08Z</time></trkpt><trkpt lat="29.653767778116492" lon="-8.263309570726106"><ele>776.0</ele><time>2026-04-15T11:55:09Z</time></trkpt><trkpt lat="29.65384484475449" lon="-8.263283905981073"><ele>776.0</ele><time>2026-04-15T11:55:10Z</time></trkpt><trkpt lat="29.653922005921103" lon="-8.26325531262921"><ele>776.1999999999999</ele><time>2026-04-15T11:55:11Z</time></trkpt><trkpt lat="29.65400129576629" lon="-8.263225907423983"><ele>776.4</ele><time>2026-04-15T11:55:12Z</time></trkpt><trkpt lat="29.65408372094949" lon="-8.26320238709769"><ele>776.6</ele><time>2026-04-15T11:55:13Z</time></trkpt><trkpt lat="29.654170809966647" lon="-8.26317925164213"><ele>776.8</ele><time>2026-04-15T11:55:14Z</time></trkpt><trkpt lat="29.654266694172673" lon="-8.263151329356822"><ele>777.0</ele><time>2026-04-15T11:55:15Z</time></trkpt><trkpt lat="29.654366623022806" lon="-8.263120118519799"><ele>777.75</ele><time>2026-04-15T11:55:16Z</time></trkpt><trkpt lat="29.65447884206646" lon="-8.263083071592462"><ele>778.5</ele><time>2026-04-15T11:55:17Z</time></trkpt><trkpt lat="29.654589617542545" lon="-8.263047291649096"><ele>779.25</ele><time>2026-04-15T11:55:18Z</time></trkpt><trkpt lat="29.654698156255737" lon="-8.263012628138933"><ele>780.0</ele><time>2026-04-15T11:55:19Z</time></trkpt><trkpt lat="29.654802711873096" lon="-8.262979587128077"><ele>780.0</ele><time>2026-04-15T11:55:20Z</time></trkpt><trkpt lat="29.654899768743096" lon="-8.262949587352761"><ele>780.0</ele><time>2026-04-15T11:55:21Z</time></trkpt><trkpt lat="29.654992881799842" lon="-8.262923574138549"><ele>780.0</ele><time>2026-04-15T11:55:22Z</time></trkpt><trkpt lat="29.655092725195303" lon="-8.262899321229416"><ele>780.0</ele><time>2026-04-15T11:55:23Z</time></trkpt><trkpt lat="29.65519735423599" lon="-8.262871264416388"><ele>780.0</ele><time>2026-04-15T11:55:24Z</time></trkpt><trkpt lat="29.65530324330174" lon="-8.262838031590347"><ele>780.0</ele><time>2026-04-15T11:55:25Z</time></trkpt><trkpt lat="29.655408929935703" lon="-8.26280338574217"><ele>780.0</ele><time>2026-04-15T11:55:26Z</time></trkpt><trkpt lat="29.65551549401126" lon="-8.262770419924253"><ele>780.0</ele><time>2026-04-15T11:55:27Z</time></trkpt><trkpt lat="29.655622869873334" lon="-8.262739098713718"><ele>780.0</ele><time>2026-04-15T11:55:28Z</time></trkpt><trkpt lat="29.65572744981036" lon="-8.26270577399501"><ele>780.0</ele><time>2026-04-15T11:55:29Z</time></trkpt><trkpt lat="29.655829230248294" lon="-8.262670416981031"><ele>780.0</ele><time>2026-04-15T11:55:30Z</time></trkpt><trkpt lat="29.655934507294177" lon="-8.262635342874189"><ele>780.0</ele><time>2026-04-15T11:55:31Z</time></trkpt><trkpt lat="29.65603973052527" lon="-8.262601562145942"><ele>780.0</ele><time>2026-04-15T11:55:32Z</time></trkpt><trkpt lat="29.65613734657244" lon="-8.262571558541916"><ele>780.0</ele><time>2026-04-15T11:55:33Z</time></trkpt><trkpt lat="29.656227195527535" lon="-8.262545191917267"><ele>780.0</ele><time>2026-04-15T11:55:34Z</time></trkpt><trkpt lat="29.65631496428382" lon="-8.262519084836716"><ele>780.1666666666666</ele><time>2026-04-15T11:55:35Z</time></trkpt><trkpt lat="29.656398598834688" lon="-8.262495253007218"><ele>780.3333333333333</ele><time>2026-04-15T11:55:36Z</time></trkpt><trkpt lat="29.656473567974725" lon="-8.26247997079349"><ele>780.5</ele><time>2026-04-15T11:55:37Z</time></trkpt><trkpt lat="29.65654164125624" lon="-8.26246464379838"><ele>780.6666666666666</ele><time>2026-04-15T11:55:38Z</time></trkpt><trkpt lat="29.656607468528502" lon="-8.262447970014584"><ele>780.8333333333333</ele><time>2026-04-15T11:55:39Z</time></trkpt><trkpt lat="29.656675158538533" lon="-8.26242993914318"><ele>781.0</ele><time>2026-04-15T11:55:40Z</time></trkpt><trkpt lat="29.65675430347922" lon="-8.262405912667532"><ele>781.0</ele><time>2026-04-15T11:55:41Z</time></trkpt><trkpt lat="29.65684245368053" lon="-8.262378412245091"><ele>781.0</ele><time>2026-04-15T11:55:42Z</time></trkpt><trkpt lat="29.656932343982223" lon="-8.262354998561207"><ele>781.0</ele><time>2026-04-15T11:55:43Z</time></trkpt><trkpt lat="29.657021807178662" lon="-8.262333597856328"><ele>781.0</ele><time>2026-04-15T11:55:44Z</time></trkpt><trkpt lat="29.657115599765973" lon="-8.262311496268431"><ele>781.0</ele><time>2026-04-15T11:55:45Z</time></trkpt><trkpt lat="29.65721493564786" lon="-8.262283714046667"><ele>781.1999999999999</ele><time>2026-04-15T11:55:46Z</time></trkpt><trkpt lat="29.657312067794127" lon="-8.262260231121378"><ele>781.4</ele><time>2026-04-15T11:55:47Z</time></trkpt><trkpt lat="29.65741003258408" lon="-8.262241662831904"><ele>781.6</ele><time>2026-04-15T11:55:48Z</time></trkpt><trkpt lat="29.65751203348504" lon="-8.262220038447486"><ele>781.8</ele><time>2026-04-15T11:55:49Z</time></trkpt><trkpt lat="29.657617913245463" lon="-8.262194116292418"><ele>782.0</ele><time>2026-04-15T11:55:50Z</time></trkpt><trkpt lat="29.6577221564853" lon="-8.262168004797926"><ele>782.4000000000001</ele><time>2026-04-15T11:55:51Z</time></trkpt><trkpt lat="29.65782101176623" lon="-8.262144307662313"><ele>782.8000000000001</ele><time>2026-04-15T11:55:52Z</time></trkpt><trkpt lat="29.657906786266317" lon="-8.26212358913547"><ele>783.2</ele><time>2026-04-15T11:55:53Z</time></trkpt><trkpt lat="29.65798556294347" lon="-8.262102917078886"><ele>783.6</ele><time>2026-04-15T11:55:54Z</time></trkpt><trkpt lat="29.65807071317412" lon="-8.262077993854277"><ele>784.0</ele><time>2026-04-15T11:55:55Z</time></trkpt><trkpt lat="29.65816096316695" lon="-8.262053784217608"><ele>784.0</ele><time>2026-04-15T11:55:56Z</time></trkpt><trkpt lat="29.658243316501373" lon="-8.262035334212827"><ele>784.0</ele><time>2026-04-15T11:55:57Z</time></trkpt><trkpt lat="29.65831748924879" lon="-8.262018196504943"><ele>784.0</ele><time>2026-04-15T11:55:58Z</time></trkpt><trkpt lat="29.658387421525912" lon="-8.26200034736364"><ele>784.0</ele><time>2026-04-15T11:55:59Z</time></trkpt><trkpt lat="29.658453478003995" lon="-8.26198102291935"><ele>784.0</ele><time>2026-04-15T11:56:00Z</time></trkpt><trkpt lat="29.658521368753856" lon="-8.261961515952779"><ele>784.0</ele><time>2026-04-15T11:56:01Z</time></trkpt><trkpt lat="29.658597845176473" lon="-8.26194214807148"><ele>784.0</ele><time>2026-04-15T11:56:02Z</time></trkpt><trkpt lat="29.658684100531215" lon="-8.261924560959542"><ele>784.2</ele><time>2026-04-15T11:56:03Z</time></trkpt><trkpt lat="29.6587793253032" lon="-8.261904323495939"><ele>784.4000000000001</ele><time>2026-04-15T11:56:04Z</time></trkpt><trkpt lat="29.658880952427733" lon="-8.261883646014883"><ele>784.6</ele><time>2026-04-15T11:56:05Z</time></trkpt><trkpt lat="29.658983474776868" lon="-8.261861950998682"><ele>784.8</ele><time>2026-04-15T11:56:06Z</time></trkpt><trkpt lat="29.659076594286333" lon="-8.261841250865995"><ele>785.0</ele><time>2026-04-15T11:56:07Z</time></trkpt><trkpt lat="29.65917092514823" lon="-8.261820869287895"><ele>785.0</ele><time>2026-04-15T11:56:08Z</time></trkpt><trkpt lat="29.659270864168725" lon="-8.261796183632287"><ele>785.0</ele><time>2026-04-15T11:56:09Z</time></trkpt><trkpt lat="29.65937003998306" lon="-8.261769429642031"><ele>785.0</ele><time>2026-04-15T11:56:10Z</time></trkpt><trkpt lat="29.659458655125277" lon="-8.261747375232398"><ele>785.0</ele><time>2026-04-15T11:56:11Z</time></trkpt><trkpt lat="29.65954039379241" lon="-8.26173034893262"><ele>785.0</ele><time>2026-04-15T11:56:12Z</time></trkpt><trkpt lat="29.65961987872172" lon="-8.261712356692469"><ele>785.2</ele><time>2026-04-15T11:56:13Z</time></trkpt><trkpt lat="29.659704404913445" lon="-8.261689974167952"><ele>785.4</ele><time>2026-04-15T11:56:14Z</time></trkpt><trkpt lat="29.659797600254095" lon="-8.261661950309302"><ele>785.5999999999999</ele><time>2026-04-15T11:56:15Z</time></trkpt><trkpt lat="29.65989567409302" lon="-8.261634746920878"><ele>785.8</ele><time>2026-04-15T11:56:16Z</time></trkpt><trkpt lat="29.65999273647224" lon="-8.261610371102273"><ele>786.0</ele><time>2026-04-15T11:56:17Z</time></trkpt><trkpt lat="29.660085490632778" lon="-8.261591246056494"><ele>786.0</ele><time>2026-04-15T11:56:18Z</time></trkpt><trkpt lat="29.660177927369467" lon="-8.261573419142245"><ele>786.0</ele><time>2026-04-15T11:56:19Z</time></trkpt><trkpt lat="29.66027733057473" lon="-8.261552231121833"><ele>786.0</ele><time>2026-04-15T11:56:20Z</time></trkpt><trkpt lat="29.660384305450062" lon="-8.261527411135646"><ele>786.0</ele><time>2026-04-15T11:56:21Z</time></trkpt><trkpt lat="29.66050098154467" lon="-8.26150603846557"><ele>786.0</ele><time>2026-04-15T11:56:22Z</time></trkpt><trkpt lat="29.66062740204622" lon="-8.261483275525935"><ele>786.25</ele><time>2026-04-15T11:56:23Z</time></trkpt><trkpt lat="29.66076178705137" lon="-8.261453119051671"><ele>786.5</ele><time>2026-04-15T11:56:24Z</time></trkpt><trkpt lat="29.66090053363011" lon="-8.261416465693992"><ele>786.75</ele><time>2026-04-15T11:56:25Z</time></trkpt><trkpt lat="29.66103427686503" lon="-8.26137819048583"><ele>787.0</ele><time>2026-04-15T11:56:26Z</time></trkpt><trkpt lat="29.66116650008088" lon="-8.261334845503448"><ele>787.25</ele><time>2026-04-15T11:56:27Z</time></trkpt><trkpt lat="29.66130294863859" lon="-8.261292953896923"><ele>787.5</ele><time>2026-04-15T11:56:28Z</time></trkpt><trkpt lat="29.66144733312092" lon="-8.26125536932465"><ele>787.75</ele><time>2026-04-15T11:56:29Z</time></trkpt><trkpt lat="29.661601520681046" lon="-8.261218328230319"><ele>788.0</ele><time>2026-04-15T11:56:30Z</time></trkpt><trkpt lat="29.661758763955728" lon="-8.26118296302529"><ele>788.0</ele><time>2026-04-15T11:56:31Z</time></trkpt><trkpt lat="29.661917679294522" lon="-8.261143185887637"><ele>788.0</ele><time>2026-04-15T11:56:32Z</time></trkpt><trkpt lat="29.662075815861574" lon="-8.261103159030409"><ele>788.0</ele><time>2026-04-15T11:56:33Z</time></trkpt><trkpt lat="29.662235785211017" lon="-8.261062179596061"><ele>788.6666666666667</ele><time>2026-04-15T11:56:34Z</time></trkpt><trkpt lat="29.662392286684625" lon="-8.261022903933911"><ele>789.3333333333333</ele><time>2026-04-15T11:56:35Z</time></trkpt><trkpt lat="29.662548184834588" lon="-8.260988452052311"><ele>790.0</ele><time>2026-04-15T11:56:36Z</time></trkpt><trkpt lat="29.662705698155175" lon="-8.26095498094583"><ele>791.0</ele><time>2026-04-15T11:56:37Z</time></trkpt><trkpt lat="29.662862511469726" lon="-8.260916235809356"><ele>792.0</ele><time>2026-04-15T11:56:38Z</time></trkpt><trkpt lat="29.663022830880774" lon="-8.26086895451239"><ele>793.0</ele><time>2026-04-15T11:56:39Z</time></trkpt><trkpt lat="29.663187229834726" lon="-8.260826856903757"><ele>793.0</ele><time>2026-04-15T11:56:40Z</time></trkpt><trkpt lat="29.663354759036906" lon="-8.260788852419836"><ele>793.0</ele><time>2026-04-15T11:56:41Z</time></trkpt><trkpt lat="29.663528328887704" lon="-8.260748475774458"><ele>793.0</ele><time>2026-04-15T11:56:42Z</time></trkpt><trkpt lat="29.66369870544572" lon="-8.260706964297347"><ele>793.3333333333333</ele><time>2026-04-15T11:56:43Z</time></trkpt><trkpt lat="29.663854679539963" lon="-8.260665342554885"><ele>793.6666666666667</ele><time>2026-04-15T11:56:44Z</time></trkpt><trkpt lat="29.664002958878726" lon="-8.260629135001764"><ele>794.0</ele><time>2026-04-15T11:56:45Z</time></trkpt><trkpt lat="29.664152560425986" lon="-8.260593396268922"><ele>794.0</ele><time>2026-04-15T11:56:46Z</time></trkpt><trkpt lat="29.664307317787436" lon="-8.260558192476138"><ele>794.0</ele><time>2026-04-15T11:56:47Z</time></trkpt><trkpt lat="29.664464003377653" lon="-8.260516831994817"><ele>794.0</ele><time>2026-04-15T11:56:48Z</time></trkpt><trkpt lat="29.66462561468719" lon="-8.260473778751038"><ele>794.0</ele><time>2026-04-15T11:56:49Z</time></trkpt><trkpt lat="29.664792964843226" lon="-8.260431432533903"><ele>794.0</ele><time>2026-04-15T11:56:50Z</time></trkpt><trkpt lat="29.664964383603213" lon="-8.26038901911169"><ele>794.0</ele><time>2026-04-15T11:56:51Z</time></trkpt><trkpt lat="29.665135375346253" lon="-8.260346342474836"><ele>793.3333333333334</ele><time>2026-04-15T11:56:52Z</time></trkpt><trkpt lat="29.665307604445868" lon="-8.260307624955376"><ele>792.6666666666667</ele><time>2026-04-15T11:56:53Z</time></trkpt><trkpt lat="29.66547685088317" lon="-8.260269081804465"><ele>792.0</ele><time>2026-04-15T11:56:54Z</time></trkpt><trkpt lat="29.66564304027325" lon="-8.260231023769187"><ele>792.0</ele><time>2026-04-15T11:56:55Z</time></trkpt><trkpt lat="29.665807074892633" lon="-8.260188846538275"><ele>792.0</ele><time>2026-04-15T11:56:56Z</time></trkpt><trkpt lat="29.665964872654843" lon="-8.26014393894303"><ele>792.0</ele><time>2026-04-15T11:56:57Z</time></trkpt><trkpt lat="29.666125934333085" lon="-8.260104770648939"><ele>793.3333333333333</ele><time>2026-04-15T11:56:58Z</time></trkpt><trkpt lat="29.66628780855872" lon="-8.260067804330255"><ele>794.6666666666666</ele><time>2026-04-15T11:56:59Z</time></trkpt><trkpt lat="29.666449838918947" lon="-8.260028353729236"><ele>796.0</ele><time>2026-04-15T11:57:00Z</time></trkpt><trkpt lat="29.66661704346938" lon="-8.25999014023447"><ele>796.0</ele><time>2026-04-15T11:57:01Z</time></trkpt><trkpt lat="29.66678635430841" lon="-8.259946180308889"><ele>796.0</ele><time>2026-04-15T11:57:02Z</time></trkpt><trkpt lat="29.666953685965368" lon="-8.259899592851516"><ele>796.0</ele><time>2026-04-15T11:57:03Z</time></trkpt><trkpt lat="29.66712178977319" lon="-8.259856902776372"><ele>797.3333333333333</ele><time>2026-04-15T11:57:04Z</time></trkpt><trkpt lat="29.667290808597787" lon="-8.259817860413019"><ele>798.6666666666667</ele><time>2026-04-15T11:57:05Z</time></trkpt><trkpt lat="29.667457017499153" lon="-8.259776904987989"><ele>800.0</ele><time>2026-04-15T11:57:06Z</time></trkpt><trkpt lat="29.667615350839256" lon="-8.259740995972079"><ele>800.0</ele><time>2026-04-15T11:57:07Z</time></trkpt><trkpt lat="29.667770987123216" lon="-8.25970766338109"><ele>800.0</ele><time>2026-04-15T11:57:08Z</time></trkpt><trkpt lat="29.667926980263292" lon="-8.259672910397304"><ele>800.0</ele><time>2026-04-15T11:57:09Z</time></trkpt><trkpt lat="29.66808444367438" lon="-8.259630996332575"><ele>801.3333333333334</ele><time>2026-04-15T11:57:10Z</time></trkpt><trkpt lat="29.668242881424067" lon="-8.259588116525793"><ele>802.6666666666667</ele><time>2026-04-15T11:57:11Z</time></trkpt><trkpt lat="29.668406041539438" lon="-8.259545994889013"><ele>804.0</ele><time>2026-04-15T11:57:12Z</time></trkpt><trkpt lat="29.668572998835522" lon="-8.259507057736327"><ele>804.3333333333333</ele><time>2026-04-15T11:57:13Z</time></trkpt><trkpt lat="29.66874273635482" lon="-8.259460598866763"><ele>804.6666666666666</ele><time>2026-04-15T11:57:14Z</time></trkpt><trkpt lat="29.668909614127582" lon="-8.259415868264751"><ele>805.0</ele><time>2026-04-15T11:57:15Z</time></trkpt><trkpt lat="29.66907327112177" lon="-8.259374059041027"><ele>805.0</ele><time>2026-04-15T11:57:16Z</time></trkpt><trkpt lat="29.669235557757688" lon="-8.259332205203796"><ele>805.0</ele><time>2026-04-15T11:57:17Z</time></trkpt><trkpt lat="29.66939340625142" lon="-8.259290885203365"><ele>805.0</ele><time>2026-04-15T11:57:18Z</time></trkpt><trkpt lat="29.669551418913514" lon="-8.2592424050119"><ele>805.3333333333333</ele><time>2026-04-15T11:57:19Z</time></trkpt><trkpt lat="29.66971195711697" lon="-8.259185822845906"><ele>805.6666666666667</ele><time>2026-04-15T11:57:20Z</time></trkpt><trkpt lat="29.66987317053402" lon="-8.259118038412232"><ele>806.0</ele><time>2026-04-15T11:57:21Z</time></trkpt><trkpt lat="29.670035252564823" lon="-8.259044620603001"><ele>806.0</ele><time>2026-04-15T11:57:22Z</time></trkpt><trkpt lat="29.670192154680166" lon="-8.25896152672278"><ele>806.0</ele><time>2026-04-15T11:57:23Z</time></trkpt><trkpt lat="29.67033773376592" lon="-8.258868372438553"><ele>806.0</ele><time>2026-04-15T11:57:24Z</time></trkpt><trkpt lat="29.670477193499906" lon="-8.258774010897708"><ele>806.0</ele><time>2026-04-15T11:57:25Z</time></trkpt><trkpt lat="29.67061718673017" lon="-8.25867132315864"><ele>806.0</ele><time>2026-04-15T11:57:26Z</time></trkpt><trkpt lat="29.670752828507613" lon="-8.258558559705026"><ele>806.0</ele><time>2026-04-15T11:57:27Z</time></trkpt><trkpt lat="29.670879063227634" lon="-8.258433491402364"><ele>806.0</ele><time>2026-04-15T11:57:28Z</time></trkpt><trkpt lat="29.671001571375353" lon="-8.258299870047853"><ele>806.0</ele><time>2026-04-15T11:57:29Z</time></trkpt><trkpt lat="29.671123914847897" lon="-8.258160481408037"><ele>806.0</ele><time>2026-04-15T11:57:30Z</time></trkpt><trkpt lat="29.671244958015386" lon="-8.258014671054243"><ele>806.0</ele><time>2026-04-15T11:57:31Z</time></trkpt><trkpt lat="29.671363146315173" lon="-8.257862829957105"><ele>806.0</ele><time>2026-04-15T11:57:32Z</time></trkpt><trkpt lat="29.67147186552943" lon="-8.257707878324165"><ele>806.0</ele><time>2026-04-15T11:57:33Z</time></trkpt><trkpt lat="29.671576363933884" lon="-8.257544680633444"><ele>806.0</ele><time>2026-04-15T11:57:34Z</time></trkpt><trkpt lat="29.67166827768383" lon="-8.257376600657063"><ele>806.0</ele><time>2026-04-15T11:57:35Z</time></trkpt><trkpt lat="29.671749611282674" lon="-8.257206132806024"><ele>806.0</ele><time>2026-04-15T11:57:36Z</time></trkpt><trkpt lat="29.67183363053091" lon="-8.257032679036861"><ele>806.3333333333334</ele><time>2026-04-15T11:57:37Z</time></trkpt><trkpt lat="29.67191868159388" lon="-8.25686010174373"><ele>806.6666666666667</ele><time>2026-04-15T11:57:38Z</time></trkpt><trkpt lat="29.671998879137977" lon="-8.256690498734637"><ele>807.0</ele><time>2026-04-15T11:57:39Z</time></trkpt><trkpt lat="29.672080142401796" lon="-8.256522033734155"><ele>808.0</ele><time>2026-04-15T11:57:40Z</time></trkpt><trkpt lat="29.672162740645035" lon="-8.256349159592371"><ele>809.0</ele><time>2026-04-15T11:57:41Z</time></trkpt><trkpt lat="29.67224215407338" lon="-8.256175904750854"><ele>810.0</ele><time>2026-04-15T11:57:42Z</time></trkpt><trkpt lat="29.672324401327838" lon="-8.256002413878525"><ele>810.0</ele><time>2026-04-15T11:57:43Z</time></trkpt><trkpt lat="29.672410678511017" lon="-8.255826128186104"><ele>810.0</ele><time>2026-04-15T11:57:44Z</time></trkpt><trkpt lat="29.672494381614186" lon="-8.255650709487082"><ele>810.0</ele><time>2026-04-15T11:57:45Z</time></trkpt><trkpt lat="29.672580421432272" lon="-8.255475889499095"><ele>810.6666666666667</ele><time>2026-04-15T11:57:46Z</time></trkpt><trkpt lat="29.672668926513424" lon="-8.255304111102777"><ele>811.3333333333334</ele><time>2026-04-15T11:57:47Z</time></trkpt><trkpt lat="29.67275270313557" lon="-8.25513080126558"><ele>812.0</ele><time>2026-04-15T11:57:48Z</time></trkpt><trkpt lat="29.67283528153783" lon="-8.254961924783982"><ele>812.3333333333334</ele><time>2026-04-15T11:57:49Z</time></trkpt><trkpt lat="29.672917075506877" lon="-8.25479372260731"><ele>812.6666666666667</ele><time>2026-04-15T11:57:50Z</time></trkpt><trkpt lat="29.67299883572298" lon="-8.254623794658421"><ele>813.0</ele><time>2026-04-15T11:57:51Z</time></trkpt><trkpt lat="29.673081182791936" lon="-8.254451094830568"><ele>813.0</ele><time>2026-04-15T11:57:52Z</time></trkpt><trkpt lat="29.6731646510186" lon="-8.25428018284047"><ele>813.0</ele><time>2026-04-15T11:57:53Z</time></trkpt><trkpt lat="29.673252031230135" lon="-8.254106717729705"><ele>813.0</ele><time>2026-04-15T11:57:54Z</time></trkpt><trkpt lat="29.6733422273953" lon="-8.253929167602378"><ele>812.6666666666667</ele><time>2026-04-15T11:57:55Z</time></trkpt><trkpt lat="29.673430810369418" lon="-8.253753621208824"><ele>812.3333333333334</ele><time>2026-04-15T11:57:56Z</time></trkpt><trkpt lat="29.67352128935283" lon="-8.253575276568272"><ele>812.0</ele><time>2026-04-15T11:57:57Z</time></trkpt><trkpt lat="29.67360834237377" lon="-8.253398846807825"><ele>813.0</ele><time>2026-04-15T11:57:58Z</time></trkpt><trkpt lat="29.673694816952448" lon="-8.253219256799618"><ele>814.0</ele><time>2026-04-15T11:57:59Z</time></trkpt><trkpt lat="29.673779950454385" lon="-8.253041447638214"><ele>815.0</ele><time>2026-04-15T11:58:00Z</time></trkpt><trkpt lat="29.673866467611486" lon="-8.252860832443579"><ele>815.0</ele><time>2026-04-15T11:58:01Z</time></trkpt><trkpt lat="29.6739536938564" lon="-8.252684545720049"><ele>815.0</ele><time>2026-04-15T11:58:02Z</time></trkpt><trkpt lat="29.674044175637064" lon="-8.252511247090668"><ele>815.0</ele><time>2026-04-15T11:58:03Z</time></trkpt><trkpt lat="29.67413301325234" lon="-8.252336288643788"><ele>815.0</ele><time>2026-04-15T11:58:04Z</time></trkpt><trkpt lat="29.674221285050862" lon="-8.252158028978764"><ele>815.0</ele><time>2026-04-15T11:58:05Z</time></trkpt><trkpt lat="29.674310087283235" lon="-8.25197874521293"><ele>815.0</ele><time>2026-04-15T11:58:06Z</time></trkpt><trkpt lat="29.674395232219638" lon="-8.251797209615658"><ele>815.0</ele><time>2026-04-15T11:58:07Z</time></trkpt><trkpt lat="29.674483476651357" lon="-8.251618944567296"><ele>815.0</ele><time>2026-04-15T11:58:08Z</time></trkpt><trkpt lat="29.67457142450144" lon="-8.251442714542492"><ele>815.0</ele><time>2026-04-15T11:58:09Z</time></trkpt><trkpt lat="29.67466206161333" lon="-8.251264727222246"><ele>815.6666666666667</ele><time>2026-04-15T11:58:10Z</time></trkpt><trkpt lat="29.674751815903768" lon="-8.251079234605411"><ele>816.3333333333333</ele><time>2026-04-15T11:58:11Z</time></trkpt><trkpt lat="29.674842825685772" lon="-8.250894531058814"><ele>817.0</ele><time>2026-04-15T11:58:12Z</time></trkpt><trkpt lat="29.67493313422648" lon="-8.25070757737345"><ele>817.3333333333333</ele><time>2026-04-15T11:58:13Z</time></trkpt><trkpt lat="29.675022049124667" lon="-8.250520440159981"><ele>817.6666666666667</ele><time>2026-04-15T11:58:14Z</time></trkpt><trkpt lat="29.67510976795782" lon="-8.250335838347171"><ele>818.0</ele><time>2026-04-15T11:58:15Z</time></trkpt><trkpt lat="29.675200283847325" lon="-8.250152735817329"><ele>818.3333333333334</ele><time>2026-04-15T11:58:16Z</time></trkpt><trkpt lat="29.67529166211856" lon="-8.249974100532594"><ele>818.6666666666667</ele><time>2026-04-15T11:58:17Z</time></trkpt><trkpt lat="29.67538006570248" lon="-8.24979362587323"><ele>819.0</ele><time>2026-04-15T11:58:18Z</time></trkpt><trkpt lat="29.675468115923636" lon="-8.24961555334645"><ele>819.0</ele><time>2026-04-15T11:58:19Z</time></trkpt><trkpt lat="29.675551752600892" lon="-8.24943632434512"><ele>819.0</ele><time>2026-04-15T11:58:20Z</time></trkpt><trkpt lat="29.675631107049696" lon="-8.249249997141405"><ele>819.0</ele><time>2026-04-15T11:58:21Z</time></trkpt><trkpt lat="29.67570827167608" lon="-8.249061288718814"><ele>819.3333333333333</ele><time>2026-04-15T11:58:22Z</time></trkpt><trkpt lat="29.67578272019565" lon="-8.248871903450453"><ele>819.6666666666666</ele><time>2026-04-15T11:58:23Z</time></trkpt><trkpt lat="29.675850520929387" lon="-8.248692680990038"><ele>820.0</ele><time>2026-04-15T11:58:24Z</time></trkpt><trkpt lat="29.675906670535614" lon="-8.248527067485867"><ele>820.0</ele><time>2026-04-15T11:58:25Z</time></trkpt><trkpt lat="29.675956823095923" lon="-8.248367193528066"><ele>820.0</ele><time>2026-04-15T11:58:26Z</time></trkpt><trkpt lat="29.67600162021648" lon="-8.24820758113104"><ele>820.0</ele><time>2026-04-15T11:58:27Z</time></trkpt><trkpt lat="29.67604551776085" lon="-8.248042901910768"><ele>820.0</ele><time>2026-04-15T11:58:28Z</time></trkpt><trkpt lat="29.67608916546322" lon="-8.24787057042121"><ele>820.3333333333333</ele><time>2026-04-15T11:58:29Z</time></trkpt><trkpt lat="29.676131247564918" lon="-8.247692473244925"><ele>820.6666666666667</ele><time>2026-04-15T11:58:30Z</time></trkpt><trkpt lat="29.676167064017466" lon="-8.247518683295386"><ele>821.0</ele><time>2026-04-15T11:58:31Z</time></trkpt><trkpt lat="29.676195484241273" lon="-8.24735653123725"><ele>821.25</ele><time>2026-04-15T11:58:32Z</time></trkpt><trkpt lat="29.676218614359474" lon="-8.247203223548548"><ele>821.5</ele><time>2026-04-15T11:58:33Z</time></trkpt><trkpt lat="29.676244613524464" lon="-8.247055529423964"><ele>821.75</ele><time>2026-04-15T11:58:34Z</time></trkpt><trkpt lat="29.676273477509792" lon="-8.246912177323273"><ele>822.0</ele><time>2026-04-15T11:58:35Z</time></trkpt><trkpt lat="29.676301509784675" lon="-8.246777625847677"><ele>822.0</ele><time>2026-04-15T11:58:36Z</time></trkpt><trkpt lat="29.676331075666067" lon="-8.246646784189108"><ele>822.0</ele><time>2026-04-15T11:58:37Z</time></trkpt><trkpt lat="29.67635818894592" lon="-8.246506201925502"><ele>822.0</ele><time>2026-04-15T11:58:38Z</time></trkpt><trkpt lat="29.676383296287533" lon="-8.246362516799895"><ele>822.0</ele><time>2026-04-15T11:58:39Z</time></trkpt><trkpt lat="29.676406161911224" lon="-8.2462161227922"><ele>822.5</ele><time>2026-04-15T11:58:40Z</time></trkpt><trkpt lat="29.676428480549355" lon="-8.246062973796425"><ele>823.0</ele><time>2026-04-15T11:58:41Z</time></trkpt><trkpt lat="29.676447668849985" lon="-8.245917603865912"><ele>823.5</ele><time>2026-04-15T11:58:42Z</time></trkpt><trkpt lat="29.676473979172062" lon="-8.24576456575398"><ele>824.0</ele><time>2026-04-15T11:58:43Z</time></trkpt><trkpt lat="29.676500574184665" lon="-8.245606380826866"><ele>824.0</ele><time>2026-04-15T11:58:44Z</time></trkpt><trkpt lat="29.67652951726062" lon="-8.245438698209217"><ele>824.0</ele><time>2026-04-15T11:58:45Z</time></trkpt><trkpt lat="29.676554717303315" lon="-8.24527284577844"><ele>824.0</ele><time>2026-04-15T11:58:46Z</time></trkpt><trkpt lat="29.676587490396674" lon="-8.245101122129293"><ele>824.0</ele><time>2026-04-15T11:58:47Z</time></trkpt><trkpt lat="29.676622801539963" lon="-8.244919734282268"><ele>824.0</ele><time>2026-04-15T11:58:48Z</time></trkpt><trkpt lat="29.676661864673747" lon="-8.244732936816252"><ele>824.0</ele><time>2026-04-15T11:58:49Z</time></trkpt><trkpt lat="29.6767006914133" lon="-8.244542012274088"><ele>824.0</ele><time>2026-04-15T11:58:50Z</time></trkpt><trkpt lat="29.67673553200651" lon="-8.244343077875472"><ele>824.0</ele><time>2026-04-15T11:58:51Z</time></trkpt><trkpt lat="29.67676912953385" lon="-8.244141503744046"><ele>824.0</ele><time>2026-04-15T11:58:52Z</time></trkpt><trkpt lat="29.676802510503663" lon="-8.243936258128"><ele>824.0</ele><time>2026-04-15T11:58:53Z</time></trkpt><trkpt lat="29.67684207548717" lon="-8.243731159405423"><ele>824.0</ele><time>2026-04-15T11:58:54Z</time></trkpt><trkpt lat="29.67688062737321" lon="-8.243524847983618"><ele>824.0</ele><time>2026-04-15T11:58:55Z</time></trkpt><trkpt lat="29.676920408229677" lon="-8.2433209522056"><ele>824.0</ele><time>2026-04-15T11:58:56Z</time></trkpt><trkpt lat="29.676956737106458" lon="-8.243114530905018"><ele>824.6666666666667</ele><time>2026-04-15T11:58:57Z</time></trkpt><trkpt lat="29.676994307557344" lon="-8.242899032148303"><ele>825.3333333333333</ele><time>2026-04-15T11:58:58Z</time></trkpt><trkpt lat="29.67703426814355" lon="-8.242679927803673"><ele>826.0</ele><time>2026-04-15T11:58:59Z</time></trkpt><trkpt lat="29.67707737458524" lon="-8.24245872211882"><ele>825.6666666666666</ele><time>2026-04-15T11:59:00Z</time></trkpt><trkpt lat="29.677117815919804" lon="-8.242237384005087"><ele>825.3333333333333</ele><time>2026-04-15T11:59:01Z</time></trkpt><trkpt lat="29.67716043040831" lon="-8.24201815001876"><ele>825.0</ele><time>2026-04-15T11:59:02Z</time></trkpt><trkpt lat="29.677200791755503" lon="-8.241798458344226"><ele>825.0</ele><time>2026-04-15T11:59:03Z</time></trkpt><trkpt lat="29.677236917094113" lon="-8.241579290009101"><ele>825.0</ele><time>2026-04-15T11:59:04Z</time></trkpt><trkpt lat="29.67727421097584" lon="-8.241357118807777"><ele>825.0</ele><time>2026-04-15T11:59:05Z</time></trkpt><trkpt lat="29.677314065138532" lon="-8.241135824542427"><ele>824.6666666666667</ele><time>2026-04-15T11:59:06Z</time></trkpt><trkpt lat="29.677355039323338" lon="-8.240917019075066"><ele>824.3333333333334</ele><time>2026-04-15T11:59:07Z</time></trkpt><trkpt lat="29.67739712055279" lon="-8.240697946026756"><ele>824.0</ele><time>2026-04-15T11:59:08Z</time></trkpt><trkpt lat="29.677441614628556" lon="-8.240485725001575"><ele>824.0</ele><time>2026-04-15T11:59:09Z</time></trkpt><trkpt lat="29.67748719372903" lon="-8.240277228586695"><ele>824.0</ele><time>2026-04-15T11:59:10Z</time></trkpt><trkpt lat="29.677531373589844" lon="-8.240072964055866"><ele>824.0</ele><time>2026-04-15T11:59:11Z</time></trkpt><trkpt lat="29.677580656434117" lon="-8.239871437256415"><ele>824.0</ele><time>2026-04-15T11:59:12Z</time></trkpt><trkpt lat="29.677637571223766" lon="-8.239674151064627"><ele>824.0</ele><time>2026-04-15T11:59:13Z</time></trkpt><trkpt lat="29.67769447796782" lon="-8.23947933529664"><ele>824.0</ele><time>2026-04-15T11:59:14Z</time></trkpt><trkpt lat="29.6777529069103" lon="-8.239284684212821"><ele>824.0</ele><time>2026-04-15T11:59:15Z</time></trkpt><trkpt lat="29.67780873874261" lon="-8.239086909689407"><ele>824.0</ele><time>2026-04-15T11:59:16Z</time></trkpt><trkpt lat="29.677860782458158" lon="-8.238888566479568"><ele>824.0</ele><time>2026-04-15T11:59:17Z</time></trkpt><trkpt lat="29.677921250336563" lon="-8.23869059389807"><ele>824.0</ele><time>2026-04-15T11:59:18Z</time></trkpt><trkpt lat="29.67798165761308" lon="-8.238492915517957"><ele>824.0</ele><time>2026-04-15T11:59:19Z</time></trkpt><trkpt lat="29.678038898316274" lon="-8.238296812805144"><ele>824.0</ele><time>2026-04-15T11:59:20Z</time></trkpt><trkpt lat="29.67809869922812" lon="-8.238094919248905"><ele>824.0</ele><time>2026-04-15T11:59:21Z</time></trkpt><trkpt lat="29.678163858575964" lon="-8.237893238236548"><ele>824.0</ele><time>2026-04-15T11:59:22Z</time></trkpt><trkpt lat="29.67822456929883" lon="-8.237691371258544"><ele>824.0</ele><time>2026-04-15T11:59:23Z</time></trkpt><trkpt lat="29.678284132917696" lon="-8.237488530401393"><ele>824.3333333333334</ele><time>2026-04-15T11:59:24Z</time></trkpt><trkpt lat="29.67834536217665" lon="-8.237292918622787"><ele>824.6666666666667</ele><time>2026-04-15T11:59:25Z</time></trkpt><trkpt lat="29.678404783108267" lon="-8.23709985132386"><ele>825.0</ele><time>2026-04-15T11:59:26Z</time></trkpt><trkpt lat="29.67846427368081" lon="-8.236907272494685"><ele>825.0</ele><time>2026-04-15T11:59:27Z</time></trkpt><trkpt lat="29.67852299356167" lon="-8.236712333434461"><ele>825.0</ele><time>2026-04-15T11:59:28Z</time></trkpt><trkpt lat="29.678580790467894" lon="-8.236516505483578"><ele>825.0</ele><time>2026-04-15T11:59:29Z</time></trkpt><trkpt lat="29.678637080712512" lon="-8.236320891962064"><ele>825.0</ele><time>2026-04-15T11:59:30Z</time></trkpt><trkpt lat="29.67869629181058" lon="-8.236124610963463"><ele>825.0</ele><time>2026-04-15T11:59:31Z</time></trkpt><trkpt lat="29.67875505056775" lon="-8.235929903289593"><ele>825.0</ele><time>2026-04-15T11:59:32Z</time></trkpt><trkpt lat="29.678813724040193" lon="-8.2357343042519"><ele>825.3333333333333</ele><time>2026-04-15T11:59:33Z</time></trkpt><trkpt lat="29.678873295326788" lon="-8.235537401648125"><ele>825.6666666666666</ele><time>2026-04-15T11:59:34Z</time></trkpt><trkpt lat="29.678933274995163" lon="-8.235337870923873"><ele>826.0</ele><time>2026-04-15T11:59:35Z</time></trkpt><trkpt lat="29.678993988851598" lon="-8.235142750774825"><ele>826.0</ele><time>2026-04-15T11:59:36Z</time></trkpt><trkpt lat="29.679053075980445" lon="-8.234949880843361"><ele>826.0</ele><time>2026-04-15T11:59:37Z</time></trkpt><trkpt lat="29.679108984296022" lon="-8.23475414486453"><ele>826.0</ele><time>2026-04-15T11:59:38Z</time></trkpt><trkpt lat="29.679164517804843" lon="-8.23455609109437"><ele>826.3333333333333</ele><time>2026-04-15T11:59:39Z</time></trkpt><trkpt lat="29.679219981850274" lon="-8.234354435440762"><ele>826.6666666666667</ele><time>2026-04-15T11:59:40Z</time></trkpt><trkpt lat="29.679280405415582" lon="-8.234152855717067"><ele>827.0</ele><time>2026-04-15T11:59:41Z</time></trkpt><trkpt lat="29.679340460333528" lon="-8.233949997056781"><ele>827.0</ele><time>2026-04-15T11:59:42Z</time></trkpt><trkpt lat="29.679402080305035" lon="-8.233745811453462"><ele>827.0</ele><time>2026-04-15T11:59:43Z</time></trkpt><trkpt lat="29.679467247712026" lon="-8.233541384108563"><ele>827.0</ele><time>2026-04-15T11:59:44Z</time></trkpt><trkpt lat="29.679529624863967" lon="-8.23333670927124"><ele>827.3333333333334</ele><time>2026-04-15T11:59:45Z</time></trkpt><trkpt lat="29.679591993487147" lon="-8.23312980968266"><ele>827.6666666666667</ele><time>2026-04-15T11:59:46Z</time></trkpt><trkpt lat="29.679653191846153" lon="-8.232927366480796"><ele>828.0</ele><time>2026-04-15T11:59:47Z</time></trkpt><trkpt lat="29.67971615687674" lon="-8.232719023949862"><ele>828.0</ele><time>2026-04-15T11:59:48Z</time></trkpt><trkpt lat="29.67977932522861" lon="-8.232511498332386"><ele>828.0</ele><time>2026-04-15T11:59:49Z</time></trkpt><trkpt lat="29.67984498102203" lon="-8.232304245396888"><ele>828.0</ele><time>2026-04-15T11:59:50Z</time></trkpt><trkpt lat="29.67990887783239" lon="-8.232096525394736"><ele>828.6666666666667</ele><time>2026-04-15T11:59:51Z</time></trkpt><trkpt lat="29.679970904189098" lon="-8.231889320794272"><ele>829.3333333333334</ele><time>2026-04-15T11:59:52Z</time></trkpt><trkpt lat="29.680034847846283" lon="-8.23168176267353"><ele>830.0</ele><time>2026-04-15T11:59:53Z</time></trkpt><trkpt lat="29.680098274182786" lon="-8.231474792554279"><ele>831.0</ele><time>2026-04-15T11:59:54Z</time></trkpt><trkpt lat="29.680159930264246" lon="-8.231271667476324"><ele>832.0</ele><time>2026-04-15T11:59:55Z</time></trkpt><trkpt lat="29.680218756755103" lon="-8.231073188415772"><ele>833.0</ele><time>2026-04-15T11:59:56Z</time></trkpt><trkpt lat="29.680279527905103" lon="-8.23087685495149"><ele>835.0</ele><time>2026-04-15T11:59:57Z</time></trkpt><trkpt lat="29.68033499622532" lon="-8.23068167146001"><ele>837.0</ele><time>2026-04-15T11:59:58Z</time></trkpt><trkpt lat="29.68039593535195" lon="-8.230489476132655"><ele>839.0</ele><time>2026-04-15T11:59:59Z</time></trkpt><trkpt lat="29.680455091260328" lon="-8.23029608503991"><ele>839.0</ele><time>2026-04-15T12:00:00Z</time></trkpt><trkpt lat="29.680512101793976" lon="-8.230103078086744"><ele>839.0</ele><time>2026-04-15T12:00:01Z</time></trkpt><trkpt lat="29.680564261378432" lon="-8.229910491168825"><ele>839.0</ele><time>2026-04-15T12:00:02Z</time></trkpt><trkpt lat="29.680612637591658" lon="-8.229716993407"><ele>839.3333333333334</ele><time>2026-04-15T12:00:03Z</time></trkpt><trkpt lat="29.680657915034246" lon="-8.229522093822107"><ele>839.6666666666667</ele><time>2026-04-15T12:00:04Z</time></trkpt><trkpt lat="29.68069870175619" lon="-8.22932724235395"><ele>840.0</ele><time>2026-04-15T12:00:05Z</time></trkpt><trkpt lat="29.680732775759505" lon="-8.229130340734956"><ele>840.0</ele><time>2026-04-15T12:00:06Z</time></trkpt><trkpt lat="29.68076151589766" lon="-8.228933216295069"><ele>840.0</ele><time>2026-04-15T12:00:07Z</time></trkpt><trkpt lat="29.68078059700924" lon="-8.228744296031437"><ele>840.0</ele><time>2026-04-15T12:00:08Z</time></trkpt><trkpt lat="29.68079459266369" lon="-8.228556752814585"><ele>840.0</ele><time>2026-04-15T12:00:09Z</time></trkpt><trkpt lat="29.680804945533357" lon="-8.228369701214422"><ele>840.0</ele><time>2026-04-15T12:00:10Z</time></trkpt><trkpt lat="29.68081793584445" lon="-8.228185790945055"><ele>840.0</ele><time>2026-04-15T12:00:11Z</time></trkpt><trkpt lat="29.680829434818193" lon="-8.228000748138669"><ele>840.6666666666667</ele><time>2026-04-15T12:00:12Z</time></trkpt><trkpt lat="29.680841495787003" lon="-8.227815200853728"><ele>841.3333333333334</ele><time>2026-04-15T12:00:13Z</time></trkpt><trkpt lat="29.680852278135376" lon="-8.227626464233662"><ele>842.0</ele><time>2026-04-15T12:00:14Z</time></trkpt><trkpt lat="29.680868445583307" lon="-8.227434725840196"><ele>841.3333333333334</ele><time>2026-04-15T12:00:15Z</time></trkpt><trkpt lat="29.680884727349767" lon="-8.22723583450609"><ele>840.6666666666667</ele><time>2026-04-15T12:00:16Z</time></trkpt><trkpt lat="29.68089932262229" lon="-8.227034708561005"><ele>840.0</ele><time>2026-04-15T12:00:17Z</time></trkpt><trkpt lat="29.680911395112485" lon="-8.226833263381083"><ele>840.0</ele><time>2026-04-15T12:00:18Z</time></trkpt><trkpt lat="29.68092126823842" lon="-8.226636194681582"><ele>840.0</ele><time>2026-04-15T12:00:19Z</time></trkpt><trkpt lat="29.680931389764957" lon="-8.2264472942813"><ele>840.0</ele><time>2026-04-15T12:00:20Z</time></trkpt><trkpt lat="29.68094083677538" lon="-8.22626810275867"><ele>840.6666666666667</ele><time>2026-04-15T12:00:21Z</time></trkpt><trkpt lat="29.680954091174122" lon="-8.226081751829627"><ele>841.3333333333334</ele><time>2026-04-15T12:00:22Z</time></trkpt><trkpt lat="29.680968686628244" lon="-8.225888961955908"><ele>842.0</ele><time>2026-04-15T12:00:23Z</time></trkpt><trkpt lat="29.68098112981587" lon="-8.225684786988129"><ele>842.6666666666667</ele><time>2026-04-15T12:00:24Z</time></trkpt><trkpt lat="29.680986431604666" lon="-8.225475567653053"><ele>843.3333333333333</ele><time>2026-04-15T12:00:25Z</time></trkpt><trkpt lat="29.680988590415627" lon="-8.22526273002763"><ele>844.0</ele><time>2026-04-15T12:00:26Z</time></trkpt><trkpt lat="29.68099613027419" lon="-8.225049437962774"><ele>844.0</ele><time>2026-04-15T12:00:27Z</time></trkpt><trkpt lat="29.681010467284477" lon="-8.224834534495331"><ele>844.0</ele><time>2026-04-15T12:00:28Z</time></trkpt><trkpt lat="29.681026852982253" lon="-8.224624198131208"><ele>844.0</ele><time>2026-04-15T12:00:29Z</time></trkpt><trkpt lat="29.681045943048122" lon="-8.22442034107086"><ele>844.0</ele><time>2026-04-15T12:00:30Z</time></trkpt><trkpt lat="29.681057046407943" lon="-8.224215195595233"><ele>844.0</ele><time>2026-04-15T12:00:31Z</time></trkpt><trkpt lat="29.681069535281896" lon="-8.224004738916014"><ele>844.0</ele><time>2026-04-15T12:00:32Z</time></trkpt><trkpt lat="29.681083173752228" lon="-8.223795358446969"><ele>844.0</ele><time>2026-04-15T12:00:33Z</time></trkpt><trkpt lat="29.681095435578747" lon="-8.223586905724952"><ele>844.0</ele><time>2026-04-15T12:00:34Z</time></trkpt><trkpt lat="29.681105011893333" lon="-8.223378914619005"><ele>844.0</ele><time>2026-04-15T12:00:35Z</time></trkpt><trkpt lat="29.681109559405137" lon="-8.223182182736299"><ele>844.0</ele><time>2026-04-15T12:00:36Z</time></trkpt><trkpt lat="29.681112150192675" lon="-8.222993452543301"><ele>844.0</ele><time>2026-04-15T12:00:37Z</time></trkpt><trkpt lat="29.681117766838845" lon="-8.222810868641258"><ele>844.0</ele><time>2026-04-15T12:00:38Z</time></trkpt><trkpt lat="29.681116744653806" lon="-8.222631378226117"><ele>844.0</ele><time>2026-04-15T12:00:39Z</time></trkpt><trkpt lat="29.68110533731198" lon="-8.222452722589487"><ele>844.0</ele><time>2026-04-15T12:00:40Z</time></trkpt><trkpt lat="29.681084845587016" lon="-8.222275568298581"><ele>844.0</ele><time>2026-04-15T12:00:41Z</time></trkpt><trkpt lat="29.681058852995744" lon="-8.222094800255583"><ele>844.6666666666666</ele><time>2026-04-15T12:00:42Z</time></trkpt><trkpt lat="29.681032215373325" lon="-8.221912510719521"><ele>845.3333333333333</ele><time>2026-04-15T12:00:43Z</time></trkpt><trkpt lat="29.681004390665354" lon="-8.221734817831672"><ele>846.0</ele><time>2026-04-15T12:00:44Z</time></trkpt><trkpt lat="29.68096489660575" lon="-8.221550359033019"><ele>846.6666666666667</ele><time>2026-04-15T12:00:45Z</time></trkpt><trkpt lat="29.680907372079172" lon="-8.221363583159803"><ele>847.3333333333334</ele><time>2026-04-15T12:00:46Z</time></trkpt><trkpt lat="29.68083934894377" lon="-8.22117687055952"><ele>848.0</ele><time>2026-04-15T12:00:47Z</time></trkpt><trkpt lat="29.68075924176993" lon="-8.220988548167863"><ele>848.0</ele><time>2026-04-15T12:00:48Z</time></trkpt><trkpt lat="29.680680385641036" lon="-8.22081164846369"><ele>848.0</ele><time>2026-04-15T12:00:49Z</time></trkpt><trkpt lat="29.6806019445176" lon="-8.220651862915147"><ele>848.0</ele><time>2026-04-15T12:00:50Z</time></trkpt><trkpt lat="29.68052002085507" lon="-8.22050310566046"><ele>850.0</ele><time>2026-04-15T12:00:51Z</time></trkpt><trkpt lat="29.680436466862535" lon="-8.220356957816518"><ele>852.0</ele><time>2026-04-15T12:00:52Z</time></trkpt><trkpt lat="29.680353363626672" lon="-8.22020967136417"><ele>854.0</ele><time>2026-04-15T12:00:53Z</time></trkpt><trkpt lat="29.68027020741073" lon="-8.220059355241094"><ele>853.0</ele><time>2026-04-15T12:00:54Z</time></trkpt><trkpt lat="29.680186989137827" lon="-8.219907096644196"><ele>852.0</ele><time>2026-04-15T12:00:55Z</time></trkpt><trkpt lat="29.680106233181867" lon="-8.21975287700153"><ele>851.0</ele><time>2026-04-15T12:00:56Z</time></trkpt><trkpt lat="29.680027742966534" lon="-8.219600180643605"><ele>853.3333333333334</ele><time>2026-04-15T12:00:57Z</time></trkpt><trkpt lat="29.679948138947093" lon="-8.219441279282671"><ele>855.6666666666667</ele><time>2026-04-15T12:00:58Z</time></trkpt><trkpt lat="29.679867313692117" lon="-8.219284293394235"><ele>858.0</ele><time>2026-04-15T12:00:59Z</time></trkpt><trkpt lat="29.67978249414382" lon="-8.219129471972037"><ele>859.6666666666667</ele><time>2026-04-15T12:01:00Z</time></trkpt><trkpt lat="29.679697296830973" lon="-8.21896966800007"><ele>861.3333333333334</ele><time>2026-04-15T12:01:01Z</time></trkpt><trkpt lat="29.679614453033487" lon="-8.218806062937977"><ele>863.0</ele><time>2026-04-15T12:01:02Z</time></trkpt><trkpt lat="29.679532288433645" lon="-8.218643126499694"><ele>863.0</ele><time>2026-04-15T12:01:03Z</time></trkpt><trkpt lat="29.67945127182332" lon="-8.218473502265086"><ele>863.0</ele><time>2026-04-15T12:01:04Z</time></trkpt><trkpt lat="29.67937360884211" lon="-8.218302956250275"><ele>863.0</ele><time>2026-04-15T12:01:05Z</time></trkpt><trkpt lat="29.679297442184698" lon="-8.218127959974632"><ele>862.6666666666667</ele><time>2026-04-15T12:01:06Z</time></trkpt><trkpt lat="29.67922138350431" lon="-8.217956707495041"><ele>862.3333333333333</ele><time>2026-04-15T12:01:07Z</time></trkpt><trkpt lat="29.679147951984756" lon="-8.21777842134424"><ele>862.0</ele><time>2026-04-15T12:01:08Z</time></trkpt><trkpt lat="29.679072106733685" lon="-8.217600923283971"><ele>862.0</ele><time>2026-04-15T12:01:09Z</time></trkpt><trkpt lat="29.678993554895783" lon="-8.217430282066779"><ele>862.0</ele><time>2026-04-15T12:01:10Z</time></trkpt><trkpt lat="29.6789246196027" lon="-8.217257514368828"><ele>862.0</ele><time>2026-04-15T12:01:11Z</time></trkpt><trkpt lat="29.678866646498136" lon="-8.217073330909084"><ele>862.6666666666666</ele><time>2026-04-15T12:01:12Z</time></trkpt><trkpt lat="29.678816458192944" lon="-8.216882230937246"><ele>863.3333333333333</ele><time>2026-04-15T12:01:13Z</time></trkpt><trkpt lat="29.67877222370814" lon="-8.216688262770875"><ele>864.0</ele><time>2026-04-15T12:01:14Z</time></trkpt><trkpt lat="29.67873489217481" lon="-8.216498883305109"><ele>864.0</ele><time>2026-04-15T12:01:15Z</time></trkpt><trkpt lat="29.67869953363242" lon="-8.21631302300089"><ele>864.0</ele><time>2026-04-15T12:01:16Z</time></trkpt><trkpt lat="29.67866598025943" lon="-8.216128723425706"><ele>864.0</ele><time>2026-04-15T12:01:17Z</time></trkpt><trkpt lat="29.678632068322827" lon="-8.21593814376007"><ele>863.0</ele><time>2026-04-15T12:01:18Z</time></trkpt><trkpt lat="29.67859556575502" lon="-8.215749591802824"><ele>862.0</ele><time>2026-04-15T12:01:19Z</time></trkpt><trkpt lat="29.67855874414176" lon="-8.21555514464582"><ele>861.0</ele><time>2026-04-15T12:01:20Z</time></trkpt><trkpt lat="29.678523385910527" lon="-8.215356613760713"><ele>861.0</ele><time>2026-04-15T12:01:21Z</time></trkpt><trkpt lat="29.678488845962484" lon="-8.21515976939186"><ele>861.0</ele><time>2026-04-15T12:01:22Z</time></trkpt><trkpt lat="29.67845839460672" lon="-8.214963690280543"><ele>861.0</ele><time>2026-04-15T12:01:23Z</time></trkpt><trkpt lat="29.67843456500987" lon="-8.214765796210354"><ele>862.0</ele><time>2026-04-15T12:01:24Z</time></trkpt><trkpt lat="29.67841826938798" lon="-8.21456568202683"><ele>863.0</ele><time>2026-04-15T12:01:25Z</time></trkpt><trkpt lat="29.67841165316432" lon="-8.214367223363443"><ele>864.0</ele><time>2026-04-15T12:01:26Z</time></trkpt><trkpt lat="29.67840838550919" lon="-8.214166114858429"><ele>864.0</ele><time>2026-04-15T12:01:27Z</time></trkpt><trkpt lat="29.678408963903482" lon="-8.2139618999946"><ele>864.0</ele><time>2026-04-15T12:01:28Z</time></trkpt><trkpt lat="29.67841083334817" lon="-8.213757677239288"><ele>864.0</ele><time>2026-04-15T12:01:29Z</time></trkpt><trkpt lat="29.67841999151798" lon="-8.213552716457238"><ele>864.0</ele><time>2026-04-15T12:01:30Z</time></trkpt><trkpt lat="29.678437050363232" lon="-8.213350844686058"><ele>864.0</ele><time>2026-04-15T12:01:31Z</time></trkpt><trkpt lat="29.678456788545184" lon="-8.213149601817442"><ele>864.0</ele><time>2026-04-15T12:01:32Z</time></trkpt><trkpt lat="29.67848468781611" lon="-8.212948759586068"><ele>864.3333333333333</ele><time>2026-04-15T12:01:33Z</time></trkpt><trkpt lat="29.67852197100112" lon="-8.212752621951703"><ele>864.6666666666666</ele><time>2026-04-15T12:01:34Z</time></trkpt><trkpt lat="29.678561917393992" lon="-8.212563082318454"><ele>865.0</ele><time>2026-04-15T12:01:35Z</time></trkpt><trkpt lat="29.6786065814023" lon="-8.2123696203854"><ele>867.3333333333333</ele><time>2026-04-15T12:01:36Z</time></trkpt><trkpt lat="29.67866099814284" lon="-8.21217361028194"><ele>869.6666666666667</ele><time>2026-04-15T12:01:37Z</time></trkpt><trkpt lat="29.678724066614354" lon="-8.211978479797178"><ele>872.0</ele><time>2026-04-15T12:01:38Z</time></trkpt><trkpt lat="29.678788796145593" lon="-8.211790965421272"><ele>872.0</ele><time>2026-04-15T12:01:39Z</time></trkpt><trkpt lat="29.678849471715193" lon="-8.211609866492287"><ele>872.0</ele><time>2026-04-15T12:01:40Z</time></trkpt><trkpt lat="29.67890891082414" lon="-8.211429396971655"><ele>872.0</ele><time>2026-04-15T12:01:41Z</time></trkpt><trkpt lat="29.678968905990132" lon="-8.21124702243502"><ele>873.3333333333334</ele><time>2026-04-15T12:01:42Z</time></trkpt><trkpt lat="29.67902891435031" lon="-8.211062685985553"><ele>874.6666666666667</ele><time>2026-04-15T12:01:43Z</time></trkpt><trkpt lat="29.679088457139336" lon="-8.210877272344275"><ele>876.0</ele><time>2026-04-15T12:01:44Z</time></trkpt><trkpt lat="29.679147974436464" lon="-8.210690031998702"><ele>876.3333333333333</ele><time>2026-04-15T12:01:45Z</time></trkpt><trkpt lat="29.679204583695324" lon="-8.210506123454287"><ele>876.6666666666666</ele><time>2026-04-15T12:01:46Z</time></trkpt><trkpt lat="29.67926697725001" lon="-8.210312973694895"><ele>877.0</ele><time>2026-04-15T12:01:47Z</time></trkpt><trkpt lat="29.679326725103262" lon="-8.210121092331889"><ele>877.0</ele><time>2026-04-15T12:01:48Z</time></trkpt><trkpt lat="29.67938354675363" lon="-8.209934622597812"><ele>877.0</ele><time>2026-04-15T12:01:49Z</time></trkpt><trkpt lat="29.6794424401198" lon="-8.209748494026208"><ele>877.0</ele><time>2026-04-15T12:01:50Z</time></trkpt><trkpt lat="29.679502576936667" lon="-8.209566625299198"><ele>877.6666666666666</ele><time>2026-04-15T12:01:51Z</time></trkpt><trkpt lat="29.679562863254368" lon="-8.209385526328763"><ele>878.3333333333333</ele><time>2026-04-15T12:01:52Z</time></trkpt><trkpt lat="29.679623172356067" lon="-8.20920264645177"><ele>879.0</ele><time>2026-04-15T12:01:53Z</time></trkpt><trkpt lat="29.679687071256023" lon="-8.209013893074415"><ele>875.6666666666667</ele><time>2026-04-15T12:01:54Z</time></trkpt><trkpt lat="29.67975396491327" lon="-8.208821465623387"><ele>872.3333333333334</ele><time>2026-04-15T12:01:55Z</time></trkpt><trkpt lat="29.67981536298271" lon="-8.208625179688042"><ele>869.0</ele><time>2026-04-15T12:01:56Z</time></trkpt><trkpt lat="29.679865781268283" lon="-8.208418439142225"><ele>869.0</ele><time>2026-04-15T12:01:57Z</time></trkpt><trkpt lat="29.679912969243123" lon="-8.208212801786859"><ele>869.0</ele><time>2026-04-15T12:01:58Z</time></trkpt><trkpt lat="29.67995442833708" lon="-8.208009778342015"><ele>869.0</ele><time>2026-04-15T12:01:59Z</time></trkpt><trkpt lat="29.679996714282943" lon="-8.207811894171453"><ele>867.6666666666667</ele><time>2026-04-15T12:02:00Z</time></trkpt><trkpt lat="29.680036783584335" lon="-8.207611879770177"><ele>866.3333333333333</ele><time>2026-04-15T12:02:01Z</time></trkpt><trkpt lat="29.68007366671092" lon="-8.20741193558393"><ele>865.0</ele><time>2026-04-15T12:02:02Z</time></trkpt><trkpt lat="29.680108545156084" lon="-8.20721490742295"><ele>864.6666666666666</ele><time>2026-04-15T12:02:03Z</time></trkpt><trkpt lat="29.680148120742817" lon="-8.207015241750472"><ele>864.3333333333333</ele><time>2026-04-15T12:02:04Z</time></trkpt><trkpt lat="29.68019693950425" lon="-8.206807242889465"><ele>864.0</ele><time>2026-04-15T12:02:05Z</time></trkpt><trkpt lat="29.680244506225712" lon="-8.20660256637313"><ele>863.3333333333333</ele><time>2026-04-15T12:02:06Z</time></trkpt><trkpt lat="29.680287175689244" lon="-8.206395607386769"><ele>862.6666666666666</ele><time>2026-04-15T12:02:07Z</time></trkpt><trkpt lat="29.680326108265408" lon="-8.206183726298393"><ele>862.0</ele><time>2026-04-15T12:02:08Z</time></trkpt><trkpt lat="29.680365625751907" lon="-8.205986071703474"><ele>862.0</ele><time>2026-04-15T12:02:09Z</time></trkpt><trkpt lat="29.680401989166704" lon="-8.205794161261906"><ele>862.0</ele><time>2026-04-15T12:02:10Z</time></trkpt><trkpt lat="29.680440688564296" lon="-8.205613175503183"><ele>862.0</ele><time>2026-04-15T12:02:11Z</time></trkpt><trkpt lat="29.680485202197858" lon="-8.20543868259362"><ele>861.0</ele><time>2026-04-15T12:02:12Z</time></trkpt><trkpt lat="29.680539255173457" lon="-8.205263795475965"><ele>860.0</ele><time>2026-04-15T12:02:13Z</time></trkpt><trkpt lat="29.680602723078724" lon="-8.205085327163303"><ele>859.0</ele><time>2026-04-15T12:02:14Z</time></trkpt><trkpt lat="29.680674126434127" lon="-8.204905847602838"><ele>857.3333333333333</ele><time>2026-04-15T12:02:15Z</time></trkpt><trkpt lat="29.6807530345045" lon="-8.204719202939962"><ele>855.6666666666667</ele><time>2026-04-15T12:02:16Z</time></trkpt><trkpt lat="29.680844375466283" lon="-8.204530604291596"><ele>854.0</ele><time>2026-04-15T12:02:17Z</time></trkpt><trkpt lat="29.68094587389009" lon="-8.204342834486587"><ele>854.0</ele><time>2026-04-15T12:02:18Z</time></trkpt><trkpt lat="29.681056353191273" lon="-8.20415473672359"><ele>854.0</ele><time>2026-04-15T12:02:19Z</time></trkpt><trkpt lat="29.681173707304502" lon="-8.203969047765133"><ele>854.0</ele><time>2026-04-15T12:02:20Z</time></trkpt><trkpt lat="29.681298825957136" lon="-8.203789139949084"><ele>852.3333333333334</ele><time>2026-04-15T12:02:21Z</time></trkpt><trkpt lat="29.681427973934344" lon="-8.203611199243888"><ele>850.6666666666667</ele><time>2026-04-15T12:02:22Z</time></trkpt><trkpt lat="29.681557840758877" lon="-8.203432998624312"><ele>849.0</ele><time>2026-04-15T12:02:23Z</time></trkpt><trkpt lat="29.681686486671353" lon="-8.203254848567855"><ele>849.6666666666667</ele><time>2026-04-15T12:02:24Z</time></trkpt><trkpt lat="29.68181312837579" lon="-8.203083410416728"><ele>850.3333333333334</ele><time>2026-04-15T12:02:25Z</time></trkpt><trkpt lat="29.681940069176" lon="-8.202913664390977"><ele>851.0</ele><time>2026-04-15T12:02:26Z</time></trkpt><trkpt lat="29.6820696548828" lon="-8.202742716264554"><ele>853.0</ele><time>2026-04-15T12:02:27Z</time></trkpt><trkpt lat="29.682198121244692" lon="-8.202575019355718"><ele>855.0</ele><time>2026-04-15T12:02:28Z</time></trkpt><trkpt lat="29.682322688155338" lon="-8.20240034121383"><ele>857.0</ele><time>2026-04-15T12:02:29Z</time></trkpt><trkpt lat="29.682444667069216" lon="-8.20222723165948"><ele>857.3333333333334</ele><time>2026-04-15T12:02:30Z</time></trkpt><trkpt lat="29.682565129056986" lon="-8.202055046150967"><ele>857.6666666666667</ele><time>2026-04-15T12:02:31Z</time></trkpt><trkpt lat="29.682684962344528" lon="-8.201885624795576"><ele>858.0</ele><time>2026-04-15T12:02:32Z</time></trkpt><trkpt lat="29.68280304921697" lon="-8.201719862794615"><ele>859.3333333333333</ele><time>2026-04-15T12:02:33Z</time></trkpt><trkpt lat="29.682917694869147" lon="-8.201560782659307"><ele>860.6666666666666</ele><time>2026-04-15T12:02:34Z</time></trkpt><trkpt lat="29.683022025075196" lon="-8.201408285911784"><ele>862.0</ele><time>2026-04-15T12:02:35Z</time></trkpt><trkpt lat="29.6831259616037" lon="-8.201254620450051"><ele>862.0</ele><time>2026-04-15T12:02:36Z</time></trkpt><trkpt lat="29.683235873464515" lon="-8.201102216204154"><ele>862.0</ele><time>2026-04-15T12:02:37Z</time></trkpt><trkpt lat="29.683350772219512" lon="-8.200949293594277"><ele>862.0</ele><time>2026-04-15T12:02:38Z</time></trkpt><trkpt lat="29.683464305390952" lon="-8.200797357561571"><ele>861.6666666666666</ele><time>2026-04-15T12:02:39Z</time></trkpt><trkpt lat="29.683576717417317" lon="-8.200642036402384"><ele>861.3333333333333</ele><time>2026-04-15T12:02:40Z</time></trkpt><trkpt lat="29.683687822474436" lon="-8.200484391527834"><ele>861.0</ele><time>2026-04-15T12:02:41Z</time></trkpt><trkpt lat="29.683803847195346" lon="-8.200329101106991"><ele>858.0</ele><time>2026-04-15T12:02:42Z</time></trkpt><trkpt lat="29.683920359455676" lon="-8.200172612881502"><ele>855.0</ele><time>2026-04-15T12:02:43Z</time></trkpt><trkpt lat="29.684035854587307" lon="-8.20001226388725"><ele>852.0</ele><time>2026-04-15T12:02:44Z</time></trkpt><trkpt lat="29.684146827103607" lon="-8.19985631349148"><ele>852.3333333333333</ele><time>2026-04-15T12:02:45Z</time></trkpt><trkpt lat="29.68425298673684" lon="-8.19970913666198"><ele>852.6666666666666</ele><time>2026-04-15T12:02:46Z</time></trkpt><trkpt lat="29.68435812805585" lon="-8.199561674102476"><ele>853.0</ele><time>2026-04-15T12:02:47Z</time></trkpt><trkpt lat="29.684464741900914" lon="-8.1994122610347"><ele>851.3333333333333</ele><time>2026-04-15T12:02:48Z</time></trkpt><trkpt lat="29.684575777676066" lon="-8.199263619760625"><ele>849.6666666666667</ele><time>2026-04-15T12:02:49Z</time></trkpt><trkpt lat="29.684685500202182" lon="-8.199113692934985"><ele>848.0</ele><time>2026-04-15T12:02:50Z</time></trkpt><trkpt lat="29.684788060685396" lon="-8.19896400312021"><ele>847.6666666666667</ele><time>2026-04-15T12:02:51Z</time></trkpt><trkpt lat="29.684885853141665" lon="-8.198807493386672"><ele>847.3333333333333</ele><time>2026-04-15T12:02:52Z</time></trkpt><trkpt lat="29.68497352253822" lon="-8.198641187544164"><ele>847.0</ele><time>2026-04-15T12:02:53Z</time></trkpt><trkpt lat="29.685054890142936" lon="-8.198465399888212"><ele>847.0</ele><time>2026-04-15T12:02:54Z</time></trkpt><trkpt lat="29.68512628788122" lon="-8.198280585609512"><ele>847.0</ele><time>2026-04-15T12:02:55Z</time></trkpt><trkpt lat="29.685193133662267" lon="-8.1980893373735"><ele>847.0</ele><time>2026-04-15T12:02:56Z</time></trkpt><trkpt lat="29.685256202519408" lon="-8.197902184775613"><ele>845.6666666666666</ele><time>2026-04-15T12:02:57Z</time></trkpt><trkpt lat="29.685297979694806" lon="-8.197716123041474"><ele>844.3333333333333</ele><time>2026-04-15T12:02:58Z</time></trkpt><trkpt lat="29.68531759025621" lon="-8.197514258869377"><ele>843.0</ele><time>2026-04-15T12:02:59Z</time></trkpt><trkpt lat="29.685322435385352" lon="-8.197310503469767"><ele>842.3333333333333</ele><time>2026-04-15T12:03:00Z</time></trkpt><trkpt lat="29.685321131061674" lon="-8.197105625068072"><ele>841.6666666666666</ele><time>2026-04-15T12:03:01Z</time></trkpt><trkpt lat="29.685319390298236" lon="-8.196895041827755"><ele>841.0</ele><time>2026-04-15T12:03:02Z</time></trkpt><trkpt lat="29.68531840992805" lon="-8.196682741363432"><ele>840.6666666666666</ele><time>2026-04-15T12:03:03Z</time></trkpt><trkpt lat="29.685315965366637" lon="-8.196475768780553"><ele>840.3333333333333</ele><time>2026-04-15T12:03:04Z</time></trkpt><trkpt lat="29.68531588147623" lon="-8.1962680496364"><ele>840.0</ele><time>2026-04-15T12:03:05Z</time></trkpt><trkpt lat="29.68531892566988" lon="-8.196061814595938"><ele>840.0</ele><time>2026-04-15T12:03:06Z</time></trkpt><trkpt lat="29.685317396491598" lon="-8.195857957984261"><ele>840.0</ele><time>2026-04-15T12:03:07Z</time></trkpt><trkpt lat="29.685312872825484" lon="-8.195655539783118"><ele>840.0</ele><time>2026-04-15T12:03:08Z</time></trkpt><trkpt lat="29.685314057622165" lon="-8.195457719024773"><ele>839.3333333333333</ele><time>2026-04-15T12:03:09Z</time></trkpt><trkpt lat="29.685313132976034" lon="-8.195269976613792"><ele>838.6666666666666</ele><time>2026-04-15T12:03:10Z</time></trkpt><trkpt lat="29.685311313202128" lon="-8.195092068396544"><ele>838.0</ele><time>2026-04-15T12:03:11Z</time></trkpt><trkpt lat="29.68531272276609" lon="-8.19492066868576"><ele>838.0</ele><time>2026-04-15T12:03:12Z</time></trkpt><trkpt lat="29.68531353039292" lon="-8.194751123584421"><ele>838.0</ele><time>2026-04-15T12:03:13Z</time></trkpt><trkpt lat="29.685313088497523" lon="-8.19457698056373"><ele>838.0</ele><time>2026-04-15T12:03:14Z</time></trkpt><trkpt lat="29.685310013968504" lon="-8.194400737692321"><ele>838.0</ele><time>2026-04-15T12:03:15Z</time></trkpt><trkpt lat="29.685305735494257" lon="-8.194218478066725"><ele>838.0</ele><time>2026-04-15T12:03:16Z</time></trkpt><trkpt lat="29.685303720275982" lon="-8.194030741818569"><ele>838.0</ele><time>2026-04-15T12:03:17Z</time></trkpt><trkpt lat="29.68530087098469" lon="-8.193838799329622"><ele>838.0</ele><time>2026-04-15T12:03:18Z</time></trkpt><trkpt lat="29.685295839910715" lon="-8.193652800154823"><ele>838.0</ele><time>2026-04-15T12:03:19Z</time></trkpt><trkpt lat="29.68529034633313" lon="-8.19346542721661"><ele>838.0</ele><time>2026-04-15T12:03:20Z</time></trkpt><trkpt lat="29.685272206783722" lon="-8.193268519298853"><ele>836.3333333333333</ele><time>2026-04-15T12:03:21Z</time></trkpt><trkpt lat="29.685240685576417" lon="-8.193067497058344"><ele>834.6666666666667</ele><time>2026-04-15T12:03:22Z</time></trkpt><trkpt lat="29.68519698744868" lon="-8.19287905424646"><ele>833.0</ele><time>2026-04-15T12:03:23Z</time></trkpt><trkpt lat="29.685143144592153" lon="-8.192706407189277"><ele>833.0</ele><time>2026-04-15T12:03:24Z</time></trkpt><trkpt lat="29.685077740736126" lon="-8.192546831657337"><ele>833.0</ele><time>2026-04-15T12:03:25Z</time></trkpt><trkpt lat="29.685003214277618" lon="-8.192398258402838"><ele>833.0</ele><time>2026-04-15T12:03:26Z</time></trkpt><trkpt lat="29.68491728773402" lon="-8.19226654143362"><ele>833.0</ele><time>2026-04-15T12:03:27Z</time></trkpt><trkpt lat="29.684818962696554" lon="-8.192147636861606"><ele>832.6666666666667</ele><time>2026-04-15T12:03:28Z</time></trkpt><trkpt lat="29.684702833639605" lon="-8.192033589691079"><ele>832.3333333333333</ele><time>2026-04-15T12:03:29Z</time></trkpt><trkpt lat="29.68457452158586" lon="-8.191926753985214"><ele>832.0</ele><time>2026-04-15T12:03:30Z</time></trkpt><trkpt lat="29.684445496768276" lon="-8.191829715699715"><ele>831.75</ele><time>2026-04-15T12:03:31Z</time></trkpt><trkpt lat="29.68431982831987" lon="-8.19175102892966"><ele>831.5</ele><time>2026-04-15T12:03:32Z</time></trkpt><trkpt lat="29.68419648744715" lon="-8.19168522048805"><ele>831.25</ele><time>2026-04-15T12:03:33Z</time></trkpt><trkpt lat="29.684074662138357" lon="-8.191619770704209"><ele>831.0</ele><time>2026-04-15T12:03:34Z</time></trkpt><trkpt lat="29.683953947735613" lon="-8.191557627408251"><ele>830.25</ele><time>2026-04-15T12:03:35Z</time></trkpt><trkpt lat="29.68382774125818" lon="-8.191497689970523"><ele>829.5</ele><time>2026-04-15T12:03:36Z</time></trkpt><trkpt lat="29.683692285574956" lon="-8.191444504056047"><ele>828.75</ele><time>2026-04-15T12:03:37Z</time></trkpt><trkpt lat="29.68355265142987" lon="-8.191391248237341"><ele>828.0</ele><time>2026-04-15T12:03:38Z</time></trkpt><trkpt lat="29.68340985616932" lon="-8.191332394238364"><ele>827.0</ele><time>2026-04-15T12:03:39Z</time></trkpt><trkpt lat="29.6832623997728" lon="-8.191267397585843"><ele>826.0</ele><time>2026-04-15T12:03:40Z</time></trkpt><trkpt lat="29.683111357797493" lon="-8.191195758912459"><ele>825.0</ele><time>2026-04-15T12:03:41Z</time></trkpt><trkpt lat="29.682955066826917" lon="-8.191120386339914"><ele>825.0</ele><time>2026-04-15T12:03:42Z</time></trkpt><trkpt lat="29.682793579573236" lon="-8.191049516654637"><ele>825.0</ele><time>2026-04-15T12:03:43Z</time></trkpt><trkpt lat="29.682630015106895" lon="-8.190975625745805"><ele>825.0</ele><time>2026-04-15T12:03:44Z</time></trkpt><trkpt lat="29.68246454512599" lon="-8.19089449427033"><ele>825.0</ele><time>2026-04-15T12:03:45Z</time></trkpt><trkpt lat="29.68230152915635" lon="-8.190818373808302"><ele>825.0</ele><time>2026-04-15T12:03:46Z</time></trkpt><trkpt lat="29.68214385822378" lon="-8.190750448605412"><ele>825.0</ele><time>2026-04-15T12:03:47Z</time></trkpt><trkpt lat="29.681991625293197" lon="-8.190686759497572"><ele>823.6666666666667</ele><time>2026-04-15T12:03:48Z</time></trkpt><trkpt lat="29.681844359014956" lon="-8.190621032123005"><ele>822.3333333333334</ele><time>2026-04-15T12:03:49Z</time></trkpt><trkpt lat="29.681700408002474" lon="-8.190554478134839"><ele>821.0</ele><time>2026-04-15T12:03:50Z</time></trkpt><trkpt lat="29.681558452479972" lon="-8.190489961129382"><ele>821.0</ele><time>2026-04-15T12:03:51Z</time></trkpt><trkpt lat="29.681409276555424" lon="-8.190428544616003"><ele>821.0</ele><time>2026-04-15T12:03:52Z</time></trkpt><trkpt lat="29.6812515851286" lon="-8.190361204845896"><ele>821.0</ele><time>2026-04-15T12:03:53Z</time></trkpt><trkpt lat="29.681098415490275" lon="-8.190294344132734"><ele>820.6666666666667</ele><time>2026-04-15T12:03:54Z</time></trkpt><trkpt lat="29.68094868236945" lon="-8.190218686562757"><ele>820.3333333333333</ele><time>2026-04-15T12:03:55Z</time></trkpt><trkpt lat="29.680801843611416" lon="-8.190143488588165"><ele>820.0</ele><time>2026-04-15T12:03:56Z</time></trkpt><trkpt lat="29.680660578484417" lon="-8.190054694434206"><ele>820.0</ele><time>2026-04-15T12:03:57Z</time></trkpt><trkpt lat="29.680521212089765" lon="-8.189948947680747"><ele>820.0</ele><time>2026-04-15T12:03:58Z</time></trkpt><trkpt lat="29.680385456369873" lon="-8.189830840937846"><ele>820.0</ele><time>2026-04-15T12:03:59Z</time></trkpt><trkpt lat="29.68025520039072" lon="-8.1897028696552"><ele>819.3333333333333</ele><time>2026-04-15T12:04:00Z</time></trkpt><trkpt lat="29.68013284909789" lon="-8.189557544323206"><ele>818.6666666666667</ele><time>2026-04-15T12:04:01Z</time></trkpt><trkpt lat="29.680019141340487" lon="-8.1893997462545"><ele>818.0</ele><time>2026-04-15T12:04:02Z</time></trkpt><trkpt lat="29.679913414695633" lon="-8.189235085033122"><ele>818.0</ele><time>2026-04-15T12:04:03Z</time></trkpt><trkpt lat="29.679820534864263" lon="-8.189063993558348"><ele>818.0</ele><time>2026-04-15T12:04:04Z</time></trkpt><trkpt lat="29.679747609912315" lon="-8.188892913223182"><ele>818.0</ele><time>2026-04-15T12:04:05Z</time></trkpt><trkpt lat="29.67968607882615" lon="-8.188717237237597"><ele>817.3333333333334</ele><time>2026-04-15T12:04:06Z</time></trkpt><trkpt lat="29.67963886385473" lon="-8.18852959789425"><ele>816.6666666666667</ele><time>2026-04-15T12:04:07Z</time></trkpt><trkpt lat="29.67960073767052" lon="-8.18833625487137"><ele>816.0</ele><time>2026-04-15T12:04:08Z</time></trkpt><trkpt lat="29.679570323199872" lon="-8.188137934144525"><ele>816.0</ele><time>2026-04-15T12:04:09Z</time></trkpt><trkpt lat="29.679547683668275" lon="-8.187942054934597"><ele>816.0</ele><time>2026-04-15T12:04:10Z</time></trkpt><trkpt lat="29.679535445038304" lon="-8.187744413918965"><ele>816.0</ele><time>2026-04-15T12:04:11Z</time></trkpt><trkpt lat="29.679531334676" lon="-8.187550846389101"><ele>816.0</ele><time>2026-04-15T12:04:12Z</time></trkpt><trkpt lat="29.679531590983636" lon="-8.187363588201066"><ele>816.0</ele><time>2026-04-15T12:04:13Z</time></trkpt><trkpt lat="29.679531437063975" lon="-8.187179649975512"><ele>816.0</ele><time>2026-04-15T12:04:14Z</time></trkpt><trkpt lat="29.679527159728142" lon="-8.18699615571318"><ele>816.0</ele><time>2026-04-15T12:04:15Z</time></trkpt><trkpt lat="29.67951522832893" lon="-8.186810018907252"><ele>816.0</ele><time>2026-04-15T12:04:16Z</time></trkpt><trkpt lat="29.67950892501563" lon="-8.186617152919458"><ele>816.0</ele><time>2026-04-15T12:04:17Z</time></trkpt><trkpt lat="29.679502954547704" lon="-8.186416049545274"><ele>815.3333333333333</ele><time>2026-04-15T12:04:18Z</time></trkpt><trkpt lat="29.67950081756725" lon="-8.186211592615457"><ele>814.6666666666666</ele><time>2026-04-15T12:04:19Z</time></trkpt><trkpt lat="29.679499291371318" lon="-8.18601225139314"><ele>814.0</ele><time>2026-04-15T12:04:20Z</time></trkpt><trkpt lat="29.6794910808771" lon="-8.185814836667793"><ele>813.3333333333333</ele><time>2026-04-15T12:04:21Z</time></trkpt><trkpt lat="29.679481943538313" lon="-8.185619466500086"><ele>812.6666666666667</ele><time>2026-04-15T12:04:22Z</time></trkpt><trkpt lat="29.67947579436172" lon="-8.185433121615587"><ele>812.0</ele><time>2026-04-15T12:04:23Z</time></trkpt><trkpt lat="29.679471510149646" lon="-8.185250008515977"><ele>812.0</ele><time>2026-04-15T12:04:24Z</time></trkpt><trkpt lat="29.67946635333259" lon="-8.185065039624128"><ele>812.0</ele><time>2026-04-15T12:04:25Z</time></trkpt><trkpt lat="29.67945996208324" lon="-8.184874971334983"><ele>812.0</ele><time>2026-04-15T12:04:26Z</time></trkpt><trkpt lat="29.679451536246617" lon="-8.184680077965869"><ele>811.3333333333334</ele><time>2026-04-15T12:04:27Z</time></trkpt><trkpt lat="29.679445722879773" lon="-8.184483054560323"><ele>810.6666666666667</ele><time>2026-04-15T12:04:28Z</time></trkpt><trkpt lat="29.6794418044901" lon="-8.184284005213117"><ele>810.0</ele><time>2026-04-15T12:04:29Z</time></trkpt><trkpt lat="29.6794365737593" lon="-8.184084930426495"><ele>810.3333333333333</ele><time>2026-04-15T12:04:30Z</time></trkpt><trkpt lat="29.679428361670773" lon="-8.183897812888636"><ele>810.6666666666666</ele><time>2026-04-15T12:04:31Z</time></trkpt><trkpt lat="29.679423398651597" lon="-8.183714553539104"><ele>811.0</ele><time>2026-04-15T12:04:32Z</time></trkpt><trkpt lat="29.67941802242915" lon="-8.183534193892749"><ele>811.0</ele><time>2026-04-15T12:04:33Z</time></trkpt><trkpt lat="29.67941568834887" lon="-8.18335248403152"><ele>811.0</ele><time>2026-04-15T12:04:34Z</time></trkpt><trkpt lat="29.679411804854073" lon="-8.183167375813243"><ele>811.0</ele><time>2026-04-15T12:04:35Z</time></trkpt><trkpt lat="29.6794077746128" lon="-8.18297477531032"><ele>811.0</ele><time>2026-04-15T12:04:36Z</time></trkpt><trkpt lat="29.679406585604404" lon="-8.182779423351098"><ele>811.0</ele><time>2026-04-15T12:04:37Z</time></trkpt><trkpt lat="29.67940179770629" lon="-8.182580134550552"><ele>811.0</ele><time>2026-04-15T12:04:38Z</time></trkpt><trkpt lat="29.67939430297153" lon="-8.182385928650538"><ele>809.6666666666666</ele><time>2026-04-15T12:04:39Z</time></trkpt><trkpt lat="29.679388672829507" lon="-8.182195623359219"><ele>808.3333333333333</ele><time>2026-04-15T12:04:40Z</time></trkpt><trkpt lat="29.679381225089948" lon="-8.182003744388686"><ele>807.0</ele><time>2026-04-15T12:04:41Z</time></trkpt><trkpt lat="29.679375497819805" lon="-8.181811829842207"><ele>807.0</ele><time>2026-04-15T12:04:42Z</time></trkpt><trkpt lat="29.67936911234171" lon="-8.181619990225194"><ele>807.0</ele><time>2026-04-15T12:04:43Z</time></trkpt><trkpt lat="29.67936433989652" lon="-8.181429415754472"><ele>807.0</ele><time>2026-04-15T12:04:44Z</time></trkpt><trkpt lat="29.679359865580842" lon="-8.181231292685007"><ele>807.0</ele><time>2026-04-15T12:04:45Z</time></trkpt><trkpt lat="29.6793527230206" lon="-8.181039962360705"><ele>807.0</ele><time>2026-04-15T12:04:46Z</time></trkpt><trkpt lat="29.67934855515191" lon="-8.180846124602802"><ele>807.0</ele><time>2026-04-15T12:04:47Z</time></trkpt><trkpt lat="29.67934043909082" lon="-8.180660462010334"><ele>807.0</ele><time>2026-04-15T12:04:48Z</time></trkpt><trkpt lat="29.679333039460143" lon="-8.18048250880799"><ele>807.0</ele><time>2026-04-15T12:04:49Z</time></trkpt><trkpt lat="29.679325649326493" lon="-8.180300721086454"><ele>807.0</ele><time>2026-04-15T12:04:50Z</time></trkpt><trkpt lat="29.67931742644852" lon="-8.180116472176145"><ele>807.0</ele><time>2026-04-15T12:04:51Z</time></trkpt><trkpt lat="29.679313392194743" lon="-8.179928401193399"><ele>807.0</ele><time>2026-04-15T12:04:52Z</time></trkpt><trkpt lat="29.679313863371476" lon="-8.179740114666936"><ele>807.0</ele><time>2026-04-15T12:04:53Z</time></trkpt><trkpt lat="29.679323961476914" lon="-8.179549068026034"><ele>806.0</ele><time>2026-04-15T12:04:54Z</time></trkpt><trkpt lat="29.679344679789867" lon="-8.179357877161626"><ele>805.0</ele><time>2026-04-15T12:04:55Z</time></trkpt><trkpt lat="29.679371361946117" lon="-8.17916699157693"><ele>804.0</ele><time>2026-04-15T12:04:56Z</time></trkpt><trkpt lat="29.67940281757138" lon="-8.178970803915526"><ele>804.6666666666667</ele><time>2026-04-15T12:04:57Z</time></trkpt><trkpt lat="29.679436936879537" lon="-8.178774535738265"><ele>805.3333333333334</ele><time>2026-04-15T12:04:58Z</time></trkpt><trkpt lat="29.679475955966208" lon="-8.178574862410697"><ele>806.0</ele><time>2026-04-15T12:04:59Z</time></trkpt><trkpt lat="29.67952747345688" lon="-8.178379726304351"><ele>806.0</ele><time>2026-04-15T12:05:00Z</time></trkpt><trkpt lat="29.679585401206342" lon="-8.17818570875032"><ele>806.0</ele><time>2026-04-15T12:05:01Z</time></trkpt><trkpt lat="29.679645654006354" lon="-8.177993527250692"><ele>806.0</ele><time>2026-04-15T12:05:02Z</time></trkpt><trkpt lat="29.67970720769486" lon="-8.177802041957811"><ele>805.6666666666667</ele><time>2026-04-15T12:05:03Z</time></trkpt><trkpt lat="29.67976830134492" lon="-8.177618908547505"><ele>805.3333333333333</ele><time>2026-04-15T12:05:04Z</time></trkpt><trkpt lat="29.679824096607774" lon="-8.17744520272452"><ele>805.0</ele><time>2026-04-15T12:05:05Z</time></trkpt><trkpt lat="29.679883079067395" lon="-8.177271314301565"><ele>805.0</ele><time>2026-04-15T12:05:06Z</time></trkpt><trkpt lat="29.679946493357477" lon="-8.177079973296472"><ele>805.0</ele><time>2026-04-15T12:05:07Z</time></trkpt><trkpt lat="29.68001645339612" lon="-8.176880093345053"><ele>805.0</ele><time>2026-04-15T12:05:08Z</time></trkpt><trkpt lat="29.680086926489682" lon="-8.176676045178306"><ele>805.0</ele><time>2026-04-15T12:05:09Z</time></trkpt><trkpt lat="29.68016061148407" lon="-8.176475028633938"><ele>805.0</ele><time>2026-04-15T12:05:10Z</time></trkpt><trkpt lat="29.6802301042252" lon="-8.176274022965803"><ele>805.0</ele><time>2026-04-15T12:05:11Z</time></trkpt><trkpt lat="29.68029302283427" lon="-8.176074488736791"><ele>806.0</ele><time>2026-04-15T12:05:12Z</time></trkpt><trkpt lat="29.680357821744295" lon="-8.175875853533988"><ele>807.0</ele><time>2026-04-15T12:05:13Z</time></trkpt><trkpt lat="29.680426423279258" lon="-8.175678856554756"><ele>808.0</ele><time>2026-04-15T12:05:14Z</time></trkpt><trkpt lat="29.68048972995345" lon="-8.175483969468843"><ele>808.6666666666666</ele><time>2026-04-15T12:05:15Z</time></trkpt><trkpt lat="29.68055631625386" lon="-8.175289280352752"><ele>809.3333333333333</ele><time>2026-04-15T12:05:16Z</time></trkpt><trkpt lat="29.680625140313726" lon="-8.175090329423812"><ele>810.0</ele><time>2026-04-15T12:05:17Z</time></trkpt><trkpt lat="29.68069673363046" lon="-8.174886105049875"><ele>809.3333333333333</ele><time>2026-04-15T12:05:18Z</time></trkpt><trkpt lat="29.680771962943368" lon="-8.174674498863132"><ele>808.6666666666666</ele><time>2026-04-15T12:05:19Z</time></trkpt><trkpt lat="29.68084906046146" lon="-8.174460341198978"><ele>808.0</ele><time>2026-04-15T12:05:20Z</time></trkpt><trkpt lat="29.680922392862445" lon="-8.174246860470602"><ele>808.0</ele><time>2026-04-15T12:05:21Z</time></trkpt><trkpt lat="29.680988457173815" lon="-8.174034811952593"><ele>808.0</ele><time>2026-04-15T12:05:22Z</time></trkpt><trkpt lat="29.68105496002753" lon="-8.173821573878858"><ele>808.0</ele><time>2026-04-15T12:05:23Z</time></trkpt><trkpt lat="29.68112123188632" lon="-8.173609048105458"><ele>811.0</ele><time>2026-04-15T12:05:24Z</time></trkpt><trkpt lat="29.681185983857883" lon="-8.173397217217367"><ele>814.0</ele><time>2026-04-15T12:05:25Z</time></trkpt><trkpt lat="29.681252245352525" lon="-8.173187342021828"><ele>817.0</ele><time>2026-04-15T12:05:26Z</time></trkpt><trkpt lat="29.68131622379409" lon="-8.1729836446821"><ele>817.6666666666666</ele><time>2026-04-15T12:05:27Z</time></trkpt><trkpt lat="29.681383053591336" lon="-8.172782908303345"><ele>818.3333333333333</ele><time>2026-04-15T12:05:28Z</time></trkpt><trkpt lat="29.681444487385072" lon="-8.172591696835994"><ele>819.0</ele><time>2026-04-15T12:05:29Z</time></trkpt><trkpt lat="29.681505529446042" lon="-8.172398858815802"><ele>818.6666666666667</ele><time>2026-04-15T12:05:30Z</time></trkpt><trkpt lat="29.681567158337444" lon="-8.172214089253199"><ele>818.3333333333334</ele><time>2026-04-15T12:05:31Z</time></trkpt><trkpt lat="29.681630678583776" lon="-8.172026533860976"><ele>818.0</ele><time>2026-04-15T12:05:32Z</time></trkpt><trkpt lat="29.68169170626967" lon="-8.171842523301189"><ele>818.0</ele><time>2026-04-15T12:05:33Z</time></trkpt><trkpt lat="29.681749534245366" lon="-8.17166021277608"><ele>818.0</ele><time>2026-04-15T12:05:34Z</time></trkpt><trkpt lat="29.681809904529672" lon="-8.17147969635569"><ele>818.0</ele><time>2026-04-15T12:05:35Z</time></trkpt><trkpt lat="29.681869780258708" lon="-8.171302995332525"><ele>817.3333333333334</ele><time>2026-04-15T12:05:36Z</time></trkpt><trkpt lat="29.68192997027555" lon="-8.17112699992185"><ele>816.6666666666667</ele><time>2026-04-15T12:05:37Z</time></trkpt><trkpt lat="29.681986424448276" lon="-8.170954075335603"><ele>816.0</ele><time>2026-04-15T12:05:38Z</time></trkpt><trkpt lat="29.68204528439572" lon="-8.170777592214286"><ele>815.3333333333333</ele><time>2026-04-15T12:05:39Z</time></trkpt><trkpt lat="29.682100630170222" lon="-8.17060192389894"><ele>814.6666666666666</ele><time>2026-04-15T12:05:40Z</time></trkpt><trkpt lat="29.6821599192979" lon="-8.17042812922252"><ele>814.0</ele><time>2026-04-15T12:05:41Z</time></trkpt><trkpt lat="29.68222153219428" lon="-8.170254973198002"><ele>814.0</ele><time>2026-04-15T12:05:42Z</time></trkpt><trkpt lat="29.68228366827559" lon="-8.170077395384135"><ele>814.0</ele><time>2026-04-15T12:05:43Z</time></trkpt><trkpt lat="29.682344902360544" lon="-8.169901381101054"><ele>814.0</ele><time>2026-04-15T12:05:44Z</time></trkpt><trkpt lat="29.68240762473391" lon="-8.169720894077505"><ele>812.0</ele><time>2026-04-15T12:05:45Z</time></trkpt><trkpt lat="29.682471566906568" lon="-8.169538937214462"><ele>810.0</ele><time>2026-04-15T12:05:46Z</time></trkpt><trkpt lat="29.682531440646216" lon="-8.169349794932836"><ele>808.0</ele><time>2026-04-15T12:05:47Z</time></trkpt><trkpt lat="29.682592527378763" lon="-8.16915949877197"><ele>807.0</ele><time>2026-04-15T12:05:48Z</time></trkpt><trkpt lat="29.68265544226818" lon="-8.168967697987084"><ele>806.0</ele><time>2026-04-15T12:05:49Z</time></trkpt><trkpt lat="29.682716774490878" lon="-8.168780862837972"><ele>805.0</ele><time>2026-04-15T12:05:50Z</time></trkpt><trkpt lat="29.68277483873265" lon="-8.168594813371518"><ele>807.0</ele><time>2026-04-15T12:05:51Z</time></trkpt><trkpt lat="29.682838236992783" lon="-8.168406619475759"><ele>809.0</ele><time>2026-04-15T12:05:52Z</time></trkpt><trkpt lat="29.682901849871342" lon="-8.168222851207034"><ele>811.0</ele><time>2026-04-15T12:05:53Z</time></trkpt><trkpt lat="29.682964209647505" lon="-8.168040710430512"><ele>811.0</ele><time>2026-04-15T12:05:54Z</time></trkpt><trkpt lat="29.683026350747884" lon="-8.167857903817152"><ele>811.0</ele><time>2026-04-15T12:05:55Z</time></trkpt><trkpt lat="29.68308712928162" lon="-8.167673064150254"><ele>811.0</ele><time>2026-04-15T12:05:56Z</time></trkpt><trkpt lat="29.68314884322084" lon="-8.16749334615975"><ele>809.3333333333333</ele><time>2026-04-15T12:05:57Z</time></trkpt><trkpt lat="29.683211991905033" lon="-8.16731396759313"><ele>807.6666666666667</ele><time>2026-04-15T12:05:58Z</time></trkpt><trkpt lat="29.68327163177825" lon="-8.167128068150676"><ele>806.0</ele><time>2026-04-15T12:05:59Z</time></trkpt><trkpt lat="29.6833302020775" lon="-8.16694720650137"><ele>806.0</ele><time>2026-04-15T12:06:00Z</time></trkpt><trkpt lat="29.68338607261645" lon="-8.166768374058869"><ele>806.0</ele><time>2026-04-15T12:06:01Z</time></trkpt><trkpt lat="29.683439274786373" lon="-8.16659208391296"><ele>806.0</ele><time>2026-04-15T12:06:02Z</time></trkpt><trkpt lat="29.68349380790632" lon="-8.166414617003205"><ele>805.3333333333334</ele><time>2026-04-15T12:06:03Z</time></trkpt><trkpt lat="29.683552690364422" lon="-8.166241939549"><ele>804.6666666666667</ele><time>2026-04-15T12:06:04Z</time></trkpt><trkpt lat="29.68361198161493" lon="-8.166071127451795"><ele>804.0</ele><time>2026-04-15T12:06:05Z</time></trkpt><trkpt lat="29.683677697000977" lon="-8.165904222921872"><ele>803.6666666666667</ele><time>2026-04-15T12:06:06Z</time></trkpt><trkpt lat="29.68375177747722" lon="-8.165741739426243"><ele>803.3333333333334</ele><time>2026-04-15T12:06:07Z</time></trkpt><trkpt lat="29.68383236799492" lon="-8.165579619123978"><ele>803.0</ele><time>2026-04-15T12:06:08Z</time></trkpt><trkpt lat="29.68391632311739" lon="-8.165424426799863"><ele>803.0</ele><time>2026-04-15T12:06:09Z</time></trkpt><trkpt lat="29.684001393232418" lon="-8.165273283387732"><ele>803.0</ele><time>2026-04-15T12:06:10Z</time></trkpt><trkpt lat="29.68409476875748" lon="-8.165122763769482"><ele>803.0</ele><time>2026-04-15T12:06:11Z</time></trkpt><trkpt lat="29.684195208282034" lon="-8.164974258486534"><ele>803.0</ele><time>2026-04-15T12:06:12Z</time></trkpt><trkpt lat="29.684300618200208" lon="-8.164828767840394"><ele>803.0</ele><time>2026-04-15T12:06:13Z</time></trkpt><trkpt lat="29.684412298049654" lon="-8.164683255218085"><ele>803.0</ele><time>2026-04-15T12:06:14Z</time></trkpt><trkpt lat="29.684530402608477" lon="-8.164555642585537"><ele>803.3333333333334</ele><time>2026-04-15T12:06:15Z</time></trkpt><trkpt lat="29.684657843398348" lon="-8.16443183502829"><ele>803.6666666666667</ele><time>2026-04-15T12:06:16Z</time></trkpt><trkpt lat="29.68478911855404" lon="-8.164319164788328"><ele>804.0</ele><time>2026-04-15T12:06:17Z</time></trkpt><trkpt lat="29.684925500868193" lon="-8.164208611859664"><ele>804.0</ele><time>2026-04-15T12:06:18Z</time></trkpt><trkpt lat="29.685062912654086" lon="-8.164099155742303"><ele>804.0</ele><time>2026-04-15T12:06:19Z</time></trkpt><trkpt lat="29.6852031189618" lon="-8.16399328348142"><ele>804.0</ele><time>2026-04-15T12:06:20Z</time></trkpt><trkpt lat="29.68534791866861" lon="-8.16388808388482"><ele>805.6666666666667</ele><time>2026-04-15T12:06:21Z</time></trkpt><trkpt lat="29.685493254914874" lon="-8.163779551557205"><ele>807.3333333333334</ele><time>2026-04-15T12:06:22Z</time></trkpt><trkpt lat="29.68564246698868" lon="-8.163671317382462"><ele>809.0</ele><time>2026-04-15T12:06:23Z</time></trkpt><trkpt lat="29.685788699944933" lon="-8.1635627857288"><ele>809.0</ele><time>2026-04-15T12:06:24Z</time></trkpt><trkpt lat="29.685928673994894" lon="-8.163458792432166"><ele>809.0</ele><time>2026-04-15T12:06:25Z</time></trkpt><trkpt lat="29.686062208581387" lon="-8.163357644000815"><ele>809.0</ele><time>2026-04-15T12:06:26Z</time></trkpt><trkpt lat="29.686185963759183" lon="-8.163265897392094"><ele>810.0</ele><time>2026-04-15T12:06:27Z</time></trkpt><trkpt lat="29.68631174857641" lon="-8.163171651400713"><ele>811.0</ele><time>2026-04-15T12:06:28Z</time></trkpt><trkpt lat="29.686440966100946" lon="-8.16307838309228"><ele>812.0</ele><time>2026-04-15T12:06:29Z</time></trkpt><trkpt lat="29.68657234870296" lon="-8.162980062615352"><ele>812.0</ele><time>2026-04-15T12:06:30Z</time></trkpt><trkpt lat="29.68671021164338" lon="-8.162875677125346"><ele>812.0</ele><time>2026-04-15T12:06:31Z</time></trkpt><trkpt lat="29.686850054486545" lon="-8.162769687065328"><ele>812.0</ele><time>2026-04-15T12:06:32Z</time></trkpt><trkpt lat="29.686996393435443" lon="-8.162654808042033"><ele>813.0</ele><time>2026-04-15T12:06:33Z</time></trkpt><trkpt lat="29.68713844317125" lon="-8.162539771856482"><ele>814.0</ele><time>2026-04-15T12:06:34Z</time></trkpt><trkpt lat="29.68728169109315" lon="-8.162425715012718"><ele>815.0</ele><time>2026-04-15T12:06:35Z</time></trkpt><trkpt lat="29.68742885930052" lon="-8.162313436302654"><ele>814.0</ele><time>2026-04-15T12:06:36Z</time></trkpt><trkpt lat="29.68758089346096" lon="-8.162201779493804"><ele>813.0</ele><time>2026-04-15T12:06:37Z</time></trkpt><trkpt lat="29.687738152258323" lon="-8.162093034704904"><ele>812.0</ele><time>2026-04-15T12:06:38Z</time></trkpt><trkpt lat="29.687894178400853" lon="-8.161981710320992"><ele>812.0</ele><time>2026-04-15T12:06:39Z</time></trkpt><trkpt lat="29.68805292781881" lon="-8.161867103930712"><ele>812.0</ele><time>2026-04-15T12:06:40Z</time></trkpt><trkpt lat="29.688218795784522" lon="-8.161750526869014"><ele>812.0</ele><time>2026-04-15T12:06:41Z</time></trkpt><trkpt lat="29.688380419506498" lon="-8.161632425783313"><ele>812.0</ele><time>2026-04-15T12:06:42Z</time></trkpt><trkpt lat="29.688540970553348" lon="-8.16150518111601"><ele>812.0</ele><time>2026-04-15T12:06:43Z</time></trkpt><trkpt lat="29.688697485899013" lon="-8.161376132541331"><ele>812.0</ele><time>2026-04-15T12:06:44Z</time></trkpt><trkpt lat="29.688850815937926" lon="-8.161251662624077"><ele>812.0</ele><time>2026-04-15T12:06:45Z</time></trkpt><trkpt lat="29.68900179288561" lon="-8.16113644919378"><ele>812.0</ele><time>2026-04-15T12:06:46Z</time></trkpt><trkpt lat="29.689150490784915" lon="-8.161028013384117"><ele>812.0</ele><time>2026-04-15T12:06:47Z</time></trkpt><trkpt lat="29.689302336507282" lon="-8.160922133442426"><ele>812.6666666666667</ele><time>2026-04-15T12:06:48Z</time></trkpt><trkpt lat="29.689453077544734" lon="-8.16083353191047"><ele>813.3333333333333</ele><time>2026-04-15T12:06:49Z</time></trkpt><trkpt lat="29.689607944710993" lon="-8.16075844308602"><ele>814.0</ele><time>2026-04-15T12:06:50Z</time></trkpt><trkpt lat="29.6897656033597" lon="-8.160695169543388"><ele>814.0</ele><time>2026-04-15T12:06:51Z</time></trkpt><trkpt lat="29.689928901876737" lon="-8.160642587671724"><ele>814.0</ele><time>2026-04-15T12:06:52Z</time></trkpt><trkpt lat="29.69007926852925" lon="-8.160589789090505"><ele>814.0</ele><time>2026-04-15T12:06:53Z</time></trkpt><trkpt lat="29.6902296684564" lon="-8.160534285038864"><ele>815.0</ele><time>2026-04-15T12:06:54Z</time></trkpt><trkpt lat="29.690391390129385" lon="-8.16048696604718"><ele>816.0</ele><time>2026-04-15T12:06:55Z</time></trkpt><trkpt lat="29.69055954802045" lon="-8.160457522448285"><ele>817.0</ele><time>2026-04-15T12:06:56Z</time></trkpt><trkpt lat="29.690735289947707" lon="-8.160439456733473"><ele>817.0</ele><time>2026-04-15T12:06:57Z</time></trkpt><trkpt lat="29.690918830304557" lon="-8.1604324373407"><ele>817.0</ele><time>2026-04-15T12:06:58Z</time></trkpt><trkpt lat="29.69110260444206" lon="-8.160441280764802"><ele>817.0</ele><time>2026-04-15T12:06:59Z</time></trkpt><trkpt lat="29.691296772309606" lon="-8.16046213147238"><ele>819.3333333333333</ele><time>2026-04-15T12:07:00Z</time></trkpt><trkpt lat="29.691494219929442" lon="-8.16048926147338"><ele>821.6666666666667</ele><time>2026-04-15T12:07:01Z</time></trkpt><trkpt lat="29.691694399112283" lon="-8.16051562454878"><ele>824.0</ele><time>2026-04-15T12:07:02Z</time></trkpt><trkpt lat="29.691898797533625" lon="-8.160542291644893"><ele>825.6666666666667</ele><time>2026-04-15T12:07:03Z</time></trkpt><trkpt lat="29.692110139116362" lon="-8.160574646803704"><ele>827.3333333333333</ele><time>2026-04-15T12:07:04Z</time></trkpt><trkpt lat="29.69232160258393" lon="-8.160610618933653"><ele>829.0</ele><time>2026-04-15T12:07:05Z</time></trkpt><trkpt lat="29.692519317859897" lon="-8.16064636395778"><ele>829.0</ele><time>2026-04-15T12:07:06Z</time></trkpt><trkpt lat="29.692699829509852" lon="-8.160678093060284"><ele>829.0</ele><time>2026-04-15T12:07:07Z</time></trkpt><trkpt lat="29.692875603677958" lon="-8.160707882859224"><ele>829.0</ele><time>2026-04-15T12:07:08Z</time></trkpt><trkpt lat="29.693053807423617" lon="-8.160733565589926"><ele>827.0</ele><time>2026-04-15T12:07:09Z</time></trkpt><trkpt lat="29.693227188673358" lon="-8.160749853932312"><ele>825.0</ele><time>2026-04-15T12:07:10Z</time></trkpt><trkpt lat="29.693393644770534" lon="-8.160757417219214"><ele>823.0</ele><time>2026-04-15T12:07:11Z</time></trkpt><trkpt lat="29.693562438038985" lon="-8.160756889682013"><ele>823.3333333333333</ele><time>2026-04-15T12:07:12Z</time></trkpt><trkpt lat="29.693735759597292" lon="-8.160743999178829"><ele>823.6666666666667</ele><time>2026-04-15T12:07:13Z</time></trkpt><trkpt lat="29.693916365369425" lon="-8.16072619310781"><ele>824.0</ele><time>2026-04-15T12:07:14Z</time></trkpt><trkpt lat="29.69410205842137" lon="-8.160708780185605"><ele>827.0</ele><time>2026-04-15T12:07:15Z</time></trkpt><trkpt lat="29.694294423719096" lon="-8.160690493960116"><ele>830.0</ele><time>2026-04-15T12:07:16Z</time></trkpt><trkpt lat="29.694494312857042" lon="-8.160673331024675"><ele>833.0</ele><time>2026-04-15T12:07:17Z</time></trkpt><trkpt lat="29.694698157133235" lon="-8.160659736995076"><ele>833.3333333333334</ele><time>2026-04-15T12:07:18Z</time></trkpt><trkpt lat="29.69489139522508" lon="-8.160638769045594"><ele>833.6666666666667</ele><time>2026-04-15T12:07:19Z</time></trkpt><trkpt lat="29.695077229137365" lon="-8.160618869756023"><ele>834.0</ele><time>2026-04-15T12:07:20Z</time></trkpt><trkpt lat="29.695250998968316" lon="-8.160600780911532"><ele>833.6666666666667</ele><time>2026-04-15T12:07:21Z</time></trkpt><trkpt lat="29.695419054229372" lon="-8.160579368480036"><ele>833.3333333333334</ele><time>2026-04-15T12:07:22Z</time></trkpt><trkpt lat="29.695582271252018" lon="-8.160541462713363"><ele>833.0</ele><time>2026-04-15T12:07:23Z</time></trkpt><trkpt lat="29.695745506510786" lon="-8.160489339626004"><ele>833.0</ele><time>2026-04-15T12:07:24Z</time></trkpt><trkpt lat="29.695910948067038" lon="-8.160414012015195"><ele>833.0</ele><time>2026-04-15T12:07:25Z</time></trkpt><trkpt lat="29.696073381076282" lon="-8.160322193100845"><ele>833.0</ele><time>2026-04-15T12:07:26Z</time></trkpt><trkpt lat="29.69622829324842" lon="-8.16021855046493"><ele>833.6666666666667</ele><time>2026-04-15T12:07:27Z</time></trkpt><trkpt lat="29.69638338466474" lon="-8.16010425560704"><ele>834.3333333333333</ele><time>2026-04-15T12:07:28Z</time></trkpt><trkpt lat="29.696532697082016" lon="-8.15997773259864"><ele>835.0</ele><time>2026-04-15T12:07:29Z</time></trkpt><trkpt lat="29.69667598467936" lon="-8.159841364786717"><ele>835.0</ele><time>2026-04-15T12:07:30Z</time></trkpt><trkpt lat="29.696812682292386" lon="-8.159689483397292"><ele>835.0</ele><time>2026-04-15T12:07:31Z</time></trkpt><trkpt lat="29.69694849251817" lon="-8.159529585662023"><ele>835.0</ele><time>2026-04-15T12:07:32Z</time></trkpt><trkpt lat="29.697083095401617" lon="-8.159370623076809"><ele>837.6666666666666</ele><time>2026-04-15T12:07:33Z</time></trkpt><trkpt lat="29.697213168193908" lon="-8.159212566552352"><ele>840.3333333333333</ele><time>2026-04-15T12:07:34Z</time></trkpt><trkpt lat="29.69733983470938" lon="-8.15905976638991"><ele>843.0</ele><time>2026-04-15T12:07:35Z</time></trkpt><trkpt lat="29.697456388755153" lon="-8.158918872030698"><ele>844.0</ele><time>2026-04-15T12:07:36Z</time></trkpt><trkpt lat="29.697565241250224" lon="-8.158785652048397"><ele>845.0</ele><time>2026-04-15T12:07:37Z</time></trkpt><trkpt lat="29.69766987960797" lon="-8.158660207523754"><ele>846.0</ele><time>2026-04-15T12:07:38Z</time></trkpt><trkpt lat="29.697772402422146" lon="-8.158541139949037"><ele>844.75</ele><time>2026-04-15T12:07:39Z</time></trkpt><trkpt lat="29.697869826775023" lon="-8.158425731787595"><ele>843.5</ele><time>2026-04-15T12:07:40Z</time></trkpt><trkpt lat="29.697969132168517" lon="-8.158316865971361"><ele>842.25</ele><time>2026-04-15T12:07:41Z</time></trkpt><trkpt lat="29.698070070306976" lon="-8.158204401795988"><ele>841.0</ele><time>2026-04-15T12:07:42Z</time></trkpt><trkpt lat="29.698172657590064" lon="-8.158081260010807"><ele>841.0</ele><time>2026-04-15T12:07:43Z</time></trkpt><trkpt lat="29.69827682435169" lon="-8.157952140745522"><ele>841.0</ele><time>2026-04-15T12:07:44Z</time></trkpt><trkpt lat="29.698385580534286" lon="-8.157822379825973"><ele>841.0</ele><time>2026-04-15T12:07:45Z</time></trkpt><trkpt lat="29.698498093570844" lon="-8.157695464536364"><ele>835.3333333333333</ele><time>2026-04-15T12:07:46Z</time></trkpt><trkpt lat="29.698609215149492" lon="-8.157574229654854"><ele>829.6666666666667</ele><time>2026-04-15T12:07:47Z</time></trkpt><trkpt lat="29.698711033743816" lon="-8.1574516661471"><ele>824.0</ele><time>2026-04-15T12:07:48Z</time></trkpt><trkpt lat="29.69880912891626" lon="-8.157321442317047"><ele>824.0</ele><time>2026-04-15T12:07:49Z</time></trkpt><trkpt lat="29.698901424857784" lon="-8.157175328730155"><ele>824.0</ele><time>2026-04-15T12:07:50Z</time></trkpt><trkpt lat="29.69899223778615" lon="-8.157018429858741"><ele>824.0</ele><time>2026-04-15T12:07:51Z</time></trkpt><trkpt lat="29.69907397225786" lon="-8.15685054432371"><ele>824.0</ele><time>2026-04-15T12:07:52Z</time></trkpt><trkpt lat="29.699144668909277" lon="-8.156671773461625"><ele>824.0</ele><time>2026-04-15T12:07:53Z</time></trkpt><trkpt lat="29.699206788893118" lon="-8.156479991729118"><ele>824.0</ele><time>2026-04-15T12:07:54Z</time></trkpt><trkpt lat="29.699259651875355" lon="-8.15628298996557"><ele>825.3333333333334</ele><time>2026-04-15T12:07:55Z</time></trkpt><trkpt lat="29.699301206945837" lon="-8.156085646653706"><ele>826.6666666666667</ele><time>2026-04-15T12:07:56Z</time></trkpt><trkpt lat="29.699330354937675" lon="-8.155896085759878"><ele>828.0</ele><time>2026-04-15T12:07:57Z</time></trkpt><trkpt lat="29.699361620863154" lon="-8.155708357465517"><ele>829.6666666666667</ele><time>2026-04-15T12:07:58Z</time></trkpt><trkpt lat="29.699397077783917" lon="-8.155523300048202"><ele>831.3333333333334</ele><time>2026-04-15T12:07:59Z</time></trkpt><trkpt lat="29.69943688671476" lon="-8.155342629859758"><ele>833.0</ele><time>2026-04-15T12:08:00Z</time></trkpt><trkpt lat="29.699473204621782" lon="-8.155169740491043"><ele>823.0</ele><time>2026-04-15T12:08:01Z</time></trkpt><trkpt lat="29.699494116960846" lon="-8.154992231364393"><ele>813.0</ele><time>2026-04-15T12:08:02Z</time></trkpt><trkpt lat="29.699500686124058" lon="-8.15480686080251"><ele>803.0</ele><time>2026-04-15T12:08:03Z</time></trkpt><trkpt lat="29.699493860791485" lon="-8.154615599244265"><ele>803.0</ele><time>2026-04-15T12:08:04Z</time></trkpt><trkpt lat="29.69946867176101" lon="-8.154421231749575"><ele>803.0</ele><time>2026-04-15T12:08:05Z</time></trkpt><trkpt lat="29.699427690583477" lon="-8.15422831633993"><ele>803.0</ele><time>2026-04-15T12:08:06Z</time></trkpt><trkpt lat="29.69936919623679" lon="-8.154046016824854"><ele>803.3333333333334</ele><time>2026-04-15T12:08:07Z</time></trkpt><trkpt lat="29.69929654895957" lon="-8.153878532182697"><ele>803.6666666666667</ele><time>2026-04-15T12:08:08Z</time></trkpt><trkpt lat="29.699206368475483" lon="-8.1537283645979"><ele>804.0</ele><time>2026-04-15T12:08:09Z</time></trkpt><trkpt lat="29.699098570431364" lon="-8.153582229319973"><ele>804.0</ele><time>2026-04-15T12:08:10Z</time></trkpt><trkpt lat="29.698979562114573" lon="-8.153431984426616"><ele>804.0</ele><time>2026-04-15T12:08:11Z</time></trkpt><trkpt lat="29.698857890188535" lon="-8.153284783918997"><ele>804.0</ele><time>2026-04-15T12:08:12Z</time></trkpt><trkpt lat="29.698740106360084" lon="-8.153141876520209"><ele>802.6666666666667</ele><time>2026-04-15T12:08:13Z</time></trkpt><trkpt lat="29.69862676422394" lon="-8.153000699174706"><ele>801.3333333333334</ele><time>2026-04-15T12:08:14Z</time></trkpt><trkpt lat="29.698528275486293" lon="-8.152852659798793"><ele>800.0</ele><time>2026-04-15T12:08:15Z</time></trkpt><trkpt lat="29.698446292406246" lon="-8.152691256162848"><ele>799.6666666666667</ele><time>2026-04-15T12:08:16Z</time></trkpt><trkpt lat="29.698378441832126" lon="-8.152510204719551"><ele>799.3333333333333</ele><time>2026-04-15T12:08:17Z</time></trkpt><trkpt lat="29.698327620148753" lon="-8.152320028587777"><ele>799.0</ele><time>2026-04-15T12:08:18Z</time></trkpt><trkpt lat="29.69828420896671" lon="-8.152116673289155"><ele>799.0</ele><time>2026-04-15T12:08:19Z</time></trkpt><trkpt lat="29.698239924820054" lon="-8.151908652961087"><ele>799.0</ele><time>2026-04-15T12:08:20Z</time></trkpt><trkpt lat="29.698197477916246" lon="-8.151696959218963"><ele>799.0</ele><time>2026-04-15T12:08:21Z</time></trkpt><trkpt lat="29.698160776911344" lon="-8.151490833750692"><ele>796.6666666666666</ele><time>2026-04-15T12:08:22Z</time></trkpt><trkpt lat="29.6981270722828" lon="-8.151289728229452"><ele>794.3333333333333</ele><time>2026-04-15T12:08:23Z</time></trkpt><trkpt lat="29.69808921786651" lon="-8.151095965731988"><ele>792.0</ele><time>2026-04-15T12:08:24Z</time></trkpt><trkpt lat="29.698049776004154" lon="-8.15090581192988"><ele>792.0</ele><time>2026-04-15T12:08:25Z</time></trkpt><trkpt lat="29.698013316216016" lon="-8.150711361669714"><ele>792.0</ele><time>2026-04-15T12:08:26Z</time></trkpt><trkpt lat="29.697976101024707" lon="-8.150511353620784"><ele>792.0</ele><time>2026-04-15T12:08:27Z</time></trkpt><trkpt lat="29.69793534995458" lon="-8.150308695417081"><ele>790.6666666666667</ele><time>2026-04-15T12:08:28Z</time></trkpt><trkpt lat="29.697895373804506" lon="-8.150109270835307"><ele>789.3333333333334</ele><time>2026-04-15T12:08:29Z</time></trkpt><trkpt lat="29.697856268320525" lon="-8.14990536268976"><ele>788.0</ele><time>2026-04-15T12:08:30Z</time></trkpt><trkpt lat="29.697817666395704" lon="-8.149707207860972"><ele>788.0</ele><time>2026-04-15T12:08:31Z</time></trkpt><trkpt lat="29.69777816672449" lon="-8.149505868588921"><ele>788.0</ele><time>2026-04-15T12:08:32Z</time></trkpt><trkpt lat="29.69774138114596" lon="-8.149303085173774"><ele>788.0</ele><time>2026-04-15T12:08:33Z</time></trkpt><trkpt lat="29.697704128833422" lon="-8.149101759132627"><ele>786.3333333333334</ele><time>2026-04-15T12:08:34Z</time></trkpt><trkpt lat="29.697668427598945" lon="-8.148906792322903"><ele>784.6666666666667</ele><time>2026-04-15T12:08:35Z</time></trkpt><trkpt lat="29.697629784069015" lon="-8.148704399290947"><ele>783.0</ele><time>2026-04-15T12:08:36Z</time></trkpt><trkpt lat="29.697590801920093" lon="-8.148505203560031"><ele>783.0</ele><time>2026-04-15T12:08:37Z</time></trkpt><trkpt lat="29.697555096667582" lon="-8.148301430851317"><ele>783.0</ele><time>2026-04-15T12:08:38Z</time></trkpt><trkpt lat="29.697518973806798" lon="-8.148095093145123"><ele>783.0</ele><time>2026-04-15T12:08:39Z</time></trkpt><trkpt lat="29.69747934055189" lon="-8.147882127170865"><ele>782.6666666666667</ele><time>2026-04-15T12:08:40Z</time></trkpt><trkpt lat="29.697438361420335" lon="-8.147662111335874"><ele>782.3333333333334</ele><time>2026-04-15T12:08:41Z</time></trkpt><trkpt lat="29.697395397049114" lon="-8.147430572875464"><ele>782.0</ele><time>2026-04-15T12:08:42Z</time></trkpt><trkpt lat="29.69735205456834" lon="-8.147199592200966"><ele>782.0</ele><time>2026-04-15T12:08:43Z</time></trkpt><trkpt lat="29.697308240261037" lon="-8.14697163564877"><ele>782.0</ele><time>2026-04-15T12:08:44Z</time></trkpt><trkpt lat="29.697263817793548" lon="-8.146751907964916"><ele>782.0</ele><time>2026-04-15T12:08:45Z</time></trkpt><trkpt lat="29.697222772325205" lon="-8.146540837602087"><ele>783.0</ele><time>2026-04-15T12:08:46Z</time></trkpt><trkpt lat="29.69718634110065" lon="-8.14634061877892"><ele>784.0</ele><time>2026-04-15T12:08:47Z</time></trkpt><trkpt lat="29.697147373386333" lon="-8.146146645428857"><ele>785.0</ele><time>2026-04-15T12:08:48Z</time></trkpt><trkpt lat="29.69710652513754" lon="-8.145953768085969"><ele>785.0</ele><time>2026-04-15T12:08:49Z</time></trkpt><trkpt lat="29.69706713371016" lon="-8.145753832516997"><ele>785.0</ele><time>2026-04-15T12:08:50Z</time></trkpt><trkpt lat="29.697027253744693" lon="-8.145551820490448"><ele>785.0</ele><time>2026-04-15T12:08:51Z</time></trkpt><trkpt lat="29.69697628340989" lon="-8.145349323098538"><ele>784.6666666666667</ele><time>2026-04-15T12:08:52Z</time></trkpt><trkpt lat="29.696912677923343" lon="-8.145150276482502"><ele>784.3333333333333</ele><time>2026-04-15T12:08:53Z</time></trkpt><trkpt lat="29.696836683076512" lon="-8.144960864018868"><ele>784.0</ele><time>2026-04-15T12:08:54Z</time></trkpt><trkpt lat="29.696761408491614" lon="-8.144774115940196"><ele>784.0</ele><time>2026-04-15T12:08:55Z</time></trkpt><trkpt lat="29.696689877908074" lon="-8.144594576730345"><ele>784.0</ele><time>2026-04-15T12:08:56Z</time></trkpt><trkpt lat="29.696621389817732" lon="-8.144414851138057"><ele>784.0</ele><time>2026-04-15T12:08:57Z</time></trkpt><trkpt lat="29.696557836415767" lon="-8.14423530680942"><ele>784.0</ele><time>2026-04-15T12:08:58Z</time></trkpt><trkpt lat="29.696497668326458" lon="-8.144068140926414"><ele>784.0</ele><time>2026-04-15T12:08:59Z</time></trkpt><trkpt lat="29.69645057767041" lon="-8.143916524038483"><ele>784.0</ele><time>2026-04-15T12:09:00Z</time></trkpt><trkpt lat="29.696421624714766" lon="-8.143767083741656"><ele>784.0</ele><time>2026-04-15T12:09:01Z</time></trkpt><trkpt lat="29.696418620697383" lon="-8.143601053454535"><ele>782.0</ele><time>2026-04-15T12:09:02Z</time></trkpt><trkpt lat="29.69643940175878" lon="-8.143414924104707"><ele>780.0</ele><time>2026-04-15T12:09:03Z</time></trkpt><trkpt lat="29.69647425231844" lon="-8.143211546842045"><ele>778.0</ele><time>2026-04-15T12:09:04Z</time></trkpt><trkpt lat="29.696512174348594" lon="-8.143007035985551"><ele>775.0</ele><time>2026-04-15T12:09:05Z</time></trkpt><trkpt lat="29.696542518003973" lon="-8.142809387185217"><ele>772.0</ele><time>2026-04-15T12:09:06Z</time></trkpt><trkpt lat="29.6965688360074" lon="-8.14261101613528"><ele>769.0</ele><time>2026-04-15T12:09:07Z</time></trkpt><trkpt lat="29.696586803103546" lon="-8.142419053864765"><ele>770.6666666666666</ele><time>2026-04-15T12:09:08Z</time></trkpt><trkpt lat="29.696590836603935" lon="-8.142229379814786"><ele>772.3333333333333</ele><time>2026-04-15T12:09:09Z</time></trkpt><trkpt lat="29.696590052936056" lon="-8.142043759074312"><ele>774.0</ele><time>2026-04-15T12:09:10Z</time></trkpt><trkpt lat="29.696582244110637" lon="-8.141853974414511"><ele>774.0</ele><time>2026-04-15T12:09:11Z</time></trkpt><trkpt lat="29.696556626580964" lon="-8.141661688589744"><ele>774.0</ele><time>2026-04-15T12:09:12Z</time></trkpt><trkpt lat="29.696506280530123" lon="-8.141472081866565"><ele>774.0</ele><time>2026-04-15T12:09:13Z</time></trkpt><trkpt lat="29.696434328115714" lon="-8.141282236946832"><ele>779.0</ele><time>2026-04-15T12:09:14Z</time></trkpt><trkpt lat="29.69633907972922" lon="-8.141098939891485"><ele>784.0</ele><time>2026-04-15T12:09:15Z</time></trkpt><trkpt lat="29.696227915394715" lon="-8.140917637363895"><ele>789.0</ele><time>2026-04-15T12:09:16Z</time></trkpt><trkpt lat="29.696123043498783" lon="-8.140744125844384"><ele>782.0</ele><time>2026-04-15T12:09:17Z</time></trkpt><trkpt lat="29.696025907138914" lon="-8.14057424673852"><ele>775.0</ele><time>2026-04-15T12:09:18Z</time></trkpt><trkpt lat="29.695938755283265" lon="-8.14041068836057"><ele>768.0</ele><time>2026-04-15T12:09:19Z</time></trkpt><trkpt lat="29.695854113936875" lon="-8.140255592958608"><ele>768.0</ele><time>2026-04-15T12:09:20Z</time></trkpt><trkpt lat="29.695781966243047" lon="-8.140089347813221"><ele>768.0</ele><time>2026-04-15T12:09:21Z</time></trkpt><trkpt lat="29.69572206056164" lon="-8.139901487811471"><ele>768.0</ele><time>2026-04-15T12:09:22Z</time></trkpt><trkpt lat="29.695670877517777" lon="-8.139699793348413"><ele>768.0</ele><time>2026-04-15T12:09:23Z</time></trkpt><trkpt lat="29.69562885946626" lon="-8.139485419991521"><ele>768.0</ele><time>2026-04-15T12:09:24Z</time></trkpt><trkpt lat="29.695592967188027" lon="-8.139261246918084"><ele>768.0</ele><time>2026-04-15T12:09:25Z</time></trkpt><trkpt lat="29.69555270674582" lon="-8.139039986402775"><ele>767.0</ele><time>2026-04-15T12:09:26Z</time></trkpt><trkpt lat="29.695509899686105" lon="-8.138820137366688"><ele>766.0</ele><time>2026-04-15T12:09:27Z</time></trkpt><trkpt lat="29.69546764080495" lon="-8.138606636886786"><ele>765.0</ele><time>2026-04-15T12:09:28Z</time></trkpt><trkpt lat="29.695424614916874" lon="-8.138401877831495"><ele>764.3333333333334</ele><time>2026-04-15T12:09:29Z</time></trkpt><trkpt lat="29.695385357763982" lon="-8.138200960571705"><ele>763.6666666666667</ele><time>2026-04-15T12:09:30Z</time></trkpt><trkpt lat="29.695351330821616" lon="-8.138011143944155"><ele>763.0</ele><time>2026-04-15T12:09:31Z</time></trkpt><trkpt lat="29.69531562876937" lon="-8.137822762956038"><ele>763.0</ele><time>2026-04-15T12:09:32Z</time></trkpt><trkpt lat="29.69529217010842" lon="-8.137626549327653"><ele>763.0</ele><time>2026-04-15T12:09:33Z</time></trkpt><trkpt lat="29.69528126309464" lon="-8.137422264198788"><ele>763.0</ele><time>2026-04-15T12:09:34Z</time></trkpt><trkpt lat="29.69528441402702" lon="-8.137213868282263"><ele>762.0</ele><time>2026-04-15T12:09:35Z</time></trkpt><trkpt lat="29.69531118247043" lon="-8.137005964407306"><ele>761.0</ele><time>2026-04-15T12:09:36Z</time></trkpt><trkpt lat="29.695359000810978" lon="-8.136804374120768"><ele>760.0</ele><time>2026-04-15T12:09:37Z</time></trkpt><trkpt lat="29.6954231819077" lon="-8.136603645089997"><ele>758.6666666666667</ele><time>2026-04-15T12:09:38Z</time></trkpt><trkpt lat="29.695507642437324" lon="-8.13641063649976"><ele>757.3333333333334</ele><time>2026-04-15T12:09:39Z</time></trkpt><trkpt lat="29.695604130151633" lon="-8.136219284072517"><ele>756.0</ele><time>2026-04-15T12:09:40Z</time></trkpt><trkpt lat="29.69571156197686" lon="-8.136034770738615"><ele>756.0</ele><time>2026-04-15T12:09:41Z</time></trkpt><trkpt lat="29.695823902303722" lon="-8.135855089632397"><ele>756.0</ele><time>2026-04-15T12:09:42Z</time></trkpt><trkpt lat="29.695939599532576" lon="-8.135686592309249"><ele>756.0</ele><time>2026-04-15T12:09:43Z</time></trkpt><trkpt lat="29.6960504749574" lon="-8.135517506307764"><ele>756.3333333333334</ele><time>2026-04-15T12:09:44Z</time></trkpt><trkpt lat="29.69615851761669" lon="-8.135343129524957"><ele>756.6666666666667</ele><time>2026-04-15T12:09:45Z</time></trkpt><trkpt lat="29.696268887945994" lon="-8.135169353011129"><ele>757.0</ele><time>2026-04-15T12:09:46Z</time></trkpt><trkpt lat="29.696383086117567" lon="-8.134996150744854"><ele>755.6666666666667</ele><time>2026-04-15T12:09:47Z</time></trkpt><trkpt lat="29.696497036531674" lon="-8.134821704722743"><ele>754.3333333333334</ele><time>2026-04-15T12:09:48Z</time></trkpt><trkpt lat="29.696607042268056" lon="-8.13464688324079"><ele>753.0</ele><time>2026-04-15T12:09:49Z</time></trkpt><trkpt lat="29.696718170533234" lon="-8.13446472150233"><ele>753.0</ele><time>2026-04-15T12:09:50Z</time></trkpt><trkpt lat="29.696831888816476" lon="-8.134278789936713"><ele>753.0</ele><time>2026-04-15T12:09:51Z</time></trkpt><trkpt lat="29.696943916881057" lon="-8.13409705950908"><ele>753.0</ele><time>2026-04-15T12:09:52Z</time></trkpt><trkpt lat="29.697055196379214" lon="-8.133916084145438"><ele>752.3333333333334</ele><time>2026-04-15T12:09:53Z</time></trkpt><trkpt lat="29.697168932140446" lon="-8.133732359478115"><ele>751.6666666666667</ele><time>2026-04-15T12:09:54Z</time></trkpt><trkpt lat="29.697283199013825" lon="-8.13354834028749"><ele>751.0</ele><time>2026-04-15T12:09:55Z</time></trkpt><trkpt lat="29.69739104562309" lon="-8.133362049308646"><ele>750.0</ele><time>2026-04-15T12:09:56Z</time></trkpt><trkpt lat="29.697487368791222" lon="-8.133180407476765"><ele>749.0</ele><time>2026-04-15T12:09:57Z</time></trkpt><trkpt lat="29.69758110726605" lon="-8.133002703046984"><ele>748.0</ele><time>2026-04-15T12:09:58Z</time></trkpt><trkpt lat="29.697672593394444" lon="-8.132827080184866"><ele>748.0</ele><time>2026-04-15T12:09:59Z</time></trkpt><trkpt lat="29.69776600437783" lon="-8.132650961559515"><ele>748.0</ele><time>2026-04-15T12:10:00Z</time></trkpt><trkpt lat="29.697857802679163" lon="-8.132477568762152"><ele>748.0</ele><time>2026-04-15T12:10:01Z</time></trkpt><trkpt lat="29.69794885705921" lon="-8.132307161156099"><ele>748.0</ele><time>2026-04-15T12:10:02Z</time></trkpt><trkpt lat="29.69804313383739" lon="-8.132133647650809"><ele>748.0</ele><time>2026-04-15T12:10:03Z</time></trkpt><trkpt lat="29.698138606460574" lon="-8.131958331489702"><ele>748.0</ele><time>2026-04-15T12:10:04Z</time></trkpt><trkpt lat="29.698236653449566" lon="-8.131775565850804"><ele>748.0</ele><time>2026-04-15T12:10:05Z</time></trkpt><trkpt lat="29.698337443423956" lon="-8.131585632302311"><ele>748.0</ele><time>2026-04-15T12:10:06Z</time></trkpt><trkpt lat="29.698439017070115" lon="-8.131391329442154"><ele>748.0</ele><time>2026-04-15T12:10:07Z</time></trkpt><trkpt lat="29.698539855136268" lon="-8.131197871358522"><ele>747.0</ele><time>2026-04-15T12:10:08Z</time></trkpt><trkpt lat="29.69864499550762" lon="-8.131005415987117"><ele>746.0</ele><time>2026-04-15T12:10:09Z</time></trkpt><trkpt lat="29.69875097631005" lon="-8.13080893327517"><ele>745.0</ele><time>2026-04-15T12:10:10Z</time></trkpt><trkpt lat="29.698854437455815" lon="-8.13061762233086"><ele>744.6666666666667</ele><time>2026-04-15T12:10:11Z</time></trkpt><trkpt lat="29.698961127496663" lon="-8.130425260392844"><ele>744.3333333333334</ele><time>2026-04-15T12:10:12Z</time></trkpt><trkpt lat="29.699067604850033" lon="-8.130232546646145"><ele>744.0</ele><time>2026-04-15T12:10:13Z</time></trkpt><trkpt lat="29.699173942777318" lon="-8.130035466081367"><ele>743.6666666666666</ele><time>2026-04-15T12:10:14Z</time></trkpt><trkpt lat="29.699275567349417" lon="-8.129835575788112"><ele>743.3333333333333</ele><time>2026-04-15T12:10:15Z</time></trkpt><trkpt lat="29.699377812684908" lon="-8.129635993429304"><ele>743.0</ele><time>2026-04-15T12:10:16Z</time></trkpt><trkpt lat="29.69948351054856" lon="-8.129438034827439"><ele>743.0</ele><time>2026-04-15T12:10:17Z</time></trkpt><trkpt lat="29.699586608595776" lon="-8.129246906080413"><ele>743.0</ele><time>2026-04-15T12:10:18Z</time></trkpt><trkpt lat="29.699688805899278" lon="-8.12905735388531"><ele>743.0</ele><time>2026-04-15T12:10:19Z</time></trkpt><trkpt lat="29.699794595970086" lon="-8.128863256421905"><ele>742.0</ele><time>2026-04-15T12:10:20Z</time></trkpt><trkpt lat="29.699901269987937" lon="-8.128667999119214"><ele>741.0</ele><time>2026-04-15T12:10:21Z</time></trkpt><trkpt lat="29.700007268343857" lon="-8.128473720096482"><ele>740.0</ele><time>2026-04-15T12:10:22Z</time></trkpt><trkpt lat="29.700113042008663" lon="-8.128280172721524"><ele>740.6666666666666</ele><time>2026-04-15T12:10:23Z</time></trkpt><trkpt lat="29.70021715497237" lon="-8.128083524698352"><ele>741.3333333333334</ele><time>2026-04-15T12:10:24Z</time></trkpt><trkpt lat="29.700318895899485" lon="-8.12788789976045"><ele>742.0</ele><time>2026-04-15T12:10:25Z</time></trkpt><trkpt lat="29.700420076937977" lon="-8.127695429863977"><ele>742.0</ele><time>2026-04-15T12:10:26Z</time></trkpt><trkpt lat="29.700519989631562" lon="-8.127508031370516"><ele>742.0</ele><time>2026-04-15T12:10:27Z</time></trkpt><trkpt lat="29.700617513294752" lon="-8.127324565380876"><ele>742.0</ele><time>2026-04-15T12:10:28Z</time></trkpt><trkpt lat="29.700706140958356" lon="-8.12713746789503"><ele>741.3333333333334</ele><time>2026-04-15T12:10:29Z</time></trkpt><trkpt lat="29.700785850269824" lon="-8.126944916302655"><ele>740.6666666666666</ele><time>2026-04-15T12:10:30Z</time></trkpt><trkpt lat="29.700860322468813" lon="-8.126749587639665"><ele>740.0</ele><time>2026-04-15T12:10:31Z</time></trkpt><trkpt lat="29.7009215867286" lon="-8.126545332713103"><ele>739.0</ele><time>2026-04-15T12:10:32Z</time></trkpt><trkpt lat="29.700972864013345" lon="-8.126335357181611"><ele>738.0</ele><time>2026-04-15T12:10:33Z</time></trkpt><trkpt lat="29.70101636182747" lon="-8.126126466646861"><ele>737.0</ele><time>2026-04-15T12:10:34Z</time></trkpt><trkpt lat="29.701062566878935" lon="-8.12591922550578"><ele>736.6666666666666</ele><time>2026-04-15T12:10:35Z</time></trkpt><trkpt lat="29.70110886645215" lon="-8.125709358128255"><ele>736.3333333333334</ele><time>2026-04-15T12:10:36Z</time></trkpt><trkpt lat="29.701156271440986" lon="-8.125497066404401"><ele>736.0</ele><time>2026-04-15T12:10:37Z</time></trkpt><trkpt lat="29.701202873887077" lon="-8.125282356880371"><ele>736.0</ele><time>2026-04-15T12:10:38Z</time></trkpt><trkpt lat="29.701248300934466" lon="-8.125065923841873"><ele>736.0</ele><time>2026-04-15T12:10:39Z</time></trkpt><trkpt lat="29.70129568994478" lon="-8.124857526170928"><ele>736.0</ele><time>2026-04-15T12:10:40Z</time></trkpt><trkpt lat="29.701341116147912" lon="-8.12466306421591"><ele>735.6666666666667</ele><time>2026-04-15T12:10:41Z</time></trkpt><trkpt lat="29.70138339120866" lon="-8.124474779401185"><ele>735.3333333333334</ele><time>2026-04-15T12:10:42Z</time></trkpt><trkpt lat="29.701424103959443" lon="-8.124300414647728"><ele>735.0</ele><time>2026-04-15T12:10:43Z</time></trkpt><trkpt lat="29.701463609234963" lon="-8.12413097275153"><ele>735.25</ele><time>2026-04-15T12:10:44Z</time></trkpt><trkpt lat="29.701504916993063" lon="-8.1239743379097"><ele>735.5</ele><time>2026-04-15T12:10:45Z</time></trkpt><trkpt lat="29.70154212560174" lon="-8.123821018486105"><ele>735.75</ele><time>2026-04-15T12:10:46Z</time></trkpt><trkpt lat="29.701576282819637" lon="-8.123666487076607"><ele>736.0</ele><time>2026-04-15T12:10:47Z</time></trkpt><trkpt lat="29.701607964535608" lon="-8.123508566312893"><ele>736.0</ele><time>2026-04-15T12:10:48Z</time></trkpt><trkpt lat="29.701642431345427" lon="-8.123349435232084"><ele>736.0</ele><time>2026-04-15T12:10:49Z</time></trkpt><trkpt lat="29.701678873012412" lon="-8.12318194541754"><ele>736.0</ele><time>2026-04-15T12:10:50Z</time></trkpt><trkpt lat="29.70171876042129" lon="-8.123011944214474"><ele>736.0</ele><time>2026-04-15T12:10:51Z</time></trkpt><trkpt lat="29.701758210970667" lon="-8.122835123540877"><ele>736.0</ele><time>2026-04-15T12:10:52Z</time></trkpt><trkpt lat="29.7017983356831" lon="-8.122657847333919"><ele>736.0</ele><time>2026-04-15T12:10:53Z</time></trkpt><trkpt lat="29.70183562410295" lon="-8.122474941846873"><ele>736.0</ele><time>2026-04-15T12:10:54Z</time></trkpt><trkpt lat="29.701868359513323" lon="-8.122284830889773"><ele>735.0</ele><time>2026-04-15T12:10:55Z</time></trkpt><trkpt lat="29.7018912453304" lon="-8.122089016818075"><ele>734.0</ele><time>2026-04-15T12:10:56Z</time></trkpt><trkpt lat="29.701902151461944" lon="-8.121881974691338"><ele>733.0</ele><time>2026-04-15T12:10:57Z</time></trkpt><trkpt lat="29.701907933594075" lon="-8.121666343265865"><ele>732.6666666666667</ele><time>2026-04-15T12:10:58Z</time></trkpt><trkpt lat="29.70190524691046" lon="-8.121446587973097"><ele>732.3333333333334</ele><time>2026-04-15T12:10:59Z</time></trkpt><trkpt lat="29.701892574491918" lon="-8.121221575464775"><ele>732.0</ele><time>2026-04-15T12:11:00Z</time></trkpt><trkpt lat="29.70187305769087" lon="-8.121005965212545"><ele>732.0</ele><time>2026-04-15T12:11:01Z</time></trkpt><trkpt lat="29.701839955074767" lon="-8.120792879302327"><ele>732.0</ele><time>2026-04-15T12:11:02Z</time></trkpt><trkpt lat="29.701797722305372" lon="-8.120583567166408"><ele>732.0</ele><time>2026-04-15T12:11:03Z</time></trkpt><trkpt lat="29.7017502102802" lon="-8.120376128838489"><ele>731.0</ele><time>2026-04-15T12:11:04Z</time></trkpt><trkpt lat="29.701700491370357" lon="-8.120165186636402"><ele>730.0</ele><time>2026-04-15T12:11:05Z</time></trkpt><trkpt lat="29.701650796576402" lon="-8.11994739039718"><ele>729.0</ele><time>2026-04-15T12:11:06Z</time></trkpt><trkpt lat="29.701599936951535" lon="-8.119730028008444"><ele>728.3333333333334</ele><time>2026-04-15T12:11:07Z</time></trkpt><trkpt lat="29.701547654480027" lon="-8.11951044200574"><ele>727.6666666666667</ele><time>2026-04-15T12:11:08Z</time></trkpt><trkpt lat="29.701500601751118" lon="-8.119296824081053"><ele>727.0</ele><time>2026-04-15T12:11:09Z</time></trkpt><trkpt lat="29.70145630515237" lon="-8.119088643788075"><ele>726.6666666666667</ele><time>2026-04-15T12:11:10Z</time></trkpt><trkpt lat="29.70141136233768" lon="-8.118880297430795"><ele>726.3333333333334</ele><time>2026-04-15T12:11:11Z</time></trkpt><trkpt lat="29.701367346941552" lon="-8.118670285984063"><ele>726.0</ele><time>2026-04-15T12:11:12Z</time></trkpt><trkpt lat="29.701324917783" lon="-8.118463693445372"><ele>726.0</ele><time>2026-04-15T12:11:13Z</time></trkpt><trkpt lat="29.70128066173485" lon="-8.118256251777135"><ele>726.0</ele><time>2026-04-15T12:11:14Z</time></trkpt><trkpt lat="29.701236829686724" lon="-8.118050986245652"><ele>726.0</ele><time>2026-04-15T12:11:15Z</time></trkpt><trkpt lat="29.70118907586091" lon="-8.117847077648655"><ele>725.3333333333334</ele><time>2026-04-15T12:11:16Z</time></trkpt><trkpt lat="29.701143051888263" lon="-8.117644477529804"><ele>724.6666666666667</ele><time>2026-04-15T12:11:17Z</time></trkpt><trkpt lat="29.70110011771816" lon="-8.117441801550294"><ele>724.0</ele><time>2026-04-15T12:11:18Z</time></trkpt><trkpt lat="29.701054514772906" lon="-8.11724047014211"><ele>723.0</ele><time>2026-04-15T12:11:19Z</time></trkpt><trkpt lat="29.701011020438504" lon="-8.117042997598022"><ele>722.0</ele><time>2026-04-15T12:11:20Z</time></trkpt><trkpt lat="29.700975744889455" lon="-8.116850313668666"><ele>721.0</ele><time>2026-04-15T12:11:21Z</time></trkpt><trkpt lat="29.700949327700197" lon="-8.116653682709819"><ele>720.6666666666667</ele><time>2026-04-15T12:11:22Z</time></trkpt><trkpt lat="29.700933216963037" lon="-8.116450476445557"><ele>720.3333333333334</ele><time>2026-04-15T12:11:23Z</time></trkpt><trkpt lat="29.700928736817765" lon="-8.11624443925242"><ele>720.0</ele><time>2026-04-15T12:11:24Z</time></trkpt><trkpt lat="29.700934087526875" lon="-8.116030519908955"><ele>720.0</ele><time>2026-04-15T12:11:25Z</time></trkpt><trkpt lat="29.700944719750265" lon="-8.115812406463032"><ele>720.0</ele><time>2026-04-15T12:11:26Z</time></trkpt><trkpt lat="29.7009614905478" lon="-8.115588839838937"><ele>720.0</ele><time>2026-04-15T12:11:27Z</time></trkpt><trkpt lat="29.70097553523998" lon="-8.115364032595583"><ele>720.3333333333334</ele><time>2026-04-15T12:11:28Z</time></trkpt><trkpt lat="29.700989527447536" lon="-8.115140811633252"><ele>720.6666666666667</ele><time>2026-04-15T12:11:29Z</time></trkpt><trkpt lat="29.701002546126915" lon="-8.114918924663817"><ele>721.0</ele><time>2026-04-15T12:11:30Z</time></trkpt><trkpt lat="29.701015762915997" lon="-8.114700476257502"><ele>720.3333333333334</ele><time>2026-04-15T12:11:31Z</time></trkpt><trkpt lat="29.70102753953743" lon="-8.114481564389667"><ele>719.6666666666666</ele><time>2026-04-15T12:11:32Z</time></trkpt><trkpt lat="29.701039024317996" lon="-8.114266953294596"><ele>719.0</ele><time>2026-04-15T12:11:33Z</time></trkpt><trkpt lat="29.701049873561484" lon="-8.114054723269346"><ele>718.0</ele><time>2026-04-15T12:11:34Z</time></trkpt><trkpt lat="29.70106119945686" lon="-8.113841724448827"><ele>717.0</ele><time>2026-04-15T12:11:35Z</time></trkpt><trkpt lat="29.701072551362348" lon="-8.113631277820737"><ele>716.0</ele><time>2026-04-15T12:11:36Z</time></trkpt><trkpt lat="29.701083805688608" lon="-8.113418953830521"><ele>716.6666666666666</ele><time>2026-04-15T12:11:37Z</time></trkpt><trkpt lat="29.70109430518744" lon="-8.113202307028294"><ele>717.3333333333334</ele><time>2026-04-15T12:11:38Z</time></trkpt><trkpt lat="29.701107265684726" lon="-8.112983554206961"><ele>718.0</ele><time>2026-04-15T12:11:39Z</time></trkpt><trkpt lat="29.701119975988007" lon="-8.112759831632495"><ele>718.0</ele><time>2026-04-15T12:11:40Z</time></trkpt><trkpt lat="29.7011344035248" lon="-8.11253602520524"><ele>718.0</ele><time>2026-04-15T12:11:41Z</time></trkpt><trkpt lat="29.701146066463956" lon="-8.11230927487272"><ele>718.0</ele><time>2026-04-15T12:11:42Z</time></trkpt><trkpt lat="29.701158263663576" lon="-8.112084471134436"><ele>717.6666666666667</ele><time>2026-04-15T12:11:43Z</time></trkpt><trkpt lat="29.70117141496669" lon="-8.111854903635024"><ele>717.3333333333334</ele><time>2026-04-15T12:11:44Z</time></trkpt><trkpt lat="29.70118640918407" lon="-8.111626123879374"><ele>717.0</ele><time>2026-04-15T12:11:45Z</time></trkpt><trkpt lat="29.701201796517747" lon="-8.11139467821547"><ele>716.6666666666666</ele><time>2026-04-15T12:11:46Z</time></trkpt><trkpt lat="29.70121467899818" lon="-8.111163005124096"><ele>716.3333333333333</ele><time>2026-04-15T12:11:47Z</time></trkpt><trkpt lat="29.7012269915063" lon="-8.110930392290541"><ele>716.0</ele><time>2026-04-15T12:11:48Z</time></trkpt><trkpt lat="29.701240403786297" lon="-8.110701845909837"><ele>715.3333333333333</ele><time>2026-04-15T12:11:49Z</time></trkpt><trkpt lat="29.701252359028306" lon="-8.11047360021622"><ele>714.6666666666666</ele><time>2026-04-15T12:11:50Z</time></trkpt><trkpt lat="29.701264220596283" lon="-8.110245669738768"><ele>714.0</ele><time>2026-04-15T12:11:51Z</time></trkpt><trkpt lat="29.701276020039476" lon="-8.110019802273857"><ele>714.0</ele><time>2026-04-15T12:11:52Z</time></trkpt><trkpt lat="29.7012876426201" lon="-8.109796028086906"><ele>714.0</ele><time>2026-04-15T12:11:53Z</time></trkpt><trkpt lat="29.70130049025148" lon="-8.109577079980905"><ele>714.0</ele><time>2026-04-15T12:11:54Z</time></trkpt><trkpt lat="29.701316339108715" lon="-8.109357136807274"><ele>714.0</ele><time>2026-04-15T12:11:55Z</time></trkpt><trkpt lat="29.7013258632831" lon="-8.10914239333276"><ele>714.0</ele><time>2026-04-15T12:11:56Z</time></trkpt><trkpt lat="29.70133718711443" lon="-8.108929189887867"><ele>714.0</ele><time>2026-04-15T12:11:57Z</time></trkpt><trkpt lat="29.70135394787326" lon="-8.108712157836733"><ele>713.3333333333334</ele><time>2026-04-15T12:11:58Z</time></trkpt><trkpt lat="29.701367702691233" lon="-8.108494677760659"><ele>712.6666666666667</ele><time>2026-04-15T12:11:59Z</time></trkpt><trkpt lat="29.701378455352298" lon="-8.108279621193999"><ele>712.0</ele><time>2026-04-15T12:12:00Z</time></trkpt><trkpt lat="29.70138949179657" lon="-8.108060467937593"><ele>712.0</ele><time>2026-04-15T12:12:01Z</time></trkpt><trkpt lat="29.70140290579918" lon="-8.107835470677351"><ele>712.0</ele><time>2026-04-15T12:12:02Z</time></trkpt><trkpt lat="29.701416398067657" lon="-8.107608885867943"><ele>712.0</ele><time>2026-04-15T12:12:03Z</time></trkpt><trkpt lat="29.701428905042675" lon="-8.107373994335223"><ele>712.0</ele><time>2026-04-15T12:12:04Z</time></trkpt><trkpt lat="29.701441002710087" lon="-8.107133694215937"><ele>712.0</ele><time>2026-04-15T12:12:05Z</time></trkpt><trkpt lat="29.70145395599043" lon="-8.106895472003936"><ele>712.0</ele><time>2026-04-15T12:12:06Z</time></trkpt><trkpt lat="29.701469366014486" lon="-8.106655810497232"><ele>711.6666666666667</ele><time>2026-04-15T12:12:07Z</time></trkpt><trkpt lat="29.701484509474486" lon="-8.106414006467512"><ele>711.3333333333334</ele><time>2026-04-15T12:12:08Z</time></trkpt><trkpt lat="29.70149594412012" lon="-8.106164160380303"><ele>711.0</ele><time>2026-04-15T12:12:09Z</time></trkpt><trkpt lat="29.701509294528204" lon="-8.105914299107997"><ele>709.6666666666666</ele><time>2026-04-15T12:12:10Z</time></trkpt><trkpt lat="29.70152479670895" lon="-8.105670934722458"><ele>708.3333333333333</ele><time>2026-04-15T12:12:11Z</time></trkpt><trkpt lat="29.701542486499083" lon="-8.105432822518802"><ele>707.0</ele><time>2026-04-15T12:12:12Z</time></trkpt><trkpt lat="29.701563990896723" lon="-8.10519452388481"><ele>707.0</ele><time>2026-04-15T12:12:13Z</time></trkpt><trkpt lat="29.701589038290997" lon="-8.104946014269386"><ele>707.0</ele><time>2026-04-15T12:12:14Z</time></trkpt><trkpt lat="29.701618883779375" lon="-8.104697404380513"><ele>707.0</ele><time>2026-04-15T12:12:15Z</time></trkpt><trkpt lat="29.70165303194644" lon="-8.104457251645506"><ele>706.3333333333333</ele><time>2026-04-15T12:12:16Z</time></trkpt><trkpt lat="29.701695257998754" lon="-8.104221878743964"><ele>705.6666666666666</ele><time>2026-04-15T12:12:17Z</time></trkpt><trkpt lat="29.701740460524867" lon="-8.103991158856251"><ele>705.0</ele><time>2026-04-15T12:12:18Z</time></trkpt><trkpt lat="29.701791771111424" lon="-8.103754234579897"><ele>705.0</ele><time>2026-04-15T12:12:19Z</time></trkpt><trkpt lat="29.701847085599347" lon="-8.103509315201638"><ele>705.0</ele><time>2026-04-15T12:12:20Z</time></trkpt><trkpt lat="29.701899684377693" lon="-8.103261089777833"><ele>705.0</ele><time>2026-04-15T12:12:21Z</time></trkpt><trkpt lat="29.701951396103382" lon="-8.103019417418793"><ele>708.0</ele><time>2026-04-15T12:12:22Z</time></trkpt><trkpt lat="29.702002216345733" lon="-8.102783857969026"><ele>711.0</ele><time>2026-04-15T12:12:23Z</time></trkpt><trkpt lat="29.702052243819836" lon="-8.102549705852656"><ele>714.0</ele><time>2026-04-15T12:12:24Z</time></trkpt><trkpt lat="29.702100942169224" lon="-8.102324319470569"><ele>714.0</ele><time>2026-04-15T12:12:25Z</time></trkpt><trkpt lat="29.702148956824175" lon="-8.102099885336456"><ele>714.0</ele><time>2026-04-15T12:12:26Z</time></trkpt><trkpt lat="29.70219754491571" lon="-8.10187752530841"><ele>714.0</ele><time>2026-04-15T12:12:27Z</time></trkpt><trkpt lat="29.70224578052702" lon="-8.10165552503025"><ele>712.0</ele><time>2026-04-15T12:12:28Z</time></trkpt><trkpt lat="29.70229324155943" lon="-8.101430502149103"><ele>710.0</ele><time>2026-04-15T12:12:29Z</time></trkpt><trkpt lat="29.702341864648094" lon="-8.101204400694169"><ele>708.0</ele><time>2026-04-15T12:12:30Z</time></trkpt><trkpt lat="29.702391694958518" lon="-8.1009797163797"><ele>708.0</ele><time>2026-04-15T12:12:31Z</time></trkpt><trkpt lat="29.70244092173805" lon="-8.100754554748937"><ele>708.0</ele><time>2026-04-15T12:12:32Z</time></trkpt><trkpt lat="29.70248912179275" lon="-8.100531998822285"><ele>708.0</ele><time>2026-04-15T12:12:33Z</time></trkpt><trkpt lat="29.702539510767124" lon="-8.100306760194277"><ele>706.6666666666666</ele><time>2026-04-15T12:12:34Z</time></trkpt><trkpt lat="29.702592139929155" lon="-8.100088495220106"><ele>705.3333333333333</ele><time>2026-04-15T12:12:35Z</time></trkpt><trkpt lat="29.702640683304576" lon="-8.099875904617475"><ele>704.0</ele><time>2026-04-15T12:12:36Z</time></trkpt><trkpt lat="29.702686136735913" lon="-8.09966682074131"><ele>703.6666666666666</ele><time>2026-04-15T12:12:37Z</time></trkpt><trkpt lat="29.702731400116797" lon="-8.099455752515409"><ele>703.3333333333334</ele><time>2026-04-15T12:12:38Z</time></trkpt><trkpt lat="29.702776141213576" lon="-8.099244092902504"><ele>703.0</ele><time>2026-04-15T12:12:39Z</time></trkpt><trkpt lat="29.702819176802347" lon="-8.099031720494326"><ele>704.0</ele><time>2026-04-15T12:12:40Z</time></trkpt><trkpt lat="29.702864920347547" lon="-8.098817379388333"><ele>705.0</ele><time>2026-04-15T12:12:41Z</time></trkpt><trkpt lat="29.70291259112595" lon="-8.098603332182957"><ele>706.0</ele><time>2026-04-15T12:12:42Z</time></trkpt><trkpt lat="29.702961376154427" lon="-8.098390009028478"><ele>705.6666666666667</ele><time>2026-04-15T12:12:43Z</time></trkpt><trkpt lat="29.703012792870407" lon="-8.098177456193808"><ele>705.3333333333334</ele><time>2026-04-15T12:12:44Z</time></trkpt><trkpt lat="29.70306146386412" lon="-8.097966410137168"><ele>705.0</ele><time>2026-04-15T12:12:45Z</time></trkpt><trkpt lat="29.703105894225637" lon="-8.09775222169808"><ele>705.0</ele><time>2026-04-15T12:12:46Z</time></trkpt><trkpt lat="29.703150898231407" lon="-8.097539140603091"><ele>705.0</ele><time>2026-04-15T12:12:47Z</time></trkpt><trkpt lat="29.703197289521356" lon="-8.097323966550357"><ele>705.0</ele><time>2026-04-15T12:12:48Z</time></trkpt><trkpt lat="29.703246260041222" lon="-8.097106550271265"><ele>704.6666666666666</ele><time>2026-04-15T12:12:49Z</time></trkpt><trkpt lat="29.703295060783955" lon="-8.09688940801731"><ele>704.3333333333333</ele><time>2026-04-15T12:12:50Z</time></trkpt><trkpt lat="29.703340042442743" lon="-8.096672792420295"><ele>704.0</ele><time>2026-04-15T12:12:51Z</time></trkpt><trkpt lat="29.703383664869285" lon="-8.09646107363848"><ele>703.6666666666666</ele><time>2026-04-15T12:12:52Z</time></trkpt><trkpt lat="29.703427793744506" lon="-8.096252912786158"><ele>703.3333333333334</ele><time>2026-04-15T12:12:53Z</time></trkpt><trkpt lat="29.70347076581052" lon="-8.096049968722788"><ele>703.0</ele><time>2026-04-15T12:12:54Z</time></trkpt><trkpt lat="29.703513609232317" lon="-8.095850105029559"><ele>702.0</ele><time>2026-04-15T12:12:55Z</time></trkpt><trkpt lat="29.703557347734403" lon="-8.095650245389201"><ele>701.0</ele><time>2026-04-15T12:12:56Z</time></trkpt><trkpt lat="29.703596794075988" lon="-8.095444328210695"><ele>700.0</ele><time>2026-04-15T12:12:57Z</time></trkpt><trkpt lat="29.703633867066117" lon="-8.095230761300993"><ele>702.0</ele><time>2026-04-15T12:12:58Z</time></trkpt><trkpt lat="29.70366097492356" lon="-8.095014323334825"><ele>704.0</ele><time>2026-04-15T12:12:59Z</time></trkpt><trkpt lat="29.703680427701777" lon="-8.094792853031914"><ele>706.0</ele><time>2026-04-15T12:13:00Z</time></trkpt><trkpt lat="29.703689766459778" lon="-8.094568166189873"><ele>706.0</ele><time>2026-04-15T12:13:01Z</time></trkpt><trkpt lat="29.703687266736004" lon="-8.09433797858403"><ele>706.0</ele><time>2026-04-15T12:13:02Z</time></trkpt><trkpt lat="29.703679970856786" lon="-8.094103502887064"><ele>706.0</ele><time>2026-04-15T12:13:03Z</time></trkpt><trkpt lat="29.70367149677596" lon="-8.093872097466"><ele>706.0</ele><time>2026-04-15T12:13:04Z</time></trkpt><trkpt lat="29.703662674617746" lon="-8.093644264773912"><ele>706.0</ele><time>2026-04-15T12:13:05Z</time></trkpt><trkpt lat="29.703649056675722" lon="-8.093413801389305"><ele>706.0</ele><time>2026-04-15T12:13:06Z</time></trkpt><trkpt lat="29.703633377995295" lon="-8.093179351170146"><ele>707.0</ele><time>2026-04-15T12:13:07Z</time></trkpt><trkpt lat="29.703618654223543" lon="-8.092943392739787"><ele>708.0</ele><time>2026-04-15T12:13:08Z</time></trkpt><trkpt lat="29.70360319968" lon="-8.092706380223936"><ele>709.0</ele><time>2026-04-15T12:13:09Z</time></trkpt><trkpt lat="29.703589958553106" lon="-8.092468076338218"><ele>704.6666666666667</ele><time>2026-04-15T12:13:10Z</time></trkpt><trkpt lat="29.70357794182439" lon="-8.0922308317929"><ele>700.3333333333334</ele><time>2026-04-15T12:13:11Z</time></trkpt><trkpt lat="29.70356505181528" lon="-8.091994705536598"><ele>696.0</ele><time>2026-04-15T12:13:12Z</time></trkpt><trkpt lat="29.703551239065366" lon="-8.091761432391998"><ele>695.3333333333334</ele><time>2026-04-15T12:13:13Z</time></trkpt><trkpt lat="29.7035385498977" lon="-8.091531345552628"><ele>694.6666666666667</ele><time>2026-04-15T12:13:14Z</time></trkpt><trkpt lat="29.70352479126328" lon="-8.091305036250365"><ele>694.0</ele><time>2026-04-15T12:13:15Z</time></trkpt><trkpt lat="29.703512685286807" lon="-8.091083524387347"><ele>694.0</ele><time>2026-04-15T12:13:16Z</time></trkpt><trkpt lat="29.703501018630142" lon="-8.090866287249458"><ele>694.0</ele><time>2026-04-15T12:13:17Z</time></trkpt><trkpt lat="29.70348783070166" lon="-8.090648448585023"><ele>694.0</ele><time>2026-04-15T12:13:18Z</time></trkpt><trkpt lat="29.70347550102485" lon="-8.090434805788274"><ele>692.6666666666667</ele><time>2026-04-15T12:13:19Z</time></trkpt><trkpt lat="29.70346771509466" lon="-8.090224610548715"><ele>691.3333333333334</ele><time>2026-04-15T12:13:20Z</time></trkpt><trkpt lat="29.70346432770777" lon="-8.090016468519709"><ele>690.0</ele><time>2026-04-15T12:13:21Z</time></trkpt><trkpt lat="29.703475744431326" lon="-8.089807759439495"><ele>689.6666666666666</ele><time>2026-04-15T12:13:22Z</time></trkpt><trkpt lat="29.70350178349408" lon="-8.08959799076526"><ele>689.3333333333333</ele><time>2026-04-15T12:13:23Z</time></trkpt><trkpt lat="29.703533542913753" lon="-8.089390511555814"><ele>689.0</ele><time>2026-04-15T12:13:24Z</time></trkpt><trkpt lat="29.703578089144013" lon="-8.089180127756054"><ele>689.0</ele><time>2026-04-15T12:13:25Z</time></trkpt><trkpt lat="29.703629916583534" lon="-8.088968597553299"><ele>689.0</ele><time>2026-04-15T12:13:26Z</time></trkpt><trkpt lat="29.703695595343447" lon="-8.088768816963027"><ele>689.0</ele><time>2026-04-15T12:13:27Z</time></trkpt><trkpt lat="29.703783476300536" lon="-8.088579037421136"><ele>689.0</ele><time>2026-04-15T12:13:28Z</time></trkpt><trkpt lat="29.703889898333173" lon="-8.0883981431548"><ele>689.0</ele><time>2026-04-15T12:13:29Z</time></trkpt><trkpt lat="29.70400321277426" lon="-8.088222246322823"><ele>689.0</ele><time>2026-04-15T12:13:30Z</time></trkpt><trkpt lat="29.704120533423474" lon="-8.088057323195478"><ele>688.0</ele><time>2026-04-15T12:13:31Z</time></trkpt><trkpt lat="29.704244732374033" lon="-8.08790188284947"><ele>687.0</ele><time>2026-04-15T12:13:32Z</time></trkpt><trkpt lat="29.70438288945698" lon="-8.087759132708644"><ele>686.0</ele><time>2026-04-15T12:13:33Z</time></trkpt><trkpt lat="29.704534987313114" lon="-8.087632664904994"><ele>685.3333333333333</ele><time>2026-04-15T12:13:34Z</time></trkpt><trkpt lat="29.704696527013276" lon="-8.08751736120592"><ele>684.6666666666666</ele><time>2026-04-15T12:13:35Z</time></trkpt><trkpt lat="29.7048648206224" lon="-8.087408507196159"><ele>684.0</ele><time>2026-04-15T12:13:36Z</time></trkpt><trkpt lat="29.705040177708465" lon="-8.08731097048098"><ele>683.6666666666666</ele><time>2026-04-15T12:13:37Z</time></trkpt><trkpt lat="29.705214310194496" lon="-8.087218937211489"><ele>683.3333333333333</ele><time>2026-04-15T12:13:38Z</time></trkpt><trkpt lat="29.705391109607987" lon="-8.087133509660472"><ele>683.0</ele><time>2026-04-15T12:13:39Z</time></trkpt><trkpt lat="29.705564461959693" lon="-8.087052988009663"><ele>683.0</ele><time>2026-04-15T12:13:40Z</time></trkpt><trkpt lat="29.705733184904588" lon="-8.086972988930192"><ele>683.0</ele><time>2026-04-15T12:13:41Z</time></trkpt><trkpt lat="29.70589768200304" lon="-8.086893217088916"><ele>683.0</ele><time>2026-04-15T12:13:42Z</time></trkpt><trkpt lat="29.706059943050906" lon="-8.08681501035007"><ele>684.3333333333333</ele><time>2026-04-15T12:13:43Z</time></trkpt><trkpt lat="29.706223730226334" lon="-8.086736787730997"><ele>685.6666666666666</ele><time>2026-04-15T12:13:44Z</time></trkpt><trkpt lat="29.706388492062313" lon="-8.086655396363472"><ele>687.0</ele><time>2026-04-15T12:13:45Z</time></trkpt><trkpt lat="29.706555171681767" lon="-8.086572144248185"><ele>687.3333333333334</ele><time>2026-04-15T12:13:46Z</time></trkpt><trkpt lat="29.706720745219613" lon="-8.08649270089813"><ele>687.6666666666667</ele><time>2026-04-15T12:13:47Z</time></trkpt><trkpt lat="29.706893719392077" lon="-8.086412556811984"><ele>688.0</ele><time>2026-04-15T12:13:48Z</time></trkpt><trkpt lat="29.707063248142333" lon="-8.086330059950754"><ele>689.3333333333334</ele><time>2026-04-15T12:13:49Z</time></trkpt><trkpt lat="29.707236515332816" lon="-8.086241175600232"><ele>690.6666666666666</ele><time>2026-04-15T12:13:50Z</time></trkpt><trkpt lat="29.70740991765978" lon="-8.086152779729877"><ele>692.0</ele><time>2026-04-15T12:13:51Z</time></trkpt><trkpt lat="29.70758134131294" lon="-8.086073840540971"><ele>694.0</ele><time>2026-04-15T12:13:52Z</time></trkpt><trkpt lat="29.70775161603622" lon="-8.085997421231923"><ele>696.0</ele><time>2026-04-15T12:13:53Z</time></trkpt><trkpt lat="29.707917027771742" lon="-8.085915544095343"><ele>698.0</ele><time>2026-04-15T12:13:54Z</time></trkpt><trkpt lat="29.708075647816592" lon="-8.08581886013855"><ele>697.6666666666666</ele><time>2026-04-15T12:13:55Z</time></trkpt><trkpt lat="29.70822538555196" lon="-8.085720902833671"><ele>697.3333333333334</ele><time>2026-04-15T12:13:56Z</time></trkpt><trkpt lat="29.708371847038897" lon="-8.08560875547121"><ele>697.0</ele><time>2026-04-15T12:13:57Z</time></trkpt><trkpt lat="29.708507961714385" lon="-8.085475123345939"><ele>700.6666666666667</ele><time>2026-04-15T12:13:58Z</time></trkpt><trkpt lat="29.708633043740228" lon="-8.085323960452566"><ele>704.3333333333334</ele><time>2026-04-15T12:13:59Z</time></trkpt><trkpt lat="29.708751180640817" lon="-8.085154820177383"><ele>708.0</ele><time>2026-04-15T12:14:00Z</time></trkpt><trkpt lat="29.70885484956589" lon="-8.084965523756225"><ele>707.6666666666666</ele><time>2026-04-15T12:14:01Z</time></trkpt><trkpt lat="29.708941390088874" lon="-8.084763218753066"><ele>707.3333333333333</ele><time>2026-04-15T12:14:02Z</time></trkpt><trkpt lat="29.709008739765704" lon="-8.084557479039933"><ele>707.0</ele><time>2026-04-15T12:14:03Z</time></trkpt><trkpt lat="29.70906642094344" lon="-8.08434559350674"><ele>707.0</ele><time>2026-04-15T12:14:04Z</time></trkpt><trkpt lat="29.709110442197435" lon="-8.084129632128656"><ele>707.0</ele><time>2026-04-15T12:14:05Z</time></trkpt><trkpt lat="29.709147497340812" lon="-8.083912765650746"><ele>707.0</ele><time>2026-04-15T12:14:06Z</time></trkpt><trkpt lat="29.709181585184094" lon="-8.083692357777718"><ele>707.0</ele><time>2026-04-15T12:14:07Z</time></trkpt><trkpt lat="29.70921933103938" lon="-8.083468309570147"><ele>707.0</ele><time>2026-04-15T12:14:08Z</time></trkpt><trkpt lat="29.709258331086367" lon="-8.083243645308318"><ele>707.0</ele><time>2026-04-15T12:14:09Z</time></trkpt><trkpt lat="29.709296432680464" lon="-8.083014293494074"><ele>708.0</ele><time>2026-04-15T12:14:10Z</time></trkpt><trkpt lat="29.709336708253815" lon="-8.082782557954756"><ele>709.0</ele><time>2026-04-15T12:14:11Z</time></trkpt><trkpt lat="29.709377866205877" lon="-8.082547680907625"><ele>710.0</ele><time>2026-04-15T12:14:12Z</time></trkpt><trkpt lat="29.709417988739098" lon="-8.082302767424892"><ele>717.3333333333333</ele><time>2026-04-15T12:14:13Z</time></trkpt><trkpt lat="29.70945842317538" lon="-8.0820562956862"><ele>724.6666666666666</ele><time>2026-04-15T12:14:14Z</time></trkpt><trkpt lat="29.709497129114375" lon="-8.081810621452355"><ele>732.0</ele><time>2026-04-15T12:14:15Z</time></trkpt><trkpt lat="29.70953432904817" lon="-8.08157975608333"><ele>732.0</ele><time>2026-04-15T12:14:16Z</time></trkpt><trkpt lat="29.709570635635096" lon="-8.081362487632926"><ele>732.0</ele><time>2026-04-15T12:14:17Z</time></trkpt><trkpt lat="29.709604782683925" lon="-8.081153784512265"><ele>732.0</ele><time>2026-04-15T12:14:18Z</time></trkpt><trkpt lat="29.70963305054371" lon="-8.080944740918682"><ele>729.0</ele><time>2026-04-15T12:14:19Z</time></trkpt><trkpt lat="29.709653632179357" lon="-8.080741772982753"><ele>726.0</ele><time>2026-04-15T12:14:20Z</time></trkpt><trkpt lat="29.70966455108453" lon="-8.080537190850213"><ele>723.0</ele><time>2026-04-15T12:14:21Z</time></trkpt><trkpt lat="29.70966385507882" lon="-8.08032926162538"><ele>723.0</ele><time>2026-04-15T12:14:22Z</time></trkpt><trkpt lat="29.709655713502617" lon="-8.080118074888981"><ele>723.0</ele><time>2026-04-15T12:14:23Z</time></trkpt><trkpt lat="29.709626912422625" lon="-8.079904523905402"><ele>723.0</ele><time>2026-04-15T12:14:24Z</time></trkpt><trkpt lat="29.709587655316472" lon="-8.079687408701252"><ele>721.0</ele><time>2026-04-15T12:14:25Z</time></trkpt><trkpt lat="29.709544906815967" lon="-8.079470146495392"><ele>719.0</ele><time>2026-04-15T12:14:26Z</time></trkpt><trkpt lat="29.709504041704314" lon="-8.079257232589898"><ele>717.0</ele><time>2026-04-15T12:14:27Z</time></trkpt><trkpt lat="29.709462922557886" lon="-8.079045204119337"><ele>716.3333333333334</ele><time>2026-04-15T12:14:28Z</time></trkpt><trkpt lat="29.709423262275312" lon="-8.078834290753166"><ele>715.6666666666667</ele><time>2026-04-15T12:14:29Z</time></trkpt><trkpt lat="29.70938569305632" lon="-8.078622122955561"><ele>715.0</ele><time>2026-04-15T12:14:30Z</time></trkpt><trkpt lat="29.70934835423445" lon="-8.078411283599673"><ele>714.0</ele><time>2026-04-15T12:14:31Z</time></trkpt><trkpt lat="29.70931080413477" lon="-8.078193642388186"><ele>713.0</ele><time>2026-04-15T12:14:32Z</time></trkpt><trkpt lat="29.709272289629414" lon="-8.077975177461594"><ele>712.0</ele><time>2026-04-15T12:14:33Z</time></trkpt><trkpt lat="29.709230413543125" lon="-8.077755885497583"><ele>712.0</ele><time>2026-04-15T12:14:34Z</time></trkpt><trkpt lat="29.709189618549264" lon="-8.07753600005963"><ele>712.0</ele><time>2026-04-15T12:14:35Z</time></trkpt><trkpt lat="29.709151864303003" lon="-8.0773208804032"><ele>712.0</ele><time>2026-04-15T12:14:36Z</time></trkpt><trkpt lat="29.709115107282237" lon="-8.077113604208035"><ele>712.6666666666667</ele><time>2026-04-15T12:14:37Z</time></trkpt><trkpt lat="29.70907492041893" lon="-8.076909533572975"><ele>713.3333333333334</ele><time>2026-04-15T12:14:38Z</time></trkpt><trkpt lat="29.709032126156387" lon="-8.0767023576694"><ele>714.0</ele><time>2026-04-15T12:14:39Z</time></trkpt><trkpt lat="29.708990325923065" lon="-8.076493731331134"><ele>712.0</ele><time>2026-04-15T12:14:40Z</time></trkpt><trkpt lat="29.70894641753412" lon="-8.076287510408923"><ele>710.0</ele><time>2026-04-15T12:14:41Z</time></trkpt><trkpt lat="29.70889077251387" lon="-8.07608264079163"><ele>708.0</ele><time>2026-04-15T12:14:42Z</time></trkpt><trkpt lat="29.708827071275163" lon="-8.075881323391986"><ele>706.6666666666666</ele><time>2026-04-15T12:14:43Z</time></trkpt><trkpt lat="29.70875835201485" lon="-8.075679220143883"><ele>705.3333333333333</ele><time>2026-04-15T12:14:44Z</time></trkpt><trkpt lat="29.708682661332997" lon="-8.075479469174478"><ele>704.0</ele><time>2026-04-15T12:14:45Z</time></trkpt><trkpt lat="29.708597253612446" lon="-8.075279538290046"><ele>704.0</ele><time>2026-04-15T12:14:46Z</time></trkpt><trkpt lat="29.708502116904825" lon="-8.075083669829144"><ele>704.0</ele><time>2026-04-15T12:14:47Z</time></trkpt><trkpt lat="29.708402024480343" lon="-8.07489051375175"><ele>704.0</ele><time>2026-04-15T12:14:48Z</time></trkpt><trkpt lat="29.708299798148595" lon="-8.0746941446096"><ele>702.3333333333333</ele><time>2026-04-15T12:14:49Z</time></trkpt><trkpt lat="29.708197355335663" lon="-8.074493422615582"><ele>700.6666666666666</ele><time>2026-04-15T12:14:50Z</time></trkpt><trkpt lat="29.708093312817425" lon="-8.074294834793287"><ele>699.0</ele><time>2026-04-15T12:14:51Z</time></trkpt><trkpt lat="29.707988912074523" lon="-8.074095100381209"><ele>698.3333333333334</ele><time>2026-04-15T12:14:52Z</time></trkpt><trkpt lat="29.707884954992014" lon="-8.07389450895818"><ele>697.6666666666667</ele><time>2026-04-15T12:14:53Z</time></trkpt><trkpt lat="29.70778246147662" lon="-8.073694796746802"><ele>697.0</ele><time>2026-04-15T12:14:54Z</time></trkpt><trkpt lat="29.707678439875878" lon="-8.073494934799902"><ele>696.6666666666667</ele><time>2026-04-15T12:14:55Z</time></trkpt><trkpt lat="29.70757610944131" lon="-8.073297114463092"><ele>696.3333333333334</ele><time>2026-04-15T12:14:56Z</time></trkpt><trkpt lat="29.707473199586133" lon="-8.073095962076975"><ele>696.0</ele><time>2026-04-15T12:14:57Z</time></trkpt><trkpt lat="29.707374580444686" lon="-8.072900110236644"><ele>695.0</ele><time>2026-04-15T12:14:58Z</time></trkpt><trkpt lat="29.70728086381442" lon="-8.072707035765966"><ele>694.0</ele><time>2026-04-15T12:14:59Z</time></trkpt><trkpt lat="29.707191310863518" lon="-8.072507416663836"><ele>693.0</ele><time>2026-04-15T12:15:00Z</time></trkpt><trkpt lat="29.707109436295244" lon="-8.072296898663398"><ele>692.0</ele><time>2026-04-15T12:15:01Z</time></trkpt><trkpt lat="29.707040070155866" lon="-8.072074919727196"><ele>691.0</ele><time>2026-04-15T12:15:02Z</time></trkpt><trkpt lat="29.70698261383672" lon="-8.071845510365307"><ele>690.0</ele><time>2026-04-15T12:15:03Z</time></trkpt><trkpt lat="29.70693369671201" lon="-8.071611570482983"><ele>689.3333333333334</ele><time>2026-04-15T12:15:04Z</time></trkpt><trkpt lat="29.706897990268708" lon="-8.071371455655882"><ele>688.6666666666667</ele><time>2026-04-15T12:15:05Z</time></trkpt><trkpt lat="29.706872171389737" lon="-8.071131211035421"><ele>688.0</ele><time>2026-04-15T12:15:06Z</time></trkpt><trkpt lat="29.7068591294068" lon="-8.070885978385242"><ele>688.0</ele><time>2026-04-15T12:15:07Z</time></trkpt><trkpt lat="29.70685662481001" lon="-8.070639597093248"><ele>688.0</ele><time>2026-04-15T12:15:08Z</time></trkpt><trkpt lat="29.706869884375507" lon="-8.07039859100835"><ele>688.0</ele><time>2026-04-15T12:15:09Z</time></trkpt><trkpt lat="29.706883451455127" lon="-8.070155747491958"><ele>688.0</ele><time>2026-04-15T12:15:10Z</time></trkpt><trkpt lat="29.706894225059514" lon="-8.069914633941409"><ele>688.0</ele><time>2026-04-15T12:15:11Z</time></trkpt><trkpt lat="29.706902932188573" lon="-8.069676117073033"><ele>688.0</ele><time>2026-04-15T12:15:12Z</time></trkpt><trkpt lat="29.706911763404232" lon="-8.069442184850192"><ele>689.0</ele><time>2026-04-15T12:15:13Z</time></trkpt><trkpt lat="29.7069189715254" lon="-8.069210846236793"><ele>690.0</ele><time>2026-04-15T12:15:14Z</time></trkpt><trkpt lat="29.70692839679019" lon="-8.068982161566677"><ele>691.0</ele><time>2026-04-15T12:15:15Z</time></trkpt><trkpt lat="29.70693829721028" lon="-8.068753979983764"><ele>691.3333333333334</ele><time>2026-04-15T12:15:16Z</time></trkpt><trkpt lat="29.706946915529592" lon="-8.068525647024007"><ele>691.6666666666666</ele><time>2026-04-15T12:15:17Z</time></trkpt><trkpt lat="29.706954349093763" lon="-8.068290540728837"><ele>692.0</ele><time>2026-04-15T12:15:18Z</time></trkpt><trkpt lat="29.706958068807996" lon="-8.06805449104866"><ele>693.6666666666666</ele><time>2026-04-15T12:15:19Z</time></trkpt><trkpt lat="29.70696671872663" lon="-8.067815824528473"><ele>695.3333333333334</ele><time>2026-04-15T12:15:20Z</time></trkpt><trkpt lat="29.70698116936652" lon="-8.06757693648518"><ele>697.0</ele><time>2026-04-15T12:15:21Z</time></trkpt><trkpt lat="29.706994994301944" lon="-8.067339501689844"><ele>697.6666666666667</ele><time>2026-04-15T12:15:22Z</time></trkpt><trkpt lat="29.70700467557827" lon="-8.067100133038892"><ele>698.3333333333334</ele><time>2026-04-15T12:15:23Z</time></trkpt><trkpt lat="29.70701043119705" lon="-8.066862271256367"><ele>699.0</ele><time>2026-04-15T12:15:24Z</time></trkpt><trkpt lat="29.707020347809095" lon="-8.066621391333006"><ele>701.0</ele><time>2026-04-15T12:15:25Z</time></trkpt><trkpt lat="29.707028352307468" lon="-8.066377769650302"><ele>703.0</ele><time>2026-04-15T12:15:26Z</time></trkpt><trkpt lat="29.707040505156055" lon="-8.066135180007743"><ele>705.0</ele><time>2026-04-15T12:15:27Z</time></trkpt><trkpt lat="29.70704819902025" lon="-8.065895232971926"><ele>705.6666666666666</ele><time>2026-04-15T12:15:28Z</time></trkpt><trkpt lat="29.707053070480907" lon="-8.065660123729492"><ele>706.3333333333333</ele><time>2026-04-15T12:15:29Z</time></trkpt><trkpt lat="29.707054249554044" lon="-8.065425905654958"><ele>707.0</ele><time>2026-04-15T12:15:30Z</time></trkpt><trkpt lat="29.70706214327701" lon="-8.065194271675129"><ele>707.0</ele><time>2026-04-15T12:15:31Z</time></trkpt><trkpt lat="29.707066573551312" lon="-8.064963237011044"><ele>707.0</ele><time>2026-04-15T12:15:32Z</time></trkpt><trkpt lat="29.707074530270802" lon="-8.064734289407758"><ele>707.0</ele><time>2026-04-15T12:15:33Z</time></trkpt><trkpt lat="29.70708157567413" lon="-8.064504237064039"><ele>708.3333333333333</ele><time>2026-04-15T12:15:34Z</time></trkpt><trkpt lat="29.707091461423445" lon="-8.064279730330933"><ele>709.6666666666666</ele><time>2026-04-15T12:15:35Z</time></trkpt><trkpt lat="29.70710393963534" lon="-8.064053705082308"><ele>711.0</ele><time>2026-04-15T12:15:36Z</time></trkpt><trkpt lat="29.707114543504797" lon="-8.063824565791721"><ele>712.6666666666666</ele><time>2026-04-15T12:15:37Z</time></trkpt><trkpt lat="29.707124966127076" lon="-8.0635989353323"><ele>714.3333333333333</ele><time>2026-04-15T12:15:38Z</time></trkpt><trkpt lat="29.70713462396045" lon="-8.0633657646543"><ele>716.0</ele><time>2026-04-15T12:15:39Z</time></trkpt><trkpt lat="29.70714415115847" lon="-8.063132631118046"><ele>717.3333333333333</ele><time>2026-04-15T12:15:40Z</time></trkpt><trkpt lat="29.707147827182727" lon="-8.062892402914352"><ele>718.6666666666666</ele><time>2026-04-15T12:15:41Z</time></trkpt><trkpt lat="29.707155659259445" lon="-8.062651160712962"><ele>720.0</ele><time>2026-04-15T12:15:42Z</time></trkpt><trkpt lat="29.707163312104363" lon="-8.06241251870944"><ele>720.3333333333334</ele><time>2026-04-15T12:15:43Z</time></trkpt><trkpt lat="29.707173609836357" lon="-8.062184887424616"><ele>720.6666666666667</ele><time>2026-04-15T12:15:44Z</time></trkpt><trkpt lat="29.707185315646814" lon="-8.061974980612739"><ele>721.0</ele><time>2026-04-15T12:15:45Z</time></trkpt><trkpt lat="29.70719463830193" lon="-8.061775255031051"><ele>721.0</ele><time>2026-04-15T12:15:46Z</time></trkpt><trkpt lat="29.707204645209437" lon="-8.061578316759705"><ele>721.0</ele><time>2026-04-15T12:15:47Z</time></trkpt><trkpt lat="29.707218486736046" lon="-8.061384669729945"><ele>721.0</ele><time>2026-04-15T12:15:48Z</time></trkpt><trkpt lat="29.70723812241365" lon="-8.06119439480543"><ele>721.0</ele><time>2026-04-15T12:15:49Z</time></trkpt><trkpt lat="29.707258765846806" lon="-8.06100645098096"><ele>721.0</ele><time>2026-04-15T12:15:50Z</time></trkpt><trkpt lat="29.707280212246797" lon="-8.060825661404905"><ele>721.0</ele><time>2026-04-15T12:15:51Z</time></trkpt><trkpt lat="29.707302921372765" lon="-8.060647311367584"><ele>721.0</ele><time>2026-04-15T12:15:52Z</time></trkpt><trkpt lat="29.707325648624533" lon="-8.060467432473063"><ele>721.0</ele><time>2026-04-15T12:15:53Z</time></trkpt><trkpt lat="29.707350567900182" lon="-8.060291928052141"><ele>721.0</ele><time>2026-04-15T12:15:54Z</time></trkpt><trkpt lat="29.707374976280434" lon="-8.060131387056815"><ele>721.0</ele><time>2026-04-15T12:15:55Z</time></trkpt><trkpt lat="29.707401308639778" lon="-8.059977955197287"><ele>721.0</ele><time>2026-04-15T12:15:56Z</time></trkpt><trkpt lat="29.707426315963247" lon="-8.059832077713688"><ele>721.0</ele><time>2026-04-15T12:15:57Z</time></trkpt><trkpt lat="29.707450112288196" lon="-8.0596892201444"><ele>721.0</ele><time>2026-04-15T12:15:58Z</time></trkpt><trkpt lat="29.707477641645546" lon="-8.05954172198906"><ele>720.0</ele><time>2026-04-15T12:15:59Z</time></trkpt><trkpt lat="29.707507657040786" lon="-8.059393585252979"><ele>719.0</ele><time>2026-04-15T12:16:00Z</time></trkpt><trkpt lat="29.707536977087045" lon="-8.059240236350483"><ele>718.0</ele><time>2026-04-15T12:16:01Z</time></trkpt><trkpt lat="29.707572266680867" lon="-8.059081181332656"><ele>717.0</ele><time>2026-04-15T12:16:02Z</time></trkpt><trkpt lat="29.707608404734003" lon="-8.05892108664971"><ele>716.5</ele><time>2026-04-15T12:16:03Z</time></trkpt><trkpt lat="29.70764628504469" lon="-8.058760745829776"><ele>716.0</ele><time>2026-04-15T12:16:04Z</time></trkpt><trkpt lat="29.7076811053155" lon="-8.058593279842066"><ele>715.5</ele><time>2026-04-15T12:16:05Z</time></trkpt><trkpt lat="29.707715750622164" lon="-8.058423986456914"><ele>715.0</ele><time>2026-04-15T12:16:06Z</time></trkpt><trkpt lat="29.707750611747663" lon="-8.05825530005746"><ele>716.5</ele><time>2026-04-15T12:16:07Z</time></trkpt><trkpt lat="29.707787584674364" lon="-8.058094199713294"><ele>718.0</ele><time>2026-04-15T12:16:08Z</time></trkpt><trkpt lat="29.7078214555352" lon="-8.057942629831281"><ele>719.5</ele><time>2026-04-15T12:16:09Z</time></trkpt><trkpt lat="29.707853270041674" lon="-8.057795342326774"><ele>721.0</ele><time>2026-04-15T12:16:10Z</time></trkpt><trkpt lat="29.70788562498051" lon="-8.057656079557393"><ele>721.0</ele><time>2026-04-15T12:16:11Z</time></trkpt><trkpt lat="29.70791852097795" lon="-8.057517195391712"><ele>721.0</ele><time>2026-04-15T12:16:12Z</time></trkpt><trkpt lat="29.70795035989643" lon="-8.057376995416742"><ele>721.0</ele><time>2026-04-15T12:16:13Z</time></trkpt><trkpt lat="29.70798382587055" lon="-8.057238795316882"><ele>721.0</ele><time>2026-04-15T12:16:14Z</time></trkpt><trkpt lat="29.708018405705822" lon="-8.057102287010395"><ele>719.75</ele><time>2026-04-15T12:16:15Z</time></trkpt><trkpt lat="29.708051443506633" lon="-8.056961874675908"><ele>718.5</ele><time>2026-04-15T12:16:16Z</time></trkpt><trkpt lat="29.7080795676899" lon="-8.056817820517589"><ele>717.25</ele><time>2026-04-15T12:16:17Z</time></trkpt><trkpt lat="29.708109341224475" lon="-8.056667259518006"><ele>716.0</ele><time>2026-04-15T12:16:18Z</time></trkpt><trkpt lat="29.708140279486912" lon="-8.056515538994613"><ele>714.5</ele><time>2026-04-15T12:16:19Z</time></trkpt><trkpt lat="29.7081765513884" lon="-8.056360227347112"><ele>713.0</ele><time>2026-04-15T12:16:20Z</time></trkpt><trkpt lat="29.70821159971587" lon="-8.056204658066841"><ele>711.5</ele><time>2026-04-15T12:16:21Z</time></trkpt><trkpt lat="29.70824973635938" lon="-8.05603966874758"><ele>710.0</ele><time>2026-04-15T12:16:22Z</time></trkpt><trkpt lat="29.70828787679022" lon="-8.05587210176387"><ele>708.3333333333333</ele><time>2026-04-15T12:16:23Z</time></trkpt><trkpt lat="29.708326887650955" lon="-8.055702450397364"><ele>706.6666666666666</ele><time>2026-04-15T12:16:24Z</time></trkpt><trkpt lat="29.708368118202962" lon="-8.055528747106129"><ele>705.0</ele><time>2026-04-15T12:16:25Z</time></trkpt><trkpt lat="29.708411800540887" lon="-8.055354463611877"><ele>705.0</ele><time>2026-04-15T12:16:26Z</time></trkpt><trkpt lat="29.708451495012774" lon="-8.05517890835935"><ele>705.0</ele><time>2026-04-15T12:16:27Z</time></trkpt><trkpt lat="29.708488771977628" lon="-8.05500142664677"><ele>705.0</ele><time>2026-04-15T12:16:28Z</time></trkpt><trkpt lat="29.708531382360064" lon="-8.054819160930304"><ele>704.6666666666666</ele><time>2026-04-15T12:16:29Z</time></trkpt><trkpt lat="29.708573559816735" lon="-8.054628819644867"><ele>704.3333333333333</ele><time>2026-04-15T12:16:30Z</time></trkpt><trkpt lat="29.708616750247828" lon="-8.054432933378608"><ele>704.0</ele><time>2026-04-15T12:16:31Z</time></trkpt><trkpt lat="29.708659161841982" lon="-8.05423821069035"><ele>704.6666666666666</ele><time>2026-04-15T12:16:32Z</time></trkpt><trkpt lat="29.70870142013483" lon="-8.054040546621074"><ele>705.3333333333334</ele><time>2026-04-15T12:16:33Z</time></trkpt><trkpt lat="29.708748118738683" lon="-8.053839081878719"><ele>706.0</ele><time>2026-04-15T12:16:34Z</time></trkpt><trkpt lat="29.708796808123616" lon="-8.053636464947452"><ele>706.0</ele><time>2026-04-15T12:16:35Z</time></trkpt><trkpt lat="29.70883939453174" lon="-8.05344373765167"><ele>706.0</ele><time>2026-04-15T12:16:36Z</time></trkpt><trkpt lat="29.708882822194585" lon="-8.05325480506554"><ele>706.0</ele><time>2026-04-15T12:16:37Z</time></trkpt><trkpt lat="29.70893034493248" lon="-8.053068292259299"><ele>706.0</ele><time>2026-04-15T12:16:38Z</time></trkpt><trkpt lat="29.708975004387774" lon="-8.0528803599173"><ele>706.0</ele><time>2026-04-15T12:16:39Z</time></trkpt><trkpt lat="29.70901659470449" lon="-8.05268898328814"><ele>706.0</ele><time>2026-04-15T12:16:40Z</time></trkpt><trkpt lat="29.709061008349032" lon="-8.052492825111882"><ele>706.6666666666667</ele><time>2026-04-15T12:16:41Z</time></trkpt><trkpt lat="29.709105225083682" lon="-8.052296658562854"><ele>707.3333333333334</ele><time>2026-04-15T12:16:42Z</time></trkpt><trkpt lat="29.70914597346599" lon="-8.052104525670288"><ele>708.0</ele><time>2026-04-15T12:16:43Z</time></trkpt><trkpt lat="29.709185726547858" lon="-8.051916145535195"><ele>708.0</ele><time>2026-04-15T12:16:44Z</time></trkpt><trkpt lat="29.709225964170614" lon="-8.051729197018169"><ele>708.0</ele><time>2026-04-15T12:16:45Z</time></trkpt><trkpt lat="29.709267433585776" lon="-8.051541275424038"><ele>708.0</ele><time>2026-04-15T12:16:46Z</time></trkpt><trkpt lat="29.709309827915494" lon="-8.05134713506654"><ele>707.6666666666666</ele><time>2026-04-15T12:16:47Z</time></trkpt><trkpt lat="29.7093476042761" lon="-8.051148011597794"><ele>707.3333333333333</ele><time>2026-04-15T12:16:48Z</time></trkpt><trkpt lat="29.70938651585475" lon="-8.050945701938488"><ele>707.0</ele><time>2026-04-15T12:16:49Z</time></trkpt><trkpt lat="29.70942895914124" lon="-8.050742193223913"><ele>709.6666666666666</ele><time>2026-04-15T12:16:50Z</time></trkpt><trkpt lat="29.70946238813142" lon="-8.050537803496761"><ele>712.3333333333334</ele><time>2026-04-15T12:16:51Z</time></trkpt><trkpt lat="29.709493048005264" lon="-8.050330689314192"><ele>715.0</ele><time>2026-04-15T12:16:52Z</time></trkpt><trkpt lat="29.709524211695758" lon="-8.050125655656302"><ele>713.3333333333334</ele><time>2026-04-15T12:16:53Z</time></trkpt><trkpt lat="29.70955194376557" lon="-8.04992388721709"><ele>711.6666666666666</ele><time>2026-04-15T12:16:54Z</time></trkpt><trkpt lat="29.709576279106873" lon="-8.049718978119625"><ele>710.0</ele><time>2026-04-15T12:16:55Z</time></trkpt><trkpt lat="29.709594421042535" lon="-8.04951341015633"><ele>710.0</ele><time>2026-04-15T12:16:56Z</time></trkpt><trkpt lat="29.709612733446548" lon="-8.049304559718301"><ele>710.0</ele><time>2026-04-15T12:16:57Z</time></trkpt><trkpt lat="29.70962793805184" lon="-8.049093136425226"><ele>710.0</ele><time>2026-04-15T12:16:58Z</time></trkpt><trkpt lat="29.70964438187054" lon="-8.048879830548524"><ele>708.3333333333333</ele><time>2026-04-15T12:16:59Z</time></trkpt><trkpt lat="29.709663592199746" lon="-8.048668472493041"><ele>706.6666666666666</ele><time>2026-04-15T12:17:00Z</time></trkpt><trkpt lat="29.709683676800978" lon="-8.048455168005292"><ele>705.0</ele><time>2026-04-15T12:17:01Z</time></trkpt><trkpt lat="29.709700779530806" lon="-8.048234512425209"><ele>703.3333333333334</ele><time>2026-04-15T12:17:02Z</time></trkpt><trkpt lat="29.70971580498765" lon="-8.048015986799633"><ele>701.6666666666667</ele><time>2026-04-15T12:17:03Z</time></trkpt><trkpt lat="29.709733434813373" lon="-8.047800887451585"><ele>700.0</ele><time>2026-04-15T12:17:04Z</time></trkpt><trkpt lat="29.709750474630656" lon="-8.047588451173121"><ele>698.6666666666667</ele><time>2026-04-15T12:17:05Z</time></trkpt><trkpt lat="29.709770997567595" lon="-8.047374095675943"><ele>697.3333333333334</ele><time>2026-04-15T12:17:06Z</time></trkpt><trkpt lat="29.70979097754056" lon="-8.047161762834843"><ele>696.0</ele><time>2026-04-15T12:17:07Z</time></trkpt><trkpt lat="29.70980978307204" lon="-8.046946723570162"><ele>696.0</ele><time>2026-04-15T12:17:08Z</time></trkpt><trkpt lat="29.709824459066677" lon="-8.046732668628767"><ele>696.0</ele><time>2026-04-15T12:17:09Z</time></trkpt><trkpt lat="29.709842509440787" lon="-8.046517667569859"><ele>696.0</ele><time>2026-04-15T12:17:10Z</time></trkpt><trkpt lat="29.709861058085757" lon="-8.046302083029875"><ele>694.6666666666666</ele><time>2026-04-15T12:17:11Z</time></trkpt><trkpt lat="29.709878910279485" lon="-8.046084117026536"><ele>693.3333333333333</ele><time>2026-04-15T12:17:12Z</time></trkpt><trkpt lat="29.709901156558676" lon="-8.045860490352693"><ele>692.0</ele><time>2026-04-15T12:17:13Z</time></trkpt><trkpt lat="29.709916031199505" lon="-8.045634479408825"><ele>691.0</ele><time>2026-04-15T12:17:14Z</time></trkpt><trkpt lat="29.709933986591338" lon="-8.045402733901078"><ele>690.0</ele><time>2026-04-15T12:17:15Z</time></trkpt><trkpt lat="29.709950250208024" lon="-8.045170172459494"><ele>689.0</ele><time>2026-04-15T12:17:16Z</time></trkpt><trkpt lat="29.709967175042227" lon="-8.044938444463146"><ele>688.6666666666666</ele><time>2026-04-15T12:17:17Z</time></trkpt><trkpt lat="29.7099835953975" lon="-8.04470841224278"><ele>688.3333333333334</ele><time>2026-04-15T12:17:18Z</time></trkpt><trkpt lat="29.710002495868512" lon="-8.044478828330716"><ele>688.0</ele><time>2026-04-15T12:17:19Z</time></trkpt><trkpt lat="29.710018711945338" lon="-8.044251624195825"><ele>687.0</ele><time>2026-04-15T12:17:20Z</time></trkpt><trkpt lat="29.7100399325074" lon="-8.044022129833552"><ele>686.0</ele><time>2026-04-15T12:17:21Z</time></trkpt><trkpt lat="29.71005796247693" lon="-8.043792459816556"><ele>685.0</ele><time>2026-04-15T12:17:22Z</time></trkpt><trkpt lat="29.710071444019935" lon="-8.043564266946495"><ele>685.0</ele><time>2026-04-15T12:17:23Z</time></trkpt><trkpt lat="29.710084530312493" lon="-8.04334002421469"><ele>685.0</ele><time>2026-04-15T12:17:24Z</time></trkpt><trkpt lat="29.71010149855987" lon="-8.043115351563142"><ele>685.0</ele><time>2026-04-15T12:17:25Z</time></trkpt><trkpt lat="29.71011954923017" lon="-8.04288770854029"><ele>684.0</ele><time>2026-04-15T12:17:26Z</time></trkpt><trkpt lat="29.71013759273332" lon="-8.04265978231951"><ele>683.0</ele><time>2026-04-15T12:17:27Z</time></trkpt><trkpt lat="29.7101533010237" lon="-8.042424890669405"><ele>682.0</ele><time>2026-04-15T12:17:28Z</time></trkpt><trkpt lat="29.710168780246697" lon="-8.042189669013835"><ele>680.3333333333334</ele><time>2026-04-15T12:17:29Z</time></trkpt><trkpt lat="29.710185587343393" lon="-8.041957060592539"><ele>678.6666666666666</ele><time>2026-04-15T12:17:30Z</time></trkpt><trkpt lat="29.71020252856559" lon="-8.041725122536386"><ele>677.0</ele><time>2026-04-15T12:17:31Z</time></trkpt><trkpt lat="29.710221951779307" lon="-8.041490098373734"><ele>677.3333333333333</ele><time>2026-04-15T12:17:32Z</time></trkpt><trkpt lat="29.71024041090496" lon="-8.041252518635702"><ele>677.6666666666666</ele><time>2026-04-15T12:17:33Z</time></trkpt><trkpt lat="29.71026021936411" lon="-8.041012856459544"><ele>678.0</ele><time>2026-04-15T12:17:34Z</time></trkpt><trkpt lat="29.710280312161636" lon="-8.04077218230586"><ele>676.3333333333334</ele><time>2026-04-15T12:17:35Z</time></trkpt><trkpt lat="29.710303559871996" lon="-8.040533966283258"><ele>674.6666666666667</ele><time>2026-04-15T12:17:36Z</time></trkpt><trkpt lat="29.710321841353657" lon="-8.04030650595376"><ele>673.0</ele><time>2026-04-15T12:17:37Z</time></trkpt><trkpt lat="29.710339917679107" lon="-8.040087387646784"><ele>673.3333333333334</ele><time>2026-04-15T12:17:38Z</time></trkpt><trkpt lat="29.710360132034317" lon="-8.03987263499676"><ele>673.6666666666666</ele><time>2026-04-15T12:17:39Z</time></trkpt><trkpt lat="29.71037850743326" lon="-8.03966210224302"><ele>674.0</ele><time>2026-04-15T12:17:40Z</time></trkpt><trkpt lat="29.710401317772167" lon="-8.039447135837895"><ele>674.0</ele><time>2026-04-15T12:17:41Z</time></trkpt><trkpt lat="29.710425108799733" lon="-8.039232129798277"><ele>674.0</ele><time>2026-04-15T12:17:42Z</time></trkpt><trkpt lat="29.710446724725685" lon="-8.03901347421302"><ele>674.0</ele><time>2026-04-15T12:17:43Z</time></trkpt><trkpt lat="29.71047016018476" lon="-8.038796732050962"><ele>674.0</ele><time>2026-04-15T12:17:44Z</time></trkpt><trkpt lat="29.7104942352959" lon="-8.038578763601869"><ele>674.0</ele><time>2026-04-15T12:17:45Z</time></trkpt><trkpt lat="29.710518971841246" lon="-8.038361310267227"><ele>674.0</ele><time>2026-04-15T12:17:46Z</time></trkpt><trkpt lat="29.710547855302732" lon="-8.038149794678143"><ele>674.0</ele><time>2026-04-15T12:17:47Z</time></trkpt><trkpt lat="29.710571775872125" lon="-8.037944599438987"><ele>674.0</ele><time>2026-04-15T12:17:48Z</time></trkpt><trkpt lat="29.710596092691674" lon="-8.03775083850644"><ele>674.0</ele><time>2026-04-15T12:17:49Z</time></trkpt><trkpt lat="29.7106154450677" lon="-8.037558570584242"><ele>674.3333333333333</ele><time>2026-04-15T12:17:50Z</time></trkpt><trkpt lat="29.71063978347186" lon="-8.037363814842635"><ele>674.6666666666666</ele><time>2026-04-15T12:17:51Z</time></trkpt><trkpt lat="29.7106611252831" lon="-8.037167330267948"><ele>675.0</ele><time>2026-04-15T12:17:52Z</time></trkpt><trkpt lat="29.710682731761285" lon="-8.03696431045375"><ele>675.0</ele><time>2026-04-15T12:17:53Z</time></trkpt><trkpt lat="29.710702923699444" lon="-8.036762326799922"><ele>675.0</ele><time>2026-04-15T12:17:54Z</time></trkpt><trkpt lat="29.710727033143343" lon="-8.036547607853423"><ele>675.0</ele><time>2026-04-15T12:17:55Z</time></trkpt><trkpt lat="29.71075308326489" lon="-8.036329380650924"><ele>674.0</ele><time>2026-04-15T12:17:56Z</time></trkpt><trkpt lat="29.71077967823212" lon="-8.036111812344435"><ele>673.0</ele><time>2026-04-15T12:17:57Z</time></trkpt><trkpt lat="29.710807354284892" lon="-8.035897733022464"><ele>672.0</ele><time>2026-04-15T12:17:58Z</time></trkpt><trkpt lat="29.71083379335918" lon="-8.03568083707582"><ele>671.3333333333334</ele><time>2026-04-15T12:17:59Z</time></trkpt><trkpt lat="29.710859303233175" lon="-8.035461122308625"><ele>670.6666666666667</ele><time>2026-04-15T12:18:00Z</time></trkpt><trkpt lat="29.71088598825371" lon="-8.035238626202707"><ele>670.0</ele><time>2026-04-15T12:18:01Z</time></trkpt><trkpt lat="29.71091493455575" lon="-8.035011389398603"><ele>670.0</ele><time>2026-04-15T12:18:02Z</time></trkpt><trkpt lat="29.710945013672625" lon="-8.034787063565808"><ele>670.0</ele><time>2026-04-15T12:18:03Z</time></trkpt><trkpt lat="29.710971420420744" lon="-8.034563770642064"><ele>670.0</ele><time>2026-04-15T12:18:04Z</time></trkpt><trkpt lat="29.71100140507592" lon="-8.0343369962665"><ele>669.0</ele><time>2026-04-15T12:18:05Z</time></trkpt><trkpt lat="29.711028282438857" lon="-8.034105964563771"><ele>668.0</ele><time>2026-04-15T12:18:06Z</time></trkpt><trkpt lat="29.71105116269025" lon="-8.033872628245188"><ele>667.0</ele><time>2026-04-15T12:18:07Z</time></trkpt><trkpt lat="29.711074941412846" lon="-8.033640874504277"><ele>667.6666666666667</ele><time>2026-04-15T12:18:08Z</time></trkpt><trkpt lat="29.711099971505217" lon="-8.033410344460489"><ele>668.3333333333334</ele><time>2026-04-15T12:18:09Z</time></trkpt><trkpt lat="29.711127249352426" lon="-8.033182260775156"><ele>669.0</ele><time>2026-04-15T12:18:10Z</time></trkpt><trkpt lat="29.71115324884297" lon="-8.032955289859633"><ele>669.0</ele><time>2026-04-15T12:18:11Z</time></trkpt><trkpt lat="29.711180067661996" lon="-8.032729342618206"><ele>669.0</ele><time>2026-04-15T12:18:12Z</time></trkpt><trkpt lat="29.71120584934387" lon="-8.032494240381645"><ele>669.0</ele><time>2026-04-15T12:18:13Z</time></trkpt><trkpt lat="29.711230862565795" lon="-8.032253939141277"><ele>667.6666666666666</ele><time>2026-04-15T12:18:14Z</time></trkpt><trkpt lat="29.711256993201633" lon="-8.032012078619562"><ele>666.3333333333333</ele><time>2026-04-15T12:18:15Z</time></trkpt><trkpt lat="29.711290023413635" lon="-8.031771037919812"><ele>665.0</ele><time>2026-04-15T12:18:16Z</time></trkpt><trkpt lat="29.711320845079236" lon="-8.031536938648296"><ele>664.3333333333333</ele><time>2026-04-15T12:18:17Z</time></trkpt><trkpt lat="29.711351476327817" lon="-8.03130438280613"><ele>663.6666666666666</ele><time>2026-04-15T12:18:18Z</time></trkpt><trkpt lat="29.711380522465763" lon="-8.031071133096516"><ele>663.0</ele><time>2026-04-15T12:18:19Z</time></trkpt><trkpt lat="29.711406957156186" lon="-8.030839037026288"><ele>663.0</ele><time>2026-04-15T12:18:20Z</time></trkpt><trkpt lat="29.71143633336778" lon="-8.030603139893476"><ele>663.0</ele><time>2026-04-15T12:18:21Z</time></trkpt><trkpt lat="29.71146567879292" lon="-8.03036379660525"><ele>663.0</ele><time>2026-04-15T12:18:22Z</time></trkpt><trkpt lat="29.711490005171026" lon="-8.030123471249757"><ele>662.0</ele><time>2026-04-15T12:18:23Z</time></trkpt><trkpt lat="29.711518022231378" lon="-8.029887327171265"><ele>661.0</ele><time>2026-04-15T12:18:24Z</time></trkpt><trkpt lat="29.71154478363322" lon="-8.029654488432008"><ele>660.0</ele><time>2026-04-15T12:18:25Z</time></trkpt><trkpt lat="29.711571611022805" lon="-8.029425744309082"><ele>660.0</ele><time>2026-04-15T12:18:26Z</time></trkpt><trkpt lat="29.711599031168426" lon="-8.029195486936713"><ele>660.0</ele><time>2026-04-15T12:18:27Z</time></trkpt><trkpt lat="29.711622269103867" lon="-8.028969227056411"><ele>660.0</ele><time>2026-04-15T12:18:28Z</time></trkpt><trkpt lat="29.711650487325358" lon="-8.028742670716086"><ele>659.6666666666666</ele><time>2026-04-15T12:18:29Z</time></trkpt><trkpt lat="29.711678072691548" lon="-8.028514341538452"><ele>659.3333333333333</ele><time>2026-04-15T12:18:30Z</time></trkpt><trkpt lat="29.711705472132525" lon="-8.028278288469327"><ele>659.0</ele><time>2026-04-15T12:18:31Z</time></trkpt><trkpt lat="29.711730237801255" lon="-8.028041530402882"><ele>658.6666666666666</ele><time>2026-04-15T12:18:32Z</time></trkpt><trkpt lat="29.711756723129195" lon="-8.027806601950205"><ele>658.3333333333334</ele><time>2026-04-15T12:18:33Z</time></trkpt><trkpt lat="29.711781571422613" lon="-8.027576193717685"><ele>658.0</ele><time>2026-04-15T12:18:34Z</time></trkpt><trkpt lat="29.711806979837203" lon="-8.027347589081861"><ele>657.0</ele><time>2026-04-15T12:18:35Z</time></trkpt><trkpt lat="29.71183669724486" lon="-8.027117502868162"><ele>656.0</ele><time>2026-04-15T12:18:36Z</time></trkpt><trkpt lat="29.711865227024838" lon="-8.026894763898966"><ele>655.0</ele><time>2026-04-15T12:18:37Z</time></trkpt><trkpt lat="29.71189285098405" lon="-8.026673917571415"><ele>656.0</ele><time>2026-04-15T12:18:38Z</time></trkpt><trkpt lat="29.71191891940534" lon="-8.026457263846712"><ele>657.0</ele><time>2026-04-15T12:18:39Z</time></trkpt><trkpt lat="29.711946127145755" lon="-8.026242261235739"><ele>658.0</ele><time>2026-04-15T12:18:40Z</time></trkpt><trkpt lat="29.711971522463884" lon="-8.026025218423639"><ele>658.6666666666667</ele><time>2026-04-15T12:18:41Z</time></trkpt><trkpt lat="29.71199549388876" lon="-8.025805800251256"><ele>659.3333333333334</ele><time>2026-04-15T12:18:42Z</time></trkpt><trkpt lat="29.712019262290138" lon="-8.025585431278222"><ele>660.0</ele><time>2026-04-15T12:18:43Z</time></trkpt><trkpt lat="29.712043778304736" lon="-8.025368403659582"><ele>660.0</ele><time>2026-04-15T12:18:44Z</time></trkpt><trkpt lat="29.71207233208118" lon="-8.02515080229285"><ele>660.0</ele><time>2026-04-15T12:18:45Z</time></trkpt><trkpt lat="29.7120979120857" lon="-8.024938515931858"><ele>660.0</ele><time>2026-04-15T12:18:46Z</time></trkpt><trkpt lat="29.71212305834051" lon="-8.024724513163285"><ele>658.3333333333334</ele><time>2026-04-15T12:18:47Z</time></trkpt><trkpt lat="29.71214651081216" lon="-8.024516681784599"><ele>656.6666666666667</ele><time>2026-04-15T12:18:48Z</time></trkpt><trkpt lat="29.712170387855142" lon="-8.02431894040831"><ele>655.0</ele><time>2026-04-15T12:18:49Z</time></trkpt><trkpt lat="29.712193974949948" lon="-8.024118372182958"><ele>654.0</ele><time>2026-04-15T12:18:50Z</time></trkpt><trkpt lat="29.712214164090934" lon="-8.02391735611853"><ele>653.0</ele><time>2026-04-15T12:18:51Z</time></trkpt><trkpt lat="29.71223184173871" lon="-8.02371099408344"><ele>652.0</ele><time>2026-04-15T12:18:52Z</time></trkpt><trkpt lat="29.712250551720757" lon="-8.02350830901849"><ele>652.0</ele><time>2026-04-15T12:18:53Z</time></trkpt><trkpt lat="29.712272298537503" lon="-8.02331650708613"><ele>652.0</ele><time>2026-04-15T12:18:54Z</time></trkpt><trkpt lat="29.7122953705828" lon="-8.02313285492386"><ele>652.0</ele><time>2026-04-15T12:18:55Z</time></trkpt><trkpt lat="29.71231997590641" lon="-8.022944858510124"><ele>651.6666666666667</ele><time>2026-04-15T12:18:56Z</time></trkpt><trkpt lat="29.712344537551992" lon="-8.02275562939874"><ele>651.3333333333334</ele><time>2026-04-15T12:18:57Z</time></trkpt><trkpt lat="29.712367599952298" lon="-8.022561064144602"><ele>651.0</ele><time>2026-04-15T12:18:58Z</time></trkpt><trkpt lat="29.712391646790774" lon="-8.022359890818766"><ele>649.6666666666666</ele><time>2026-04-15T12:18:59Z</time></trkpt><trkpt lat="29.712414314695614" lon="-8.02215995408507"><ele>648.3333333333333</ele><time>2026-04-15T12:19:00Z</time></trkpt><trkpt lat="29.71243470710087" lon="-8.021962668373572"><ele>647.0</ele><time>2026-04-15T12:19:01Z</time></trkpt><trkpt lat="29.712456330207903" lon="-8.021766552030423"><ele>647.3333333333333</ele><time>2026-04-15T12:19:02Z</time></trkpt><trkpt lat="29.712481568432743" lon="-8.021576448838195"><ele>647.6666666666666</ele><time>2026-04-15T12:19:03Z</time></trkpt><trkpt lat="29.71250391257066" lon="-8.021387100096023"><ele>648.0</ele><time>2026-04-15T12:19:04Z</time></trkpt><trkpt lat="29.712527094209957" lon="-8.021190856680247"><ele>648.0</ele><time>2026-04-15T12:19:05Z</time></trkpt><trkpt lat="29.71254849744474" lon="-8.02099425361581"><ele>648.0</ele><time>2026-04-15T12:19:06Z</time></trkpt><trkpt lat="29.712569674847977" lon="-8.020799738766412"><ele>648.0</ele><time>2026-04-15T12:19:07Z</time></trkpt><trkpt lat="29.71259450396137" lon="-8.020614624399546"><ele>646.6666666666666</ele><time>2026-04-15T12:19:08Z</time></trkpt><trkpt lat="29.71261563619271" lon="-8.020428716564316"><ele>645.3333333333333</ele><time>2026-04-15T12:19:09Z</time></trkpt><trkpt lat="29.712636880938593" lon="-8.020241424091068"><ele>644.0</ele><time>2026-04-15T12:19:10Z</time></trkpt><trkpt lat="29.712661420591136" lon="-8.020051539538112"><ele>643.0</ele><time>2026-04-15T12:19:11Z</time></trkpt><trkpt lat="29.712682748782445" lon="-8.01987006258198"><ele>642.0</ele><time>2026-04-15T12:19:12Z</time></trkpt><trkpt lat="29.712704189611657" lon="-8.019693746901533"><ele>641.0</ele><time>2026-04-15T12:19:13Z</time></trkpt><trkpt lat="29.71273125178323" lon="-8.019515894126435"><ele>643.0</ele><time>2026-04-15T12:19:14Z</time></trkpt><trkpt lat="29.71276521402219" lon="-8.019332109234668"><ele>645.0</ele><time>2026-04-15T12:19:15Z</time></trkpt><trkpt lat="29.712804583071648" lon="-8.019142716046833"><ele>647.0</ele><time>2026-04-15T12:19:16Z</time></trkpt><trkpt lat="29.71284700030506" lon="-8.018946569100486"><ele>647.0</ele><time>2026-04-15T12:19:17Z</time></trkpt><trkpt lat="29.712892895107366" lon="-8.018744484375993"><ele>647.0</ele><time>2026-04-15T12:19:18Z</time></trkpt><trkpt lat="29.712940435422375" lon="-8.01854511309806"><ele>647.0</ele><time>2026-04-15T12:19:19Z</time></trkpt><trkpt lat="29.712986855090865" lon="-8.018347212598556"><ele>645.0</ele><time>2026-04-15T12:19:20Z</time></trkpt><trkpt lat="29.71303447403297" lon="-8.018147266419819"><ele>643.0</ele><time>2026-04-15T12:19:21Z</time></trkpt><trkpt lat="29.713078979522656" lon="-8.017958077416525"><ele>641.0</ele><time>2026-04-15T12:19:22Z</time></trkpt><trkpt lat="29.713119765203604" lon="-8.017784763892754"><ele>641.0</ele><time>2026-04-15T12:19:23Z</time></trkpt><trkpt lat="29.7131582483978" lon="-8.017615396999204"><ele>641.0</ele><time>2026-04-15T12:19:24Z</time></trkpt><trkpt lat="29.71319498922125" lon="-8.017446222149664"><ele>641.0</ele><time>2026-04-15T12:19:25Z</time></trkpt><trkpt lat="29.7132342268852" lon="-8.01727282752254"><ele>641.3333333333333</ele><time>2026-04-15T12:19:26Z</time></trkpt><trkpt lat="29.713275377061045" lon="-8.017097950439712"><ele>641.6666666666666</ele><time>2026-04-15T12:19:27Z</time></trkpt><trkpt lat="29.713319236223878" lon="-8.016918169765693"><ele>642.0</ele><time>2026-04-15T12:19:28Z</time></trkpt><trkpt lat="29.71336375327328" lon="-8.01673782926032"><ele>641.3333333333334</ele><time>2026-04-15T12:19:29Z</time></trkpt><trkpt lat="29.713409199016834" lon="-8.016560107601256"><ele>640.6666666666667</ele><time>2026-04-15T12:19:30Z</time></trkpt><trkpt lat="29.713449640622994" lon="-8.016387560763956"><ele>640.0</ele><time>2026-04-15T12:19:31Z</time></trkpt><trkpt lat="29.71348563184398" lon="-8.016220657687333"><ele>640.0</ele><time>2026-04-15T12:19:32Z</time></trkpt><trkpt lat="29.713523827137408" lon="-8.016048847913874"><ele>640.0</ele><time>2026-04-15T12:19:33Z</time></trkpt><trkpt lat="29.713566264356402" lon="-8.015874540373455"><ele>640.0</ele><time>2026-04-15T12:19:34Z</time></trkpt><trkpt lat="29.713611012451565" lon="-8.015695190707667"><ele>642.0</ele><time>2026-04-15T12:19:35Z</time></trkpt><trkpt lat="29.713661023774744" lon="-8.015505460710115"><ele>644.0</ele><time>2026-04-15T12:19:36Z</time></trkpt><trkpt lat="29.71370625828346" lon="-8.015316945445223"><ele>646.0</ele><time>2026-04-15T12:19:37Z</time></trkpt><trkpt lat="29.71375261027639" lon="-8.015129615788556"><ele>645.0</ele><time>2026-04-15T12:19:38Z</time></trkpt><trkpt lat="29.71380187390157" lon="-8.014941990490247"><ele>644.0</ele><time>2026-04-15T12:19:39Z</time></trkpt><trkpt lat="29.71384503028046" lon="-8.014754329267925"><ele>643.0</ele><time>2026-04-15T12:19:40Z</time></trkpt><trkpt lat="29.713889657009304" lon="-8.014567746115393"><ele>643.0</ele><time>2026-04-15T12:19:41Z</time></trkpt><trkpt lat="29.713930219178856" lon="-8.014385485938458"><ele>643.0</ele><time>2026-04-15T12:19:42Z</time></trkpt><trkpt lat="29.7139687407416" lon="-8.014203751908273"><ele>643.0</ele><time>2026-04-15T12:19:43Z</time></trkpt><trkpt lat="29.713999260584373" lon="-8.014019039270586"><ele>641.6666666666667</ele><time>2026-04-15T12:19:44Z</time></trkpt><trkpt lat="29.714030816297612" lon="-8.013829745431563"><ele>640.3333333333334</ele><time>2026-04-15T12:19:45Z</time></trkpt><trkpt lat="29.714054949993226" lon="-8.01363635235802"><ele>639.0</ele><time>2026-04-15T12:19:46Z</time></trkpt><trkpt lat="29.714074108024263" lon="-8.013442317510643"><ele>638.6666666666666</ele><time>2026-04-15T12:19:47Z</time></trkpt><trkpt lat="29.71408189260224" lon="-8.013246029133928"><ele>638.3333333333333</ele><time>2026-04-15T12:19:48Z</time></trkpt><trkpt lat="29.714077469746513" lon="-8.013050693968081"><ele>638.0</ele><time>2026-04-15T12:19:49Z</time></trkpt><trkpt lat="29.714066346808163" lon="-8.01286162015949"><ele>638.0</ele><time>2026-04-15T12:19:50Z</time></trkpt><trkpt lat="29.71403792328527" lon="-8.012677400224531"><ele>638.0</ele><time>2026-04-15T12:19:51Z</time></trkpt><trkpt lat="29.714010356825508" lon="-8.012491813698983"><ele>638.0</ele><time>2026-04-15T12:19:52Z</time></trkpt><trkpt lat="29.71398042610261" lon="-8.012303656175549"><ele>638.3333333333333</ele><time>2026-04-15T12:19:53Z</time></trkpt><trkpt lat="29.713939769430322" lon="-8.012115810046897"><ele>638.6666666666666</ele><time>2026-04-15T12:19:54Z</time></trkpt><trkpt lat="29.713891807912454" lon="-8.01192601012363"><ele>639.0</ele><time>2026-04-15T12:19:55Z</time></trkpt><trkpt lat="29.713837096001402" lon="-8.011737156792426"><ele>639.6666666666666</ele><time>2026-04-15T12:19:56Z</time></trkpt><trkpt lat="29.713770481309854" lon="-8.011551535909927"><ele>640.3333333333333</ele><time>2026-04-15T12:19:57Z</time></trkpt><trkpt lat="29.713690041507405" lon="-8.011370759560208"><ele>641.0</ele><time>2026-04-15T12:19:58Z</time></trkpt><trkpt lat="29.713599903828857" lon="-8.011197775084268"><ele>641.0</ele><time>2026-04-15T12:19:59Z</time></trkpt><trkpt lat="29.71350732069048" lon="-8.011028665030043"><ele>641.0</ele><time>2026-04-15T12:20:00Z</time></trkpt><trkpt lat="29.713419064863817" lon="-8.01086311256511"><ele>641.0</ele><time>2026-04-15T12:20:01Z</time></trkpt><trkpt lat="29.71333309478951" lon="-8.010693987922823"><ele>641.0</ele><time>2026-04-15T12:20:02Z</time></trkpt><trkpt lat="29.71324562833828" lon="-8.010530030148638"><ele>641.0</ele><time>2026-04-15T12:20:03Z</time></trkpt><trkpt lat="29.713162296416005" lon="-8.01037001650948"><ele>641.0</ele><time>2026-04-15T12:20:04Z</time></trkpt><trkpt lat="29.71308086216178" lon="-8.010211409171447"><ele>641.0</ele><time>2026-04-15T12:20:05Z</time></trkpt><trkpt lat="29.713000287651333" lon="-8.010053533071096"><ele>641.0</ele><time>2026-04-15T12:20:06Z</time></trkpt><trkpt lat="29.712924755199854" lon="-8.009906544052889"><ele>641.0</ele><time>2026-04-15T12:20:07Z</time></trkpt><trkpt lat="29.7128540733368" lon="-8.009770571145792"><ele>641.0</ele><time>2026-04-15T12:20:08Z</time></trkpt><trkpt lat="29.71278298852935" lon="-8.009634582745726"><ele>640.75</ele><time>2026-04-15T12:20:09Z</time></trkpt><trkpt lat="29.712710357815453" lon="-8.00949598634313"><ele>640.5</ele><time>2026-04-15T12:20:10Z</time></trkpt><trkpt lat="29.712640127723784" lon="-8.009355320807504"><ele>640.25</ele><time>2026-04-15T12:20:11Z</time></trkpt><trkpt lat="29.71256626336275" lon="-8.009213564387396"><ele>640.0</ele><time>2026-04-15T12:20:12Z</time></trkpt><trkpt lat="29.71248403299247" lon="-8.009065010470714"><ele>640.0</ele><time>2026-04-15T12:20:13Z</time></trkpt><trkpt lat="29.712401957934027" lon="-8.008914825679664"><ele>640.0</ele><time>2026-04-15T12:20:14Z</time></trkpt><trkpt lat="29.71231963467647" lon="-8.008759121178795"><ele>640.0</ele><time>2026-04-15T12:20:15Z</time></trkpt><trkpt lat="29.712237858547716" lon="-8.008598312815298"><ele>640.0</ele><time>2026-04-15T12:20:16Z</time></trkpt><trkpt lat="29.71215523947779" lon="-8.008437770223187"><ele>640.0</ele><time>2026-04-15T12:20:17Z</time></trkpt><trkpt lat="29.712073982536005" lon="-8.008278756915814"><ele>640.0</ele><time>2026-04-15T12:20:18Z</time></trkpt><trkpt lat="29.711992101504304" lon="-8.008121770115094"><ele>639.6666666666667</ele><time>2026-04-15T12:20:19Z</time></trkpt><trkpt lat="29.711910499806628" lon="-8.00796854651913"><ele>639.3333333333334</ele><time>2026-04-15T12:20:20Z</time></trkpt><trkpt lat="29.711828844652075" lon="-8.007812926977714"><ele>639.0</ele><time>2026-04-15T12:20:21Z</time></trkpt><trkpt lat="29.71174400994201" lon="-8.00765293247711"><ele>641.0</ele><time>2026-04-15T12:20:22Z</time></trkpt><trkpt lat="29.711654315965855" lon="-8.007490396992548"><ele>643.0</ele><time>2026-04-15T12:20:23Z</time></trkpt><trkpt lat="29.711567338805633" lon="-8.007319750461356"><ele>645.0</ele><time>2026-04-15T12:20:24Z</time></trkpt><trkpt lat="29.711479339203102" lon="-8.007152554971253"><ele>645.0</ele><time>2026-04-15T12:20:25Z</time></trkpt><trkpt lat="29.711397005883082" lon="-8.006990765143412"><ele>645.0</ele><time>2026-04-15T12:20:26Z</time></trkpt><trkpt lat="29.711318969320924" lon="-8.006839813341193"><ele>645.0</ele><time>2026-04-15T12:20:27Z</time></trkpt><trkpt lat="29.711237470102954" lon="-8.006687332887005"><ele>644.3333333333334</ele><time>2026-04-15T12:20:28Z</time></trkpt><trkpt lat="29.711154648040196" lon="-8.006532230354136"><ele>643.6666666666667</ele><time>2026-04-15T12:20:29Z</time></trkpt><trkpt lat="29.711069714460923" lon="-8.006373355408423"><ele>643.0</ele><time>2026-04-15T12:20:30Z</time></trkpt><trkpt lat="29.71098548358866" lon="-8.006214224728653"><ele>642.3333333333334</ele><time>2026-04-15T12:20:31Z</time></trkpt><trkpt lat="29.71090082315572" lon="-8.006051579921067"><ele>641.6666666666666</ele><time>2026-04-15T12:20:32Z</time></trkpt><trkpt lat="29.710818895195207" lon="-8.005890422088205"><ele>641.0</ele><time>2026-04-15T12:20:33Z</time></trkpt><trkpt lat="29.710733518486" lon="-8.005731261724641"><ele>641.0</ele><time>2026-04-15T12:20:34Z</time></trkpt><trkpt lat="29.71064703473766" lon="-8.005572895517863"><ele>641.0</ele><time>2026-04-15T12:20:35Z</time></trkpt><trkpt lat="29.710563781770094" lon="-8.005414326800247"><ele>641.0</ele><time>2026-04-15T12:20:36Z</time></trkpt><trkpt lat="29.710479284288787" lon="-8.005253992728047"><ele>641.0</ele><time>2026-04-15T12:20:37Z</time></trkpt><trkpt lat="29.710393111263695" lon="-8.005088633152432"><ele>641.0</ele><time>2026-04-15T12:20:38Z</time></trkpt><trkpt lat="29.710306372208365" lon="-8.00492021192566"><ele>641.0</ele><time>2026-04-15T12:20:39Z</time></trkpt><trkpt lat="29.7102213364001" lon="-8.004756771418377"><ele>640.3333333333333</ele><time>2026-04-15T12:20:40Z</time></trkpt><trkpt lat="29.710137030058313" lon="-8.004595320078895"><ele>639.6666666666666</ele><time>2026-04-15T12:20:41Z</time></trkpt><trkpt lat="29.71005216843416" lon="-8.004437038750275"><ele>639.0</ele><time>2026-04-15T12:20:42Z</time></trkpt><trkpt lat="29.709968871355134" lon="-8.004281234043564"><ele>639.0</ele><time>2026-04-15T12:20:43Z</time></trkpt><trkpt lat="29.70988638502102" lon="-8.004125319332688"><ele>639.0</ele><time>2026-04-15T12:20:44Z</time></trkpt><trkpt lat="29.709799788686507" lon="-8.003964183534219"><ele>639.0</ele><time>2026-04-15T12:20:45Z</time></trkpt><trkpt lat="29.709714764049757" lon="-8.003801967351214"><ele>639.0</ele><time>2026-04-15T12:20:46Z</time></trkpt><trkpt lat="29.709626399241944" lon="-8.003636146029637"><ele>639.0</ele><time>2026-04-15T12:20:47Z</time></trkpt><trkpt lat="29.709537126335785" lon="-8.003468618200577"><ele>639.0</ele><time>2026-04-15T12:20:48Z</time></trkpt><trkpt lat="29.70944351642947" lon="-8.003297792295646"><ele>639.0</ele><time>2026-04-15T12:20:49Z</time></trkpt><trkpt lat="29.709353083177888" lon="-8.003126569803655"><ele>639.0</ele><time>2026-04-15T12:20:50Z</time></trkpt><trkpt lat="29.709268936416933" lon="-8.002952676768022"><ele>639.0</ele><time>2026-04-15T12:20:51Z</time></trkpt><trkpt lat="29.709187888964582" lon="-8.002779365099128"><ele>639.0</ele><time>2026-04-15T12:20:52Z</time></trkpt><trkpt lat="29.709114877248474" lon="-8.00261594311794"><ele>639.0</ele><time>2026-04-15T12:20:53Z</time></trkpt><trkpt lat="29.70904396289628" lon="-8.002449909960903"><ele>639.0</ele><time>2026-04-15T12:20:54Z</time></trkpt><trkpt lat="29.708978232905935" lon="-8.002284557994384"><ele>637.6666666666666</ele><time>2026-04-15T12:20:55Z</time></trkpt><trkpt lat="29.70890952187192" lon="-8.002116203233388"><ele>636.3333333333333</ele><time>2026-04-15T12:20:56Z</time></trkpt><trkpt lat="29.70885161427083" lon="-8.001948552497852"><ele>635.0</ele><time>2026-04-15T12:20:57Z</time></trkpt><trkpt lat="29.70880173612911" lon="-8.001786471964312"><ele>634.75</ele><time>2026-04-15T12:20:58Z</time></trkpt><trkpt lat="29.708755570281077" lon="-8.00163340113575"><ele>634.5</ele><time>2026-04-15T12:20:59Z</time></trkpt><trkpt lat="29.708717664312687" lon="-8.001483180890151"><ele>634.25</ele><time>2026-04-15T12:21:00Z</time></trkpt><trkpt lat="29.708692723944857" lon="-8.001339911268118"><ele>634.0</ele><time>2026-04-15T12:21:01Z</time></trkpt><trkpt lat="29.708674027352753" lon="-8.00119438902132"><ele>634.0</ele><time>2026-04-15T12:21:02Z</time></trkpt><trkpt lat="29.708654044966412" lon="-8.001048674831704"><ele>634.0</ele><time>2026-04-15T12:21:03Z</time></trkpt><trkpt lat="29.708632198469246" lon="-8.000892290967872"><ele>634.0</ele><time>2026-04-15T12:21:04Z</time></trkpt><trkpt lat="29.708615833404984" lon="-8.000728393394981"><ele>634.0</ele><time>2026-04-15T12:21:05Z</time></trkpt><trkpt lat="29.708602923118132" lon="-8.000563361073214"><ele>633.3333333333334</ele><time>2026-04-15T12:21:06Z</time></trkpt><trkpt lat="29.70859250865292" lon="-8.000394526768233"><ele>632.6666666666666</ele><time>2026-04-15T12:21:07Z</time></trkpt><trkpt lat="29.708583471830668" lon="-8.000215687947739"><ele>632.0</ele><time>2026-04-15T12:21:08Z</time></trkpt><trkpt lat="29.70857850672784" lon="-8.000035433228327"><ele>631.3333333333333</ele><time>2026-04-15T12:21:09Z</time></trkpt><trkpt lat="29.708572919827702" lon="-7.999854856165142"><ele>630.6666666666666</ele><time>2026-04-15T12:21:10Z</time></trkpt><trkpt lat="29.708574084329776" lon="-7.999674980900934"><ele>630.0</ele><time>2026-04-15T12:21:11Z</time></trkpt><trkpt lat="29.708572024370262" lon="-7.999495517957669"><ele>630.0</ele><time>2026-04-15T12:21:12Z</time></trkpt><trkpt lat="29.708565225577402" lon="-7.999310766726997"><ele>630.0</ele><time>2026-04-15T12:21:13Z</time></trkpt><trkpt lat="29.708552063037374" lon="-7.999119230562731"><ele>630.0</ele><time>2026-04-15T12:21:14Z</time></trkpt><trkpt lat="29.70853803591901" lon="-7.998923943209951"><ele>630.0</ele><time>2026-04-15T12:21:15Z</time></trkpt><trkpt lat="29.708526923474096" lon="-7.998728550837278"><ele>630.0</ele><time>2026-04-15T12:21:16Z</time></trkpt><trkpt lat="29.708514234935283" lon="-7.998548643338586"><ele>630.0</ele><time>2026-04-15T12:21:17Z</time></trkpt><trkpt lat="29.70850534885775" lon="-7.998379334157965"><ele>630.0</ele><time>2026-04-15T12:21:18Z</time></trkpt><trkpt lat="29.70849977123204" lon="-7.998218178681866"><ele>630.0</ele><time>2026-04-15T12:21:19Z</time></trkpt><trkpt lat="29.708492845426676" lon="-7.9980549787532365"><ele>630.0</ele><time>2026-04-15T12:21:20Z</time></trkpt><trkpt lat="29.70848491774453" lon="-7.99789331744945"><ele>630.0</ele><time>2026-04-15T12:21:21Z</time></trkpt><trkpt lat="29.708477070120757" lon="-7.997731198788204"><ele>630.0</ele><time>2026-04-15T12:21:22Z</time></trkpt><trkpt lat="29.708470137786357" lon="-7.99757059496234"><ele>630.0</ele><time>2026-04-15T12:21:23Z</time></trkpt><trkpt lat="29.708465020988115" lon="-7.997411599977814"><ele>630.0</ele><time>2026-04-15T12:21:24Z</time></trkpt><trkpt lat="29.708459884635197" lon="-7.997257501633934"><ele>630.0</ele><time>2026-04-15T12:21:25Z</time></trkpt><trkpt lat="29.708453614464183" lon="-7.997107925866246"><ele>629.75</ele><time>2026-04-15T12:21:26Z</time></trkpt><trkpt lat="29.708449437915704" lon="-7.996957327150517"><ele>629.5</ele><time>2026-04-15T12:21:27Z</time></trkpt><trkpt lat="29.708443483821885" lon="-7.996809108736759"><ele>629.25</ele><time>2026-04-15T12:21:28Z</time></trkpt><trkpt lat="29.70843448754981" lon="-7.996664302781162"><ele>629.0</ele><time>2026-04-15T12:21:29Z</time></trkpt><trkpt lat="29.708426838855154" lon="-7.996527843132865"><ele>629.0</ele><time>2026-04-15T12:21:30Z</time></trkpt><trkpt lat="29.70841775973839" lon="-7.9963910571098"><ele>629.0</ele><time>2026-04-15T12:21:31Z</time></trkpt><trkpt lat="29.708407538622065" lon="-7.996253548433792"><ele>629.0</ele><time>2026-04-15T12:21:32Z</time></trkpt><trkpt lat="29.70839995758" lon="-7.996117977516095"><ele>629.0</ele><time>2026-04-15T12:21:33Z</time></trkpt><trkpt lat="29.708392866846825" lon="-7.995978388356807"><ele>629.0</ele><time>2026-04-15T12:21:34Z</time></trkpt><trkpt lat="29.708389262347684" lon="-7.995837006074073"><ele>629.0</ele><time>2026-04-15T12:21:35Z</time></trkpt><trkpt lat="29.708385619451118" lon="-7.995692099826885"><ele>629.0</ele><time>2026-04-15T12:21:36Z</time></trkpt><trkpt lat="29.708384224274607" lon="-7.9955447915949165"><ele>629.0</ele><time>2026-04-15T12:21:37Z</time></trkpt><trkpt lat="29.7083778108072" lon="-7.995399523519051"><ele>631.25</ele><time>2026-04-15T12:21:38Z</time></trkpt><trkpt lat="29.708371675927193" lon="-7.99525345308171"><ele>633.5</ele><time>2026-04-15T12:21:39Z</time></trkpt><trkpt lat="29.70836704218632" lon="-7.99510161755792"><ele>635.75</ele><time>2026-04-15T12:21:40Z</time></trkpt><trkpt lat="29.708362766819015" lon="-7.9949462987364415"><ele>638.0</ele><time>2026-04-15T12:21:41Z</time></trkpt><trkpt lat="29.708368917721852" lon="-7.994785393056835"><ele>638.5</ele><time>2026-04-15T12:21:42Z</time></trkpt><trkpt lat="29.708380726086133" lon="-7.99462736427921"><ele>639.0</ele><time>2026-04-15T12:21:43Z</time></trkpt><trkpt lat="29.708396842425703" lon="-7.994481273712544"><ele>639.5</ele><time>2026-04-15T12:21:44Z</time></trkpt><trkpt lat="29.70841867576713" lon="-7.99433921518619"><ele>640.0</ele><time>2026-04-15T12:21:45Z</time></trkpt><trkpt lat="29.708445465386305" lon="-7.994196883147012"><ele>640.0</ele><time>2026-04-15T12:21:46Z</time></trkpt><trkpt lat="29.708474044983756" lon="-7.994055185390467"><ele>640.0</ele><time>2026-04-15T12:21:47Z</time></trkpt><trkpt lat="29.70850483405433" lon="-7.993908439551695"><ele>640.0</ele><time>2026-04-15T12:21:48Z</time></trkpt><trkpt lat="29.70854124146629" lon="-7.993763344693844"><ele>640.0</ele><time>2026-04-15T12:21:49Z</time></trkpt><trkpt lat="29.708583656957913" lon="-7.99361275732789"><ele>644.0</ele><time>2026-04-15T12:21:50Z</time></trkpt><trkpt lat="29.708627963308412" lon="-7.9934677140284585"><ele>648.0</ele><time>2026-04-15T12:21:51Z</time></trkpt><trkpt lat="29.708674080400016" lon="-7.993321845145023"><ele>652.0</ele><time>2026-04-15T12:21:52Z</time></trkpt><trkpt lat="29.708720512833303" lon="-7.993162255737481"><ele>656.0</ele><time>2026-04-15T12:21:53Z</time></trkpt><trkpt lat="29.708766965507234" lon="-7.992993193215064"><ele>656.0</ele><time>2026-04-15T12:21:54Z</time></trkpt><trkpt lat="29.70881496817259" lon="-7.992823453356368"><ele>656.0</ele><time>2026-04-15T12:21:55Z</time></trkpt><trkpt lat="29.708861171946445" lon="-7.992659058996363"><ele>656.0</ele><time>2026-04-15T12:21:56Z</time></trkpt><trkpt lat="29.708912619154038" lon="-7.9924925957768185"><ele>654.6666666666666</ele><time>2026-04-15T12:21:57Z</time></trkpt><trkpt lat="29.708964276255344" lon="-7.992321463523996"><ele>653.3333333333334</ele><time>2026-04-15T12:21:58Z</time></trkpt><trkpt lat="29.709015090192185" lon="-7.992142351155407"><ele>652.0</ele><time>2026-04-15T12:21:59Z</time></trkpt><trkpt lat="29.709065768480976" lon="-7.9919594700416425"><ele>652.0</ele><time>2026-04-15T12:22:00Z</time></trkpt><trkpt lat="29.709120539571963" lon="-7.991774103069949"><ele>652.0</ele><time>2026-04-15T12:22:01Z</time></trkpt><trkpt lat="29.70917969651023" lon="-7.991589807856886"><ele>652.0</ele><time>2026-04-15T12:22:02Z</time></trkpt><trkpt lat="29.709237743810537" lon="-7.991405308944525"><ele>648.6666666666667</ele><time>2026-04-15T12:22:03Z</time></trkpt><trkpt lat="29.70929251092528" lon="-7.991225663226379"><ele>645.3333333333334</ele><time>2026-04-15T12:22:04Z</time></trkpt><trkpt lat="29.709346682393917" lon="-7.991053919134549"><ele>642.0</ele><time>2026-04-15T12:22:05Z</time></trkpt><trkpt lat="29.709397383037206" lon="-7.990880272686782"><ele>644.0</ele><time>2026-04-15T12:22:06Z</time></trkpt><trkpt lat="29.709447427105797" lon="-7.990706930452238"><ele>646.0</ele><time>2026-04-15T12:22:07Z</time></trkpt><trkpt lat="29.70949969649854" lon="-7.990532431242226"><ele>648.0</ele><time>2026-04-15T12:22:08Z</time></trkpt><trkpt lat="29.70955460463516" lon="-7.990356898380004"><ele>648.0</ele><time>2026-04-15T12:22:09Z</time></trkpt><trkpt lat="29.70960813970551" lon="-7.99018144572636"><ele>648.0</ele><time>2026-04-15T12:22:10Z</time></trkpt><trkpt lat="29.709661841021607" lon="-7.990003571845916"><ele>648.0</ele><time>2026-04-15T12:22:11Z</time></trkpt><trkpt lat="29.70971556508222" lon="-7.989824392667811"><ele>645.0</ele><time>2026-04-15T12:22:12Z</time></trkpt><trkpt lat="29.709769446225522" lon="-7.989642733487379"><ele>642.0</ele><time>2026-04-15T12:22:13Z</time></trkpt><trkpt lat="29.70982209256643" lon="-7.989472606461371"><ele>639.0</ele><time>2026-04-15T12:22:14Z</time></trkpt><trkpt lat="29.709868912091544" lon="-7.989309813957102"><ele>639.0</ele><time>2026-04-15T12:22:15Z</time></trkpt><trkpt lat="29.709913692498848" lon="-7.989155458964744"><ele>639.0</ele><time>2026-04-15T12:22:16Z</time></trkpt><trkpt lat="29.709959778589877" lon="-7.989001686753758"><ele>639.0</ele><time>2026-04-15T12:22:17Z</time></trkpt><trkpt lat="29.71000692760406" lon="-7.98884312061976"><ele>639.0</ele><time>2026-04-15T12:22:18Z</time></trkpt><trkpt lat="29.710054567234135" lon="-7.98867694191596"><ele>639.0</ele><time>2026-04-15T12:22:19Z</time></trkpt><trkpt lat="29.710103581674023" lon="-7.9885095218316575"><ele>639.0</ele><time>2026-04-15T12:22:20Z</time></trkpt><trkpt lat="29.7101543720088" lon="-7.988345494785011"><ele>639.0</ele><time>2026-04-15T12:22:21Z</time></trkpt><trkpt lat="29.71020568440443" lon="-7.988183268273895"><ele>641.5</ele><time>2026-04-15T12:22:22Z</time></trkpt><trkpt lat="29.710256988756424" lon="-7.988020565493692"><ele>644.0</ele><time>2026-04-15T12:22:23Z</time></trkpt><trkpt lat="29.710301406395665" lon="-7.987860354124009"><ele>646.5</ele><time>2026-04-15T12:22:24Z</time></trkpt><trkpt lat="29.71033494213703" lon="-7.987706787532984"><ele>649.0</ele><time>2026-04-15T12:22:25Z</time></trkpt><trkpt lat="29.7103623815591" lon="-7.98755024246672"><ele>647.5</ele><time>2026-04-15T12:22:26Z</time></trkpt><trkpt lat="29.71039118737003" lon="-7.987387436515048"><ele>646.0</ele><time>2026-04-15T12:22:27Z</time></trkpt><trkpt lat="29.710414499682567" lon="-7.987218421620484"><ele>644.5</ele><time>2026-04-15T12:22:28Z</time></trkpt><trkpt lat="29.71042571377538" lon="-7.987044013736373"><ele>643.0</ele><time>2026-04-15T12:22:29Z</time></trkpt><trkpt lat="29.71043331317148" lon="-7.986865735832842"><ele>643.0</ele><time>2026-04-15T12:22:30Z</time></trkpt><trkpt lat="29.710437718475784" lon="-7.986685205209649"><ele>643.0</ele><time>2026-04-15T12:22:31Z</time></trkpt><trkpt lat="29.71044043440017" lon="-7.986509691686195"><ele>643.0</ele><time>2026-04-15T12:22:32Z</time></trkpt><trkpt lat="29.710437111515063" lon="-7.986335669971786"><ele>642.3333333333334</ele><time>2026-04-15T12:22:33Z</time></trkpt><trkpt lat="29.710425889032905" lon="-7.986160943499492"><ele>641.6666666666666</ele><time>2026-04-15T12:22:34Z</time></trkpt><trkpt lat="29.71040242365434" lon="-7.985985591894912"><ele>641.0</ele><time>2026-04-15T12:22:35Z</time></trkpt><trkpt lat="29.71037397911965" lon="-7.985806814050576"><ele>639.0</ele><time>2026-04-15T12:22:36Z</time></trkpt><trkpt lat="29.710340514231156" lon="-7.985627180557218"><ele>637.0</ele><time>2026-04-15T12:22:37Z</time></trkpt><trkpt lat="29.71029291814846" lon="-7.985451218572072"><ele>635.0</ele><time>2026-04-15T12:22:38Z</time></trkpt><trkpt lat="29.710238765299795" lon="-7.985273662925211"><ele>634.6666666666666</ele><time>2026-04-15T12:22:39Z</time></trkpt><trkpt lat="29.71018182448699" lon="-7.9850948586563595"><ele>634.3333333333334</ele><time>2026-04-15T12:22:40Z</time></trkpt><trkpt lat="29.71012032194804" lon="-7.984918017975963"><ele>634.0</ele><time>2026-04-15T12:22:41Z</time></trkpt><trkpt lat="29.71004660290133" lon="-7.984748919037226"><ele>634.0</ele><time>2026-04-15T12:22:42Z</time></trkpt><trkpt lat="29.70996872758219" lon="-7.9845835666012634"><ele>634.0</ele><time>2026-04-15T12:22:43Z</time></trkpt><trkpt lat="29.709889949144845" lon="-7.984417649239603"><ele>634.0</ele><time>2026-04-15T12:22:44Z</time></trkpt><trkpt lat="29.70981194847421" lon="-7.984251005446922"><ele>634.0</ele><time>2026-04-15T12:22:45Z</time></trkpt><trkpt lat="29.709736747618564" lon="-7.984085612991908"><ele>634.0</ele><time>2026-04-15T12:22:46Z</time></trkpt><trkpt lat="29.709659573287404" lon="-7.9839184072069465"><ele>634.0</ele><time>2026-04-15T12:22:47Z</time></trkpt><trkpt lat="29.709585232358116" lon="-7.983748831560012"><ele>634.0</ele><time>2026-04-15T12:22:48Z</time></trkpt><trkpt lat="29.70950929719696" lon="-7.9835825926472825"><ele>634.0</ele><time>2026-04-15T12:22:49Z</time></trkpt><trkpt lat="29.709429470210797" lon="-7.983417499527352"><ele>634.0</ele><time>2026-04-15T12:22:50Z</time></trkpt><trkpt lat="29.709354088691974" lon="-7.983248089676652"><ele>633.6666666666667</ele><time>2026-04-15T12:22:51Z</time></trkpt><trkpt lat="29.70927690850328" lon="-7.983080071866045"><ele>633.3333333333334</ele><time>2026-04-15T12:22:52Z</time></trkpt><trkpt lat="29.709199191402984" lon="-7.982906885868883"><ele>633.0</ele><time>2026-04-15T12:22:53Z</time></trkpt><trkpt lat="29.709117657581327" lon="-7.982729852802947"><ele>633.0</ele><time>2026-04-15T12:22:54Z</time></trkpt><trkpt lat="29.70903844718349" lon="-7.9825466243818015"><ele>633.0</ele><time>2026-04-15T12:22:55Z</time></trkpt><trkpt lat="29.708958972098817" lon="-7.98236225921692"><ele>633.0</ele><time>2026-04-15T12:22:56Z</time></trkpt><trkpt lat="29.708876741229748" lon="-7.982177263917785"><ele>633.3333333333334</ele><time>2026-04-15T12:22:57Z</time></trkpt><trkpt lat="29.708793919164357" lon="-7.9819938554386125"><ele>633.6666666666667</ele><time>2026-04-15T12:22:58Z</time></trkpt><trkpt lat="29.70871277086799" lon="-7.9818071856942705"><ele>634.0</ele><time>2026-04-15T12:22:59Z</time></trkpt><trkpt lat="29.708631197927588" lon="-7.981621051714327"><ele>633.6666666666667</ele><time>2026-04-15T12:23:00Z</time></trkpt><trkpt lat="29.708548116303074" lon="-7.981428721160108"><ele>633.3333333333334</ele><time>2026-04-15T12:23:01Z</time></trkpt><trkpt lat="29.708463149440696" lon="-7.9812341220689715"><ele>633.0</ele><time>2026-04-15T12:23:02Z</time></trkpt><trkpt lat="29.708377329382802" lon="-7.981035768891426"><ele>632.0</ele><time>2026-04-15T12:23:03Z</time></trkpt><trkpt lat="29.708289732168694" lon="-7.980835965062681"><ele>631.0</ele><time>2026-04-15T12:23:04Z</time></trkpt><trkpt lat="29.70819671454262" lon="-7.980636652727018"><ele>630.0</ele><time>2026-04-15T12:23:05Z</time></trkpt><trkpt lat="29.708103090711788" lon="-7.980437938416935"><ele>630.0</ele><time>2026-04-15T12:23:06Z</time></trkpt><trkpt lat="29.708013626099824" lon="-7.980242921035914"><ele>630.0</ele><time>2026-04-15T12:23:07Z</time></trkpt><trkpt lat="29.70793068569031" lon="-7.980044193212606"><ele>630.0</ele><time>2026-04-15T12:23:08Z</time></trkpt><trkpt lat="29.70784268942411" lon="-7.9798513819117405"><ele>630.0</ele><time>2026-04-15T12:23:09Z</time></trkpt><trkpt lat="29.707756117406987" lon="-7.979658826081791"><ele>630.0</ele><time>2026-04-15T12:23:10Z</time></trkpt><trkpt lat="29.707667513331852" lon="-7.979463318633281"><ele>630.0</ele><time>2026-04-15T12:23:11Z</time></trkpt><trkpt lat="29.707574095499268" lon="-7.979258162790739"><ele>631.6666666666666</ele><time>2026-04-15T12:23:12Z</time></trkpt><trkpt lat="29.707479074733293" lon="-7.979046174100674"><ele>633.3333333333333</ele><time>2026-04-15T12:23:13Z</time></trkpt><trkpt lat="29.707380442803437" lon="-7.978833927378935"><ele>635.0</ele><time>2026-04-15T12:23:14Z</time></trkpt><trkpt lat="29.707286642076674" lon="-7.97862999479974"><ele>635.0</ele><time>2026-04-15T12:23:15Z</time></trkpt><trkpt lat="29.70720257338204" lon="-7.978437119327654"><ele>635.0</ele><time>2026-04-15T12:23:16Z</time></trkpt><trkpt lat="29.707121439768528" lon="-7.978253001454561"><ele>635.0</ele><time>2026-04-15T12:23:17Z</time></trkpt><trkpt lat="29.707039133412106" lon="-7.978074687574058"><ele>634.6666666666666</ele><time>2026-04-15T12:23:18Z</time></trkpt><trkpt lat="29.706957637604717" lon="-7.977900669839225"><ele>634.3333333333334</ele><time>2026-04-15T12:23:19Z</time></trkpt><trkpt lat="29.706876577506808" lon="-7.9777291189000294"><ele>634.0</ele><time>2026-04-15T12:23:20Z</time></trkpt><trkpt lat="29.706803017732497" lon="-7.9775618355800155"><ele>634.0</ele><time>2026-04-15T12:23:21Z</time></trkpt><trkpt lat="29.706735917216005" lon="-7.977405840195596"><ele>634.0</ele><time>2026-04-15T12:23:22Z</time></trkpt><trkpt lat="29.70667485237846" lon="-7.9772580908371955"><ele>634.0</ele><time>2026-04-15T12:23:23Z</time></trkpt><trkpt lat="29.70660603923219" lon="-7.977113193651249"><ele>634.0</ele><time>2026-04-15T12:23:24Z</time></trkpt><trkpt lat="29.70653319804843" lon="-7.976977323899019"><ele>634.0</ele><time>2026-04-15T12:23:25Z</time></trkpt><trkpt lat="29.70646252872636" lon="-7.97685159466754"><ele>634.0</ele><time>2026-04-15T12:23:26Z</time></trkpt><trkpt lat="29.706401491139406" lon="-7.976734825675344"><ele>634.0</ele><time>2026-04-15T12:23:27Z</time></trkpt><trkpt lat="29.706345410294727" lon="-7.9766277006185495"><ele>634.0</ele><time>2026-04-15T12:23:28Z</time></trkpt><trkpt lat="29.706288216529696" lon="-7.9765289317212575"><ele>633.6</ele><time>2026-04-15T12:23:29Z</time></trkpt><trkpt lat="29.706223916066286" lon="-7.976446195755527"><ele>633.2</ele><time>2026-04-15T12:23:30Z</time></trkpt><trkpt lat="29.706174702293815" lon="-7.9763851405794"><ele>632.8000000000001</ele><time>2026-04-15T12:23:31Z</time></trkpt><trkpt lat="29.706140480968326" lon="-7.9763057758929"><ele>632.4</ele><time>2026-04-15T12:23:33Z</time></trkpt><trkpt lat="29.706149384486142" lon="-7.976192920703635"><ele>632.0</ele><time>2026-04-15T12:23:36Z</time></trkpt><trkpt lat="29.706221994605844" lon="-7.97609764663205"><ele>632.0</ele><time>2026-04-15T12:23:38Z</time></trkpt><trkpt lat="29.706281599481066" lon="-7.976061607691647"><ele>632.0</ele><time>2026-04-15T12:23:39Z</time></trkpt><trkpt lat="29.706340415347984" lon="-7.9760203845981446"><ele>632.0</ele><time>2026-04-15T12:23:40Z</time></trkpt><trkpt lat="29.70640459789999" lon="-7.975969130537803"><ele>632.0</ele><time>2026-04-15T12:23:41Z</time></trkpt><trkpt lat="29.70647555453128" lon="-7.975914538062159"><ele>632.0</ele><time>2026-04-15T12:23:42Z</time></trkpt><trkpt lat="29.706552010657894" lon="-7.9758476830131135"><ele>632.0</ele><time>2026-04-15T12:23:43Z</time></trkpt><trkpt lat="29.70663221176967" lon="-7.97578086915517"><ele>633.0</ele><time>2026-04-15T12:23:44Z</time></trkpt><trkpt lat="29.70671261560023" lon="-7.975715526466692"><ele>634.0</ele><time>2026-04-15T12:23:45Z</time></trkpt><trkpt lat="29.706796899313723" lon="-7.9756451899220275"><ele>635.0</ele><time>2026-04-15T12:23:46Z</time></trkpt><trkpt lat="29.706888230483788" lon="-7.975569265279844"><ele>636.0</ele><time>2026-04-15T12:23:47Z</time></trkpt><trkpt lat="29.70698583596881" lon="-7.975489618075469"><ele>637.0</ele><time>2026-04-15T12:23:48Z</time></trkpt><trkpt lat="29.707091204018756" lon="-7.975403028050091"><ele>638.0</ele><time>2026-04-15T12:23:49Z</time></trkpt><trkpt lat="29.70719670721559" lon="-7.975313482567377"><ele>639.0</ele><time>2026-04-15T12:23:50Z</time></trkpt><trkpt lat="29.70730033617846" lon="-7.975221117458531"><ele>640.0</ele><time>2026-04-15T12:23:51Z</time></trkpt><trkpt lat="29.707404294906034" lon="-7.975131241246398"><ele>641.0</ele><time>2026-04-15T12:23:52Z</time></trkpt><trkpt lat="29.70751528554743" lon="-7.975038669138957"><ele>640.75</ele><time>2026-04-15T12:23:53Z</time></trkpt><trkpt lat="29.7076306113527" lon="-7.974943924825845"><ele>640.5</ele><time>2026-04-15T12:23:54Z</time></trkpt><trkpt lat="29.707751905678133" lon="-7.974844995658856"><ele>640.25</ele><time>2026-04-15T12:23:55Z</time></trkpt><trkpt lat="29.70787551984427" lon="-7.974745444806333"><ele>640.0</ele><time>2026-04-15T12:23:56Z</time></trkpt><trkpt lat="29.708003346541485" lon="-7.974640572035125"><ele>640.0</ele><time>2026-04-15T12:23:57Z</time></trkpt><trkpt lat="29.70813088417085" lon="-7.974535964806042"><ele>640.0</ele><time>2026-04-15T12:23:58Z</time></trkpt><trkpt lat="29.708254185999756" lon="-7.974432392534614"><ele>640.0</ele><time>2026-04-15T12:23:59Z</time></trkpt><trkpt lat="29.708380670352746" lon="-7.974325237046122"><ele>640.0</ele><time>2026-04-15T12:24:00Z</time></trkpt><trkpt lat="29.708514182250177" lon="-7.97422036051387"><ele>640.0</ele><time>2026-04-15T12:24:01Z</time></trkpt><trkpt lat="29.708638235053474" lon="-7.974092587880692"><ele>640.0</ele><time>2026-04-15T12:24:02Z</time></trkpt><trkpt lat="29.708775805356836" lon="-7.973978253375137"><ele>639.6666666666667</ele><time>2026-04-15T12:24:03Z</time></trkpt><trkpt lat="29.708916387944996" lon="-7.973861487485487"><ele>639.3333333333334</ele><time>2026-04-15T12:24:04Z</time></trkpt><trkpt lat="29.709060305695385" lon="-7.973741756863352"><ele>639.0</ele><time>2026-04-15T12:24:05Z</time></trkpt><trkpt lat="29.70920493407678" lon="-7.9736206949228015"><ele>639.0</ele><time>2026-04-15T12:24:06Z</time></trkpt><trkpt lat="29.709348995520777" lon="-7.973500779152278"><ele>639.0</ele><time>2026-04-15T12:24:07Z</time></trkpt><trkpt lat="29.70950244365337" lon="-7.97339547430192"><ele>639.0</ele><time>2026-04-15T12:24:08Z</time></trkpt><trkpt lat="29.709641415909235" lon="-7.973276507254631"><ele>639.3333333333334</ele><time>2026-04-15T12:24:09Z</time></trkpt><trkpt lat="29.709784019553886" lon="-7.973157367685698"><ele>639.6666666666667</ele><time>2026-04-15T12:24:10Z</time></trkpt><trkpt lat="29.709923126704886" lon="-7.973041107253725"><ele>640.0</ele><time>2026-04-15T12:24:11Z</time></trkpt><trkpt lat="29.710051258677552" lon="-7.972914317173457"><ele>640.0</ele><time>2026-04-15T12:24:12Z</time></trkpt><trkpt lat="29.710184487433935" lon="-7.972803070530644"><ele>640.0</ele><time>2026-04-15T12:24:13Z</time></trkpt><trkpt lat="29.71031501118966" lon="-7.972694392833106"><ele>640.0</ele><time>2026-04-15T12:24:14Z</time></trkpt><trkpt lat="29.710446889935593" lon="-7.972584325425848"><ele>640.6666666666667</ele><time>2026-04-15T12:24:15Z</time></trkpt><trkpt lat="29.710587291382023" lon="-7.972492826151426"><ele>641.3333333333334</ele><time>2026-04-15T12:24:16Z</time></trkpt><trkpt lat="29.71070847267523" lon="-7.97237921801018"><ele>642.0</ele><time>2026-04-15T12:24:17Z</time></trkpt><trkpt lat="29.71083860012746" lon="-7.97227726037826"><ele>642.0</ele><time>2026-04-15T12:24:18Z</time></trkpt><trkpt lat="29.71096357738479" lon="-7.972173475904209"><ele>642.0</ele><time>2026-04-15T12:24:19Z</time></trkpt><trkpt lat="29.711084878219797" lon="-7.972071218160081"><ele>642.0</ele><time>2026-04-15T12:24:20Z</time></trkpt><trkpt lat="29.711207263343635" lon="-7.971971617719016"><ele>642.25</ele><time>2026-04-15T12:24:21Z</time></trkpt><trkpt lat="29.711331106170007" lon="-7.9718726711729015"><ele>642.5</ele><time>2026-04-15T12:24:22Z</time></trkpt><trkpt lat="29.71144962175909" lon="-7.971769683285346"><ele>642.75</ele><time>2026-04-15T12:24:23Z</time></trkpt><trkpt lat="29.711570308288135" lon="-7.9716686649981785"><ele>643.0</ele><time>2026-04-15T12:24:24Z</time></trkpt><trkpt lat="29.711684810420277" lon="-7.971570556476534"><ele>643.0</ele><time>2026-04-15T12:24:25Z</time></trkpt><trkpt lat="29.711796361948757" lon="-7.971475104783628"><ele>643.0</ele><time>2026-04-15T12:24:26Z</time></trkpt><trkpt lat="29.711909009436013" lon="-7.971377906175495"><ele>643.0</ele><time>2026-04-15T12:24:27Z</time></trkpt><trkpt lat="29.712022264983023" lon="-7.9712818610189755"><ele>643.0</ele><time>2026-04-15T12:24:28Z</time></trkpt><trkpt lat="29.71213859807606" lon="-7.971187697302857"><ele>643.0</ele><time>2026-04-15T12:24:29Z</time></trkpt><trkpt lat="29.712259059324143" lon="-7.97109065952711"><ele>643.0</ele><time>2026-04-15T12:24:30Z</time></trkpt><trkpt lat="29.712378849880047" lon="-7.9709916344828775"><ele>643.0</ele><time>2026-04-15T12:24:31Z</time></trkpt><trkpt lat="29.712504092278017" lon="-7.970891244994039"><ele>643.0</ele><time>2026-04-15T12:24:32Z</time></trkpt><trkpt lat="29.712625485169024" lon="-7.970792247354561"><ele>643.3333333333334</ele><time>2026-04-15T12:24:33Z</time></trkpt><trkpt lat="29.71274698468103" lon="-7.970687467612201"><ele>643.6666666666666</ele><time>2026-04-15T12:24:34Z</time></trkpt><trkpt lat="29.71287007002625" lon="-7.970581721446617"><ele>644.0</ele><time>2026-04-15T12:24:35Z</time></trkpt><trkpt lat="29.712993391923405" lon="-7.9704749070489145"><ele>644.0</ele><time>2026-04-15T12:24:36Z</time></trkpt><trkpt lat="29.71311377149585" lon="-7.970364485655443"><ele>644.0</ele><time>2026-04-15T12:24:37Z</time></trkpt><trkpt lat="29.713237396061608" lon="-7.9702539837301805"><ele>644.0</ele><time>2026-04-15T12:24:38Z</time></trkpt><trkpt lat="29.713369799909234" lon="-7.970149397041724"><ele>644.0</ele><time>2026-04-15T12:24:39Z</time></trkpt><trkpt lat="29.71349977640858" lon="-7.970043957404429"><ele>644.0</ele><time>2026-04-15T12:24:40Z</time></trkpt><trkpt lat="29.71362793737685" lon="-7.969937378692822"><ele>644.0</ele><time>2026-04-15T12:24:41Z</time></trkpt><trkpt lat="29.71375696346549" lon="-7.9698354078073494"><ele>644.25</ele><time>2026-04-15T12:24:42Z</time></trkpt><trkpt lat="29.713880512480888" lon="-7.969737325679817"><ele>644.5</ele><time>2026-04-15T12:24:43Z</time></trkpt><trkpt lat="29.714000222971883" lon="-7.969639161092459"><ele>644.75</ele><time>2026-04-15T12:24:44Z</time></trkpt><trkpt lat="29.71411930942028" lon="-7.969542548973965"><ele>645.0</ele><time>2026-04-15T12:24:45Z</time></trkpt><trkpt lat="29.71423702101913" lon="-7.969453243513658"><ele>645.0</ele><time>2026-04-15T12:24:46Z</time></trkpt><trkpt lat="29.714343443898333" lon="-7.9693537745520775"><ele>645.0</ele><time>2026-04-15T12:24:47Z</time></trkpt><trkpt lat="29.714457786883376" lon="-7.969278566219292"><ele>645.0</ele><time>2026-04-15T12:24:48Z</time></trkpt><trkpt lat="29.714568433501054" lon="-7.969207644442288"><ele>645.0</ele><time>2026-04-15T12:24:49Z</time></trkpt><trkpt lat="29.714678779845407" lon="-7.969145866467753"><ele>645.5</ele><time>2026-04-15T12:24:50Z</time></trkpt><trkpt lat="29.714790033298623" lon="-7.969083894720052"><ele>646.0</ele><time>2026-04-15T12:24:51Z</time></trkpt><trkpt lat="29.714922342520243" lon="-7.969044217022128"><ele>646.5</ele><time>2026-04-15T12:24:52Z</time></trkpt><trkpt lat="29.71505108573044" lon="-7.968988014204278"><ele>647.0</ele><time>2026-04-15T12:24:53Z</time></trkpt><trkpt lat="29.71518588917478" lon="-7.96893291321122"><ele>647.6666666666666</ele><time>2026-04-15T12:24:54Z</time></trkpt><trkpt lat="29.715326094422064" lon="-7.968892000479445"><ele>648.3333333333334</ele><time>2026-04-15T12:24:55Z</time></trkpt><trkpt lat="29.715472640558374" lon="-7.968857918320302"><ele>649.0</ele><time>2026-04-15T12:24:56Z</time></trkpt><trkpt lat="29.71562521500643" lon="-7.968823693209626"><ele>649.0</ele><time>2026-04-15T12:24:57Z</time></trkpt><trkpt lat="29.715777298691687" lon="-7.968801681917803"><ele>649.0</ele><time>2026-04-15T12:24:58Z</time></trkpt><trkpt lat="29.715933690392866" lon="-7.968797419043911"><ele>649.0</ele><time>2026-04-15T12:24:59Z</time></trkpt><trkpt lat="29.71609249777023" lon="-7.968796984659508"><ele>649.25</ele><time>2026-04-15T12:25:00Z</time></trkpt><trkpt lat="29.716243539348515" lon="-7.968799643832234"><ele>649.5</ele><time>2026-04-15T12:25:01Z</time></trkpt><trkpt lat="29.716385067199443" lon="-7.968812329869099"><ele>649.75</ele><time>2026-04-15T12:25:02Z</time></trkpt><trkpt lat="29.71651898010975" lon="-7.968830950837291"><ele>650.0</ele><time>2026-04-15T12:25:03Z</time></trkpt><trkpt lat="29.716649196484397" lon="-7.968853594002355"><ele>650.0</ele><time>2026-04-15T12:25:04Z</time></trkpt><trkpt lat="29.716776413400172" lon="-7.968888370544422"><ele>650.0</ele><time>2026-04-15T12:25:05Z</time></trkpt><trkpt lat="29.716900224630272" lon="-7.968931941318425"><ele>650.0</ele><time>2026-04-15T12:25:06Z</time></trkpt><trkpt lat="29.717018626614035" lon="-7.968974967155398"><ele>650.0</ele><time>2026-04-15T12:25:07Z</time></trkpt><trkpt lat="29.717128126926678" lon="-7.969013608977556"><ele>649.4</ele><time>2026-04-15T12:25:08Z</time></trkpt><trkpt lat="29.71722850100693" lon="-7.96905751628212"><ele>648.8</ele><time>2026-04-15T12:25:09Z</time></trkpt><trkpt lat="29.717319987869807" lon="-7.96910354563044"><ele>648.2</ele><time>2026-04-15T12:25:10Z</time></trkpt><trkpt lat="29.717404662159137" lon="-7.969147589315692"><ele>647.6</ele><time>2026-04-15T12:25:11Z</time></trkpt><trkpt lat="29.717481790308074" lon="-7.969187508564112"><ele>647.0</ele><time>2026-04-15T12:25:12Z</time></trkpt><trkpt lat="29.717550716017374" lon="-7.969225652368073"><ele>647.0</ele><time>2026-04-15T12:25:13Z</time></trkpt><trkpt lat="29.717646990657272" lon="-7.969276596140138"><ele>647.0</ele><time>2026-04-15T12:25:15Z</time></trkpt><trkpt lat="29.717725590036565" lon="-7.969323647758522"><ele>647.0</ele><time>2026-04-15T12:25:18Z</time></trkpt><trkpt lat="29.717792490415135" lon="-7.9693649933142225"><ele>647.0</ele><time>2026-04-15T12:25:20Z</time></trkpt><trkpt lat="29.71785958616391" lon="-7.96942944381312"><ele>647.0</ele><time>2026-04-15T12:25:22Z</time></trkpt><trkpt lat="29.71796603058709" lon="-7.969508396689088"><ele>646.6666666666666</ele><time>2026-04-15T12:25:24Z</time></trkpt><trkpt lat="29.71803392644959" lon="-7.969544211216127"><ele>646.3333333333333</ele><time>2026-04-15T12:25:25Z</time></trkpt><trkpt lat="29.71810317109423" lon="-7.969577422846574"><ele>646.0</ele><time>2026-04-15T12:25:26Z</time></trkpt><trkpt lat="29.718182764656778" lon="-7.969604830332682"><ele>645.6666666666666</ele><time>2026-04-15T12:25:27Z</time></trkpt><trkpt lat="29.71825860910098" lon="-7.969653053965181"><ele>645.3333333333334</ele><time>2026-04-15T12:25:28Z</time></trkpt><trkpt lat="29.71832888086516" lon="-7.969697364315089"><ele>645.0</ele><time>2026-04-15T12:25:29Z</time></trkpt><trkpt lat="29.718400576029104" lon="-7.9697425722034865"><ele>645.0</ele><time>2026-04-15T12:25:30Z</time></trkpt><trkpt lat="29.718468967496428" lon="-7.969785696924348"><ele>645.0</ele><time>2026-04-15T12:25:31Z</time></trkpt><trkpt lat="29.718556327175843" lon="-7.969845614470546"><ele>645.0</ele><time>2026-04-15T12:25:33Z</time></trkpt><trkpt lat="29.71864251189738" lon="-7.9699011334185155"><ele>645.0</ele><time>2026-04-15T12:25:35Z</time></trkpt><trkpt lat="29.71870741702368" lon="-7.969931253077917"><ele>645.0</ele><time>2026-04-15T12:25:36Z</time></trkpt><trkpt lat="29.718778810720867" lon="-7.969974396077776"><ele>645.0</ele><time>2026-04-15T12:25:37Z</time></trkpt><trkpt lat="29.718856065124175" lon="-7.970031297601002"><ele>645.75</ele><time>2026-04-15T12:25:38Z</time></trkpt><trkpt lat="29.718938111322597" lon="-7.970090378823499"><ele>646.5</ele><time>2026-04-15T12:25:39Z</time></trkpt><trkpt lat="29.71903426553102" lon="-7.970155769801767"><ele>647.25</ele><time>2026-04-15T12:25:40Z</time></trkpt><trkpt lat="29.719141464398987" lon="-7.970221195699981"><ele>648.0</ele><time>2026-04-15T12:25:41Z</time></trkpt><trkpt lat="29.719247762758012" lon="-7.9702867779703706"><ele>648.0</ele><time>2026-04-15T12:25:42Z</time></trkpt><trkpt lat="29.719361038885577" lon="-7.970358223083977"><ele>648.0</ele><time>2026-04-15T12:25:43Z</time></trkpt><trkpt lat="29.719480157831903" lon="-7.970435772030802"><ele>648.0</ele><time>2026-04-15T12:25:44Z</time></trkpt><trkpt lat="29.719606327391244" lon="-7.970519499588514"><ele>648.0</ele><time>2026-04-15T12:25:45Z</time></trkpt><trkpt lat="29.719744848066377" lon="-7.970612722084333"><ele>647.6666666666666</ele><time>2026-04-15T12:25:46Z</time></trkpt><trkpt lat="29.719883499437913" lon="-7.970699993942164"><ele>647.3333333333333</ele><time>2026-04-15T12:25:47Z</time></trkpt><trkpt lat="29.720018278611963" lon="-7.970784930289414"><ele>647.0</ele><time>2026-04-15T12:25:48Z</time></trkpt><trkpt lat="29.720151423603845" lon="-7.970870486105961"><ele>648.3333333333333</ele><time>2026-04-15T12:25:49Z</time></trkpt><trkpt lat="29.720289224500547" lon="-7.970958018911062"><ele>649.6666666666666</ele><time>2026-04-15T12:25:50Z</time></trkpt><trkpt lat="29.720430862891945" lon="-7.971046166804551"><ele>651.0</ele><time>2026-04-15T12:25:51Z</time></trkpt><trkpt lat="29.720571573039184" lon="-7.971131878691748"><ele>651.0</ele><time>2026-04-15T12:25:52Z</time></trkpt><trkpt lat="29.72071503995133" lon="-7.971225661293795"><ele>651.0</ele><time>2026-04-15T12:25:53Z</time></trkpt><trkpt lat="29.720856443118354" lon="-7.971317271474182"><ele>651.0</ele><time>2026-04-15T12:25:54Z</time></trkpt><trkpt lat="29.721000391927266" lon="-7.97140551827403"><ele>652.0</ele><time>2026-04-15T12:25:55Z</time></trkpt><trkpt lat="29.7211423410886" lon="-7.971496122714107"><ele>653.0</ele><time>2026-04-15T12:25:56Z</time></trkpt><trkpt lat="29.72128545519773" lon="-7.97158955207224"><ele>654.0</ele><time>2026-04-15T12:25:57Z</time></trkpt><trkpt lat="29.72142896747992" lon="-7.97168010684141"><ele>654.0</ele><time>2026-04-15T12:25:58Z</time></trkpt><trkpt lat="29.721564698761807" lon="-7.971768720202926"><ele>654.0</ele><time>2026-04-15T12:25:59Z</time></trkpt><trkpt lat="29.721689964882337" lon="-7.9718507601517326"><ele>654.0</ele><time>2026-04-15T12:26:00Z</time></trkpt><trkpt lat="29.72180395084197" lon="-7.971927309755123"><ele>654.0</ele><time>2026-04-15T12:26:01Z</time></trkpt><trkpt lat="29.72190895048237" lon="-7.971995629375545"><ele>654.75</ele><time>2026-04-15T12:26:02Z</time></trkpt><trkpt lat="29.722017521089178" lon="-7.972057066693741"><ele>655.5</ele><time>2026-04-15T12:26:03Z</time></trkpt><trkpt lat="29.722115716315773" lon="-7.972123407203399"><ele>656.25</ele><time>2026-04-15T12:26:04Z</time></trkpt><trkpt lat="29.722217515989474" lon="-7.972188077978609"><ele>657.0</ele><time>2026-04-15T12:26:05Z</time></trkpt><trkpt lat="29.722322493769916" lon="-7.972257795562794"><ele>657.0</ele><time>2026-04-15T12:26:06Z</time></trkpt><trkpt lat="29.722432786252817" lon="-7.972320329229935"><ele>657.0</ele><time>2026-04-15T12:26:07Z</time></trkpt><trkpt lat="29.72254147421312" lon="-7.972390150185317"><ele>657.0</ele><time>2026-04-15T12:26:08Z</time></trkpt><trkpt lat="29.72265176445471" lon="-7.972462228041254"><ele>657.0</ele><time>2026-04-15T12:26:09Z</time></trkpt><trkpt lat="29.722760886558625" lon="-7.972533493731079"><ele>657.0</ele><time>2026-04-15T12:26:10Z</time></trkpt><trkpt lat="29.722869204436194" lon="-7.972603551405517"><ele>657.0</ele><time>2026-04-15T12:26:11Z</time></trkpt><trkpt lat="29.722980758223866" lon="-7.972670857510443"><ele>657.0</ele><time>2026-04-15T12:26:12Z</time></trkpt><trkpt lat="29.723089486735617" lon="-7.972750047301579"><ele>657.0</ele><time>2026-04-15T12:26:13Z</time></trkpt><trkpt lat="29.723201236704902" lon="-7.972817351137347"><ele>657.0</ele><time>2026-04-15T12:26:14Z</time></trkpt><trkpt lat="29.723311937565605" lon="-7.972881859940601"><ele>657.0</ele><time>2026-04-15T12:26:15Z</time></trkpt><trkpt lat="29.723423563646502" lon="-7.972952020606346"><ele>657.0</ele><time>2026-04-15T12:26:16Z</time></trkpt><trkpt lat="29.723535574971137" lon="-7.973021208818132"><ele>657.0</ele><time>2026-04-15T12:26:17Z</time></trkpt><trkpt lat="29.723647185033414" lon="-7.97308810197927"><ele>657.0</ele><time>2026-04-15T12:26:18Z</time></trkpt><trkpt lat="29.723754212602618" lon="-7.97315648768547"><ele>657.0</ele><time>2026-04-15T12:26:19Z</time></trkpt><trkpt lat="29.723851819158188" lon="-7.9732239355464625"><ele>657.0</ele><time>2026-04-15T12:26:20Z</time></trkpt><trkpt lat="29.7239451058616" lon="-7.973291272690908"><ele>657.0</ele><time>2026-04-15T12:26:21Z</time></trkpt><trkpt lat="29.724038605364257" lon="-7.973349246093964"><ele>657.2</ele><time>2026-04-15T12:26:22Z</time></trkpt><trkpt lat="29.72412629049277" lon="-7.973401282503192"><ele>657.4000000000001</ele><time>2026-04-15T12:26:23Z</time></trkpt><trkpt lat="29.72420937629836" lon="-7.973458527182408"><ele>657.5999999999999</ele><time>2026-04-15T12:26:24Z</time></trkpt><trkpt lat="29.724289584648236" lon="-7.973507030293155"><ele>657.8</ele><time>2026-04-15T12:26:25Z</time></trkpt><trkpt lat="29.72436682225665" lon="-7.973549284040055"><ele>658.0</ele><time>2026-04-15T12:26:26Z</time></trkpt><trkpt lat="29.724433676235172" lon="-7.973599839929485"><ele>658.0</ele><time>2026-04-15T12:26:27Z</time></trkpt><trkpt lat="29.724500573534552" lon="-7.9736415507575344"><ele>658.0</ele><time>2026-04-15T12:26:28Z</time></trkpt><trkpt lat="29.72456766630975" lon="-7.973684179491798"><ele>658.0</ele><time>2026-04-15T12:26:29Z</time></trkpt><trkpt lat="29.724634973113723" lon="-7.973729252479245"><ele>658.0</ele><time>2026-04-15T12:26:30Z</time></trkpt><trkpt lat="29.72471006679606" lon="-7.973755883590571"><ele>658.0</ele><time>2026-04-15T12:26:31Z</time></trkpt><trkpt lat="29.724771354057886" lon="-7.9737945330789675"><ele>658.0</ele><time>2026-04-15T12:26:32Z</time></trkpt><trkpt lat="29.724829689452186" lon="-7.973831321032536"><ele>658.0</ele><time>2026-04-15T12:26:33Z</time></trkpt><trkpt lat="29.724933494900093" lon="-7.9738960300747825"><ele>658.0</ele><time>2026-04-15T12:26:35Z</time></trkpt><trkpt lat="29.725049656916912" lon="-7.973968329284328"><ele>658.0</ele><time>2026-04-15T12:26:37Z</time></trkpt><trkpt lat="29.725129567147256" lon="-7.974008211865581"><ele>658.0</ele><time>2026-04-15T12:26:38Z</time></trkpt><trkpt lat="29.725221318445097" lon="-7.974056340090621"><ele>658.0</ele><time>2026-04-15T12:26:39Z</time></trkpt><trkpt lat="29.725316404732357" lon="-7.974106422403621"><ele>658.0</ele><time>2026-04-15T12:26:40Z</time></trkpt><trkpt lat="29.72540838223681" lon="-7.974155171026922"><ele>658.25</ele><time>2026-04-15T12:26:41Z</time></trkpt><trkpt lat="29.72550714438218" lon="-7.97420751555168"><ele>658.5</ele><time>2026-04-15T12:26:42Z</time></trkpt><trkpt lat="29.725614060389283" lon="-7.974264181671124"><ele>658.75</ele><time>2026-04-15T12:26:43Z</time></trkpt><trkpt lat="29.7257159083129" lon="-7.974325208400797"><ele>659.0</ele><time>2026-04-15T12:26:44Z</time></trkpt><trkpt lat="29.725823902139545" lon="-7.974356724590773"><ele>659.0</ele><time>2026-04-15T12:26:45Z</time></trkpt><trkpt lat="29.725936161353015" lon="-7.974407306545997"><ele>659.0</ele><time>2026-04-15T12:26:46Z</time></trkpt><trkpt lat="29.726056247935368" lon="-7.974440643260551"><ele>659.0</ele><time>2026-04-15T12:26:47Z</time></trkpt><trkpt lat="29.72618101535366" lon="-7.97447523612483"><ele>659.0</ele><time>2026-04-15T12:26:48Z</time></trkpt><trkpt lat="29.726308319376948" lon="-7.9745101781684085"><ele>658.75</ele><time>2026-04-15T12:26:49Z</time></trkpt><trkpt lat="29.726439583315464" lon="-7.974537309064942"><ele>658.5</ele><time>2026-04-15T12:26:50Z</time></trkpt><trkpt lat="29.726578727928576" lon="-7.974575873684898"><ele>658.25</ele><time>2026-04-15T12:26:51Z</time></trkpt><trkpt lat="29.72672500442118" lon="-7.974591579178399"><ele>658.0</ele><time>2026-04-15T12:26:52Z</time></trkpt><trkpt lat="29.726868789046122" lon="-7.974597018404532"><ele>658.0</ele><time>2026-04-15T12:26:53Z</time></trkpt><trkpt lat="29.727010604921272" lon="-7.974575779179823"><ele>658.0</ele><time>2026-04-15T12:26:54Z</time></trkpt><trkpt lat="29.72714656071321" lon="-7.974572157964703"><ele>658.0</ele><time>2026-04-15T12:26:55Z</time></trkpt><trkpt lat="29.7272859671962" lon="-7.974582348505987"><ele>658.0</ele><time>2026-04-15T12:26:56Z</time></trkpt><trkpt lat="29.72742664431766" lon="-7.974568259853757"><ele>658.0</ele><time>2026-04-15T12:26:57Z</time></trkpt><trkpt lat="29.727566417299375" lon="-7.974544918459895"><ele>658.0</ele><time>2026-04-15T12:26:58Z</time></trkpt><trkpt lat="29.727702358925182" lon="-7.974517649481293"><ele>658.0</ele><time>2026-04-15T12:26:59Z</time></trkpt><trkpt lat="29.727830313821688" lon="-7.974495408786025"><ele>658.0</ele><time>2026-04-15T12:27:00Z</time></trkpt><trkpt lat="29.727955508706422" lon="-7.974475624105778"><ele>658.2</ele><time>2026-04-15T12:27:01Z</time></trkpt><trkpt lat="29.72807178552435" lon="-7.974451302260145"><ele>658.4</ele><time>2026-04-15T12:27:02Z</time></trkpt><trkpt lat="29.728185000667047" lon="-7.97443243142216"><ele>658.6</ele><time>2026-04-15T12:27:03Z</time></trkpt><trkpt lat="29.72828969411904" lon="-7.974404591448998"><ele>658.8000000000001</ele><time>2026-04-15T12:27:04Z</time></trkpt><trkpt lat="29.728392551440084" lon="-7.974378520223237"><ele>659.0</ele><time>2026-04-15T12:27:05Z</time></trkpt><trkpt lat="29.72849755968005" lon="-7.974359051247039"><ele>659.25</ele><time>2026-04-15T12:27:06Z</time></trkpt><trkpt lat="29.728605839176293" lon="-7.974334135842621"><ele>659.5</ele><time>2026-04-15T12:27:07Z</time></trkpt><trkpt lat="29.728720764511408" lon="-7.9743060039290325"><ele>659.75</ele><time>2026-04-15T12:27:08Z</time></trkpt><trkpt lat="29.72884334783823" lon="-7.97428032211591"><ele>660.0</ele><time>2026-04-15T12:27:09Z</time></trkpt><trkpt lat="29.72897016042976" lon="-7.974254887026937"><ele>660.0</ele><time>2026-04-15T12:27:10Z</time></trkpt><trkpt lat="29.729099792118124" lon="-7.974227165743629"><ele>660.0</ele><time>2026-04-15T12:27:11Z</time></trkpt><trkpt lat="29.729232305437165" lon="-7.974198964389129"><ele>660.0</ele><time>2026-04-15T12:27:12Z</time></trkpt><trkpt lat="29.72936600645098" lon="-7.97416637401948"><ele>660.0</ele><time>2026-04-15T12:27:13Z</time></trkpt><trkpt lat="29.72950190111037" lon="-7.974132460926023"><ele>660.5</ele><time>2026-04-15T12:27:14Z</time></trkpt><trkpt lat="29.729643706354246" lon="-7.9741075476945005"><ele>661.0</ele><time>2026-04-15T12:27:15Z</time></trkpt><trkpt lat="29.729778663380326" lon="-7.974076321756231"><ele>661.5</ele><time>2026-04-15T12:27:16Z</time></trkpt><trkpt lat="29.729909959520466" lon="-7.9740531455743175"><ele>662.0</ele><time>2026-04-15T12:27:17Z</time></trkpt><trkpt lat="29.73003514793057" lon="-7.974009005119441"><ele>662.0</ele><time>2026-04-15T12:27:18Z</time></trkpt><trkpt lat="29.73016195592023" lon="-7.973981133959497"><ele>662.0</ele><time>2026-04-15T12:27:19Z</time></trkpt><trkpt lat="29.730290874112292" lon="-7.973952495975115"><ele>662.0</ele><time>2026-04-15T12:27:20Z</time></trkpt><trkpt lat="29.730422808007916" lon="-7.973923426891987"><ele>662.0</ele><time>2026-04-15T12:27:21Z</time></trkpt><trkpt lat="29.7305558379427" lon="-7.973894755653497"><ele>662.0</ele><time>2026-04-15T12:27:22Z</time></trkpt><trkpt lat="29.730691862769095" lon="-7.973865889164957"><ele>662.0</ele><time>2026-04-15T12:27:23Z</time></trkpt><trkpt lat="29.730829770884316" lon="-7.97383719119612"><ele>662.0</ele><time>2026-04-15T12:27:24Z</time></trkpt><trkpt lat="29.730970226499984" lon="-7.973807603910152"><ele>662.0</ele><time>2026-04-15T12:27:25Z</time></trkpt><trkpt lat="29.731109489241774" lon="-7.973778734055541"><ele>663.25</ele><time>2026-04-15T12:27:26Z</time></trkpt><trkpt lat="29.73124870569932" lon="-7.973749873783937"><ele>664.5</ele><time>2026-04-15T12:27:27Z</time></trkpt><trkpt lat="29.73138838613916" lon="-7.973730442200209"><ele>665.75</ele><time>2026-04-15T12:27:28Z</time></trkpt><trkpt lat="29.731528596403283" lon="-7.973704471214659"><ele>667.0</ele><time>2026-04-15T12:27:29Z</time></trkpt><trkpt lat="29.731667981053736" lon="-7.973673054072981"><ele>667.0</ele><time>2026-04-15T12:27:30Z</time></trkpt><trkpt lat="29.731800075472783" lon="-7.97361383616983"><ele>667.0</ele><time>2026-04-15T12:27:31Z</time></trkpt><trkpt lat="29.731932085029243" lon="-7.9735831847981"><ele>667.0</ele><time>2026-04-15T12:27:32Z</time></trkpt><trkpt lat="29.732053068713387" lon="-7.9735367866543925"><ele>667.0</ele><time>2026-04-15T12:27:33Z</time></trkpt><trkpt lat="29.73217304556642" lon="-7.973503853934191"><ele>667.5</ele><time>2026-04-15T12:27:34Z</time></trkpt><trkpt lat="29.732287067440804" lon="-7.9734661796630855"><ele>668.0</ele><time>2026-04-15T12:27:35Z</time></trkpt><trkpt lat="29.73239662709547" lon="-7.973427504789202"><ele>668.5</ele><time>2026-04-15T12:27:36Z</time></trkpt><trkpt lat="29.73250523941583" lon="-7.973385431749068"><ele>669.0</ele><time>2026-04-15T12:27:37Z</time></trkpt><trkpt lat="29.732619290836386" lon="-7.973346794792779"><ele>669.75</ele><time>2026-04-15T12:27:38Z</time></trkpt><trkpt lat="29.732737811337405" lon="-7.973304123069385"><ele>670.5</ele><time>2026-04-15T12:27:39Z</time></trkpt><trkpt lat="29.732857409025613" lon="-7.973261600721036"><ele>671.25</ele><time>2026-04-15T12:27:40Z</time></trkpt><trkpt lat="29.732977454930847" lon="-7.973218539115649"><ele>672.0</ele><time>2026-04-15T12:27:41Z</time></trkpt><trkpt lat="29.733101766144706" lon="-7.973179474420962"><ele>672.0</ele><time>2026-04-15T12:27:42Z</time></trkpt><trkpt lat="29.73322448102928" lon="-7.9731364863898815"><ele>672.0</ele><time>2026-04-15T12:27:43Z</time></trkpt><trkpt lat="29.733342478512846" lon="-7.97309543542304"><ele>672.0</ele><time>2026-04-15T12:27:44Z</time></trkpt><trkpt lat="29.7334545805366" lon="-7.973055951067883"><ele>672.0</ele><time>2026-04-15T12:27:45Z</time></trkpt><trkpt lat="29.7335575977762" lon="-7.973021372331385"><ele>671.6</ele><time>2026-04-15T12:27:46Z</time></trkpt><trkpt lat="29.733657960351174" lon="-7.972986793018176"><ele>671.2</ele><time>2026-04-15T12:27:47Z</time></trkpt><trkpt lat="29.73375899482775" lon="-7.97295279824036"><ele>670.8</ele><time>2026-04-15T12:27:48Z</time></trkpt><trkpt lat="29.733863524315932" lon="-7.97292488267033"><ele>670.4</ele><time>2026-04-15T12:27:49Z</time></trkpt><trkpt lat="29.73396106858832" lon="-7.972893109550718"><ele>670.0</ele><time>2026-04-15T12:27:50Z</time></trkpt><trkpt lat="29.73405167767658" lon="-7.9728712900652825"><ele>670.0</ele><time>2026-04-15T12:27:51Z</time></trkpt><trkpt lat="29.734133521735846" lon="-7.972850885603515"><ele>670.0</ele><time>2026-04-15T12:27:52Z</time></trkpt><trkpt lat="29.73421436978463" lon="-7.972837709911483"><ele>670.0</ele><time>2026-04-15T12:27:53Z</time></trkpt><trkpt lat="29.73428802809101" lon="-7.972825730128671"><ele>670.0</ele><time>2026-04-15T12:27:54Z</time></trkpt><trkpt lat="29.734353824198877" lon="-7.972806023001337"><ele>670.0</ele><time>2026-04-15T12:27:55Z</time></trkpt><trkpt lat="29.73447066322535" lon="-7.972782561923637"><ele>670.0</ele><time>2026-04-15T12:27:57Z</time></trkpt><trkpt lat="29.73453549355211" lon="-7.972802378395791"><ele>670.3333333333334</ele><time>2026-04-15T12:27:58Z</time></trkpt><trkpt lat="29.73460355250655" lon="-7.972836369195288"><ele>670.6666666666667</ele><time>2026-04-15T12:27:59Z</time></trkpt><trkpt lat="29.7346721642817" lon="-7.9728677060254105"><ele>671.0</ele><time>2026-04-15T12:28:00Z</time></trkpt><trkpt lat="29.734751340817606" lon="-7.972894987076278"><ele>671.3333333333334</ele><time>2026-04-15T12:28:01Z</time></trkpt><trkpt lat="29.734832289016737" lon="-7.972912928891639"><ele>671.6666666666666</ele><time>2026-04-15T12:28:02Z</time></trkpt><trkpt lat="29.734906484711576" lon="-7.9729291933671504"><ele>672.0</ele><time>2026-04-15T12:28:03Z</time></trkpt><trkpt lat="29.734973219240924" lon="-7.972942885707804"><ele>672.0</ele><time>2026-04-15T12:28:04Z</time></trkpt><trkpt lat="29.735039903845802" lon="-7.97296061892401"><ele>672.0</ele><time>2026-04-15T12:28:05Z</time></trkpt><trkpt lat="29.735113992418263" lon="-7.972983888652149"><ele>672.0</ele><time>2026-04-15T12:28:06Z</time></trkpt><trkpt lat="29.73519663190986" lon="-7.972981610755311"><ele>672.0</ele><time>2026-04-15T12:28:07Z</time></trkpt><trkpt lat="29.735282288439574" lon="-7.972997228553481"><ele>672.0</ele><time>2026-04-15T12:28:08Z</time></trkpt><trkpt lat="29.735376179651105" lon="-7.9730143477885385"><ele>672.0</ele><time>2026-04-15T12:28:09Z</time></trkpt><trkpt lat="29.735466648251336" lon="-7.973030842973154"><ele>672.0</ele><time>2026-04-15T12:28:10Z</time></trkpt><trkpt lat="29.73555352515372" lon="-7.9730466832880404"><ele>672.0</ele><time>2026-04-15T12:28:11Z</time></trkpt><trkpt lat="29.73564590517521" lon="-7.973064320388733"><ele>672.0</ele><time>2026-04-15T12:28:12Z</time></trkpt><trkpt lat="29.735740851221927" lon="-7.973084637789881"><ele>672.0</ele><time>2026-04-15T12:28:13Z</time></trkpt><trkpt lat="29.735836974090237" lon="-7.973106075298237"><ele>672.0</ele><time>2026-04-15T12:28:14Z</time></trkpt><trkpt lat="29.735931141269383" lon="-7.9731273719152105"><ele>672.0</ele><time>2026-04-15T12:28:15Z</time></trkpt><trkpt lat="29.736026737194283" lon="-7.973167429399648"><ele>672.0</ele><time>2026-04-15T12:28:16Z</time></trkpt><trkpt lat="29.73611543014377" lon="-7.973185398828959"><ele>672.0</ele><time>2026-04-15T12:28:17Z</time></trkpt><trkpt lat="29.736196198865834" lon="-7.973193781119975"><ele>672.0</ele><time>2026-04-15T12:28:18Z</time></trkpt><trkpt lat="29.73627345654319" lon="-7.973209043591757"><ele>672.0</ele><time>2026-04-15T12:28:19Z</time></trkpt><trkpt lat="29.736351037702175" lon="-7.973220241030719"><ele>672.0</ele><time>2026-04-15T12:28:20Z</time></trkpt><trkpt lat="29.736428297630198" lon="-7.973232873472967"><ele>672.2</ele><time>2026-04-15T12:28:21Z</time></trkpt><trkpt lat="29.736500545739155" lon="-7.973247526512243"><ele>672.4000000000001</ele><time>2026-04-15T12:28:22Z</time></trkpt><trkpt lat="29.736564831497375" lon="-7.973254722593292"><ele>672.5999999999999</ele><time>2026-04-15T12:28:23Z</time></trkpt><trkpt lat="29.73668257408944" lon="-7.973265279053232"><ele>672.8</ele><time>2026-04-15T12:28:25Z</time></trkpt><trkpt lat="29.736792577565684" lon="-7.97326306914348"><ele>673.0</ele><time>2026-04-15T12:28:27Z</time></trkpt><trkpt lat="29.736942279474068" lon="-7.973285389535054"><ele>673.2</ele><time>2026-04-15T12:28:29Z</time></trkpt><trkpt lat="29.737026655674146" lon="-7.9732256003478925"><ele>673.4</ele><time>2026-04-15T12:28:31Z</time></trkpt><trkpt lat="29.73699671522657" lon="-7.973081124523072"><ele>673.6</ele><time>2026-04-15T12:28:32Z</time></trkpt><trkpt lat="29.73702936053453" lon="-7.972947897477263"><ele>673.8000000000001</ele><time>2026-04-15T12:28:34Z</time></trkpt><trkpt lat="29.73704928106818" lon="-7.972872159600983"><ele>674.0</ele><time>2026-04-15T12:28:35Z</time></trkpt><trkpt lat="29.737063157599504" lon="-7.972790448621484"><ele>674.0</ele><time>2026-04-15T12:28:36Z</time></trkpt><trkpt lat="29.737081415042912" lon="-7.972702545408911"><ele>674.0</ele><time>2026-04-15T12:28:37Z</time></trkpt><trkpt lat="29.737132949148293" lon="-7.972516041226926"><ele>674.0</ele><time>2026-04-15T12:28:39Z</time></trkpt><trkpt lat="29.737140296832095" lon="-7.972419322846695"><ele>674.0</ele><time>2026-04-15T12:28:40Z</time></trkpt><trkpt lat="29.737166291833947" lon="-7.972325404784567"><ele>674.0</ele><time>2026-04-15T12:28:41Z</time></trkpt><trkpt lat="29.737205571207934" lon="-7.972242234526103"><ele>674.0</ele><time>2026-04-15T12:28:42Z</time></trkpt><trkpt lat="29.737235886160132" lon="-7.9721584569615995"><ele>674.0</ele><time>2026-04-15T12:28:43Z</time></trkpt><trkpt lat="29.737261916700156" lon="-7.972069319334034"><ele>674.0</ele><time>2026-04-15T12:28:44Z</time></trkpt><trkpt lat="29.737302115840855" lon="-7.971984466368565"><ele>674.0</ele><time>2026-04-15T12:28:45Z</time></trkpt><trkpt lat="29.737362838371318" lon="-7.971911111779904"><ele>674.0</ele><time>2026-04-15T12:28:46Z</time></trkpt><trkpt lat="29.737405379085665" lon="-7.971836256824375"><ele>674.0</ele><time>2026-04-15T12:28:47Z</time></trkpt><trkpt lat="29.737446933653064" lon="-7.9717664551303224"><ele>674.0000000000001</ele><time>2026-04-15T12:28:48Z</time></trkpt><trkpt lat="29.737490486123992" lon="-7.971699610749032"><ele>674.0</ele><time>2026-04-15T12:28:49Z</time></trkpt><trkpt lat="29.737537849439924" lon="-7.971633354219785"><ele>674.0</ele><time>2026-04-15T12:28:50Z</time></trkpt><trkpt lat="29.73758360518946" lon="-7.97156436819392"><ele>674.0</ele><time>2026-04-15T12:28:51Z</time></trkpt><trkpt lat="29.737625273186453" lon="-7.971501582597633"><ele>674.0</ele><time>2026-04-15T12:28:52Z</time></trkpt><trkpt lat="29.73766605197021" lon="-7.97143885659891"><ele>674.0000000000001</ele><time>2026-04-15T12:28:53Z</time></trkpt><trkpt lat="29.737714334173337" lon="-7.971374010449133"><ele>674.0</ele><time>2026-04-15T12:28:54Z</time></trkpt><trkpt lat="29.73776216067406" lon="-7.971306536804181"><ele>674.5</ele><time>2026-04-15T12:28:55Z</time></trkpt><trkpt lat="29.7378080061077" lon="-7.971238928139864"><ele>675.0</ele><time>2026-04-15T12:28:56Z</time></trkpt><trkpt lat="29.737856812813423" lon="-7.971167851868109"><ele>675.5</ele><time>2026-04-15T12:28:57Z</time></trkpt><trkpt lat="29.737910601450977" lon="-7.971094695731778"><ele>676.0</ele><time>2026-04-15T12:28:58Z</time></trkpt><trkpt lat="29.73795024048634" lon="-7.971010609638191"><ele>676.5</ele><time>2026-04-15T12:28:59Z</time></trkpt><trkpt lat="29.737995778188814" lon="-7.97094333739012"><ele>677.0</ele><time>2026-04-15T12:29:00Z</time></trkpt><trkpt lat="29.738041790284765" lon="-7.97088541780242"><ele>676.6</ele><time>2026-04-15T12:29:01Z</time></trkpt><trkpt lat="29.738082882957315" lon="-7.970827086369388"><ele>676.2</ele><time>2026-04-15T12:29:02Z</time></trkpt><trkpt lat="29.738157934905168" lon="-7.970716445251563"><ele>675.8</ele><time>2026-04-15T12:29:04Z</time></trkpt><trkpt lat="29.738241053828023" lon="-7.970605885619673"><ele>675.4</ele><time>2026-04-15T12:29:06Z</time></trkpt><trkpt lat="29.738280380411084" lon="-7.97053907673623"><ele>675.0</ele><time>2026-04-15T12:29:07Z</time></trkpt><trkpt lat="29.738324876519435" lon="-7.970468267647884"><ele>675.0</ele><time>2026-04-15T12:29:08Z</time></trkpt><trkpt lat="29.73835064070513" lon="-7.970388687686602"><ele>675.0</ele><time>2026-04-15T12:29:09Z</time></trkpt><trkpt lat="29.738383302698146" lon="-7.9703221469156755"><ele>675.0</ele><time>2026-04-15T12:29:10Z</time></trkpt><trkpt lat="29.7384175850204" lon="-7.97025351217725"><ele>675.0</ele><time>2026-04-15T12:29:11Z</time></trkpt><trkpt lat="29.73845249976407" lon="-7.970183611534794"><ele>675.0</ele><time>2026-04-15T12:29:12Z</time></trkpt><trkpt lat="29.738481976759385" lon="-7.970104027872558"><ele>675.0</ele><time>2026-04-15T12:29:13Z</time></trkpt><trkpt lat="29.738515130253084" lon="-7.970021311575626"><ele>675.0</ele><time>2026-04-15T12:29:14Z</time></trkpt><trkpt lat="29.73854550589489" lon="-7.96994552585576"><ele>675.7142857142857</ele><time>2026-04-15T12:29:15Z</time></trkpt><trkpt lat="29.73857492356558" lon="-7.969872166947222"><ele>676.4285714285714</ele><time>2026-04-15T12:29:16Z</time></trkpt><trkpt lat="29.738602337546038" lon="-7.969803832576326"><ele>677.1428571428571</ele><time>2026-04-15T12:29:17Z</time></trkpt><trkpt lat="29.738629951700354" lon="-7.969734999264447"><ele>677.8571428571429</ele><time>2026-04-15T12:29:18Z</time></trkpt><trkpt lat="29.738658865864675" lon="-7.969662925436565"><ele>678.5714285714286</ele><time>2026-04-15T12:29:19Z</time></trkpt><trkpt lat="29.73869137225898" lon="-7.969581897308564"><ele>679.2857142857143</ele><time>2026-04-15T12:29:20Z</time></trkpt><trkpt lat="29.73872682205384" lon="-7.969493532230159"><ele>680.0</ele><time>2026-04-15T12:29:21Z</time></trkpt><trkpt lat="29.738760998262126" lon="-7.9694083417594985"><ele>680.0</ele><time>2026-04-15T12:29:22Z</time></trkpt><trkpt lat="29.738795350155065" lon="-7.9693234012993175"><ele>680.0</ele><time>2026-04-15T12:29:23Z</time></trkpt><trkpt lat="29.73883193010002" lon="-7.969233015405916"><ele>680.0</ele><time>2026-04-15T12:29:24Z</time></trkpt><trkpt lat="29.73886949652907" lon="-7.969141567969464"><ele>680.0</ele><time>2026-04-15T12:29:25Z</time></trkpt><trkpt lat="29.738914284731397" lon="-7.96905325405798"><ele>680.0</ele><time>2026-04-15T12:29:26Z</time></trkpt><trkpt lat="29.73894405208158" lon="-7.968961948203314"><ele>680.0</ele><time>2026-04-15T12:29:27Z</time></trkpt><trkpt lat="29.73897391939315" lon="-7.968875390437091"><ele>680.1666666666666</ele><time>2026-04-15T12:29:28Z</time></trkpt><trkpt lat="29.739009045283034" lon="-7.968790506988037"><ele>680.3333333333333</ele><time>2026-04-15T12:29:29Z</time></trkpt><trkpt lat="29.739043910209602" lon="-7.9687094510914775"><ele>680.5</ele><time>2026-04-15T12:29:30Z</time></trkpt><trkpt lat="29.739077638748668" lon="-7.968630732520119"><ele>680.6666666666666</ele><time>2026-04-15T12:29:31Z</time></trkpt><trkpt lat="29.73911201341271" lon="-7.9685553114433025"><ele>680.8333333333334</ele><time>2026-04-15T12:29:32Z</time></trkpt><trkpt lat="29.739150988850955" lon="-7.968481829154646"><ele>681.0</ele><time>2026-04-15T12:29:33Z</time></trkpt><trkpt lat="29.739192548049672" lon="-7.968405435651625"><ele>680.8333333333334</ele><time>2026-04-15T12:29:34Z</time></trkpt><trkpt lat="29.73923041941914" lon="-7.9683237206018145"><ele>680.6666666666666</ele><time>2026-04-15T12:29:35Z</time></trkpt><trkpt lat="29.739272829574567" lon="-7.968241393215235"><ele>680.5</ele><time>2026-04-15T12:29:36Z</time></trkpt><trkpt lat="29.739314819304294" lon="-7.968159404255548"><ele>680.3333333333333</ele><time>2026-04-15T12:29:37Z</time></trkpt><trkpt lat="29.739359210865583" lon="-7.968077076846959"><ele>680.1666666666666</ele><time>2026-04-15T12:29:38Z</time></trkpt><trkpt lat="29.73940799969587" lon="-7.967994999019659"><ele>680.0</ele><time>2026-04-15T12:29:39Z</time></trkpt><trkpt lat="29.739462087597495" lon="-7.9679139187643075"><ele>680.0</ele><time>2026-04-15T12:29:40Z</time></trkpt><trkpt lat="29.73951662563166" lon="-7.967836024533822"><ele>680.0</ele><time>2026-04-15T12:29:41Z</time></trkpt><trkpt lat="29.739575326848367" lon="-7.96776502297731"><ele>680.0</ele><time>2026-04-15T12:29:42Z</time></trkpt><trkpt lat="29.739636674693475" lon="-7.967695830164509"><ele>680.0</ele><time>2026-04-15T12:29:43Z</time></trkpt><trkpt lat="29.739702917067493" lon="-7.967624192419947"><ele>680.0</ele><time>2026-04-15T12:29:44Z</time></trkpt><trkpt lat="29.739772144434042" lon="-7.96755362772311"><ele>680.0</ele><time>2026-04-15T12:29:45Z</time></trkpt><trkpt lat="29.739842780726285" lon="-7.967487287156664"><ele>680.0</ele><time>2026-04-15T12:29:46Z</time></trkpt><trkpt lat="29.73991440620892" lon="-7.967425376766166"><ele>680.0</ele><time>2026-04-15T12:29:47Z</time></trkpt><trkpt lat="29.739988289541888" lon="-7.967365966954018"><ele>680.0</ele><time>2026-04-15T12:29:48Z</time></trkpt><trkpt lat="29.74006549426684" lon="-7.967308856673095"><ele>680.0</ele><time>2026-04-15T12:29:49Z</time></trkpt><trkpt lat="29.740145467959994" lon="-7.967256379289661"><ele>680.0</ele><time>2026-04-15T12:29:50Z</time></trkpt><trkpt lat="29.740227441750605" lon="-7.967205046507347"><ele>680.0</ele><time>2026-04-15T12:29:51Z</time></trkpt><trkpt lat="29.7403112181934" lon="-7.967157397404386"><ele>680.0</ele><time>2026-04-15T12:29:52Z</time></trkpt><trkpt lat="29.740402378440596" lon="-7.967110445322082"><ele>680.0</ele><time>2026-04-15T12:29:53Z</time></trkpt><trkpt lat="29.74049583509764" lon="-7.96706992386474"><ele>680.0</ele><time>2026-04-15T12:29:54Z</time></trkpt><trkpt lat="29.740596105852788" lon="-7.96703398666776"><ele>680.0</ele><time>2026-04-15T12:29:55Z</time></trkpt><trkpt lat="29.740696513086846" lon="-7.967001505059338"><ele>680.0</ele><time>2026-04-15T12:29:56Z</time></trkpt><trkpt lat="29.740798989123896" lon="-7.9669750519589435"><ele>680.0</ele><time>2026-04-15T12:29:57Z</time></trkpt><trkpt lat="29.740900601298616" lon="-7.966952458772203"><ele>680.0</ele><time>2026-04-15T12:29:58Z</time></trkpt><trkpt lat="29.74100143397886" lon="-7.966936172284868"><ele>680.0</ele><time>2026-04-15T12:29:59Z</time></trkpt><trkpt lat="29.741100473184986" lon="-7.966925632016376"><ele>680.0</ele><time>2026-04-15T12:30:00Z</time></trkpt><trkpt lat="29.741201322931484" lon="-7.966924029026557"><ele>680.0</ele><time>2026-04-15T12:30:01Z</time></trkpt><trkpt lat="29.741303066841603" lon="-7.966926614655727"><ele>680.0</ele><time>2026-04-15T12:30:02Z</time></trkpt><trkpt lat="29.74140807088867" lon="-7.96693219953134"><ele>680.0</ele><time>2026-04-15T12:30:03Z</time></trkpt><trkpt lat="29.74151358690758" lon="-7.96694377737958"><ele>680.0</ele><time>2026-04-15T12:30:04Z</time></trkpt><trkpt lat="29.741613986477454" lon="-7.966958796763637"><ele>680.0</ele><time>2026-04-15T12:30:05Z</time></trkpt><trkpt lat="29.741715526641684" lon="-7.96697780063077"><ele>680.0</ele><time>2026-04-15T12:30:06Z</time></trkpt><trkpt lat="29.74181505535503" lon="-7.9669992031587515"><ele>680.0</ele><time>2026-04-15T12:30:07Z</time></trkpt><trkpt lat="29.74190856982975" lon="-7.9670256668355925"><ele>680.0</ele><time>2026-04-15T12:30:08Z</time></trkpt><trkpt lat="29.741998383436155" lon="-7.967053849354466"><ele>680.0</ele><time>2026-04-15T12:30:09Z</time></trkpt><trkpt lat="29.742083327168814" lon="-7.967077367679657"><ele>680.0</ele><time>2026-04-15T12:30:10Z</time></trkpt><trkpt lat="29.742160245448748" lon="-7.967098658217302"><ele>680.1428571428572</ele><time>2026-04-15T12:30:11Z</time></trkpt><trkpt lat="29.74223146290296" lon="-7.967115159009133"><ele>680.2857142857142</ele><time>2026-04-15T12:30:12Z</time></trkpt><trkpt lat="29.742302010190905" lon="-7.967131834297774"><ele>680.4285714285714</ele><time>2026-04-15T12:30:13Z</time></trkpt><trkpt lat="29.742372077190463" lon="-7.967149782418116"><ele>680.5714285714287</ele><time>2026-04-15T12:30:14Z</time></trkpt><trkpt lat="29.742446502574186" lon="-7.96716519195537"><ele>680.7142857142858</ele><time>2026-04-15T12:30:15Z</time></trkpt><trkpt lat="29.742521466213894" lon="-7.967181307309893"><ele>680.8571428571429</ele><time>2026-04-15T12:30:16Z</time></trkpt><trkpt lat="29.742597847598933" lon="-7.967202832606032"><ele>681.0</ele><time>2026-04-15T12:30:17Z</time></trkpt><trkpt lat="29.74267544941608" lon="-7.9672282713139095"><ele>681.1666666666666</ele><time>2026-04-15T12:30:18Z</time></trkpt><trkpt lat="29.742751820336245" lon="-7.967254239306897"><ele>681.3333333333334</ele><time>2026-04-15T12:30:19Z</time></trkpt><trkpt lat="29.742821985593107" lon="-7.9672741818464905"><ele>681.5</ele><time>2026-04-15T12:30:20Z</time></trkpt><trkpt lat="29.742892757158394" lon="-7.9672974330004225"><ele>681.6666666666667</ele><time>2026-04-15T12:30:21Z</time></trkpt><trkpt lat="29.74296598005475" lon="-7.967319995076366"><ele>681.8333333333334</ele><time>2026-04-15T12:30:22Z</time></trkpt><trkpt lat="29.74304764181364" lon="-7.967344081876609"><ele>682.0</ele><time>2026-04-15T12:30:23Z</time></trkpt><trkpt lat="29.74313461239707" lon="-7.967361635567181"><ele>682.0</ele><time>2026-04-15T12:30:24Z</time></trkpt><trkpt lat="29.743221563209158" lon="-7.967375880972251"><ele>682.0</ele><time>2026-04-15T12:30:25Z</time></trkpt><trkpt lat="29.743305794088055" lon="-7.967397494074541"><ele>682.0</ele><time>2026-04-15T12:30:26Z</time></trkpt><trkpt lat="29.743384921428763" lon="-7.967422556107294"><ele>682.0</ele><time>2026-04-15T12:30:27Z</time></trkpt><trkpt lat="29.743461928065777" lon="-7.967449456659182"><ele>682.0</ele><time>2026-04-15T12:30:28Z</time></trkpt><trkpt lat="29.743535600399372" lon="-7.967473071166295"><ele>682.0</ele><time>2026-04-15T12:30:29Z</time></trkpt><trkpt lat="29.743608496967877" lon="-7.96748978356249"><ele>682.0</ele><time>2026-04-15T12:30:30Z</time></trkpt><trkpt lat="29.743713502828236" lon="-7.967504646712797"><ele>682.0</ele><time>2026-04-15T12:30:32Z</time></trkpt><trkpt lat="29.743799466082788" lon="-7.967508754984303"><ele>682.0</ele><time>2026-04-15T12:30:35Z</time></trkpt><trkpt lat="29.74387583777359" lon="-7.967521325195552"><ele>682.0</ele><time>2026-04-15T12:30:51Z</time></trkpt><trkpt lat="29.74396624453073" lon="-7.967539782826783"><ele>682.0</ele><time>2026-04-15T12:30:54Z</time></trkpt><trkpt lat="29.744000257503494" lon="-7.967700935524189"><ele>682.0</ele><time>2026-04-15T12:30:56Z</time></trkpt><trkpt lat="29.744005297594295" lon="-7.96778056596742"><ele>682.0</ele><time>2026-04-15T12:30:57Z</time></trkpt><trkpt lat="29.744004413415055" lon="-7.967866906268678"><ele>682.0</ele><time>2026-04-15T12:30:58Z</time></trkpt><trkpt lat="29.744000398301008" lon="-7.967957176807145"><ele>682.0</ele><time>2026-04-15T12:30:59Z</time></trkpt><trkpt lat="29.743996544068533" lon="-7.968050695216418"><ele>682.0</ele><time>2026-04-15T12:31:00Z</time></trkpt><trkpt lat="29.74399719243912" lon="-7.968150946422192"><ele>682.0</ele><time>2026-04-15T12:31:01Z</time></trkpt><trkpt lat="29.743993756610035" lon="-7.968254047320347"><ele>682.4000000000001</ele><time>2026-04-15T12:31:02Z</time></trkpt><trkpt lat="29.7439968311279" lon="-7.968364096149565"><ele>682.8000000000001</ele><time>2026-04-15T12:31:03Z</time></trkpt><trkpt lat="29.74400122564988" lon="-7.96847690493943"><ele>683.2</ele><time>2026-04-15T12:31:04Z</time></trkpt><trkpt lat="29.74400687409212" lon="-7.968598772795769"><ele>683.6</ele><time>2026-04-15T12:31:05Z</time></trkpt><trkpt lat="29.744012257234903" lon="-7.968716268032745"><ele>684.0</ele><time>2026-04-15T12:31:06Z</time></trkpt><trkpt lat="29.74401549052916" lon="-7.968831873554334"><ele>684.0</ele><time>2026-04-15T12:31:07Z</time></trkpt><trkpt lat="29.744013017666237" lon="-7.968947726599851"><ele>684.0</ele><time>2026-04-15T12:31:08Z</time></trkpt><trkpt lat="29.744013377025137" lon="-7.969065900359476"><ele>684.0</ele><time>2026-04-15T12:31:09Z</time></trkpt><trkpt lat="29.7440159909298" lon="-7.969184882080531"><ele>684.0</ele><time>2026-04-15T12:31:10Z</time></trkpt><trkpt lat="29.744020567551033" lon="-7.969303848435937"><ele>684.0</ele><time>2026-04-15T12:31:11Z</time></trkpt><trkpt lat="29.74402809805031" lon="-7.969418324823573"><ele>684.3333333333334</ele><time>2026-04-15T12:31:12Z</time></trkpt><trkpt lat="29.744034346415855" lon="-7.969528007954614"><ele>684.6666666666666</ele><time>2026-04-15T12:31:13Z</time></trkpt><trkpt lat="29.744036976335526" lon="-7.969629284679697"><ele>685.0</ele><time>2026-04-15T12:31:14Z</time></trkpt><trkpt lat="29.744038758827035" lon="-7.969726427773148"><ele>685.3333333333333</ele><time>2026-04-15T12:31:15Z</time></trkpt><trkpt lat="29.7440375734927" lon="-7.969820191539224"><ele>685.6666666666666</ele><time>2026-04-15T12:31:16Z</time></trkpt><trkpt lat="29.744044475825596" lon="-7.969907840336426"><ele>686.0</ele><time>2026-04-15T12:31:17Z</time></trkpt><trkpt lat="29.744051245112665" lon="-7.96999502210602"><ele>686.0</ele><time>2026-04-15T12:31:18Z</time></trkpt><trkpt lat="29.74405780500533" lon="-7.970077956171719"><ele>686.0</ele><time>2026-04-15T12:31:19Z</time></trkpt><trkpt lat="29.744061331518274" lon="-7.970161432543582"><ele>686.0</ele><time>2026-04-15T12:31:20Z</time></trkpt><trkpt lat="29.744066105056906" lon="-7.970246946186189"><ele>686.0</ele><time>2026-04-15T12:31:21Z</time></trkpt><trkpt lat="29.744067164977572" lon="-7.970334899296318"><ele>686.0</ele><time>2026-04-15T12:31:22Z</time></trkpt><trkpt lat="29.74406437589071" lon="-7.97042384357556"><ele>686.0</ele><time>2026-04-15T12:31:23Z</time></trkpt><trkpt lat="29.744062356360136" lon="-7.970521889626687"><ele>686.0</ele><time>2026-04-15T12:31:24Z</time></trkpt><trkpt lat="29.744060934586503" lon="-7.970616927453162"><ele>686.0</ele><time>2026-04-15T12:31:25Z</time></trkpt><trkpt lat="29.74405825567395" lon="-7.970706825300534"><ele>686.0</ele><time>2026-04-15T12:31:26Z</time></trkpt><trkpt lat="29.74404887362222" lon="-7.970796596440163"><ele>686.0</ele><time>2026-04-15T12:31:27Z</time></trkpt><trkpt lat="29.744035831802133" lon="-7.970883464338856"><ele>686.0</ele><time>2026-04-15T12:31:28Z</time></trkpt><trkpt lat="29.744021650454165" lon="-7.970963597417006"><ele>686.0</ele><time>2026-04-15T12:31:29Z</time></trkpt><trkpt lat="29.744007557086295" lon="-7.971040700595849"><ele>686.1666666666666</ele><time>2026-04-15T12:31:30Z</time></trkpt><trkpt lat="29.7439946934309" lon="-7.971117630283024"><ele>686.3333333333333</ele><time>2026-04-15T12:31:31Z</time></trkpt><trkpt lat="29.74398332720306" lon="-7.971198064390451"><ele>686.5</ele><time>2026-04-15T12:31:32Z</time></trkpt><trkpt lat="29.74397864709992" lon="-7.97128446538231"><ele>686.6666666666666</ele><time>2026-04-15T12:31:33Z</time></trkpt><trkpt lat="29.74396775406307" lon="-7.971368477469852"><ele>686.8333333333334</ele><time>2026-04-15T12:31:34Z</time></trkpt><trkpt lat="29.743954986868626" lon="-7.971461887706242"><ele>687.0</ele><time>2026-04-15T12:31:35Z</time></trkpt><trkpt lat="29.743937395488185" lon="-7.971561933227257"><ele>687.0</ele><time>2026-04-15T12:31:36Z</time></trkpt><trkpt lat="29.74391583832265" lon="-7.971662250865207"><ele>687.0</ele><time>2026-04-15T12:31:37Z</time></trkpt><trkpt lat="29.743907388245848" lon="-7.971757824120404"><ele>687.0</ele><time>2026-04-15T12:31:38Z</time></trkpt><trkpt lat="29.743894315887893" lon="-7.97185758832125"><ele>687.0</ele><time>2026-04-15T12:31:39Z</time></trkpt><trkpt lat="29.74387802953243" lon="-7.971963453061381"><ele>687.0</ele><time>2026-04-15T12:31:40Z</time></trkpt><trkpt lat="29.743863327097298" lon="-7.972047943067218"><ele>687.0</ele><time>2026-04-15T12:31:41Z</time></trkpt><trkpt lat="29.743852297895604" lon="-7.972120616644344"><ele>686.6666666666666</ele><time>2026-04-15T12:31:42Z</time></trkpt><trkpt lat="29.743829450970406" lon="-7.972247743863691"><ele>686.3333333333334</ele><time>2026-04-15T12:31:44Z</time></trkpt><trkpt lat="29.743817303173287" lon="-7.972369938556899"><ele>686.0</ele><time>2026-04-15T12:31:46Z</time></trkpt><trkpt lat="29.74380096800234" lon="-7.972443578893272"><ele>685.6666666666667</ele><time>2026-04-15T12:31:47Z</time></trkpt><trkpt lat="29.743789081129197" lon="-7.972522703707755"><ele>685.3333333333334</ele><time>2026-04-15T12:31:48Z</time></trkpt><trkpt lat="29.743772011960022" lon="-7.972605608745687"><ele>685.0</ele><time>2026-04-15T12:31:49Z</time></trkpt><trkpt lat="29.743753066770505" lon="-7.972694246885882"><ele>684.8333333333334</ele><time>2026-04-15T12:31:50Z</time></trkpt><trkpt lat="29.743736353042266" lon="-7.97278251152726"><ele>684.6666666666667</ele><time>2026-04-15T12:31:51Z</time></trkpt><trkpt lat="29.743733051153864" lon="-7.9728677903839635"><ele>684.5</ele><time>2026-04-15T12:31:52Z</time></trkpt><trkpt lat="29.743724314005966" lon="-7.972940803313402"><ele>684.3333333333334</ele><time>2026-04-15T12:31:53Z</time></trkpt><trkpt lat="29.743725168146966" lon="-7.973065147773782"><ele>684.1666666666666</ele><time>2026-04-15T12:31:55Z</time></trkpt><trkpt lat="29.743765388445407" lon="-7.973137045836245"><ele>684.0</ele><time>2026-04-15T12:31:57Z</time></trkpt><trkpt lat="29.743889676041565" lon="-7.973143124117387"><ele>684.0</ele><time>2026-04-15T12:32:00Z</time></trkpt><trkpt lat="29.743995391412966" lon="-7.9731072470659035"><ele>684.0</ele><time>2026-04-15T12:32:02Z</time></trkpt><trkpt lat="29.744058112004097" lon="-7.973100781441336"><ele>684.0</ele><time>2026-04-15T12:32:03Z</time></trkpt><trkpt lat="29.74412226690733" lon="-7.973088767464493"><ele>684.0</ele><time>2026-04-15T12:32:04Z</time></trkpt><trkpt lat="29.744234120412735" lon="-7.973079753472825"><ele>684.0</ele><time>2026-04-15T12:32:06Z</time></trkpt><trkpt lat="29.74434478929649" lon="-7.973064474516508"><ele>684.0</ele><time>2026-04-15T12:32:08Z</time></trkpt><trkpt lat="29.74444457466784" lon="-7.973046433841268"><ele>684.0</ele><time>2026-04-15T12:32:10Z</time></trkpt><trkpt lat="29.744555510233784" lon="-7.973036208810447"><ele>684.0</ele><time>2026-04-15T12:32:12Z</time></trkpt><trkpt lat="29.74467080418552" lon="-7.973011320527006"><ele>684.0</ele><time>2026-04-15T12:32:14Z</time></trkpt><trkpt lat="29.74479629780097" lon="-7.972993034556997"><ele>684.0</ele><time>2026-04-15T12:32:16Z</time></trkpt><trkpt lat="29.74490443938681" lon="-7.972986017123747"><ele>684.0</ele><time>2026-04-15T12:32:18Z</time></trkpt><trkpt lat="29.744992960994" lon="-7.972977309647976"><ele>684.0</ele><time>2026-04-15T12:32:20Z</time></trkpt><trkpt lat="29.745057153838612" lon="-7.972963745026473"><ele>684.0</ele><time>2026-04-15T12:32:22Z</time></trkpt><trkpt lat="29.745123968080623" lon="-7.9729394806701945"><ele>684.0</ele><time>2026-04-15T12:32:24Z</time></trkpt><trkpt lat="29.745191980496255" lon="-7.972914140953419"><ele>684.0</ele><time>2026-04-15T12:32:27Z</time></trkpt><trkpt lat="29.745264112576308" lon="-7.972846986618183"><ele>684.8000000000001</ele><time>2026-04-15T12:32:30Z</time></trkpt><trkpt lat="29.745325791662427" lon="-7.972904421560354"><ele>685.6</ele><time>2026-04-15T12:32:31Z</time></trkpt><trkpt lat="29.745411828745357" lon="-7.9729120744397814"><ele>686.4</ele><time>2026-04-15T12:32:33Z</time></trkpt><trkpt lat="29.74552986132008" lon="-7.972953409462459"><ele>687.2</ele><time>2026-04-15T12:32:35Z</time></trkpt><trkpt lat="29.745650967068638" lon="-7.973017454004637"><ele>688.0</ele><time>2026-04-15T12:32:37Z</time></trkpt><trkpt lat="29.74571209883826" lon="-7.973048906161591"><ele>688.0</ele><time>2026-04-15T12:32:38Z</time></trkpt><trkpt lat="29.745826673320117" lon="-7.973089827083525"><ele>688.0</ele><time>2026-04-15T12:32:40Z</time></trkpt><trkpt lat="29.745942386164423" lon="-7.973140161133896"><ele>688.0</ele><time>2026-04-15T12:32:42Z</time></trkpt><trkpt lat="29.74603975541872" lon="-7.973168237087889"><ele>688.0</ele><time>2026-04-15T12:32:44Z</time></trkpt><trkpt lat="29.74611370950207" lon="-7.973188566198839"><ele>688.0</ele><time>2026-04-15T12:32:46Z</time></trkpt><trkpt lat="29.74619415018701" lon="-7.973186457600536"><ele>691.0</ele><time>2026-04-15T12:32:49Z</time></trkpt><trkpt lat="29.74625388855848" lon="-7.973254278167351"><ele>691.0</ele><time>2026-04-15T12:39:24Z</time></trkpt><trkpt lat="29.74631927143005" lon="-7.973218565872054"><ele>691.0</ele><time>2026-04-15T12:50:22Z</time></trkpt><trkpt lat="29.746272514194562" lon="-7.9732973253838315"><ele>691.0</ele><time>2026-04-15T12:50:37Z</time></trkpt></trkseg></trk></gpx>